<?xml version="1.0" encoding="UTF-8"?>
<gpx version="1.1" creator="https://www.youtrack.es" xsi:schemaLocation="http://www.topografix.com/GPX/1/1 http://www.topografix.com/GPX/1/1/gpx.xsd http://www.garmin.com/xmlschemas/GpxExtensions/v3 http://www.garmin.com/xmlschemas/GpxExtensionsv3.xsd http://www.garmin.com/xmlschemas/TrackPointExtension/v1 http://www.garmin.com/xmlschemas/TrackPointExtensionv1.xsd" xmlns:gpxtpx="http://www.garmin.com/xmlschemas/TrackPointExtension/v1" xmlns:gpxx="http://www.garmin.com/xmlschemas/GpxExtensions/v3" xmlns:xsi="http://www.w3.org/2001/XMLSchema-instance">
  <metadata>
    <link href="https://www.youtrack.es">
      <text>YouTrack.es</text>
    </link>
    <time>2026-05-08T08:34:41Z</time>
  </metadata>
  <trk>
    <src>https://www.youtrack.es</src>
    <link href="https://www.youtrack.es/ruta/2448-fuente-agria-villaharta">
      <text>YouTrack.es</text>
    </link>
    <trkseg>
      <trkpt lat="38.12967667" lon="-4.90028">
        <ele>487.0</ele>
        <time>2018-10-06T07:06:20.000Z</time>
      </trkpt>
      <trkpt lat="38.129675" lon="-4.90028333">
        <ele>487.0</ele>
        <time>2018-10-06T07:06:21.000Z</time>
      </trkpt>
      <trkpt lat="38.12967" lon="-4.90029167">
        <ele>488.0</ele>
        <time>2018-10-06T07:06:22.000Z</time>
      </trkpt>
      <trkpt lat="38.12966833" lon="-4.90029667">
        <ele>488.0</ele>
        <time>2018-10-06T07:06:23.000Z</time>
      </trkpt>
      <trkpt lat="38.12966833" lon="-4.900295">
        <ele>489.0</ele>
        <time>2018-10-06T07:06:24.000Z</time>
      </trkpt>
      <trkpt lat="38.12966667" lon="-4.900295">
        <ele>490.0</ele>
        <time>2018-10-06T07:06:25.000Z</time>
      </trkpt>
      <trkpt lat="38.12966" lon="-4.90029">
        <ele>492.0</ele>
        <time>2018-10-06T07:06:26.000Z</time>
      </trkpt>
      <trkpt lat="38.129655" lon="-4.90028667">
        <ele>493.0</ele>
        <time>2018-10-06T07:06:27.000Z</time>
      </trkpt>
      <trkpt lat="38.12965167" lon="-4.90028333">
        <ele>494.0</ele>
        <time>2018-10-06T07:06:28.000Z</time>
      </trkpt>
      <trkpt lat="38.129645" lon="-4.900285">
        <ele>495.0</ele>
        <time>2018-10-06T07:06:29.000Z</time>
      </trkpt>
      <trkpt lat="38.12964167" lon="-4.900285">
        <ele>496.0</ele>
        <time>2018-10-06T07:06:30.000Z</time>
      </trkpt>
      <trkpt lat="38.129635" lon="-4.90028833">
        <ele>497.0</ele>
        <time>2018-10-06T07:06:31.000Z</time>
      </trkpt>
      <trkpt lat="38.12962833" lon="-4.90029">
        <ele>497.0</ele>
        <time>2018-10-06T07:06:32.000Z</time>
      </trkpt>
      <trkpt lat="38.12961833" lon="-4.90029">
        <ele>498.0</ele>
        <time>2018-10-06T07:06:33.000Z</time>
      </trkpt>
      <trkpt lat="38.12960833" lon="-4.90028833">
        <ele>499.0</ele>
        <time>2018-10-06T07:06:34.000Z</time>
      </trkpt>
      <trkpt lat="38.1296" lon="-4.90028667">
        <ele>499.0</ele>
        <time>2018-10-06T07:06:35.000Z</time>
      </trkpt>
      <trkpt lat="38.129595" lon="-4.90029">
        <ele>500.0</ele>
        <time>2018-10-06T07:06:36.000Z</time>
      </trkpt>
      <trkpt lat="38.12958833" lon="-4.90029667">
        <ele>501.0</ele>
        <time>2018-10-06T07:06:37.000Z</time>
      </trkpt>
      <trkpt lat="38.12958" lon="-4.900295">
        <ele>501.0</ele>
        <time>2018-10-06T07:06:38.000Z</time>
      </trkpt>
      <trkpt lat="38.129575" lon="-4.90029833">
        <ele>502.0</ele>
        <time>2018-10-06T07:06:39.000Z</time>
      </trkpt>
      <trkpt lat="38.12956833" lon="-4.9003">
        <ele>502.0</ele>
        <time>2018-10-06T07:06:40.000Z</time>
      </trkpt>
      <trkpt lat="38.12956167" lon="-4.90030167">
        <ele>502.0</ele>
        <time>2018-10-06T07:06:41.000Z</time>
      </trkpt>
      <trkpt lat="38.12955333" lon="-4.900305">
        <ele>503.0</ele>
        <time>2018-10-06T07:06:42.000Z</time>
      </trkpt>
      <trkpt lat="38.129545" lon="-4.90030667">
        <ele>503.0</ele>
        <time>2018-10-06T07:06:43.000Z</time>
      </trkpt>
      <trkpt lat="38.12953833" lon="-4.90031">
        <ele>503.0</ele>
        <time>2018-10-06T07:06:44.000Z</time>
      </trkpt>
      <trkpt lat="38.12953167" lon="-4.90031667">
        <ele>503.0</ele>
        <time>2018-10-06T07:06:45.000Z</time>
      </trkpt>
      <trkpt lat="38.12952667" lon="-4.90032333">
        <ele>503.0</ele>
        <time>2018-10-06T07:06:46.000Z</time>
      </trkpt>
      <trkpt lat="38.12952" lon="-4.90032667">
        <ele>503.0</ele>
        <time>2018-10-06T07:06:47.000Z</time>
      </trkpt>
      <trkpt lat="38.129515" lon="-4.90032833">
        <ele>504.0</ele>
        <time>2018-10-06T07:06:48.000Z</time>
      </trkpt>
      <trkpt lat="38.12950667" lon="-4.90033167">
        <ele>504.0</ele>
        <time>2018-10-06T07:06:49.000Z</time>
      </trkpt>
      <trkpt lat="38.12949667" lon="-4.90033667">
        <ele>504.0</ele>
        <time>2018-10-06T07:06:50.000Z</time>
      </trkpt>
      <trkpt lat="38.12948833" lon="-4.90033833">
        <ele>504.0</ele>
        <time>2018-10-06T07:06:51.000Z</time>
      </trkpt>
      <trkpt lat="38.12947833" lon="-4.90034">
        <ele>504.0</ele>
        <time>2018-10-06T07:06:52.000Z</time>
      </trkpt>
      <trkpt lat="38.12946833" lon="-4.90034333">
        <ele>504.0</ele>
        <time>2018-10-06T07:06:53.000Z</time>
      </trkpt>
      <trkpt lat="38.12946" lon="-4.90034833">
        <ele>504.0</ele>
        <time>2018-10-06T07:06:54.000Z</time>
      </trkpt>
      <trkpt lat="38.12945333" lon="-4.90035167">
        <ele>505.0</ele>
        <time>2018-10-06T07:06:55.000Z</time>
      </trkpt>
      <trkpt lat="38.12944667" lon="-4.90035667">
        <ele>505.0</ele>
        <time>2018-10-06T07:06:56.000Z</time>
      </trkpt>
      <trkpt lat="38.12944167" lon="-4.90036167">
        <ele>505.0</ele>
        <time>2018-10-06T07:06:57.000Z</time>
      </trkpt>
      <trkpt lat="38.12943333" lon="-4.90036667">
        <ele>505.0</ele>
        <time>2018-10-06T07:06:58.000Z</time>
      </trkpt>
      <trkpt lat="38.129425" lon="-4.900365">
        <ele>505.0</ele>
        <time>2018-10-06T07:06:59.000Z</time>
      </trkpt>
      <trkpt lat="38.12941667" lon="-4.900365">
        <ele>505.0</ele>
        <time>2018-10-06T07:07:00.000Z</time>
      </trkpt>
      <trkpt lat="38.12940833" lon="-4.90037">
        <ele>505.0</ele>
        <time>2018-10-06T07:07:01.000Z</time>
      </trkpt>
      <trkpt lat="38.1294" lon="-4.90037333">
        <ele>505.0</ele>
        <time>2018-10-06T07:07:02.000Z</time>
      </trkpt>
      <trkpt lat="38.12939333" lon="-4.900375">
        <ele>505.0</ele>
        <time>2018-10-06T07:07:03.000Z</time>
      </trkpt>
      <trkpt lat="38.129385" lon="-4.900375">
        <ele>504.0</ele>
        <time>2018-10-06T07:07:04.000Z</time>
      </trkpt>
      <trkpt lat="38.129375" lon="-4.90037833">
        <ele>504.0</ele>
        <time>2018-10-06T07:07:05.000Z</time>
      </trkpt>
      <trkpt lat="38.129365" lon="-4.90038167">
        <ele>504.0</ele>
        <time>2018-10-06T07:07:06.000Z</time>
      </trkpt>
      <trkpt lat="38.12935333" lon="-4.900385">
        <ele>504.0</ele>
        <time>2018-10-06T07:07:07.000Z</time>
      </trkpt>
      <trkpt lat="38.12934333" lon="-4.90038833">
        <ele>504.0</ele>
        <time>2018-10-06T07:07:08.000Z</time>
      </trkpt>
      <trkpt lat="38.12933333" lon="-4.90039">
        <ele>504.0</ele>
        <time>2018-10-06T07:07:09.000Z</time>
      </trkpt>
      <trkpt lat="38.12932333" lon="-4.90039">
        <ele>504.0</ele>
        <time>2018-10-06T07:07:10.000Z</time>
      </trkpt>
      <trkpt lat="38.12931333" lon="-4.90039167">
        <ele>504.0</ele>
        <time>2018-10-06T07:07:11.000Z</time>
      </trkpt>
      <trkpt lat="38.12930333" lon="-4.900395">
        <ele>504.0</ele>
        <time>2018-10-06T07:07:12.000Z</time>
      </trkpt>
      <trkpt lat="38.12929167" lon="-4.90039833">
        <ele>504.0</ele>
        <time>2018-10-06T07:07:13.000Z</time>
      </trkpt>
      <trkpt lat="38.12928167" lon="-4.90040167">
        <ele>504.0</ele>
        <time>2018-10-06T07:07:14.000Z</time>
      </trkpt>
      <trkpt lat="38.12927333" lon="-4.900405">
        <ele>504.0</ele>
        <time>2018-10-06T07:07:15.000Z</time>
      </trkpt>
      <trkpt lat="38.12926667" lon="-4.900405">
        <ele>504.0</ele>
        <time>2018-10-06T07:07:16.000Z</time>
      </trkpt>
      <trkpt lat="38.12926167" lon="-4.900405">
        <ele>504.0</ele>
        <time>2018-10-06T07:07:17.000Z</time>
      </trkpt>
      <trkpt lat="38.12925667" lon="-4.90040667">
        <ele>504.0</ele>
        <time>2018-10-06T07:07:18.000Z</time>
      </trkpt>
      <trkpt lat="38.12924833" lon="-4.90041">
        <ele>504.0</ele>
        <time>2018-10-06T07:07:19.000Z</time>
      </trkpt>
      <trkpt lat="38.12924" lon="-4.90041167">
        <ele>504.0</ele>
        <time>2018-10-06T07:07:20.000Z</time>
      </trkpt>
      <trkpt lat="38.12923" lon="-4.900415">
        <ele>503.0</ele>
        <time>2018-10-06T07:07:21.000Z</time>
      </trkpt>
      <trkpt lat="38.12921833" lon="-4.90041667">
        <ele>503.0</ele>
        <time>2018-10-06T07:07:22.000Z</time>
      </trkpt>
      <trkpt lat="38.12920833" lon="-4.90041833">
        <ele>503.0</ele>
        <time>2018-10-06T07:07:23.000Z</time>
      </trkpt>
      <trkpt lat="38.1292" lon="-4.90041833">
        <ele>503.0</ele>
        <time>2018-10-06T07:07:24.000Z</time>
      </trkpt>
      <trkpt lat="38.12919167" lon="-4.90041833">
        <ele>503.0</ele>
        <time>2018-10-06T07:07:25.000Z</time>
      </trkpt>
      <trkpt lat="38.129185" lon="-4.90042">
        <ele>502.0</ele>
        <time>2018-10-06T07:07:26.000Z</time>
      </trkpt>
      <trkpt lat="38.12917667" lon="-4.90042167">
        <ele>502.0</ele>
        <time>2018-10-06T07:07:27.000Z</time>
      </trkpt>
      <trkpt lat="38.12916667" lon="-4.90042333">
        <ele>502.0</ele>
        <time>2018-10-06T07:07:28.000Z</time>
      </trkpt>
      <trkpt lat="38.12916333" lon="-4.900425">
        <ele>502.0</ele>
        <time>2018-10-06T07:07:29.000Z</time>
      </trkpt>
      <trkpt lat="38.129155" lon="-4.90042833">
        <ele>502.0</ele>
        <time>2018-10-06T07:07:30.000Z</time>
      </trkpt>
      <trkpt lat="38.12914333" lon="-4.90043">
        <ele>502.0</ele>
        <time>2018-10-06T07:07:31.000Z</time>
      </trkpt>
      <trkpt lat="38.12913" lon="-4.90043333">
        <ele>502.0</ele>
        <time>2018-10-06T07:07:32.000Z</time>
      </trkpt>
      <trkpt lat="38.12911833" lon="-4.900435">
        <ele>502.0</ele>
        <time>2018-10-06T07:07:33.000Z</time>
      </trkpt>
      <trkpt lat="38.12910833" lon="-4.90043667">
        <ele>502.0</ele>
        <time>2018-10-06T07:07:34.000Z</time>
      </trkpt>
      <trkpt lat="38.129095" lon="-4.90043833">
        <ele>502.0</ele>
        <time>2018-10-06T07:07:35.000Z</time>
      </trkpt>
      <trkpt lat="38.12908333" lon="-4.90044">
        <ele>502.0</ele>
        <time>2018-10-06T07:07:36.000Z</time>
      </trkpt>
      <trkpt lat="38.12907333" lon="-4.90043667">
        <ele>502.0</ele>
        <time>2018-10-06T07:07:37.000Z</time>
      </trkpt>
      <trkpt lat="38.12906167" lon="-4.90043667">
        <ele>502.0</ele>
        <time>2018-10-06T07:07:38.000Z</time>
      </trkpt>
      <trkpt lat="38.12904833" lon="-4.90043667">
        <ele>502.0</ele>
        <time>2018-10-06T07:07:39.000Z</time>
      </trkpt>
      <trkpt lat="38.12903833" lon="-4.900435">
        <ele>502.0</ele>
        <time>2018-10-06T07:07:40.000Z</time>
      </trkpt>
      <trkpt lat="38.12902667" lon="-4.90043333">
        <ele>502.0</ele>
        <time>2018-10-06T07:07:41.000Z</time>
      </trkpt>
      <trkpt lat="38.129015" lon="-4.900435">
        <ele>502.0</ele>
        <time>2018-10-06T07:07:42.000Z</time>
      </trkpt>
      <trkpt lat="38.12900333" lon="-4.900435">
        <ele>502.0</ele>
        <time>2018-10-06T07:07:43.000Z</time>
      </trkpt>
      <trkpt lat="38.12899333" lon="-4.900435">
        <ele>502.0</ele>
        <time>2018-10-06T07:07:44.000Z</time>
      </trkpt>
      <trkpt lat="38.12898167" lon="-4.90043333">
        <ele>502.0</ele>
        <time>2018-10-06T07:07:45.000Z</time>
      </trkpt>
      <trkpt lat="38.12896833" lon="-4.90043167">
        <ele>502.0</ele>
        <time>2018-10-06T07:07:46.000Z</time>
      </trkpt>
      <trkpt lat="38.12895667" lon="-4.90043">
        <ele>502.0</ele>
        <time>2018-10-06T07:07:47.000Z</time>
      </trkpt>
      <trkpt lat="38.128945" lon="-4.90043">
        <ele>502.0</ele>
        <time>2018-10-06T07:07:48.000Z</time>
      </trkpt>
      <trkpt lat="38.12893167" lon="-4.90042833">
        <ele>502.0</ele>
        <time>2018-10-06T07:07:49.000Z</time>
      </trkpt>
      <trkpt lat="38.12892" lon="-4.90042667">
        <ele>502.0</ele>
        <time>2018-10-06T07:07:50.000Z</time>
      </trkpt>
      <trkpt lat="38.12891" lon="-4.900425">
        <ele>502.0</ele>
        <time>2018-10-06T07:07:51.000Z</time>
      </trkpt>
      <trkpt lat="38.1289" lon="-4.90042167">
        <ele>502.0</ele>
        <time>2018-10-06T07:07:52.000Z</time>
      </trkpt>
      <trkpt lat="38.12888833" lon="-4.90041833">
        <ele>502.0</ele>
        <time>2018-10-06T07:07:53.000Z</time>
      </trkpt>
      <trkpt lat="38.128875" lon="-4.900415">
        <ele>502.0</ele>
        <time>2018-10-06T07:07:54.000Z</time>
      </trkpt>
      <trkpt lat="38.12886167" lon="-4.90041167">
        <ele>502.0</ele>
        <time>2018-10-06T07:07:55.000Z</time>
      </trkpt>
      <trkpt lat="38.12885" lon="-4.90040667">
        <ele>502.0</ele>
        <time>2018-10-06T07:07:56.000Z</time>
      </trkpt>
      <trkpt lat="38.12883833" lon="-4.90040333">
        <ele>502.0</ele>
        <time>2018-10-06T07:07:57.000Z</time>
      </trkpt>
      <trkpt lat="38.12882833" lon="-4.90039833">
        <ele>502.0</ele>
        <time>2018-10-06T07:07:58.000Z</time>
      </trkpt>
      <trkpt lat="38.12881667" lon="-4.900395">
        <ele>502.0</ele>
        <time>2018-10-06T07:07:59.000Z</time>
      </trkpt>
      <trkpt lat="38.12880667" lon="-4.90039167">
        <ele>502.0</ele>
        <time>2018-10-06T07:08:00.000Z</time>
      </trkpt>
      <trkpt lat="38.12879667" lon="-4.90038833">
        <ele>503.0</ele>
        <time>2018-10-06T07:08:01.000Z</time>
      </trkpt>
      <trkpt lat="38.12878667" lon="-4.90038333">
        <ele>503.0</ele>
        <time>2018-10-06T07:08:02.000Z</time>
      </trkpt>
      <trkpt lat="38.128775" lon="-4.90038">
        <ele>503.0</ele>
        <time>2018-10-06T07:08:03.000Z</time>
      </trkpt>
      <trkpt lat="38.12876333" lon="-4.900375">
        <ele>503.0</ele>
        <time>2018-10-06T07:08:04.000Z</time>
      </trkpt>
      <trkpt lat="38.12875167" lon="-4.90037">
        <ele>503.0</ele>
        <time>2018-10-06T07:08:05.000Z</time>
      </trkpt>
      <trkpt lat="38.12874167" lon="-4.900365">
        <ele>502.0</ele>
        <time>2018-10-06T07:08:06.000Z</time>
      </trkpt>
      <trkpt lat="38.12873" lon="-4.90036">
        <ele>502.0</ele>
        <time>2018-10-06T07:08:07.000Z</time>
      </trkpt>
      <trkpt lat="38.12872" lon="-4.90035333">
        <ele>502.0</ele>
        <time>2018-10-06T07:08:08.000Z</time>
      </trkpt>
      <trkpt lat="38.12870833" lon="-4.90034833">
        <ele>502.0</ele>
        <time>2018-10-06T07:08:09.000Z</time>
      </trkpt>
      <trkpt lat="38.12869833" lon="-4.90034333">
        <ele>502.0</ele>
        <time>2018-10-06T07:08:10.000Z</time>
      </trkpt>
      <trkpt lat="38.12868833" lon="-4.90033833">
        <ele>502.0</ele>
        <time>2018-10-06T07:08:11.000Z</time>
      </trkpt>
      <trkpt lat="38.12867833" lon="-4.90033333">
        <ele>502.0</ele>
        <time>2018-10-06T07:08:12.000Z</time>
      </trkpt>
      <trkpt lat="38.12866833" lon="-4.90032667">
        <ele>502.0</ele>
        <time>2018-10-06T07:08:13.000Z</time>
      </trkpt>
      <trkpt lat="38.128655" lon="-4.90032167">
        <ele>502.0</ele>
        <time>2018-10-06T07:08:14.000Z</time>
      </trkpt>
      <trkpt lat="38.12864667" lon="-4.90032167">
        <ele>502.0</ele>
        <time>2018-10-06T07:08:15.000Z</time>
      </trkpt>
      <trkpt lat="38.12863667" lon="-4.90032">
        <ele>502.0</ele>
        <time>2018-10-06T07:08:16.000Z</time>
      </trkpt>
      <trkpt lat="38.12863" lon="-4.90031667">
        <ele>502.0</ele>
        <time>2018-10-06T07:08:17.000Z</time>
      </trkpt>
      <trkpt lat="38.12862167" lon="-4.90031167">
        <ele>502.0</ele>
        <time>2018-10-06T07:08:18.000Z</time>
      </trkpt>
      <trkpt lat="38.12861167" lon="-4.90030167">
        <ele>502.0</ele>
        <time>2018-10-06T07:08:19.000Z</time>
      </trkpt>
      <trkpt lat="38.12860333" lon="-4.90029167">
        <ele>502.0</ele>
        <time>2018-10-06T07:08:20.000Z</time>
      </trkpt>
      <trkpt lat="38.128595" lon="-4.90028333">
        <ele>502.0</ele>
        <time>2018-10-06T07:08:21.000Z</time>
      </trkpt>
      <trkpt lat="38.12858667" lon="-4.900275">
        <ele>502.0</ele>
        <time>2018-10-06T07:08:22.000Z</time>
      </trkpt>
      <trkpt lat="38.12857833" lon="-4.90027">
        <ele>502.0</ele>
        <time>2018-10-06T07:08:23.000Z</time>
      </trkpt>
      <trkpt lat="38.12856833" lon="-4.900265">
        <ele>502.0</ele>
        <time>2018-10-06T07:08:24.000Z</time>
      </trkpt>
      <trkpt lat="38.12855833" lon="-4.90026167">
        <ele>502.0</ele>
        <time>2018-10-06T07:08:25.000Z</time>
      </trkpt>
      <trkpt lat="38.12854833" lon="-4.90025833">
        <ele>502.0</ele>
        <time>2018-10-06T07:08:26.000Z</time>
      </trkpt>
      <trkpt lat="38.12853667" lon="-4.90025833">
        <ele>502.0</ele>
        <time>2018-10-06T07:08:27.000Z</time>
      </trkpt>
      <trkpt lat="38.128525" lon="-4.90026167">
        <ele>502.0</ele>
        <time>2018-10-06T07:08:28.000Z</time>
      </trkpt>
      <trkpt lat="38.12851667" lon="-4.900265">
        <ele>502.0</ele>
        <time>2018-10-06T07:08:29.000Z</time>
      </trkpt>
      <trkpt lat="38.12850667" lon="-4.90026667">
        <ele>502.0</ele>
        <time>2018-10-06T07:08:30.000Z</time>
      </trkpt>
      <trkpt lat="38.12849667" lon="-4.90026667">
        <ele>502.0</ele>
        <time>2018-10-06T07:08:31.000Z</time>
      </trkpt>
      <trkpt lat="38.12848833" lon="-4.900265">
        <ele>502.0</ele>
        <time>2018-10-06T07:08:32.000Z</time>
      </trkpt>
      <trkpt lat="38.12848" lon="-4.90026667">
        <ele>502.0</ele>
        <time>2018-10-06T07:08:33.000Z</time>
      </trkpt>
      <trkpt lat="38.12847333" lon="-4.90026833">
        <ele>502.0</ele>
        <time>2018-10-06T07:08:34.000Z</time>
      </trkpt>
      <trkpt lat="38.128465" lon="-4.90027">
        <ele>502.0</ele>
        <time>2018-10-06T07:08:35.000Z</time>
      </trkpt>
      <trkpt lat="38.128455" lon="-4.90027167">
        <ele>502.0</ele>
        <time>2018-10-06T07:08:36.000Z</time>
      </trkpt>
      <trkpt lat="38.12844167" lon="-4.90027667">
        <ele>502.0</ele>
        <time>2018-10-06T07:08:37.000Z</time>
      </trkpt>
      <trkpt lat="38.12843333" lon="-4.90027667">
        <ele>502.0</ele>
        <time>2018-10-06T07:08:38.000Z</time>
      </trkpt>
      <trkpt lat="38.12842333" lon="-4.90027833">
        <ele>502.0</ele>
        <time>2018-10-06T07:08:39.000Z</time>
      </trkpt>
      <trkpt lat="38.12841333" lon="-4.90027833">
        <ele>502.0</ele>
        <time>2018-10-06T07:08:40.000Z</time>
      </trkpt>
      <trkpt lat="38.12840333" lon="-4.90028">
        <ele>502.0</ele>
        <time>2018-10-06T07:08:41.000Z</time>
      </trkpt>
      <trkpt lat="38.128395" lon="-4.90028333">
        <ele>502.0</ele>
        <time>2018-10-06T07:08:42.000Z</time>
      </trkpt>
      <trkpt lat="38.12838667" lon="-4.90028667">
        <ele>501.0</ele>
        <time>2018-10-06T07:08:43.000Z</time>
      </trkpt>
      <trkpt lat="38.12837333" lon="-4.90029">
        <ele>501.0</ele>
        <time>2018-10-06T07:08:44.000Z</time>
      </trkpt>
      <trkpt lat="38.128365" lon="-4.90029167">
        <ele>501.0</ele>
        <time>2018-10-06T07:08:45.000Z</time>
      </trkpt>
      <trkpt lat="38.128355" lon="-4.900295">
        <ele>501.0</ele>
        <time>2018-10-06T07:08:46.000Z</time>
      </trkpt>
      <trkpt lat="38.128345" lon="-4.90029667">
        <ele>501.0</ele>
        <time>2018-10-06T07:08:47.000Z</time>
      </trkpt>
      <trkpt lat="38.128335" lon="-4.90029833">
        <ele>501.0</ele>
        <time>2018-10-06T07:08:48.000Z</time>
      </trkpt>
      <trkpt lat="38.128325" lon="-4.90030167">
        <ele>501.0</ele>
        <time>2018-10-06T07:08:49.000Z</time>
      </trkpt>
      <trkpt lat="38.12831167" lon="-4.90030333">
        <ele>501.0</ele>
        <time>2018-10-06T07:08:50.000Z</time>
      </trkpt>
      <trkpt lat="38.12830333" lon="-4.90030667">
        <ele>501.0</ele>
        <time>2018-10-06T07:08:51.000Z</time>
      </trkpt>
      <trkpt lat="38.12829333" lon="-4.90031">
        <ele>501.0</ele>
        <time>2018-10-06T07:08:52.000Z</time>
      </trkpt>
      <trkpt lat="38.12828333" lon="-4.90031333">
        <ele>501.0</ele>
        <time>2018-10-06T07:08:53.000Z</time>
      </trkpt>
      <trkpt lat="38.12827167" lon="-4.900315">
        <ele>500.0</ele>
        <time>2018-10-06T07:08:54.000Z</time>
      </trkpt>
      <trkpt lat="38.12826167" lon="-4.900315">
        <ele>500.0</ele>
        <time>2018-10-06T07:08:55.000Z</time>
      </trkpt>
      <trkpt lat="38.12825167" lon="-4.90031667">
        <ele>500.0</ele>
        <time>2018-10-06T07:08:56.000Z</time>
      </trkpt>
      <trkpt lat="38.12824167" lon="-4.90032167">
        <ele>500.0</ele>
        <time>2018-10-06T07:08:57.000Z</time>
      </trkpt>
      <trkpt lat="38.12823167" lon="-4.900325">
        <ele>500.0</ele>
        <time>2018-10-06T07:08:58.000Z</time>
      </trkpt>
      <trkpt lat="38.12822167" lon="-4.90032833">
        <ele>500.0</ele>
        <time>2018-10-06T07:08:59.000Z</time>
      </trkpt>
      <trkpt lat="38.12821167" lon="-4.90033167">
        <ele>500.0</ele>
        <time>2018-10-06T07:09:00.000Z</time>
      </trkpt>
      <trkpt lat="38.1282" lon="-4.900335">
        <ele>500.0</ele>
        <time>2018-10-06T07:09:01.000Z</time>
      </trkpt>
      <trkpt lat="38.12819" lon="-4.90034167">
        <ele>500.0</ele>
        <time>2018-10-06T07:09:02.000Z</time>
      </trkpt>
      <trkpt lat="38.12818167" lon="-4.900345">
        <ele>500.0</ele>
        <time>2018-10-06T07:09:03.000Z</time>
      </trkpt>
      <trkpt lat="38.12817167" lon="-4.90034833">
        <ele>500.0</ele>
        <time>2018-10-06T07:09:04.000Z</time>
      </trkpt>
      <trkpt lat="38.12816167" lon="-4.90035167">
        <ele>500.0</ele>
        <time>2018-10-06T07:09:05.000Z</time>
      </trkpt>
      <trkpt lat="38.12814833" lon="-4.90035833">
        <ele>499.0</ele>
        <time>2018-10-06T07:09:06.000Z</time>
      </trkpt>
      <trkpt lat="38.12813667" lon="-4.90036333">
        <ele>499.0</ele>
        <time>2018-10-06T07:09:07.000Z</time>
      </trkpt>
      <trkpt lat="38.128125" lon="-4.90036833">
        <ele>499.0</ele>
        <time>2018-10-06T07:09:08.000Z</time>
      </trkpt>
      <trkpt lat="38.128115" lon="-4.90037333">
        <ele>499.0</ele>
        <time>2018-10-06T07:09:09.000Z</time>
      </trkpt>
      <trkpt lat="38.12810333" lon="-4.90037667">
        <ele>499.0</ele>
        <time>2018-10-06T07:09:10.000Z</time>
      </trkpt>
      <trkpt lat="38.12809333" lon="-4.90038167">
        <ele>499.0</ele>
        <time>2018-10-06T07:09:11.000Z</time>
      </trkpt>
      <trkpt lat="38.12808333" lon="-4.90038667">
        <ele>499.0</ele>
        <time>2018-10-06T07:09:12.000Z</time>
      </trkpt>
      <trkpt lat="38.12807333" lon="-4.90039167">
        <ele>499.0</ele>
        <time>2018-10-06T07:09:13.000Z</time>
      </trkpt>
      <trkpt lat="38.128065" lon="-4.900395">
        <ele>499.0</ele>
        <time>2018-10-06T07:09:14.000Z</time>
      </trkpt>
      <trkpt lat="38.12805667" lon="-4.90039833">
        <ele>499.0</ele>
        <time>2018-10-06T07:09:15.000Z</time>
      </trkpt>
      <trkpt lat="38.12804833" lon="-4.90040167">
        <ele>499.0</ele>
        <time>2018-10-06T07:09:16.000Z</time>
      </trkpt>
      <trkpt lat="38.12804" lon="-4.90040667">
        <ele>498.0</ele>
        <time>2018-10-06T07:09:17.000Z</time>
      </trkpt>
      <trkpt lat="38.12803" lon="-4.90041">
        <ele>498.0</ele>
        <time>2018-10-06T07:09:18.000Z</time>
      </trkpt>
      <trkpt lat="38.12801833" lon="-4.900415">
        <ele>498.0</ele>
        <time>2018-10-06T07:09:19.000Z</time>
      </trkpt>
      <trkpt lat="38.12800833" lon="-4.90042">
        <ele>498.0</ele>
        <time>2018-10-06T07:09:20.000Z</time>
      </trkpt>
      <trkpt lat="38.128" lon="-4.90042333">
        <ele>498.0</ele>
        <time>2018-10-06T07:09:21.000Z</time>
      </trkpt>
      <trkpt lat="38.12799167" lon="-4.90042833">
        <ele>498.0</ele>
        <time>2018-10-06T07:09:22.000Z</time>
      </trkpt>
      <trkpt lat="38.12798" lon="-4.90043167">
        <ele>498.0</ele>
        <time>2018-10-06T07:09:23.000Z</time>
      </trkpt>
      <trkpt lat="38.12797167" lon="-4.90043667">
        <ele>498.0</ele>
        <time>2018-10-06T07:09:24.000Z</time>
      </trkpt>
      <trkpt lat="38.12796167" lon="-4.90044">
        <ele>498.0</ele>
        <time>2018-10-06T07:09:25.000Z</time>
      </trkpt>
      <trkpt lat="38.12795167" lon="-4.900445">
        <ele>498.0</ele>
        <time>2018-10-06T07:09:26.000Z</time>
      </trkpt>
      <trkpt lat="38.12794167" lon="-4.90045">
        <ele>498.0</ele>
        <time>2018-10-06T07:09:27.000Z</time>
      </trkpt>
      <trkpt lat="38.12793" lon="-4.900455">
        <ele>498.0</ele>
        <time>2018-10-06T07:09:28.000Z</time>
      </trkpt>
      <trkpt lat="38.12792" lon="-4.90046">
        <ele>498.0</ele>
        <time>2018-10-06T07:09:29.000Z</time>
      </trkpt>
      <trkpt lat="38.12790833" lon="-4.900465">
        <ele>498.0</ele>
        <time>2018-10-06T07:09:30.000Z</time>
      </trkpt>
      <trkpt lat="38.1279" lon="-4.90047">
        <ele>497.0</ele>
        <time>2018-10-06T07:09:31.000Z</time>
      </trkpt>
      <trkpt lat="38.12789333" lon="-4.90047333">
        <ele>497.0</ele>
        <time>2018-10-06T07:09:32.000Z</time>
      </trkpt>
      <trkpt lat="38.12788333" lon="-4.90047833">
        <ele>497.0</ele>
        <time>2018-10-06T07:09:33.000Z</time>
      </trkpt>
      <trkpt lat="38.12787333" lon="-4.90048333">
        <ele>497.0</ele>
        <time>2018-10-06T07:09:34.000Z</time>
      </trkpt>
      <trkpt lat="38.127865" lon="-4.90048833">
        <ele>497.0</ele>
        <time>2018-10-06T07:09:35.000Z</time>
      </trkpt>
      <trkpt lat="38.127855" lon="-4.90049333">
        <ele>497.0</ele>
        <time>2018-10-06T07:09:36.000Z</time>
      </trkpt>
      <trkpt lat="38.12784333" lon="-4.90050167">
        <ele>497.0</ele>
        <time>2018-10-06T07:09:37.000Z</time>
      </trkpt>
      <trkpt lat="38.12783333" lon="-4.90050667">
        <ele>497.0</ele>
        <time>2018-10-06T07:09:38.000Z</time>
      </trkpt>
      <trkpt lat="38.12782333" lon="-4.90051333">
        <ele>496.0</ele>
        <time>2018-10-06T07:09:39.000Z</time>
      </trkpt>
      <trkpt lat="38.12781167" lon="-4.90051833">
        <ele>496.0</ele>
        <time>2018-10-06T07:09:40.000Z</time>
      </trkpt>
      <trkpt lat="38.12780333" lon="-4.90052167">
        <ele>496.0</ele>
        <time>2018-10-06T07:09:41.000Z</time>
      </trkpt>
      <trkpt lat="38.12779333" lon="-4.90052833">
        <ele>496.0</ele>
        <time>2018-10-06T07:09:42.000Z</time>
      </trkpt>
      <trkpt lat="38.12778333" lon="-4.90053167">
        <ele>496.0</ele>
        <time>2018-10-06T07:09:43.000Z</time>
      </trkpt>
      <trkpt lat="38.12777333" lon="-4.90053833">
        <ele>496.0</ele>
        <time>2018-10-06T07:09:44.000Z</time>
      </trkpt>
      <trkpt lat="38.12776333" lon="-4.900545">
        <ele>496.0</ele>
        <time>2018-10-06T07:09:45.000Z</time>
      </trkpt>
      <trkpt lat="38.12775333" lon="-4.90055167">
        <ele>496.0</ele>
        <time>2018-10-06T07:09:46.000Z</time>
      </trkpt>
      <trkpt lat="38.12774167" lon="-4.90056">
        <ele>496.0</ele>
        <time>2018-10-06T07:09:47.000Z</time>
      </trkpt>
      <trkpt lat="38.12772833" lon="-4.90056667">
        <ele>496.0</ele>
        <time>2018-10-06T07:09:48.000Z</time>
      </trkpt>
      <trkpt lat="38.12771833" lon="-4.900575">
        <ele>496.0</ele>
        <time>2018-10-06T07:09:49.000Z</time>
      </trkpt>
      <trkpt lat="38.12770667" lon="-4.90058">
        <ele>496.0</ele>
        <time>2018-10-06T07:09:50.000Z</time>
      </trkpt>
      <trkpt lat="38.127695" lon="-4.90058667">
        <ele>496.0</ele>
        <time>2018-10-06T07:09:51.000Z</time>
      </trkpt>
      <trkpt lat="38.12768667" lon="-4.90059167">
        <ele>496.0</ele>
        <time>2018-10-06T07:09:52.000Z</time>
      </trkpt>
      <trkpt lat="38.127675" lon="-4.90059667">
        <ele>495.0</ele>
        <time>2018-10-06T07:09:53.000Z</time>
      </trkpt>
      <trkpt lat="38.12766667" lon="-4.90060167">
        <ele>495.0</ele>
        <time>2018-10-06T07:09:54.000Z</time>
      </trkpt>
      <trkpt lat="38.12765833" lon="-4.90060667">
        <ele>495.0</ele>
        <time>2018-10-06T07:09:55.000Z</time>
      </trkpt>
      <trkpt lat="38.12765" lon="-4.90061167">
        <ele>495.0</ele>
        <time>2018-10-06T07:09:56.000Z</time>
      </trkpt>
      <trkpt lat="38.12764" lon="-4.90061667">
        <ele>495.0</ele>
        <time>2018-10-06T07:09:57.000Z</time>
      </trkpt>
      <trkpt lat="38.12763" lon="-4.900625">
        <ele>495.0</ele>
        <time>2018-10-06T07:09:58.000Z</time>
      </trkpt>
      <trkpt lat="38.12761667" lon="-4.90063">
        <ele>495.0</ele>
        <time>2018-10-06T07:09:59.000Z</time>
      </trkpt>
      <trkpt lat="38.12760667" lon="-4.90063667">
        <ele>495.0</ele>
        <time>2018-10-06T07:10:00.000Z</time>
      </trkpt>
      <trkpt lat="38.12759667" lon="-4.90064167">
        <ele>495.0</ele>
        <time>2018-10-06T07:10:01.000Z</time>
      </trkpt>
      <trkpt lat="38.12758833" lon="-4.90064667">
        <ele>495.0</ele>
        <time>2018-10-06T07:10:02.000Z</time>
      </trkpt>
      <trkpt lat="38.12758" lon="-4.90065167">
        <ele>495.0</ele>
        <time>2018-10-06T07:10:03.000Z</time>
      </trkpt>
      <trkpt lat="38.12757" lon="-4.90066">
        <ele>495.0</ele>
        <time>2018-10-06T07:10:04.000Z</time>
      </trkpt>
      <trkpt lat="38.12756167" lon="-4.90066667">
        <ele>495.0</ele>
        <time>2018-10-06T07:10:05.000Z</time>
      </trkpt>
      <trkpt lat="38.12755" lon="-4.90067333">
        <ele>495.0</ele>
        <time>2018-10-06T07:10:06.000Z</time>
      </trkpt>
      <trkpt lat="38.12754" lon="-4.90068">
        <ele>495.0</ele>
        <time>2018-10-06T07:10:07.000Z</time>
      </trkpt>
      <trkpt lat="38.12752833" lon="-4.90069">
        <ele>495.0</ele>
        <time>2018-10-06T07:10:08.000Z</time>
      </trkpt>
      <trkpt lat="38.12751833" lon="-4.90069667">
        <ele>495.0</ele>
        <time>2018-10-06T07:10:09.000Z</time>
      </trkpt>
      <trkpt lat="38.12750833" lon="-4.900705">
        <ele>495.0</ele>
        <time>2018-10-06T07:10:10.000Z</time>
      </trkpt>
      <trkpt lat="38.12749833" lon="-4.90071167">
        <ele>495.0</ele>
        <time>2018-10-06T07:10:11.000Z</time>
      </trkpt>
      <trkpt lat="38.12749" lon="-4.90072333">
        <ele>496.0</ele>
        <time>2018-10-06T07:10:12.000Z</time>
      </trkpt>
      <trkpt lat="38.12748" lon="-4.90073167">
        <ele>496.0</ele>
        <time>2018-10-06T07:10:13.000Z</time>
      </trkpt>
      <trkpt lat="38.12747" lon="-4.90074">
        <ele>496.0</ele>
        <time>2018-10-06T07:10:14.000Z</time>
      </trkpt>
      <trkpt lat="38.12746" lon="-4.90074667">
        <ele>496.0</ele>
        <time>2018-10-06T07:10:15.000Z</time>
      </trkpt>
      <trkpt lat="38.12745" lon="-4.90075333">
        <ele>496.0</ele>
        <time>2018-10-06T07:10:16.000Z</time>
      </trkpt>
      <trkpt lat="38.12744" lon="-4.90076">
        <ele>496.0</ele>
        <time>2018-10-06T07:10:17.000Z</time>
      </trkpt>
      <trkpt lat="38.12743" lon="-4.90077">
        <ele>496.0</ele>
        <time>2018-10-06T07:10:18.000Z</time>
      </trkpt>
      <trkpt lat="38.12742" lon="-4.90077667">
        <ele>496.0</ele>
        <time>2018-10-06T07:10:19.000Z</time>
      </trkpt>
      <trkpt lat="38.12741167" lon="-4.900785">
        <ele>496.0</ele>
        <time>2018-10-06T07:10:20.000Z</time>
      </trkpt>
      <trkpt lat="38.12740167" lon="-4.90079167">
        <ele>496.0</ele>
        <time>2018-10-06T07:10:21.000Z</time>
      </trkpt>
      <trkpt lat="38.127395" lon="-4.9008">
        <ele>496.0</ele>
        <time>2018-10-06T07:10:22.000Z</time>
      </trkpt>
      <trkpt lat="38.12738667" lon="-4.90080667">
        <ele>496.0</ele>
        <time>2018-10-06T07:10:23.000Z</time>
      </trkpt>
      <trkpt lat="38.12737833" lon="-4.90081333">
        <ele>496.0</ele>
        <time>2018-10-06T07:10:24.000Z</time>
      </trkpt>
      <trkpt lat="38.12737167" lon="-4.90082167">
        <ele>496.0</ele>
        <time>2018-10-06T07:10:25.000Z</time>
      </trkpt>
      <trkpt lat="38.12736167" lon="-4.90083">
        <ele>496.0</ele>
        <time>2018-10-06T07:10:26.000Z</time>
      </trkpt>
      <trkpt lat="38.12735333" lon="-4.90083833">
        <ele>496.0</ele>
        <time>2018-10-06T07:10:27.000Z</time>
      </trkpt>
      <trkpt lat="38.12734333" lon="-4.90084667">
        <ele>496.0</ele>
        <time>2018-10-06T07:10:28.000Z</time>
      </trkpt>
      <trkpt lat="38.127335" lon="-4.900855">
        <ele>496.0</ele>
        <time>2018-10-06T07:10:29.000Z</time>
      </trkpt>
      <trkpt lat="38.12732667" lon="-4.900865">
        <ele>496.0</ele>
        <time>2018-10-06T07:10:30.000Z</time>
      </trkpt>
      <trkpt lat="38.12731833" lon="-4.90087333">
        <ele>496.0</ele>
        <time>2018-10-06T07:10:31.000Z</time>
      </trkpt>
      <trkpt lat="38.12731" lon="-4.90088167">
        <ele>496.0</ele>
        <time>2018-10-06T07:10:32.000Z</time>
      </trkpt>
      <trkpt lat="38.1273" lon="-4.90089">
        <ele>496.0</ele>
        <time>2018-10-06T07:10:33.000Z</time>
      </trkpt>
      <trkpt lat="38.12728833" lon="-4.9009">
        <ele>496.0</ele>
        <time>2018-10-06T07:10:34.000Z</time>
      </trkpt>
      <trkpt lat="38.12727833" lon="-4.90091">
        <ele>496.0</ele>
        <time>2018-10-06T07:10:35.000Z</time>
      </trkpt>
      <trkpt lat="38.12726833" lon="-4.90092">
        <ele>496.0</ele>
        <time>2018-10-06T07:10:36.000Z</time>
      </trkpt>
      <trkpt lat="38.12726" lon="-4.90093">
        <ele>496.0</ele>
        <time>2018-10-06T07:10:37.000Z</time>
      </trkpt>
      <trkpt lat="38.12725167" lon="-4.90094">
        <ele>496.0</ele>
        <time>2018-10-06T07:10:38.000Z</time>
      </trkpt>
      <trkpt lat="38.127245" lon="-4.90094833">
        <ele>496.0</ele>
        <time>2018-10-06T07:10:39.000Z</time>
      </trkpt>
      <trkpt lat="38.12723667" lon="-4.90095667">
        <ele>496.0</ele>
        <time>2018-10-06T07:10:40.000Z</time>
      </trkpt>
      <trkpt lat="38.12722667" lon="-4.90096667">
        <ele>496.0</ele>
        <time>2018-10-06T07:10:41.000Z</time>
      </trkpt>
      <trkpt lat="38.12721833" lon="-4.90097667">
        <ele>496.0</ele>
        <time>2018-10-06T07:10:42.000Z</time>
      </trkpt>
      <trkpt lat="38.12720833" lon="-4.90098667">
        <ele>496.0</ele>
        <time>2018-10-06T07:10:43.000Z</time>
      </trkpt>
      <trkpt lat="38.1272" lon="-4.900995">
        <ele>496.0</ele>
        <time>2018-10-06T07:10:44.000Z</time>
      </trkpt>
      <trkpt lat="38.12719333" lon="-4.901005">
        <ele>496.0</ele>
        <time>2018-10-06T07:10:45.000Z</time>
      </trkpt>
      <trkpt lat="38.12718667" lon="-4.90101333">
        <ele>496.0</ele>
        <time>2018-10-06T07:10:46.000Z</time>
      </trkpt>
      <trkpt lat="38.12717833" lon="-4.90102167">
        <ele>496.0</ele>
        <time>2018-10-06T07:10:47.000Z</time>
      </trkpt>
      <trkpt lat="38.12717" lon="-4.90103">
        <ele>496.0</ele>
        <time>2018-10-06T07:10:48.000Z</time>
      </trkpt>
      <trkpt lat="38.12716167" lon="-4.90104">
        <ele>496.0</ele>
        <time>2018-10-06T07:10:49.000Z</time>
      </trkpt>
      <trkpt lat="38.12715167" lon="-4.90105">
        <ele>497.0</ele>
        <time>2018-10-06T07:10:50.000Z</time>
      </trkpt>
      <trkpt lat="38.12714333" lon="-4.90106">
        <ele>497.0</ele>
        <time>2018-10-06T07:10:51.000Z</time>
      </trkpt>
      <trkpt lat="38.127135" lon="-4.90107">
        <ele>497.0</ele>
        <time>2018-10-06T07:10:52.000Z</time>
      </trkpt>
      <trkpt lat="38.127125" lon="-4.90108">
        <ele>497.0</ele>
        <time>2018-10-06T07:10:53.000Z</time>
      </trkpt>
      <trkpt lat="38.12711667" lon="-4.90109">
        <ele>497.0</ele>
        <time>2018-10-06T07:10:54.000Z</time>
      </trkpt>
      <trkpt lat="38.12710833" lon="-4.90109833">
        <ele>497.0</ele>
        <time>2018-10-06T07:10:55.000Z</time>
      </trkpt>
      <trkpt lat="38.1271" lon="-4.90110667">
        <ele>497.0</ele>
        <time>2018-10-06T07:10:56.000Z</time>
      </trkpt>
      <trkpt lat="38.12709" lon="-4.90111667">
        <ele>497.0</ele>
        <time>2018-10-06T07:10:57.000Z</time>
      </trkpt>
      <trkpt lat="38.12708167" lon="-4.901125">
        <ele>497.0</ele>
        <time>2018-10-06T07:10:58.000Z</time>
      </trkpt>
      <trkpt lat="38.12707333" lon="-4.901135">
        <ele>497.0</ele>
        <time>2018-10-06T07:10:59.000Z</time>
      </trkpt>
      <trkpt lat="38.12706333" lon="-4.901145">
        <ele>497.0</ele>
        <time>2018-10-06T07:11:00.000Z</time>
      </trkpt>
      <trkpt lat="38.127055" lon="-4.901155">
        <ele>497.0</ele>
        <time>2018-10-06T07:11:01.000Z</time>
      </trkpt>
      <trkpt lat="38.127045" lon="-4.90116667">
        <ele>497.0</ele>
        <time>2018-10-06T07:11:02.000Z</time>
      </trkpt>
      <trkpt lat="38.12703667" lon="-4.901175">
        <ele>497.0</ele>
        <time>2018-10-06T07:11:03.000Z</time>
      </trkpt>
      <trkpt lat="38.12702833" lon="-4.90118333">
        <ele>497.0</ele>
        <time>2018-10-06T07:11:04.000Z</time>
      </trkpt>
      <trkpt lat="38.12702" lon="-4.90119333">
        <ele>497.0</ele>
        <time>2018-10-06T07:11:05.000Z</time>
      </trkpt>
      <trkpt lat="38.12701" lon="-4.901205">
        <ele>497.0</ele>
        <time>2018-10-06T07:11:06.000Z</time>
      </trkpt>
      <trkpt lat="38.12700167" lon="-4.901215">
        <ele>497.0</ele>
        <time>2018-10-06T07:11:07.000Z</time>
      </trkpt>
      <trkpt lat="38.12699167" lon="-4.901225">
        <ele>497.0</ele>
        <time>2018-10-06T07:11:08.000Z</time>
      </trkpt>
      <trkpt lat="38.12698333" lon="-4.90123667">
        <ele>497.0</ele>
        <time>2018-10-06T07:11:09.000Z</time>
      </trkpt>
      <trkpt lat="38.12697333" lon="-4.90124667">
        <ele>497.0</ele>
        <time>2018-10-06T07:11:10.000Z</time>
      </trkpt>
      <trkpt lat="38.12696333" lon="-4.90125667">
        <ele>497.0</ele>
        <time>2018-10-06T07:11:11.000Z</time>
      </trkpt>
      <trkpt lat="38.12695333" lon="-4.90126667">
        <ele>497.0</ele>
        <time>2018-10-06T07:11:12.000Z</time>
      </trkpt>
      <trkpt lat="38.12694667" lon="-4.901275">
        <ele>497.0</ele>
        <time>2018-10-06T07:11:13.000Z</time>
      </trkpt>
      <trkpt lat="38.12693833" lon="-4.90128333">
        <ele>497.0</ele>
        <time>2018-10-06T07:11:14.000Z</time>
      </trkpt>
      <trkpt lat="38.12693" lon="-4.90129167">
        <ele>497.0</ele>
        <time>2018-10-06T07:11:15.000Z</time>
      </trkpt>
      <trkpt lat="38.12692167" lon="-4.9013">
        <ele>497.0</ele>
        <time>2018-10-06T07:11:16.000Z</time>
      </trkpt>
      <trkpt lat="38.12691333" lon="-4.90131">
        <ele>497.0</ele>
        <time>2018-10-06T07:11:17.000Z</time>
      </trkpt>
      <trkpt lat="38.126905" lon="-4.90132">
        <ele>497.0</ele>
        <time>2018-10-06T07:11:18.000Z</time>
      </trkpt>
      <trkpt lat="38.126895" lon="-4.90132833">
        <ele>497.0</ele>
        <time>2018-10-06T07:11:19.000Z</time>
      </trkpt>
      <trkpt lat="38.12688667" lon="-4.90133833">
        <ele>498.0</ele>
        <time>2018-10-06T07:11:20.000Z</time>
      </trkpt>
      <trkpt lat="38.12687667" lon="-4.90134833">
        <ele>498.0</ele>
        <time>2018-10-06T07:11:21.000Z</time>
      </trkpt>
      <trkpt lat="38.12687" lon="-4.90135833">
        <ele>498.0</ele>
        <time>2018-10-06T07:11:22.000Z</time>
      </trkpt>
      <trkpt lat="38.12686" lon="-4.90136667">
        <ele>498.0</ele>
        <time>2018-10-06T07:11:23.000Z</time>
      </trkpt>
      <trkpt lat="38.12685167" lon="-4.90137667">
        <ele>498.0</ele>
        <time>2018-10-06T07:11:24.000Z</time>
      </trkpt>
      <trkpt lat="38.12684167" lon="-4.90138667">
        <ele>498.0</ele>
        <time>2018-10-06T07:11:25.000Z</time>
      </trkpt>
      <trkpt lat="38.12683" lon="-4.901395">
        <ele>498.0</ele>
        <time>2018-10-06T07:11:26.000Z</time>
      </trkpt>
      <trkpt lat="38.12682" lon="-4.90140167">
        <ele>498.0</ele>
        <time>2018-10-06T07:11:27.000Z</time>
      </trkpt>
      <trkpt lat="38.12680833" lon="-4.90141167">
        <ele>498.0</ele>
        <time>2018-10-06T07:11:28.000Z</time>
      </trkpt>
      <trkpt lat="38.12679833" lon="-4.90141833">
        <ele>498.0</ele>
        <time>2018-10-06T07:11:29.000Z</time>
      </trkpt>
      <trkpt lat="38.12678833" lon="-4.901425">
        <ele>498.0</ele>
        <time>2018-10-06T07:11:30.000Z</time>
      </trkpt>
      <trkpt lat="38.12677667" lon="-4.90143167">
        <ele>498.0</ele>
        <time>2018-10-06T07:11:31.000Z</time>
      </trkpt>
      <trkpt lat="38.12676833" lon="-4.90143667">
        <ele>498.0</ele>
        <time>2018-10-06T07:11:32.000Z</time>
      </trkpt>
      <trkpt lat="38.12675833" lon="-4.90144167">
        <ele>498.0</ele>
        <time>2018-10-06T07:11:33.000Z</time>
      </trkpt>
      <trkpt lat="38.12674667" lon="-4.90144667">
        <ele>498.0</ele>
        <time>2018-10-06T07:11:34.000Z</time>
      </trkpt>
      <trkpt lat="38.126735" lon="-4.90145167">
        <ele>499.0</ele>
        <time>2018-10-06T07:11:35.000Z</time>
      </trkpt>
      <trkpt lat="38.12672333" lon="-4.90145667">
        <ele>499.0</ele>
        <time>2018-10-06T07:11:36.000Z</time>
      </trkpt>
      <trkpt lat="38.12671167" lon="-4.90146333">
        <ele>499.0</ele>
        <time>2018-10-06T07:11:37.000Z</time>
      </trkpt>
      <trkpt lat="38.12670167" lon="-4.90147167">
        <ele>499.0</ele>
        <time>2018-10-06T07:11:38.000Z</time>
      </trkpt>
      <trkpt lat="38.12669167" lon="-4.90148">
        <ele>499.0</ele>
        <time>2018-10-06T07:11:39.000Z</time>
      </trkpt>
      <trkpt lat="38.12668167" lon="-4.90149">
        <ele>499.0</ele>
        <time>2018-10-06T07:11:40.000Z</time>
      </trkpt>
      <trkpt lat="38.12667333" lon="-4.90150167">
        <ele>499.0</ele>
        <time>2018-10-06T07:11:41.000Z</time>
      </trkpt>
      <trkpt lat="38.126665" lon="-4.90151167">
        <ele>499.0</ele>
        <time>2018-10-06T07:11:42.000Z</time>
      </trkpt>
      <trkpt lat="38.12665833" lon="-4.90152333">
        <ele>499.0</ele>
        <time>2018-10-06T07:11:43.000Z</time>
      </trkpt>
      <trkpt lat="38.12665" lon="-4.901535">
        <ele>499.0</ele>
        <time>2018-10-06T07:11:44.000Z</time>
      </trkpt>
      <trkpt lat="38.12664" lon="-4.901545">
        <ele>499.0</ele>
        <time>2018-10-06T07:11:45.000Z</time>
      </trkpt>
      <trkpt lat="38.12663333" lon="-4.90155833">
        <ele>499.0</ele>
        <time>2018-10-06T07:11:46.000Z</time>
      </trkpt>
      <trkpt lat="38.126625" lon="-4.90157167">
        <ele>499.0</ele>
        <time>2018-10-06T07:11:47.000Z</time>
      </trkpt>
      <trkpt lat="38.12661833" lon="-4.90158333">
        <ele>500.0</ele>
        <time>2018-10-06T07:11:48.000Z</time>
      </trkpt>
      <trkpt lat="38.12661" lon="-4.901595">
        <ele>500.0</ele>
        <time>2018-10-06T07:11:49.000Z</time>
      </trkpt>
      <trkpt lat="38.126605" lon="-4.90160333">
        <ele>500.0</ele>
        <time>2018-10-06T07:11:50.000Z</time>
      </trkpt>
      <trkpt lat="38.12659833" lon="-4.90161167">
        <ele>500.0</ele>
        <time>2018-10-06T07:11:51.000Z</time>
      </trkpt>
      <trkpt lat="38.12659167" lon="-4.90162333">
        <ele>500.0</ele>
        <time>2018-10-06T07:11:52.000Z</time>
      </trkpt>
      <trkpt lat="38.12658667" lon="-4.901635">
        <ele>500.0</ele>
        <time>2018-10-06T07:11:53.000Z</time>
      </trkpt>
      <trkpt lat="38.12658" lon="-4.901645">
        <ele>500.0</ele>
        <time>2018-10-06T07:11:54.000Z</time>
      </trkpt>
      <trkpt lat="38.12657333" lon="-4.90165667">
        <ele>500.0</ele>
        <time>2018-10-06T07:11:55.000Z</time>
      </trkpt>
      <trkpt lat="38.126565" lon="-4.90166667">
        <ele>500.0</ele>
        <time>2018-10-06T07:11:56.000Z</time>
      </trkpt>
      <trkpt lat="38.12655833" lon="-4.90168167">
        <ele>500.0</ele>
        <time>2018-10-06T07:11:57.000Z</time>
      </trkpt>
      <trkpt lat="38.12655167" lon="-4.901695">
        <ele>500.0</ele>
        <time>2018-10-06T07:11:58.000Z</time>
      </trkpt>
      <trkpt lat="38.12654667" lon="-4.90170833">
        <ele>499.0</ele>
        <time>2018-10-06T07:11:59.000Z</time>
      </trkpt>
      <trkpt lat="38.12654" lon="-4.90171833">
        <ele>499.0</ele>
        <time>2018-10-06T07:12:00.000Z</time>
      </trkpt>
      <trkpt lat="38.12653333" lon="-4.90172833">
        <ele>499.0</ele>
        <time>2018-10-06T07:12:01.000Z</time>
      </trkpt>
      <trkpt lat="38.12652667" lon="-4.90174167">
        <ele>499.0</ele>
        <time>2018-10-06T07:12:02.000Z</time>
      </trkpt>
      <trkpt lat="38.12651833" lon="-4.901755">
        <ele>499.0</ele>
        <time>2018-10-06T07:12:03.000Z</time>
      </trkpt>
      <trkpt lat="38.12651" lon="-4.901765">
        <ele>499.0</ele>
        <time>2018-10-06T07:12:04.000Z</time>
      </trkpt>
      <trkpt lat="38.12650167" lon="-4.901775">
        <ele>499.0</ele>
        <time>2018-10-06T07:12:05.000Z</time>
      </trkpt>
      <trkpt lat="38.126495" lon="-4.901785">
        <ele>499.0</ele>
        <time>2018-10-06T07:12:06.000Z</time>
      </trkpt>
      <trkpt lat="38.12649" lon="-4.901795">
        <ele>499.0</ele>
        <time>2018-10-06T07:12:07.000Z</time>
      </trkpt>
      <trkpt lat="38.126485" lon="-4.901805">
        <ele>499.0</ele>
        <time>2018-10-06T07:12:08.000Z</time>
      </trkpt>
      <trkpt lat="38.12648" lon="-4.90181667">
        <ele>499.0</ele>
        <time>2018-10-06T07:12:09.000Z</time>
      </trkpt>
      <trkpt lat="38.12647333" lon="-4.90183167">
        <ele>499.0</ele>
        <time>2018-10-06T07:12:10.000Z</time>
      </trkpt>
      <trkpt lat="38.12646833" lon="-4.901845">
        <ele>499.0</ele>
        <time>2018-10-06T07:12:11.000Z</time>
      </trkpt>
      <trkpt lat="38.12646333" lon="-4.90186">
        <ele>499.0</ele>
        <time>2018-10-06T07:12:12.000Z</time>
      </trkpt>
      <trkpt lat="38.12645833" lon="-4.90187333">
        <ele>499.0</ele>
        <time>2018-10-06T07:12:13.000Z</time>
      </trkpt>
      <trkpt lat="38.12645167" lon="-4.90188833">
        <ele>499.0</ele>
        <time>2018-10-06T07:12:14.000Z</time>
      </trkpt>
      <trkpt lat="38.12645" lon="-4.90190167">
        <ele>499.0</ele>
        <time>2018-10-06T07:12:15.000Z</time>
      </trkpt>
      <trkpt lat="38.126445" lon="-4.90191167">
        <ele>499.0</ele>
        <time>2018-10-06T07:12:16.000Z</time>
      </trkpt>
      <trkpt lat="38.12644" lon="-4.90192167">
        <ele>499.0</ele>
        <time>2018-10-06T07:12:17.000Z</time>
      </trkpt>
      <trkpt lat="38.12643333" lon="-4.901935">
        <ele>499.0</ele>
        <time>2018-10-06T07:12:18.000Z</time>
      </trkpt>
      <trkpt lat="38.12642667" lon="-4.90195167">
        <ele>500.0</ele>
        <time>2018-10-06T07:12:19.000Z</time>
      </trkpt>
      <trkpt lat="38.12642167" lon="-4.901965">
        <ele>500.0</ele>
        <time>2018-10-06T07:12:20.000Z</time>
      </trkpt>
      <trkpt lat="38.126415" lon="-4.90197667">
        <ele>500.0</ele>
        <time>2018-10-06T07:12:21.000Z</time>
      </trkpt>
      <trkpt lat="38.12640667" lon="-4.90198833">
        <ele>500.0</ele>
        <time>2018-10-06T07:12:22.000Z</time>
      </trkpt>
      <trkpt lat="38.12639833" lon="-4.90199833">
        <ele>500.0</ele>
        <time>2018-10-06T07:12:23.000Z</time>
      </trkpt>
      <trkpt lat="38.12639167" lon="-4.90200833">
        <ele>500.0</ele>
        <time>2018-10-06T07:12:24.000Z</time>
      </trkpt>
      <trkpt lat="38.12638333" lon="-4.90201833">
        <ele>500.0</ele>
        <time>2018-10-06T07:12:25.000Z</time>
      </trkpt>
      <trkpt lat="38.126375" lon="-4.90202667">
        <ele>500.0</ele>
        <time>2018-10-06T07:12:26.000Z</time>
      </trkpt>
      <trkpt lat="38.12636667" lon="-4.90203667">
        <ele>500.0</ele>
        <time>2018-10-06T07:12:27.000Z</time>
      </trkpt>
      <trkpt lat="38.12635667" lon="-4.90204833">
        <ele>500.0</ele>
        <time>2018-10-06T07:12:28.000Z</time>
      </trkpt>
      <trkpt lat="38.12634833" lon="-4.90206">
        <ele>500.0</ele>
        <time>2018-10-06T07:12:29.000Z</time>
      </trkpt>
      <trkpt lat="38.12634" lon="-4.90207167">
        <ele>500.0</ele>
        <time>2018-10-06T07:12:30.000Z</time>
      </trkpt>
      <trkpt lat="38.12633333" lon="-4.90207833">
        <ele>500.0</ele>
        <time>2018-10-06T07:12:31.000Z</time>
      </trkpt>
      <trkpt lat="38.12633" lon="-4.902085">
        <ele>500.0</ele>
        <time>2018-10-06T07:12:32.000Z</time>
      </trkpt>
      <trkpt lat="38.12632333" lon="-4.90209">
        <ele>500.0</ele>
        <time>2018-10-06T07:12:33.000Z</time>
      </trkpt>
      <trkpt lat="38.12631833" lon="-4.9021">
        <ele>500.0</ele>
        <time>2018-10-06T07:12:34.000Z</time>
      </trkpt>
      <trkpt lat="38.12631333" lon="-4.90210833">
        <ele>500.0</ele>
        <time>2018-10-06T07:12:35.000Z</time>
      </trkpt>
      <trkpt lat="38.12630667" lon="-4.902115">
        <ele>501.0</ele>
        <time>2018-10-06T07:12:36.000Z</time>
      </trkpt>
      <trkpt lat="38.12629833" lon="-4.90212333">
        <ele>501.0</ele>
        <time>2018-10-06T07:12:37.000Z</time>
      </trkpt>
      <trkpt lat="38.12629167" lon="-4.90213">
        <ele>501.0</ele>
        <time>2018-10-06T07:12:38.000Z</time>
      </trkpt>
      <trkpt lat="38.126285" lon="-4.90213667">
        <ele>501.0</ele>
        <time>2018-10-06T07:12:39.000Z</time>
      </trkpt>
      <trkpt lat="38.12627833" lon="-4.90214167">
        <ele>501.0</ele>
        <time>2018-10-06T07:12:40.000Z</time>
      </trkpt>
      <trkpt lat="38.12627" lon="-4.90215167">
        <ele>501.0</ele>
        <time>2018-10-06T07:12:41.000Z</time>
      </trkpt>
      <trkpt lat="38.12626333" lon="-4.90216167">
        <ele>501.0</ele>
        <time>2018-10-06T07:12:42.000Z</time>
      </trkpt>
      <trkpt lat="38.12625667" lon="-4.90217">
        <ele>501.0</ele>
        <time>2018-10-06T07:12:43.000Z</time>
      </trkpt>
      <trkpt lat="38.12624833" lon="-4.90217833">
        <ele>501.0</ele>
        <time>2018-10-06T07:12:44.000Z</time>
      </trkpt>
      <trkpt lat="38.12623667" lon="-4.90218833">
        <ele>501.0</ele>
        <time>2018-10-06T07:12:45.000Z</time>
      </trkpt>
      <trkpt lat="38.12622667" lon="-4.90219667">
        <ele>501.0</ele>
        <time>2018-10-06T07:12:46.000Z</time>
      </trkpt>
      <trkpt lat="38.12621667" lon="-4.90220667">
        <ele>501.0</ele>
        <time>2018-10-06T07:12:47.000Z</time>
      </trkpt>
      <trkpt lat="38.12620667" lon="-4.90221667">
        <ele>501.0</ele>
        <time>2018-10-06T07:12:48.000Z</time>
      </trkpt>
      <trkpt lat="38.12619833" lon="-4.90222833">
        <ele>501.0</ele>
        <time>2018-10-06T07:12:49.000Z</time>
      </trkpt>
      <trkpt lat="38.12618833" lon="-4.90223667">
        <ele>501.0</ele>
        <time>2018-10-06T07:12:50.000Z</time>
      </trkpt>
      <trkpt lat="38.12618" lon="-4.902245">
        <ele>501.0</ele>
        <time>2018-10-06T07:12:51.000Z</time>
      </trkpt>
      <trkpt lat="38.12617167" lon="-4.90225167">
        <ele>501.0</ele>
        <time>2018-10-06T07:12:52.000Z</time>
      </trkpt>
      <trkpt lat="38.12616333" lon="-4.90226">
        <ele>501.0</ele>
        <time>2018-10-06T07:12:53.000Z</time>
      </trkpt>
      <trkpt lat="38.126155" lon="-4.90226833">
        <ele>501.0</ele>
        <time>2018-10-06T07:12:54.000Z</time>
      </trkpt>
      <trkpt lat="38.126145" lon="-4.90227667">
        <ele>501.0</ele>
        <time>2018-10-06T07:12:55.000Z</time>
      </trkpt>
      <trkpt lat="38.12613667" lon="-4.90228667">
        <ele>501.0</ele>
        <time>2018-10-06T07:12:56.000Z</time>
      </trkpt>
      <trkpt lat="38.12612833" lon="-4.90229833">
        <ele>501.0</ele>
        <time>2018-10-06T07:12:57.000Z</time>
      </trkpt>
      <trkpt lat="38.12612" lon="-4.90230667">
        <ele>501.0</ele>
        <time>2018-10-06T07:12:58.000Z</time>
      </trkpt>
      <trkpt lat="38.12611167" lon="-4.90231667">
        <ele>501.0</ele>
        <time>2018-10-06T07:12:59.000Z</time>
      </trkpt>
      <trkpt lat="38.12610333" lon="-4.90232667">
        <ele>501.0</ele>
        <time>2018-10-06T07:13:00.000Z</time>
      </trkpt>
      <trkpt lat="38.126095" lon="-4.902335">
        <ele>501.0</ele>
        <time>2018-10-06T07:13:01.000Z</time>
      </trkpt>
      <trkpt lat="38.12609" lon="-4.90234333">
        <ele>501.0</ele>
        <time>2018-10-06T07:13:02.000Z</time>
      </trkpt>
      <trkpt lat="38.12608333" lon="-4.902355">
        <ele>501.0</ele>
        <time>2018-10-06T07:13:03.000Z</time>
      </trkpt>
      <trkpt lat="38.12607833" lon="-4.90236833">
        <ele>501.0</ele>
        <time>2018-10-06T07:13:04.000Z</time>
      </trkpt>
      <trkpt lat="38.12607333" lon="-4.90238167">
        <ele>501.0</ele>
        <time>2018-10-06T07:13:05.000Z</time>
      </trkpt>
      <trkpt lat="38.12606667" lon="-4.902395">
        <ele>501.0</ele>
        <time>2018-10-06T07:13:06.000Z</time>
      </trkpt>
      <trkpt lat="38.12606333" lon="-4.90240833">
        <ele>501.0</ele>
        <time>2018-10-06T07:13:07.000Z</time>
      </trkpt>
      <trkpt lat="38.12605833" lon="-4.90241667">
        <ele>501.0</ele>
        <time>2018-10-06T07:13:08.000Z</time>
      </trkpt>
      <trkpt lat="38.12605333" lon="-4.90242333">
        <ele>501.0</ele>
        <time>2018-10-06T07:13:09.000Z</time>
      </trkpt>
      <trkpt lat="38.126045" lon="-4.90243">
        <ele>501.0</ele>
        <time>2018-10-06T07:13:10.000Z</time>
      </trkpt>
      <trkpt lat="38.12603667" lon="-4.90243667">
        <ele>501.0</ele>
        <time>2018-10-06T07:13:11.000Z</time>
      </trkpt>
      <trkpt lat="38.12602667" lon="-4.90244333">
        <ele>501.0</ele>
        <time>2018-10-06T07:13:12.000Z</time>
      </trkpt>
      <trkpt lat="38.126015" lon="-4.90245">
        <ele>501.0</ele>
        <time>2018-10-06T07:13:13.000Z</time>
      </trkpt>
      <trkpt lat="38.12600333" lon="-4.90246">
        <ele>501.0</ele>
        <time>2018-10-06T07:13:14.000Z</time>
      </trkpt>
      <trkpt lat="38.12599167" lon="-4.90247">
        <ele>501.0</ele>
        <time>2018-10-06T07:13:15.000Z</time>
      </trkpt>
      <trkpt lat="38.12598167" lon="-4.90248">
        <ele>501.0</ele>
        <time>2018-10-06T07:13:16.000Z</time>
      </trkpt>
      <trkpt lat="38.12597167" lon="-4.90249167">
        <ele>501.0</ele>
        <time>2018-10-06T07:13:17.000Z</time>
      </trkpt>
      <trkpt lat="38.12596333" lon="-4.9025">
        <ele>501.0</ele>
        <time>2018-10-06T07:13:18.000Z</time>
      </trkpt>
      <trkpt lat="38.12595333" lon="-4.90250833">
        <ele>501.0</ele>
        <time>2018-10-06T07:13:19.000Z</time>
      </trkpt>
      <trkpt lat="38.12594667" lon="-4.90252">
        <ele>501.0</ele>
        <time>2018-10-06T07:13:20.000Z</time>
      </trkpt>
      <trkpt lat="38.12594" lon="-4.90253333">
        <ele>501.0</ele>
        <time>2018-10-06T07:13:21.000Z</time>
      </trkpt>
      <trkpt lat="38.12593333" lon="-4.90254833">
        <ele>501.0</ele>
        <time>2018-10-06T07:13:22.000Z</time>
      </trkpt>
      <trkpt lat="38.12592833" lon="-4.902565">
        <ele>501.0</ele>
        <time>2018-10-06T07:13:23.000Z</time>
      </trkpt>
      <trkpt lat="38.12592333" lon="-4.90258">
        <ele>501.0</ele>
        <time>2018-10-06T07:13:24.000Z</time>
      </trkpt>
      <trkpt lat="38.12591833" lon="-4.90259667">
        <ele>501.0</ele>
        <time>2018-10-06T07:13:25.000Z</time>
      </trkpt>
      <trkpt lat="38.125915" lon="-4.90261333">
        <ele>501.0</ele>
        <time>2018-10-06T07:13:26.000Z</time>
      </trkpt>
      <trkpt lat="38.12591" lon="-4.90263">
        <ele>501.0</ele>
        <time>2018-10-06T07:13:27.000Z</time>
      </trkpt>
      <trkpt lat="38.12591" lon="-4.902645">
        <ele>501.0</ele>
        <time>2018-10-06T07:13:28.000Z</time>
      </trkpt>
      <trkpt lat="38.12591167" lon="-4.90265833">
        <ele>501.0</ele>
        <time>2018-10-06T07:13:29.000Z</time>
      </trkpt>
      <trkpt lat="38.125915" lon="-4.90267333">
        <ele>501.0</ele>
        <time>2018-10-06T07:13:30.000Z</time>
      </trkpt>
      <trkpt lat="38.12591667" lon="-4.90268667">
        <ele>501.0</ele>
        <time>2018-10-06T07:13:31.000Z</time>
      </trkpt>
      <trkpt lat="38.12591833" lon="-4.9027">
        <ele>501.0</ele>
        <time>2018-10-06T07:13:32.000Z</time>
      </trkpt>
      <trkpt lat="38.12592333" lon="-4.902715">
        <ele>501.0</ele>
        <time>2018-10-06T07:13:33.000Z</time>
      </trkpt>
      <trkpt lat="38.12592833" lon="-4.90272667">
        <ele>501.0</ele>
        <time>2018-10-06T07:13:34.000Z</time>
      </trkpt>
      <trkpt lat="38.12593167" lon="-4.90274">
        <ele>501.0</ele>
        <time>2018-10-06T07:13:35.000Z</time>
      </trkpt>
      <trkpt lat="38.12593833" lon="-4.90275333">
        <ele>501.0</ele>
        <time>2018-10-06T07:13:36.000Z</time>
      </trkpt>
      <trkpt lat="38.12594667" lon="-4.90276667">
        <ele>501.0</ele>
        <time>2018-10-06T07:13:37.000Z</time>
      </trkpt>
      <trkpt lat="38.12595333" lon="-4.90277833">
        <ele>501.0</ele>
        <time>2018-10-06T07:13:38.000Z</time>
      </trkpt>
      <trkpt lat="38.12596" lon="-4.90279167">
        <ele>501.0</ele>
        <time>2018-10-06T07:13:39.000Z</time>
      </trkpt>
      <trkpt lat="38.12596667" lon="-4.90280167">
        <ele>501.0</ele>
        <time>2018-10-06T07:13:40.000Z</time>
      </trkpt>
      <trkpt lat="38.12597667" lon="-4.90281167">
        <ele>501.0</ele>
        <time>2018-10-06T07:13:41.000Z</time>
      </trkpt>
      <trkpt lat="38.12598667" lon="-4.90282333">
        <ele>501.0</ele>
        <time>2018-10-06T07:13:42.000Z</time>
      </trkpt>
      <trkpt lat="38.12599667" lon="-4.90283667">
        <ele>501.0</ele>
        <time>2018-10-06T07:13:43.000Z</time>
      </trkpt>
      <trkpt lat="38.126005" lon="-4.90284833">
        <ele>501.0</ele>
        <time>2018-10-06T07:13:44.000Z</time>
      </trkpt>
      <trkpt lat="38.12601333" lon="-4.90286">
        <ele>501.0</ele>
        <time>2018-10-06T07:13:45.000Z</time>
      </trkpt>
      <trkpt lat="38.12602167" lon="-4.90287333">
        <ele>501.0</ele>
        <time>2018-10-06T07:13:46.000Z</time>
      </trkpt>
      <trkpt lat="38.12602667" lon="-4.902885">
        <ele>501.0</ele>
        <time>2018-10-06T07:13:47.000Z</time>
      </trkpt>
      <trkpt lat="38.126035" lon="-4.90289667">
        <ele>501.0</ele>
        <time>2018-10-06T07:13:48.000Z</time>
      </trkpt>
      <trkpt lat="38.126045" lon="-4.90291167">
        <ele>501.0</ele>
        <time>2018-10-06T07:13:49.000Z</time>
      </trkpt>
      <trkpt lat="38.12605667" lon="-4.90292">
        <ele>501.0</ele>
        <time>2018-10-06T07:13:50.000Z</time>
      </trkpt>
      <trkpt lat="38.126065" lon="-4.90292667">
        <ele>500.0</ele>
        <time>2018-10-06T07:13:51.000Z</time>
      </trkpt>
      <trkpt lat="38.12607333" lon="-4.902935">
        <ele>500.0</ele>
        <time>2018-10-06T07:13:52.000Z</time>
      </trkpt>
      <trkpt lat="38.12608167" lon="-4.902945">
        <ele>500.0</ele>
        <time>2018-10-06T07:13:53.000Z</time>
      </trkpt>
      <trkpt lat="38.12608833" lon="-4.902955">
        <ele>500.0</ele>
        <time>2018-10-06T07:13:54.000Z</time>
      </trkpt>
      <trkpt lat="38.126095" lon="-4.90296667">
        <ele>500.0</ele>
        <time>2018-10-06T07:13:55.000Z</time>
      </trkpt>
      <trkpt lat="38.12610333" lon="-4.90297667">
        <ele>500.0</ele>
        <time>2018-10-06T07:13:56.000Z</time>
      </trkpt>
      <trkpt lat="38.12611" lon="-4.90298667">
        <ele>500.0</ele>
        <time>2018-10-06T07:13:57.000Z</time>
      </trkpt>
      <trkpt lat="38.126115" lon="-4.90299333">
        <ele>500.0</ele>
        <time>2018-10-06T07:13:58.000Z</time>
      </trkpt>
      <trkpt lat="38.12611667" lon="-4.90299667">
        <ele>500.0</ele>
        <time>2018-10-06T07:13:59.000Z</time>
      </trkpt>
      <trkpt lat="38.12611833" lon="-4.90299833">
        <ele>500.0</ele>
        <time>2018-10-06T07:14:00.000Z</time>
      </trkpt>
      <trkpt lat="38.12612" lon="-4.90299667">
        <ele>500.0</ele>
        <time>2018-10-06T07:14:01.000Z</time>
      </trkpt>
      <trkpt lat="38.12612333" lon="-4.90299833">
        <ele>500.0</ele>
        <time>2018-10-06T07:14:02.000Z</time>
      </trkpt>
      <trkpt lat="38.126125" lon="-4.903">
        <ele>500.0</ele>
        <time>2018-10-06T07:14:03.000Z</time>
      </trkpt>
      <trkpt lat="38.126125" lon="-4.90300167">
        <ele>500.0</ele>
        <time>2018-10-06T07:14:04.000Z</time>
      </trkpt>
      <trkpt lat="38.12612667" lon="-4.90300167">
        <ele>500.0</ele>
        <time>2018-10-06T07:14:05.000Z</time>
      </trkpt>
      <trkpt lat="38.12612667" lon="-4.90300167">
        <ele>500.0</ele>
        <time>2018-10-06T07:14:06.000Z</time>
      </trkpt>
      <trkpt lat="38.12612667" lon="-4.90300167">
        <ele>500.0</ele>
        <time>2018-10-06T07:14:07.000Z</time>
      </trkpt>
      <trkpt lat="38.12612667" lon="-4.90300167">
        <ele>500.0</ele>
        <time>2018-10-06T07:14:08.000Z</time>
      </trkpt>
      <trkpt lat="38.12612667" lon="-4.90300333">
        <ele>500.0</ele>
        <time>2018-10-06T07:14:09.000Z</time>
      </trkpt>
      <trkpt lat="38.12612667" lon="-4.90300333">
        <ele>500.0</ele>
        <time>2018-10-06T07:14:10.000Z</time>
      </trkpt>
      <trkpt lat="38.12612833" lon="-4.90300333">
        <ele>500.0</ele>
        <time>2018-10-06T07:14:11.000Z</time>
      </trkpt>
      <trkpt lat="38.12612833" lon="-4.90300333">
        <ele>500.0</ele>
        <time>2018-10-06T07:14:12.000Z</time>
      </trkpt>
      <trkpt lat="38.12612833" lon="-4.90300333">
        <ele>500.0</ele>
        <time>2018-10-06T07:14:13.000Z</time>
      </trkpt>
      <trkpt lat="38.12612833" lon="-4.90300167">
        <ele>501.0</ele>
        <time>2018-10-06T07:14:14.000Z</time>
      </trkpt>
      <trkpt lat="38.12612833" lon="-4.90300167">
        <ele>501.0</ele>
        <time>2018-10-06T07:14:15.000Z</time>
      </trkpt>
      <trkpt lat="38.12612833" lon="-4.90300167">
        <ele>501.0</ele>
        <time>2018-10-06T07:14:16.000Z</time>
      </trkpt>
      <trkpt lat="38.12612833" lon="-4.90300167">
        <ele>501.0</ele>
        <time>2018-10-06T07:14:17.000Z</time>
      </trkpt>
      <trkpt lat="38.12612833" lon="-4.903">
        <ele>501.0</ele>
        <time>2018-10-06T07:14:18.000Z</time>
      </trkpt>
      <trkpt lat="38.12612833" lon="-4.903">
        <ele>501.0</ele>
        <time>2018-10-06T07:14:19.000Z</time>
      </trkpt>
      <trkpt lat="38.12613" lon="-4.903">
        <ele>501.0</ele>
        <time>2018-10-06T07:14:20.000Z</time>
      </trkpt>
      <trkpt lat="38.12613" lon="-4.903">
        <ele>501.0</ele>
        <time>2018-10-06T07:14:21.000Z</time>
      </trkpt>
      <trkpt lat="38.12612833" lon="-4.903">
        <ele>501.0</ele>
        <time>2018-10-06T07:14:22.000Z</time>
      </trkpt>
      <trkpt lat="38.12612833" lon="-4.90299833">
        <ele>501.0</ele>
        <time>2018-10-06T07:14:23.000Z</time>
      </trkpt>
      <trkpt lat="38.12613" lon="-4.90299833">
        <ele>501.0</ele>
        <time>2018-10-06T07:14:24.000Z</time>
      </trkpt>
      <trkpt lat="38.12612833" lon="-4.90299833">
        <ele>501.0</ele>
        <time>2018-10-06T07:14:25.000Z</time>
      </trkpt>
      <trkpt lat="38.12613167" lon="-4.90299833">
        <ele>501.0</ele>
        <time>2018-10-06T07:14:26.000Z</time>
      </trkpt>
      <trkpt lat="38.126135" lon="-4.90300167">
        <ele>501.0</ele>
        <time>2018-10-06T07:14:27.000Z</time>
      </trkpt>
      <trkpt lat="38.12613667" lon="-4.90300333">
        <ele>501.0</ele>
        <time>2018-10-06T07:14:28.000Z</time>
      </trkpt>
      <trkpt lat="38.12613833" lon="-4.90300333">
        <ele>501.0</ele>
        <time>2018-10-06T07:14:29.000Z</time>
      </trkpt>
      <trkpt lat="38.12613833" lon="-4.90300333">
        <ele>501.0</ele>
        <time>2018-10-06T07:14:30.000Z</time>
      </trkpt>
      <trkpt lat="38.12613833" lon="-4.90300333">
        <ele>501.0</ele>
        <time>2018-10-06T07:14:31.000Z</time>
      </trkpt>
      <trkpt lat="38.12613833" lon="-4.90300333">
        <ele>501.0</ele>
        <time>2018-10-06T07:14:32.000Z</time>
      </trkpt>
      <trkpt lat="38.12613833" lon="-4.90300333">
        <ele>501.0</ele>
        <time>2018-10-06T07:14:33.000Z</time>
      </trkpt>
      <trkpt lat="38.12613833" lon="-4.90300333">
        <ele>501.0</ele>
        <time>2018-10-06T07:14:34.000Z</time>
      </trkpt>
      <trkpt lat="38.12613833" lon="-4.90300333">
        <ele>501.0</ele>
        <time>2018-10-06T07:14:35.000Z</time>
      </trkpt>
      <trkpt lat="38.12613833" lon="-4.90300333">
        <ele>501.0</ele>
        <time>2018-10-06T07:14:36.000Z</time>
      </trkpt>
      <trkpt lat="38.12613833" lon="-4.90300333">
        <ele>501.0</ele>
        <time>2018-10-06T07:14:37.000Z</time>
      </trkpt>
      <trkpt lat="38.12614" lon="-4.90300167">
        <ele>501.0</ele>
        <time>2018-10-06T07:14:38.000Z</time>
      </trkpt>
      <trkpt lat="38.12614" lon="-4.90300167">
        <ele>501.0</ele>
        <time>2018-10-06T07:14:39.000Z</time>
      </trkpt>
      <trkpt lat="38.12614" lon="-4.90300167">
        <ele>501.0</ele>
        <time>2018-10-06T07:14:40.000Z</time>
      </trkpt>
      <trkpt lat="38.12614" lon="-4.90300167">
        <ele>501.0</ele>
        <time>2018-10-06T07:14:41.000Z</time>
      </trkpt>
      <trkpt lat="38.12614" lon="-4.90300167">
        <ele>501.0</ele>
        <time>2018-10-06T07:14:42.000Z</time>
      </trkpt>
      <trkpt lat="38.12614" lon="-4.90300167">
        <ele>501.0</ele>
        <time>2018-10-06T07:14:43.000Z</time>
      </trkpt>
      <trkpt lat="38.12614" lon="-4.90300167">
        <ele>501.0</ele>
        <time>2018-10-06T07:14:44.000Z</time>
      </trkpt>
      <trkpt lat="38.12614" lon="-4.90300333">
        <ele>502.0</ele>
        <time>2018-10-06T07:14:45.000Z</time>
      </trkpt>
      <trkpt lat="38.12613833" lon="-4.90300333">
        <ele>502.0</ele>
        <time>2018-10-06T07:14:46.000Z</time>
      </trkpt>
      <trkpt lat="38.12613833" lon="-4.90300333">
        <ele>502.0</ele>
        <time>2018-10-06T07:14:47.000Z</time>
      </trkpt>
      <trkpt lat="38.12613833" lon="-4.903005">
        <ele>502.0</ele>
        <time>2018-10-06T07:14:48.000Z</time>
      </trkpt>
      <trkpt lat="38.12613667" lon="-4.903005">
        <ele>502.0</ele>
        <time>2018-10-06T07:14:49.000Z</time>
      </trkpt>
      <trkpt lat="38.12613667" lon="-4.90300667">
        <ele>502.0</ele>
        <time>2018-10-06T07:14:50.000Z</time>
      </trkpt>
      <trkpt lat="38.126135" lon="-4.90300667">
        <ele>502.0</ele>
        <time>2018-10-06T07:14:51.000Z</time>
      </trkpt>
      <trkpt lat="38.126135" lon="-4.90300833">
        <ele>502.0</ele>
        <time>2018-10-06T07:14:52.000Z</time>
      </trkpt>
      <trkpt lat="38.126135" lon="-4.90300833">
        <ele>502.0</ele>
        <time>2018-10-06T07:14:53.000Z</time>
      </trkpt>
      <trkpt lat="38.126135" lon="-4.90300667">
        <ele>502.0</ele>
        <time>2018-10-06T07:14:54.000Z</time>
      </trkpt>
      <trkpt lat="38.126135" lon="-4.90300667">
        <ele>502.0</ele>
        <time>2018-10-06T07:14:55.000Z</time>
      </trkpt>
      <trkpt lat="38.12613667" lon="-4.90300667">
        <ele>502.0</ele>
        <time>2018-10-06T07:14:56.000Z</time>
      </trkpt>
      <trkpt lat="38.12613667" lon="-4.90300667">
        <ele>502.0</ele>
        <time>2018-10-06T07:14:57.000Z</time>
      </trkpt>
      <trkpt lat="38.12613667" lon="-4.903005">
        <ele>502.0</ele>
        <time>2018-10-06T07:14:58.000Z</time>
      </trkpt>
      <trkpt lat="38.12613667" lon="-4.903005">
        <ele>502.0</ele>
        <time>2018-10-06T07:14:59.000Z</time>
      </trkpt>
      <trkpt lat="38.12613667" lon="-4.903005">
        <ele>502.0</ele>
        <time>2018-10-06T07:15:00.000Z</time>
      </trkpt>
      <trkpt lat="38.12613667" lon="-4.903005">
        <ele>502.0</ele>
        <time>2018-10-06T07:15:01.000Z</time>
      </trkpt>
      <trkpt lat="38.12613667" lon="-4.903005">
        <ele>502.0</ele>
        <time>2018-10-06T07:15:02.000Z</time>
      </trkpt>
      <trkpt lat="38.12613667" lon="-4.90300333">
        <ele>502.0</ele>
        <time>2018-10-06T07:15:03.000Z</time>
      </trkpt>
      <trkpt lat="38.12613667" lon="-4.90300333">
        <ele>502.0</ele>
        <time>2018-10-06T07:15:04.000Z</time>
      </trkpt>
      <trkpt lat="38.12613833" lon="-4.90300167">
        <ele>502.0</ele>
        <time>2018-10-06T07:15:05.000Z</time>
      </trkpt>
      <trkpt lat="38.12613833" lon="-4.90300167">
        <ele>502.0</ele>
        <time>2018-10-06T07:15:06.000Z</time>
      </trkpt>
      <trkpt lat="38.12613833" lon="-4.90300167">
        <ele>502.0</ele>
        <time>2018-10-06T07:15:07.000Z</time>
      </trkpt>
      <trkpt lat="38.12613833" lon="-4.903">
        <ele>502.0</ele>
        <time>2018-10-06T07:15:08.000Z</time>
      </trkpt>
      <trkpt lat="38.12614" lon="-4.903">
        <ele>502.0</ele>
        <time>2018-10-06T07:15:09.000Z</time>
      </trkpt>
      <trkpt lat="38.12614" lon="-4.90299833">
        <ele>502.0</ele>
        <time>2018-10-06T07:15:10.000Z</time>
      </trkpt>
      <trkpt lat="38.12614" lon="-4.90299833">
        <ele>502.0</ele>
        <time>2018-10-06T07:15:11.000Z</time>
      </trkpt>
      <trkpt lat="38.12614167" lon="-4.90299667">
        <ele>501.0</ele>
        <time>2018-10-06T07:15:12.000Z</time>
      </trkpt>
      <trkpt lat="38.12614167" lon="-4.902995">
        <ele>501.0</ele>
        <time>2018-10-06T07:15:13.000Z</time>
      </trkpt>
      <trkpt lat="38.12614333" lon="-4.902995">
        <ele>501.0</ele>
        <time>2018-10-06T07:15:14.000Z</time>
      </trkpt>
      <trkpt lat="38.12614333" lon="-4.90299333">
        <ele>501.0</ele>
        <time>2018-10-06T07:15:15.000Z</time>
      </trkpt>
      <trkpt lat="38.12614333" lon="-4.90299333">
        <ele>501.0</ele>
        <time>2018-10-06T07:15:16.000Z</time>
      </trkpt>
      <trkpt lat="38.12614333" lon="-4.90299167">
        <ele>501.0</ele>
        <time>2018-10-06T07:15:17.000Z</time>
      </trkpt>
      <trkpt lat="38.126145" lon="-4.90299167">
        <ele>501.0</ele>
        <time>2018-10-06T07:15:18.000Z</time>
      </trkpt>
      <trkpt lat="38.126145" lon="-4.90299167">
        <ele>501.0</ele>
        <time>2018-10-06T07:15:19.000Z</time>
      </trkpt>
      <trkpt lat="38.126145" lon="-4.90299">
        <ele>501.0</ele>
        <time>2018-10-06T07:15:20.000Z</time>
      </trkpt>
      <trkpt lat="38.12614667" lon="-4.90299">
        <ele>501.0</ele>
        <time>2018-10-06T07:15:21.000Z</time>
      </trkpt>
      <trkpt lat="38.12614667" lon="-4.90298833">
        <ele>501.0</ele>
        <time>2018-10-06T07:15:22.000Z</time>
      </trkpt>
      <trkpt lat="38.12614667" lon="-4.90298833">
        <ele>501.0</ele>
        <time>2018-10-06T07:15:23.000Z</time>
      </trkpt>
      <trkpt lat="38.12614667" lon="-4.90298667">
        <ele>501.0</ele>
        <time>2018-10-06T07:15:24.000Z</time>
      </trkpt>
      <trkpt lat="38.12614833" lon="-4.90298667">
        <ele>500.0</ele>
        <time>2018-10-06T07:15:25.000Z</time>
      </trkpt>
      <trkpt lat="38.12614833" lon="-4.90298667">
        <ele>500.0</ele>
        <time>2018-10-06T07:15:26.000Z</time>
      </trkpt>
      <trkpt lat="38.12614833" lon="-4.902985">
        <ele>500.0</ele>
        <time>2018-10-06T07:15:27.000Z</time>
      </trkpt>
      <trkpt lat="38.12614833" lon="-4.902985">
        <ele>500.0</ele>
        <time>2018-10-06T07:15:28.000Z</time>
      </trkpt>
      <trkpt lat="38.12614833" lon="-4.90298667">
        <ele>500.0</ele>
        <time>2018-10-06T07:15:29.000Z</time>
      </trkpt>
      <trkpt lat="38.12615" lon="-4.90299167">
        <ele>500.0</ele>
        <time>2018-10-06T07:15:30.000Z</time>
      </trkpt>
      <trkpt lat="38.12615167" lon="-4.90299333">
        <ele>500.0</ele>
        <time>2018-10-06T07:15:31.000Z</time>
      </trkpt>
      <trkpt lat="38.12615167" lon="-4.90299333">
        <ele>500.0</ele>
        <time>2018-10-06T07:15:32.000Z</time>
      </trkpt>
      <trkpt lat="38.12615167" lon="-4.902995">
        <ele>500.0</ele>
        <time>2018-10-06T07:15:33.000Z</time>
      </trkpt>
      <trkpt lat="38.12615333" lon="-4.90299667">
        <ele>500.0</ele>
        <time>2018-10-06T07:15:34.000Z</time>
      </trkpt>
      <trkpt lat="38.12615667" lon="-4.903005">
        <ele>500.0</ele>
        <time>2018-10-06T07:15:35.000Z</time>
      </trkpt>
      <trkpt lat="38.12616333" lon="-4.903015">
        <ele>500.0</ele>
        <time>2018-10-06T07:15:36.000Z</time>
      </trkpt>
      <trkpt lat="38.12617" lon="-4.903025">
        <ele>500.0</ele>
        <time>2018-10-06T07:15:37.000Z</time>
      </trkpt>
      <trkpt lat="38.12617833" lon="-4.90303333">
        <ele>500.0</ele>
        <time>2018-10-06T07:15:38.000Z</time>
      </trkpt>
      <trkpt lat="38.12618833" lon="-4.90304167">
        <ele>499.0</ele>
        <time>2018-10-06T07:15:39.000Z</time>
      </trkpt>
      <trkpt lat="38.12619667" lon="-4.90304833">
        <ele>499.0</ele>
        <time>2018-10-06T07:15:40.000Z</time>
      </trkpt>
      <trkpt lat="38.12620667" lon="-4.903055">
        <ele>499.0</ele>
        <time>2018-10-06T07:15:41.000Z</time>
      </trkpt>
      <trkpt lat="38.126215" lon="-4.90306167">
        <ele>499.0</ele>
        <time>2018-10-06T07:15:42.000Z</time>
      </trkpt>
      <trkpt lat="38.12622167" lon="-4.90306833">
        <ele>499.0</ele>
        <time>2018-10-06T07:15:43.000Z</time>
      </trkpt>
      <trkpt lat="38.12622833" lon="-4.903075">
        <ele>499.0</ele>
        <time>2018-10-06T07:15:44.000Z</time>
      </trkpt>
      <trkpt lat="38.12623667" lon="-4.903085">
        <ele>498.0</ele>
        <time>2018-10-06T07:15:45.000Z</time>
      </trkpt>
      <trkpt lat="38.12624333" lon="-4.90309667">
        <ele>498.0</ele>
        <time>2018-10-06T07:15:46.000Z</time>
      </trkpt>
      <trkpt lat="38.12624833" lon="-4.90310833">
        <ele>498.0</ele>
        <time>2018-10-06T07:15:47.000Z</time>
      </trkpt>
      <trkpt lat="38.12625333" lon="-4.90312">
        <ele>498.0</ele>
        <time>2018-10-06T07:15:48.000Z</time>
      </trkpt>
      <trkpt lat="38.12625833" lon="-4.90313167">
        <ele>498.0</ele>
        <time>2018-10-06T07:15:49.000Z</time>
      </trkpt>
      <trkpt lat="38.126265" lon="-4.90314">
        <ele>498.0</ele>
        <time>2018-10-06T07:15:50.000Z</time>
      </trkpt>
      <trkpt lat="38.12627333" lon="-4.90314667">
        <ele>498.0</ele>
        <time>2018-10-06T07:15:51.000Z</time>
      </trkpt>
      <trkpt lat="38.12628167" lon="-4.90315333">
        <ele>497.0</ele>
        <time>2018-10-06T07:15:52.000Z</time>
      </trkpt>
      <trkpt lat="38.12629" lon="-4.90316">
        <ele>497.0</ele>
        <time>2018-10-06T07:15:53.000Z</time>
      </trkpt>
      <trkpt lat="38.12629667" lon="-4.90316833">
        <ele>497.0</ele>
        <time>2018-10-06T07:15:54.000Z</time>
      </trkpt>
      <trkpt lat="38.126305" lon="-4.903175">
        <ele>497.0</ele>
        <time>2018-10-06T07:15:55.000Z</time>
      </trkpt>
      <trkpt lat="38.12631167" lon="-4.90318167">
        <ele>497.0</ele>
        <time>2018-10-06T07:15:56.000Z</time>
      </trkpt>
      <trkpt lat="38.12631667" lon="-4.90319">
        <ele>497.0</ele>
        <time>2018-10-06T07:15:57.000Z</time>
      </trkpt>
      <trkpt lat="38.12632167" lon="-4.90319667">
        <ele>497.0</ele>
        <time>2018-10-06T07:15:58.000Z</time>
      </trkpt>
      <trkpt lat="38.12632333" lon="-4.9032">
        <ele>497.0</ele>
        <time>2018-10-06T07:15:59.000Z</time>
      </trkpt>
      <trkpt lat="38.12632333" lon="-4.90320167">
        <ele>497.0</ele>
        <time>2018-10-06T07:16:00.000Z</time>
      </trkpt>
      <trkpt lat="38.12632333" lon="-4.90320333">
        <ele>496.0</ele>
        <time>2018-10-06T07:16:01.000Z</time>
      </trkpt>
      <trkpt lat="38.12632333" lon="-4.90320333">
        <ele>496.0</ele>
        <time>2018-10-06T07:16:02.000Z</time>
      </trkpt>
      <trkpt lat="38.12632333" lon="-4.90320333">
        <ele>496.0</ele>
        <time>2018-10-06T07:16:03.000Z</time>
      </trkpt>
      <trkpt lat="38.12632333" lon="-4.90320333">
        <ele>496.0</ele>
        <time>2018-10-06T07:16:04.000Z</time>
      </trkpt>
      <trkpt lat="38.12632333" lon="-4.90320333">
        <ele>496.0</ele>
        <time>2018-10-06T07:16:05.000Z</time>
      </trkpt>
      <trkpt lat="38.12632333" lon="-4.90320333">
        <ele>496.0</ele>
        <time>2018-10-06T07:16:06.000Z</time>
      </trkpt>
      <trkpt lat="38.12632333" lon="-4.90320333">
        <ele>496.0</ele>
        <time>2018-10-06T07:16:07.000Z</time>
      </trkpt>
      <trkpt lat="38.12632333" lon="-4.90320333">
        <ele>496.0</ele>
        <time>2018-10-06T07:16:08.000Z</time>
      </trkpt>
      <trkpt lat="38.12632333" lon="-4.90320333">
        <ele>496.0</ele>
        <time>2018-10-06T07:16:09.000Z</time>
      </trkpt>
      <trkpt lat="38.12632333" lon="-4.90320333">
        <ele>496.0</ele>
        <time>2018-10-06T07:16:10.000Z</time>
      </trkpt>
      <trkpt lat="38.12632333" lon="-4.90320333">
        <ele>496.0</ele>
        <time>2018-10-06T07:16:11.000Z</time>
      </trkpt>
      <trkpt lat="38.12632333" lon="-4.90320333">
        <ele>496.0</ele>
        <time>2018-10-06T07:16:12.000Z</time>
      </trkpt>
      <trkpt lat="38.12632333" lon="-4.90320333">
        <ele>496.0</ele>
        <time>2018-10-06T07:16:13.000Z</time>
      </trkpt>
      <trkpt lat="38.12632333" lon="-4.90320333">
        <ele>496.0</ele>
        <time>2018-10-06T07:16:14.000Z</time>
      </trkpt>
      <trkpt lat="38.12632333" lon="-4.90320333">
        <ele>496.0</ele>
        <time>2018-10-06T07:16:15.000Z</time>
      </trkpt>
      <trkpt lat="38.12632333" lon="-4.90320333">
        <ele>496.0</ele>
        <time>2018-10-06T07:16:16.000Z</time>
      </trkpt>
      <trkpt lat="38.12632333" lon="-4.90320333">
        <ele>496.0</ele>
        <time>2018-10-06T07:16:17.000Z</time>
      </trkpt>
      <trkpt lat="38.12632333" lon="-4.90320333">
        <ele>496.0</ele>
        <time>2018-10-06T07:16:18.000Z</time>
      </trkpt>
      <trkpt lat="38.12632333" lon="-4.90320333">
        <ele>496.0</ele>
        <time>2018-10-06T07:16:19.000Z</time>
      </trkpt>
      <trkpt lat="38.12632333" lon="-4.90320333">
        <ele>496.0</ele>
        <time>2018-10-06T07:16:20.000Z</time>
      </trkpt>
      <trkpt lat="38.12632333" lon="-4.90320333">
        <ele>496.0</ele>
        <time>2018-10-06T07:16:21.000Z</time>
      </trkpt>
      <trkpt lat="38.12632333" lon="-4.90320333">
        <ele>496.0</ele>
        <time>2018-10-06T07:16:22.000Z</time>
      </trkpt>
      <trkpt lat="38.12632333" lon="-4.90320333">
        <ele>496.0</ele>
        <time>2018-10-06T07:16:23.000Z</time>
      </trkpt>
      <trkpt lat="38.12632333" lon="-4.90320333">
        <ele>496.0</ele>
        <time>2018-10-06T07:16:24.000Z</time>
      </trkpt>
      <trkpt lat="38.12632333" lon="-4.90320333">
        <ele>496.0</ele>
        <time>2018-10-06T07:16:25.000Z</time>
      </trkpt>
      <trkpt lat="38.12632333" lon="-4.90320333">
        <ele>496.0</ele>
        <time>2018-10-06T07:16:26.000Z</time>
      </trkpt>
      <trkpt lat="38.12632333" lon="-4.90320333">
        <ele>496.0</ele>
        <time>2018-10-06T07:16:27.000Z</time>
      </trkpt>
      <trkpt lat="38.12632333" lon="-4.90320333">
        <ele>496.0</ele>
        <time>2018-10-06T07:16:28.000Z</time>
      </trkpt>
      <trkpt lat="38.12632333" lon="-4.90320333">
        <ele>496.0</ele>
        <time>2018-10-06T07:16:29.000Z</time>
      </trkpt>
      <trkpt lat="38.12632333" lon="-4.90320333">
        <ele>496.0</ele>
        <time>2018-10-06T07:16:30.000Z</time>
      </trkpt>
      <trkpt lat="38.12632333" lon="-4.90320333">
        <ele>496.0</ele>
        <time>2018-10-06T07:16:31.000Z</time>
      </trkpt>
      <trkpt lat="38.12632333" lon="-4.90320333">
        <ele>496.0</ele>
        <time>2018-10-06T07:16:32.000Z</time>
      </trkpt>
      <trkpt lat="38.12632333" lon="-4.90320333">
        <ele>496.0</ele>
        <time>2018-10-06T07:16:33.000Z</time>
      </trkpt>
      <trkpt lat="38.12632333" lon="-4.90320333">
        <ele>496.0</ele>
        <time>2018-10-06T07:16:34.000Z</time>
      </trkpt>
      <trkpt lat="38.12632333" lon="-4.90320333">
        <ele>496.0</ele>
        <time>2018-10-06T07:16:35.000Z</time>
      </trkpt>
      <trkpt lat="38.12632333" lon="-4.90320333">
        <ele>496.0</ele>
        <time>2018-10-06T07:16:36.000Z</time>
      </trkpt>
      <trkpt lat="38.12632333" lon="-4.90320333">
        <ele>496.0</ele>
        <time>2018-10-06T07:16:37.000Z</time>
      </trkpt>
      <trkpt lat="38.12632333" lon="-4.90320333">
        <ele>496.0</ele>
        <time>2018-10-06T07:16:38.000Z</time>
      </trkpt>
      <trkpt lat="38.12632333" lon="-4.90320333">
        <ele>496.0</ele>
        <time>2018-10-06T07:16:39.000Z</time>
      </trkpt>
      <trkpt lat="38.12632333" lon="-4.90320333">
        <ele>496.0</ele>
        <time>2018-10-06T07:16:40.000Z</time>
      </trkpt>
      <trkpt lat="38.12632333" lon="-4.90320333">
        <ele>496.0</ele>
        <time>2018-10-06T07:16:41.000Z</time>
      </trkpt>
      <trkpt lat="38.12632333" lon="-4.90320333">
        <ele>496.0</ele>
        <time>2018-10-06T07:16:42.000Z</time>
      </trkpt>
      <trkpt lat="38.12632333" lon="-4.90320333">
        <ele>496.0</ele>
        <time>2018-10-06T07:16:43.000Z</time>
      </trkpt>
      <trkpt lat="38.12632333" lon="-4.90320333">
        <ele>496.0</ele>
        <time>2018-10-06T07:16:44.000Z</time>
      </trkpt>
      <trkpt lat="38.12632333" lon="-4.90320333">
        <ele>496.0</ele>
        <time>2018-10-06T07:16:45.000Z</time>
      </trkpt>
      <trkpt lat="38.12632333" lon="-4.90320333">
        <ele>496.0</ele>
        <time>2018-10-06T07:16:46.000Z</time>
      </trkpt>
      <trkpt lat="38.12632333" lon="-4.90320333">
        <ele>496.0</ele>
        <time>2018-10-06T07:16:47.000Z</time>
      </trkpt>
      <trkpt lat="38.12632333" lon="-4.90320333">
        <ele>496.0</ele>
        <time>2018-10-06T07:16:48.000Z</time>
      </trkpt>
      <trkpt lat="38.12632333" lon="-4.90320333">
        <ele>496.0</ele>
        <time>2018-10-06T07:16:49.000Z</time>
      </trkpt>
      <trkpt lat="38.12632333" lon="-4.90320333">
        <ele>496.0</ele>
        <time>2018-10-06T07:16:50.000Z</time>
      </trkpt>
      <trkpt lat="38.12632333" lon="-4.90320333">
        <ele>496.0</ele>
        <time>2018-10-06T07:16:51.000Z</time>
      </trkpt>
      <trkpt lat="38.12632333" lon="-4.90320333">
        <ele>496.0</ele>
        <time>2018-10-06T07:16:52.000Z</time>
      </trkpt>
      <trkpt lat="38.12632333" lon="-4.90320333">
        <ele>496.0</ele>
        <time>2018-10-06T07:16:53.000Z</time>
      </trkpt>
      <trkpt lat="38.12632333" lon="-4.90320333">
        <ele>496.0</ele>
        <time>2018-10-06T07:16:54.000Z</time>
      </trkpt>
      <trkpt lat="38.12632333" lon="-4.90320333">
        <ele>496.0</ele>
        <time>2018-10-06T07:16:55.000Z</time>
      </trkpt>
      <trkpt lat="38.12632333" lon="-4.90320333">
        <ele>496.0</ele>
        <time>2018-10-06T07:16:56.000Z</time>
      </trkpt>
      <trkpt lat="38.12632333" lon="-4.90320333">
        <ele>496.0</ele>
        <time>2018-10-06T07:16:57.000Z</time>
      </trkpt>
      <trkpt lat="38.12632333" lon="-4.90320333">
        <ele>496.0</ele>
        <time>2018-10-06T07:16:58.000Z</time>
      </trkpt>
      <trkpt lat="38.12632333" lon="-4.90320333">
        <ele>496.0</ele>
        <time>2018-10-06T07:16:59.000Z</time>
      </trkpt>
      <trkpt lat="38.12632333" lon="-4.90320333">
        <ele>496.0</ele>
        <time>2018-10-06T07:17:00.000Z</time>
      </trkpt>
      <trkpt lat="38.12632333" lon="-4.90320333">
        <ele>496.0</ele>
        <time>2018-10-06T07:17:01.000Z</time>
      </trkpt>
      <trkpt lat="38.126365" lon="-4.90332167">
        <ele>499.0</ele>
        <time>2018-10-06T07:17:02.000Z</time>
      </trkpt>
      <trkpt lat="38.12633" lon="-4.90342167">
        <ele>504.0</ele>
        <time>2018-10-06T07:17:03.000Z</time>
      </trkpt>
      <trkpt lat="38.12633167" lon="-4.90341833">
        <ele>504.0</ele>
        <time>2018-10-06T07:17:04.000Z</time>
      </trkpt>
      <trkpt lat="38.12633" lon="-4.90341667">
        <ele>504.0</ele>
        <time>2018-10-06T07:17:05.000Z</time>
      </trkpt>
      <trkpt lat="38.126325" lon="-4.90342167">
        <ele>504.0</ele>
        <time>2018-10-06T07:17:06.000Z</time>
      </trkpt>
      <trkpt lat="38.126325" lon="-4.90343">
        <ele>504.0</ele>
        <time>2018-10-06T07:17:07.000Z</time>
      </trkpt>
      <trkpt lat="38.12632333" lon="-4.90344">
        <ele>504.0</ele>
        <time>2018-10-06T07:17:08.000Z</time>
      </trkpt>
      <trkpt lat="38.12632" lon="-4.90345">
        <ele>503.0</ele>
        <time>2018-10-06T07:17:09.000Z</time>
      </trkpt>
      <trkpt lat="38.12632" lon="-4.90346167">
        <ele>503.0</ele>
        <time>2018-10-06T07:17:10.000Z</time>
      </trkpt>
      <trkpt lat="38.12631833" lon="-4.903475">
        <ele>503.0</ele>
        <time>2018-10-06T07:17:11.000Z</time>
      </trkpt>
      <trkpt lat="38.12631667" lon="-4.90348833">
        <ele>503.0</ele>
        <time>2018-10-06T07:17:12.000Z</time>
      </trkpt>
      <trkpt lat="38.126315" lon="-4.90350167">
        <ele>502.0</ele>
        <time>2018-10-06T07:17:13.000Z</time>
      </trkpt>
      <trkpt lat="38.126315" lon="-4.90350167">
        <ele>502.0</ele>
        <time>2018-10-06T07:17:14.000Z</time>
      </trkpt>
      <trkpt lat="38.126315" lon="-4.90350167">
        <ele>502.0</ele>
        <time>2018-10-06T07:17:15.000Z</time>
      </trkpt>
      <trkpt lat="38.126315" lon="-4.90350167">
        <ele>502.0</ele>
        <time>2018-10-06T07:17:16.000Z</time>
      </trkpt>
      <trkpt lat="38.126315" lon="-4.90350167">
        <ele>502.0</ele>
        <time>2018-10-06T07:17:17.000Z</time>
      </trkpt>
      <trkpt lat="38.126315" lon="-4.90350167">
        <ele>502.0</ele>
        <time>2018-10-06T07:17:18.000Z</time>
      </trkpt>
      <trkpt lat="38.126315" lon="-4.90350167">
        <ele>502.0</ele>
        <time>2018-10-06T07:17:19.000Z</time>
      </trkpt>
      <trkpt lat="38.126315" lon="-4.90350167">
        <ele>502.0</ele>
        <time>2018-10-06T07:17:20.000Z</time>
      </trkpt>
      <trkpt lat="38.126315" lon="-4.90350167">
        <ele>502.0</ele>
        <time>2018-10-06T07:17:21.000Z</time>
      </trkpt>
      <trkpt lat="38.126315" lon="-4.90350167">
        <ele>502.0</ele>
        <time>2018-10-06T07:17:22.000Z</time>
      </trkpt>
      <trkpt lat="38.126315" lon="-4.90350167">
        <ele>502.0</ele>
        <time>2018-10-06T07:17:23.000Z</time>
      </trkpt>
      <trkpt lat="38.126315" lon="-4.90350167">
        <ele>502.0</ele>
        <time>2018-10-06T07:17:24.000Z</time>
      </trkpt>
      <trkpt lat="38.126315" lon="-4.90350167">
        <ele>502.0</ele>
        <time>2018-10-06T07:17:25.000Z</time>
      </trkpt>
      <trkpt lat="38.126315" lon="-4.90350167">
        <ele>502.0</ele>
        <time>2018-10-06T07:17:26.000Z</time>
      </trkpt>
      <trkpt lat="38.126315" lon="-4.90350167">
        <ele>502.0</ele>
        <time>2018-10-06T07:17:27.000Z</time>
      </trkpt>
      <trkpt lat="38.126315" lon="-4.90350167">
        <ele>502.0</ele>
        <time>2018-10-06T07:17:28.000Z</time>
      </trkpt>
      <trkpt lat="38.126315" lon="-4.90350167">
        <ele>502.0</ele>
        <time>2018-10-06T07:17:29.000Z</time>
      </trkpt>
      <trkpt lat="38.126315" lon="-4.90350167">
        <ele>502.0</ele>
        <time>2018-10-06T07:17:30.000Z</time>
      </trkpt>
      <trkpt lat="38.126315" lon="-4.90350167">
        <ele>502.0</ele>
        <time>2018-10-06T07:17:31.000Z</time>
      </trkpt>
      <trkpt lat="38.126315" lon="-4.90350167">
        <ele>502.0</ele>
        <time>2018-10-06T07:17:32.000Z</time>
      </trkpt>
      <trkpt lat="38.126315" lon="-4.90350167">
        <ele>502.0</ele>
        <time>2018-10-06T07:17:33.000Z</time>
      </trkpt>
      <trkpt lat="38.126315" lon="-4.90350167">
        <ele>502.0</ele>
        <time>2018-10-06T07:17:34.000Z</time>
      </trkpt>
      <trkpt lat="38.126315" lon="-4.90350167">
        <ele>502.0</ele>
        <time>2018-10-06T07:17:35.000Z</time>
      </trkpt>
      <trkpt lat="38.126315" lon="-4.90350167">
        <ele>502.0</ele>
        <time>2018-10-06T07:17:36.000Z</time>
      </trkpt>
      <trkpt lat="38.126315" lon="-4.90350167">
        <ele>502.0</ele>
        <time>2018-10-06T07:17:37.000Z</time>
      </trkpt>
      <trkpt lat="38.126315" lon="-4.90350167">
        <ele>502.0</ele>
        <time>2018-10-06T07:17:38.000Z</time>
      </trkpt>
      <trkpt lat="38.126315" lon="-4.90350167">
        <ele>502.0</ele>
        <time>2018-10-06T07:17:39.000Z</time>
      </trkpt>
      <trkpt lat="38.126315" lon="-4.90350167">
        <ele>502.0</ele>
        <time>2018-10-06T07:17:40.000Z</time>
      </trkpt>
      <trkpt lat="38.126315" lon="-4.90350167">
        <ele>502.0</ele>
        <time>2018-10-06T07:17:41.000Z</time>
      </trkpt>
      <trkpt lat="38.126315" lon="-4.90350167">
        <ele>502.0</ele>
        <time>2018-10-06T07:17:42.000Z</time>
      </trkpt>
      <trkpt lat="38.126315" lon="-4.90350167">
        <ele>502.0</ele>
        <time>2018-10-06T07:17:43.000Z</time>
      </trkpt>
      <trkpt lat="38.126315" lon="-4.90350167">
        <ele>502.0</ele>
        <time>2018-10-06T07:17:44.000Z</time>
      </trkpt>
      <trkpt lat="38.126315" lon="-4.90350167">
        <ele>502.0</ele>
        <time>2018-10-06T07:17:45.000Z</time>
      </trkpt>
      <trkpt lat="38.126315" lon="-4.90350167">
        <ele>502.0</ele>
        <time>2018-10-06T07:17:46.000Z</time>
      </trkpt>
      <trkpt lat="38.126315" lon="-4.90350167">
        <ele>502.0</ele>
        <time>2018-10-06T07:17:47.000Z</time>
      </trkpt>
      <trkpt lat="38.126315" lon="-4.90350167">
        <ele>502.0</ele>
        <time>2018-10-06T07:17:48.000Z</time>
      </trkpt>
      <trkpt lat="38.126315" lon="-4.90350167">
        <ele>502.0</ele>
        <time>2018-10-06T07:17:49.000Z</time>
      </trkpt>
      <trkpt lat="38.126315" lon="-4.90350167">
        <ele>502.0</ele>
        <time>2018-10-06T07:17:50.000Z</time>
      </trkpt>
      <trkpt lat="38.126315" lon="-4.90350167">
        <ele>502.0</ele>
        <time>2018-10-06T07:17:51.000Z</time>
      </trkpt>
      <trkpt lat="38.126315" lon="-4.90350167">
        <ele>502.0</ele>
        <time>2018-10-06T07:17:52.000Z</time>
      </trkpt>
      <trkpt lat="38.126315" lon="-4.90350167">
        <ele>502.0</ele>
        <time>2018-10-06T07:17:53.000Z</time>
      </trkpt>
      <trkpt lat="38.126315" lon="-4.90350167">
        <ele>502.0</ele>
        <time>2018-10-06T07:17:54.000Z</time>
      </trkpt>
      <trkpt lat="38.126315" lon="-4.90350167">
        <ele>502.0</ele>
        <time>2018-10-06T07:17:55.000Z</time>
      </trkpt>
      <trkpt lat="38.126315" lon="-4.90350167">
        <ele>502.0</ele>
        <time>2018-10-06T07:17:56.000Z</time>
      </trkpt>
      <trkpt lat="38.126315" lon="-4.90350167">
        <ele>502.0</ele>
        <time>2018-10-06T07:17:57.000Z</time>
      </trkpt>
      <trkpt lat="38.126315" lon="-4.90350167">
        <ele>502.0</ele>
        <time>2018-10-06T07:17:58.000Z</time>
      </trkpt>
      <trkpt lat="38.126315" lon="-4.90350167">
        <ele>502.0</ele>
        <time>2018-10-06T07:17:59.000Z</time>
      </trkpt>
      <trkpt lat="38.126315" lon="-4.90350167">
        <ele>502.0</ele>
        <time>2018-10-06T07:18:00.000Z</time>
      </trkpt>
      <trkpt lat="38.126315" lon="-4.90350167">
        <ele>502.0</ele>
        <time>2018-10-06T07:18:01.000Z</time>
      </trkpt>
      <trkpt lat="38.126315" lon="-4.90350167">
        <ele>502.0</ele>
        <time>2018-10-06T07:18:02.000Z</time>
      </trkpt>
      <trkpt lat="38.126315" lon="-4.90350167">
        <ele>502.0</ele>
        <time>2018-10-06T07:18:03.000Z</time>
      </trkpt>
      <trkpt lat="38.126455" lon="-4.90398833">
        <ele>497.0</ele>
        <time>2018-10-06T07:18:04.000Z</time>
      </trkpt>
      <trkpt lat="38.12645167" lon="-4.90401667">
        <ele>498.0</ele>
        <time>2018-10-06T07:18:05.000Z</time>
      </trkpt>
      <trkpt lat="38.126455" lon="-4.904035">
        <ele>499.0</ele>
        <time>2018-10-06T07:18:06.000Z</time>
      </trkpt>
      <trkpt lat="38.12646" lon="-4.904055">
        <ele>500.0</ele>
        <time>2018-10-06T07:18:07.000Z</time>
      </trkpt>
      <trkpt lat="38.126465" lon="-4.90407333">
        <ele>501.0</ele>
        <time>2018-10-06T07:18:08.000Z</time>
      </trkpt>
      <trkpt lat="38.12647" lon="-4.90409">
        <ele>502.0</ele>
        <time>2018-10-06T07:18:09.000Z</time>
      </trkpt>
      <trkpt lat="38.126475" lon="-4.90410667">
        <ele>502.0</ele>
        <time>2018-10-06T07:18:10.000Z</time>
      </trkpt>
      <trkpt lat="38.12648" lon="-4.90412167">
        <ele>502.0</ele>
        <time>2018-10-06T07:18:11.000Z</time>
      </trkpt>
      <trkpt lat="38.126485" lon="-4.90413667">
        <ele>503.0</ele>
        <time>2018-10-06T07:18:12.000Z</time>
      </trkpt>
      <trkpt lat="38.12648833" lon="-4.90414833">
        <ele>503.0</ele>
        <time>2018-10-06T07:18:13.000Z</time>
      </trkpt>
      <trkpt lat="38.12648833" lon="-4.90414833">
        <ele>503.0</ele>
        <time>2018-10-06T07:18:14.000Z</time>
      </trkpt>
      <trkpt lat="38.12648833" lon="-4.90414833">
        <ele>503.0</ele>
        <time>2018-10-06T07:18:15.000Z</time>
      </trkpt>
      <trkpt lat="38.12648833" lon="-4.90414833">
        <ele>503.0</ele>
        <time>2018-10-06T07:18:16.000Z</time>
      </trkpt>
      <trkpt lat="38.12648833" lon="-4.90414833">
        <ele>503.0</ele>
        <time>2018-10-06T07:18:17.000Z</time>
      </trkpt>
      <trkpt lat="38.12648833" lon="-4.90414833">
        <ele>503.0</ele>
        <time>2018-10-06T07:18:18.000Z</time>
      </trkpt>
      <trkpt lat="38.12648833" lon="-4.90414833">
        <ele>503.0</ele>
        <time>2018-10-06T07:18:19.000Z</time>
      </trkpt>
      <trkpt lat="38.12648833" lon="-4.90414833">
        <ele>503.0</ele>
        <time>2018-10-06T07:18:20.000Z</time>
      </trkpt>
      <trkpt lat="38.12648833" lon="-4.90414833">
        <ele>503.0</ele>
        <time>2018-10-06T07:18:21.000Z</time>
      </trkpt>
      <trkpt lat="38.12648833" lon="-4.90414833">
        <ele>503.0</ele>
        <time>2018-10-06T07:18:22.000Z</time>
      </trkpt>
      <trkpt lat="38.12648833" lon="-4.90414833">
        <ele>503.0</ele>
        <time>2018-10-06T07:18:23.000Z</time>
      </trkpt>
      <trkpt lat="38.12648833" lon="-4.90414833">
        <ele>503.0</ele>
        <time>2018-10-06T07:18:24.000Z</time>
      </trkpt>
      <trkpt lat="38.12648833" lon="-4.90414833">
        <ele>503.0</ele>
        <time>2018-10-06T07:18:25.000Z</time>
      </trkpt>
      <trkpt lat="38.12648833" lon="-4.90414833">
        <ele>503.0</ele>
        <time>2018-10-06T07:18:26.000Z</time>
      </trkpt>
      <trkpt lat="38.12648833" lon="-4.90414833">
        <ele>503.0</ele>
        <time>2018-10-06T07:18:27.000Z</time>
      </trkpt>
      <trkpt lat="38.12648833" lon="-4.90414833">
        <ele>503.0</ele>
        <time>2018-10-06T07:18:28.000Z</time>
      </trkpt>
      <trkpt lat="38.12648833" lon="-4.90414833">
        <ele>503.0</ele>
        <time>2018-10-06T07:18:29.000Z</time>
      </trkpt>
      <trkpt lat="38.12648833" lon="-4.90414833">
        <ele>503.0</ele>
        <time>2018-10-06T07:18:30.000Z</time>
      </trkpt>
      <trkpt lat="38.12648833" lon="-4.90414833">
        <ele>503.0</ele>
        <time>2018-10-06T07:18:31.000Z</time>
      </trkpt>
      <trkpt lat="38.12648833" lon="-4.90414833">
        <ele>503.0</ele>
        <time>2018-10-06T07:18:32.000Z</time>
      </trkpt>
      <trkpt lat="38.12648833" lon="-4.90414833">
        <ele>503.0</ele>
        <time>2018-10-06T07:18:33.000Z</time>
      </trkpt>
      <trkpt lat="38.12648833" lon="-4.90414833">
        <ele>503.0</ele>
        <time>2018-10-06T07:18:34.000Z</time>
      </trkpt>
      <trkpt lat="38.12648833" lon="-4.90414833">
        <ele>503.0</ele>
        <time>2018-10-06T07:18:35.000Z</time>
      </trkpt>
      <trkpt lat="38.12648833" lon="-4.90414833">
        <ele>503.0</ele>
        <time>2018-10-06T07:18:36.000Z</time>
      </trkpt>
      <trkpt lat="38.12648833" lon="-4.90414833">
        <ele>503.0</ele>
        <time>2018-10-06T07:18:37.000Z</time>
      </trkpt>
      <trkpt lat="38.12648833" lon="-4.90414833">
        <ele>503.0</ele>
        <time>2018-10-06T07:18:38.000Z</time>
      </trkpt>
      <trkpt lat="38.12648833" lon="-4.90414833">
        <ele>503.0</ele>
        <time>2018-10-06T07:18:39.000Z</time>
      </trkpt>
      <trkpt lat="38.12648833" lon="-4.90414833">
        <ele>503.0</ele>
        <time>2018-10-06T07:18:40.000Z</time>
      </trkpt>
      <trkpt lat="38.12648833" lon="-4.90414833">
        <ele>503.0</ele>
        <time>2018-10-06T07:18:41.000Z</time>
      </trkpt>
      <trkpt lat="38.12648833" lon="-4.90414833">
        <ele>503.0</ele>
        <time>2018-10-06T07:18:42.000Z</time>
      </trkpt>
      <trkpt lat="38.12648833" lon="-4.90414833">
        <ele>503.0</ele>
        <time>2018-10-06T07:18:43.000Z</time>
      </trkpt>
      <trkpt lat="38.12648833" lon="-4.90414833">
        <ele>503.0</ele>
        <time>2018-10-06T07:18:44.000Z</time>
      </trkpt>
      <trkpt lat="38.12648833" lon="-4.90414833">
        <ele>503.0</ele>
        <time>2018-10-06T07:18:45.000Z</time>
      </trkpt>
      <trkpt lat="38.12648833" lon="-4.90414833">
        <ele>503.0</ele>
        <time>2018-10-06T07:18:46.000Z</time>
      </trkpt>
      <trkpt lat="38.12648833" lon="-4.90414833">
        <ele>503.0</ele>
        <time>2018-10-06T07:18:47.000Z</time>
      </trkpt>
      <trkpt lat="38.12648833" lon="-4.90414833">
        <ele>503.0</ele>
        <time>2018-10-06T07:18:48.000Z</time>
      </trkpt>
      <trkpt lat="38.12648833" lon="-4.90414833">
        <ele>503.0</ele>
        <time>2018-10-06T07:18:49.000Z</time>
      </trkpt>
      <trkpt lat="38.12648833" lon="-4.90414833">
        <ele>503.0</ele>
        <time>2018-10-06T07:18:50.000Z</time>
      </trkpt>
      <trkpt lat="38.12648833" lon="-4.90414833">
        <ele>503.0</ele>
        <time>2018-10-06T07:18:51.000Z</time>
      </trkpt>
      <trkpt lat="38.12648833" lon="-4.90414833">
        <ele>503.0</ele>
        <time>2018-10-06T07:18:52.000Z</time>
      </trkpt>
      <trkpt lat="38.12648833" lon="-4.90414833">
        <ele>503.0</ele>
        <time>2018-10-06T07:18:53.000Z</time>
      </trkpt>
      <trkpt lat="38.12648833" lon="-4.90414833">
        <ele>503.0</ele>
        <time>2018-10-06T07:18:54.000Z</time>
      </trkpt>
      <trkpt lat="38.12648833" lon="-4.90414833">
        <ele>503.0</ele>
        <time>2018-10-06T07:18:55.000Z</time>
      </trkpt>
      <trkpt lat="38.12648833" lon="-4.90414833">
        <ele>503.0</ele>
        <time>2018-10-06T07:18:56.000Z</time>
      </trkpt>
      <trkpt lat="38.12648833" lon="-4.90414833">
        <ele>503.0</ele>
        <time>2018-10-06T07:18:57.000Z</time>
      </trkpt>
      <trkpt lat="38.12648833" lon="-4.90414833">
        <ele>503.0</ele>
        <time>2018-10-06T07:18:58.000Z</time>
      </trkpt>
      <trkpt lat="38.12648833" lon="-4.90414833">
        <ele>503.0</ele>
        <time>2018-10-06T07:18:59.000Z</time>
      </trkpt>
      <trkpt lat="38.12648833" lon="-4.90414833">
        <ele>503.0</ele>
        <time>2018-10-06T07:19:00.000Z</time>
      </trkpt>
      <trkpt lat="38.12648833" lon="-4.90414833">
        <ele>503.0</ele>
        <time>2018-10-06T07:19:01.000Z</time>
      </trkpt>
      <trkpt lat="38.12648833" lon="-4.90414833">
        <ele>503.0</ele>
        <time>2018-10-06T07:19:02.000Z</time>
      </trkpt>
      <trkpt lat="38.12674333" lon="-4.90470333">
        <ele>505.0</ele>
        <time>2018-10-06T07:19:03.000Z</time>
      </trkpt>
      <trkpt lat="38.12672833" lon="-4.90475667">
        <ele>505.0</ele>
        <time>2018-10-06T07:19:04.000Z</time>
      </trkpt>
      <trkpt lat="38.12672167" lon="-4.90478167">
        <ele>505.0</ele>
        <time>2018-10-06T07:19:05.000Z</time>
      </trkpt>
      <trkpt lat="38.12671833" lon="-4.904805">
        <ele>505.0</ele>
        <time>2018-10-06T07:19:06.000Z</time>
      </trkpt>
      <trkpt lat="38.126715" lon="-4.90482833">
        <ele>505.0</ele>
        <time>2018-10-06T07:19:07.000Z</time>
      </trkpt>
      <trkpt lat="38.126715" lon="-4.90484833">
        <ele>504.0</ele>
        <time>2018-10-06T07:19:08.000Z</time>
      </trkpt>
      <trkpt lat="38.126715" lon="-4.90486667">
        <ele>504.0</ele>
        <time>2018-10-06T07:19:09.000Z</time>
      </trkpt>
      <trkpt lat="38.126715" lon="-4.90488833">
        <ele>504.0</ele>
        <time>2018-10-06T07:19:10.000Z</time>
      </trkpt>
      <trkpt lat="38.126715" lon="-4.90490833">
        <ele>504.0</ele>
        <time>2018-10-06T07:19:11.000Z</time>
      </trkpt>
      <trkpt lat="38.12671667" lon="-4.90492833">
        <ele>504.0</ele>
        <time>2018-10-06T07:19:12.000Z</time>
      </trkpt>
      <trkpt lat="38.12671667" lon="-4.90494833">
        <ele>503.0</ele>
        <time>2018-10-06T07:19:13.000Z</time>
      </trkpt>
      <trkpt lat="38.12671667" lon="-4.90494833">
        <ele>503.0</ele>
        <time>2018-10-06T07:19:14.000Z</time>
      </trkpt>
      <trkpt lat="38.12671667" lon="-4.90494833">
        <ele>503.0</ele>
        <time>2018-10-06T07:19:15.000Z</time>
      </trkpt>
      <trkpt lat="38.12671667" lon="-4.90494833">
        <ele>503.0</ele>
        <time>2018-10-06T07:19:16.000Z</time>
      </trkpt>
      <trkpt lat="38.12671667" lon="-4.90494833">
        <ele>503.0</ele>
        <time>2018-10-06T07:19:17.000Z</time>
      </trkpt>
      <trkpt lat="38.12671667" lon="-4.90494833">
        <ele>503.0</ele>
        <time>2018-10-06T07:19:18.000Z</time>
      </trkpt>
      <trkpt lat="38.12671667" lon="-4.90494833">
        <ele>503.0</ele>
        <time>2018-10-06T07:19:19.000Z</time>
      </trkpt>
      <trkpt lat="38.12671667" lon="-4.90494833">
        <ele>503.0</ele>
        <time>2018-10-06T07:19:20.000Z</time>
      </trkpt>
      <trkpt lat="38.12671667" lon="-4.90494833">
        <ele>503.0</ele>
        <time>2018-10-06T07:19:21.000Z</time>
      </trkpt>
      <trkpt lat="38.12671667" lon="-4.90494833">
        <ele>503.0</ele>
        <time>2018-10-06T07:19:22.000Z</time>
      </trkpt>
      <trkpt lat="38.12671667" lon="-4.90494833">
        <ele>503.0</ele>
        <time>2018-10-06T07:19:23.000Z</time>
      </trkpt>
      <trkpt lat="38.12671667" lon="-4.90494833">
        <ele>503.0</ele>
        <time>2018-10-06T07:19:24.000Z</time>
      </trkpt>
      <trkpt lat="38.12671667" lon="-4.90494833">
        <ele>503.0</ele>
        <time>2018-10-06T07:19:25.000Z</time>
      </trkpt>
      <trkpt lat="38.12671667" lon="-4.90494833">
        <ele>503.0</ele>
        <time>2018-10-06T07:19:26.000Z</time>
      </trkpt>
      <trkpt lat="38.12671667" lon="-4.90494833">
        <ele>503.0</ele>
        <time>2018-10-06T07:19:27.000Z</time>
      </trkpt>
      <trkpt lat="38.12671667" lon="-4.90494833">
        <ele>503.0</ele>
        <time>2018-10-06T07:19:28.000Z</time>
      </trkpt>
      <trkpt lat="38.12671667" lon="-4.90494833">
        <ele>503.0</ele>
        <time>2018-10-06T07:19:29.000Z</time>
      </trkpt>
      <trkpt lat="38.12671667" lon="-4.90494833">
        <ele>503.0</ele>
        <time>2018-10-06T07:19:30.000Z</time>
      </trkpt>
      <trkpt lat="38.12671667" lon="-4.90494833">
        <ele>503.0</ele>
        <time>2018-10-06T07:19:31.000Z</time>
      </trkpt>
      <trkpt lat="38.12671667" lon="-4.90494833">
        <ele>503.0</ele>
        <time>2018-10-06T07:19:32.000Z</time>
      </trkpt>
      <trkpt lat="38.12671667" lon="-4.90494833">
        <ele>503.0</ele>
        <time>2018-10-06T07:19:33.000Z</time>
      </trkpt>
      <trkpt lat="38.12671667" lon="-4.90494833">
        <ele>503.0</ele>
        <time>2018-10-06T07:19:34.000Z</time>
      </trkpt>
      <trkpt lat="38.12671667" lon="-4.90494833">
        <ele>503.0</ele>
        <time>2018-10-06T07:19:35.000Z</time>
      </trkpt>
      <trkpt lat="38.12671667" lon="-4.90494833">
        <ele>503.0</ele>
        <time>2018-10-06T07:19:36.000Z</time>
      </trkpt>
      <trkpt lat="38.12671667" lon="-4.90494833">
        <ele>503.0</ele>
        <time>2018-10-06T07:19:37.000Z</time>
      </trkpt>
      <trkpt lat="38.12671667" lon="-4.90494833">
        <ele>503.0</ele>
        <time>2018-10-06T07:19:38.000Z</time>
      </trkpt>
      <trkpt lat="38.12671667" lon="-4.90494833">
        <ele>503.0</ele>
        <time>2018-10-06T07:19:39.000Z</time>
      </trkpt>
      <trkpt lat="38.12671667" lon="-4.90494833">
        <ele>503.0</ele>
        <time>2018-10-06T07:19:40.000Z</time>
      </trkpt>
      <trkpt lat="38.12671667" lon="-4.90494833">
        <ele>503.0</ele>
        <time>2018-10-06T07:19:41.000Z</time>
      </trkpt>
      <trkpt lat="38.12671667" lon="-4.90494833">
        <ele>503.0</ele>
        <time>2018-10-06T07:19:42.000Z</time>
      </trkpt>
      <trkpt lat="38.12671667" lon="-4.90494833">
        <ele>503.0</ele>
        <time>2018-10-06T07:19:43.000Z</time>
      </trkpt>
      <trkpt lat="38.12671667" lon="-4.90494833">
        <ele>503.0</ele>
        <time>2018-10-06T07:19:44.000Z</time>
      </trkpt>
      <trkpt lat="38.12671667" lon="-4.90494833">
        <ele>503.0</ele>
        <time>2018-10-06T07:19:45.000Z</time>
      </trkpt>
      <trkpt lat="38.12671667" lon="-4.90494833">
        <ele>503.0</ele>
        <time>2018-10-06T07:19:46.000Z</time>
      </trkpt>
      <trkpt lat="38.12671667" lon="-4.90494833">
        <ele>503.0</ele>
        <time>2018-10-06T07:19:47.000Z</time>
      </trkpt>
      <trkpt lat="38.12671667" lon="-4.90494833">
        <ele>503.0</ele>
        <time>2018-10-06T07:19:48.000Z</time>
      </trkpt>
      <trkpt lat="38.12671667" lon="-4.90494833">
        <ele>503.0</ele>
        <time>2018-10-06T07:19:49.000Z</time>
      </trkpt>
      <trkpt lat="38.12671667" lon="-4.90494833">
        <ele>503.0</ele>
        <time>2018-10-06T07:19:50.000Z</time>
      </trkpt>
      <trkpt lat="38.12671667" lon="-4.90494833">
        <ele>503.0</ele>
        <time>2018-10-06T07:19:51.000Z</time>
      </trkpt>
      <trkpt lat="38.12671667" lon="-4.90494833">
        <ele>503.0</ele>
        <time>2018-10-06T07:19:52.000Z</time>
      </trkpt>
      <trkpt lat="38.12671667" lon="-4.90494833">
        <ele>503.0</ele>
        <time>2018-10-06T07:19:53.000Z</time>
      </trkpt>
      <trkpt lat="38.12671667" lon="-4.90494833">
        <ele>503.0</ele>
        <time>2018-10-06T07:19:54.000Z</time>
      </trkpt>
      <trkpt lat="38.12671667" lon="-4.90494833">
        <ele>503.0</ele>
        <time>2018-10-06T07:19:55.000Z</time>
      </trkpt>
      <trkpt lat="38.12671667" lon="-4.90494833">
        <ele>503.0</ele>
        <time>2018-10-06T07:19:56.000Z</time>
      </trkpt>
      <trkpt lat="38.12671667" lon="-4.90494833">
        <ele>503.0</ele>
        <time>2018-10-06T07:19:57.000Z</time>
      </trkpt>
      <trkpt lat="38.12671667" lon="-4.90494833">
        <ele>503.0</ele>
        <time>2018-10-06T07:19:58.000Z</time>
      </trkpt>
      <trkpt lat="38.12671667" lon="-4.90494833">
        <ele>503.0</ele>
        <time>2018-10-06T07:19:59.000Z</time>
      </trkpt>
      <trkpt lat="38.12671667" lon="-4.90494833">
        <ele>503.0</ele>
        <time>2018-10-06T07:20:00.000Z</time>
      </trkpt>
      <trkpt lat="38.12671667" lon="-4.90494833">
        <ele>503.0</ele>
        <time>2018-10-06T07:20:01.000Z</time>
      </trkpt>
      <trkpt lat="38.12671667" lon="-4.90494833">
        <ele>503.0</ele>
        <time>2018-10-06T07:20:02.000Z</time>
      </trkpt>
      <trkpt lat="38.12691833" lon="-4.90524">
        <ele>511.0</ele>
        <time>2018-10-06T07:20:03.000Z</time>
      </trkpt>
      <trkpt lat="38.12691167" lon="-4.905275">
        <ele>511.0</ele>
        <time>2018-10-06T07:20:04.000Z</time>
      </trkpt>
      <trkpt lat="38.12690167" lon="-4.905325">
        <ele>511.0</ele>
        <time>2018-10-06T07:20:05.000Z</time>
      </trkpt>
      <trkpt lat="38.12689333" lon="-4.90536667">
        <ele>510.0</ele>
        <time>2018-10-06T07:20:06.000Z</time>
      </trkpt>
      <trkpt lat="38.12688667" lon="-4.905405">
        <ele>510.0</ele>
        <time>2018-10-06T07:20:07.000Z</time>
      </trkpt>
      <trkpt lat="38.12688" lon="-4.90544">
        <ele>510.0</ele>
        <time>2018-10-06T07:20:08.000Z</time>
      </trkpt>
      <trkpt lat="38.12687667" lon="-4.905475">
        <ele>511.0</ele>
        <time>2018-10-06T07:20:09.000Z</time>
      </trkpt>
      <trkpt lat="38.12687" lon="-4.90550667">
        <ele>511.0</ele>
        <time>2018-10-06T07:20:10.000Z</time>
      </trkpt>
      <trkpt lat="38.12686667" lon="-4.90553833">
        <ele>510.0</ele>
        <time>2018-10-06T07:20:11.000Z</time>
      </trkpt>
      <trkpt lat="38.12686167" lon="-4.90557">
        <ele>510.0</ele>
        <time>2018-10-06T07:20:12.000Z</time>
      </trkpt>
      <trkpt lat="38.12685833" lon="-4.90560167">
        <ele>510.0</ele>
        <time>2018-10-06T07:20:13.000Z</time>
      </trkpt>
      <trkpt lat="38.12685667" lon="-4.90563167">
        <ele>510.0</ele>
        <time>2018-10-06T07:20:14.000Z</time>
      </trkpt>
      <trkpt lat="38.12685667" lon="-4.90563167">
        <ele>510.0</ele>
        <time>2018-10-06T07:20:15.000Z</time>
      </trkpt>
      <trkpt lat="38.12685667" lon="-4.90563167">
        <ele>510.0</ele>
        <time>2018-10-06T07:20:16.000Z</time>
      </trkpt>
      <trkpt lat="38.12685667" lon="-4.90563167">
        <ele>510.0</ele>
        <time>2018-10-06T07:20:17.000Z</time>
      </trkpt>
      <trkpt lat="38.12685667" lon="-4.90563167">
        <ele>510.0</ele>
        <time>2018-10-06T07:20:18.000Z</time>
      </trkpt>
      <trkpt lat="38.12685667" lon="-4.90563167">
        <ele>510.0</ele>
        <time>2018-10-06T07:20:19.000Z</time>
      </trkpt>
      <trkpt lat="38.12685667" lon="-4.90563167">
        <ele>510.0</ele>
        <time>2018-10-06T07:20:20.000Z</time>
      </trkpt>
      <trkpt lat="38.12685667" lon="-4.90563167">
        <ele>510.0</ele>
        <time>2018-10-06T07:20:21.000Z</time>
      </trkpt>
      <trkpt lat="38.12685667" lon="-4.90563167">
        <ele>510.0</ele>
        <time>2018-10-06T07:20:22.000Z</time>
      </trkpt>
      <trkpt lat="38.12685667" lon="-4.90563167">
        <ele>510.0</ele>
        <time>2018-10-06T07:20:23.000Z</time>
      </trkpt>
      <trkpt lat="38.12685667" lon="-4.90563167">
        <ele>510.0</ele>
        <time>2018-10-06T07:20:24.000Z</time>
      </trkpt>
      <trkpt lat="38.12685667" lon="-4.90563167">
        <ele>510.0</ele>
        <time>2018-10-06T07:20:25.000Z</time>
      </trkpt>
      <trkpt lat="38.12685667" lon="-4.90563167">
        <ele>510.0</ele>
        <time>2018-10-06T07:20:26.000Z</time>
      </trkpt>
      <trkpt lat="38.12685667" lon="-4.90563167">
        <ele>510.0</ele>
        <time>2018-10-06T07:20:27.000Z</time>
      </trkpt>
      <trkpt lat="38.12685667" lon="-4.90563167">
        <ele>510.0</ele>
        <time>2018-10-06T07:20:28.000Z</time>
      </trkpt>
      <trkpt lat="38.12685667" lon="-4.90563167">
        <ele>510.0</ele>
        <time>2018-10-06T07:20:29.000Z</time>
      </trkpt>
      <trkpt lat="38.12685667" lon="-4.90563167">
        <ele>510.0</ele>
        <time>2018-10-06T07:20:30.000Z</time>
      </trkpt>
      <trkpt lat="38.12685667" lon="-4.90563167">
        <ele>510.0</ele>
        <time>2018-10-06T07:20:31.000Z</time>
      </trkpt>
      <trkpt lat="38.12685667" lon="-4.90563167">
        <ele>510.0</ele>
        <time>2018-10-06T07:20:32.000Z</time>
      </trkpt>
      <trkpt lat="38.12685667" lon="-4.90563167">
        <ele>510.0</ele>
        <time>2018-10-06T07:20:33.000Z</time>
      </trkpt>
      <trkpt lat="38.12685667" lon="-4.90563167">
        <ele>510.0</ele>
        <time>2018-10-06T07:20:34.000Z</time>
      </trkpt>
      <trkpt lat="38.12685667" lon="-4.90563167">
        <ele>510.0</ele>
        <time>2018-10-06T07:20:35.000Z</time>
      </trkpt>
      <trkpt lat="38.12685667" lon="-4.90563167">
        <ele>510.0</ele>
        <time>2018-10-06T07:20:36.000Z</time>
      </trkpt>
      <trkpt lat="38.12685667" lon="-4.90563167">
        <ele>510.0</ele>
        <time>2018-10-06T07:20:37.000Z</time>
      </trkpt>
      <trkpt lat="38.12685667" lon="-4.90563167">
        <ele>510.0</ele>
        <time>2018-10-06T07:20:38.000Z</time>
      </trkpt>
      <trkpt lat="38.12685667" lon="-4.90563167">
        <ele>510.0</ele>
        <time>2018-10-06T07:20:39.000Z</time>
      </trkpt>
      <trkpt lat="38.12685667" lon="-4.90563167">
        <ele>510.0</ele>
        <time>2018-10-06T07:20:40.000Z</time>
      </trkpt>
      <trkpt lat="38.12685667" lon="-4.90563167">
        <ele>510.0</ele>
        <time>2018-10-06T07:20:41.000Z</time>
      </trkpt>
      <trkpt lat="38.12685667" lon="-4.90563167">
        <ele>510.0</ele>
        <time>2018-10-06T07:20:42.000Z</time>
      </trkpt>
      <trkpt lat="38.12685667" lon="-4.90563167">
        <ele>510.0</ele>
        <time>2018-10-06T07:20:43.000Z</time>
      </trkpt>
      <trkpt lat="38.12685667" lon="-4.90563167">
        <ele>510.0</ele>
        <time>2018-10-06T07:20:44.000Z</time>
      </trkpt>
      <trkpt lat="38.12685667" lon="-4.90563167">
        <ele>510.0</ele>
        <time>2018-10-06T07:20:45.000Z</time>
      </trkpt>
      <trkpt lat="38.12685667" lon="-4.90563167">
        <ele>510.0</ele>
        <time>2018-10-06T07:20:46.000Z</time>
      </trkpt>
      <trkpt lat="38.12685667" lon="-4.90563167">
        <ele>510.0</ele>
        <time>2018-10-06T07:20:47.000Z</time>
      </trkpt>
      <trkpt lat="38.12685667" lon="-4.90563167">
        <ele>510.0</ele>
        <time>2018-10-06T07:20:48.000Z</time>
      </trkpt>
      <trkpt lat="38.12685667" lon="-4.90563167">
        <ele>510.0</ele>
        <time>2018-10-06T07:20:49.000Z</time>
      </trkpt>
      <trkpt lat="38.12685667" lon="-4.90563167">
        <ele>510.0</ele>
        <time>2018-10-06T07:20:50.000Z</time>
      </trkpt>
      <trkpt lat="38.12685667" lon="-4.90563167">
        <ele>510.0</ele>
        <time>2018-10-06T07:20:51.000Z</time>
      </trkpt>
      <trkpt lat="38.12685667" lon="-4.90563167">
        <ele>510.0</ele>
        <time>2018-10-06T07:20:52.000Z</time>
      </trkpt>
      <trkpt lat="38.12685667" lon="-4.90563167">
        <ele>510.0</ele>
        <time>2018-10-06T07:20:53.000Z</time>
      </trkpt>
      <trkpt lat="38.12685667" lon="-4.90563167">
        <ele>510.0</ele>
        <time>2018-10-06T07:20:54.000Z</time>
      </trkpt>
      <trkpt lat="38.12685667" lon="-4.90563167">
        <ele>510.0</ele>
        <time>2018-10-06T07:20:55.000Z</time>
      </trkpt>
      <trkpt lat="38.12685667" lon="-4.90563167">
        <ele>510.0</ele>
        <time>2018-10-06T07:20:56.000Z</time>
      </trkpt>
      <trkpt lat="38.12685667" lon="-4.90563167">
        <ele>510.0</ele>
        <time>2018-10-06T07:20:57.000Z</time>
      </trkpt>
      <trkpt lat="38.12685667" lon="-4.90563167">
        <ele>510.0</ele>
        <time>2018-10-06T07:20:58.000Z</time>
      </trkpt>
      <trkpt lat="38.12685667" lon="-4.90563167">
        <ele>510.0</ele>
        <time>2018-10-06T07:20:59.000Z</time>
      </trkpt>
      <trkpt lat="38.12685667" lon="-4.90563167">
        <ele>510.0</ele>
        <time>2018-10-06T07:21:00.000Z</time>
      </trkpt>
      <trkpt lat="38.12685667" lon="-4.90563167">
        <ele>510.0</ele>
        <time>2018-10-06T07:21:01.000Z</time>
      </trkpt>
      <trkpt lat="38.12685667" lon="-4.90563167">
        <ele>510.0</ele>
        <time>2018-10-06T07:21:02.000Z</time>
      </trkpt>
      <trkpt lat="38.12685667" lon="-4.90563167">
        <ele>510.0</ele>
        <time>2018-10-06T07:21:03.000Z</time>
      </trkpt>
      <trkpt lat="38.12692833" lon="-4.90624333">
        <ele>495.0</ele>
        <time>2018-10-06T07:21:04.000Z</time>
      </trkpt>
      <trkpt lat="38.126925" lon="-4.906265">
        <ele>494.0</ele>
        <time>2018-10-06T07:21:05.000Z</time>
      </trkpt>
      <trkpt lat="38.12692333" lon="-4.90628333">
        <ele>494.0</ele>
        <time>2018-10-06T07:21:06.000Z</time>
      </trkpt>
      <trkpt lat="38.12692" lon="-4.90630333">
        <ele>494.0</ele>
        <time>2018-10-06T07:21:07.000Z</time>
      </trkpt>
      <trkpt lat="38.12691667" lon="-4.906325">
        <ele>494.0</ele>
        <time>2018-10-06T07:21:08.000Z</time>
      </trkpt>
      <trkpt lat="38.126915" lon="-4.90634667">
        <ele>495.0</ele>
        <time>2018-10-06T07:21:09.000Z</time>
      </trkpt>
      <trkpt lat="38.12691" lon="-4.90636833">
        <ele>496.0</ele>
        <time>2018-10-06T07:21:10.000Z</time>
      </trkpt>
      <trkpt lat="38.12690833" lon="-4.90639">
        <ele>496.0</ele>
        <time>2018-10-06T07:21:11.000Z</time>
      </trkpt>
      <trkpt lat="38.12690833" lon="-4.90641">
        <ele>497.0</ele>
        <time>2018-10-06T07:21:12.000Z</time>
      </trkpt>
      <trkpt lat="38.12691" lon="-4.90642833">
        <ele>497.0</ele>
        <time>2018-10-06T07:21:13.000Z</time>
      </trkpt>
      <trkpt lat="38.12691" lon="-4.906445">
        <ele>497.0</ele>
        <time>2018-10-06T07:21:14.000Z</time>
      </trkpt>
      <trkpt lat="38.12691" lon="-4.906445">
        <ele>497.0</ele>
        <time>2018-10-06T07:21:15.000Z</time>
      </trkpt>
      <trkpt lat="38.12691" lon="-4.906445">
        <ele>497.0</ele>
        <time>2018-10-06T07:21:16.000Z</time>
      </trkpt>
      <trkpt lat="38.12691" lon="-4.906445">
        <ele>497.0</ele>
        <time>2018-10-06T07:21:17.000Z</time>
      </trkpt>
      <trkpt lat="38.12691" lon="-4.906445">
        <ele>497.0</ele>
        <time>2018-10-06T07:21:18.000Z</time>
      </trkpt>
      <trkpt lat="38.12691" lon="-4.906445">
        <ele>497.0</ele>
        <time>2018-10-06T07:21:19.000Z</time>
      </trkpt>
      <trkpt lat="38.12691" lon="-4.906445">
        <ele>497.0</ele>
        <time>2018-10-06T07:21:20.000Z</time>
      </trkpt>
      <trkpt lat="38.12691" lon="-4.906445">
        <ele>497.0</ele>
        <time>2018-10-06T07:21:21.000Z</time>
      </trkpt>
      <trkpt lat="38.12691" lon="-4.906445">
        <ele>497.0</ele>
        <time>2018-10-06T07:21:22.000Z</time>
      </trkpt>
      <trkpt lat="38.12691" lon="-4.906445">
        <ele>497.0</ele>
        <time>2018-10-06T07:21:23.000Z</time>
      </trkpt>
      <trkpt lat="38.12691" lon="-4.906445">
        <ele>497.0</ele>
        <time>2018-10-06T07:21:24.000Z</time>
      </trkpt>
      <trkpt lat="38.12691" lon="-4.906445">
        <ele>497.0</ele>
        <time>2018-10-06T07:21:25.000Z</time>
      </trkpt>
      <trkpt lat="38.12691" lon="-4.906445">
        <ele>497.0</ele>
        <time>2018-10-06T07:21:26.000Z</time>
      </trkpt>
      <trkpt lat="38.12691" lon="-4.906445">
        <ele>497.0</ele>
        <time>2018-10-06T07:21:27.000Z</time>
      </trkpt>
      <trkpt lat="38.12691" lon="-4.906445">
        <ele>497.0</ele>
        <time>2018-10-06T07:21:28.000Z</time>
      </trkpt>
      <trkpt lat="38.12691" lon="-4.906445">
        <ele>497.0</ele>
        <time>2018-10-06T07:21:29.000Z</time>
      </trkpt>
      <trkpt lat="38.12691" lon="-4.906445">
        <ele>497.0</ele>
        <time>2018-10-06T07:21:30.000Z</time>
      </trkpt>
      <trkpt lat="38.12691" lon="-4.906445">
        <ele>497.0</ele>
        <time>2018-10-06T07:21:31.000Z</time>
      </trkpt>
      <trkpt lat="38.12691" lon="-4.906445">
        <ele>497.0</ele>
        <time>2018-10-06T07:21:32.000Z</time>
      </trkpt>
      <trkpt lat="38.12691" lon="-4.906445">
        <ele>497.0</ele>
        <time>2018-10-06T07:21:33.000Z</time>
      </trkpt>
      <trkpt lat="38.12691" lon="-4.906445">
        <ele>497.0</ele>
        <time>2018-10-06T07:21:34.000Z</time>
      </trkpt>
      <trkpt lat="38.12691" lon="-4.906445">
        <ele>497.0</ele>
        <time>2018-10-06T07:21:35.000Z</time>
      </trkpt>
      <trkpt lat="38.12691" lon="-4.906445">
        <ele>497.0</ele>
        <time>2018-10-06T07:21:36.000Z</time>
      </trkpt>
      <trkpt lat="38.12691" lon="-4.906445">
        <ele>497.0</ele>
        <time>2018-10-06T07:21:37.000Z</time>
      </trkpt>
      <trkpt lat="38.12691" lon="-4.906445">
        <ele>497.0</ele>
        <time>2018-10-06T07:21:38.000Z</time>
      </trkpt>
      <trkpt lat="38.12691" lon="-4.906445">
        <ele>497.0</ele>
        <time>2018-10-06T07:21:39.000Z</time>
      </trkpt>
      <trkpt lat="38.12691" lon="-4.906445">
        <ele>497.0</ele>
        <time>2018-10-06T07:21:40.000Z</time>
      </trkpt>
      <trkpt lat="38.12691" lon="-4.906445">
        <ele>497.0</ele>
        <time>2018-10-06T07:21:41.000Z</time>
      </trkpt>
      <trkpt lat="38.12691" lon="-4.906445">
        <ele>497.0</ele>
        <time>2018-10-06T07:21:42.000Z</time>
      </trkpt>
      <trkpt lat="38.12691" lon="-4.906445">
        <ele>497.0</ele>
        <time>2018-10-06T07:21:43.000Z</time>
      </trkpt>
      <trkpt lat="38.12691" lon="-4.906445">
        <ele>497.0</ele>
        <time>2018-10-06T07:21:44.000Z</time>
      </trkpt>
      <trkpt lat="38.12691" lon="-4.906445">
        <ele>497.0</ele>
        <time>2018-10-06T07:21:45.000Z</time>
      </trkpt>
      <trkpt lat="38.12691" lon="-4.906445">
        <ele>497.0</ele>
        <time>2018-10-06T07:21:46.000Z</time>
      </trkpt>
      <trkpt lat="38.12691" lon="-4.906445">
        <ele>497.0</ele>
        <time>2018-10-06T07:21:47.000Z</time>
      </trkpt>
      <trkpt lat="38.12691" lon="-4.906445">
        <ele>497.0</ele>
        <time>2018-10-06T07:21:48.000Z</time>
      </trkpt>
      <trkpt lat="38.12691" lon="-4.906445">
        <ele>497.0</ele>
        <time>2018-10-06T07:21:49.000Z</time>
      </trkpt>
      <trkpt lat="38.12691" lon="-4.906445">
        <ele>497.0</ele>
        <time>2018-10-06T07:21:50.000Z</time>
      </trkpt>
      <trkpt lat="38.12691" lon="-4.906445">
        <ele>497.0</ele>
        <time>2018-10-06T07:21:51.000Z</time>
      </trkpt>
      <trkpt lat="38.12691" lon="-4.906445">
        <ele>497.0</ele>
        <time>2018-10-06T07:21:52.000Z</time>
      </trkpt>
      <trkpt lat="38.12691" lon="-4.906445">
        <ele>497.0</ele>
        <time>2018-10-06T07:21:53.000Z</time>
      </trkpt>
      <trkpt lat="38.12691" lon="-4.906445">
        <ele>497.0</ele>
        <time>2018-10-06T07:21:54.000Z</time>
      </trkpt>
      <trkpt lat="38.12691" lon="-4.906445">
        <ele>497.0</ele>
        <time>2018-10-06T07:21:55.000Z</time>
      </trkpt>
      <trkpt lat="38.12691" lon="-4.906445">
        <ele>497.0</ele>
        <time>2018-10-06T07:21:56.000Z</time>
      </trkpt>
      <trkpt lat="38.12691" lon="-4.906445">
        <ele>497.0</ele>
        <time>2018-10-06T07:21:57.000Z</time>
      </trkpt>
      <trkpt lat="38.12691" lon="-4.906445">
        <ele>497.0</ele>
        <time>2018-10-06T07:21:58.000Z</time>
      </trkpt>
      <trkpt lat="38.12691" lon="-4.906445">
        <ele>497.0</ele>
        <time>2018-10-06T07:21:59.000Z</time>
      </trkpt>
      <trkpt lat="38.12691" lon="-4.906445">
        <ele>497.0</ele>
        <time>2018-10-06T07:22:00.000Z</time>
      </trkpt>
      <trkpt lat="38.12691" lon="-4.906445">
        <ele>497.0</ele>
        <time>2018-10-06T07:22:01.000Z</time>
      </trkpt>
      <trkpt lat="38.12691" lon="-4.906445">
        <ele>497.0</ele>
        <time>2018-10-06T07:22:02.000Z</time>
      </trkpt>
      <trkpt lat="38.12692167" lon="-4.907085">
        <ele>503.0</ele>
        <time>2018-10-06T07:22:03.000Z</time>
      </trkpt>
      <trkpt lat="38.12691667" lon="-4.90709167">
        <ele>503.0</ele>
        <time>2018-10-06T07:22:04.000Z</time>
      </trkpt>
      <trkpt lat="38.12691667" lon="-4.907095">
        <ele>503.0</ele>
        <time>2018-10-06T07:22:05.000Z</time>
      </trkpt>
      <trkpt lat="38.126915" lon="-4.90710667">
        <ele>503.0</ele>
        <time>2018-10-06T07:22:06.000Z</time>
      </trkpt>
      <trkpt lat="38.12691333" lon="-4.907115">
        <ele>504.0</ele>
        <time>2018-10-06T07:22:07.000Z</time>
      </trkpt>
      <trkpt lat="38.12691167" lon="-4.90712833">
        <ele>504.0</ele>
        <time>2018-10-06T07:22:08.000Z</time>
      </trkpt>
      <trkpt lat="38.12691" lon="-4.90714167">
        <ele>504.0</ele>
        <time>2018-10-06T07:22:09.000Z</time>
      </trkpt>
      <trkpt lat="38.12690833" lon="-4.907155">
        <ele>504.0</ele>
        <time>2018-10-06T07:22:10.000Z</time>
      </trkpt>
      <trkpt lat="38.12690833" lon="-4.90717167">
        <ele>504.0</ele>
        <time>2018-10-06T07:22:11.000Z</time>
      </trkpt>
      <trkpt lat="38.12691" lon="-4.90719">
        <ele>503.0</ele>
        <time>2018-10-06T07:22:12.000Z</time>
      </trkpt>
      <trkpt lat="38.126915" lon="-4.90720667">
        <ele>503.0</ele>
        <time>2018-10-06T07:22:13.000Z</time>
      </trkpt>
      <trkpt lat="38.12692" lon="-4.907225">
        <ele>503.0</ele>
        <time>2018-10-06T07:22:14.000Z</time>
      </trkpt>
      <trkpt lat="38.12692" lon="-4.907225">
        <ele>503.0</ele>
        <time>2018-10-06T07:22:15.000Z</time>
      </trkpt>
      <trkpt lat="38.12692" lon="-4.907225">
        <ele>503.0</ele>
        <time>2018-10-06T07:22:16.000Z</time>
      </trkpt>
      <trkpt lat="38.12692" lon="-4.907225">
        <ele>503.0</ele>
        <time>2018-10-06T07:22:17.000Z</time>
      </trkpt>
      <trkpt lat="38.12692" lon="-4.907225">
        <ele>503.0</ele>
        <time>2018-10-06T07:22:18.000Z</time>
      </trkpt>
      <trkpt lat="38.12692" lon="-4.907225">
        <ele>503.0</ele>
        <time>2018-10-06T07:22:19.000Z</time>
      </trkpt>
      <trkpt lat="38.12692" lon="-4.907225">
        <ele>503.0</ele>
        <time>2018-10-06T07:22:20.000Z</time>
      </trkpt>
      <trkpt lat="38.12692" lon="-4.907225">
        <ele>503.0</ele>
        <time>2018-10-06T07:22:21.000Z</time>
      </trkpt>
      <trkpt lat="38.12692" lon="-4.907225">
        <ele>503.0</ele>
        <time>2018-10-06T07:22:22.000Z</time>
      </trkpt>
      <trkpt lat="38.12692" lon="-4.907225">
        <ele>503.0</ele>
        <time>2018-10-06T07:22:23.000Z</time>
      </trkpt>
      <trkpt lat="38.12692" lon="-4.907225">
        <ele>503.0</ele>
        <time>2018-10-06T07:22:24.000Z</time>
      </trkpt>
      <trkpt lat="38.12692" lon="-4.907225">
        <ele>503.0</ele>
        <time>2018-10-06T07:22:25.000Z</time>
      </trkpt>
      <trkpt lat="38.12692" lon="-4.907225">
        <ele>503.0</ele>
        <time>2018-10-06T07:22:26.000Z</time>
      </trkpt>
      <trkpt lat="38.12692" lon="-4.907225">
        <ele>503.0</ele>
        <time>2018-10-06T07:22:27.000Z</time>
      </trkpt>
      <trkpt lat="38.12692" lon="-4.907225">
        <ele>503.0</ele>
        <time>2018-10-06T07:22:28.000Z</time>
      </trkpt>
      <trkpt lat="38.12692" lon="-4.907225">
        <ele>503.0</ele>
        <time>2018-10-06T07:22:29.000Z</time>
      </trkpt>
      <trkpt lat="38.12692" lon="-4.907225">
        <ele>503.0</ele>
        <time>2018-10-06T07:22:30.000Z</time>
      </trkpt>
      <trkpt lat="38.12692" lon="-4.907225">
        <ele>503.0</ele>
        <time>2018-10-06T07:22:31.000Z</time>
      </trkpt>
      <trkpt lat="38.12692" lon="-4.907225">
        <ele>503.0</ele>
        <time>2018-10-06T07:22:32.000Z</time>
      </trkpt>
      <trkpt lat="38.12692" lon="-4.907225">
        <ele>503.0</ele>
        <time>2018-10-06T07:22:33.000Z</time>
      </trkpt>
      <trkpt lat="38.12692" lon="-4.907225">
        <ele>503.0</ele>
        <time>2018-10-06T07:22:34.000Z</time>
      </trkpt>
      <trkpt lat="38.12692" lon="-4.907225">
        <ele>503.0</ele>
        <time>2018-10-06T07:22:35.000Z</time>
      </trkpt>
      <trkpt lat="38.12692" lon="-4.907225">
        <ele>503.0</ele>
        <time>2018-10-06T07:22:36.000Z</time>
      </trkpt>
      <trkpt lat="38.12692" lon="-4.907225">
        <ele>503.0</ele>
        <time>2018-10-06T07:22:37.000Z</time>
      </trkpt>
      <trkpt lat="38.12692" lon="-4.907225">
        <ele>503.0</ele>
        <time>2018-10-06T07:22:38.000Z</time>
      </trkpt>
      <trkpt lat="38.12692" lon="-4.907225">
        <ele>503.0</ele>
        <time>2018-10-06T07:22:39.000Z</time>
      </trkpt>
      <trkpt lat="38.12692" lon="-4.907225">
        <ele>503.0</ele>
        <time>2018-10-06T07:22:40.000Z</time>
      </trkpt>
      <trkpt lat="38.12692" lon="-4.907225">
        <ele>503.0</ele>
        <time>2018-10-06T07:22:41.000Z</time>
      </trkpt>
      <trkpt lat="38.12692" lon="-4.907225">
        <ele>503.0</ele>
        <time>2018-10-06T07:22:42.000Z</time>
      </trkpt>
      <trkpt lat="38.12692" lon="-4.907225">
        <ele>503.0</ele>
        <time>2018-10-06T07:22:43.000Z</time>
      </trkpt>
      <trkpt lat="38.12692" lon="-4.907225">
        <ele>503.0</ele>
        <time>2018-10-06T07:22:44.000Z</time>
      </trkpt>
      <trkpt lat="38.12692" lon="-4.907225">
        <ele>503.0</ele>
        <time>2018-10-06T07:22:45.000Z</time>
      </trkpt>
      <trkpt lat="38.12692" lon="-4.907225">
        <ele>503.0</ele>
        <time>2018-10-06T07:22:46.000Z</time>
      </trkpt>
      <trkpt lat="38.12692" lon="-4.907225">
        <ele>503.0</ele>
        <time>2018-10-06T07:22:47.000Z</time>
      </trkpt>
      <trkpt lat="38.12692" lon="-4.907225">
        <ele>503.0</ele>
        <time>2018-10-06T07:22:48.000Z</time>
      </trkpt>
      <trkpt lat="38.12692" lon="-4.907225">
        <ele>503.0</ele>
        <time>2018-10-06T07:22:49.000Z</time>
      </trkpt>
      <trkpt lat="38.12692" lon="-4.907225">
        <ele>503.0</ele>
        <time>2018-10-06T07:22:50.000Z</time>
      </trkpt>
      <trkpt lat="38.12692" lon="-4.907225">
        <ele>503.0</ele>
        <time>2018-10-06T07:22:51.000Z</time>
      </trkpt>
      <trkpt lat="38.12692" lon="-4.907225">
        <ele>503.0</ele>
        <time>2018-10-06T07:22:52.000Z</time>
      </trkpt>
      <trkpt lat="38.12692" lon="-4.907225">
        <ele>503.0</ele>
        <time>2018-10-06T07:22:53.000Z</time>
      </trkpt>
      <trkpt lat="38.12692" lon="-4.907225">
        <ele>503.0</ele>
        <time>2018-10-06T07:22:54.000Z</time>
      </trkpt>
      <trkpt lat="38.12692" lon="-4.907225">
        <ele>503.0</ele>
        <time>2018-10-06T07:22:55.000Z</time>
      </trkpt>
      <trkpt lat="38.12692" lon="-4.907225">
        <ele>503.0</ele>
        <time>2018-10-06T07:22:56.000Z</time>
      </trkpt>
      <trkpt lat="38.12692" lon="-4.907225">
        <ele>503.0</ele>
        <time>2018-10-06T07:22:57.000Z</time>
      </trkpt>
      <trkpt lat="38.12692" lon="-4.907225">
        <ele>503.0</ele>
        <time>2018-10-06T07:22:58.000Z</time>
      </trkpt>
      <trkpt lat="38.12692" lon="-4.907225">
        <ele>503.0</ele>
        <time>2018-10-06T07:22:59.000Z</time>
      </trkpt>
      <trkpt lat="38.12692" lon="-4.907225">
        <ele>503.0</ele>
        <time>2018-10-06T07:23:00.000Z</time>
      </trkpt>
      <trkpt lat="38.12692" lon="-4.907225">
        <ele>503.0</ele>
        <time>2018-10-06T07:23:01.000Z</time>
      </trkpt>
      <trkpt lat="38.12692" lon="-4.907225">
        <ele>503.0</ele>
        <time>2018-10-06T07:23:02.000Z</time>
      </trkpt>
      <trkpt lat="38.12718167" lon="-4.90752667">
        <ele>489.0</ele>
        <time>2018-10-06T07:23:03.000Z</time>
      </trkpt>
      <trkpt lat="38.12719167" lon="-4.90753667">
        <ele>489.0</ele>
        <time>2018-10-06T07:23:04.000Z</time>
      </trkpt>
      <trkpt lat="38.12720167" lon="-4.90755667">
        <ele>489.0</ele>
        <time>2018-10-06T07:23:05.000Z</time>
      </trkpt>
      <trkpt lat="38.12721333" lon="-4.90757833">
        <ele>490.0</ele>
        <time>2018-10-06T07:23:06.000Z</time>
      </trkpt>
      <trkpt lat="38.12722833" lon="-4.90759667">
        <ele>490.0</ele>
        <time>2018-10-06T07:23:07.000Z</time>
      </trkpt>
      <trkpt lat="38.12724333" lon="-4.907615">
        <ele>490.0</ele>
        <time>2018-10-06T07:23:08.000Z</time>
      </trkpt>
      <trkpt lat="38.127255" lon="-4.90763167">
        <ele>490.0</ele>
        <time>2018-10-06T07:23:09.000Z</time>
      </trkpt>
      <trkpt lat="38.127265" lon="-4.90764667">
        <ele>490.0</ele>
        <time>2018-10-06T07:23:10.000Z</time>
      </trkpt>
      <trkpt lat="38.12727333" lon="-4.90766167">
        <ele>491.0</ele>
        <time>2018-10-06T07:23:11.000Z</time>
      </trkpt>
      <trkpt lat="38.12728167" lon="-4.90767667">
        <ele>491.0</ele>
        <time>2018-10-06T07:23:12.000Z</time>
      </trkpt>
      <trkpt lat="38.12728833" lon="-4.90769167">
        <ele>491.0</ele>
        <time>2018-10-06T07:23:13.000Z</time>
      </trkpt>
      <trkpt lat="38.127295" lon="-4.90770833">
        <ele>491.0</ele>
        <time>2018-10-06T07:23:14.000Z</time>
      </trkpt>
      <trkpt lat="38.127295" lon="-4.90770833">
        <ele>491.0</ele>
        <time>2018-10-06T07:23:15.000Z</time>
      </trkpt>
      <trkpt lat="38.127295" lon="-4.90770833">
        <ele>491.0</ele>
        <time>2018-10-06T07:23:16.000Z</time>
      </trkpt>
      <trkpt lat="38.127295" lon="-4.90770833">
        <ele>491.0</ele>
        <time>2018-10-06T07:23:17.000Z</time>
      </trkpt>
      <trkpt lat="38.127295" lon="-4.90770833">
        <ele>491.0</ele>
        <time>2018-10-06T07:23:18.000Z</time>
      </trkpt>
      <trkpt lat="38.127295" lon="-4.90770833">
        <ele>491.0</ele>
        <time>2018-10-06T07:23:19.000Z</time>
      </trkpt>
      <trkpt lat="38.127295" lon="-4.90770833">
        <ele>491.0</ele>
        <time>2018-10-06T07:23:20.000Z</time>
      </trkpt>
      <trkpt lat="38.127295" lon="-4.90770833">
        <ele>491.0</ele>
        <time>2018-10-06T07:23:21.000Z</time>
      </trkpt>
      <trkpt lat="38.127295" lon="-4.90770833">
        <ele>491.0</ele>
        <time>2018-10-06T07:23:22.000Z</time>
      </trkpt>
      <trkpt lat="38.127295" lon="-4.90770833">
        <ele>491.0</ele>
        <time>2018-10-06T07:23:23.000Z</time>
      </trkpt>
      <trkpt lat="38.127295" lon="-4.90770833">
        <ele>491.0</ele>
        <time>2018-10-06T07:23:24.000Z</time>
      </trkpt>
      <trkpt lat="38.127295" lon="-4.90770833">
        <ele>491.0</ele>
        <time>2018-10-06T07:23:25.000Z</time>
      </trkpt>
      <trkpt lat="38.127295" lon="-4.90770833">
        <ele>491.0</ele>
        <time>2018-10-06T07:23:26.000Z</time>
      </trkpt>
      <trkpt lat="38.127295" lon="-4.90770833">
        <ele>491.0</ele>
        <time>2018-10-06T07:23:27.000Z</time>
      </trkpt>
      <trkpt lat="38.127295" lon="-4.90770833">
        <ele>491.0</ele>
        <time>2018-10-06T07:23:28.000Z</time>
      </trkpt>
      <trkpt lat="38.127295" lon="-4.90770833">
        <ele>491.0</ele>
        <time>2018-10-06T07:23:29.000Z</time>
      </trkpt>
      <trkpt lat="38.127295" lon="-4.90770833">
        <ele>491.0</ele>
        <time>2018-10-06T07:23:30.000Z</time>
      </trkpt>
      <trkpt lat="38.127295" lon="-4.90770833">
        <ele>491.0</ele>
        <time>2018-10-06T07:23:31.000Z</time>
      </trkpt>
      <trkpt lat="38.127295" lon="-4.90770833">
        <ele>491.0</ele>
        <time>2018-10-06T07:23:32.000Z</time>
      </trkpt>
      <trkpt lat="38.127295" lon="-4.90770833">
        <ele>491.0</ele>
        <time>2018-10-06T07:23:33.000Z</time>
      </trkpt>
      <trkpt lat="38.127295" lon="-4.90770833">
        <ele>491.0</ele>
        <time>2018-10-06T07:23:34.000Z</time>
      </trkpt>
      <trkpt lat="38.127295" lon="-4.90770833">
        <ele>491.0</ele>
        <time>2018-10-06T07:23:35.000Z</time>
      </trkpt>
      <trkpt lat="38.127295" lon="-4.90770833">
        <ele>491.0</ele>
        <time>2018-10-06T07:23:36.000Z</time>
      </trkpt>
      <trkpt lat="38.127295" lon="-4.90770833">
        <ele>491.0</ele>
        <time>2018-10-06T07:23:37.000Z</time>
      </trkpt>
      <trkpt lat="38.127295" lon="-4.90770833">
        <ele>491.0</ele>
        <time>2018-10-06T07:23:38.000Z</time>
      </trkpt>
      <trkpt lat="38.127295" lon="-4.90770833">
        <ele>491.0</ele>
        <time>2018-10-06T07:23:39.000Z</time>
      </trkpt>
      <trkpt lat="38.127295" lon="-4.90770833">
        <ele>491.0</ele>
        <time>2018-10-06T07:23:40.000Z</time>
      </trkpt>
      <trkpt lat="38.127295" lon="-4.90770833">
        <ele>491.0</ele>
        <time>2018-10-06T07:23:41.000Z</time>
      </trkpt>
      <trkpt lat="38.127295" lon="-4.90770833">
        <ele>491.0</ele>
        <time>2018-10-06T07:23:42.000Z</time>
      </trkpt>
      <trkpt lat="38.127295" lon="-4.90770833">
        <ele>491.0</ele>
        <time>2018-10-06T07:23:43.000Z</time>
      </trkpt>
      <trkpt lat="38.127295" lon="-4.90770833">
        <ele>491.0</ele>
        <time>2018-10-06T07:23:44.000Z</time>
      </trkpt>
      <trkpt lat="38.127295" lon="-4.90770833">
        <ele>491.0</ele>
        <time>2018-10-06T07:23:45.000Z</time>
      </trkpt>
      <trkpt lat="38.127295" lon="-4.90770833">
        <ele>491.0</ele>
        <time>2018-10-06T07:23:46.000Z</time>
      </trkpt>
      <trkpt lat="38.127295" lon="-4.90770833">
        <ele>491.0</ele>
        <time>2018-10-06T07:23:47.000Z</time>
      </trkpt>
      <trkpt lat="38.127295" lon="-4.90770833">
        <ele>491.0</ele>
        <time>2018-10-06T07:23:48.000Z</time>
      </trkpt>
      <trkpt lat="38.127295" lon="-4.90770833">
        <ele>491.0</ele>
        <time>2018-10-06T07:23:49.000Z</time>
      </trkpt>
      <trkpt lat="38.127295" lon="-4.90770833">
        <ele>491.0</ele>
        <time>2018-10-06T07:23:50.000Z</time>
      </trkpt>
      <trkpt lat="38.127295" lon="-4.90770833">
        <ele>491.0</ele>
        <time>2018-10-06T07:23:51.000Z</time>
      </trkpt>
      <trkpt lat="38.127295" lon="-4.90770833">
        <ele>491.0</ele>
        <time>2018-10-06T07:23:52.000Z</time>
      </trkpt>
      <trkpt lat="38.127295" lon="-4.90770833">
        <ele>491.0</ele>
        <time>2018-10-06T07:23:53.000Z</time>
      </trkpt>
      <trkpt lat="38.127295" lon="-4.90770833">
        <ele>491.0</ele>
        <time>2018-10-06T07:23:54.000Z</time>
      </trkpt>
      <trkpt lat="38.127295" lon="-4.90770833">
        <ele>491.0</ele>
        <time>2018-10-06T07:23:55.000Z</time>
      </trkpt>
      <trkpt lat="38.127295" lon="-4.90770833">
        <ele>491.0</ele>
        <time>2018-10-06T07:23:56.000Z</time>
      </trkpt>
      <trkpt lat="38.127295" lon="-4.90770833">
        <ele>491.0</ele>
        <time>2018-10-06T07:23:57.000Z</time>
      </trkpt>
      <trkpt lat="38.127295" lon="-4.90770833">
        <ele>491.0</ele>
        <time>2018-10-06T07:23:58.000Z</time>
      </trkpt>
      <trkpt lat="38.127295" lon="-4.90770833">
        <ele>491.0</ele>
        <time>2018-10-06T07:23:59.000Z</time>
      </trkpt>
      <trkpt lat="38.127295" lon="-4.90770833">
        <ele>491.0</ele>
        <time>2018-10-06T07:24:00.000Z</time>
      </trkpt>
      <trkpt lat="38.127295" lon="-4.90770833">
        <ele>491.0</ele>
        <time>2018-10-06T07:24:01.000Z</time>
      </trkpt>
      <trkpt lat="38.127295" lon="-4.90770833">
        <ele>491.0</ele>
        <time>2018-10-06T07:24:02.000Z</time>
      </trkpt>
      <trkpt lat="38.127295" lon="-4.90770833">
        <ele>491.0</ele>
        <time>2018-10-06T07:24:03.000Z</time>
      </trkpt>
      <trkpt lat="38.12753667" lon="-4.908265">
        <ele>488.0</ele>
        <time>2018-10-06T07:24:04.000Z</time>
      </trkpt>
      <trkpt lat="38.12753" lon="-4.90832333">
        <ele>488.0</ele>
        <time>2018-10-06T07:24:05.000Z</time>
      </trkpt>
      <trkpt lat="38.12751667" lon="-4.90836167">
        <ele>488.0</ele>
        <time>2018-10-06T07:24:06.000Z</time>
      </trkpt>
      <trkpt lat="38.12751167" lon="-4.90838333">
        <ele>488.0</ele>
        <time>2018-10-06T07:24:07.000Z</time>
      </trkpt>
      <trkpt lat="38.12750833" lon="-4.908405">
        <ele>488.0</ele>
        <time>2018-10-06T07:24:08.000Z</time>
      </trkpt>
      <trkpt lat="38.12750333" lon="-4.908425">
        <ele>488.0</ele>
        <time>2018-10-06T07:24:09.000Z</time>
      </trkpt>
      <trkpt lat="38.12749833" lon="-4.90844833">
        <ele>488.0</ele>
        <time>2018-10-06T07:24:10.000Z</time>
      </trkpt>
      <trkpt lat="38.12749667" lon="-4.90846833">
        <ele>489.0</ele>
        <time>2018-10-06T07:24:11.000Z</time>
      </trkpt>
      <trkpt lat="38.127495" lon="-4.90849">
        <ele>489.0</ele>
        <time>2018-10-06T07:24:12.000Z</time>
      </trkpt>
      <trkpt lat="38.12749333" lon="-4.90851167">
        <ele>489.0</ele>
        <time>2018-10-06T07:24:13.000Z</time>
      </trkpt>
      <trkpt lat="38.12749167" lon="-4.90853167">
        <ele>490.0</ele>
        <time>2018-10-06T07:24:14.000Z</time>
      </trkpt>
      <trkpt lat="38.12749167" lon="-4.90853167">
        <ele>490.0</ele>
        <time>2018-10-06T07:24:15.000Z</time>
      </trkpt>
      <trkpt lat="38.12749167" lon="-4.90853167">
        <ele>490.0</ele>
        <time>2018-10-06T07:24:16.000Z</time>
      </trkpt>
      <trkpt lat="38.12749167" lon="-4.90853167">
        <ele>490.0</ele>
        <time>2018-10-06T07:24:17.000Z</time>
      </trkpt>
      <trkpt lat="38.12749167" lon="-4.90853167">
        <ele>490.0</ele>
        <time>2018-10-06T07:24:18.000Z</time>
      </trkpt>
      <trkpt lat="38.12749167" lon="-4.90853167">
        <ele>490.0</ele>
        <time>2018-10-06T07:24:19.000Z</time>
      </trkpt>
      <trkpt lat="38.12749167" lon="-4.90853167">
        <ele>490.0</ele>
        <time>2018-10-06T07:24:20.000Z</time>
      </trkpt>
      <trkpt lat="38.12749167" lon="-4.90853167">
        <ele>490.0</ele>
        <time>2018-10-06T07:24:21.000Z</time>
      </trkpt>
      <trkpt lat="38.12749167" lon="-4.90853167">
        <ele>490.0</ele>
        <time>2018-10-06T07:24:22.000Z</time>
      </trkpt>
      <trkpt lat="38.12749167" lon="-4.90853167">
        <ele>490.0</ele>
        <time>2018-10-06T07:24:23.000Z</time>
      </trkpt>
      <trkpt lat="38.12749167" lon="-4.90853167">
        <ele>490.0</ele>
        <time>2018-10-06T07:24:24.000Z</time>
      </trkpt>
      <trkpt lat="38.12749167" lon="-4.90853167">
        <ele>490.0</ele>
        <time>2018-10-06T07:24:25.000Z</time>
      </trkpt>
      <trkpt lat="38.12749167" lon="-4.90853167">
        <ele>490.0</ele>
        <time>2018-10-06T07:24:26.000Z</time>
      </trkpt>
      <trkpt lat="38.12749167" lon="-4.90853167">
        <ele>490.0</ele>
        <time>2018-10-06T07:24:27.000Z</time>
      </trkpt>
      <trkpt lat="38.12749167" lon="-4.90853167">
        <ele>490.0</ele>
        <time>2018-10-06T07:24:28.000Z</time>
      </trkpt>
      <trkpt lat="38.12749167" lon="-4.90853167">
        <ele>490.0</ele>
        <time>2018-10-06T07:24:29.000Z</time>
      </trkpt>
      <trkpt lat="38.12749167" lon="-4.90853167">
        <ele>490.0</ele>
        <time>2018-10-06T07:24:30.000Z</time>
      </trkpt>
      <trkpt lat="38.12749167" lon="-4.90853167">
        <ele>490.0</ele>
        <time>2018-10-06T07:24:31.000Z</time>
      </trkpt>
      <trkpt lat="38.12749167" lon="-4.90853167">
        <ele>490.0</ele>
        <time>2018-10-06T07:24:32.000Z</time>
      </trkpt>
      <trkpt lat="38.12749167" lon="-4.90853167">
        <ele>490.0</ele>
        <time>2018-10-06T07:24:33.000Z</time>
      </trkpt>
      <trkpt lat="38.12749167" lon="-4.90853167">
        <ele>490.0</ele>
        <time>2018-10-06T07:24:34.000Z</time>
      </trkpt>
      <trkpt lat="38.12749167" lon="-4.90853167">
        <ele>490.0</ele>
        <time>2018-10-06T07:24:35.000Z</time>
      </trkpt>
      <trkpt lat="38.12749167" lon="-4.90853167">
        <ele>490.0</ele>
        <time>2018-10-06T07:24:36.000Z</time>
      </trkpt>
      <trkpt lat="38.12749167" lon="-4.90853167">
        <ele>490.0</ele>
        <time>2018-10-06T07:24:37.000Z</time>
      </trkpt>
      <trkpt lat="38.12749167" lon="-4.90853167">
        <ele>490.0</ele>
        <time>2018-10-06T07:24:38.000Z</time>
      </trkpt>
      <trkpt lat="38.12749167" lon="-4.90853167">
        <ele>490.0</ele>
        <time>2018-10-06T07:24:39.000Z</time>
      </trkpt>
      <trkpt lat="38.12749167" lon="-4.90853167">
        <ele>490.0</ele>
        <time>2018-10-06T07:24:40.000Z</time>
      </trkpt>
      <trkpt lat="38.12749167" lon="-4.90853167">
        <ele>490.0</ele>
        <time>2018-10-06T07:24:41.000Z</time>
      </trkpt>
      <trkpt lat="38.12749167" lon="-4.90853167">
        <ele>490.0</ele>
        <time>2018-10-06T07:24:42.000Z</time>
      </trkpt>
      <trkpt lat="38.12749167" lon="-4.90853167">
        <ele>490.0</ele>
        <time>2018-10-06T07:24:43.000Z</time>
      </trkpt>
      <trkpt lat="38.12749167" lon="-4.90853167">
        <ele>490.0</ele>
        <time>2018-10-06T07:24:44.000Z</time>
      </trkpt>
      <trkpt lat="38.12749167" lon="-4.90853167">
        <ele>490.0</ele>
        <time>2018-10-06T07:24:45.000Z</time>
      </trkpt>
      <trkpt lat="38.12749167" lon="-4.90853167">
        <ele>490.0</ele>
        <time>2018-10-06T07:24:46.000Z</time>
      </trkpt>
      <trkpt lat="38.12749167" lon="-4.90853167">
        <ele>490.0</ele>
        <time>2018-10-06T07:24:47.000Z</time>
      </trkpt>
      <trkpt lat="38.12749167" lon="-4.90853167">
        <ele>490.0</ele>
        <time>2018-10-06T07:24:48.000Z</time>
      </trkpt>
      <trkpt lat="38.12749167" lon="-4.90853167">
        <ele>490.0</ele>
        <time>2018-10-06T07:24:49.000Z</time>
      </trkpt>
      <trkpt lat="38.12749167" lon="-4.90853167">
        <ele>490.0</ele>
        <time>2018-10-06T07:24:50.000Z</time>
      </trkpt>
      <trkpt lat="38.12749167" lon="-4.90853167">
        <ele>490.0</ele>
        <time>2018-10-06T07:24:51.000Z</time>
      </trkpt>
      <trkpt lat="38.12749167" lon="-4.90853167">
        <ele>490.0</ele>
        <time>2018-10-06T07:24:52.000Z</time>
      </trkpt>
      <trkpt lat="38.12749167" lon="-4.90853167">
        <ele>490.0</ele>
        <time>2018-10-06T07:24:53.000Z</time>
      </trkpt>
      <trkpt lat="38.12749167" lon="-4.90853167">
        <ele>490.0</ele>
        <time>2018-10-06T07:24:54.000Z</time>
      </trkpt>
      <trkpt lat="38.12749167" lon="-4.90853167">
        <ele>490.0</ele>
        <time>2018-10-06T07:24:55.000Z</time>
      </trkpt>
      <trkpt lat="38.12749167" lon="-4.90853167">
        <ele>490.0</ele>
        <time>2018-10-06T07:24:56.000Z</time>
      </trkpt>
      <trkpt lat="38.12749167" lon="-4.90853167">
        <ele>490.0</ele>
        <time>2018-10-06T07:24:57.000Z</time>
      </trkpt>
      <trkpt lat="38.12749167" lon="-4.90853167">
        <ele>490.0</ele>
        <time>2018-10-06T07:24:58.000Z</time>
      </trkpt>
      <trkpt lat="38.12749167" lon="-4.90853167">
        <ele>490.0</ele>
        <time>2018-10-06T07:24:59.000Z</time>
      </trkpt>
      <trkpt lat="38.12749167" lon="-4.90853167">
        <ele>490.0</ele>
        <time>2018-10-06T07:25:00.000Z</time>
      </trkpt>
      <trkpt lat="38.12749167" lon="-4.90853167">
        <ele>490.0</ele>
        <time>2018-10-06T07:25:01.000Z</time>
      </trkpt>
      <trkpt lat="38.12749167" lon="-4.90853167">
        <ele>490.0</ele>
        <time>2018-10-06T07:25:02.000Z</time>
      </trkpt>
      <trkpt lat="38.12749167" lon="-4.90853167">
        <ele>490.0</ele>
        <time>2018-10-06T07:25:03.000Z</time>
      </trkpt>
      <trkpt lat="38.12758667" lon="-4.90925833">
        <ele>493.0</ele>
        <time>2018-10-06T07:25:04.000Z</time>
      </trkpt>
      <trkpt lat="38.12759333" lon="-4.90927833">
        <ele>494.0</ele>
        <time>2018-10-06T07:25:05.000Z</time>
      </trkpt>
      <trkpt lat="38.12759667" lon="-4.90929333">
        <ele>494.0</ele>
        <time>2018-10-06T07:25:06.000Z</time>
      </trkpt>
      <trkpt lat="38.12759833" lon="-4.90931167">
        <ele>494.0</ele>
        <time>2018-10-06T07:25:07.000Z</time>
      </trkpt>
      <trkpt lat="38.12760167" lon="-4.90933167">
        <ele>495.0</ele>
        <time>2018-10-06T07:25:08.000Z</time>
      </trkpt>
      <trkpt lat="38.12760333" lon="-4.90935167">
        <ele>495.0</ele>
        <time>2018-10-06T07:25:09.000Z</time>
      </trkpt>
      <trkpt lat="38.12761" lon="-4.90936833">
        <ele>495.0</ele>
        <time>2018-10-06T07:25:10.000Z</time>
      </trkpt>
      <trkpt lat="38.12761333" lon="-4.909385">
        <ele>495.0</ele>
        <time>2018-10-06T07:25:11.000Z</time>
      </trkpt>
      <trkpt lat="38.12761667" lon="-4.90940167">
        <ele>495.0</ele>
        <time>2018-10-06T07:25:12.000Z</time>
      </trkpt>
      <trkpt lat="38.127615" lon="-4.90941333">
        <ele>494.0</ele>
        <time>2018-10-06T07:25:13.000Z</time>
      </trkpt>
      <trkpt lat="38.12761333" lon="-4.909425">
        <ele>494.0</ele>
        <time>2018-10-06T07:25:14.000Z</time>
      </trkpt>
      <trkpt lat="38.12761667" lon="-4.90944">
        <ele>494.0</ele>
        <time>2018-10-06T07:25:15.000Z</time>
      </trkpt>
      <trkpt lat="38.12761667" lon="-4.90944">
        <ele>494.0</ele>
        <time>2018-10-06T07:25:16.000Z</time>
      </trkpt>
      <trkpt lat="38.12761667" lon="-4.90944">
        <ele>494.0</ele>
        <time>2018-10-06T07:25:17.000Z</time>
      </trkpt>
      <trkpt lat="38.12761667" lon="-4.90944">
        <ele>494.0</ele>
        <time>2018-10-06T07:25:18.000Z</time>
      </trkpt>
      <trkpt lat="38.12761667" lon="-4.90944">
        <ele>494.0</ele>
        <time>2018-10-06T07:25:19.000Z</time>
      </trkpt>
      <trkpt lat="38.12761667" lon="-4.90944">
        <ele>494.0</ele>
        <time>2018-10-06T07:25:20.000Z</time>
      </trkpt>
      <trkpt lat="38.12761667" lon="-4.90944">
        <ele>494.0</ele>
        <time>2018-10-06T07:25:21.000Z</time>
      </trkpt>
      <trkpt lat="38.12761667" lon="-4.90944">
        <ele>494.0</ele>
        <time>2018-10-06T07:25:22.000Z</time>
      </trkpt>
      <trkpt lat="38.12761667" lon="-4.90944">
        <ele>494.0</ele>
        <time>2018-10-06T07:25:23.000Z</time>
      </trkpt>
      <trkpt lat="38.12761667" lon="-4.90944">
        <ele>494.0</ele>
        <time>2018-10-06T07:25:24.000Z</time>
      </trkpt>
      <trkpt lat="38.12761667" lon="-4.90944">
        <ele>494.0</ele>
        <time>2018-10-06T07:25:25.000Z</time>
      </trkpt>
      <trkpt lat="38.12761667" lon="-4.90944">
        <ele>494.0</ele>
        <time>2018-10-06T07:25:26.000Z</time>
      </trkpt>
      <trkpt lat="38.12761667" lon="-4.90944">
        <ele>494.0</ele>
        <time>2018-10-06T07:25:27.000Z</time>
      </trkpt>
      <trkpt lat="38.12761667" lon="-4.90944">
        <ele>494.0</ele>
        <time>2018-10-06T07:25:28.000Z</time>
      </trkpt>
      <trkpt lat="38.12761667" lon="-4.90944">
        <ele>494.0</ele>
        <time>2018-10-06T07:25:29.000Z</time>
      </trkpt>
      <trkpt lat="38.12761667" lon="-4.90944">
        <ele>494.0</ele>
        <time>2018-10-06T07:25:30.000Z</time>
      </trkpt>
      <trkpt lat="38.12761667" lon="-4.90944">
        <ele>494.0</ele>
        <time>2018-10-06T07:25:31.000Z</time>
      </trkpt>
      <trkpt lat="38.12761667" lon="-4.90944">
        <ele>494.0</ele>
        <time>2018-10-06T07:25:32.000Z</time>
      </trkpt>
      <trkpt lat="38.12761667" lon="-4.90944">
        <ele>494.0</ele>
        <time>2018-10-06T07:25:33.000Z</time>
      </trkpt>
      <trkpt lat="38.12761667" lon="-4.90944">
        <ele>494.0</ele>
        <time>2018-10-06T07:25:34.000Z</time>
      </trkpt>
      <trkpt lat="38.12761667" lon="-4.90944">
        <ele>494.0</ele>
        <time>2018-10-06T07:25:35.000Z</time>
      </trkpt>
      <trkpt lat="38.12761667" lon="-4.90944">
        <ele>494.0</ele>
        <time>2018-10-06T07:25:36.000Z</time>
      </trkpt>
      <trkpt lat="38.12761667" lon="-4.90944">
        <ele>494.0</ele>
        <time>2018-10-06T07:25:37.000Z</time>
      </trkpt>
      <trkpt lat="38.12761667" lon="-4.90944">
        <ele>494.0</ele>
        <time>2018-10-06T07:25:38.000Z</time>
      </trkpt>
      <trkpt lat="38.12761667" lon="-4.90944">
        <ele>494.0</ele>
        <time>2018-10-06T07:25:39.000Z</time>
      </trkpt>
      <trkpt lat="38.12761667" lon="-4.90944">
        <ele>494.0</ele>
        <time>2018-10-06T07:25:40.000Z</time>
      </trkpt>
      <trkpt lat="38.12761667" lon="-4.90944">
        <ele>494.0</ele>
        <time>2018-10-06T07:25:41.000Z</time>
      </trkpt>
      <trkpt lat="38.12761667" lon="-4.90944">
        <ele>494.0</ele>
        <time>2018-10-06T07:25:42.000Z</time>
      </trkpt>
      <trkpt lat="38.12761667" lon="-4.90944">
        <ele>494.0</ele>
        <time>2018-10-06T07:25:43.000Z</time>
      </trkpt>
      <trkpt lat="38.12761667" lon="-4.90944">
        <ele>494.0</ele>
        <time>2018-10-06T07:25:44.000Z</time>
      </trkpt>
      <trkpt lat="38.12761667" lon="-4.90944">
        <ele>494.0</ele>
        <time>2018-10-06T07:25:45.000Z</time>
      </trkpt>
      <trkpt lat="38.12761667" lon="-4.90944">
        <ele>494.0</ele>
        <time>2018-10-06T07:25:46.000Z</time>
      </trkpt>
      <trkpt lat="38.12761667" lon="-4.90944">
        <ele>494.0</ele>
        <time>2018-10-06T07:25:47.000Z</time>
      </trkpt>
      <trkpt lat="38.12761667" lon="-4.90944">
        <ele>494.0</ele>
        <time>2018-10-06T07:25:48.000Z</time>
      </trkpt>
      <trkpt lat="38.12761667" lon="-4.90944">
        <ele>494.0</ele>
        <time>2018-10-06T07:25:49.000Z</time>
      </trkpt>
      <trkpt lat="38.12761667" lon="-4.90944">
        <ele>494.0</ele>
        <time>2018-10-06T07:25:50.000Z</time>
      </trkpt>
      <trkpt lat="38.12761667" lon="-4.90944">
        <ele>494.0</ele>
        <time>2018-10-06T07:25:51.000Z</time>
      </trkpt>
      <trkpt lat="38.12761667" lon="-4.90944">
        <ele>494.0</ele>
        <time>2018-10-06T07:25:52.000Z</time>
      </trkpt>
      <trkpt lat="38.12761667" lon="-4.90944">
        <ele>494.0</ele>
        <time>2018-10-06T07:25:53.000Z</time>
      </trkpt>
      <trkpt lat="38.12761667" lon="-4.90944">
        <ele>494.0</ele>
        <time>2018-10-06T07:25:54.000Z</time>
      </trkpt>
      <trkpt lat="38.12761667" lon="-4.90944">
        <ele>494.0</ele>
        <time>2018-10-06T07:25:55.000Z</time>
      </trkpt>
      <trkpt lat="38.12761667" lon="-4.90944">
        <ele>494.0</ele>
        <time>2018-10-06T07:25:56.000Z</time>
      </trkpt>
      <trkpt lat="38.12761667" lon="-4.90944">
        <ele>494.0</ele>
        <time>2018-10-06T07:25:57.000Z</time>
      </trkpt>
      <trkpt lat="38.12761667" lon="-4.90944">
        <ele>494.0</ele>
        <time>2018-10-06T07:25:58.000Z</time>
      </trkpt>
      <trkpt lat="38.12761667" lon="-4.90944">
        <ele>494.0</ele>
        <time>2018-10-06T07:25:59.000Z</time>
      </trkpt>
      <trkpt lat="38.12761667" lon="-4.90944">
        <ele>494.0</ele>
        <time>2018-10-06T07:26:00.000Z</time>
      </trkpt>
      <trkpt lat="38.12761667" lon="-4.90944">
        <ele>494.0</ele>
        <time>2018-10-06T07:26:01.000Z</time>
      </trkpt>
      <trkpt lat="38.12761667" lon="-4.90944">
        <ele>494.0</ele>
        <time>2018-10-06T07:26:02.000Z</time>
      </trkpt>
      <trkpt lat="38.12761667" lon="-4.90944">
        <ele>494.0</ele>
        <time>2018-10-06T07:26:03.000Z</time>
      </trkpt>
      <trkpt lat="38.12784" lon="-4.909955">
        <ele>487.0</ele>
        <time>2018-10-06T07:26:04.000Z</time>
      </trkpt>
      <trkpt lat="38.12775167" lon="-4.910085">
        <ele>490.0</ele>
        <time>2018-10-06T07:26:05.000Z</time>
      </trkpt>
      <trkpt lat="38.12774833" lon="-4.91010167">
        <ele>489.0</ele>
        <time>2018-10-06T07:26:06.000Z</time>
      </trkpt>
      <trkpt lat="38.12774833" lon="-4.91011167">
        <ele>489.0</ele>
        <time>2018-10-06T07:26:07.000Z</time>
      </trkpt>
      <trkpt lat="38.12775" lon="-4.91012833">
        <ele>489.0</ele>
        <time>2018-10-06T07:26:08.000Z</time>
      </trkpt>
      <trkpt lat="38.12775" lon="-4.91014167">
        <ele>489.0</ele>
        <time>2018-10-06T07:26:09.000Z</time>
      </trkpt>
      <trkpt lat="38.12775" lon="-4.91016">
        <ele>490.0</ele>
        <time>2018-10-06T07:26:10.000Z</time>
      </trkpt>
      <trkpt lat="38.12775" lon="-4.910175">
        <ele>491.0</ele>
        <time>2018-10-06T07:26:11.000Z</time>
      </trkpt>
      <trkpt lat="38.12775333" lon="-4.91019333">
        <ele>491.0</ele>
        <time>2018-10-06T07:26:12.000Z</time>
      </trkpt>
      <trkpt lat="38.12775167" lon="-4.910215">
        <ele>492.0</ele>
        <time>2018-10-06T07:26:13.000Z</time>
      </trkpt>
      <trkpt lat="38.12774833" lon="-4.91023833">
        <ele>492.0</ele>
        <time>2018-10-06T07:26:14.000Z</time>
      </trkpt>
      <trkpt lat="38.12774833" lon="-4.91023833">
        <ele>492.0</ele>
        <time>2018-10-06T07:26:15.000Z</time>
      </trkpt>
      <trkpt lat="38.12774833" lon="-4.91023833">
        <ele>492.0</ele>
        <time>2018-10-06T07:26:16.000Z</time>
      </trkpt>
      <trkpt lat="38.12774833" lon="-4.91023833">
        <ele>492.0</ele>
        <time>2018-10-06T07:26:17.000Z</time>
      </trkpt>
      <trkpt lat="38.12774833" lon="-4.91023833">
        <ele>492.0</ele>
        <time>2018-10-06T07:26:18.000Z</time>
      </trkpt>
      <trkpt lat="38.12774833" lon="-4.91023833">
        <ele>492.0</ele>
        <time>2018-10-06T07:26:19.000Z</time>
      </trkpt>
      <trkpt lat="38.12774833" lon="-4.91023833">
        <ele>492.0</ele>
        <time>2018-10-06T07:26:20.000Z</time>
      </trkpt>
      <trkpt lat="38.12774833" lon="-4.91023833">
        <ele>492.0</ele>
        <time>2018-10-06T07:26:21.000Z</time>
      </trkpt>
      <trkpt lat="38.12774833" lon="-4.91023833">
        <ele>492.0</ele>
        <time>2018-10-06T07:26:22.000Z</time>
      </trkpt>
      <trkpt lat="38.12774833" lon="-4.91023833">
        <ele>492.0</ele>
        <time>2018-10-06T07:26:23.000Z</time>
      </trkpt>
      <trkpt lat="38.12774833" lon="-4.91023833">
        <ele>492.0</ele>
        <time>2018-10-06T07:26:24.000Z</time>
      </trkpt>
      <trkpt lat="38.12774833" lon="-4.91023833">
        <ele>492.0</ele>
        <time>2018-10-06T07:26:25.000Z</time>
      </trkpt>
      <trkpt lat="38.12774833" lon="-4.91023833">
        <ele>492.0</ele>
        <time>2018-10-06T07:26:26.000Z</time>
      </trkpt>
      <trkpt lat="38.12774833" lon="-4.91023833">
        <ele>492.0</ele>
        <time>2018-10-06T07:26:27.000Z</time>
      </trkpt>
      <trkpt lat="38.12774833" lon="-4.91023833">
        <ele>492.0</ele>
        <time>2018-10-06T07:26:28.000Z</time>
      </trkpt>
      <trkpt lat="38.12774833" lon="-4.91023833">
        <ele>492.0</ele>
        <time>2018-10-06T07:26:29.000Z</time>
      </trkpt>
      <trkpt lat="38.12774833" lon="-4.91023833">
        <ele>492.0</ele>
        <time>2018-10-06T07:26:30.000Z</time>
      </trkpt>
      <trkpt lat="38.12774833" lon="-4.91023833">
        <ele>492.0</ele>
        <time>2018-10-06T07:26:31.000Z</time>
      </trkpt>
      <trkpt lat="38.12774833" lon="-4.91023833">
        <ele>492.0</ele>
        <time>2018-10-06T07:26:32.000Z</time>
      </trkpt>
      <trkpt lat="38.12774833" lon="-4.91023833">
        <ele>492.0</ele>
        <time>2018-10-06T07:26:33.000Z</time>
      </trkpt>
      <trkpt lat="38.12774833" lon="-4.91023833">
        <ele>492.0</ele>
        <time>2018-10-06T07:26:34.000Z</time>
      </trkpt>
      <trkpt lat="38.12774833" lon="-4.91023833">
        <ele>492.0</ele>
        <time>2018-10-06T07:26:35.000Z</time>
      </trkpt>
      <trkpt lat="38.12774833" lon="-4.91023833">
        <ele>492.0</ele>
        <time>2018-10-06T07:26:36.000Z</time>
      </trkpt>
      <trkpt lat="38.12774833" lon="-4.91023833">
        <ele>492.0</ele>
        <time>2018-10-06T07:26:37.000Z</time>
      </trkpt>
      <trkpt lat="38.12774833" lon="-4.91023833">
        <ele>492.0</ele>
        <time>2018-10-06T07:26:38.000Z</time>
      </trkpt>
      <trkpt lat="38.12774833" lon="-4.91023833">
        <ele>492.0</ele>
        <time>2018-10-06T07:26:39.000Z</time>
      </trkpt>
      <trkpt lat="38.12774833" lon="-4.91023833">
        <ele>492.0</ele>
        <time>2018-10-06T07:26:40.000Z</time>
      </trkpt>
      <trkpt lat="38.12774833" lon="-4.91023833">
        <ele>492.0</ele>
        <time>2018-10-06T07:26:41.000Z</time>
      </trkpt>
      <trkpt lat="38.12774833" lon="-4.91023833">
        <ele>492.0</ele>
        <time>2018-10-06T07:26:42.000Z</time>
      </trkpt>
      <trkpt lat="38.12774833" lon="-4.91023833">
        <ele>492.0</ele>
        <time>2018-10-06T07:26:43.000Z</time>
      </trkpt>
      <trkpt lat="38.12774833" lon="-4.91023833">
        <ele>492.0</ele>
        <time>2018-10-06T07:26:44.000Z</time>
      </trkpt>
      <trkpt lat="38.12774833" lon="-4.91023833">
        <ele>492.0</ele>
        <time>2018-10-06T07:26:45.000Z</time>
      </trkpt>
      <trkpt lat="38.12774833" lon="-4.91023833">
        <ele>492.0</ele>
        <time>2018-10-06T07:26:46.000Z</time>
      </trkpt>
      <trkpt lat="38.12774833" lon="-4.91023833">
        <ele>492.0</ele>
        <time>2018-10-06T07:26:47.000Z</time>
      </trkpt>
      <trkpt lat="38.12774833" lon="-4.91023833">
        <ele>492.0</ele>
        <time>2018-10-06T07:26:48.000Z</time>
      </trkpt>
      <trkpt lat="38.12774833" lon="-4.91023833">
        <ele>492.0</ele>
        <time>2018-10-06T07:26:49.000Z</time>
      </trkpt>
      <trkpt lat="38.12774833" lon="-4.91023833">
        <ele>492.0</ele>
        <time>2018-10-06T07:26:50.000Z</time>
      </trkpt>
      <trkpt lat="38.12774833" lon="-4.91023833">
        <ele>492.0</ele>
        <time>2018-10-06T07:26:51.000Z</time>
      </trkpt>
      <trkpt lat="38.12774833" lon="-4.91023833">
        <ele>492.0</ele>
        <time>2018-10-06T07:26:52.000Z</time>
      </trkpt>
      <trkpt lat="38.12774833" lon="-4.91023833">
        <ele>492.0</ele>
        <time>2018-10-06T07:26:53.000Z</time>
      </trkpt>
      <trkpt lat="38.12774833" lon="-4.91023833">
        <ele>492.0</ele>
        <time>2018-10-06T07:26:54.000Z</time>
      </trkpt>
      <trkpt lat="38.12774833" lon="-4.91023833">
        <ele>492.0</ele>
        <time>2018-10-06T07:26:55.000Z</time>
      </trkpt>
      <trkpt lat="38.12774833" lon="-4.91023833">
        <ele>492.0</ele>
        <time>2018-10-06T07:26:56.000Z</time>
      </trkpt>
      <trkpt lat="38.12774833" lon="-4.91023833">
        <ele>492.0</ele>
        <time>2018-10-06T07:26:57.000Z</time>
      </trkpt>
      <trkpt lat="38.12774833" lon="-4.91023833">
        <ele>492.0</ele>
        <time>2018-10-06T07:26:58.000Z</time>
      </trkpt>
      <trkpt lat="38.12774833" lon="-4.91023833">
        <ele>492.0</ele>
        <time>2018-10-06T07:26:59.000Z</time>
      </trkpt>
      <trkpt lat="38.12774833" lon="-4.91023833">
        <ele>492.0</ele>
        <time>2018-10-06T07:27:00.000Z</time>
      </trkpt>
      <trkpt lat="38.12774833" lon="-4.91023833">
        <ele>492.0</ele>
        <time>2018-10-06T07:27:01.000Z</time>
      </trkpt>
      <trkpt lat="38.12774833" lon="-4.91023833">
        <ele>492.0</ele>
        <time>2018-10-06T07:27:02.000Z</time>
      </trkpt>
      <trkpt lat="38.12774833" lon="-4.91023833">
        <ele>492.0</ele>
        <time>2018-10-06T07:27:03.000Z</time>
      </trkpt>
      <trkpt lat="38.12774833" lon="-4.91023833">
        <ele>492.0</ele>
        <time>2018-10-06T07:27:04.000Z</time>
      </trkpt>
      <trkpt lat="38.12779667" lon="-4.91096167">
        <ele>489.0</ele>
        <time>2018-10-06T07:27:05.000Z</time>
      </trkpt>
      <trkpt lat="38.12779833" lon="-4.91097667">
        <ele>488.0</ele>
        <time>2018-10-06T07:27:06.000Z</time>
      </trkpt>
      <trkpt lat="38.12780167" lon="-4.91099">
        <ele>488.0</ele>
        <time>2018-10-06T07:27:07.000Z</time>
      </trkpt>
      <trkpt lat="38.12780667" lon="-4.91100333">
        <ele>489.0</ele>
        <time>2018-10-06T07:27:08.000Z</time>
      </trkpt>
      <trkpt lat="38.12781333" lon="-4.91101333">
        <ele>489.0</ele>
        <time>2018-10-06T07:27:09.000Z</time>
      </trkpt>
      <trkpt lat="38.12781833" lon="-4.911025">
        <ele>489.0</ele>
        <time>2018-10-06T07:27:10.000Z</time>
      </trkpt>
      <trkpt lat="38.12782333" lon="-4.91103667">
        <ele>489.0</ele>
        <time>2018-10-06T07:27:11.000Z</time>
      </trkpt>
      <trkpt lat="38.12783" lon="-4.91105167">
        <ele>490.0</ele>
        <time>2018-10-06T07:27:12.000Z</time>
      </trkpt>
      <trkpt lat="38.12783667" lon="-4.91106667">
        <ele>490.0</ele>
        <time>2018-10-06T07:27:13.000Z</time>
      </trkpt>
      <trkpt lat="38.12784167" lon="-4.91107833">
        <ele>490.0</ele>
        <time>2018-10-06T07:27:14.000Z</time>
      </trkpt>
      <trkpt lat="38.12784667" lon="-4.91109">
        <ele>490.0</ele>
        <time>2018-10-06T07:27:15.000Z</time>
      </trkpt>
      <trkpt lat="38.12784667" lon="-4.91109">
        <ele>490.0</ele>
        <time>2018-10-06T07:27:16.000Z</time>
      </trkpt>
      <trkpt lat="38.12784667" lon="-4.91109">
        <ele>490.0</ele>
        <time>2018-10-06T07:27:17.000Z</time>
      </trkpt>
      <trkpt lat="38.12784667" lon="-4.91109">
        <ele>490.0</ele>
        <time>2018-10-06T07:27:18.000Z</time>
      </trkpt>
      <trkpt lat="38.12784667" lon="-4.91109">
        <ele>490.0</ele>
        <time>2018-10-06T07:27:19.000Z</time>
      </trkpt>
      <trkpt lat="38.12784667" lon="-4.91109">
        <ele>490.0</ele>
        <time>2018-10-06T07:27:20.000Z</time>
      </trkpt>
      <trkpt lat="38.12785" lon="-4.91115333">
        <ele>496.0</ele>
        <time>2018-10-06T07:27:21.000Z</time>
      </trkpt>
      <trkpt lat="38.12782833" lon="-4.91121167">
        <ele>496.0</ele>
        <time>2018-10-06T07:27:22.000Z</time>
      </trkpt>
      <trkpt lat="38.12783" lon="-4.91121833">
        <ele>496.0</ele>
        <time>2018-10-06T07:27:23.000Z</time>
      </trkpt>
      <trkpt lat="38.127835" lon="-4.91122167">
        <ele>496.0</ele>
        <time>2018-10-06T07:27:24.000Z</time>
      </trkpt>
      <trkpt lat="38.12784333" lon="-4.91122833">
        <ele>496.0</ele>
        <time>2018-10-06T07:27:25.000Z</time>
      </trkpt>
      <trkpt lat="38.12785167" lon="-4.91123833">
        <ele>496.0</ele>
        <time>2018-10-06T07:27:26.000Z</time>
      </trkpt>
      <trkpt lat="38.12785667" lon="-4.91124833">
        <ele>496.0</ele>
        <time>2018-10-06T07:27:27.000Z</time>
      </trkpt>
      <trkpt lat="38.12786167" lon="-4.91126">
        <ele>496.0</ele>
        <time>2018-10-06T07:27:28.000Z</time>
      </trkpt>
      <trkpt lat="38.12786667" lon="-4.91127167">
        <ele>496.0</ele>
        <time>2018-10-06T07:27:29.000Z</time>
      </trkpt>
      <trkpt lat="38.12787333" lon="-4.91128167">
        <ele>495.0</ele>
        <time>2018-10-06T07:27:30.000Z</time>
      </trkpt>
      <trkpt lat="38.12788" lon="-4.91129">
        <ele>495.0</ele>
        <time>2018-10-06T07:27:31.000Z</time>
      </trkpt>
      <trkpt lat="38.12788" lon="-4.91129">
        <ele>495.0</ele>
        <time>2018-10-06T07:27:32.000Z</time>
      </trkpt>
      <trkpt lat="38.12788" lon="-4.91129">
        <ele>495.0</ele>
        <time>2018-10-06T07:27:33.000Z</time>
      </trkpt>
      <trkpt lat="38.12788" lon="-4.91129">
        <ele>495.0</ele>
        <time>2018-10-06T07:27:34.000Z</time>
      </trkpt>
      <trkpt lat="38.12788" lon="-4.91129">
        <ele>495.0</ele>
        <time>2018-10-06T07:27:35.000Z</time>
      </trkpt>
      <trkpt lat="38.12788" lon="-4.91129">
        <ele>495.0</ele>
        <time>2018-10-06T07:27:36.000Z</time>
      </trkpt>
      <trkpt lat="38.12788" lon="-4.91129">
        <ele>495.0</ele>
        <time>2018-10-06T07:27:37.000Z</time>
      </trkpt>
      <trkpt lat="38.12788" lon="-4.91129">
        <ele>495.0</ele>
        <time>2018-10-06T07:27:38.000Z</time>
      </trkpt>
      <trkpt lat="38.12788" lon="-4.91129">
        <ele>495.0</ele>
        <time>2018-10-06T07:27:39.000Z</time>
      </trkpt>
      <trkpt lat="38.12788" lon="-4.91129">
        <ele>495.0</ele>
        <time>2018-10-06T07:27:40.000Z</time>
      </trkpt>
      <trkpt lat="38.12788" lon="-4.91129">
        <ele>495.0</ele>
        <time>2018-10-06T07:27:41.000Z</time>
      </trkpt>
      <trkpt lat="38.12788" lon="-4.91129">
        <ele>495.0</ele>
        <time>2018-10-06T07:27:42.000Z</time>
      </trkpt>
      <trkpt lat="38.12788" lon="-4.91129">
        <ele>495.0</ele>
        <time>2018-10-06T07:27:43.000Z</time>
      </trkpt>
      <trkpt lat="38.12788" lon="-4.91129">
        <ele>495.0</ele>
        <time>2018-10-06T07:27:44.000Z</time>
      </trkpt>
      <trkpt lat="38.12788" lon="-4.91129">
        <ele>495.0</ele>
        <time>2018-10-06T07:27:45.000Z</time>
      </trkpt>
      <trkpt lat="38.12788" lon="-4.91129">
        <ele>495.0</ele>
        <time>2018-10-06T07:27:46.000Z</time>
      </trkpt>
      <trkpt lat="38.12788" lon="-4.91129">
        <ele>495.0</ele>
        <time>2018-10-06T07:27:47.000Z</time>
      </trkpt>
      <trkpt lat="38.12788" lon="-4.91129">
        <ele>495.0</ele>
        <time>2018-10-06T07:27:48.000Z</time>
      </trkpt>
      <trkpt lat="38.12788" lon="-4.91129">
        <ele>495.0</ele>
        <time>2018-10-06T07:27:49.000Z</time>
      </trkpt>
      <trkpt lat="38.12788" lon="-4.91129">
        <ele>495.0</ele>
        <time>2018-10-06T07:27:50.000Z</time>
      </trkpt>
      <trkpt lat="38.12788" lon="-4.91129">
        <ele>495.0</ele>
        <time>2018-10-06T07:27:51.000Z</time>
      </trkpt>
      <trkpt lat="38.12788" lon="-4.91129">
        <ele>495.0</ele>
        <time>2018-10-06T07:27:52.000Z</time>
      </trkpt>
      <trkpt lat="38.12788" lon="-4.91129">
        <ele>495.0</ele>
        <time>2018-10-06T07:27:53.000Z</time>
      </trkpt>
      <trkpt lat="38.12788" lon="-4.91129">
        <ele>495.0</ele>
        <time>2018-10-06T07:27:54.000Z</time>
      </trkpt>
      <trkpt lat="38.12788" lon="-4.91129">
        <ele>495.0</ele>
        <time>2018-10-06T07:27:55.000Z</time>
      </trkpt>
      <trkpt lat="38.12788" lon="-4.91129">
        <ele>495.0</ele>
        <time>2018-10-06T07:27:56.000Z</time>
      </trkpt>
      <trkpt lat="38.12788" lon="-4.91129">
        <ele>495.0</ele>
        <time>2018-10-06T07:27:57.000Z</time>
      </trkpt>
      <trkpt lat="38.12788" lon="-4.91129">
        <ele>495.0</ele>
        <time>2018-10-06T07:27:58.000Z</time>
      </trkpt>
      <trkpt lat="38.12788" lon="-4.91129">
        <ele>495.0</ele>
        <time>2018-10-06T07:27:59.000Z</time>
      </trkpt>
      <trkpt lat="38.12788" lon="-4.91129">
        <ele>495.0</ele>
        <time>2018-10-06T07:28:00.000Z</time>
      </trkpt>
      <trkpt lat="38.12788" lon="-4.91129">
        <ele>495.0</ele>
        <time>2018-10-06T07:28:01.000Z</time>
      </trkpt>
      <trkpt lat="38.12788" lon="-4.91129">
        <ele>495.0</ele>
        <time>2018-10-06T07:28:02.000Z</time>
      </trkpt>
      <trkpt lat="38.12788" lon="-4.91129">
        <ele>495.0</ele>
        <time>2018-10-06T07:28:03.000Z</time>
      </trkpt>
      <trkpt lat="38.12788" lon="-4.91129">
        <ele>495.0</ele>
        <time>2018-10-06T07:28:04.000Z</time>
      </trkpt>
      <trkpt lat="38.12788" lon="-4.91129">
        <ele>495.0</ele>
        <time>2018-10-06T07:28:05.000Z</time>
      </trkpt>
      <trkpt lat="38.12788" lon="-4.91129">
        <ele>495.0</ele>
        <time>2018-10-06T07:28:06.000Z</time>
      </trkpt>
      <trkpt lat="38.12788" lon="-4.91129">
        <ele>495.0</ele>
        <time>2018-10-06T07:28:07.000Z</time>
      </trkpt>
      <trkpt lat="38.12788" lon="-4.91129">
        <ele>495.0</ele>
        <time>2018-10-06T07:28:08.000Z</time>
      </trkpt>
      <trkpt lat="38.12807667" lon="-4.91168667">
        <ele>485.0</ele>
        <time>2018-10-06T07:28:09.000Z</time>
      </trkpt>
      <trkpt lat="38.12809667" lon="-4.91170833">
        <ele>485.0</ele>
        <time>2018-10-06T07:28:10.000Z</time>
      </trkpt>
      <trkpt lat="38.128105" lon="-4.911725">
        <ele>485.0</ele>
        <time>2018-10-06T07:28:11.000Z</time>
      </trkpt>
      <trkpt lat="38.12812" lon="-4.91174">
        <ele>485.0</ele>
        <time>2018-10-06T07:28:12.000Z</time>
      </trkpt>
      <trkpt lat="38.12812833" lon="-4.91175167">
        <ele>485.0</ele>
        <time>2018-10-06T07:28:13.000Z</time>
      </trkpt>
      <trkpt lat="38.12813333" lon="-4.91176333">
        <ele>485.0</ele>
        <time>2018-10-06T07:28:14.000Z</time>
      </trkpt>
      <trkpt lat="38.12813667" lon="-4.911775">
        <ele>485.0</ele>
        <time>2018-10-06T07:28:15.000Z</time>
      </trkpt>
      <trkpt lat="38.12814167" lon="-4.91178667">
        <ele>485.0</ele>
        <time>2018-10-06T07:28:16.000Z</time>
      </trkpt>
      <trkpt lat="38.12814333" lon="-4.91180167">
        <ele>485.0</ele>
        <time>2018-10-06T07:28:17.000Z</time>
      </trkpt>
      <trkpt lat="38.12814667" lon="-4.91181667">
        <ele>485.0</ele>
        <time>2018-10-06T07:28:18.000Z</time>
      </trkpt>
      <trkpt lat="38.12815" lon="-4.91183167">
        <ele>485.0</ele>
        <time>2018-10-06T07:28:19.000Z</time>
      </trkpt>
      <trkpt lat="38.128155" lon="-4.91184333">
        <ele>485.0</ele>
        <time>2018-10-06T07:28:20.000Z</time>
      </trkpt>
      <trkpt lat="38.128155" lon="-4.91184333">
        <ele>485.0</ele>
        <time>2018-10-06T07:28:21.000Z</time>
      </trkpt>
      <trkpt lat="38.128155" lon="-4.91184333">
        <ele>485.0</ele>
        <time>2018-10-06T07:28:22.000Z</time>
      </trkpt>
      <trkpt lat="38.128155" lon="-4.91184333">
        <ele>485.0</ele>
        <time>2018-10-06T07:28:23.000Z</time>
      </trkpt>
      <trkpt lat="38.128155" lon="-4.91184333">
        <ele>485.0</ele>
        <time>2018-10-06T07:28:24.000Z</time>
      </trkpt>
      <trkpt lat="38.128155" lon="-4.91184333">
        <ele>485.0</ele>
        <time>2018-10-06T07:28:25.000Z</time>
      </trkpt>
      <trkpt lat="38.128155" lon="-4.91184333">
        <ele>485.0</ele>
        <time>2018-10-06T07:28:26.000Z</time>
      </trkpt>
      <trkpt lat="38.128155" lon="-4.91184333">
        <ele>485.0</ele>
        <time>2018-10-06T07:28:27.000Z</time>
      </trkpt>
      <trkpt lat="38.128155" lon="-4.91184333">
        <ele>485.0</ele>
        <time>2018-10-06T07:28:28.000Z</time>
      </trkpt>
      <trkpt lat="38.128155" lon="-4.91184333">
        <ele>485.0</ele>
        <time>2018-10-06T07:28:29.000Z</time>
      </trkpt>
      <trkpt lat="38.128155" lon="-4.91184333">
        <ele>485.0</ele>
        <time>2018-10-06T07:28:30.000Z</time>
      </trkpt>
      <trkpt lat="38.128155" lon="-4.91184333">
        <ele>485.0</ele>
        <time>2018-10-06T07:28:31.000Z</time>
      </trkpt>
      <trkpt lat="38.128155" lon="-4.91184333">
        <ele>485.0</ele>
        <time>2018-10-06T07:28:32.000Z</time>
      </trkpt>
      <trkpt lat="38.128155" lon="-4.91184333">
        <ele>485.0</ele>
        <time>2018-10-06T07:28:33.000Z</time>
      </trkpt>
      <trkpt lat="38.128155" lon="-4.91184333">
        <ele>485.0</ele>
        <time>2018-10-06T07:28:34.000Z</time>
      </trkpt>
      <trkpt lat="38.128155" lon="-4.91184333">
        <ele>485.0</ele>
        <time>2018-10-06T07:28:35.000Z</time>
      </trkpt>
      <trkpt lat="38.128155" lon="-4.91184333">
        <ele>485.0</ele>
        <time>2018-10-06T07:28:36.000Z</time>
      </trkpt>
      <trkpt lat="38.128155" lon="-4.91184333">
        <ele>485.0</ele>
        <time>2018-10-06T07:28:37.000Z</time>
      </trkpt>
      <trkpt lat="38.128155" lon="-4.91184333">
        <ele>485.0</ele>
        <time>2018-10-06T07:28:38.000Z</time>
      </trkpt>
      <trkpt lat="38.128155" lon="-4.91184333">
        <ele>485.0</ele>
        <time>2018-10-06T07:28:39.000Z</time>
      </trkpt>
      <trkpt lat="38.128155" lon="-4.91184333">
        <ele>485.0</ele>
        <time>2018-10-06T07:28:40.000Z</time>
      </trkpt>
      <trkpt lat="38.128155" lon="-4.91184333">
        <ele>485.0</ele>
        <time>2018-10-06T07:28:41.000Z</time>
      </trkpt>
      <trkpt lat="38.128155" lon="-4.91184333">
        <ele>485.0</ele>
        <time>2018-10-06T07:28:42.000Z</time>
      </trkpt>
      <trkpt lat="38.128155" lon="-4.91184333">
        <ele>485.0</ele>
        <time>2018-10-06T07:28:43.000Z</time>
      </trkpt>
      <trkpt lat="38.128155" lon="-4.91184333">
        <ele>485.0</ele>
        <time>2018-10-06T07:28:44.000Z</time>
      </trkpt>
      <trkpt lat="38.128155" lon="-4.91184333">
        <ele>485.0</ele>
        <time>2018-10-06T07:28:45.000Z</time>
      </trkpt>
      <trkpt lat="38.128155" lon="-4.91184333">
        <ele>485.0</ele>
        <time>2018-10-06T07:28:46.000Z</time>
      </trkpt>
      <trkpt lat="38.128155" lon="-4.91184333">
        <ele>485.0</ele>
        <time>2018-10-06T07:28:47.000Z</time>
      </trkpt>
      <trkpt lat="38.128155" lon="-4.91184333">
        <ele>485.0</ele>
        <time>2018-10-06T07:28:48.000Z</time>
      </trkpt>
      <trkpt lat="38.128155" lon="-4.91184333">
        <ele>485.0</ele>
        <time>2018-10-06T07:28:49.000Z</time>
      </trkpt>
      <trkpt lat="38.128155" lon="-4.91184333">
        <ele>485.0</ele>
        <time>2018-10-06T07:28:50.000Z</time>
      </trkpt>
      <trkpt lat="38.128155" lon="-4.91184333">
        <ele>485.0</ele>
        <time>2018-10-06T07:28:51.000Z</time>
      </trkpt>
      <trkpt lat="38.128155" lon="-4.91184333">
        <ele>485.0</ele>
        <time>2018-10-06T07:28:52.000Z</time>
      </trkpt>
      <trkpt lat="38.128155" lon="-4.91184333">
        <ele>485.0</ele>
        <time>2018-10-06T07:28:53.000Z</time>
      </trkpt>
      <trkpt lat="38.128155" lon="-4.91184333">
        <ele>485.0</ele>
        <time>2018-10-06T07:28:54.000Z</time>
      </trkpt>
      <trkpt lat="38.128155" lon="-4.91184333">
        <ele>485.0</ele>
        <time>2018-10-06T07:28:55.000Z</time>
      </trkpt>
      <trkpt lat="38.128155" lon="-4.91184333">
        <ele>485.0</ele>
        <time>2018-10-06T07:28:56.000Z</time>
      </trkpt>
      <trkpt lat="38.128155" lon="-4.91184333">
        <ele>485.0</ele>
        <time>2018-10-06T07:28:57.000Z</time>
      </trkpt>
      <trkpt lat="38.128155" lon="-4.91184333">
        <ele>485.0</ele>
        <time>2018-10-06T07:28:58.000Z</time>
      </trkpt>
      <trkpt lat="38.128155" lon="-4.91184333">
        <ele>485.0</ele>
        <time>2018-10-06T07:28:59.000Z</time>
      </trkpt>
      <trkpt lat="38.128155" lon="-4.91184333">
        <ele>485.0</ele>
        <time>2018-10-06T07:29:00.000Z</time>
      </trkpt>
      <trkpt lat="38.128155" lon="-4.91184333">
        <ele>485.0</ele>
        <time>2018-10-06T07:29:01.000Z</time>
      </trkpt>
      <trkpt lat="38.128155" lon="-4.91184333">
        <ele>485.0</ele>
        <time>2018-10-06T07:29:02.000Z</time>
      </trkpt>
      <trkpt lat="38.128155" lon="-4.91184333">
        <ele>485.0</ele>
        <time>2018-10-06T07:29:03.000Z</time>
      </trkpt>
      <trkpt lat="38.128155" lon="-4.91184333">
        <ele>485.0</ele>
        <time>2018-10-06T07:29:04.000Z</time>
      </trkpt>
      <trkpt lat="38.128155" lon="-4.91184333">
        <ele>485.0</ele>
        <time>2018-10-06T07:29:05.000Z</time>
      </trkpt>
      <trkpt lat="38.128155" lon="-4.91184333">
        <ele>485.0</ele>
        <time>2018-10-06T07:29:06.000Z</time>
      </trkpt>
      <trkpt lat="38.128155" lon="-4.91184333">
        <ele>485.0</ele>
        <time>2018-10-06T07:29:07.000Z</time>
      </trkpt>
      <trkpt lat="38.128155" lon="-4.91184333">
        <ele>485.0</ele>
        <time>2018-10-06T07:29:08.000Z</time>
      </trkpt>
      <trkpt lat="38.12832833" lon="-4.912055">
        <ele>478.0</ele>
        <time>2018-10-06T07:29:09.000Z</time>
      </trkpt>
      <trkpt lat="38.12832833" lon="-4.91207667">
        <ele>479.0</ele>
        <time>2018-10-06T07:29:10.000Z</time>
      </trkpt>
      <trkpt lat="38.128325" lon="-4.9121">
        <ele>479.0</ele>
        <time>2018-10-06T07:29:11.000Z</time>
      </trkpt>
      <trkpt lat="38.12832333" lon="-4.91212167">
        <ele>479.0</ele>
        <time>2018-10-06T07:29:12.000Z</time>
      </trkpt>
      <trkpt lat="38.12832" lon="-4.91214">
        <ele>480.0</ele>
        <time>2018-10-06T07:29:13.000Z</time>
      </trkpt>
      <trkpt lat="38.12831833" lon="-4.91215833">
        <ele>480.0</ele>
        <time>2018-10-06T07:29:14.000Z</time>
      </trkpt>
      <trkpt lat="38.128315" lon="-4.912175">
        <ele>480.0</ele>
        <time>2018-10-06T07:29:15.000Z</time>
      </trkpt>
      <trkpt lat="38.12831167" lon="-4.91219">
        <ele>480.0</ele>
        <time>2018-10-06T07:29:16.000Z</time>
      </trkpt>
      <trkpt lat="38.128305" lon="-4.912205">
        <ele>480.0</ele>
        <time>2018-10-06T07:29:17.000Z</time>
      </trkpt>
      <trkpt lat="38.12829833" lon="-4.91221833">
        <ele>480.0</ele>
        <time>2018-10-06T07:29:18.000Z</time>
      </trkpt>
      <trkpt lat="38.12829" lon="-4.91223167">
        <ele>480.0</ele>
        <time>2018-10-06T07:29:19.000Z</time>
      </trkpt>
      <trkpt lat="38.12828" lon="-4.912245">
        <ele>480.0</ele>
        <time>2018-10-06T07:29:20.000Z</time>
      </trkpt>
      <trkpt lat="38.12828" lon="-4.912245">
        <ele>480.0</ele>
        <time>2018-10-06T07:29:21.000Z</time>
      </trkpt>
      <trkpt lat="38.12828" lon="-4.912245">
        <ele>480.0</ele>
        <time>2018-10-06T07:29:22.000Z</time>
      </trkpt>
      <trkpt lat="38.12828" lon="-4.912245">
        <ele>480.0</ele>
        <time>2018-10-06T07:29:23.000Z</time>
      </trkpt>
      <trkpt lat="38.12828" lon="-4.912245">
        <ele>480.0</ele>
        <time>2018-10-06T07:29:24.000Z</time>
      </trkpt>
      <trkpt lat="38.12828" lon="-4.912245">
        <ele>480.0</ele>
        <time>2018-10-06T07:29:25.000Z</time>
      </trkpt>
      <trkpt lat="38.12828" lon="-4.912245">
        <ele>480.0</ele>
        <time>2018-10-06T07:29:26.000Z</time>
      </trkpt>
      <trkpt lat="38.12828" lon="-4.912245">
        <ele>480.0</ele>
        <time>2018-10-06T07:29:27.000Z</time>
      </trkpt>
      <trkpt lat="38.12828" lon="-4.912245">
        <ele>480.0</ele>
        <time>2018-10-06T07:29:28.000Z</time>
      </trkpt>
      <trkpt lat="38.12828" lon="-4.912245">
        <ele>480.0</ele>
        <time>2018-10-06T07:29:29.000Z</time>
      </trkpt>
      <trkpt lat="38.12828" lon="-4.912245">
        <ele>480.0</ele>
        <time>2018-10-06T07:29:30.000Z</time>
      </trkpt>
      <trkpt lat="38.12828" lon="-4.912245">
        <ele>480.0</ele>
        <time>2018-10-06T07:29:31.000Z</time>
      </trkpt>
      <trkpt lat="38.12828" lon="-4.912245">
        <ele>480.0</ele>
        <time>2018-10-06T07:29:32.000Z</time>
      </trkpt>
      <trkpt lat="38.12828" lon="-4.912245">
        <ele>480.0</ele>
        <time>2018-10-06T07:29:33.000Z</time>
      </trkpt>
      <trkpt lat="38.12828" lon="-4.912245">
        <ele>480.0</ele>
        <time>2018-10-06T07:29:34.000Z</time>
      </trkpt>
      <trkpt lat="38.12828" lon="-4.912245">
        <ele>480.0</ele>
        <time>2018-10-06T07:29:35.000Z</time>
      </trkpt>
      <trkpt lat="38.12828" lon="-4.912245">
        <ele>480.0</ele>
        <time>2018-10-06T07:29:36.000Z</time>
      </trkpt>
      <trkpt lat="38.12828" lon="-4.912245">
        <ele>480.0</ele>
        <time>2018-10-06T07:29:37.000Z</time>
      </trkpt>
      <trkpt lat="38.12828" lon="-4.912245">
        <ele>480.0</ele>
        <time>2018-10-06T07:29:38.000Z</time>
      </trkpt>
      <trkpt lat="38.12828" lon="-4.912245">
        <ele>480.0</ele>
        <time>2018-10-06T07:29:39.000Z</time>
      </trkpt>
      <trkpt lat="38.12828" lon="-4.912245">
        <ele>480.0</ele>
        <time>2018-10-06T07:29:40.000Z</time>
      </trkpt>
      <trkpt lat="38.12828" lon="-4.912245">
        <ele>480.0</ele>
        <time>2018-10-06T07:29:41.000Z</time>
      </trkpt>
      <trkpt lat="38.12828" lon="-4.912245">
        <ele>480.0</ele>
        <time>2018-10-06T07:29:42.000Z</time>
      </trkpt>
      <trkpt lat="38.12828" lon="-4.912245">
        <ele>480.0</ele>
        <time>2018-10-06T07:29:43.000Z</time>
      </trkpt>
      <trkpt lat="38.12828" lon="-4.912245">
        <ele>480.0</ele>
        <time>2018-10-06T07:29:44.000Z</time>
      </trkpt>
      <trkpt lat="38.12828" lon="-4.912245">
        <ele>480.0</ele>
        <time>2018-10-06T07:29:45.000Z</time>
      </trkpt>
      <trkpt lat="38.12828" lon="-4.912245">
        <ele>480.0</ele>
        <time>2018-10-06T07:29:46.000Z</time>
      </trkpt>
      <trkpt lat="38.12828" lon="-4.912245">
        <ele>480.0</ele>
        <time>2018-10-06T07:29:47.000Z</time>
      </trkpt>
      <trkpt lat="38.12828" lon="-4.912245">
        <ele>480.0</ele>
        <time>2018-10-06T07:29:48.000Z</time>
      </trkpt>
      <trkpt lat="38.12828" lon="-4.912245">
        <ele>480.0</ele>
        <time>2018-10-06T07:29:49.000Z</time>
      </trkpt>
      <trkpt lat="38.12828" lon="-4.912245">
        <ele>480.0</ele>
        <time>2018-10-06T07:29:50.000Z</time>
      </trkpt>
      <trkpt lat="38.12828" lon="-4.912245">
        <ele>480.0</ele>
        <time>2018-10-06T07:29:51.000Z</time>
      </trkpt>
      <trkpt lat="38.12828" lon="-4.912245">
        <ele>480.0</ele>
        <time>2018-10-06T07:29:52.000Z</time>
      </trkpt>
      <trkpt lat="38.12828" lon="-4.912245">
        <ele>480.0</ele>
        <time>2018-10-06T07:29:53.000Z</time>
      </trkpt>
      <trkpt lat="38.12828" lon="-4.912245">
        <ele>480.0</ele>
        <time>2018-10-06T07:29:54.000Z</time>
      </trkpt>
      <trkpt lat="38.12828" lon="-4.912245">
        <ele>480.0</ele>
        <time>2018-10-06T07:29:55.000Z</time>
      </trkpt>
      <trkpt lat="38.12828" lon="-4.912245">
        <ele>480.0</ele>
        <time>2018-10-06T07:29:56.000Z</time>
      </trkpt>
      <trkpt lat="38.12828" lon="-4.912245">
        <ele>480.0</ele>
        <time>2018-10-06T07:29:57.000Z</time>
      </trkpt>
      <trkpt lat="38.12828" lon="-4.912245">
        <ele>480.0</ele>
        <time>2018-10-06T07:29:58.000Z</time>
      </trkpt>
      <trkpt lat="38.12828" lon="-4.912245">
        <ele>480.0</ele>
        <time>2018-10-06T07:29:59.000Z</time>
      </trkpt>
      <trkpt lat="38.12828" lon="-4.912245">
        <ele>480.0</ele>
        <time>2018-10-06T07:30:00.000Z</time>
      </trkpt>
      <trkpt lat="38.12828" lon="-4.912245">
        <ele>480.0</ele>
        <time>2018-10-06T07:30:01.000Z</time>
      </trkpt>
      <trkpt lat="38.12828" lon="-4.912245">
        <ele>480.0</ele>
        <time>2018-10-06T07:30:02.000Z</time>
      </trkpt>
      <trkpt lat="38.12828" lon="-4.912245">
        <ele>480.0</ele>
        <time>2018-10-06T07:30:03.000Z</time>
      </trkpt>
      <trkpt lat="38.12828" lon="-4.912245">
        <ele>480.0</ele>
        <time>2018-10-06T07:30:04.000Z</time>
      </trkpt>
      <trkpt lat="38.12828" lon="-4.912245">
        <ele>480.0</ele>
        <time>2018-10-06T07:30:05.000Z</time>
      </trkpt>
      <trkpt lat="38.12828" lon="-4.912245">
        <ele>480.0</ele>
        <time>2018-10-06T07:30:06.000Z</time>
      </trkpt>
      <trkpt lat="38.12828" lon="-4.912245">
        <ele>480.0</ele>
        <time>2018-10-06T07:30:07.000Z</time>
      </trkpt>
      <trkpt lat="38.12828" lon="-4.912245">
        <ele>480.0</ele>
        <time>2018-10-06T07:30:08.000Z</time>
      </trkpt>
      <trkpt lat="38.12843333" lon="-4.91258833">
        <ele>466.0</ele>
        <time>2018-10-06T07:30:09.000Z</time>
      </trkpt>
      <trkpt lat="38.12843667" lon="-4.91261833">
        <ele>467.0</ele>
        <time>2018-10-06T07:30:10.000Z</time>
      </trkpt>
      <trkpt lat="38.12844" lon="-4.91265167">
        <ele>468.0</ele>
        <time>2018-10-06T07:30:11.000Z</time>
      </trkpt>
      <trkpt lat="38.12844833" lon="-4.912685">
        <ele>469.0</ele>
        <time>2018-10-06T07:30:12.000Z</time>
      </trkpt>
      <trkpt lat="38.12845" lon="-4.91271667">
        <ele>471.0</ele>
        <time>2018-10-06T07:30:13.000Z</time>
      </trkpt>
      <trkpt lat="38.12845167" lon="-4.912745">
        <ele>472.0</ele>
        <time>2018-10-06T07:30:14.000Z</time>
      </trkpt>
      <trkpt lat="38.12845667" lon="-4.91277">
        <ele>473.0</ele>
        <time>2018-10-06T07:30:15.000Z</time>
      </trkpt>
      <trkpt lat="38.12846" lon="-4.912795">
        <ele>473.0</ele>
        <time>2018-10-06T07:30:16.000Z</time>
      </trkpt>
      <trkpt lat="38.12846" lon="-4.91281833">
        <ele>474.0</ele>
        <time>2018-10-06T07:30:17.000Z</time>
      </trkpt>
      <trkpt lat="38.12846" lon="-4.91284">
        <ele>474.0</ele>
        <time>2018-10-06T07:30:18.000Z</time>
      </trkpt>
      <trkpt lat="38.12846167" lon="-4.91286167">
        <ele>475.0</ele>
        <time>2018-10-06T07:30:19.000Z</time>
      </trkpt>
      <trkpt lat="38.12846333" lon="-4.91288333">
        <ele>475.0</ele>
        <time>2018-10-06T07:30:20.000Z</time>
      </trkpt>
      <trkpt lat="38.12846333" lon="-4.91288333">
        <ele>475.0</ele>
        <time>2018-10-06T07:30:21.000Z</time>
      </trkpt>
      <trkpt lat="38.12846333" lon="-4.91288333">
        <ele>475.0</ele>
        <time>2018-10-06T07:30:22.000Z</time>
      </trkpt>
      <trkpt lat="38.12846333" lon="-4.91288333">
        <ele>475.0</ele>
        <time>2018-10-06T07:30:23.000Z</time>
      </trkpt>
      <trkpt lat="38.12846333" lon="-4.91288333">
        <ele>475.0</ele>
        <time>2018-10-06T07:30:24.000Z</time>
      </trkpt>
      <trkpt lat="38.12846333" lon="-4.91288333">
        <ele>475.0</ele>
        <time>2018-10-06T07:30:25.000Z</time>
      </trkpt>
      <trkpt lat="38.12846333" lon="-4.91288333">
        <ele>475.0</ele>
        <time>2018-10-06T07:30:26.000Z</time>
      </trkpt>
      <trkpt lat="38.12846333" lon="-4.91288333">
        <ele>475.0</ele>
        <time>2018-10-06T07:30:27.000Z</time>
      </trkpt>
      <trkpt lat="38.12846333" lon="-4.91288333">
        <ele>475.0</ele>
        <time>2018-10-06T07:30:28.000Z</time>
      </trkpt>
      <trkpt lat="38.12846333" lon="-4.91288333">
        <ele>475.0</ele>
        <time>2018-10-06T07:30:29.000Z</time>
      </trkpt>
      <trkpt lat="38.12846333" lon="-4.91288333">
        <ele>475.0</ele>
        <time>2018-10-06T07:30:30.000Z</time>
      </trkpt>
      <trkpt lat="38.12846333" lon="-4.91288333">
        <ele>475.0</ele>
        <time>2018-10-06T07:30:31.000Z</time>
      </trkpt>
      <trkpt lat="38.12846333" lon="-4.91288333">
        <ele>475.0</ele>
        <time>2018-10-06T07:30:32.000Z</time>
      </trkpt>
      <trkpt lat="38.12846333" lon="-4.91288333">
        <ele>475.0</ele>
        <time>2018-10-06T07:30:33.000Z</time>
      </trkpt>
      <trkpt lat="38.12846333" lon="-4.91288333">
        <ele>475.0</ele>
        <time>2018-10-06T07:30:34.000Z</time>
      </trkpt>
      <trkpt lat="38.12846333" lon="-4.91288333">
        <ele>475.0</ele>
        <time>2018-10-06T07:30:35.000Z</time>
      </trkpt>
      <trkpt lat="38.12846333" lon="-4.91288333">
        <ele>475.0</ele>
        <time>2018-10-06T07:30:36.000Z</time>
      </trkpt>
      <trkpt lat="38.12846333" lon="-4.91288333">
        <ele>475.0</ele>
        <time>2018-10-06T07:30:37.000Z</time>
      </trkpt>
      <trkpt lat="38.12846333" lon="-4.91288333">
        <ele>475.0</ele>
        <time>2018-10-06T07:30:38.000Z</time>
      </trkpt>
      <trkpt lat="38.12846333" lon="-4.91288333">
        <ele>475.0</ele>
        <time>2018-10-06T07:30:39.000Z</time>
      </trkpt>
      <trkpt lat="38.12846333" lon="-4.91288333">
        <ele>475.0</ele>
        <time>2018-10-06T07:30:40.000Z</time>
      </trkpt>
      <trkpt lat="38.12846333" lon="-4.91288333">
        <ele>475.0</ele>
        <time>2018-10-06T07:30:41.000Z</time>
      </trkpt>
      <trkpt lat="38.12846333" lon="-4.91288333">
        <ele>475.0</ele>
        <time>2018-10-06T07:30:42.000Z</time>
      </trkpt>
      <trkpt lat="38.12846333" lon="-4.91288333">
        <ele>475.0</ele>
        <time>2018-10-06T07:30:43.000Z</time>
      </trkpt>
      <trkpt lat="38.12846333" lon="-4.91288333">
        <ele>475.0</ele>
        <time>2018-10-06T07:30:44.000Z</time>
      </trkpt>
      <trkpt lat="38.12846333" lon="-4.91288333">
        <ele>475.0</ele>
        <time>2018-10-06T07:30:45.000Z</time>
      </trkpt>
      <trkpt lat="38.12846333" lon="-4.91288333">
        <ele>475.0</ele>
        <time>2018-10-06T07:30:46.000Z</time>
      </trkpt>
      <trkpt lat="38.12846333" lon="-4.91288333">
        <ele>475.0</ele>
        <time>2018-10-06T07:30:47.000Z</time>
      </trkpt>
      <trkpt lat="38.12846333" lon="-4.91288333">
        <ele>475.0</ele>
        <time>2018-10-06T07:30:48.000Z</time>
      </trkpt>
      <trkpt lat="38.12846333" lon="-4.91288333">
        <ele>475.0</ele>
        <time>2018-10-06T07:30:49.000Z</time>
      </trkpt>
      <trkpt lat="38.12846333" lon="-4.91288333">
        <ele>475.0</ele>
        <time>2018-10-06T07:30:50.000Z</time>
      </trkpt>
      <trkpt lat="38.12846333" lon="-4.91288333">
        <ele>475.0</ele>
        <time>2018-10-06T07:30:51.000Z</time>
      </trkpt>
      <trkpt lat="38.12846333" lon="-4.91288333">
        <ele>475.0</ele>
        <time>2018-10-06T07:30:52.000Z</time>
      </trkpt>
      <trkpt lat="38.12846333" lon="-4.91288333">
        <ele>475.0</ele>
        <time>2018-10-06T07:30:53.000Z</time>
      </trkpt>
      <trkpt lat="38.12846333" lon="-4.91288333">
        <ele>475.0</ele>
        <time>2018-10-06T07:30:54.000Z</time>
      </trkpt>
      <trkpt lat="38.12846333" lon="-4.91288333">
        <ele>475.0</ele>
        <time>2018-10-06T07:30:55.000Z</time>
      </trkpt>
      <trkpt lat="38.12846333" lon="-4.91288333">
        <ele>475.0</ele>
        <time>2018-10-06T07:30:56.000Z</time>
      </trkpt>
      <trkpt lat="38.12846333" lon="-4.91288333">
        <ele>475.0</ele>
        <time>2018-10-06T07:30:57.000Z</time>
      </trkpt>
      <trkpt lat="38.12846333" lon="-4.91288333">
        <ele>475.0</ele>
        <time>2018-10-06T07:30:58.000Z</time>
      </trkpt>
      <trkpt lat="38.12846333" lon="-4.91288333">
        <ele>475.0</ele>
        <time>2018-10-06T07:30:59.000Z</time>
      </trkpt>
      <trkpt lat="38.12846333" lon="-4.91288333">
        <ele>475.0</ele>
        <time>2018-10-06T07:31:00.000Z</time>
      </trkpt>
      <trkpt lat="38.12846333" lon="-4.91288333">
        <ele>475.0</ele>
        <time>2018-10-06T07:31:01.000Z</time>
      </trkpt>
      <trkpt lat="38.12846333" lon="-4.91288333">
        <ele>475.0</ele>
        <time>2018-10-06T07:31:02.000Z</time>
      </trkpt>
      <trkpt lat="38.12846333" lon="-4.91288333">
        <ele>475.0</ele>
        <time>2018-10-06T07:31:03.000Z</time>
      </trkpt>
      <trkpt lat="38.12846333" lon="-4.91288333">
        <ele>475.0</ele>
        <time>2018-10-06T07:31:04.000Z</time>
      </trkpt>
      <trkpt lat="38.12846333" lon="-4.91288333">
        <ele>475.0</ele>
        <time>2018-10-06T07:31:05.000Z</time>
      </trkpt>
      <trkpt lat="38.12846333" lon="-4.91288333">
        <ele>475.0</ele>
        <time>2018-10-06T07:31:06.000Z</time>
      </trkpt>
      <trkpt lat="38.12846333" lon="-4.91288333">
        <ele>475.0</ele>
        <time>2018-10-06T07:31:07.000Z</time>
      </trkpt>
      <trkpt lat="38.12846333" lon="-4.91288333">
        <ele>475.0</ele>
        <time>2018-10-06T07:31:08.000Z</time>
      </trkpt>
      <trkpt lat="38.12864" lon="-4.913265">
        <ele>469.0</ele>
        <time>2018-10-06T07:31:09.000Z</time>
      </trkpt>
      <trkpt lat="38.12864667" lon="-4.913295">
        <ele>469.0</ele>
        <time>2018-10-06T07:31:10.000Z</time>
      </trkpt>
      <trkpt lat="38.128655" lon="-4.91333167">
        <ele>470.0</ele>
        <time>2018-10-06T07:31:11.000Z</time>
      </trkpt>
      <trkpt lat="38.128665" lon="-4.913365">
        <ele>470.0</ele>
        <time>2018-10-06T07:31:12.000Z</time>
      </trkpt>
      <trkpt lat="38.12867833" lon="-4.91339333">
        <ele>471.0</ele>
        <time>2018-10-06T07:31:13.000Z</time>
      </trkpt>
      <trkpt lat="38.12869" lon="-4.91342">
        <ele>471.0</ele>
        <time>2018-10-06T07:31:14.000Z</time>
      </trkpt>
      <trkpt lat="38.1287" lon="-4.913445">
        <ele>471.0</ele>
        <time>2018-10-06T07:31:15.000Z</time>
      </trkpt>
      <trkpt lat="38.12871167" lon="-4.91347167">
        <ele>471.0</ele>
        <time>2018-10-06T07:31:16.000Z</time>
      </trkpt>
      <trkpt lat="38.12872167" lon="-4.913495">
        <ele>472.0</ele>
        <time>2018-10-06T07:31:17.000Z</time>
      </trkpt>
      <trkpt lat="38.12872667" lon="-4.91351667">
        <ele>472.0</ele>
        <time>2018-10-06T07:31:18.000Z</time>
      </trkpt>
      <trkpt lat="38.12873333" lon="-4.91354">
        <ele>472.0</ele>
        <time>2018-10-06T07:31:19.000Z</time>
      </trkpt>
      <trkpt lat="38.12874" lon="-4.91356167">
        <ele>472.0</ele>
        <time>2018-10-06T07:31:20.000Z</time>
      </trkpt>
      <trkpt lat="38.12874" lon="-4.91356167">
        <ele>472.0</ele>
        <time>2018-10-06T07:31:21.000Z</time>
      </trkpt>
      <trkpt lat="38.12874" lon="-4.91356167">
        <ele>472.0</ele>
        <time>2018-10-06T07:31:22.000Z</time>
      </trkpt>
      <trkpt lat="38.12874" lon="-4.91356167">
        <ele>472.0</ele>
        <time>2018-10-06T07:31:23.000Z</time>
      </trkpt>
      <trkpt lat="38.12874" lon="-4.91356167">
        <ele>472.0</ele>
        <time>2018-10-06T07:31:24.000Z</time>
      </trkpt>
      <trkpt lat="38.12874" lon="-4.91356167">
        <ele>472.0</ele>
        <time>2018-10-06T07:31:25.000Z</time>
      </trkpt>
      <trkpt lat="38.12874" lon="-4.91356167">
        <ele>472.0</ele>
        <time>2018-10-06T07:31:26.000Z</time>
      </trkpt>
      <trkpt lat="38.12874" lon="-4.91356167">
        <ele>472.0</ele>
        <time>2018-10-06T07:31:27.000Z</time>
      </trkpt>
      <trkpt lat="38.12874" lon="-4.91356167">
        <ele>472.0</ele>
        <time>2018-10-06T07:31:28.000Z</time>
      </trkpt>
      <trkpt lat="38.12874" lon="-4.91356167">
        <ele>472.0</ele>
        <time>2018-10-06T07:31:29.000Z</time>
      </trkpt>
      <trkpt lat="38.12874" lon="-4.91356167">
        <ele>472.0</ele>
        <time>2018-10-06T07:31:30.000Z</time>
      </trkpt>
      <trkpt lat="38.12874" lon="-4.91356167">
        <ele>472.0</ele>
        <time>2018-10-06T07:31:31.000Z</time>
      </trkpt>
      <trkpt lat="38.12874" lon="-4.91356167">
        <ele>472.0</ele>
        <time>2018-10-06T07:31:32.000Z</time>
      </trkpt>
      <trkpt lat="38.12874" lon="-4.91356167">
        <ele>472.0</ele>
        <time>2018-10-06T07:31:33.000Z</time>
      </trkpt>
      <trkpt lat="38.12874" lon="-4.91356167">
        <ele>472.0</ele>
        <time>2018-10-06T07:31:34.000Z</time>
      </trkpt>
      <trkpt lat="38.12874" lon="-4.91356167">
        <ele>472.0</ele>
        <time>2018-10-06T07:31:35.000Z</time>
      </trkpt>
      <trkpt lat="38.12874" lon="-4.91356167">
        <ele>472.0</ele>
        <time>2018-10-06T07:31:36.000Z</time>
      </trkpt>
      <trkpt lat="38.12874" lon="-4.91356167">
        <ele>472.0</ele>
        <time>2018-10-06T07:31:37.000Z</time>
      </trkpt>
      <trkpt lat="38.12874" lon="-4.91356167">
        <ele>472.0</ele>
        <time>2018-10-06T07:31:38.000Z</time>
      </trkpt>
      <trkpt lat="38.12874" lon="-4.91356167">
        <ele>472.0</ele>
        <time>2018-10-06T07:31:39.000Z</time>
      </trkpt>
      <trkpt lat="38.12874" lon="-4.91356167">
        <ele>472.0</ele>
        <time>2018-10-06T07:31:40.000Z</time>
      </trkpt>
      <trkpt lat="38.12874" lon="-4.91356167">
        <ele>472.0</ele>
        <time>2018-10-06T07:31:41.000Z</time>
      </trkpt>
      <trkpt lat="38.12874" lon="-4.91356167">
        <ele>472.0</ele>
        <time>2018-10-06T07:31:42.000Z</time>
      </trkpt>
      <trkpt lat="38.12874" lon="-4.91356167">
        <ele>472.0</ele>
        <time>2018-10-06T07:31:43.000Z</time>
      </trkpt>
      <trkpt lat="38.12874" lon="-4.91356167">
        <ele>472.0</ele>
        <time>2018-10-06T07:31:44.000Z</time>
      </trkpt>
      <trkpt lat="38.12874" lon="-4.91356167">
        <ele>472.0</ele>
        <time>2018-10-06T07:31:45.000Z</time>
      </trkpt>
      <trkpt lat="38.12874" lon="-4.91356167">
        <ele>472.0</ele>
        <time>2018-10-06T07:31:46.000Z</time>
      </trkpt>
      <trkpt lat="38.12874" lon="-4.91356167">
        <ele>472.0</ele>
        <time>2018-10-06T07:31:47.000Z</time>
      </trkpt>
      <trkpt lat="38.12874" lon="-4.91356167">
        <ele>472.0</ele>
        <time>2018-10-06T07:31:48.000Z</time>
      </trkpt>
      <trkpt lat="38.12874" lon="-4.91356167">
        <ele>472.0</ele>
        <time>2018-10-06T07:31:49.000Z</time>
      </trkpt>
      <trkpt lat="38.12874" lon="-4.91356167">
        <ele>472.0</ele>
        <time>2018-10-06T07:31:50.000Z</time>
      </trkpt>
      <trkpt lat="38.12874" lon="-4.91356167">
        <ele>472.0</ele>
        <time>2018-10-06T07:31:51.000Z</time>
      </trkpt>
      <trkpt lat="38.12874" lon="-4.91356167">
        <ele>472.0</ele>
        <time>2018-10-06T07:31:52.000Z</time>
      </trkpt>
      <trkpt lat="38.12874" lon="-4.91356167">
        <ele>472.0</ele>
        <time>2018-10-06T07:31:53.000Z</time>
      </trkpt>
      <trkpt lat="38.12874" lon="-4.91356167">
        <ele>472.0</ele>
        <time>2018-10-06T07:31:54.000Z</time>
      </trkpt>
      <trkpt lat="38.12874" lon="-4.91356167">
        <ele>472.0</ele>
        <time>2018-10-06T07:31:55.000Z</time>
      </trkpt>
      <trkpt lat="38.12874" lon="-4.91356167">
        <ele>472.0</ele>
        <time>2018-10-06T07:31:56.000Z</time>
      </trkpt>
      <trkpt lat="38.12874" lon="-4.91356167">
        <ele>472.0</ele>
        <time>2018-10-06T07:31:57.000Z</time>
      </trkpt>
      <trkpt lat="38.12874" lon="-4.91356167">
        <ele>472.0</ele>
        <time>2018-10-06T07:31:58.000Z</time>
      </trkpt>
      <trkpt lat="38.12874" lon="-4.91356167">
        <ele>472.0</ele>
        <time>2018-10-06T07:31:59.000Z</time>
      </trkpt>
      <trkpt lat="38.12874" lon="-4.91356167">
        <ele>472.0</ele>
        <time>2018-10-06T07:32:00.000Z</time>
      </trkpt>
      <trkpt lat="38.12874" lon="-4.91356167">
        <ele>472.0</ele>
        <time>2018-10-06T07:32:01.000Z</time>
      </trkpt>
      <trkpt lat="38.12874" lon="-4.91356167">
        <ele>472.0</ele>
        <time>2018-10-06T07:32:02.000Z</time>
      </trkpt>
      <trkpt lat="38.12874" lon="-4.91356167">
        <ele>472.0</ele>
        <time>2018-10-06T07:32:03.000Z</time>
      </trkpt>
      <trkpt lat="38.12874" lon="-4.91356167">
        <ele>472.0</ele>
        <time>2018-10-06T07:32:04.000Z</time>
      </trkpt>
      <trkpt lat="38.12874" lon="-4.91356167">
        <ele>472.0</ele>
        <time>2018-10-06T07:32:05.000Z</time>
      </trkpt>
      <trkpt lat="38.12874" lon="-4.91356167">
        <ele>472.0</ele>
        <time>2018-10-06T07:32:06.000Z</time>
      </trkpt>
      <trkpt lat="38.12874" lon="-4.91356167">
        <ele>472.0</ele>
        <time>2018-10-06T07:32:07.000Z</time>
      </trkpt>
      <trkpt lat="38.12874" lon="-4.91356167">
        <ele>472.0</ele>
        <time>2018-10-06T07:32:08.000Z</time>
      </trkpt>
      <trkpt lat="38.12874" lon="-4.91356167">
        <ele>472.0</ele>
        <time>2018-10-06T07:32:09.000Z</time>
      </trkpt>
      <trkpt lat="38.12906833" lon="-4.91403">
        <ele>466.0</ele>
        <time>2018-10-06T07:32:10.000Z</time>
      </trkpt>
      <trkpt lat="38.12906833" lon="-4.91405667">
        <ele>469.0</ele>
        <time>2018-10-06T07:32:11.000Z</time>
      </trkpt>
      <trkpt lat="38.129065" lon="-4.91407833">
        <ele>472.0</ele>
        <time>2018-10-06T07:32:12.000Z</time>
      </trkpt>
      <trkpt lat="38.12906333" lon="-4.91409833">
        <ele>474.0</ele>
        <time>2018-10-06T07:32:13.000Z</time>
      </trkpt>
      <trkpt lat="38.12906" lon="-4.91411833">
        <ele>476.0</ele>
        <time>2018-10-06T07:32:14.000Z</time>
      </trkpt>
      <trkpt lat="38.12905667" lon="-4.914135">
        <ele>479.0</ele>
        <time>2018-10-06T07:32:15.000Z</time>
      </trkpt>
      <trkpt lat="38.129055" lon="-4.91415333">
        <ele>481.0</ele>
        <time>2018-10-06T07:32:16.000Z</time>
      </trkpt>
      <trkpt lat="38.12905333" lon="-4.91417">
        <ele>482.0</ele>
        <time>2018-10-06T07:32:17.000Z</time>
      </trkpt>
      <trkpt lat="38.129055" lon="-4.914185">
        <ele>484.0</ele>
        <time>2018-10-06T07:32:18.000Z</time>
      </trkpt>
      <trkpt lat="38.12905667" lon="-4.91419833">
        <ele>484.0</ele>
        <time>2018-10-06T07:32:19.000Z</time>
      </trkpt>
      <trkpt lat="38.12905833" lon="-4.91420833">
        <ele>485.0</ele>
        <time>2018-10-06T07:32:20.000Z</time>
      </trkpt>
      <trkpt lat="38.12905833" lon="-4.91420833">
        <ele>485.0</ele>
        <time>2018-10-06T07:32:21.000Z</time>
      </trkpt>
      <trkpt lat="38.12905833" lon="-4.91420833">
        <ele>485.0</ele>
        <time>2018-10-06T07:32:22.000Z</time>
      </trkpt>
      <trkpt lat="38.12905833" lon="-4.91420833">
        <ele>485.0</ele>
        <time>2018-10-06T07:32:23.000Z</time>
      </trkpt>
      <trkpt lat="38.12905833" lon="-4.91420833">
        <ele>485.0</ele>
        <time>2018-10-06T07:32:24.000Z</time>
      </trkpt>
      <trkpt lat="38.12905833" lon="-4.91420833">
        <ele>485.0</ele>
        <time>2018-10-06T07:32:25.000Z</time>
      </trkpt>
      <trkpt lat="38.12905833" lon="-4.91420833">
        <ele>485.0</ele>
        <time>2018-10-06T07:32:26.000Z</time>
      </trkpt>
      <trkpt lat="38.12905833" lon="-4.91420833">
        <ele>485.0</ele>
        <time>2018-10-06T07:32:27.000Z</time>
      </trkpt>
      <trkpt lat="38.12905833" lon="-4.91420833">
        <ele>485.0</ele>
        <time>2018-10-06T07:32:28.000Z</time>
      </trkpt>
      <trkpt lat="38.12905833" lon="-4.91420833">
        <ele>485.0</ele>
        <time>2018-10-06T07:32:29.000Z</time>
      </trkpt>
      <trkpt lat="38.12905833" lon="-4.91420833">
        <ele>485.0</ele>
        <time>2018-10-06T07:32:30.000Z</time>
      </trkpt>
      <trkpt lat="38.12905833" lon="-4.91420833">
        <ele>485.0</ele>
        <time>2018-10-06T07:32:31.000Z</time>
      </trkpt>
      <trkpt lat="38.12905833" lon="-4.91420833">
        <ele>485.0</ele>
        <time>2018-10-06T07:32:32.000Z</time>
      </trkpt>
      <trkpt lat="38.12905833" lon="-4.91420833">
        <ele>485.0</ele>
        <time>2018-10-06T07:32:33.000Z</time>
      </trkpt>
      <trkpt lat="38.12905833" lon="-4.91420833">
        <ele>485.0</ele>
        <time>2018-10-06T07:32:34.000Z</time>
      </trkpt>
      <trkpt lat="38.12905833" lon="-4.91420833">
        <ele>485.0</ele>
        <time>2018-10-06T07:32:35.000Z</time>
      </trkpt>
      <trkpt lat="38.12905833" lon="-4.91420833">
        <ele>485.0</ele>
        <time>2018-10-06T07:32:36.000Z</time>
      </trkpt>
      <trkpt lat="38.12905833" lon="-4.91420833">
        <ele>485.0</ele>
        <time>2018-10-06T07:32:37.000Z</time>
      </trkpt>
      <trkpt lat="38.12905833" lon="-4.91420833">
        <ele>485.0</ele>
        <time>2018-10-06T07:32:38.000Z</time>
      </trkpt>
      <trkpt lat="38.12905833" lon="-4.91420833">
        <ele>485.0</ele>
        <time>2018-10-06T07:32:39.000Z</time>
      </trkpt>
      <trkpt lat="38.12905833" lon="-4.91420833">
        <ele>485.0</ele>
        <time>2018-10-06T07:32:40.000Z</time>
      </trkpt>
      <trkpt lat="38.12905833" lon="-4.91420833">
        <ele>485.0</ele>
        <time>2018-10-06T07:32:41.000Z</time>
      </trkpt>
      <trkpt lat="38.12905833" lon="-4.91420833">
        <ele>485.0</ele>
        <time>2018-10-06T07:32:42.000Z</time>
      </trkpt>
      <trkpt lat="38.12905833" lon="-4.91420833">
        <ele>485.0</ele>
        <time>2018-10-06T07:32:43.000Z</time>
      </trkpt>
      <trkpt lat="38.12905833" lon="-4.91420833">
        <ele>485.0</ele>
        <time>2018-10-06T07:32:44.000Z</time>
      </trkpt>
      <trkpt lat="38.12905833" lon="-4.91420833">
        <ele>485.0</ele>
        <time>2018-10-06T07:32:45.000Z</time>
      </trkpt>
      <trkpt lat="38.12905833" lon="-4.91420833">
        <ele>485.0</ele>
        <time>2018-10-06T07:32:46.000Z</time>
      </trkpt>
      <trkpt lat="38.12905833" lon="-4.91420833">
        <ele>485.0</ele>
        <time>2018-10-06T07:32:47.000Z</time>
      </trkpt>
      <trkpt lat="38.12905833" lon="-4.91420833">
        <ele>485.0</ele>
        <time>2018-10-06T07:32:48.000Z</time>
      </trkpt>
      <trkpt lat="38.12905833" lon="-4.91420833">
        <ele>485.0</ele>
        <time>2018-10-06T07:32:49.000Z</time>
      </trkpt>
      <trkpt lat="38.12905833" lon="-4.91420833">
        <ele>485.0</ele>
        <time>2018-10-06T07:32:50.000Z</time>
      </trkpt>
      <trkpt lat="38.12905833" lon="-4.91420833">
        <ele>485.0</ele>
        <time>2018-10-06T07:32:51.000Z</time>
      </trkpt>
      <trkpt lat="38.12905833" lon="-4.91420833">
        <ele>485.0</ele>
        <time>2018-10-06T07:32:52.000Z</time>
      </trkpt>
      <trkpt lat="38.12905833" lon="-4.91420833">
        <ele>485.0</ele>
        <time>2018-10-06T07:32:53.000Z</time>
      </trkpt>
      <trkpt lat="38.12905833" lon="-4.91420833">
        <ele>485.0</ele>
        <time>2018-10-06T07:32:54.000Z</time>
      </trkpt>
      <trkpt lat="38.12905833" lon="-4.91420833">
        <ele>485.0</ele>
        <time>2018-10-06T07:32:55.000Z</time>
      </trkpt>
      <trkpt lat="38.12905833" lon="-4.91420833">
        <ele>485.0</ele>
        <time>2018-10-06T07:32:56.000Z</time>
      </trkpt>
      <trkpt lat="38.12905833" lon="-4.91420833">
        <ele>485.0</ele>
        <time>2018-10-06T07:32:57.000Z</time>
      </trkpt>
      <trkpt lat="38.12905833" lon="-4.91420833">
        <ele>485.0</ele>
        <time>2018-10-06T07:32:58.000Z</time>
      </trkpt>
      <trkpt lat="38.12905833" lon="-4.91420833">
        <ele>485.0</ele>
        <time>2018-10-06T07:32:59.000Z</time>
      </trkpt>
      <trkpt lat="38.12905833" lon="-4.91420833">
        <ele>485.0</ele>
        <time>2018-10-06T07:33:00.000Z</time>
      </trkpt>
      <trkpt lat="38.12905833" lon="-4.91420833">
        <ele>485.0</ele>
        <time>2018-10-06T07:33:01.000Z</time>
      </trkpt>
      <trkpt lat="38.12905833" lon="-4.91420833">
        <ele>485.0</ele>
        <time>2018-10-06T07:33:02.000Z</time>
      </trkpt>
      <trkpt lat="38.12905833" lon="-4.91420833">
        <ele>485.0</ele>
        <time>2018-10-06T07:33:03.000Z</time>
      </trkpt>
      <trkpt lat="38.12905833" lon="-4.91420833">
        <ele>485.0</ele>
        <time>2018-10-06T07:33:04.000Z</time>
      </trkpt>
      <trkpt lat="38.12905833" lon="-4.91420833">
        <ele>485.0</ele>
        <time>2018-10-06T07:33:05.000Z</time>
      </trkpt>
      <trkpt lat="38.12905833" lon="-4.91420833">
        <ele>485.0</ele>
        <time>2018-10-06T07:33:06.000Z</time>
      </trkpt>
      <trkpt lat="38.12905833" lon="-4.91420833">
        <ele>485.0</ele>
        <time>2018-10-06T07:33:07.000Z</time>
      </trkpt>
      <trkpt lat="38.12905833" lon="-4.91420833">
        <ele>485.0</ele>
        <time>2018-10-06T07:33:08.000Z</time>
      </trkpt>
      <trkpt lat="38.12905833" lon="-4.91420833">
        <ele>485.0</ele>
        <time>2018-10-06T07:33:09.000Z</time>
      </trkpt>
      <trkpt lat="38.12898333" lon="-4.91420333">
        <ele>486.0</ele>
        <time>2018-10-06T07:33:10.000Z</time>
      </trkpt>
      <trkpt lat="38.12897167" lon="-4.91422167">
        <ele>485.0</ele>
        <time>2018-10-06T07:33:11.000Z</time>
      </trkpt>
      <trkpt lat="38.12896167" lon="-4.91424167">
        <ele>485.0</ele>
        <time>2018-10-06T07:33:12.000Z</time>
      </trkpt>
      <trkpt lat="38.12895167" lon="-4.91426167">
        <ele>483.0</ele>
        <time>2018-10-06T07:33:13.000Z</time>
      </trkpt>
      <trkpt lat="38.12894333" lon="-4.91427667">
        <ele>482.0</ele>
        <time>2018-10-06T07:33:14.000Z</time>
      </trkpt>
      <trkpt lat="38.12893667" lon="-4.91429167">
        <ele>482.0</ele>
        <time>2018-10-06T07:33:15.000Z</time>
      </trkpt>
      <trkpt lat="38.12892833" lon="-4.91430333">
        <ele>481.0</ele>
        <time>2018-10-06T07:33:16.000Z</time>
      </trkpt>
      <trkpt lat="38.12892" lon="-4.91431667">
        <ele>480.0</ele>
        <time>2018-10-06T07:33:17.000Z</time>
      </trkpt>
      <trkpt lat="38.12891167" lon="-4.91432833">
        <ele>479.0</ele>
        <time>2018-10-06T07:33:18.000Z</time>
      </trkpt>
      <trkpt lat="38.12890333" lon="-4.91434167">
        <ele>479.0</ele>
        <time>2018-10-06T07:33:19.000Z</time>
      </trkpt>
      <trkpt lat="38.128895" lon="-4.91435833">
        <ele>478.0</ele>
        <time>2018-10-06T07:33:20.000Z</time>
      </trkpt>
      <trkpt lat="38.12889333" lon="-4.914365">
        <ele>478.0</ele>
        <time>2018-10-06T07:33:21.000Z</time>
      </trkpt>
      <trkpt lat="38.12889333" lon="-4.914365">
        <ele>478.0</ele>
        <time>2018-10-06T07:33:22.000Z</time>
      </trkpt>
      <trkpt lat="38.12889333" lon="-4.914365">
        <ele>478.0</ele>
        <time>2018-10-06T07:33:23.000Z</time>
      </trkpt>
      <trkpt lat="38.12889333" lon="-4.914365">
        <ele>478.0</ele>
        <time>2018-10-06T07:33:24.000Z</time>
      </trkpt>
      <trkpt lat="38.12889333" lon="-4.914365">
        <ele>478.0</ele>
        <time>2018-10-06T07:33:25.000Z</time>
      </trkpt>
      <trkpt lat="38.12889333" lon="-4.914365">
        <ele>478.0</ele>
        <time>2018-10-06T07:33:26.000Z</time>
      </trkpt>
      <trkpt lat="38.12889333" lon="-4.914365">
        <ele>478.0</ele>
        <time>2018-10-06T07:33:27.000Z</time>
      </trkpt>
      <trkpt lat="38.12889333" lon="-4.914365">
        <ele>478.0</ele>
        <time>2018-10-06T07:33:28.000Z</time>
      </trkpt>
      <trkpt lat="38.12889333" lon="-4.914365">
        <ele>478.0</ele>
        <time>2018-10-06T07:33:29.000Z</time>
      </trkpt>
      <trkpt lat="38.12889333" lon="-4.914365">
        <ele>478.0</ele>
        <time>2018-10-06T07:33:30.000Z</time>
      </trkpt>
      <trkpt lat="38.12889333" lon="-4.914365">
        <ele>478.0</ele>
        <time>2018-10-06T07:33:31.000Z</time>
      </trkpt>
      <trkpt lat="38.12889333" lon="-4.914365">
        <ele>478.0</ele>
        <time>2018-10-06T07:33:32.000Z</time>
      </trkpt>
      <trkpt lat="38.12889333" lon="-4.914365">
        <ele>478.0</ele>
        <time>2018-10-06T07:33:33.000Z</time>
      </trkpt>
      <trkpt lat="38.12889333" lon="-4.914365">
        <ele>478.0</ele>
        <time>2018-10-06T07:33:34.000Z</time>
      </trkpt>
      <trkpt lat="38.12889333" lon="-4.914365">
        <ele>478.0</ele>
        <time>2018-10-06T07:33:35.000Z</time>
      </trkpt>
      <trkpt lat="38.12889333" lon="-4.914365">
        <ele>478.0</ele>
        <time>2018-10-06T07:33:36.000Z</time>
      </trkpt>
      <trkpt lat="38.12889333" lon="-4.914365">
        <ele>478.0</ele>
        <time>2018-10-06T07:33:37.000Z</time>
      </trkpt>
      <trkpt lat="38.12889333" lon="-4.914365">
        <ele>478.0</ele>
        <time>2018-10-06T07:33:38.000Z</time>
      </trkpt>
      <trkpt lat="38.12889333" lon="-4.914365">
        <ele>478.0</ele>
        <time>2018-10-06T07:33:39.000Z</time>
      </trkpt>
      <trkpt lat="38.12889333" lon="-4.914365">
        <ele>478.0</ele>
        <time>2018-10-06T07:33:40.000Z</time>
      </trkpt>
      <trkpt lat="38.12889333" lon="-4.914365">
        <ele>478.0</ele>
        <time>2018-10-06T07:33:41.000Z</time>
      </trkpt>
      <trkpt lat="38.12889333" lon="-4.914365">
        <ele>478.0</ele>
        <time>2018-10-06T07:33:42.000Z</time>
      </trkpt>
      <trkpt lat="38.12889333" lon="-4.914365">
        <ele>478.0</ele>
        <time>2018-10-06T07:33:43.000Z</time>
      </trkpt>
      <trkpt lat="38.12889333" lon="-4.914365">
        <ele>478.0</ele>
        <time>2018-10-06T07:33:44.000Z</time>
      </trkpt>
      <trkpt lat="38.12889333" lon="-4.914365">
        <ele>478.0</ele>
        <time>2018-10-06T07:33:45.000Z</time>
      </trkpt>
      <trkpt lat="38.12889333" lon="-4.914365">
        <ele>478.0</ele>
        <time>2018-10-06T07:33:46.000Z</time>
      </trkpt>
      <trkpt lat="38.12889333" lon="-4.914365">
        <ele>478.0</ele>
        <time>2018-10-06T07:33:47.000Z</time>
      </trkpt>
      <trkpt lat="38.12889333" lon="-4.914365">
        <ele>478.0</ele>
        <time>2018-10-06T07:33:48.000Z</time>
      </trkpt>
      <trkpt lat="38.12889333" lon="-4.914365">
        <ele>478.0</ele>
        <time>2018-10-06T07:33:49.000Z</time>
      </trkpt>
      <trkpt lat="38.12889333" lon="-4.914365">
        <ele>478.0</ele>
        <time>2018-10-06T07:33:50.000Z</time>
      </trkpt>
      <trkpt lat="38.12889333" lon="-4.914365">
        <ele>478.0</ele>
        <time>2018-10-06T07:33:51.000Z</time>
      </trkpt>
      <trkpt lat="38.12889333" lon="-4.914365">
        <ele>478.0</ele>
        <time>2018-10-06T07:33:52.000Z</time>
      </trkpt>
      <trkpt lat="38.12889333" lon="-4.914365">
        <ele>478.0</ele>
        <time>2018-10-06T07:33:53.000Z</time>
      </trkpt>
      <trkpt lat="38.12889333" lon="-4.914365">
        <ele>478.0</ele>
        <time>2018-10-06T07:33:54.000Z</time>
      </trkpt>
      <trkpt lat="38.12889333" lon="-4.914365">
        <ele>478.0</ele>
        <time>2018-10-06T07:33:55.000Z</time>
      </trkpt>
      <trkpt lat="38.12889333" lon="-4.914365">
        <ele>478.0</ele>
        <time>2018-10-06T07:33:56.000Z</time>
      </trkpt>
      <trkpt lat="38.12889333" lon="-4.914365">
        <ele>478.0</ele>
        <time>2018-10-06T07:33:57.000Z</time>
      </trkpt>
      <trkpt lat="38.12889333" lon="-4.914365">
        <ele>478.0</ele>
        <time>2018-10-06T07:33:58.000Z</time>
      </trkpt>
      <trkpt lat="38.12889333" lon="-4.914365">
        <ele>478.0</ele>
        <time>2018-10-06T07:33:59.000Z</time>
      </trkpt>
      <trkpt lat="38.12889333" lon="-4.914365">
        <ele>478.0</ele>
        <time>2018-10-06T07:34:00.000Z</time>
      </trkpt>
      <trkpt lat="38.12889333" lon="-4.914365">
        <ele>478.0</ele>
        <time>2018-10-06T07:34:01.000Z</time>
      </trkpt>
      <trkpt lat="38.12889333" lon="-4.914365">
        <ele>478.0</ele>
        <time>2018-10-06T07:34:02.000Z</time>
      </trkpt>
      <trkpt lat="38.12889333" lon="-4.914365">
        <ele>478.0</ele>
        <time>2018-10-06T07:34:03.000Z</time>
      </trkpt>
      <trkpt lat="38.12889333" lon="-4.914365">
        <ele>478.0</ele>
        <time>2018-10-06T07:34:04.000Z</time>
      </trkpt>
      <trkpt lat="38.12889333" lon="-4.914365">
        <ele>478.0</ele>
        <time>2018-10-06T07:34:05.000Z</time>
      </trkpt>
      <trkpt lat="38.12889333" lon="-4.914365">
        <ele>478.0</ele>
        <time>2018-10-06T07:34:06.000Z</time>
      </trkpt>
      <trkpt lat="38.12889333" lon="-4.914365">
        <ele>478.0</ele>
        <time>2018-10-06T07:34:07.000Z</time>
      </trkpt>
      <trkpt lat="38.12889333" lon="-4.914365">
        <ele>478.0</ele>
        <time>2018-10-06T07:34:08.000Z</time>
      </trkpt>
      <trkpt lat="38.12889333" lon="-4.914365">
        <ele>478.0</ele>
        <time>2018-10-06T07:34:09.000Z</time>
      </trkpt>
      <trkpt lat="38.12865" lon="-4.914645">
        <ele>473.0</ele>
        <time>2018-10-06T07:34:10.000Z</time>
      </trkpt>
      <trkpt lat="38.12864333" lon="-4.91465667">
        <ele>473.0</ele>
        <time>2018-10-06T07:34:11.000Z</time>
      </trkpt>
      <trkpt lat="38.12863667" lon="-4.91466667">
        <ele>474.0</ele>
        <time>2018-10-06T07:34:12.000Z</time>
      </trkpt>
      <trkpt lat="38.12862833" lon="-4.91467833">
        <ele>474.0</ele>
        <time>2018-10-06T07:34:13.000Z</time>
      </trkpt>
      <trkpt lat="38.12862333" lon="-4.91469167">
        <ele>474.0</ele>
        <time>2018-10-06T07:34:14.000Z</time>
      </trkpt>
      <trkpt lat="38.12862167" lon="-4.91470167">
        <ele>474.0</ele>
        <time>2018-10-06T07:34:15.000Z</time>
      </trkpt>
      <trkpt lat="38.12861833" lon="-4.91471667">
        <ele>474.0</ele>
        <time>2018-10-06T07:34:16.000Z</time>
      </trkpt>
      <trkpt lat="38.128615" lon="-4.91473">
        <ele>474.0</ele>
        <time>2018-10-06T07:34:17.000Z</time>
      </trkpt>
      <trkpt lat="38.128615" lon="-4.91474">
        <ele>474.0</ele>
        <time>2018-10-06T07:34:18.000Z</time>
      </trkpt>
      <trkpt lat="38.12861" lon="-4.91475333">
        <ele>475.0</ele>
        <time>2018-10-06T07:34:19.000Z</time>
      </trkpt>
      <trkpt lat="38.12860667" lon="-4.91476">
        <ele>475.0</ele>
        <time>2018-10-06T07:34:20.000Z</time>
      </trkpt>
      <trkpt lat="38.12860333" lon="-4.91477">
        <ele>475.0</ele>
        <time>2018-10-06T07:34:21.000Z</time>
      </trkpt>
      <trkpt lat="38.12860333" lon="-4.91477">
        <ele>475.0</ele>
        <time>2018-10-06T07:34:22.000Z</time>
      </trkpt>
      <trkpt lat="38.12860333" lon="-4.91477">
        <ele>475.0</ele>
        <time>2018-10-06T07:34:23.000Z</time>
      </trkpt>
      <trkpt lat="38.12860333" lon="-4.91477">
        <ele>475.0</ele>
        <time>2018-10-06T07:34:24.000Z</time>
      </trkpt>
      <trkpt lat="38.12860333" lon="-4.91477">
        <ele>475.0</ele>
        <time>2018-10-06T07:34:25.000Z</time>
      </trkpt>
      <trkpt lat="38.12860333" lon="-4.91477">
        <ele>475.0</ele>
        <time>2018-10-06T07:34:26.000Z</time>
      </trkpt>
      <trkpt lat="38.12860333" lon="-4.91477">
        <ele>475.0</ele>
        <time>2018-10-06T07:34:27.000Z</time>
      </trkpt>
      <trkpt lat="38.12860333" lon="-4.91477">
        <ele>475.0</ele>
        <time>2018-10-06T07:34:28.000Z</time>
      </trkpt>
      <trkpt lat="38.12860333" lon="-4.91477">
        <ele>475.0</ele>
        <time>2018-10-06T07:34:29.000Z</time>
      </trkpt>
      <trkpt lat="38.12860333" lon="-4.91477">
        <ele>475.0</ele>
        <time>2018-10-06T07:34:30.000Z</time>
      </trkpt>
      <trkpt lat="38.12860333" lon="-4.91477">
        <ele>475.0</ele>
        <time>2018-10-06T07:34:31.000Z</time>
      </trkpt>
      <trkpt lat="38.12860333" lon="-4.91477">
        <ele>475.0</ele>
        <time>2018-10-06T07:34:32.000Z</time>
      </trkpt>
      <trkpt lat="38.12860333" lon="-4.91477">
        <ele>475.0</ele>
        <time>2018-10-06T07:34:33.000Z</time>
      </trkpt>
      <trkpt lat="38.12860333" lon="-4.91477">
        <ele>475.0</ele>
        <time>2018-10-06T07:34:34.000Z</time>
      </trkpt>
      <trkpt lat="38.12860333" lon="-4.91477">
        <ele>475.0</ele>
        <time>2018-10-06T07:34:35.000Z</time>
      </trkpt>
      <trkpt lat="38.12860333" lon="-4.91477">
        <ele>475.0</ele>
        <time>2018-10-06T07:34:36.000Z</time>
      </trkpt>
      <trkpt lat="38.12860333" lon="-4.91477">
        <ele>475.0</ele>
        <time>2018-10-06T07:34:37.000Z</time>
      </trkpt>
      <trkpt lat="38.12860333" lon="-4.91477">
        <ele>475.0</ele>
        <time>2018-10-06T07:34:38.000Z</time>
      </trkpt>
      <trkpt lat="38.12860333" lon="-4.91477">
        <ele>475.0</ele>
        <time>2018-10-06T07:34:39.000Z</time>
      </trkpt>
      <trkpt lat="38.12860333" lon="-4.91477">
        <ele>475.0</ele>
        <time>2018-10-06T07:34:40.000Z</time>
      </trkpt>
      <trkpt lat="38.12860333" lon="-4.91477">
        <ele>475.0</ele>
        <time>2018-10-06T07:34:41.000Z</time>
      </trkpt>
      <trkpt lat="38.12860333" lon="-4.91477">
        <ele>475.0</ele>
        <time>2018-10-06T07:34:42.000Z</time>
      </trkpt>
      <trkpt lat="38.12860333" lon="-4.91477">
        <ele>475.0</ele>
        <time>2018-10-06T07:34:43.000Z</time>
      </trkpt>
      <trkpt lat="38.12860333" lon="-4.91477">
        <ele>475.0</ele>
        <time>2018-10-06T07:34:44.000Z</time>
      </trkpt>
      <trkpt lat="38.12860333" lon="-4.91477">
        <ele>475.0</ele>
        <time>2018-10-06T07:34:45.000Z</time>
      </trkpt>
      <trkpt lat="38.12860333" lon="-4.91477">
        <ele>475.0</ele>
        <time>2018-10-06T07:34:46.000Z</time>
      </trkpt>
      <trkpt lat="38.12860333" lon="-4.91477">
        <ele>475.0</ele>
        <time>2018-10-06T07:34:47.000Z</time>
      </trkpt>
      <trkpt lat="38.12860333" lon="-4.91477">
        <ele>475.0</ele>
        <time>2018-10-06T07:34:48.000Z</time>
      </trkpt>
      <trkpt lat="38.12860333" lon="-4.91477">
        <ele>475.0</ele>
        <time>2018-10-06T07:34:49.000Z</time>
      </trkpt>
      <trkpt lat="38.12860333" lon="-4.91477">
        <ele>475.0</ele>
        <time>2018-10-06T07:34:50.000Z</time>
      </trkpt>
      <trkpt lat="38.12860333" lon="-4.91477">
        <ele>475.0</ele>
        <time>2018-10-06T07:34:51.000Z</time>
      </trkpt>
      <trkpt lat="38.12860333" lon="-4.91477">
        <ele>475.0</ele>
        <time>2018-10-06T07:34:52.000Z</time>
      </trkpt>
      <trkpt lat="38.12860333" lon="-4.91477">
        <ele>475.0</ele>
        <time>2018-10-06T07:34:53.000Z</time>
      </trkpt>
      <trkpt lat="38.12860333" lon="-4.91477">
        <ele>475.0</ele>
        <time>2018-10-06T07:34:54.000Z</time>
      </trkpt>
      <trkpt lat="38.12860333" lon="-4.91477">
        <ele>475.0</ele>
        <time>2018-10-06T07:34:55.000Z</time>
      </trkpt>
      <trkpt lat="38.12860333" lon="-4.91477">
        <ele>475.0</ele>
        <time>2018-10-06T07:34:56.000Z</time>
      </trkpt>
      <trkpt lat="38.12860333" lon="-4.91477">
        <ele>475.0</ele>
        <time>2018-10-06T07:34:57.000Z</time>
      </trkpt>
      <trkpt lat="38.12860333" lon="-4.91477">
        <ele>475.0</ele>
        <time>2018-10-06T07:34:58.000Z</time>
      </trkpt>
      <trkpt lat="38.12860333" lon="-4.91477">
        <ele>475.0</ele>
        <time>2018-10-06T07:34:59.000Z</time>
      </trkpt>
      <trkpt lat="38.12860333" lon="-4.91477">
        <ele>475.0</ele>
        <time>2018-10-06T07:35:00.000Z</time>
      </trkpt>
      <trkpt lat="38.12860333" lon="-4.91477">
        <ele>475.0</ele>
        <time>2018-10-06T07:35:01.000Z</time>
      </trkpt>
      <trkpt lat="38.12860333" lon="-4.91477">
        <ele>475.0</ele>
        <time>2018-10-06T07:35:02.000Z</time>
      </trkpt>
      <trkpt lat="38.12860333" lon="-4.91477">
        <ele>475.0</ele>
        <time>2018-10-06T07:35:03.000Z</time>
      </trkpt>
      <trkpt lat="38.12860333" lon="-4.91477">
        <ele>475.0</ele>
        <time>2018-10-06T07:35:04.000Z</time>
      </trkpt>
      <trkpt lat="38.12860333" lon="-4.91477">
        <ele>475.0</ele>
        <time>2018-10-06T07:35:05.000Z</time>
      </trkpt>
      <trkpt lat="38.12860333" lon="-4.91477">
        <ele>475.0</ele>
        <time>2018-10-06T07:35:06.000Z</time>
      </trkpt>
      <trkpt lat="38.12860333" lon="-4.91477">
        <ele>475.0</ele>
        <time>2018-10-06T07:35:07.000Z</time>
      </trkpt>
      <trkpt lat="38.12860333" lon="-4.91477">
        <ele>475.0</ele>
        <time>2018-10-06T07:35:08.000Z</time>
      </trkpt>
      <trkpt lat="38.12860333" lon="-4.91477">
        <ele>475.0</ele>
        <time>2018-10-06T07:35:09.000Z</time>
      </trkpt>
      <trkpt lat="38.12838833" lon="-4.91485833">
        <ele>478.0</ele>
        <time>2018-10-06T07:35:10.000Z</time>
      </trkpt>
      <trkpt lat="38.12839" lon="-4.91496">
        <ele>480.0</ele>
        <time>2018-10-06T07:35:11.000Z</time>
      </trkpt>
      <trkpt lat="38.12838167" lon="-4.91496833">
        <ele>480.0</ele>
        <time>2018-10-06T07:35:12.000Z</time>
      </trkpt>
      <trkpt lat="38.128375" lon="-4.91497333">
        <ele>480.0</ele>
        <time>2018-10-06T07:35:13.000Z</time>
      </trkpt>
      <trkpt lat="38.12836833" lon="-4.91498167">
        <ele>480.0</ele>
        <time>2018-10-06T07:35:14.000Z</time>
      </trkpt>
      <trkpt lat="38.12836667" lon="-4.91498833">
        <ele>480.0</ele>
        <time>2018-10-06T07:35:15.000Z</time>
      </trkpt>
      <trkpt lat="38.12836167" lon="-4.91499167">
        <ele>480.0</ele>
        <time>2018-10-06T07:35:16.000Z</time>
      </trkpt>
      <trkpt lat="38.12835667" lon="-4.91499333">
        <ele>480.0</ele>
        <time>2018-10-06T07:35:17.000Z</time>
      </trkpt>
      <trkpt lat="38.12835333" lon="-4.915">
        <ele>480.0</ele>
        <time>2018-10-06T07:35:18.000Z</time>
      </trkpt>
      <trkpt lat="38.12835" lon="-4.91500167">
        <ele>480.0</ele>
        <time>2018-10-06T07:35:19.000Z</time>
      </trkpt>
      <trkpt lat="38.12834833" lon="-4.915005">
        <ele>479.0</ele>
        <time>2018-10-06T07:35:20.000Z</time>
      </trkpt>
      <trkpt lat="38.12834833" lon="-4.91500833">
        <ele>479.0</ele>
        <time>2018-10-06T07:35:21.000Z</time>
      </trkpt>
      <trkpt lat="38.12834833" lon="-4.91500833">
        <ele>479.0</ele>
        <time>2018-10-06T07:35:22.000Z</time>
      </trkpt>
      <trkpt lat="38.12834833" lon="-4.91500833">
        <ele>479.0</ele>
        <time>2018-10-06T07:35:23.000Z</time>
      </trkpt>
      <trkpt lat="38.12834833" lon="-4.91500833">
        <ele>479.0</ele>
        <time>2018-10-06T07:35:24.000Z</time>
      </trkpt>
      <trkpt lat="38.12834833" lon="-4.91500833">
        <ele>479.0</ele>
        <time>2018-10-06T07:35:25.000Z</time>
      </trkpt>
      <trkpt lat="38.12834833" lon="-4.91500833">
        <ele>479.0</ele>
        <time>2018-10-06T07:35:26.000Z</time>
      </trkpt>
      <trkpt lat="38.12834833" lon="-4.91500833">
        <ele>479.0</ele>
        <time>2018-10-06T07:35:27.000Z</time>
      </trkpt>
      <trkpt lat="38.12834833" lon="-4.91500833">
        <ele>479.0</ele>
        <time>2018-10-06T07:35:28.000Z</time>
      </trkpt>
      <trkpt lat="38.12834833" lon="-4.91500833">
        <ele>479.0</ele>
        <time>2018-10-06T07:35:29.000Z</time>
      </trkpt>
      <trkpt lat="38.12834833" lon="-4.91500833">
        <ele>479.0</ele>
        <time>2018-10-06T07:35:30.000Z</time>
      </trkpt>
      <trkpt lat="38.12834833" lon="-4.91500833">
        <ele>479.0</ele>
        <time>2018-10-06T07:35:31.000Z</time>
      </trkpt>
      <trkpt lat="38.12834833" lon="-4.91500833">
        <ele>479.0</ele>
        <time>2018-10-06T07:35:32.000Z</time>
      </trkpt>
      <trkpt lat="38.12834833" lon="-4.91500833">
        <ele>479.0</ele>
        <time>2018-10-06T07:35:33.000Z</time>
      </trkpt>
      <trkpt lat="38.12834833" lon="-4.91500833">
        <ele>479.0</ele>
        <time>2018-10-06T07:35:34.000Z</time>
      </trkpt>
      <trkpt lat="38.12834833" lon="-4.91500833">
        <ele>479.0</ele>
        <time>2018-10-06T07:35:35.000Z</time>
      </trkpt>
      <trkpt lat="38.12834833" lon="-4.91500833">
        <ele>479.0</ele>
        <time>2018-10-06T07:35:36.000Z</time>
      </trkpt>
      <trkpt lat="38.12834833" lon="-4.91500833">
        <ele>479.0</ele>
        <time>2018-10-06T07:35:37.000Z</time>
      </trkpt>
      <trkpt lat="38.12834833" lon="-4.91500833">
        <ele>479.0</ele>
        <time>2018-10-06T07:35:38.000Z</time>
      </trkpt>
      <trkpt lat="38.12834833" lon="-4.91500833">
        <ele>479.0</ele>
        <time>2018-10-06T07:35:39.000Z</time>
      </trkpt>
      <trkpt lat="38.12834833" lon="-4.91500833">
        <ele>479.0</ele>
        <time>2018-10-06T07:35:40.000Z</time>
      </trkpt>
      <trkpt lat="38.12834833" lon="-4.91500833">
        <ele>479.0</ele>
        <time>2018-10-06T07:35:41.000Z</time>
      </trkpt>
      <trkpt lat="38.12834833" lon="-4.91500833">
        <ele>479.0</ele>
        <time>2018-10-06T07:35:42.000Z</time>
      </trkpt>
      <trkpt lat="38.12834833" lon="-4.91500833">
        <ele>479.0</ele>
        <time>2018-10-06T07:35:43.000Z</time>
      </trkpt>
      <trkpt lat="38.12834833" lon="-4.91500833">
        <ele>479.0</ele>
        <time>2018-10-06T07:35:44.000Z</time>
      </trkpt>
      <trkpt lat="38.12834833" lon="-4.91500833">
        <ele>479.0</ele>
        <time>2018-10-06T07:35:45.000Z</time>
      </trkpt>
      <trkpt lat="38.12834833" lon="-4.91500833">
        <ele>479.0</ele>
        <time>2018-10-06T07:35:46.000Z</time>
      </trkpt>
      <trkpt lat="38.12834833" lon="-4.91500833">
        <ele>479.0</ele>
        <time>2018-10-06T07:35:47.000Z</time>
      </trkpt>
      <trkpt lat="38.12834833" lon="-4.91500833">
        <ele>479.0</ele>
        <time>2018-10-06T07:35:48.000Z</time>
      </trkpt>
      <trkpt lat="38.12834833" lon="-4.91500833">
        <ele>479.0</ele>
        <time>2018-10-06T07:35:49.000Z</time>
      </trkpt>
      <trkpt lat="38.12834833" lon="-4.91500833">
        <ele>479.0</ele>
        <time>2018-10-06T07:35:50.000Z</time>
      </trkpt>
      <trkpt lat="38.12834833" lon="-4.91500833">
        <ele>479.0</ele>
        <time>2018-10-06T07:35:51.000Z</time>
      </trkpt>
      <trkpt lat="38.12834833" lon="-4.91500833">
        <ele>479.0</ele>
        <time>2018-10-06T07:35:52.000Z</time>
      </trkpt>
      <trkpt lat="38.12834833" lon="-4.91500833">
        <ele>479.0</ele>
        <time>2018-10-06T07:35:53.000Z</time>
      </trkpt>
      <trkpt lat="38.12834833" lon="-4.91500833">
        <ele>479.0</ele>
        <time>2018-10-06T07:35:54.000Z</time>
      </trkpt>
      <trkpt lat="38.12834833" lon="-4.91500833">
        <ele>479.0</ele>
        <time>2018-10-06T07:35:55.000Z</time>
      </trkpt>
      <trkpt lat="38.12834833" lon="-4.91500833">
        <ele>479.0</ele>
        <time>2018-10-06T07:35:56.000Z</time>
      </trkpt>
      <trkpt lat="38.12834833" lon="-4.91500833">
        <ele>479.0</ele>
        <time>2018-10-06T07:35:57.000Z</time>
      </trkpt>
      <trkpt lat="38.12834833" lon="-4.91500833">
        <ele>479.0</ele>
        <time>2018-10-06T07:35:58.000Z</time>
      </trkpt>
      <trkpt lat="38.12834833" lon="-4.91500833">
        <ele>479.0</ele>
        <time>2018-10-06T07:35:59.000Z</time>
      </trkpt>
      <trkpt lat="38.12834833" lon="-4.91500833">
        <ele>479.0</ele>
        <time>2018-10-06T07:36:00.000Z</time>
      </trkpt>
      <trkpt lat="38.12834833" lon="-4.91500833">
        <ele>479.0</ele>
        <time>2018-10-06T07:36:01.000Z</time>
      </trkpt>
      <trkpt lat="38.12834833" lon="-4.91500833">
        <ele>479.0</ele>
        <time>2018-10-06T07:36:02.000Z</time>
      </trkpt>
      <trkpt lat="38.12834833" lon="-4.91500833">
        <ele>479.0</ele>
        <time>2018-10-06T07:36:03.000Z</time>
      </trkpt>
      <trkpt lat="38.12834833" lon="-4.91500833">
        <ele>479.0</ele>
        <time>2018-10-06T07:36:04.000Z</time>
      </trkpt>
      <trkpt lat="38.12834833" lon="-4.91500833">
        <ele>479.0</ele>
        <time>2018-10-06T07:36:05.000Z</time>
      </trkpt>
      <trkpt lat="38.12834833" lon="-4.91500833">
        <ele>479.0</ele>
        <time>2018-10-06T07:36:06.000Z</time>
      </trkpt>
      <trkpt lat="38.12834833" lon="-4.91500833">
        <ele>479.0</ele>
        <time>2018-10-06T07:36:07.000Z</time>
      </trkpt>
      <trkpt lat="38.12834833" lon="-4.91500833">
        <ele>479.0</ele>
        <time>2018-10-06T07:36:08.000Z</time>
      </trkpt>
      <trkpt lat="38.12834833" lon="-4.91500833">
        <ele>479.0</ele>
        <time>2018-10-06T07:36:09.000Z</time>
      </trkpt>
      <trkpt lat="38.12828667" lon="-4.91507167">
        <ele>475.0</ele>
        <time>2018-10-06T07:36:10.000Z</time>
      </trkpt>
      <trkpt lat="38.12828833" lon="-4.91507333">
        <ele>475.0</ele>
        <time>2018-10-06T07:36:11.000Z</time>
      </trkpt>
      <trkpt lat="38.12829167" lon="-4.91507">
        <ele>474.0</ele>
        <time>2018-10-06T07:36:12.000Z</time>
      </trkpt>
      <trkpt lat="38.12829333" lon="-4.91506667">
        <ele>474.0</ele>
        <time>2018-10-06T07:36:13.000Z</time>
      </trkpt>
      <trkpt lat="38.12829333" lon="-4.91506167">
        <ele>474.0</ele>
        <time>2018-10-06T07:36:14.000Z</time>
      </trkpt>
      <trkpt lat="38.12829333" lon="-4.91505833">
        <ele>474.0</ele>
        <time>2018-10-06T07:36:15.000Z</time>
      </trkpt>
      <trkpt lat="38.128295" lon="-4.91505667">
        <ele>474.0</ele>
        <time>2018-10-06T07:36:16.000Z</time>
      </trkpt>
      <trkpt lat="38.12829667" lon="-4.915055">
        <ele>474.0</ele>
        <time>2018-10-06T07:36:17.000Z</time>
      </trkpt>
      <trkpt lat="38.12829833" lon="-4.91505167">
        <ele>474.0</ele>
        <time>2018-10-06T07:36:18.000Z</time>
      </trkpt>
      <trkpt lat="38.12829833" lon="-4.91505167">
        <ele>474.0</ele>
        <time>2018-10-06T07:36:19.000Z</time>
      </trkpt>
      <trkpt lat="38.12829833" lon="-4.91505167">
        <ele>474.0</ele>
        <time>2018-10-06T07:36:20.000Z</time>
      </trkpt>
      <trkpt lat="38.12830167" lon="-4.91505167">
        <ele>474.0</ele>
        <time>2018-10-06T07:36:21.000Z</time>
      </trkpt>
      <trkpt lat="38.12830167" lon="-4.91505167">
        <ele>474.0</ele>
        <time>2018-10-06T07:36:22.000Z</time>
      </trkpt>
      <trkpt lat="38.12830167" lon="-4.91505167">
        <ele>474.0</ele>
        <time>2018-10-06T07:36:23.000Z</time>
      </trkpt>
      <trkpt lat="38.12830167" lon="-4.91505167">
        <ele>474.0</ele>
        <time>2018-10-06T07:36:24.000Z</time>
      </trkpt>
      <trkpt lat="38.12830167" lon="-4.91505167">
        <ele>474.0</ele>
        <time>2018-10-06T07:36:25.000Z</time>
      </trkpt>
      <trkpt lat="38.12830167" lon="-4.91505167">
        <ele>474.0</ele>
        <time>2018-10-06T07:36:26.000Z</time>
      </trkpt>
      <trkpt lat="38.12830167" lon="-4.91505167">
        <ele>474.0</ele>
        <time>2018-10-06T07:36:27.000Z</time>
      </trkpt>
      <trkpt lat="38.12830167" lon="-4.91505167">
        <ele>474.0</ele>
        <time>2018-10-06T07:36:28.000Z</time>
      </trkpt>
      <trkpt lat="38.12830167" lon="-4.91505167">
        <ele>474.0</ele>
        <time>2018-10-06T07:36:29.000Z</time>
      </trkpt>
      <trkpt lat="38.12830167" lon="-4.91505167">
        <ele>474.0</ele>
        <time>2018-10-06T07:36:30.000Z</time>
      </trkpt>
      <trkpt lat="38.12830167" lon="-4.91505167">
        <ele>474.0</ele>
        <time>2018-10-06T07:36:31.000Z</time>
      </trkpt>
      <trkpt lat="38.12830167" lon="-4.91505167">
        <ele>474.0</ele>
        <time>2018-10-06T07:36:32.000Z</time>
      </trkpt>
      <trkpt lat="38.12830167" lon="-4.91505167">
        <ele>474.0</ele>
        <time>2018-10-06T07:36:33.000Z</time>
      </trkpt>
      <trkpt lat="38.12830167" lon="-4.91505167">
        <ele>474.0</ele>
        <time>2018-10-06T07:36:34.000Z</time>
      </trkpt>
      <trkpt lat="38.12830167" lon="-4.91505167">
        <ele>474.0</ele>
        <time>2018-10-06T07:36:35.000Z</time>
      </trkpt>
      <trkpt lat="38.12830167" lon="-4.91505167">
        <ele>474.0</ele>
        <time>2018-10-06T07:36:36.000Z</time>
      </trkpt>
      <trkpt lat="38.12830167" lon="-4.91505167">
        <ele>474.0</ele>
        <time>2018-10-06T07:36:37.000Z</time>
      </trkpt>
      <trkpt lat="38.12830167" lon="-4.91505167">
        <ele>474.0</ele>
        <time>2018-10-06T07:36:38.000Z</time>
      </trkpt>
      <trkpt lat="38.12830167" lon="-4.91505167">
        <ele>474.0</ele>
        <time>2018-10-06T07:36:39.000Z</time>
      </trkpt>
      <trkpt lat="38.12830167" lon="-4.91505167">
        <ele>474.0</ele>
        <time>2018-10-06T07:36:40.000Z</time>
      </trkpt>
      <trkpt lat="38.12830167" lon="-4.91505167">
        <ele>474.0</ele>
        <time>2018-10-06T07:36:41.000Z</time>
      </trkpt>
      <trkpt lat="38.12830167" lon="-4.91505167">
        <ele>474.0</ele>
        <time>2018-10-06T07:36:42.000Z</time>
      </trkpt>
      <trkpt lat="38.12830167" lon="-4.91505167">
        <ele>474.0</ele>
        <time>2018-10-06T07:36:43.000Z</time>
      </trkpt>
      <trkpt lat="38.12830167" lon="-4.91505167">
        <ele>474.0</ele>
        <time>2018-10-06T07:36:44.000Z</time>
      </trkpt>
      <trkpt lat="38.12830167" lon="-4.91505167">
        <ele>474.0</ele>
        <time>2018-10-06T07:36:45.000Z</time>
      </trkpt>
      <trkpt lat="38.12830167" lon="-4.91505167">
        <ele>474.0</ele>
        <time>2018-10-06T07:36:46.000Z</time>
      </trkpt>
      <trkpt lat="38.12830167" lon="-4.91505167">
        <ele>474.0</ele>
        <time>2018-10-06T07:36:47.000Z</time>
      </trkpt>
      <trkpt lat="38.12830167" lon="-4.91505167">
        <ele>474.0</ele>
        <time>2018-10-06T07:36:48.000Z</time>
      </trkpt>
      <trkpt lat="38.12830167" lon="-4.91505167">
        <ele>474.0</ele>
        <time>2018-10-06T07:36:49.000Z</time>
      </trkpt>
      <trkpt lat="38.12830167" lon="-4.91505167">
        <ele>474.0</ele>
        <time>2018-10-06T07:36:50.000Z</time>
      </trkpt>
      <trkpt lat="38.12830167" lon="-4.91505167">
        <ele>474.0</ele>
        <time>2018-10-06T07:36:51.000Z</time>
      </trkpt>
      <trkpt lat="38.12830167" lon="-4.91505167">
        <ele>474.0</ele>
        <time>2018-10-06T07:36:52.000Z</time>
      </trkpt>
      <trkpt lat="38.12830167" lon="-4.91505167">
        <ele>474.0</ele>
        <time>2018-10-06T07:36:53.000Z</time>
      </trkpt>
      <trkpt lat="38.12830167" lon="-4.91505167">
        <ele>474.0</ele>
        <time>2018-10-06T07:36:54.000Z</time>
      </trkpt>
      <trkpt lat="38.12830167" lon="-4.91505167">
        <ele>474.0</ele>
        <time>2018-10-06T07:36:55.000Z</time>
      </trkpt>
      <trkpt lat="38.12830167" lon="-4.91505167">
        <ele>474.0</ele>
        <time>2018-10-06T07:36:56.000Z</time>
      </trkpt>
      <trkpt lat="38.12830167" lon="-4.91505167">
        <ele>474.0</ele>
        <time>2018-10-06T07:36:57.000Z</time>
      </trkpt>
      <trkpt lat="38.12830167" lon="-4.91505167">
        <ele>474.0</ele>
        <time>2018-10-06T07:36:58.000Z</time>
      </trkpt>
      <trkpt lat="38.12830167" lon="-4.91505167">
        <ele>474.0</ele>
        <time>2018-10-06T07:36:59.000Z</time>
      </trkpt>
      <trkpt lat="38.12830167" lon="-4.91505167">
        <ele>474.0</ele>
        <time>2018-10-06T07:37:00.000Z</time>
      </trkpt>
      <trkpt lat="38.12830167" lon="-4.91505167">
        <ele>474.0</ele>
        <time>2018-10-06T07:37:01.000Z</time>
      </trkpt>
      <trkpt lat="38.12830167" lon="-4.91505167">
        <ele>474.0</ele>
        <time>2018-10-06T07:37:02.000Z</time>
      </trkpt>
      <trkpt lat="38.12830167" lon="-4.91505167">
        <ele>474.0</ele>
        <time>2018-10-06T07:37:03.000Z</time>
      </trkpt>
      <trkpt lat="38.12830167" lon="-4.91505167">
        <ele>474.0</ele>
        <time>2018-10-06T07:37:04.000Z</time>
      </trkpt>
      <trkpt lat="38.12830167" lon="-4.91505167">
        <ele>474.0</ele>
        <time>2018-10-06T07:37:05.000Z</time>
      </trkpt>
      <trkpt lat="38.12830167" lon="-4.91505167">
        <ele>474.0</ele>
        <time>2018-10-06T07:37:06.000Z</time>
      </trkpt>
      <trkpt lat="38.12830167" lon="-4.91505167">
        <ele>474.0</ele>
        <time>2018-10-06T07:37:07.000Z</time>
      </trkpt>
      <trkpt lat="38.12830167" lon="-4.91505167">
        <ele>474.0</ele>
        <time>2018-10-06T07:37:08.000Z</time>
      </trkpt>
      <trkpt lat="38.12830167" lon="-4.91505167">
        <ele>474.0</ele>
        <time>2018-10-06T07:37:09.000Z</time>
      </trkpt>
      <trkpt lat="38.12830167" lon="-4.91505167">
        <ele>474.0</ele>
        <time>2018-10-06T07:37:10.000Z</time>
      </trkpt>
      <trkpt lat="38.12819" lon="-4.91529667">
        <ele>448.0</ele>
        <time>2018-10-06T07:37:11.000Z</time>
      </trkpt>
      <trkpt lat="38.12819" lon="-4.91529667">
        <ele>448.0</ele>
        <time>2018-10-06T07:37:12.000Z</time>
      </trkpt>
      <trkpt lat="38.12819" lon="-4.91529667">
        <ele>448.0</ele>
        <time>2018-10-06T07:37:13.000Z</time>
      </trkpt>
      <trkpt lat="38.12819" lon="-4.91529667">
        <ele>448.0</ele>
        <time>2018-10-06T07:37:14.000Z</time>
      </trkpt>
      <trkpt lat="38.12819" lon="-4.91529667">
        <ele>448.0</ele>
        <time>2018-10-06T07:37:15.000Z</time>
      </trkpt>
      <trkpt lat="38.12819" lon="-4.91529667">
        <ele>448.0</ele>
        <time>2018-10-06T07:37:16.000Z</time>
      </trkpt>
      <trkpt lat="38.12819" lon="-4.91529667">
        <ele>448.0</ele>
        <time>2018-10-06T07:37:17.000Z</time>
      </trkpt>
      <trkpt lat="38.12819" lon="-4.91529667">
        <ele>448.0</ele>
        <time>2018-10-06T07:37:18.000Z</time>
      </trkpt>
      <trkpt lat="38.12819" lon="-4.91529667">
        <ele>448.0</ele>
        <time>2018-10-06T07:37:19.000Z</time>
      </trkpt>
      <trkpt lat="38.12819" lon="-4.91529667">
        <ele>448.0</ele>
        <time>2018-10-06T07:37:20.000Z</time>
      </trkpt>
      <trkpt lat="38.12819" lon="-4.91529667">
        <ele>448.0</ele>
        <time>2018-10-06T07:37:21.000Z</time>
      </trkpt>
      <trkpt lat="38.12819" lon="-4.91529667">
        <ele>448.0</ele>
        <time>2018-10-06T07:37:22.000Z</time>
      </trkpt>
      <trkpt lat="38.12819" lon="-4.91529667">
        <ele>448.0</ele>
        <time>2018-10-06T07:37:23.000Z</time>
      </trkpt>
      <trkpt lat="38.12819" lon="-4.91529667">
        <ele>448.0</ele>
        <time>2018-10-06T07:37:24.000Z</time>
      </trkpt>
      <trkpt lat="38.12819" lon="-4.91529667">
        <ele>448.0</ele>
        <time>2018-10-06T07:37:25.000Z</time>
      </trkpt>
      <trkpt lat="38.12819" lon="-4.91529667">
        <ele>448.0</ele>
        <time>2018-10-06T07:37:26.000Z</time>
      </trkpt>
      <trkpt lat="38.12819" lon="-4.91529667">
        <ele>448.0</ele>
        <time>2018-10-06T07:37:27.000Z</time>
      </trkpt>
      <trkpt lat="38.12819" lon="-4.91529667">
        <ele>448.0</ele>
        <time>2018-10-06T07:37:28.000Z</time>
      </trkpt>
      <trkpt lat="38.12809333" lon="-4.91552167">
        <ele>449.0</ele>
        <time>2018-10-06T07:37:29.000Z</time>
      </trkpt>
      <trkpt lat="38.12808833" lon="-4.91553">
        <ele>450.0</ele>
        <time>2018-10-06T07:37:30.000Z</time>
      </trkpt>
      <trkpt lat="38.12807333" lon="-4.91555167">
        <ele>452.0</ele>
        <time>2018-10-06T07:37:31.000Z</time>
      </trkpt>
      <trkpt lat="38.12805833" lon="-4.91556333">
        <ele>454.0</ele>
        <time>2018-10-06T07:37:32.000Z</time>
      </trkpt>
      <trkpt lat="38.12804667" lon="-4.915575">
        <ele>456.0</ele>
        <time>2018-10-06T07:37:33.000Z</time>
      </trkpt>
      <trkpt lat="38.128035" lon="-4.91559">
        <ele>457.0</ele>
        <time>2018-10-06T07:37:34.000Z</time>
      </trkpt>
      <trkpt lat="38.12802167" lon="-4.91559833">
        <ele>458.0</ele>
        <time>2018-10-06T07:37:35.000Z</time>
      </trkpt>
      <trkpt lat="38.12801" lon="-4.91560667">
        <ele>459.0</ele>
        <time>2018-10-06T07:37:36.000Z</time>
      </trkpt>
      <trkpt lat="38.12799833" lon="-4.91561833">
        <ele>460.0</ele>
        <time>2018-10-06T07:37:37.000Z</time>
      </trkpt>
      <trkpt lat="38.12798833" lon="-4.91563">
        <ele>462.0</ele>
        <time>2018-10-06T07:37:38.000Z</time>
      </trkpt>
      <trkpt lat="38.12797667" lon="-4.91564167">
        <ele>462.0</ele>
        <time>2018-10-06T07:37:39.000Z</time>
      </trkpt>
      <trkpt lat="38.127965" lon="-4.91565">
        <ele>463.0</ele>
        <time>2018-10-06T07:37:40.000Z</time>
      </trkpt>
      <trkpt lat="38.127965" lon="-4.91565">
        <ele>463.0</ele>
        <time>2018-10-06T07:37:41.000Z</time>
      </trkpt>
      <trkpt lat="38.127965" lon="-4.91565">
        <ele>463.0</ele>
        <time>2018-10-06T07:37:42.000Z</time>
      </trkpt>
      <trkpt lat="38.127965" lon="-4.91565">
        <ele>463.0</ele>
        <time>2018-10-06T07:37:43.000Z</time>
      </trkpt>
      <trkpt lat="38.127965" lon="-4.91565">
        <ele>463.0</ele>
        <time>2018-10-06T07:37:44.000Z</time>
      </trkpt>
      <trkpt lat="38.127965" lon="-4.91565">
        <ele>463.0</ele>
        <time>2018-10-06T07:37:45.000Z</time>
      </trkpt>
      <trkpt lat="38.127965" lon="-4.91565">
        <ele>463.0</ele>
        <time>2018-10-06T07:37:46.000Z</time>
      </trkpt>
      <trkpt lat="38.127965" lon="-4.91565">
        <ele>463.0</ele>
        <time>2018-10-06T07:37:47.000Z</time>
      </trkpt>
      <trkpt lat="38.127965" lon="-4.91565">
        <ele>463.0</ele>
        <time>2018-10-06T07:37:48.000Z</time>
      </trkpt>
      <trkpt lat="38.127965" lon="-4.91565">
        <ele>463.0</ele>
        <time>2018-10-06T07:37:49.000Z</time>
      </trkpt>
      <trkpt lat="38.127965" lon="-4.91565">
        <ele>463.0</ele>
        <time>2018-10-06T07:37:50.000Z</time>
      </trkpt>
      <trkpt lat="38.127965" lon="-4.91565">
        <ele>463.0</ele>
        <time>2018-10-06T07:37:51.000Z</time>
      </trkpt>
      <trkpt lat="38.127965" lon="-4.91565">
        <ele>463.0</ele>
        <time>2018-10-06T07:37:52.000Z</time>
      </trkpt>
      <trkpt lat="38.127965" lon="-4.91565">
        <ele>463.0</ele>
        <time>2018-10-06T07:37:53.000Z</time>
      </trkpt>
      <trkpt lat="38.127965" lon="-4.91565">
        <ele>463.0</ele>
        <time>2018-10-06T07:37:54.000Z</time>
      </trkpt>
      <trkpt lat="38.127965" lon="-4.91565">
        <ele>463.0</ele>
        <time>2018-10-06T07:37:55.000Z</time>
      </trkpt>
      <trkpt lat="38.127965" lon="-4.91565">
        <ele>463.0</ele>
        <time>2018-10-06T07:37:56.000Z</time>
      </trkpt>
      <trkpt lat="38.127965" lon="-4.91565">
        <ele>463.0</ele>
        <time>2018-10-06T07:37:57.000Z</time>
      </trkpt>
      <trkpt lat="38.127965" lon="-4.91565">
        <ele>463.0</ele>
        <time>2018-10-06T07:37:58.000Z</time>
      </trkpt>
      <trkpt lat="38.127965" lon="-4.91565">
        <ele>463.0</ele>
        <time>2018-10-06T07:37:59.000Z</time>
      </trkpt>
      <trkpt lat="38.127965" lon="-4.91565">
        <ele>463.0</ele>
        <time>2018-10-06T07:38:00.000Z</time>
      </trkpt>
      <trkpt lat="38.127965" lon="-4.91565">
        <ele>463.0</ele>
        <time>2018-10-06T07:38:01.000Z</time>
      </trkpt>
      <trkpt lat="38.127965" lon="-4.91565">
        <ele>463.0</ele>
        <time>2018-10-06T07:38:02.000Z</time>
      </trkpt>
      <trkpt lat="38.127965" lon="-4.91565">
        <ele>463.0</ele>
        <time>2018-10-06T07:38:03.000Z</time>
      </trkpt>
      <trkpt lat="38.127965" lon="-4.91565">
        <ele>463.0</ele>
        <time>2018-10-06T07:38:04.000Z</time>
      </trkpt>
      <trkpt lat="38.127965" lon="-4.91565">
        <ele>463.0</ele>
        <time>2018-10-06T07:38:05.000Z</time>
      </trkpt>
      <trkpt lat="38.127965" lon="-4.91565">
        <ele>463.0</ele>
        <time>2018-10-06T07:38:06.000Z</time>
      </trkpt>
      <trkpt lat="38.127965" lon="-4.91565">
        <ele>463.0</ele>
        <time>2018-10-06T07:38:07.000Z</time>
      </trkpt>
      <trkpt lat="38.127965" lon="-4.91565">
        <ele>463.0</ele>
        <time>2018-10-06T07:38:08.000Z</time>
      </trkpt>
      <trkpt lat="38.127965" lon="-4.91565">
        <ele>463.0</ele>
        <time>2018-10-06T07:38:09.000Z</time>
      </trkpt>
      <trkpt lat="38.127965" lon="-4.91565">
        <ele>463.0</ele>
        <time>2018-10-06T07:38:10.000Z</time>
      </trkpt>
      <trkpt lat="38.127965" lon="-4.91565">
        <ele>463.0</ele>
        <time>2018-10-06T07:38:11.000Z</time>
      </trkpt>
      <trkpt lat="38.127965" lon="-4.91565">
        <ele>463.0</ele>
        <time>2018-10-06T07:38:12.000Z</time>
      </trkpt>
      <trkpt lat="38.127965" lon="-4.91565">
        <ele>463.0</ele>
        <time>2018-10-06T07:38:13.000Z</time>
      </trkpt>
      <trkpt lat="38.127965" lon="-4.91565">
        <ele>463.0</ele>
        <time>2018-10-06T07:38:14.000Z</time>
      </trkpt>
      <trkpt lat="38.127965" lon="-4.91565">
        <ele>463.0</ele>
        <time>2018-10-06T07:38:15.000Z</time>
      </trkpt>
      <trkpt lat="38.127965" lon="-4.91565">
        <ele>463.0</ele>
        <time>2018-10-06T07:38:16.000Z</time>
      </trkpt>
      <trkpt lat="38.127965" lon="-4.91565">
        <ele>463.0</ele>
        <time>2018-10-06T07:38:17.000Z</time>
      </trkpt>
      <trkpt lat="38.127965" lon="-4.91565">
        <ele>463.0</ele>
        <time>2018-10-06T07:38:18.000Z</time>
      </trkpt>
      <trkpt lat="38.127965" lon="-4.91565">
        <ele>463.0</ele>
        <time>2018-10-06T07:38:19.000Z</time>
      </trkpt>
      <trkpt lat="38.127965" lon="-4.91565">
        <ele>463.0</ele>
        <time>2018-10-06T07:38:20.000Z</time>
      </trkpt>
      <trkpt lat="38.127965" lon="-4.91565">
        <ele>463.0</ele>
        <time>2018-10-06T07:38:21.000Z</time>
      </trkpt>
      <trkpt lat="38.127965" lon="-4.91565">
        <ele>463.0</ele>
        <time>2018-10-06T07:38:22.000Z</time>
      </trkpt>
      <trkpt lat="38.127965" lon="-4.91565">
        <ele>463.0</ele>
        <time>2018-10-06T07:38:23.000Z</time>
      </trkpt>
      <trkpt lat="38.127965" lon="-4.91565">
        <ele>463.0</ele>
        <time>2018-10-06T07:38:24.000Z</time>
      </trkpt>
      <trkpt lat="38.127965" lon="-4.91565">
        <ele>463.0</ele>
        <time>2018-10-06T07:38:25.000Z</time>
      </trkpt>
      <trkpt lat="38.127965" lon="-4.91565">
        <ele>463.0</ele>
        <time>2018-10-06T07:38:26.000Z</time>
      </trkpt>
      <trkpt lat="38.127965" lon="-4.91565">
        <ele>463.0</ele>
        <time>2018-10-06T07:38:27.000Z</time>
      </trkpt>
      <trkpt lat="38.127965" lon="-4.91565">
        <ele>463.0</ele>
        <time>2018-10-06T07:38:28.000Z</time>
      </trkpt>
      <trkpt lat="38.12788167" lon="-4.91588333">
        <ele>449.0</ele>
        <time>2018-10-06T07:38:29.000Z</time>
      </trkpt>
      <trkpt lat="38.12787833" lon="-4.91590667">
        <ele>450.0</ele>
        <time>2018-10-06T07:38:30.000Z</time>
      </trkpt>
      <trkpt lat="38.12786833" lon="-4.91593167">
        <ele>452.0</ele>
        <time>2018-10-06T07:38:31.000Z</time>
      </trkpt>
      <trkpt lat="38.12785833" lon="-4.91595667">
        <ele>454.0</ele>
        <time>2018-10-06T07:38:32.000Z</time>
      </trkpt>
      <trkpt lat="38.12784833" lon="-4.91598167">
        <ele>456.0</ele>
        <time>2018-10-06T07:38:33.000Z</time>
      </trkpt>
      <trkpt lat="38.12783833" lon="-4.916005">
        <ele>457.0</ele>
        <time>2018-10-06T07:38:34.000Z</time>
      </trkpt>
      <trkpt lat="38.12783" lon="-4.91602667">
        <ele>459.0</ele>
        <time>2018-10-06T07:38:35.000Z</time>
      </trkpt>
      <trkpt lat="38.12782333" lon="-4.91604833">
        <ele>460.0</ele>
        <time>2018-10-06T07:38:36.000Z</time>
      </trkpt>
      <trkpt lat="38.12781667" lon="-4.91607">
        <ele>461.0</ele>
        <time>2018-10-06T07:38:37.000Z</time>
      </trkpt>
      <trkpt lat="38.12781" lon="-4.91608833">
        <ele>462.0</ele>
        <time>2018-10-06T07:38:38.000Z</time>
      </trkpt>
      <trkpt lat="38.12780333" lon="-4.91610667">
        <ele>463.0</ele>
        <time>2018-10-06T07:38:39.000Z</time>
      </trkpt>
      <trkpt lat="38.12779833" lon="-4.91612167">
        <ele>464.0</ele>
        <time>2018-10-06T07:38:40.000Z</time>
      </trkpt>
      <trkpt lat="38.12779333" lon="-4.91613833">
        <ele>465.0</ele>
        <time>2018-10-06T07:38:41.000Z</time>
      </trkpt>
      <trkpt lat="38.127785" lon="-4.916155">
        <ele>465.0</ele>
        <time>2018-10-06T07:38:42.000Z</time>
      </trkpt>
      <trkpt lat="38.12778" lon="-4.91617333">
        <ele>466.0</ele>
        <time>2018-10-06T07:38:43.000Z</time>
      </trkpt>
      <trkpt lat="38.12777333" lon="-4.91618833">
        <ele>467.0</ele>
        <time>2018-10-06T07:38:44.000Z</time>
      </trkpt>
      <trkpt lat="38.12777" lon="-4.91620333">
        <ele>467.0</ele>
        <time>2018-10-06T07:38:45.000Z</time>
      </trkpt>
      <trkpt lat="38.12776667" lon="-4.91621833">
        <ele>468.0</ele>
        <time>2018-10-06T07:38:46.000Z</time>
      </trkpt>
      <trkpt lat="38.12776333" lon="-4.91623333">
        <ele>468.0</ele>
        <time>2018-10-06T07:38:47.000Z</time>
      </trkpt>
      <trkpt lat="38.12775833" lon="-4.91624833">
        <ele>468.0</ele>
        <time>2018-10-06T07:38:48.000Z</time>
      </trkpt>
      <trkpt lat="38.12775333" lon="-4.91626167">
        <ele>468.0</ele>
        <time>2018-10-06T07:38:49.000Z</time>
      </trkpt>
      <trkpt lat="38.12774833" lon="-4.91627667">
        <ele>468.0</ele>
        <time>2018-10-06T07:38:50.000Z</time>
      </trkpt>
      <trkpt lat="38.12774333" lon="-4.91629167">
        <ele>469.0</ele>
        <time>2018-10-06T07:38:51.000Z</time>
      </trkpt>
      <trkpt lat="38.12774" lon="-4.91630667">
        <ele>469.0</ele>
        <time>2018-10-06T07:38:52.000Z</time>
      </trkpt>
      <trkpt lat="38.127735" lon="-4.91632">
        <ele>469.0</ele>
        <time>2018-10-06T07:38:53.000Z</time>
      </trkpt>
      <trkpt lat="38.12773167" lon="-4.91633333">
        <ele>470.0</ele>
        <time>2018-10-06T07:38:54.000Z</time>
      </trkpt>
      <trkpt lat="38.12772667" lon="-4.91634833">
        <ele>470.0</ele>
        <time>2018-10-06T07:38:55.000Z</time>
      </trkpt>
      <trkpt lat="38.12772333" lon="-4.916365">
        <ele>470.0</ele>
        <time>2018-10-06T07:38:56.000Z</time>
      </trkpt>
      <trkpt lat="38.12771833" lon="-4.91638167">
        <ele>470.0</ele>
        <time>2018-10-06T07:38:57.000Z</time>
      </trkpt>
      <trkpt lat="38.127715" lon="-4.91639667">
        <ele>470.0</ele>
        <time>2018-10-06T07:38:58.000Z</time>
      </trkpt>
      <trkpt lat="38.12771333" lon="-4.91641">
        <ele>471.0</ele>
        <time>2018-10-06T07:38:59.000Z</time>
      </trkpt>
      <trkpt lat="38.12771167" lon="-4.91642167">
        <ele>471.0</ele>
        <time>2018-10-06T07:39:00.000Z</time>
      </trkpt>
      <trkpt lat="38.12770833" lon="-4.916435">
        <ele>471.0</ele>
        <time>2018-10-06T07:39:01.000Z</time>
      </trkpt>
      <trkpt lat="38.127705" lon="-4.91645">
        <ele>471.0</ele>
        <time>2018-10-06T07:39:02.000Z</time>
      </trkpt>
      <trkpt lat="38.12769833" lon="-4.91646333">
        <ele>471.0</ele>
        <time>2018-10-06T07:39:03.000Z</time>
      </trkpt>
      <trkpt lat="38.12769167" lon="-4.91647833">
        <ele>471.0</ele>
        <time>2018-10-06T07:39:04.000Z</time>
      </trkpt>
      <trkpt lat="38.12768667" lon="-4.91649167">
        <ele>471.0</ele>
        <time>2018-10-06T07:39:05.000Z</time>
      </trkpt>
      <trkpt lat="38.12768333" lon="-4.91650667">
        <ele>471.0</ele>
        <time>2018-10-06T07:39:06.000Z</time>
      </trkpt>
      <trkpt lat="38.12767833" lon="-4.91652">
        <ele>471.0</ele>
        <time>2018-10-06T07:39:07.000Z</time>
      </trkpt>
      <trkpt lat="38.12767833" lon="-4.91652">
        <ele>471.0</ele>
        <time>2018-10-06T07:39:08.000Z</time>
      </trkpt>
      <trkpt lat="38.12767833" lon="-4.91652">
        <ele>471.0</ele>
        <time>2018-10-06T07:39:09.000Z</time>
      </trkpt>
      <trkpt lat="38.12767833" lon="-4.91652">
        <ele>471.0</ele>
        <time>2018-10-06T07:39:10.000Z</time>
      </trkpt>
      <trkpt lat="38.12767833" lon="-4.91652">
        <ele>471.0</ele>
        <time>2018-10-06T07:39:11.000Z</time>
      </trkpt>
      <trkpt lat="38.12767833" lon="-4.91652">
        <ele>471.0</ele>
        <time>2018-10-06T07:39:12.000Z</time>
      </trkpt>
      <trkpt lat="38.12767833" lon="-4.91652">
        <ele>471.0</ele>
        <time>2018-10-06T07:39:13.000Z</time>
      </trkpt>
      <trkpt lat="38.12767833" lon="-4.91652">
        <ele>471.0</ele>
        <time>2018-10-06T07:39:14.000Z</time>
      </trkpt>
      <trkpt lat="38.12767833" lon="-4.91652">
        <ele>471.0</ele>
        <time>2018-10-06T07:39:15.000Z</time>
      </trkpt>
      <trkpt lat="38.12767833" lon="-4.91652">
        <ele>471.0</ele>
        <time>2018-10-06T07:39:16.000Z</time>
      </trkpt>
      <trkpt lat="38.12767833" lon="-4.91652">
        <ele>471.0</ele>
        <time>2018-10-06T07:39:17.000Z</time>
      </trkpt>
      <trkpt lat="38.12767833" lon="-4.91652">
        <ele>471.0</ele>
        <time>2018-10-06T07:39:18.000Z</time>
      </trkpt>
      <trkpt lat="38.12767833" lon="-4.91652">
        <ele>471.0</ele>
        <time>2018-10-06T07:39:19.000Z</time>
      </trkpt>
      <trkpt lat="38.12767833" lon="-4.91652">
        <ele>471.0</ele>
        <time>2018-10-06T07:39:20.000Z</time>
      </trkpt>
      <trkpt lat="38.12767833" lon="-4.91652">
        <ele>471.0</ele>
        <time>2018-10-06T07:39:21.000Z</time>
      </trkpt>
      <trkpt lat="38.12767833" lon="-4.91652">
        <ele>471.0</ele>
        <time>2018-10-06T07:39:22.000Z</time>
      </trkpt>
      <trkpt lat="38.12767833" lon="-4.91652">
        <ele>471.0</ele>
        <time>2018-10-06T07:39:23.000Z</time>
      </trkpt>
      <trkpt lat="38.12767833" lon="-4.91652">
        <ele>471.0</ele>
        <time>2018-10-06T07:39:24.000Z</time>
      </trkpt>
      <trkpt lat="38.12767833" lon="-4.91652">
        <ele>471.0</ele>
        <time>2018-10-06T07:39:25.000Z</time>
      </trkpt>
      <trkpt lat="38.12767833" lon="-4.91652">
        <ele>471.0</ele>
        <time>2018-10-06T07:39:26.000Z</time>
      </trkpt>
      <trkpt lat="38.12767833" lon="-4.91652">
        <ele>471.0</ele>
        <time>2018-10-06T07:39:27.000Z</time>
      </trkpt>
      <trkpt lat="38.12767833" lon="-4.91652">
        <ele>471.0</ele>
        <time>2018-10-06T07:39:28.000Z</time>
      </trkpt>
      <trkpt lat="38.12765167" lon="-4.91665667">
        <ele>461.0</ele>
        <time>2018-10-06T07:39:29.000Z</time>
      </trkpt>
      <trkpt lat="38.12764333" lon="-4.91667333">
        <ele>461.0</ele>
        <time>2018-10-06T07:39:30.000Z</time>
      </trkpt>
      <trkpt lat="38.12763667" lon="-4.91669667">
        <ele>461.0</ele>
        <time>2018-10-06T07:39:31.000Z</time>
      </trkpt>
      <trkpt lat="38.12763" lon="-4.91672">
        <ele>462.0</ele>
        <time>2018-10-06T07:39:32.000Z</time>
      </trkpt>
      <trkpt lat="38.12762333" lon="-4.91674">
        <ele>462.0</ele>
        <time>2018-10-06T07:39:33.000Z</time>
      </trkpt>
      <trkpt lat="38.127615" lon="-4.91676">
        <ele>463.0</ele>
        <time>2018-10-06T07:39:34.000Z</time>
      </trkpt>
      <trkpt lat="38.12761" lon="-4.91677833">
        <ele>463.0</ele>
        <time>2018-10-06T07:39:35.000Z</time>
      </trkpt>
      <trkpt lat="38.12760333" lon="-4.91679667">
        <ele>464.0</ele>
        <time>2018-10-06T07:39:36.000Z</time>
      </trkpt>
      <trkpt lat="38.12759667" lon="-4.91681667">
        <ele>464.0</ele>
        <time>2018-10-06T07:39:37.000Z</time>
      </trkpt>
      <trkpt lat="38.12759" lon="-4.916835">
        <ele>465.0</ele>
        <time>2018-10-06T07:39:38.000Z</time>
      </trkpt>
      <trkpt lat="38.12758167" lon="-4.91685167">
        <ele>465.0</ele>
        <time>2018-10-06T07:39:39.000Z</time>
      </trkpt>
      <trkpt lat="38.127575" lon="-4.91686833">
        <ele>465.0</ele>
        <time>2018-10-06T07:39:40.000Z</time>
      </trkpt>
      <trkpt lat="38.12757" lon="-4.91688333">
        <ele>465.0</ele>
        <time>2018-10-06T07:39:41.000Z</time>
      </trkpt>
      <trkpt lat="38.12757" lon="-4.91688333">
        <ele>465.0</ele>
        <time>2018-10-06T07:39:42.000Z</time>
      </trkpt>
      <trkpt lat="38.12757" lon="-4.91688333">
        <ele>465.0</ele>
        <time>2018-10-06T07:39:43.000Z</time>
      </trkpt>
      <trkpt lat="38.12757" lon="-4.91688333">
        <ele>465.0</ele>
        <time>2018-10-06T07:39:44.000Z</time>
      </trkpt>
      <trkpt lat="38.12757" lon="-4.91688333">
        <ele>465.0</ele>
        <time>2018-10-06T07:39:45.000Z</time>
      </trkpt>
      <trkpt lat="38.12757" lon="-4.91688333">
        <ele>465.0</ele>
        <time>2018-10-06T07:39:46.000Z</time>
      </trkpt>
      <trkpt lat="38.12757" lon="-4.91688333">
        <ele>465.0</ele>
        <time>2018-10-06T07:39:47.000Z</time>
      </trkpt>
      <trkpt lat="38.12757" lon="-4.91688333">
        <ele>465.0</ele>
        <time>2018-10-06T07:39:48.000Z</time>
      </trkpt>
      <trkpt lat="38.12757" lon="-4.91688333">
        <ele>465.0</ele>
        <time>2018-10-06T07:39:49.000Z</time>
      </trkpt>
      <trkpt lat="38.12757" lon="-4.91688333">
        <ele>465.0</ele>
        <time>2018-10-06T07:39:50.000Z</time>
      </trkpt>
      <trkpt lat="38.12757" lon="-4.91688333">
        <ele>465.0</ele>
        <time>2018-10-06T07:39:51.000Z</time>
      </trkpt>
      <trkpt lat="38.12757" lon="-4.91688333">
        <ele>465.0</ele>
        <time>2018-10-06T07:39:52.000Z</time>
      </trkpt>
      <trkpt lat="38.12757" lon="-4.91688333">
        <ele>465.0</ele>
        <time>2018-10-06T07:39:53.000Z</time>
      </trkpt>
      <trkpt lat="38.12757" lon="-4.91688333">
        <ele>465.0</ele>
        <time>2018-10-06T07:39:54.000Z</time>
      </trkpt>
      <trkpt lat="38.12757" lon="-4.91688333">
        <ele>465.0</ele>
        <time>2018-10-06T07:39:55.000Z</time>
      </trkpt>
      <trkpt lat="38.12757" lon="-4.91688333">
        <ele>465.0</ele>
        <time>2018-10-06T07:39:56.000Z</time>
      </trkpt>
      <trkpt lat="38.12757" lon="-4.91688333">
        <ele>465.0</ele>
        <time>2018-10-06T07:39:57.000Z</time>
      </trkpt>
      <trkpt lat="38.12757" lon="-4.91688333">
        <ele>465.0</ele>
        <time>2018-10-06T07:39:58.000Z</time>
      </trkpt>
      <trkpt lat="38.12757" lon="-4.91688333">
        <ele>465.0</ele>
        <time>2018-10-06T07:39:59.000Z</time>
      </trkpt>
      <trkpt lat="38.12757" lon="-4.91688333">
        <ele>465.0</ele>
        <time>2018-10-06T07:40:00.000Z</time>
      </trkpt>
      <trkpt lat="38.12757" lon="-4.91688333">
        <ele>465.0</ele>
        <time>2018-10-06T07:40:01.000Z</time>
      </trkpt>
      <trkpt lat="38.12757" lon="-4.91688333">
        <ele>465.0</ele>
        <time>2018-10-06T07:40:02.000Z</time>
      </trkpt>
      <trkpt lat="38.12757" lon="-4.91688333">
        <ele>465.0</ele>
        <time>2018-10-06T07:40:03.000Z</time>
      </trkpt>
      <trkpt lat="38.12757" lon="-4.91688333">
        <ele>465.0</ele>
        <time>2018-10-06T07:40:04.000Z</time>
      </trkpt>
      <trkpt lat="38.12757" lon="-4.91688333">
        <ele>465.0</ele>
        <time>2018-10-06T07:40:05.000Z</time>
      </trkpt>
      <trkpt lat="38.12757" lon="-4.91688333">
        <ele>465.0</ele>
        <time>2018-10-06T07:40:06.000Z</time>
      </trkpt>
      <trkpt lat="38.12757" lon="-4.91688333">
        <ele>465.0</ele>
        <time>2018-10-06T07:40:07.000Z</time>
      </trkpt>
      <trkpt lat="38.12757" lon="-4.91688333">
        <ele>465.0</ele>
        <time>2018-10-06T07:40:08.000Z</time>
      </trkpt>
      <trkpt lat="38.12757" lon="-4.91688333">
        <ele>465.0</ele>
        <time>2018-10-06T07:40:09.000Z</time>
      </trkpt>
      <trkpt lat="38.12757" lon="-4.91688333">
        <ele>465.0</ele>
        <time>2018-10-06T07:40:10.000Z</time>
      </trkpt>
      <trkpt lat="38.12757" lon="-4.91688333">
        <ele>465.0</ele>
        <time>2018-10-06T07:40:11.000Z</time>
      </trkpt>
      <trkpt lat="38.12757" lon="-4.91688333">
        <ele>465.0</ele>
        <time>2018-10-06T07:40:12.000Z</time>
      </trkpt>
      <trkpt lat="38.12757" lon="-4.91688333">
        <ele>465.0</ele>
        <time>2018-10-06T07:40:13.000Z</time>
      </trkpt>
      <trkpt lat="38.12757" lon="-4.91688333">
        <ele>465.0</ele>
        <time>2018-10-06T07:40:14.000Z</time>
      </trkpt>
      <trkpt lat="38.12757" lon="-4.91688333">
        <ele>465.0</ele>
        <time>2018-10-06T07:40:15.000Z</time>
      </trkpt>
      <trkpt lat="38.12757" lon="-4.91688333">
        <ele>465.0</ele>
        <time>2018-10-06T07:40:16.000Z</time>
      </trkpt>
      <trkpt lat="38.12757" lon="-4.91688333">
        <ele>465.0</ele>
        <time>2018-10-06T07:40:17.000Z</time>
      </trkpt>
      <trkpt lat="38.12757" lon="-4.91688333">
        <ele>465.0</ele>
        <time>2018-10-06T07:40:18.000Z</time>
      </trkpt>
      <trkpt lat="38.12757" lon="-4.91688333">
        <ele>465.0</ele>
        <time>2018-10-06T07:40:19.000Z</time>
      </trkpt>
      <trkpt lat="38.12757" lon="-4.91688333">
        <ele>465.0</ele>
        <time>2018-10-06T07:40:20.000Z</time>
      </trkpt>
      <trkpt lat="38.12757" lon="-4.91688333">
        <ele>465.0</ele>
        <time>2018-10-06T07:40:21.000Z</time>
      </trkpt>
      <trkpt lat="38.12757" lon="-4.91688333">
        <ele>465.0</ele>
        <time>2018-10-06T07:40:22.000Z</time>
      </trkpt>
      <trkpt lat="38.12757" lon="-4.91688333">
        <ele>465.0</ele>
        <time>2018-10-06T07:40:23.000Z</time>
      </trkpt>
      <trkpt lat="38.12757" lon="-4.91688333">
        <ele>465.0</ele>
        <time>2018-10-06T07:40:24.000Z</time>
      </trkpt>
      <trkpt lat="38.12766333" lon="-4.91726833">
        <ele>442.0</ele>
        <time>2018-10-06T07:40:25.000Z</time>
      </trkpt>
      <trkpt lat="38.12766333" lon="-4.91726833">
        <ele>442.0</ele>
        <time>2018-10-06T07:40:26.000Z</time>
      </trkpt>
      <trkpt lat="38.12766333" lon="-4.91726833">
        <ele>442.0</ele>
        <time>2018-10-06T07:40:27.000Z</time>
      </trkpt>
      <trkpt lat="38.12766333" lon="-4.91726833">
        <ele>442.0</ele>
        <time>2018-10-06T07:40:28.000Z</time>
      </trkpt>
      <trkpt lat="38.12766333" lon="-4.91726833">
        <ele>442.0</ele>
        <time>2018-10-06T07:40:29.000Z</time>
      </trkpt>
      <trkpt lat="38.12766333" lon="-4.91726833">
        <ele>442.0</ele>
        <time>2018-10-06T07:40:30.000Z</time>
      </trkpt>
      <trkpt lat="38.12766333" lon="-4.91726833">
        <ele>442.0</ele>
        <time>2018-10-06T07:40:31.000Z</time>
      </trkpt>
      <trkpt lat="38.12766333" lon="-4.91726833">
        <ele>442.0</ele>
        <time>2018-10-06T07:40:32.000Z</time>
      </trkpt>
      <trkpt lat="38.12766333" lon="-4.91726833">
        <ele>442.0</ele>
        <time>2018-10-06T07:40:33.000Z</time>
      </trkpt>
      <trkpt lat="38.12766333" lon="-4.91726833">
        <ele>442.0</ele>
        <time>2018-10-06T07:40:34.000Z</time>
      </trkpt>
      <trkpt lat="38.12766333" lon="-4.91726833">
        <ele>442.0</ele>
        <time>2018-10-06T07:40:35.000Z</time>
      </trkpt>
      <trkpt lat="38.12766333" lon="-4.91726833">
        <ele>442.0</ele>
        <time>2018-10-06T07:40:36.000Z</time>
      </trkpt>
      <trkpt lat="38.12766333" lon="-4.91726833">
        <ele>442.0</ele>
        <time>2018-10-06T07:40:37.000Z</time>
      </trkpt>
      <trkpt lat="38.12766333" lon="-4.91726833">
        <ele>442.0</ele>
        <time>2018-10-06T07:40:38.000Z</time>
      </trkpt>
      <trkpt lat="38.12766333" lon="-4.91726833">
        <ele>442.0</ele>
        <time>2018-10-06T07:40:39.000Z</time>
      </trkpt>
      <trkpt lat="38.12766333" lon="-4.91726833">
        <ele>442.0</ele>
        <time>2018-10-06T07:40:40.000Z</time>
      </trkpt>
      <trkpt lat="38.12766333" lon="-4.91726833">
        <ele>442.0</ele>
        <time>2018-10-06T07:40:41.000Z</time>
      </trkpt>
      <trkpt lat="38.12766333" lon="-4.91726833">
        <ele>442.0</ele>
        <time>2018-10-06T07:40:42.000Z</time>
      </trkpt>
      <trkpt lat="38.12766333" lon="-4.91726833">
        <ele>442.0</ele>
        <time>2018-10-06T07:40:43.000Z</time>
      </trkpt>
      <trkpt lat="38.12766333" lon="-4.91726833">
        <ele>442.0</ele>
        <time>2018-10-06T07:40:44.000Z</time>
      </trkpt>
      <trkpt lat="38.12766333" lon="-4.91726833">
        <ele>442.0</ele>
        <time>2018-10-06T07:40:45.000Z</time>
      </trkpt>
      <trkpt lat="38.12766333" lon="-4.91726833">
        <ele>442.0</ele>
        <time>2018-10-06T07:40:46.000Z</time>
      </trkpt>
      <trkpt lat="38.12766333" lon="-4.91726833">
        <ele>442.0</ele>
        <time>2018-10-06T07:40:47.000Z</time>
      </trkpt>
      <trkpt lat="38.12766333" lon="-4.91726833">
        <ele>442.0</ele>
        <time>2018-10-06T07:40:48.000Z</time>
      </trkpt>
      <trkpt lat="38.12766333" lon="-4.91726833">
        <ele>442.0</ele>
        <time>2018-10-06T07:40:49.000Z</time>
      </trkpt>
      <trkpt lat="38.12766333" lon="-4.91726833">
        <ele>442.0</ele>
        <time>2018-10-06T07:40:50.000Z</time>
      </trkpt>
      <trkpt lat="38.12766333" lon="-4.91726833">
        <ele>442.0</ele>
        <time>2018-10-06T07:40:51.000Z</time>
      </trkpt>
      <trkpt lat="38.12766333" lon="-4.91726833">
        <ele>442.0</ele>
        <time>2018-10-06T07:40:52.000Z</time>
      </trkpt>
      <trkpt lat="38.12766333" lon="-4.91726833">
        <ele>442.0</ele>
        <time>2018-10-06T07:40:53.000Z</time>
      </trkpt>
      <trkpt lat="38.12766333" lon="-4.91726833">
        <ele>442.0</ele>
        <time>2018-10-06T07:40:54.000Z</time>
      </trkpt>
      <trkpt lat="38.12766333" lon="-4.91726833">
        <ele>442.0</ele>
        <time>2018-10-06T07:40:55.000Z</time>
      </trkpt>
      <trkpt lat="38.12766333" lon="-4.91726833">
        <ele>442.0</ele>
        <time>2018-10-06T07:40:56.000Z</time>
      </trkpt>
      <trkpt lat="38.12766333" lon="-4.91726833">
        <ele>442.0</ele>
        <time>2018-10-06T07:40:57.000Z</time>
      </trkpt>
      <trkpt lat="38.12766333" lon="-4.91726833">
        <ele>442.0</ele>
        <time>2018-10-06T07:40:58.000Z</time>
      </trkpt>
      <trkpt lat="38.12766333" lon="-4.91726833">
        <ele>442.0</ele>
        <time>2018-10-06T07:40:59.000Z</time>
      </trkpt>
      <trkpt lat="38.12766333" lon="-4.91726833">
        <ele>442.0</ele>
        <time>2018-10-06T07:41:00.000Z</time>
      </trkpt>
      <trkpt lat="38.12766333" lon="-4.91726833">
        <ele>442.0</ele>
        <time>2018-10-06T07:41:01.000Z</time>
      </trkpt>
      <trkpt lat="38.12766333" lon="-4.91726833">
        <ele>442.0</ele>
        <time>2018-10-06T07:41:02.000Z</time>
      </trkpt>
      <trkpt lat="38.12766333" lon="-4.91726833">
        <ele>442.0</ele>
        <time>2018-10-06T07:41:03.000Z</time>
      </trkpt>
      <trkpt lat="38.12766333" lon="-4.91726833">
        <ele>442.0</ele>
        <time>2018-10-06T07:41:04.000Z</time>
      </trkpt>
      <trkpt lat="38.12766333" lon="-4.91726833">
        <ele>442.0</ele>
        <time>2018-10-06T07:41:05.000Z</time>
      </trkpt>
      <trkpt lat="38.12766333" lon="-4.91726833">
        <ele>442.0</ele>
        <time>2018-10-06T07:41:06.000Z</time>
      </trkpt>
      <trkpt lat="38.12766333" lon="-4.91726833">
        <ele>442.0</ele>
        <time>2018-10-06T07:41:07.000Z</time>
      </trkpt>
      <trkpt lat="38.12766333" lon="-4.91726833">
        <ele>442.0</ele>
        <time>2018-10-06T07:41:08.000Z</time>
      </trkpt>
      <trkpt lat="38.12766333" lon="-4.91726833">
        <ele>442.0</ele>
        <time>2018-10-06T07:41:09.000Z</time>
      </trkpt>
      <trkpt lat="38.12766333" lon="-4.91726833">
        <ele>442.0</ele>
        <time>2018-10-06T07:41:10.000Z</time>
      </trkpt>
      <trkpt lat="38.12766333" lon="-4.91726833">
        <ele>442.0</ele>
        <time>2018-10-06T07:41:11.000Z</time>
      </trkpt>
      <trkpt lat="38.12766333" lon="-4.91726833">
        <ele>442.0</ele>
        <time>2018-10-06T07:41:12.000Z</time>
      </trkpt>
      <trkpt lat="38.12766333" lon="-4.91726833">
        <ele>442.0</ele>
        <time>2018-10-06T07:41:13.000Z</time>
      </trkpt>
      <trkpt lat="38.12766333" lon="-4.91726833">
        <ele>442.0</ele>
        <time>2018-10-06T07:41:14.000Z</time>
      </trkpt>
      <trkpt lat="38.12766333" lon="-4.91726833">
        <ele>442.0</ele>
        <time>2018-10-06T07:41:15.000Z</time>
      </trkpt>
      <trkpt lat="38.12766333" lon="-4.91726833">
        <ele>442.0</ele>
        <time>2018-10-06T07:41:16.000Z</time>
      </trkpt>
      <trkpt lat="38.12766333" lon="-4.91726833">
        <ele>442.0</ele>
        <time>2018-10-06T07:41:17.000Z</time>
      </trkpt>
      <trkpt lat="38.12766333" lon="-4.91726833">
        <ele>442.0</ele>
        <time>2018-10-06T07:41:18.000Z</time>
      </trkpt>
      <trkpt lat="38.12766333" lon="-4.91726833">
        <ele>442.0</ele>
        <time>2018-10-06T07:41:19.000Z</time>
      </trkpt>
      <trkpt lat="38.12766333" lon="-4.91726833">
        <ele>442.0</ele>
        <time>2018-10-06T07:41:20.000Z</time>
      </trkpt>
      <trkpt lat="38.12766333" lon="-4.91726833">
        <ele>442.0</ele>
        <time>2018-10-06T07:41:21.000Z</time>
      </trkpt>
      <trkpt lat="38.12766333" lon="-4.91726833">
        <ele>442.0</ele>
        <time>2018-10-06T07:41:22.000Z</time>
      </trkpt>
      <trkpt lat="38.12766333" lon="-4.91726833">
        <ele>442.0</ele>
        <time>2018-10-06T07:41:23.000Z</time>
      </trkpt>
      <trkpt lat="38.12766333" lon="-4.91726833">
        <ele>442.0</ele>
        <time>2018-10-06T07:41:24.000Z</time>
      </trkpt>
      <trkpt lat="38.12738" lon="-4.91809833">
        <ele>458.0</ele>
        <time>2018-10-06T07:41:25.000Z</time>
      </trkpt>
      <trkpt lat="38.12738" lon="-4.91809833">
        <ele>458.0</ele>
        <time>2018-10-06T07:41:26.000Z</time>
      </trkpt>
      <trkpt lat="38.12738" lon="-4.91809833">
        <ele>458.0</ele>
        <time>2018-10-06T07:41:27.000Z</time>
      </trkpt>
      <trkpt lat="38.12738" lon="-4.91809833">
        <ele>458.0</ele>
        <time>2018-10-06T07:41:28.000Z</time>
      </trkpt>
      <trkpt lat="38.12738" lon="-4.91809833">
        <ele>458.0</ele>
        <time>2018-10-06T07:41:29.000Z</time>
      </trkpt>
      <trkpt lat="38.12738" lon="-4.91809833">
        <ele>458.0</ele>
        <time>2018-10-06T07:41:30.000Z</time>
      </trkpt>
      <trkpt lat="38.12738" lon="-4.91809833">
        <ele>458.0</ele>
        <time>2018-10-06T07:41:31.000Z</time>
      </trkpt>
      <trkpt lat="38.12738" lon="-4.91809833">
        <ele>458.0</ele>
        <time>2018-10-06T07:41:32.000Z</time>
      </trkpt>
      <trkpt lat="38.12738" lon="-4.91809833">
        <ele>458.0</ele>
        <time>2018-10-06T07:41:33.000Z</time>
      </trkpt>
      <trkpt lat="38.12738" lon="-4.91809833">
        <ele>458.0</ele>
        <time>2018-10-06T07:41:34.000Z</time>
      </trkpt>
      <trkpt lat="38.12738" lon="-4.91809833">
        <ele>458.0</ele>
        <time>2018-10-06T07:41:35.000Z</time>
      </trkpt>
      <trkpt lat="38.12738" lon="-4.91809833">
        <ele>458.0</ele>
        <time>2018-10-06T07:41:36.000Z</time>
      </trkpt>
      <trkpt lat="38.12738" lon="-4.91809833">
        <ele>458.0</ele>
        <time>2018-10-06T07:41:37.000Z</time>
      </trkpt>
      <trkpt lat="38.12738" lon="-4.91809833">
        <ele>458.0</ele>
        <time>2018-10-06T07:41:38.000Z</time>
      </trkpt>
      <trkpt lat="38.12738" lon="-4.91809833">
        <ele>458.0</ele>
        <time>2018-10-06T07:41:39.000Z</time>
      </trkpt>
      <trkpt lat="38.12738" lon="-4.91809833">
        <ele>458.0</ele>
        <time>2018-10-06T07:41:40.000Z</time>
      </trkpt>
      <trkpt lat="38.12738" lon="-4.91809833">
        <ele>458.0</ele>
        <time>2018-10-06T07:41:41.000Z</time>
      </trkpt>
      <trkpt lat="38.12738" lon="-4.91809833">
        <ele>458.0</ele>
        <time>2018-10-06T07:41:42.000Z</time>
      </trkpt>
      <trkpt lat="38.12738" lon="-4.91809833">
        <ele>458.0</ele>
        <time>2018-10-06T07:41:43.000Z</time>
      </trkpt>
      <trkpt lat="38.12738" lon="-4.91809833">
        <ele>458.0</ele>
        <time>2018-10-06T07:41:44.000Z</time>
      </trkpt>
      <trkpt lat="38.12738" lon="-4.91809833">
        <ele>458.0</ele>
        <time>2018-10-06T07:41:45.000Z</time>
      </trkpt>
      <trkpt lat="38.12738" lon="-4.91809833">
        <ele>458.0</ele>
        <time>2018-10-06T07:41:46.000Z</time>
      </trkpt>
      <trkpt lat="38.12738" lon="-4.91809833">
        <ele>458.0</ele>
        <time>2018-10-06T07:41:47.000Z</time>
      </trkpt>
      <trkpt lat="38.12738" lon="-4.91809833">
        <ele>458.0</ele>
        <time>2018-10-06T07:41:48.000Z</time>
      </trkpt>
      <trkpt lat="38.12738" lon="-4.91809833">
        <ele>458.0</ele>
        <time>2018-10-06T07:41:49.000Z</time>
      </trkpt>
      <trkpt lat="38.12738" lon="-4.91809833">
        <ele>458.0</ele>
        <time>2018-10-06T07:41:50.000Z</time>
      </trkpt>
      <trkpt lat="38.12738" lon="-4.91809833">
        <ele>458.0</ele>
        <time>2018-10-06T07:41:51.000Z</time>
      </trkpt>
      <trkpt lat="38.12738" lon="-4.91809833">
        <ele>458.0</ele>
        <time>2018-10-06T07:41:52.000Z</time>
      </trkpt>
      <trkpt lat="38.12738" lon="-4.91809833">
        <ele>458.0</ele>
        <time>2018-10-06T07:41:53.000Z</time>
      </trkpt>
      <trkpt lat="38.12738" lon="-4.91809833">
        <ele>458.0</ele>
        <time>2018-10-06T07:41:54.000Z</time>
      </trkpt>
      <trkpt lat="38.12738" lon="-4.91809833">
        <ele>458.0</ele>
        <time>2018-10-06T07:41:55.000Z</time>
      </trkpt>
      <trkpt lat="38.12738" lon="-4.91809833">
        <ele>458.0</ele>
        <time>2018-10-06T07:41:56.000Z</time>
      </trkpt>
      <trkpt lat="38.12738" lon="-4.91809833">
        <ele>458.0</ele>
        <time>2018-10-06T07:41:57.000Z</time>
      </trkpt>
      <trkpt lat="38.12738" lon="-4.91809833">
        <ele>458.0</ele>
        <time>2018-10-06T07:41:58.000Z</time>
      </trkpt>
      <trkpt lat="38.12738" lon="-4.91809833">
        <ele>458.0</ele>
        <time>2018-10-06T07:41:59.000Z</time>
      </trkpt>
      <trkpt lat="38.12738" lon="-4.91809833">
        <ele>458.0</ele>
        <time>2018-10-06T07:42:00.000Z</time>
      </trkpt>
      <trkpt lat="38.12738" lon="-4.91809833">
        <ele>458.0</ele>
        <time>2018-10-06T07:42:01.000Z</time>
      </trkpt>
      <trkpt lat="38.12738" lon="-4.91809833">
        <ele>458.0</ele>
        <time>2018-10-06T07:42:02.000Z</time>
      </trkpt>
      <trkpt lat="38.12738" lon="-4.91809833">
        <ele>458.0</ele>
        <time>2018-10-06T07:42:03.000Z</time>
      </trkpt>
      <trkpt lat="38.12738" lon="-4.91809833">
        <ele>458.0</ele>
        <time>2018-10-06T07:42:04.000Z</time>
      </trkpt>
      <trkpt lat="38.12738" lon="-4.91809833">
        <ele>458.0</ele>
        <time>2018-10-06T07:42:05.000Z</time>
      </trkpt>
      <trkpt lat="38.12738" lon="-4.91809833">
        <ele>458.0</ele>
        <time>2018-10-06T07:42:06.000Z</time>
      </trkpt>
      <trkpt lat="38.12738" lon="-4.91809833">
        <ele>458.0</ele>
        <time>2018-10-06T07:42:07.000Z</time>
      </trkpt>
      <trkpt lat="38.12738" lon="-4.91809833">
        <ele>458.0</ele>
        <time>2018-10-06T07:42:08.000Z</time>
      </trkpt>
      <trkpt lat="38.12738" lon="-4.91809833">
        <ele>458.0</ele>
        <time>2018-10-06T07:42:09.000Z</time>
      </trkpt>
      <trkpt lat="38.12738" lon="-4.91809833">
        <ele>458.0</ele>
        <time>2018-10-06T07:42:10.000Z</time>
      </trkpt>
      <trkpt lat="38.12738" lon="-4.91809833">
        <ele>458.0</ele>
        <time>2018-10-06T07:42:11.000Z</time>
      </trkpt>
      <trkpt lat="38.12738" lon="-4.91809833">
        <ele>458.0</ele>
        <time>2018-10-06T07:42:12.000Z</time>
      </trkpt>
      <trkpt lat="38.12738" lon="-4.91809833">
        <ele>458.0</ele>
        <time>2018-10-06T07:42:13.000Z</time>
      </trkpt>
      <trkpt lat="38.12738" lon="-4.91809833">
        <ele>458.0</ele>
        <time>2018-10-06T07:42:14.000Z</time>
      </trkpt>
      <trkpt lat="38.12738" lon="-4.91809833">
        <ele>458.0</ele>
        <time>2018-10-06T07:42:15.000Z</time>
      </trkpt>
      <trkpt lat="38.12738" lon="-4.91809833">
        <ele>458.0</ele>
        <time>2018-10-06T07:42:16.000Z</time>
      </trkpt>
      <trkpt lat="38.12738" lon="-4.91809833">
        <ele>458.0</ele>
        <time>2018-10-06T07:42:17.000Z</time>
      </trkpt>
      <trkpt lat="38.12738" lon="-4.91809833">
        <ele>458.0</ele>
        <time>2018-10-06T07:42:18.000Z</time>
      </trkpt>
      <trkpt lat="38.12738" lon="-4.91809833">
        <ele>458.0</ele>
        <time>2018-10-06T07:42:19.000Z</time>
      </trkpt>
      <trkpt lat="38.12738" lon="-4.91809833">
        <ele>458.0</ele>
        <time>2018-10-06T07:42:20.000Z</time>
      </trkpt>
      <trkpt lat="38.12738" lon="-4.91809833">
        <ele>458.0</ele>
        <time>2018-10-06T07:42:21.000Z</time>
      </trkpt>
      <trkpt lat="38.12738" lon="-4.91809833">
        <ele>458.0</ele>
        <time>2018-10-06T07:42:22.000Z</time>
      </trkpt>
      <trkpt lat="38.12738" lon="-4.91809833">
        <ele>458.0</ele>
        <time>2018-10-06T07:42:23.000Z</time>
      </trkpt>
      <trkpt lat="38.12738" lon="-4.91809833">
        <ele>458.0</ele>
        <time>2018-10-06T07:42:24.000Z</time>
      </trkpt>
      <trkpt lat="38.12734667" lon="-4.91863833">
        <ele>455.0</ele>
        <time>2018-10-06T07:42:25.000Z</time>
      </trkpt>
      <trkpt lat="38.12734667" lon="-4.91863833">
        <ele>455.0</ele>
        <time>2018-10-06T07:42:26.000Z</time>
      </trkpt>
      <trkpt lat="38.12734667" lon="-4.91863833">
        <ele>455.0</ele>
        <time>2018-10-06T07:42:27.000Z</time>
      </trkpt>
      <trkpt lat="38.12734667" lon="-4.91863833">
        <ele>455.0</ele>
        <time>2018-10-06T07:42:28.000Z</time>
      </trkpt>
      <trkpt lat="38.12734667" lon="-4.91863833">
        <ele>455.0</ele>
        <time>2018-10-06T07:42:29.000Z</time>
      </trkpt>
      <trkpt lat="38.12734667" lon="-4.91863833">
        <ele>455.0</ele>
        <time>2018-10-06T07:42:30.000Z</time>
      </trkpt>
      <trkpt lat="38.12734667" lon="-4.91863833">
        <ele>455.0</ele>
        <time>2018-10-06T07:42:31.000Z</time>
      </trkpt>
      <trkpt lat="38.12734667" lon="-4.91863833">
        <ele>455.0</ele>
        <time>2018-10-06T07:42:32.000Z</time>
      </trkpt>
      <trkpt lat="38.12734667" lon="-4.91863833">
        <ele>455.0</ele>
        <time>2018-10-06T07:42:33.000Z</time>
      </trkpt>
      <trkpt lat="38.12734667" lon="-4.91863833">
        <ele>455.0</ele>
        <time>2018-10-06T07:42:34.000Z</time>
      </trkpt>
      <trkpt lat="38.12734667" lon="-4.91863833">
        <ele>455.0</ele>
        <time>2018-10-06T07:42:35.000Z</time>
      </trkpt>
      <trkpt lat="38.12734667" lon="-4.91863833">
        <ele>455.0</ele>
        <time>2018-10-06T07:42:36.000Z</time>
      </trkpt>
      <trkpt lat="38.12734667" lon="-4.91863833">
        <ele>455.0</ele>
        <time>2018-10-06T07:42:37.000Z</time>
      </trkpt>
      <trkpt lat="38.12734667" lon="-4.91863833">
        <ele>455.0</ele>
        <time>2018-10-06T07:42:38.000Z</time>
      </trkpt>
      <trkpt lat="38.12734667" lon="-4.91863833">
        <ele>455.0</ele>
        <time>2018-10-06T07:42:39.000Z</time>
      </trkpt>
      <trkpt lat="38.12734667" lon="-4.91863833">
        <ele>455.0</ele>
        <time>2018-10-06T07:42:40.000Z</time>
      </trkpt>
      <trkpt lat="38.12734667" lon="-4.91863833">
        <ele>455.0</ele>
        <time>2018-10-06T07:42:41.000Z</time>
      </trkpt>
      <trkpt lat="38.12734667" lon="-4.91863833">
        <ele>455.0</ele>
        <time>2018-10-06T07:42:42.000Z</time>
      </trkpt>
      <trkpt lat="38.12734667" lon="-4.91863833">
        <ele>455.0</ele>
        <time>2018-10-06T07:42:43.000Z</time>
      </trkpt>
      <trkpt lat="38.12734667" lon="-4.91863833">
        <ele>455.0</ele>
        <time>2018-10-06T07:42:44.000Z</time>
      </trkpt>
      <trkpt lat="38.12734667" lon="-4.91863833">
        <ele>455.0</ele>
        <time>2018-10-06T07:42:45.000Z</time>
      </trkpt>
      <trkpt lat="38.12734667" lon="-4.91863833">
        <ele>455.0</ele>
        <time>2018-10-06T07:42:46.000Z</time>
      </trkpt>
      <trkpt lat="38.12734667" lon="-4.91863833">
        <ele>455.0</ele>
        <time>2018-10-06T07:42:47.000Z</time>
      </trkpt>
      <trkpt lat="38.12734667" lon="-4.91863833">
        <ele>455.0</ele>
        <time>2018-10-06T07:42:48.000Z</time>
      </trkpt>
      <trkpt lat="38.12734667" lon="-4.91863833">
        <ele>455.0</ele>
        <time>2018-10-06T07:42:49.000Z</time>
      </trkpt>
      <trkpt lat="38.12734667" lon="-4.91863833">
        <ele>455.0</ele>
        <time>2018-10-06T07:42:50.000Z</time>
      </trkpt>
      <trkpt lat="38.12734667" lon="-4.91863833">
        <ele>455.0</ele>
        <time>2018-10-06T07:42:51.000Z</time>
      </trkpt>
      <trkpt lat="38.12734667" lon="-4.91863833">
        <ele>455.0</ele>
        <time>2018-10-06T07:42:52.000Z</time>
      </trkpt>
      <trkpt lat="38.12734667" lon="-4.91863833">
        <ele>455.0</ele>
        <time>2018-10-06T07:42:53.000Z</time>
      </trkpt>
      <trkpt lat="38.12734667" lon="-4.91863833">
        <ele>455.0</ele>
        <time>2018-10-06T07:42:54.000Z</time>
      </trkpt>
      <trkpt lat="38.12734667" lon="-4.91863833">
        <ele>455.0</ele>
        <time>2018-10-06T07:42:55.000Z</time>
      </trkpt>
      <trkpt lat="38.12734667" lon="-4.91863833">
        <ele>455.0</ele>
        <time>2018-10-06T07:42:56.000Z</time>
      </trkpt>
      <trkpt lat="38.12734667" lon="-4.91863833">
        <ele>455.0</ele>
        <time>2018-10-06T07:42:57.000Z</time>
      </trkpt>
      <trkpt lat="38.12734667" lon="-4.91863833">
        <ele>455.0</ele>
        <time>2018-10-06T07:42:58.000Z</time>
      </trkpt>
      <trkpt lat="38.12734667" lon="-4.91863833">
        <ele>455.0</ele>
        <time>2018-10-06T07:42:59.000Z</time>
      </trkpt>
      <trkpt lat="38.12734667" lon="-4.91863833">
        <ele>455.0</ele>
        <time>2018-10-06T07:43:00.000Z</time>
      </trkpt>
      <trkpt lat="38.12734667" lon="-4.91863833">
        <ele>455.0</ele>
        <time>2018-10-06T07:43:01.000Z</time>
      </trkpt>
      <trkpt lat="38.12734667" lon="-4.91863833">
        <ele>455.0</ele>
        <time>2018-10-06T07:43:02.000Z</time>
      </trkpt>
      <trkpt lat="38.12734667" lon="-4.91863833">
        <ele>455.0</ele>
        <time>2018-10-06T07:43:03.000Z</time>
      </trkpt>
      <trkpt lat="38.12734667" lon="-4.91863833">
        <ele>455.0</ele>
        <time>2018-10-06T07:43:04.000Z</time>
      </trkpt>
      <trkpt lat="38.12734667" lon="-4.91863833">
        <ele>455.0</ele>
        <time>2018-10-06T07:43:05.000Z</time>
      </trkpt>
      <trkpt lat="38.12734667" lon="-4.91863833">
        <ele>455.0</ele>
        <time>2018-10-06T07:43:06.000Z</time>
      </trkpt>
      <trkpt lat="38.12734667" lon="-4.91863833">
        <ele>455.0</ele>
        <time>2018-10-06T07:43:07.000Z</time>
      </trkpt>
      <trkpt lat="38.12734667" lon="-4.91863833">
        <ele>455.0</ele>
        <time>2018-10-06T07:43:08.000Z</time>
      </trkpt>
      <trkpt lat="38.12734667" lon="-4.91863833">
        <ele>455.0</ele>
        <time>2018-10-06T07:43:09.000Z</time>
      </trkpt>
      <trkpt lat="38.12734667" lon="-4.91863833">
        <ele>455.0</ele>
        <time>2018-10-06T07:43:10.000Z</time>
      </trkpt>
      <trkpt lat="38.12734667" lon="-4.91863833">
        <ele>455.0</ele>
        <time>2018-10-06T07:43:11.000Z</time>
      </trkpt>
      <trkpt lat="38.12734667" lon="-4.91863833">
        <ele>455.0</ele>
        <time>2018-10-06T07:43:12.000Z</time>
      </trkpt>
      <trkpt lat="38.12734667" lon="-4.91863833">
        <ele>455.0</ele>
        <time>2018-10-06T07:43:13.000Z</time>
      </trkpt>
      <trkpt lat="38.12734667" lon="-4.91863833">
        <ele>455.0</ele>
        <time>2018-10-06T07:43:14.000Z</time>
      </trkpt>
      <trkpt lat="38.12734667" lon="-4.91863833">
        <ele>455.0</ele>
        <time>2018-10-06T07:43:15.000Z</time>
      </trkpt>
      <trkpt lat="38.12734667" lon="-4.91863833">
        <ele>455.0</ele>
        <time>2018-10-06T07:43:16.000Z</time>
      </trkpt>
      <trkpt lat="38.12734667" lon="-4.91863833">
        <ele>455.0</ele>
        <time>2018-10-06T07:43:17.000Z</time>
      </trkpt>
      <trkpt lat="38.12734667" lon="-4.91863833">
        <ele>455.0</ele>
        <time>2018-10-06T07:43:18.000Z</time>
      </trkpt>
      <trkpt lat="38.12734667" lon="-4.91863833">
        <ele>455.0</ele>
        <time>2018-10-06T07:43:19.000Z</time>
      </trkpt>
      <trkpt lat="38.12734667" lon="-4.91863833">
        <ele>455.0</ele>
        <time>2018-10-06T07:43:20.000Z</time>
      </trkpt>
      <trkpt lat="38.12734667" lon="-4.91863833">
        <ele>455.0</ele>
        <time>2018-10-06T07:43:21.000Z</time>
      </trkpt>
      <trkpt lat="38.12734667" lon="-4.91863833">
        <ele>455.0</ele>
        <time>2018-10-06T07:43:22.000Z</time>
      </trkpt>
      <trkpt lat="38.12734667" lon="-4.91863833">
        <ele>455.0</ele>
        <time>2018-10-06T07:43:23.000Z</time>
      </trkpt>
      <trkpt lat="38.12734667" lon="-4.91863833">
        <ele>455.0</ele>
        <time>2018-10-06T07:43:24.000Z</time>
      </trkpt>
      <trkpt lat="38.12718167" lon="-4.91894167">
        <ele>459.0</ele>
        <time>2018-10-06T07:43:25.000Z</time>
      </trkpt>
      <trkpt lat="38.12718" lon="-4.91894833">
        <ele>460.0</ele>
        <time>2018-10-06T07:43:26.000Z</time>
      </trkpt>
      <trkpt lat="38.12718" lon="-4.918955">
        <ele>460.0</ele>
        <time>2018-10-06T07:43:27.000Z</time>
      </trkpt>
      <trkpt lat="38.127175" lon="-4.91896333">
        <ele>460.0</ele>
        <time>2018-10-06T07:43:28.000Z</time>
      </trkpt>
      <trkpt lat="38.12716833" lon="-4.91897">
        <ele>460.0</ele>
        <time>2018-10-06T07:43:29.000Z</time>
      </trkpt>
      <trkpt lat="38.12716167" lon="-4.91897333">
        <ele>461.0</ele>
        <time>2018-10-06T07:43:30.000Z</time>
      </trkpt>
      <trkpt lat="38.127155" lon="-4.91897833">
        <ele>461.0</ele>
        <time>2018-10-06T07:43:31.000Z</time>
      </trkpt>
      <trkpt lat="38.12715" lon="-4.918985">
        <ele>462.0</ele>
        <time>2018-10-06T07:43:32.000Z</time>
      </trkpt>
      <trkpt lat="38.12714333" lon="-4.91899167">
        <ele>462.0</ele>
        <time>2018-10-06T07:43:33.000Z</time>
      </trkpt>
      <trkpt lat="38.127135" lon="-4.91899667">
        <ele>463.0</ele>
        <time>2018-10-06T07:43:34.000Z</time>
      </trkpt>
      <trkpt lat="38.12712833" lon="-4.91900167">
        <ele>463.0</ele>
        <time>2018-10-06T07:43:35.000Z</time>
      </trkpt>
      <trkpt lat="38.12712" lon="-4.91900667">
        <ele>464.0</ele>
        <time>2018-10-06T07:43:36.000Z</time>
      </trkpt>
      <trkpt lat="38.12711" lon="-4.91901167">
        <ele>464.0</ele>
        <time>2018-10-06T07:43:37.000Z</time>
      </trkpt>
      <trkpt lat="38.12711" lon="-4.91901167">
        <ele>464.0</ele>
        <time>2018-10-06T07:43:38.000Z</time>
      </trkpt>
      <trkpt lat="38.12711" lon="-4.91901167">
        <ele>464.0</ele>
        <time>2018-10-06T07:43:39.000Z</time>
      </trkpt>
      <trkpt lat="38.12711" lon="-4.91901167">
        <ele>464.0</ele>
        <time>2018-10-06T07:43:40.000Z</time>
      </trkpt>
      <trkpt lat="38.12711" lon="-4.91901167">
        <ele>464.0</ele>
        <time>2018-10-06T07:43:41.000Z</time>
      </trkpt>
      <trkpt lat="38.12711" lon="-4.91901167">
        <ele>464.0</ele>
        <time>2018-10-06T07:43:42.000Z</time>
      </trkpt>
      <trkpt lat="38.12711" lon="-4.91901167">
        <ele>464.0</ele>
        <time>2018-10-06T07:43:43.000Z</time>
      </trkpt>
      <trkpt lat="38.12711" lon="-4.91901167">
        <ele>464.0</ele>
        <time>2018-10-06T07:43:44.000Z</time>
      </trkpt>
      <trkpt lat="38.12711" lon="-4.91901167">
        <ele>464.0</ele>
        <time>2018-10-06T07:43:45.000Z</time>
      </trkpt>
      <trkpt lat="38.12711" lon="-4.91901167">
        <ele>464.0</ele>
        <time>2018-10-06T07:43:46.000Z</time>
      </trkpt>
      <trkpt lat="38.12711" lon="-4.91901167">
        <ele>464.0</ele>
        <time>2018-10-06T07:43:47.000Z</time>
      </trkpt>
      <trkpt lat="38.12711" lon="-4.91901167">
        <ele>464.0</ele>
        <time>2018-10-06T07:43:48.000Z</time>
      </trkpt>
      <trkpt lat="38.12711" lon="-4.91901167">
        <ele>464.0</ele>
        <time>2018-10-06T07:43:49.000Z</time>
      </trkpt>
      <trkpt lat="38.12711" lon="-4.91901167">
        <ele>464.0</ele>
        <time>2018-10-06T07:43:50.000Z</time>
      </trkpt>
      <trkpt lat="38.12711" lon="-4.91901167">
        <ele>464.0</ele>
        <time>2018-10-06T07:43:51.000Z</time>
      </trkpt>
      <trkpt lat="38.12711" lon="-4.91901167">
        <ele>464.0</ele>
        <time>2018-10-06T07:43:52.000Z</time>
      </trkpt>
      <trkpt lat="38.12711" lon="-4.91901167">
        <ele>464.0</ele>
        <time>2018-10-06T07:43:53.000Z</time>
      </trkpt>
      <trkpt lat="38.12711" lon="-4.91901167">
        <ele>464.0</ele>
        <time>2018-10-06T07:43:54.000Z</time>
      </trkpt>
      <trkpt lat="38.12711" lon="-4.91901167">
        <ele>464.0</ele>
        <time>2018-10-06T07:43:55.000Z</time>
      </trkpt>
      <trkpt lat="38.12711" lon="-4.91901167">
        <ele>464.0</ele>
        <time>2018-10-06T07:43:56.000Z</time>
      </trkpt>
      <trkpt lat="38.12711" lon="-4.91901167">
        <ele>464.0</ele>
        <time>2018-10-06T07:43:57.000Z</time>
      </trkpt>
      <trkpt lat="38.12711" lon="-4.91901167">
        <ele>464.0</ele>
        <time>2018-10-06T07:43:58.000Z</time>
      </trkpt>
      <trkpt lat="38.12711" lon="-4.91901167">
        <ele>464.0</ele>
        <time>2018-10-06T07:43:59.000Z</time>
      </trkpt>
      <trkpt lat="38.12711" lon="-4.91901167">
        <ele>464.0</ele>
        <time>2018-10-06T07:44:00.000Z</time>
      </trkpt>
      <trkpt lat="38.12711" lon="-4.91901167">
        <ele>464.0</ele>
        <time>2018-10-06T07:44:01.000Z</time>
      </trkpt>
      <trkpt lat="38.12711" lon="-4.91901167">
        <ele>464.0</ele>
        <time>2018-10-06T07:44:02.000Z</time>
      </trkpt>
      <trkpt lat="38.12711" lon="-4.91901167">
        <ele>464.0</ele>
        <time>2018-10-06T07:44:03.000Z</time>
      </trkpt>
      <trkpt lat="38.12711" lon="-4.91901167">
        <ele>464.0</ele>
        <time>2018-10-06T07:44:04.000Z</time>
      </trkpt>
      <trkpt lat="38.12711" lon="-4.91901167">
        <ele>464.0</ele>
        <time>2018-10-06T07:44:05.000Z</time>
      </trkpt>
      <trkpt lat="38.12711" lon="-4.91901167">
        <ele>464.0</ele>
        <time>2018-10-06T07:44:06.000Z</time>
      </trkpt>
      <trkpt lat="38.12711" lon="-4.91901167">
        <ele>464.0</ele>
        <time>2018-10-06T07:44:07.000Z</time>
      </trkpt>
      <trkpt lat="38.12711" lon="-4.91901167">
        <ele>464.0</ele>
        <time>2018-10-06T07:44:08.000Z</time>
      </trkpt>
      <trkpt lat="38.12711" lon="-4.91901167">
        <ele>464.0</ele>
        <time>2018-10-06T07:44:09.000Z</time>
      </trkpt>
      <trkpt lat="38.12711" lon="-4.91901167">
        <ele>464.0</ele>
        <time>2018-10-06T07:44:10.000Z</time>
      </trkpt>
      <trkpt lat="38.12711" lon="-4.91901167">
        <ele>464.0</ele>
        <time>2018-10-06T07:44:11.000Z</time>
      </trkpt>
      <trkpt lat="38.12711" lon="-4.91901167">
        <ele>464.0</ele>
        <time>2018-10-06T07:44:12.000Z</time>
      </trkpt>
      <trkpt lat="38.12711" lon="-4.91901167">
        <ele>464.0</ele>
        <time>2018-10-06T07:44:13.000Z</time>
      </trkpt>
      <trkpt lat="38.12711" lon="-4.91901167">
        <ele>464.0</ele>
        <time>2018-10-06T07:44:14.000Z</time>
      </trkpt>
      <trkpt lat="38.12711" lon="-4.91901167">
        <ele>464.0</ele>
        <time>2018-10-06T07:44:15.000Z</time>
      </trkpt>
      <trkpt lat="38.12711" lon="-4.91901167">
        <ele>464.0</ele>
        <time>2018-10-06T07:44:16.000Z</time>
      </trkpt>
      <trkpt lat="38.12711" lon="-4.91901167">
        <ele>464.0</ele>
        <time>2018-10-06T07:44:17.000Z</time>
      </trkpt>
      <trkpt lat="38.12711" lon="-4.91901167">
        <ele>464.0</ele>
        <time>2018-10-06T07:44:18.000Z</time>
      </trkpt>
      <trkpt lat="38.12711" lon="-4.91901167">
        <ele>464.0</ele>
        <time>2018-10-06T07:44:19.000Z</time>
      </trkpt>
      <trkpt lat="38.12711" lon="-4.91901167">
        <ele>464.0</ele>
        <time>2018-10-06T07:44:20.000Z</time>
      </trkpt>
      <trkpt lat="38.12711" lon="-4.91901167">
        <ele>464.0</ele>
        <time>2018-10-06T07:44:21.000Z</time>
      </trkpt>
      <trkpt lat="38.12711" lon="-4.91901167">
        <ele>464.0</ele>
        <time>2018-10-06T07:44:22.000Z</time>
      </trkpt>
      <trkpt lat="38.12711" lon="-4.91901167">
        <ele>464.0</ele>
        <time>2018-10-06T07:44:23.000Z</time>
      </trkpt>
      <trkpt lat="38.12711" lon="-4.91901167">
        <ele>464.0</ele>
        <time>2018-10-06T07:44:24.000Z</time>
      </trkpt>
      <trkpt lat="38.12711" lon="-4.91901167">
        <ele>464.0</ele>
        <time>2018-10-06T07:44:25.000Z</time>
      </trkpt>
      <trkpt lat="38.12698333" lon="-4.919265">
        <ele>463.0</ele>
        <time>2018-10-06T07:44:26.000Z</time>
      </trkpt>
      <trkpt lat="38.12696667" lon="-4.91928167">
        <ele>464.0</ele>
        <time>2018-10-06T07:44:27.000Z</time>
      </trkpt>
      <trkpt lat="38.12695167" lon="-4.919295">
        <ele>464.0</ele>
        <time>2018-10-06T07:44:28.000Z</time>
      </trkpt>
      <trkpt lat="38.12693833" lon="-4.91930833">
        <ele>465.0</ele>
        <time>2018-10-06T07:44:29.000Z</time>
      </trkpt>
      <trkpt lat="38.12692667" lon="-4.919325">
        <ele>465.0</ele>
        <time>2018-10-06T07:44:30.000Z</time>
      </trkpt>
      <trkpt lat="38.12691833" lon="-4.91934167">
        <ele>465.0</ele>
        <time>2018-10-06T07:44:31.000Z</time>
      </trkpt>
      <trkpt lat="38.12691" lon="-4.91935667">
        <ele>465.0</ele>
        <time>2018-10-06T07:44:32.000Z</time>
      </trkpt>
      <trkpt lat="38.126905" lon="-4.91937">
        <ele>466.0</ele>
        <time>2018-10-06T07:44:33.000Z</time>
      </trkpt>
      <trkpt lat="38.1269" lon="-4.91938333">
        <ele>466.0</ele>
        <time>2018-10-06T07:44:34.000Z</time>
      </trkpt>
      <trkpt lat="38.12689833" lon="-4.9194">
        <ele>466.0</ele>
        <time>2018-10-06T07:44:35.000Z</time>
      </trkpt>
      <trkpt lat="38.126895" lon="-4.91941667">
        <ele>466.0</ele>
        <time>2018-10-06T07:44:36.000Z</time>
      </trkpt>
      <trkpt lat="38.12689167" lon="-4.91943167">
        <ele>467.0</ele>
        <time>2018-10-06T07:44:37.000Z</time>
      </trkpt>
      <trkpt lat="38.12689167" lon="-4.91943167">
        <ele>467.0</ele>
        <time>2018-10-06T07:44:38.000Z</time>
      </trkpt>
      <trkpt lat="38.12689167" lon="-4.91943167">
        <ele>467.0</ele>
        <time>2018-10-06T07:44:39.000Z</time>
      </trkpt>
      <trkpt lat="38.12689167" lon="-4.91943167">
        <ele>467.0</ele>
        <time>2018-10-06T07:44:40.000Z</time>
      </trkpt>
      <trkpt lat="38.12689167" lon="-4.91943167">
        <ele>467.0</ele>
        <time>2018-10-06T07:44:41.000Z</time>
      </trkpt>
      <trkpt lat="38.12689167" lon="-4.91943167">
        <ele>467.0</ele>
        <time>2018-10-06T07:44:42.000Z</time>
      </trkpt>
      <trkpt lat="38.12689167" lon="-4.91943167">
        <ele>467.0</ele>
        <time>2018-10-06T07:44:43.000Z</time>
      </trkpt>
      <trkpt lat="38.12689167" lon="-4.91943167">
        <ele>467.0</ele>
        <time>2018-10-06T07:44:44.000Z</time>
      </trkpt>
      <trkpt lat="38.12689167" lon="-4.91943167">
        <ele>467.0</ele>
        <time>2018-10-06T07:44:45.000Z</time>
      </trkpt>
      <trkpt lat="38.12689167" lon="-4.91943167">
        <ele>467.0</ele>
        <time>2018-10-06T07:44:46.000Z</time>
      </trkpt>
      <trkpt lat="38.12689167" lon="-4.91943167">
        <ele>467.0</ele>
        <time>2018-10-06T07:44:47.000Z</time>
      </trkpt>
      <trkpt lat="38.12689167" lon="-4.91943167">
        <ele>467.0</ele>
        <time>2018-10-06T07:44:48.000Z</time>
      </trkpt>
      <trkpt lat="38.12689167" lon="-4.91943167">
        <ele>467.0</ele>
        <time>2018-10-06T07:44:49.000Z</time>
      </trkpt>
      <trkpt lat="38.12689167" lon="-4.91943167">
        <ele>467.0</ele>
        <time>2018-10-06T07:44:50.000Z</time>
      </trkpt>
      <trkpt lat="38.12689167" lon="-4.91943167">
        <ele>467.0</ele>
        <time>2018-10-06T07:44:51.000Z</time>
      </trkpt>
      <trkpt lat="38.12689167" lon="-4.91943167">
        <ele>467.0</ele>
        <time>2018-10-06T07:44:52.000Z</time>
      </trkpt>
      <trkpt lat="38.12689167" lon="-4.91943167">
        <ele>467.0</ele>
        <time>2018-10-06T07:44:53.000Z</time>
      </trkpt>
      <trkpt lat="38.12689167" lon="-4.91943167">
        <ele>467.0</ele>
        <time>2018-10-06T07:44:54.000Z</time>
      </trkpt>
      <trkpt lat="38.12689167" lon="-4.91943167">
        <ele>467.0</ele>
        <time>2018-10-06T07:44:55.000Z</time>
      </trkpt>
      <trkpt lat="38.12689167" lon="-4.91943167">
        <ele>467.0</ele>
        <time>2018-10-06T07:44:56.000Z</time>
      </trkpt>
      <trkpt lat="38.12689167" lon="-4.91943167">
        <ele>467.0</ele>
        <time>2018-10-06T07:44:57.000Z</time>
      </trkpt>
      <trkpt lat="38.12689167" lon="-4.91943167">
        <ele>467.0</ele>
        <time>2018-10-06T07:44:58.000Z</time>
      </trkpt>
      <trkpt lat="38.12689167" lon="-4.91943167">
        <ele>467.0</ele>
        <time>2018-10-06T07:44:59.000Z</time>
      </trkpt>
      <trkpt lat="38.12689167" lon="-4.91943167">
        <ele>467.0</ele>
        <time>2018-10-06T07:45:00.000Z</time>
      </trkpt>
      <trkpt lat="38.12689167" lon="-4.91943167">
        <ele>467.0</ele>
        <time>2018-10-06T07:45:01.000Z</time>
      </trkpt>
      <trkpt lat="38.12689167" lon="-4.91943167">
        <ele>467.0</ele>
        <time>2018-10-06T07:45:02.000Z</time>
      </trkpt>
      <trkpt lat="38.12689167" lon="-4.91943167">
        <ele>467.0</ele>
        <time>2018-10-06T07:45:03.000Z</time>
      </trkpt>
      <trkpt lat="38.12689167" lon="-4.91943167">
        <ele>467.0</ele>
        <time>2018-10-06T07:45:04.000Z</time>
      </trkpt>
      <trkpt lat="38.12689167" lon="-4.91943167">
        <ele>467.0</ele>
        <time>2018-10-06T07:45:05.000Z</time>
      </trkpt>
      <trkpt lat="38.12689167" lon="-4.91943167">
        <ele>467.0</ele>
        <time>2018-10-06T07:45:06.000Z</time>
      </trkpt>
      <trkpt lat="38.12689167" lon="-4.91943167">
        <ele>467.0</ele>
        <time>2018-10-06T07:45:07.000Z</time>
      </trkpt>
      <trkpt lat="38.12689167" lon="-4.91943167">
        <ele>467.0</ele>
        <time>2018-10-06T07:45:08.000Z</time>
      </trkpt>
      <trkpt lat="38.12689167" lon="-4.91943167">
        <ele>467.0</ele>
        <time>2018-10-06T07:45:09.000Z</time>
      </trkpt>
      <trkpt lat="38.12689167" lon="-4.91943167">
        <ele>467.0</ele>
        <time>2018-10-06T07:45:10.000Z</time>
      </trkpt>
      <trkpt lat="38.12689167" lon="-4.91943167">
        <ele>467.0</ele>
        <time>2018-10-06T07:45:11.000Z</time>
      </trkpt>
      <trkpt lat="38.12689167" lon="-4.91943167">
        <ele>467.0</ele>
        <time>2018-10-06T07:45:12.000Z</time>
      </trkpt>
      <trkpt lat="38.12689167" lon="-4.91943167">
        <ele>467.0</ele>
        <time>2018-10-06T07:45:13.000Z</time>
      </trkpt>
      <trkpt lat="38.12689167" lon="-4.91943167">
        <ele>467.0</ele>
        <time>2018-10-06T07:45:14.000Z</time>
      </trkpt>
      <trkpt lat="38.12689167" lon="-4.91943167">
        <ele>467.0</ele>
        <time>2018-10-06T07:45:15.000Z</time>
      </trkpt>
      <trkpt lat="38.12689167" lon="-4.91943167">
        <ele>467.0</ele>
        <time>2018-10-06T07:45:16.000Z</time>
      </trkpt>
      <trkpt lat="38.12689167" lon="-4.91943167">
        <ele>467.0</ele>
        <time>2018-10-06T07:45:17.000Z</time>
      </trkpt>
      <trkpt lat="38.12689167" lon="-4.91943167">
        <ele>467.0</ele>
        <time>2018-10-06T07:45:18.000Z</time>
      </trkpt>
      <trkpt lat="38.12689167" lon="-4.91943167">
        <ele>467.0</ele>
        <time>2018-10-06T07:45:19.000Z</time>
      </trkpt>
      <trkpt lat="38.12689167" lon="-4.91943167">
        <ele>467.0</ele>
        <time>2018-10-06T07:45:20.000Z</time>
      </trkpt>
      <trkpt lat="38.12689167" lon="-4.91943167">
        <ele>467.0</ele>
        <time>2018-10-06T07:45:21.000Z</time>
      </trkpt>
      <trkpt lat="38.12689167" lon="-4.91943167">
        <ele>467.0</ele>
        <time>2018-10-06T07:45:22.000Z</time>
      </trkpt>
      <trkpt lat="38.12689167" lon="-4.91943167">
        <ele>467.0</ele>
        <time>2018-10-06T07:45:23.000Z</time>
      </trkpt>
      <trkpt lat="38.12689167" lon="-4.91943167">
        <ele>467.0</ele>
        <time>2018-10-06T07:45:24.000Z</time>
      </trkpt>
      <trkpt lat="38.12689167" lon="-4.91943167">
        <ele>467.0</ele>
        <time>2018-10-06T07:45:25.000Z</time>
      </trkpt>
      <trkpt lat="38.126775" lon="-4.91989833">
        <ele>463.0</ele>
        <time>2018-10-06T07:45:26.000Z</time>
      </trkpt>
      <trkpt lat="38.12677" lon="-4.919915">
        <ele>463.0</ele>
        <time>2018-10-06T07:45:27.000Z</time>
      </trkpt>
      <trkpt lat="38.12676833" lon="-4.91993333">
        <ele>464.0</ele>
        <time>2018-10-06T07:45:28.000Z</time>
      </trkpt>
      <trkpt lat="38.12677" lon="-4.91995167">
        <ele>464.0</ele>
        <time>2018-10-06T07:45:29.000Z</time>
      </trkpt>
      <trkpt lat="38.12677167" lon="-4.91996833">
        <ele>464.0</ele>
        <time>2018-10-06T07:45:30.000Z</time>
      </trkpt>
      <trkpt lat="38.12677333" lon="-4.919985">
        <ele>465.0</ele>
        <time>2018-10-06T07:45:31.000Z</time>
      </trkpt>
      <trkpt lat="38.12677333" lon="-4.92000167">
        <ele>465.0</ele>
        <time>2018-10-06T07:45:32.000Z</time>
      </trkpt>
      <trkpt lat="38.12677333" lon="-4.92001833">
        <ele>465.0</ele>
        <time>2018-10-06T07:45:33.000Z</time>
      </trkpt>
      <trkpt lat="38.12677333" lon="-4.920035">
        <ele>465.0</ele>
        <time>2018-10-06T07:45:34.000Z</time>
      </trkpt>
      <trkpt lat="38.126775" lon="-4.92004833">
        <ele>466.0</ele>
        <time>2018-10-06T07:45:35.000Z</time>
      </trkpt>
      <trkpt lat="38.12677667" lon="-4.92006167">
        <ele>466.0</ele>
        <time>2018-10-06T07:45:36.000Z</time>
      </trkpt>
      <trkpt lat="38.12678" lon="-4.92007833">
        <ele>466.0</ele>
        <time>2018-10-06T07:45:37.000Z</time>
      </trkpt>
      <trkpt lat="38.12678" lon="-4.92007833">
        <ele>466.0</ele>
        <time>2018-10-06T07:45:38.000Z</time>
      </trkpt>
      <trkpt lat="38.12678" lon="-4.92007833">
        <ele>466.0</ele>
        <time>2018-10-06T07:45:39.000Z</time>
      </trkpt>
      <trkpt lat="38.12678" lon="-4.92007833">
        <ele>466.0</ele>
        <time>2018-10-06T07:45:40.000Z</time>
      </trkpt>
      <trkpt lat="38.12678" lon="-4.92007833">
        <ele>466.0</ele>
        <time>2018-10-06T07:45:41.000Z</time>
      </trkpt>
      <trkpt lat="38.12678" lon="-4.92007833">
        <ele>466.0</ele>
        <time>2018-10-06T07:45:42.000Z</time>
      </trkpt>
      <trkpt lat="38.12678" lon="-4.92007833">
        <ele>466.0</ele>
        <time>2018-10-06T07:45:43.000Z</time>
      </trkpt>
      <trkpt lat="38.12678" lon="-4.92007833">
        <ele>466.0</ele>
        <time>2018-10-06T07:45:44.000Z</time>
      </trkpt>
      <trkpt lat="38.12678" lon="-4.92007833">
        <ele>466.0</ele>
        <time>2018-10-06T07:45:45.000Z</time>
      </trkpt>
      <trkpt lat="38.12678" lon="-4.92007833">
        <ele>466.0</ele>
        <time>2018-10-06T07:45:46.000Z</time>
      </trkpt>
      <trkpt lat="38.12678" lon="-4.92007833">
        <ele>466.0</ele>
        <time>2018-10-06T07:45:47.000Z</time>
      </trkpt>
      <trkpt lat="38.12678" lon="-4.92007833">
        <ele>466.0</ele>
        <time>2018-10-06T07:45:48.000Z</time>
      </trkpt>
      <trkpt lat="38.12678" lon="-4.92007833">
        <ele>466.0</ele>
        <time>2018-10-06T07:45:49.000Z</time>
      </trkpt>
      <trkpt lat="38.12678" lon="-4.92007833">
        <ele>466.0</ele>
        <time>2018-10-06T07:45:50.000Z</time>
      </trkpt>
      <trkpt lat="38.12678" lon="-4.92007833">
        <ele>466.0</ele>
        <time>2018-10-06T07:45:51.000Z</time>
      </trkpt>
      <trkpt lat="38.12678" lon="-4.92007833">
        <ele>466.0</ele>
        <time>2018-10-06T07:45:52.000Z</time>
      </trkpt>
      <trkpt lat="38.12678" lon="-4.92007833">
        <ele>466.0</ele>
        <time>2018-10-06T07:45:53.000Z</time>
      </trkpt>
      <trkpt lat="38.12678" lon="-4.92007833">
        <ele>466.0</ele>
        <time>2018-10-06T07:45:54.000Z</time>
      </trkpt>
      <trkpt lat="38.12678" lon="-4.92007833">
        <ele>466.0</ele>
        <time>2018-10-06T07:45:55.000Z</time>
      </trkpt>
      <trkpt lat="38.12678" lon="-4.92007833">
        <ele>466.0</ele>
        <time>2018-10-06T07:45:56.000Z</time>
      </trkpt>
      <trkpt lat="38.12678" lon="-4.92007833">
        <ele>466.0</ele>
        <time>2018-10-06T07:45:57.000Z</time>
      </trkpt>
      <trkpt lat="38.12678" lon="-4.92007833">
        <ele>466.0</ele>
        <time>2018-10-06T07:45:58.000Z</time>
      </trkpt>
      <trkpt lat="38.12678" lon="-4.92007833">
        <ele>466.0</ele>
        <time>2018-10-06T07:45:59.000Z</time>
      </trkpt>
      <trkpt lat="38.12678" lon="-4.92007833">
        <ele>466.0</ele>
        <time>2018-10-06T07:46:00.000Z</time>
      </trkpt>
      <trkpt lat="38.12678" lon="-4.92007833">
        <ele>466.0</ele>
        <time>2018-10-06T07:46:01.000Z</time>
      </trkpt>
      <trkpt lat="38.12678" lon="-4.92007833">
        <ele>466.0</ele>
        <time>2018-10-06T07:46:02.000Z</time>
      </trkpt>
      <trkpt lat="38.12678" lon="-4.92007833">
        <ele>466.0</ele>
        <time>2018-10-06T07:46:03.000Z</time>
      </trkpt>
      <trkpt lat="38.12678" lon="-4.92007833">
        <ele>466.0</ele>
        <time>2018-10-06T07:46:04.000Z</time>
      </trkpt>
      <trkpt lat="38.12678" lon="-4.92007833">
        <ele>466.0</ele>
        <time>2018-10-06T07:46:05.000Z</time>
      </trkpt>
      <trkpt lat="38.12678" lon="-4.92007833">
        <ele>466.0</ele>
        <time>2018-10-06T07:46:06.000Z</time>
      </trkpt>
      <trkpt lat="38.12678" lon="-4.92007833">
        <ele>466.0</ele>
        <time>2018-10-06T07:46:07.000Z</time>
      </trkpt>
      <trkpt lat="38.12678" lon="-4.92007833">
        <ele>466.0</ele>
        <time>2018-10-06T07:46:08.000Z</time>
      </trkpt>
      <trkpt lat="38.12678" lon="-4.92007833">
        <ele>466.0</ele>
        <time>2018-10-06T07:46:09.000Z</time>
      </trkpt>
      <trkpt lat="38.12678" lon="-4.92007833">
        <ele>466.0</ele>
        <time>2018-10-06T07:46:10.000Z</time>
      </trkpt>
      <trkpt lat="38.12678" lon="-4.92007833">
        <ele>466.0</ele>
        <time>2018-10-06T07:46:11.000Z</time>
      </trkpt>
      <trkpt lat="38.12678" lon="-4.92007833">
        <ele>466.0</ele>
        <time>2018-10-06T07:46:12.000Z</time>
      </trkpt>
      <trkpt lat="38.12678" lon="-4.92007833">
        <ele>466.0</ele>
        <time>2018-10-06T07:46:13.000Z</time>
      </trkpt>
      <trkpt lat="38.12678" lon="-4.92007833">
        <ele>466.0</ele>
        <time>2018-10-06T07:46:14.000Z</time>
      </trkpt>
      <trkpt lat="38.12678" lon="-4.92007833">
        <ele>466.0</ele>
        <time>2018-10-06T07:46:15.000Z</time>
      </trkpt>
      <trkpt lat="38.12678" lon="-4.92007833">
        <ele>466.0</ele>
        <time>2018-10-06T07:46:16.000Z</time>
      </trkpt>
      <trkpt lat="38.12678" lon="-4.92007833">
        <ele>466.0</ele>
        <time>2018-10-06T07:46:17.000Z</time>
      </trkpt>
      <trkpt lat="38.12678" lon="-4.92007833">
        <ele>466.0</ele>
        <time>2018-10-06T07:46:18.000Z</time>
      </trkpt>
      <trkpt lat="38.12678" lon="-4.92007833">
        <ele>466.0</ele>
        <time>2018-10-06T07:46:19.000Z</time>
      </trkpt>
      <trkpt lat="38.12678" lon="-4.92007833">
        <ele>466.0</ele>
        <time>2018-10-06T07:46:20.000Z</time>
      </trkpt>
      <trkpt lat="38.12678" lon="-4.92007833">
        <ele>466.0</ele>
        <time>2018-10-06T07:46:21.000Z</time>
      </trkpt>
      <trkpt lat="38.12678" lon="-4.92007833">
        <ele>466.0</ele>
        <time>2018-10-06T07:46:22.000Z</time>
      </trkpt>
      <trkpt lat="38.12678" lon="-4.92007833">
        <ele>466.0</ele>
        <time>2018-10-06T07:46:23.000Z</time>
      </trkpt>
      <trkpt lat="38.12678" lon="-4.92007833">
        <ele>466.0</ele>
        <time>2018-10-06T07:46:24.000Z</time>
      </trkpt>
      <trkpt lat="38.12678" lon="-4.92007833">
        <ele>466.0</ele>
        <time>2018-10-06T07:46:25.000Z</time>
      </trkpt>
      <trkpt lat="38.12688" lon="-4.92053333">
        <ele>460.0</ele>
        <time>2018-10-06T07:46:26.000Z</time>
      </trkpt>
      <trkpt lat="38.12687833" lon="-4.92055167">
        <ele>459.0</ele>
        <time>2018-10-06T07:46:27.000Z</time>
      </trkpt>
      <trkpt lat="38.12687667" lon="-4.92056833">
        <ele>460.0</ele>
        <time>2018-10-06T07:46:28.000Z</time>
      </trkpt>
      <trkpt lat="38.12687167" lon="-4.92058833">
        <ele>460.0</ele>
        <time>2018-10-06T07:46:29.000Z</time>
      </trkpt>
      <trkpt lat="38.12686667" lon="-4.92060833">
        <ele>461.0</ele>
        <time>2018-10-06T07:46:30.000Z</time>
      </trkpt>
      <trkpt lat="38.12686333" lon="-4.920625">
        <ele>462.0</ele>
        <time>2018-10-06T07:46:31.000Z</time>
      </trkpt>
      <trkpt lat="38.12686167" lon="-4.92064333">
        <ele>462.0</ele>
        <time>2018-10-06T07:46:32.000Z</time>
      </trkpt>
      <trkpt lat="38.12686" lon="-4.92065833">
        <ele>463.0</ele>
        <time>2018-10-06T07:46:33.000Z</time>
      </trkpt>
      <trkpt lat="38.12686" lon="-4.92067">
        <ele>464.0</ele>
        <time>2018-10-06T07:46:34.000Z</time>
      </trkpt>
      <trkpt lat="38.12685833" lon="-4.92067667">
        <ele>464.0</ele>
        <time>2018-10-06T07:46:35.000Z</time>
      </trkpt>
      <trkpt lat="38.12685667" lon="-4.92068333">
        <ele>465.0</ele>
        <time>2018-10-06T07:46:36.000Z</time>
      </trkpt>
      <trkpt lat="38.126855" lon="-4.92069333">
        <ele>465.0</ele>
        <time>2018-10-06T07:46:37.000Z</time>
      </trkpt>
      <trkpt lat="38.126855" lon="-4.92069333">
        <ele>465.0</ele>
        <time>2018-10-06T07:46:38.000Z</time>
      </trkpt>
      <trkpt lat="38.126855" lon="-4.92069333">
        <ele>465.0</ele>
        <time>2018-10-06T07:46:39.000Z</time>
      </trkpt>
      <trkpt lat="38.126855" lon="-4.92069333">
        <ele>465.0</ele>
        <time>2018-10-06T07:46:40.000Z</time>
      </trkpt>
      <trkpt lat="38.126855" lon="-4.92069333">
        <ele>465.0</ele>
        <time>2018-10-06T07:46:41.000Z</time>
      </trkpt>
      <trkpt lat="38.126855" lon="-4.92069333">
        <ele>465.0</ele>
        <time>2018-10-06T07:46:42.000Z</time>
      </trkpt>
      <trkpt lat="38.126855" lon="-4.92069333">
        <ele>465.0</ele>
        <time>2018-10-06T07:46:43.000Z</time>
      </trkpt>
      <trkpt lat="38.126855" lon="-4.92069333">
        <ele>465.0</ele>
        <time>2018-10-06T07:46:44.000Z</time>
      </trkpt>
      <trkpt lat="38.126855" lon="-4.92069333">
        <ele>465.0</ele>
        <time>2018-10-06T07:46:45.000Z</time>
      </trkpt>
      <trkpt lat="38.126855" lon="-4.92069333">
        <ele>465.0</ele>
        <time>2018-10-06T07:46:46.000Z</time>
      </trkpt>
      <trkpt lat="38.126855" lon="-4.92069333">
        <ele>465.0</ele>
        <time>2018-10-06T07:46:47.000Z</time>
      </trkpt>
      <trkpt lat="38.126855" lon="-4.92069333">
        <ele>465.0</ele>
        <time>2018-10-06T07:46:48.000Z</time>
      </trkpt>
      <trkpt lat="38.126855" lon="-4.92069333">
        <ele>465.0</ele>
        <time>2018-10-06T07:46:49.000Z</time>
      </trkpt>
      <trkpt lat="38.126855" lon="-4.92069333">
        <ele>465.0</ele>
        <time>2018-10-06T07:46:50.000Z</time>
      </trkpt>
      <trkpt lat="38.126855" lon="-4.92069333">
        <ele>465.0</ele>
        <time>2018-10-06T07:46:51.000Z</time>
      </trkpt>
      <trkpt lat="38.126855" lon="-4.92069333">
        <ele>465.0</ele>
        <time>2018-10-06T07:46:52.000Z</time>
      </trkpt>
      <trkpt lat="38.126855" lon="-4.92069333">
        <ele>465.0</ele>
        <time>2018-10-06T07:46:53.000Z</time>
      </trkpt>
      <trkpt lat="38.126855" lon="-4.92069333">
        <ele>465.0</ele>
        <time>2018-10-06T07:46:54.000Z</time>
      </trkpt>
      <trkpt lat="38.126855" lon="-4.92069333">
        <ele>465.0</ele>
        <time>2018-10-06T07:46:55.000Z</time>
      </trkpt>
      <trkpt lat="38.126855" lon="-4.92069333">
        <ele>465.0</ele>
        <time>2018-10-06T07:46:56.000Z</time>
      </trkpt>
      <trkpt lat="38.126855" lon="-4.92069333">
        <ele>465.0</ele>
        <time>2018-10-06T07:46:57.000Z</time>
      </trkpt>
      <trkpt lat="38.126855" lon="-4.92069333">
        <ele>465.0</ele>
        <time>2018-10-06T07:46:58.000Z</time>
      </trkpt>
      <trkpt lat="38.126855" lon="-4.92069333">
        <ele>465.0</ele>
        <time>2018-10-06T07:46:59.000Z</time>
      </trkpt>
      <trkpt lat="38.126855" lon="-4.92069333">
        <ele>465.0</ele>
        <time>2018-10-06T07:47:00.000Z</time>
      </trkpt>
      <trkpt lat="38.126855" lon="-4.92069333">
        <ele>465.0</ele>
        <time>2018-10-06T07:47:01.000Z</time>
      </trkpt>
      <trkpt lat="38.126855" lon="-4.92069333">
        <ele>465.0</ele>
        <time>2018-10-06T07:47:02.000Z</time>
      </trkpt>
      <trkpt lat="38.126855" lon="-4.92069333">
        <ele>465.0</ele>
        <time>2018-10-06T07:47:03.000Z</time>
      </trkpt>
      <trkpt lat="38.126855" lon="-4.92069333">
        <ele>465.0</ele>
        <time>2018-10-06T07:47:04.000Z</time>
      </trkpt>
      <trkpt lat="38.126855" lon="-4.92069333">
        <ele>465.0</ele>
        <time>2018-10-06T07:47:05.000Z</time>
      </trkpt>
      <trkpt lat="38.126855" lon="-4.92069333">
        <ele>465.0</ele>
        <time>2018-10-06T07:47:06.000Z</time>
      </trkpt>
      <trkpt lat="38.126855" lon="-4.92069333">
        <ele>465.0</ele>
        <time>2018-10-06T07:47:07.000Z</time>
      </trkpt>
      <trkpt lat="38.126855" lon="-4.92069333">
        <ele>465.0</ele>
        <time>2018-10-06T07:47:08.000Z</time>
      </trkpt>
      <trkpt lat="38.126855" lon="-4.92069333">
        <ele>465.0</ele>
        <time>2018-10-06T07:47:09.000Z</time>
      </trkpt>
      <trkpt lat="38.126855" lon="-4.92069333">
        <ele>465.0</ele>
        <time>2018-10-06T07:47:10.000Z</time>
      </trkpt>
      <trkpt lat="38.126855" lon="-4.92069333">
        <ele>465.0</ele>
        <time>2018-10-06T07:47:11.000Z</time>
      </trkpt>
      <trkpt lat="38.126855" lon="-4.92069333">
        <ele>465.0</ele>
        <time>2018-10-06T07:47:12.000Z</time>
      </trkpt>
      <trkpt lat="38.126855" lon="-4.92069333">
        <ele>465.0</ele>
        <time>2018-10-06T07:47:13.000Z</time>
      </trkpt>
      <trkpt lat="38.126855" lon="-4.92069333">
        <ele>465.0</ele>
        <time>2018-10-06T07:47:14.000Z</time>
      </trkpt>
      <trkpt lat="38.126855" lon="-4.92069333">
        <ele>465.0</ele>
        <time>2018-10-06T07:47:15.000Z</time>
      </trkpt>
      <trkpt lat="38.126855" lon="-4.92069333">
        <ele>465.0</ele>
        <time>2018-10-06T07:47:16.000Z</time>
      </trkpt>
      <trkpt lat="38.126855" lon="-4.92069333">
        <ele>465.0</ele>
        <time>2018-10-06T07:47:17.000Z</time>
      </trkpt>
      <trkpt lat="38.126855" lon="-4.92069333">
        <ele>465.0</ele>
        <time>2018-10-06T07:47:18.000Z</time>
      </trkpt>
      <trkpt lat="38.126855" lon="-4.92069333">
        <ele>465.0</ele>
        <time>2018-10-06T07:47:19.000Z</time>
      </trkpt>
      <trkpt lat="38.126855" lon="-4.92069333">
        <ele>465.0</ele>
        <time>2018-10-06T07:47:20.000Z</time>
      </trkpt>
      <trkpt lat="38.126855" lon="-4.92069333">
        <ele>465.0</ele>
        <time>2018-10-06T07:47:21.000Z</time>
      </trkpt>
      <trkpt lat="38.126855" lon="-4.92069333">
        <ele>465.0</ele>
        <time>2018-10-06T07:47:22.000Z</time>
      </trkpt>
      <trkpt lat="38.126855" lon="-4.92069333">
        <ele>465.0</ele>
        <time>2018-10-06T07:47:23.000Z</time>
      </trkpt>
      <trkpt lat="38.126855" lon="-4.92069333">
        <ele>465.0</ele>
        <time>2018-10-06T07:47:24.000Z</time>
      </trkpt>
      <trkpt lat="38.126855" lon="-4.92069333">
        <ele>465.0</ele>
        <time>2018-10-06T07:47:25.000Z</time>
      </trkpt>
      <trkpt lat="38.12687333" lon="-4.9209">
        <ele>455.0</ele>
        <time>2018-10-06T07:47:26.000Z</time>
      </trkpt>
      <trkpt lat="38.12687333" lon="-4.9209">
        <ele>455.0</ele>
        <time>2018-10-06T07:47:27.000Z</time>
      </trkpt>
      <trkpt lat="38.12687333" lon="-4.9209">
        <ele>455.0</ele>
        <time>2018-10-06T07:47:28.000Z</time>
      </trkpt>
      <trkpt lat="38.12687333" lon="-4.9209">
        <ele>455.0</ele>
        <time>2018-10-06T07:47:29.000Z</time>
      </trkpt>
      <trkpt lat="38.12687333" lon="-4.9209">
        <ele>455.0</ele>
        <time>2018-10-06T07:47:30.000Z</time>
      </trkpt>
      <trkpt lat="38.12687333" lon="-4.9209">
        <ele>455.0</ele>
        <time>2018-10-06T07:47:31.000Z</time>
      </trkpt>
      <trkpt lat="38.12687333" lon="-4.9209">
        <ele>455.0</ele>
        <time>2018-10-06T07:47:32.000Z</time>
      </trkpt>
      <trkpt lat="38.12687333" lon="-4.9209">
        <ele>455.0</ele>
        <time>2018-10-06T07:47:33.000Z</time>
      </trkpt>
      <trkpt lat="38.12687333" lon="-4.9209">
        <ele>455.0</ele>
        <time>2018-10-06T07:47:34.000Z</time>
      </trkpt>
      <trkpt lat="38.12687333" lon="-4.9209">
        <ele>455.0</ele>
        <time>2018-10-06T07:47:35.000Z</time>
      </trkpt>
      <trkpt lat="38.12687333" lon="-4.9209">
        <ele>455.0</ele>
        <time>2018-10-06T07:47:36.000Z</time>
      </trkpt>
      <trkpt lat="38.12692" lon="-4.92084333">
        <ele>461.0</ele>
        <time>2018-10-06T07:47:37.000Z</time>
      </trkpt>
      <trkpt lat="38.12691833" lon="-4.92084167">
        <ele>461.0</ele>
        <time>2018-10-06T07:47:38.000Z</time>
      </trkpt>
      <trkpt lat="38.126915" lon="-4.92084667">
        <ele>461.0</ele>
        <time>2018-10-06T07:47:39.000Z</time>
      </trkpt>
      <trkpt lat="38.12691333" lon="-4.92085167">
        <ele>462.0</ele>
        <time>2018-10-06T07:47:40.000Z</time>
      </trkpt>
      <trkpt lat="38.12691167" lon="-4.92085667">
        <ele>462.0</ele>
        <time>2018-10-06T07:47:41.000Z</time>
      </trkpt>
      <trkpt lat="38.12690667" lon="-4.92086">
        <ele>463.0</ele>
        <time>2018-10-06T07:47:42.000Z</time>
      </trkpt>
      <trkpt lat="38.12690333" lon="-4.92086333">
        <ele>463.0</ele>
        <time>2018-10-06T07:47:43.000Z</time>
      </trkpt>
      <trkpt lat="38.12689833" lon="-4.920865">
        <ele>463.0</ele>
        <time>2018-10-06T07:47:44.000Z</time>
      </trkpt>
      <trkpt lat="38.126895" lon="-4.92086833">
        <ele>464.0</ele>
        <time>2018-10-06T07:47:45.000Z</time>
      </trkpt>
      <trkpt lat="38.12689167" lon="-4.92087">
        <ele>464.0</ele>
        <time>2018-10-06T07:47:46.000Z</time>
      </trkpt>
      <trkpt lat="38.12689" lon="-4.92087167">
        <ele>464.0</ele>
        <time>2018-10-06T07:47:47.000Z</time>
      </trkpt>
      <trkpt lat="38.12688667" lon="-4.920875">
        <ele>464.0</ele>
        <time>2018-10-06T07:47:48.000Z</time>
      </trkpt>
      <trkpt lat="38.12688667" lon="-4.920875">
        <ele>464.0</ele>
        <time>2018-10-06T07:47:49.000Z</time>
      </trkpt>
      <trkpt lat="38.12688667" lon="-4.920875">
        <ele>464.0</ele>
        <time>2018-10-06T07:47:50.000Z</time>
      </trkpt>
      <trkpt lat="38.12688667" lon="-4.920875">
        <ele>464.0</ele>
        <time>2018-10-06T07:47:51.000Z</time>
      </trkpt>
      <trkpt lat="38.12688667" lon="-4.920875">
        <ele>464.0</ele>
        <time>2018-10-06T07:47:52.000Z</time>
      </trkpt>
      <trkpt lat="38.12688667" lon="-4.920875">
        <ele>464.0</ele>
        <time>2018-10-06T07:47:53.000Z</time>
      </trkpt>
      <trkpt lat="38.12688667" lon="-4.920875">
        <ele>464.0</ele>
        <time>2018-10-06T07:47:54.000Z</time>
      </trkpt>
      <trkpt lat="38.12688667" lon="-4.920875">
        <ele>464.0</ele>
        <time>2018-10-06T07:47:55.000Z</time>
      </trkpt>
      <trkpt lat="38.12688667" lon="-4.920875">
        <ele>464.0</ele>
        <time>2018-10-06T07:47:56.000Z</time>
      </trkpt>
      <trkpt lat="38.12688667" lon="-4.920875">
        <ele>464.0</ele>
        <time>2018-10-06T07:47:57.000Z</time>
      </trkpt>
      <trkpt lat="38.12688667" lon="-4.920875">
        <ele>464.0</ele>
        <time>2018-10-06T07:47:58.000Z</time>
      </trkpt>
      <trkpt lat="38.12688667" lon="-4.920875">
        <ele>464.0</ele>
        <time>2018-10-06T07:47:59.000Z</time>
      </trkpt>
      <trkpt lat="38.12688667" lon="-4.920875">
        <ele>464.0</ele>
        <time>2018-10-06T07:48:00.000Z</time>
      </trkpt>
      <trkpt lat="38.12688667" lon="-4.920875">
        <ele>464.0</ele>
        <time>2018-10-06T07:48:01.000Z</time>
      </trkpt>
      <trkpt lat="38.12688667" lon="-4.920875">
        <ele>464.0</ele>
        <time>2018-10-06T07:48:02.000Z</time>
      </trkpt>
      <trkpt lat="38.12688667" lon="-4.920875">
        <ele>464.0</ele>
        <time>2018-10-06T07:48:03.000Z</time>
      </trkpt>
      <trkpt lat="38.12688667" lon="-4.920875">
        <ele>464.0</ele>
        <time>2018-10-06T07:48:04.000Z</time>
      </trkpt>
      <trkpt lat="38.12688667" lon="-4.920875">
        <ele>464.0</ele>
        <time>2018-10-06T07:48:05.000Z</time>
      </trkpt>
      <trkpt lat="38.12688667" lon="-4.920875">
        <ele>464.0</ele>
        <time>2018-10-06T07:48:06.000Z</time>
      </trkpt>
      <trkpt lat="38.12688667" lon="-4.920875">
        <ele>464.0</ele>
        <time>2018-10-06T07:48:07.000Z</time>
      </trkpt>
      <trkpt lat="38.12688667" lon="-4.920875">
        <ele>464.0</ele>
        <time>2018-10-06T07:48:08.000Z</time>
      </trkpt>
      <trkpt lat="38.12688667" lon="-4.920875">
        <ele>464.0</ele>
        <time>2018-10-06T07:48:09.000Z</time>
      </trkpt>
      <trkpt lat="38.12688667" lon="-4.920875">
        <ele>464.0</ele>
        <time>2018-10-06T07:48:10.000Z</time>
      </trkpt>
      <trkpt lat="38.12688667" lon="-4.920875">
        <ele>464.0</ele>
        <time>2018-10-06T07:48:11.000Z</time>
      </trkpt>
      <trkpt lat="38.12688667" lon="-4.920875">
        <ele>464.0</ele>
        <time>2018-10-06T07:48:12.000Z</time>
      </trkpt>
      <trkpt lat="38.12688667" lon="-4.920875">
        <ele>464.0</ele>
        <time>2018-10-06T07:48:13.000Z</time>
      </trkpt>
      <trkpt lat="38.12688667" lon="-4.920875">
        <ele>464.0</ele>
        <time>2018-10-06T07:48:14.000Z</time>
      </trkpt>
      <trkpt lat="38.12688667" lon="-4.920875">
        <ele>464.0</ele>
        <time>2018-10-06T07:48:15.000Z</time>
      </trkpt>
      <trkpt lat="38.12688667" lon="-4.920875">
        <ele>464.0</ele>
        <time>2018-10-06T07:48:16.000Z</time>
      </trkpt>
      <trkpt lat="38.12688667" lon="-4.920875">
        <ele>464.0</ele>
        <time>2018-10-06T07:48:17.000Z</time>
      </trkpt>
      <trkpt lat="38.12688667" lon="-4.920875">
        <ele>464.0</ele>
        <time>2018-10-06T07:48:18.000Z</time>
      </trkpt>
      <trkpt lat="38.12688667" lon="-4.920875">
        <ele>464.0</ele>
        <time>2018-10-06T07:48:19.000Z</time>
      </trkpt>
      <trkpt lat="38.12688667" lon="-4.920875">
        <ele>464.0</ele>
        <time>2018-10-06T07:48:20.000Z</time>
      </trkpt>
      <trkpt lat="38.12688667" lon="-4.920875">
        <ele>464.0</ele>
        <time>2018-10-06T07:48:21.000Z</time>
      </trkpt>
      <trkpt lat="38.12688667" lon="-4.920875">
        <ele>464.0</ele>
        <time>2018-10-06T07:48:22.000Z</time>
      </trkpt>
      <trkpt lat="38.12688667" lon="-4.920875">
        <ele>464.0</ele>
        <time>2018-10-06T07:48:23.000Z</time>
      </trkpt>
      <trkpt lat="38.12688667" lon="-4.920875">
        <ele>464.0</ele>
        <time>2018-10-06T07:48:24.000Z</time>
      </trkpt>
      <trkpt lat="38.12688667" lon="-4.920875">
        <ele>464.0</ele>
        <time>2018-10-06T07:48:25.000Z</time>
      </trkpt>
      <trkpt lat="38.12688667" lon="-4.920875">
        <ele>464.0</ele>
        <time>2018-10-06T07:48:26.000Z</time>
      </trkpt>
      <trkpt lat="38.12688667" lon="-4.920875">
        <ele>464.0</ele>
        <time>2018-10-06T07:48:27.000Z</time>
      </trkpt>
      <trkpt lat="38.12688667" lon="-4.920875">
        <ele>464.0</ele>
        <time>2018-10-06T07:48:28.000Z</time>
      </trkpt>
      <trkpt lat="38.12688667" lon="-4.920875">
        <ele>464.0</ele>
        <time>2018-10-06T07:48:29.000Z</time>
      </trkpt>
      <trkpt lat="38.12688667" lon="-4.920875">
        <ele>464.0</ele>
        <time>2018-10-06T07:48:30.000Z</time>
      </trkpt>
      <trkpt lat="38.12688667" lon="-4.920875">
        <ele>464.0</ele>
        <time>2018-10-06T07:48:31.000Z</time>
      </trkpt>
      <trkpt lat="38.12688667" lon="-4.920875">
        <ele>464.0</ele>
        <time>2018-10-06T07:48:32.000Z</time>
      </trkpt>
      <trkpt lat="38.12688667" lon="-4.920875">
        <ele>464.0</ele>
        <time>2018-10-06T07:48:33.000Z</time>
      </trkpt>
      <trkpt lat="38.12688667" lon="-4.920875">
        <ele>464.0</ele>
        <time>2018-10-06T07:48:34.000Z</time>
      </trkpt>
      <trkpt lat="38.12688667" lon="-4.920875">
        <ele>464.0</ele>
        <time>2018-10-06T07:48:35.000Z</time>
      </trkpt>
      <trkpt lat="38.12688667" lon="-4.920875">
        <ele>464.0</ele>
        <time>2018-10-06T07:48:36.000Z</time>
      </trkpt>
      <trkpt lat="38.12685667" lon="-4.92078333">
        <ele>444.0</ele>
        <time>2018-10-06T07:48:37.000Z</time>
      </trkpt>
      <trkpt lat="38.12685667" lon="-4.92078333">
        <ele>444.0</ele>
        <time>2018-10-06T07:48:38.000Z</time>
      </trkpt>
      <trkpt lat="38.12685667" lon="-4.92078333">
        <ele>444.0</ele>
        <time>2018-10-06T07:48:39.000Z</time>
      </trkpt>
      <trkpt lat="38.12685667" lon="-4.92078333">
        <ele>444.0</ele>
        <time>2018-10-06T07:48:40.000Z</time>
      </trkpt>
      <trkpt lat="38.12685667" lon="-4.92078333">
        <ele>444.0</ele>
        <time>2018-10-06T07:48:41.000Z</time>
      </trkpt>
      <trkpt lat="38.12685667" lon="-4.92078333">
        <ele>444.0</ele>
        <time>2018-10-06T07:48:42.000Z</time>
      </trkpt>
      <trkpt lat="38.12685667" lon="-4.92078333">
        <ele>444.0</ele>
        <time>2018-10-06T07:48:43.000Z</time>
      </trkpt>
      <trkpt lat="38.12685667" lon="-4.92078333">
        <ele>444.0</ele>
        <time>2018-10-06T07:48:44.000Z</time>
      </trkpt>
      <trkpt lat="38.12685667" lon="-4.92078333">
        <ele>444.0</ele>
        <time>2018-10-06T07:48:45.000Z</time>
      </trkpt>
      <trkpt lat="38.12685667" lon="-4.92078333">
        <ele>444.0</ele>
        <time>2018-10-06T07:48:46.000Z</time>
      </trkpt>
      <trkpt lat="38.12685667" lon="-4.92078333">
        <ele>444.0</ele>
        <time>2018-10-06T07:48:47.000Z</time>
      </trkpt>
      <trkpt lat="38.12685667" lon="-4.92078333">
        <ele>444.0</ele>
        <time>2018-10-06T07:48:48.000Z</time>
      </trkpt>
      <trkpt lat="38.12685667" lon="-4.92078333">
        <ele>444.0</ele>
        <time>2018-10-06T07:48:49.000Z</time>
      </trkpt>
      <trkpt lat="38.12685667" lon="-4.92078333">
        <ele>444.0</ele>
        <time>2018-10-06T07:48:50.000Z</time>
      </trkpt>
      <trkpt lat="38.12685667" lon="-4.92078333">
        <ele>444.0</ele>
        <time>2018-10-06T07:48:51.000Z</time>
      </trkpt>
      <trkpt lat="38.12685667" lon="-4.92078333">
        <ele>444.0</ele>
        <time>2018-10-06T07:48:52.000Z</time>
      </trkpt>
      <trkpt lat="38.12685667" lon="-4.92078333">
        <ele>444.0</ele>
        <time>2018-10-06T07:48:53.000Z</time>
      </trkpt>
      <trkpt lat="38.12685667" lon="-4.92078333">
        <ele>444.0</ele>
        <time>2018-10-06T07:48:54.000Z</time>
      </trkpt>
      <trkpt lat="38.12685667" lon="-4.92078333">
        <ele>444.0</ele>
        <time>2018-10-06T07:48:55.000Z</time>
      </trkpt>
      <trkpt lat="38.12685667" lon="-4.92078333">
        <ele>444.0</ele>
        <time>2018-10-06T07:48:56.000Z</time>
      </trkpt>
      <trkpt lat="38.12685667" lon="-4.92078333">
        <ele>444.0</ele>
        <time>2018-10-06T07:48:57.000Z</time>
      </trkpt>
      <trkpt lat="38.12685667" lon="-4.92078333">
        <ele>444.0</ele>
        <time>2018-10-06T07:48:58.000Z</time>
      </trkpt>
      <trkpt lat="38.12685667" lon="-4.92078333">
        <ele>444.0</ele>
        <time>2018-10-06T07:48:59.000Z</time>
      </trkpt>
      <trkpt lat="38.12685667" lon="-4.92078333">
        <ele>444.0</ele>
        <time>2018-10-06T07:49:00.000Z</time>
      </trkpt>
      <trkpt lat="38.12685667" lon="-4.92078333">
        <ele>444.0</ele>
        <time>2018-10-06T07:49:01.000Z</time>
      </trkpt>
      <trkpt lat="38.12685667" lon="-4.92078333">
        <ele>444.0</ele>
        <time>2018-10-06T07:49:02.000Z</time>
      </trkpt>
      <trkpt lat="38.12685667" lon="-4.92078333">
        <ele>444.0</ele>
        <time>2018-10-06T07:49:03.000Z</time>
      </trkpt>
      <trkpt lat="38.12685667" lon="-4.92078333">
        <ele>444.0</ele>
        <time>2018-10-06T07:49:04.000Z</time>
      </trkpt>
      <trkpt lat="38.12685667" lon="-4.92078333">
        <ele>444.0</ele>
        <time>2018-10-06T07:49:05.000Z</time>
      </trkpt>
      <trkpt lat="38.12685667" lon="-4.92078333">
        <ele>444.0</ele>
        <time>2018-10-06T07:49:06.000Z</time>
      </trkpt>
      <trkpt lat="38.12685667" lon="-4.92078333">
        <ele>444.0</ele>
        <time>2018-10-06T07:49:07.000Z</time>
      </trkpt>
      <trkpt lat="38.12685667" lon="-4.92078333">
        <ele>444.0</ele>
        <time>2018-10-06T07:49:08.000Z</time>
      </trkpt>
      <trkpt lat="38.12685667" lon="-4.92078333">
        <ele>444.0</ele>
        <time>2018-10-06T07:49:09.000Z</time>
      </trkpt>
      <trkpt lat="38.12685667" lon="-4.92078333">
        <ele>444.0</ele>
        <time>2018-10-06T07:49:10.000Z</time>
      </trkpt>
      <trkpt lat="38.12685667" lon="-4.92078333">
        <ele>444.0</ele>
        <time>2018-10-06T07:49:11.000Z</time>
      </trkpt>
      <trkpt lat="38.12685667" lon="-4.92078333">
        <ele>444.0</ele>
        <time>2018-10-06T07:49:12.000Z</time>
      </trkpt>
      <trkpt lat="38.12685667" lon="-4.92078333">
        <ele>444.0</ele>
        <time>2018-10-06T07:49:13.000Z</time>
      </trkpt>
      <trkpt lat="38.12685667" lon="-4.92078333">
        <ele>444.0</ele>
        <time>2018-10-06T07:49:14.000Z</time>
      </trkpt>
      <trkpt lat="38.12685667" lon="-4.92078333">
        <ele>444.0</ele>
        <time>2018-10-06T07:49:15.000Z</time>
      </trkpt>
      <trkpt lat="38.12685667" lon="-4.92078333">
        <ele>444.0</ele>
        <time>2018-10-06T07:49:16.000Z</time>
      </trkpt>
      <trkpt lat="38.12685667" lon="-4.92078333">
        <ele>444.0</ele>
        <time>2018-10-06T07:49:17.000Z</time>
      </trkpt>
      <trkpt lat="38.12685667" lon="-4.92078333">
        <ele>444.0</ele>
        <time>2018-10-06T07:49:18.000Z</time>
      </trkpt>
      <trkpt lat="38.12685667" lon="-4.92078333">
        <ele>444.0</ele>
        <time>2018-10-06T07:49:19.000Z</time>
      </trkpt>
      <trkpt lat="38.12685667" lon="-4.92078333">
        <ele>444.0</ele>
        <time>2018-10-06T07:49:20.000Z</time>
      </trkpt>
      <trkpt lat="38.12685667" lon="-4.92078333">
        <ele>444.0</ele>
        <time>2018-10-06T07:49:21.000Z</time>
      </trkpt>
      <trkpt lat="38.12685667" lon="-4.92078333">
        <ele>444.0</ele>
        <time>2018-10-06T07:49:22.000Z</time>
      </trkpt>
      <trkpt lat="38.12685667" lon="-4.92078333">
        <ele>444.0</ele>
        <time>2018-10-06T07:49:23.000Z</time>
      </trkpt>
      <trkpt lat="38.12685667" lon="-4.92078333">
        <ele>444.0</ele>
        <time>2018-10-06T07:49:24.000Z</time>
      </trkpt>
      <trkpt lat="38.12685667" lon="-4.92078333">
        <ele>444.0</ele>
        <time>2018-10-06T07:49:25.000Z</time>
      </trkpt>
      <trkpt lat="38.12685667" lon="-4.92078333">
        <ele>444.0</ele>
        <time>2018-10-06T07:49:26.000Z</time>
      </trkpt>
      <trkpt lat="38.12685667" lon="-4.92078333">
        <ele>444.0</ele>
        <time>2018-10-06T07:49:27.000Z</time>
      </trkpt>
      <trkpt lat="38.12685667" lon="-4.92078333">
        <ele>444.0</ele>
        <time>2018-10-06T07:49:28.000Z</time>
      </trkpt>
      <trkpt lat="38.12685667" lon="-4.92078333">
        <ele>444.0</ele>
        <time>2018-10-06T07:49:29.000Z</time>
      </trkpt>
      <trkpt lat="38.12685667" lon="-4.92078333">
        <ele>444.0</ele>
        <time>2018-10-06T07:49:30.000Z</time>
      </trkpt>
      <trkpt lat="38.12685667" lon="-4.92078333">
        <ele>444.0</ele>
        <time>2018-10-06T07:49:31.000Z</time>
      </trkpt>
      <trkpt lat="38.12685667" lon="-4.92078333">
        <ele>444.0</ele>
        <time>2018-10-06T07:49:32.000Z</time>
      </trkpt>
      <trkpt lat="38.12685667" lon="-4.92078333">
        <ele>444.0</ele>
        <time>2018-10-06T07:49:33.000Z</time>
      </trkpt>
      <trkpt lat="38.12685667" lon="-4.92078333">
        <ele>444.0</ele>
        <time>2018-10-06T07:49:34.000Z</time>
      </trkpt>
      <trkpt lat="38.12685667" lon="-4.92078333">
        <ele>444.0</ele>
        <time>2018-10-06T07:49:35.000Z</time>
      </trkpt>
      <trkpt lat="38.12685667" lon="-4.92078333">
        <ele>444.0</ele>
        <time>2018-10-06T07:49:36.000Z</time>
      </trkpt>
      <trkpt lat="38.12690167" lon="-4.92096167">
        <ele>452.0</ele>
        <time>2018-10-06T07:49:37.000Z</time>
      </trkpt>
      <trkpt lat="38.12688333" lon="-4.92101167">
        <ele>472.0</ele>
        <time>2018-10-06T07:49:38.000Z</time>
      </trkpt>
      <trkpt lat="38.12688333" lon="-4.92101333">
        <ele>472.0</ele>
        <time>2018-10-06T07:49:39.000Z</time>
      </trkpt>
      <trkpt lat="38.12688333" lon="-4.92101333">
        <ele>472.0</ele>
        <time>2018-10-06T07:49:40.000Z</time>
      </trkpt>
      <trkpt lat="38.12688167" lon="-4.921015">
        <ele>472.0</ele>
        <time>2018-10-06T07:49:41.000Z</time>
      </trkpt>
      <trkpt lat="38.12688167" lon="-4.921015">
        <ele>472.0</ele>
        <time>2018-10-06T07:49:42.000Z</time>
      </trkpt>
      <trkpt lat="38.12688167" lon="-4.92101833">
        <ele>472.0</ele>
        <time>2018-10-06T07:49:43.000Z</time>
      </trkpt>
      <trkpt lat="38.12688167" lon="-4.92101833">
        <ele>472.0</ele>
        <time>2018-10-06T07:49:44.000Z</time>
      </trkpt>
      <trkpt lat="38.12688" lon="-4.92101833">
        <ele>472.0</ele>
        <time>2018-10-06T07:49:45.000Z</time>
      </trkpt>
      <trkpt lat="38.12687833" lon="-4.92102">
        <ele>471.0</ele>
        <time>2018-10-06T07:49:46.000Z</time>
      </trkpt>
      <trkpt lat="38.12687833" lon="-4.92101833">
        <ele>471.0</ele>
        <time>2018-10-06T07:49:47.000Z</time>
      </trkpt>
      <trkpt lat="38.12687833" lon="-4.921015">
        <ele>471.0</ele>
        <time>2018-10-06T07:49:48.000Z</time>
      </trkpt>
      <trkpt lat="38.12687833" lon="-4.921015">
        <ele>471.0</ele>
        <time>2018-10-06T07:49:49.000Z</time>
      </trkpt>
      <trkpt lat="38.12687833" lon="-4.921015">
        <ele>471.0</ele>
        <time>2018-10-06T07:49:50.000Z</time>
      </trkpt>
      <trkpt lat="38.12687833" lon="-4.921015">
        <ele>471.0</ele>
        <time>2018-10-06T07:49:51.000Z</time>
      </trkpt>
      <trkpt lat="38.12687833" lon="-4.921015">
        <ele>471.0</ele>
        <time>2018-10-06T07:49:52.000Z</time>
      </trkpt>
      <trkpt lat="38.12687833" lon="-4.921015">
        <ele>471.0</ele>
        <time>2018-10-06T07:49:53.000Z</time>
      </trkpt>
      <trkpt lat="38.12687833" lon="-4.921015">
        <ele>471.0</ele>
        <time>2018-10-06T07:49:54.000Z</time>
      </trkpt>
      <trkpt lat="38.12687833" lon="-4.921015">
        <ele>471.0</ele>
        <time>2018-10-06T07:49:55.000Z</time>
      </trkpt>
      <trkpt lat="38.12687833" lon="-4.921015">
        <ele>471.0</ele>
        <time>2018-10-06T07:49:56.000Z</time>
      </trkpt>
      <trkpt lat="38.12687833" lon="-4.921015">
        <ele>471.0</ele>
        <time>2018-10-06T07:49:57.000Z</time>
      </trkpt>
      <trkpt lat="38.12687833" lon="-4.921015">
        <ele>471.0</ele>
        <time>2018-10-06T07:49:58.000Z</time>
      </trkpt>
      <trkpt lat="38.12687833" lon="-4.921015">
        <ele>471.0</ele>
        <time>2018-10-06T07:49:59.000Z</time>
      </trkpt>
      <trkpt lat="38.12687833" lon="-4.921015">
        <ele>471.0</ele>
        <time>2018-10-06T07:50:00.000Z</time>
      </trkpt>
      <trkpt lat="38.12687833" lon="-4.921015">
        <ele>471.0</ele>
        <time>2018-10-06T07:50:01.000Z</time>
      </trkpt>
      <trkpt lat="38.12687833" lon="-4.921015">
        <ele>471.0</ele>
        <time>2018-10-06T07:50:02.000Z</time>
      </trkpt>
      <trkpt lat="38.12687833" lon="-4.921015">
        <ele>471.0</ele>
        <time>2018-10-06T07:50:03.000Z</time>
      </trkpt>
      <trkpt lat="38.12687833" lon="-4.921015">
        <ele>471.0</ele>
        <time>2018-10-06T07:50:04.000Z</time>
      </trkpt>
      <trkpt lat="38.12687833" lon="-4.921015">
        <ele>471.0</ele>
        <time>2018-10-06T07:50:05.000Z</time>
      </trkpt>
      <trkpt lat="38.12687833" lon="-4.921015">
        <ele>471.0</ele>
        <time>2018-10-06T07:50:06.000Z</time>
      </trkpt>
      <trkpt lat="38.12687833" lon="-4.921015">
        <ele>471.0</ele>
        <time>2018-10-06T07:50:07.000Z</time>
      </trkpt>
      <trkpt lat="38.12687833" lon="-4.921015">
        <ele>471.0</ele>
        <time>2018-10-06T07:50:08.000Z</time>
      </trkpt>
      <trkpt lat="38.12687833" lon="-4.921015">
        <ele>471.0</ele>
        <time>2018-10-06T07:50:09.000Z</time>
      </trkpt>
      <trkpt lat="38.12687833" lon="-4.921015">
        <ele>471.0</ele>
        <time>2018-10-06T07:50:10.000Z</time>
      </trkpt>
      <trkpt lat="38.12687833" lon="-4.921015">
        <ele>471.0</ele>
        <time>2018-10-06T07:50:11.000Z</time>
      </trkpt>
      <trkpt lat="38.12687833" lon="-4.921015">
        <ele>471.0</ele>
        <time>2018-10-06T07:50:12.000Z</time>
      </trkpt>
      <trkpt lat="38.12687833" lon="-4.921015">
        <ele>471.0</ele>
        <time>2018-10-06T07:50:13.000Z</time>
      </trkpt>
      <trkpt lat="38.12687833" lon="-4.921015">
        <ele>471.0</ele>
        <time>2018-10-06T07:50:14.000Z</time>
      </trkpt>
      <trkpt lat="38.12687833" lon="-4.921015">
        <ele>471.0</ele>
        <time>2018-10-06T07:50:15.000Z</time>
      </trkpt>
      <trkpt lat="38.12687833" lon="-4.921015">
        <ele>471.0</ele>
        <time>2018-10-06T07:50:16.000Z</time>
      </trkpt>
      <trkpt lat="38.12687833" lon="-4.921015">
        <ele>471.0</ele>
        <time>2018-10-06T07:50:17.000Z</time>
      </trkpt>
      <trkpt lat="38.12687833" lon="-4.921015">
        <ele>471.0</ele>
        <time>2018-10-06T07:50:18.000Z</time>
      </trkpt>
      <trkpt lat="38.12687833" lon="-4.921015">
        <ele>471.0</ele>
        <time>2018-10-06T07:50:19.000Z</time>
      </trkpt>
      <trkpt lat="38.12687833" lon="-4.921015">
        <ele>471.0</ele>
        <time>2018-10-06T07:50:20.000Z</time>
      </trkpt>
      <trkpt lat="38.12687833" lon="-4.921015">
        <ele>471.0</ele>
        <time>2018-10-06T07:50:21.000Z</time>
      </trkpt>
      <trkpt lat="38.12687833" lon="-4.921015">
        <ele>471.0</ele>
        <time>2018-10-06T07:50:22.000Z</time>
      </trkpt>
      <trkpt lat="38.12687833" lon="-4.921015">
        <ele>471.0</ele>
        <time>2018-10-06T07:50:23.000Z</time>
      </trkpt>
      <trkpt lat="38.12687833" lon="-4.921015">
        <ele>471.0</ele>
        <time>2018-10-06T07:50:24.000Z</time>
      </trkpt>
      <trkpt lat="38.12687833" lon="-4.921015">
        <ele>471.0</ele>
        <time>2018-10-06T07:50:25.000Z</time>
      </trkpt>
      <trkpt lat="38.12687833" lon="-4.921015">
        <ele>471.0</ele>
        <time>2018-10-06T07:50:26.000Z</time>
      </trkpt>
      <trkpt lat="38.12687833" lon="-4.921015">
        <ele>471.0</ele>
        <time>2018-10-06T07:50:27.000Z</time>
      </trkpt>
      <trkpt lat="38.12687833" lon="-4.921015">
        <ele>471.0</ele>
        <time>2018-10-06T07:50:28.000Z</time>
      </trkpt>
      <trkpt lat="38.12687833" lon="-4.921015">
        <ele>471.0</ele>
        <time>2018-10-06T07:50:29.000Z</time>
      </trkpt>
      <trkpt lat="38.12687833" lon="-4.921015">
        <ele>471.0</ele>
        <time>2018-10-06T07:50:30.000Z</time>
      </trkpt>
      <trkpt lat="38.12687833" lon="-4.921015">
        <ele>471.0</ele>
        <time>2018-10-06T07:50:31.000Z</time>
      </trkpt>
      <trkpt lat="38.12687833" lon="-4.921015">
        <ele>471.0</ele>
        <time>2018-10-06T07:50:32.000Z</time>
      </trkpt>
      <trkpt lat="38.12687833" lon="-4.921015">
        <ele>471.0</ele>
        <time>2018-10-06T07:50:33.000Z</time>
      </trkpt>
      <trkpt lat="38.12687833" lon="-4.921015">
        <ele>471.0</ele>
        <time>2018-10-06T07:50:34.000Z</time>
      </trkpt>
      <trkpt lat="38.12687833" lon="-4.921015">
        <ele>471.0</ele>
        <time>2018-10-06T07:50:35.000Z</time>
      </trkpt>
      <trkpt lat="38.12687833" lon="-4.921015">
        <ele>471.0</ele>
        <time>2018-10-06T07:50:36.000Z</time>
      </trkpt>
      <trkpt lat="38.12688" lon="-4.92113667">
        <ele>478.0</ele>
        <time>2018-10-06T07:50:37.000Z</time>
      </trkpt>
      <trkpt lat="38.12688333" lon="-4.92113167">
        <ele>478.0</ele>
        <time>2018-10-06T07:50:38.000Z</time>
      </trkpt>
      <trkpt lat="38.12688167" lon="-4.92112833">
        <ele>477.0</ele>
        <time>2018-10-06T07:50:39.000Z</time>
      </trkpt>
      <trkpt lat="38.12688167" lon="-4.92112333">
        <ele>477.0</ele>
        <time>2018-10-06T07:50:40.000Z</time>
      </trkpt>
      <trkpt lat="38.12688167" lon="-4.92112">
        <ele>476.0</ele>
        <time>2018-10-06T07:50:41.000Z</time>
      </trkpt>
      <trkpt lat="38.12688167" lon="-4.921115">
        <ele>475.0</ele>
        <time>2018-10-06T07:50:42.000Z</time>
      </trkpt>
      <trkpt lat="38.12688167" lon="-4.92111">
        <ele>475.0</ele>
        <time>2018-10-06T07:50:43.000Z</time>
      </trkpt>
      <trkpt lat="38.12688167" lon="-4.92110667">
        <ele>474.0</ele>
        <time>2018-10-06T07:50:44.000Z</time>
      </trkpt>
      <trkpt lat="38.12688" lon="-4.92110167">
        <ele>473.0</ele>
        <time>2018-10-06T07:50:45.000Z</time>
      </trkpt>
      <trkpt lat="38.12688" lon="-4.92109833">
        <ele>473.0</ele>
        <time>2018-10-06T07:50:46.000Z</time>
      </trkpt>
      <trkpt lat="38.12688" lon="-4.921095">
        <ele>472.0</ele>
        <time>2018-10-06T07:50:47.000Z</time>
      </trkpt>
      <trkpt lat="38.12688" lon="-4.92109167">
        <ele>472.0</ele>
        <time>2018-10-06T07:50:48.000Z</time>
      </trkpt>
      <trkpt lat="38.12688" lon="-4.92109">
        <ele>472.0</ele>
        <time>2018-10-06T07:50:49.000Z</time>
      </trkpt>
      <trkpt lat="38.12688" lon="-4.92109">
        <ele>472.0</ele>
        <time>2018-10-06T07:50:50.000Z</time>
      </trkpt>
      <trkpt lat="38.12688" lon="-4.92109">
        <ele>472.0</ele>
        <time>2018-10-06T07:50:51.000Z</time>
      </trkpt>
      <trkpt lat="38.12688" lon="-4.92109">
        <ele>472.0</ele>
        <time>2018-10-06T07:50:52.000Z</time>
      </trkpt>
      <trkpt lat="38.12688" lon="-4.92109">
        <ele>472.0</ele>
        <time>2018-10-06T07:50:53.000Z</time>
      </trkpt>
      <trkpt lat="38.12688" lon="-4.92109">
        <ele>472.0</ele>
        <time>2018-10-06T07:50:54.000Z</time>
      </trkpt>
      <trkpt lat="38.12688" lon="-4.92109">
        <ele>472.0</ele>
        <time>2018-10-06T07:50:55.000Z</time>
      </trkpt>
      <trkpt lat="38.12688" lon="-4.92109">
        <ele>472.0</ele>
        <time>2018-10-06T07:50:56.000Z</time>
      </trkpt>
      <trkpt lat="38.12688" lon="-4.92109">
        <ele>472.0</ele>
        <time>2018-10-06T07:50:57.000Z</time>
      </trkpt>
      <trkpt lat="38.12688" lon="-4.92109">
        <ele>472.0</ele>
        <time>2018-10-06T07:50:58.000Z</time>
      </trkpt>
      <trkpt lat="38.12688" lon="-4.92109">
        <ele>472.0</ele>
        <time>2018-10-06T07:50:59.000Z</time>
      </trkpt>
      <trkpt lat="38.12688" lon="-4.92109">
        <ele>472.0</ele>
        <time>2018-10-06T07:51:00.000Z</time>
      </trkpt>
      <trkpt lat="38.12688" lon="-4.92109">
        <ele>472.0</ele>
        <time>2018-10-06T07:51:01.000Z</time>
      </trkpt>
      <trkpt lat="38.12688" lon="-4.92109">
        <ele>472.0</ele>
        <time>2018-10-06T07:51:02.000Z</time>
      </trkpt>
      <trkpt lat="38.12688" lon="-4.92109">
        <ele>472.0</ele>
        <time>2018-10-06T07:51:03.000Z</time>
      </trkpt>
      <trkpt lat="38.12688" lon="-4.92109">
        <ele>472.0</ele>
        <time>2018-10-06T07:51:04.000Z</time>
      </trkpt>
      <trkpt lat="38.12688" lon="-4.92109">
        <ele>472.0</ele>
        <time>2018-10-06T07:51:05.000Z</time>
      </trkpt>
      <trkpt lat="38.12688" lon="-4.92109">
        <ele>472.0</ele>
        <time>2018-10-06T07:51:06.000Z</time>
      </trkpt>
      <trkpt lat="38.12688" lon="-4.92109">
        <ele>472.0</ele>
        <time>2018-10-06T07:51:07.000Z</time>
      </trkpt>
      <trkpt lat="38.12688" lon="-4.92109">
        <ele>472.0</ele>
        <time>2018-10-06T07:51:08.000Z</time>
      </trkpt>
      <trkpt lat="38.12688" lon="-4.92109">
        <ele>472.0</ele>
        <time>2018-10-06T07:51:09.000Z</time>
      </trkpt>
      <trkpt lat="38.12688" lon="-4.92109">
        <ele>472.0</ele>
        <time>2018-10-06T07:51:10.000Z</time>
      </trkpt>
      <trkpt lat="38.12688" lon="-4.92109">
        <ele>472.0</ele>
        <time>2018-10-06T07:51:11.000Z</time>
      </trkpt>
      <trkpt lat="38.12688" lon="-4.92109">
        <ele>472.0</ele>
        <time>2018-10-06T07:51:12.000Z</time>
      </trkpt>
      <trkpt lat="38.12688" lon="-4.92109">
        <ele>472.0</ele>
        <time>2018-10-06T07:51:13.000Z</time>
      </trkpt>
      <trkpt lat="38.12688" lon="-4.92109">
        <ele>472.0</ele>
        <time>2018-10-06T07:51:14.000Z</time>
      </trkpt>
      <trkpt lat="38.12688" lon="-4.92109">
        <ele>472.0</ele>
        <time>2018-10-06T07:51:15.000Z</time>
      </trkpt>
      <trkpt lat="38.12688" lon="-4.92109">
        <ele>472.0</ele>
        <time>2018-10-06T07:51:16.000Z</time>
      </trkpt>
      <trkpt lat="38.12688" lon="-4.92109">
        <ele>472.0</ele>
        <time>2018-10-06T07:51:17.000Z</time>
      </trkpt>
      <trkpt lat="38.12688" lon="-4.92109">
        <ele>472.0</ele>
        <time>2018-10-06T07:51:18.000Z</time>
      </trkpt>
      <trkpt lat="38.12688" lon="-4.92109">
        <ele>472.0</ele>
        <time>2018-10-06T07:51:19.000Z</time>
      </trkpt>
      <trkpt lat="38.12688" lon="-4.92109">
        <ele>472.0</ele>
        <time>2018-10-06T07:51:20.000Z</time>
      </trkpt>
      <trkpt lat="38.12688" lon="-4.92109">
        <ele>472.0</ele>
        <time>2018-10-06T07:51:21.000Z</time>
      </trkpt>
      <trkpt lat="38.12688" lon="-4.92109">
        <ele>472.0</ele>
        <time>2018-10-06T07:51:22.000Z</time>
      </trkpt>
      <trkpt lat="38.12688" lon="-4.92109">
        <ele>472.0</ele>
        <time>2018-10-06T07:51:23.000Z</time>
      </trkpt>
      <trkpt lat="38.12688" lon="-4.92109">
        <ele>472.0</ele>
        <time>2018-10-06T07:51:24.000Z</time>
      </trkpt>
      <trkpt lat="38.12688" lon="-4.92109">
        <ele>472.0</ele>
        <time>2018-10-06T07:51:25.000Z</time>
      </trkpt>
      <trkpt lat="38.12688" lon="-4.92109">
        <ele>472.0</ele>
        <time>2018-10-06T07:51:26.000Z</time>
      </trkpt>
      <trkpt lat="38.12688" lon="-4.92109">
        <ele>472.0</ele>
        <time>2018-10-06T07:51:27.000Z</time>
      </trkpt>
      <trkpt lat="38.12688" lon="-4.92109">
        <ele>472.0</ele>
        <time>2018-10-06T07:51:28.000Z</time>
      </trkpt>
      <trkpt lat="38.12688" lon="-4.92109">
        <ele>472.0</ele>
        <time>2018-10-06T07:51:29.000Z</time>
      </trkpt>
      <trkpt lat="38.12688" lon="-4.92109">
        <ele>472.0</ele>
        <time>2018-10-06T07:51:30.000Z</time>
      </trkpt>
      <trkpt lat="38.12688" lon="-4.92109">
        <ele>472.0</ele>
        <time>2018-10-06T07:51:31.000Z</time>
      </trkpt>
      <trkpt lat="38.12688" lon="-4.92109">
        <ele>472.0</ele>
        <time>2018-10-06T07:51:32.000Z</time>
      </trkpt>
      <trkpt lat="38.12688" lon="-4.92109">
        <ele>472.0</ele>
        <time>2018-10-06T07:51:33.000Z</time>
      </trkpt>
      <trkpt lat="38.12688" lon="-4.92109">
        <ele>472.0</ele>
        <time>2018-10-06T07:51:34.000Z</time>
      </trkpt>
      <trkpt lat="38.12688" lon="-4.92109">
        <ele>472.0</ele>
        <time>2018-10-06T07:51:35.000Z</time>
      </trkpt>
      <trkpt lat="38.12688" lon="-4.92109">
        <ele>472.0</ele>
        <time>2018-10-06T07:51:36.000Z</time>
      </trkpt>
      <trkpt lat="38.12688" lon="-4.92109">
        <ele>472.0</ele>
        <time>2018-10-06T07:51:37.000Z</time>
      </trkpt>
      <trkpt lat="38.12674667" lon="-4.92110667">
        <ele>465.0</ele>
        <time>2018-10-06T07:51:38.000Z</time>
      </trkpt>
      <trkpt lat="38.12672833" lon="-4.92112">
        <ele>465.0</ele>
        <time>2018-10-06T07:51:39.000Z</time>
      </trkpt>
      <trkpt lat="38.12671" lon="-4.92113333">
        <ele>465.0</ele>
        <time>2018-10-06T07:51:40.000Z</time>
      </trkpt>
      <trkpt lat="38.12668833" lon="-4.92114667">
        <ele>466.0</ele>
        <time>2018-10-06T07:51:41.000Z</time>
      </trkpt>
      <trkpt lat="38.12666667" lon="-4.92115833">
        <ele>465.0</ele>
        <time>2018-10-06T07:51:42.000Z</time>
      </trkpt>
      <trkpt lat="38.12664667" lon="-4.92116833">
        <ele>465.0</ele>
        <time>2018-10-06T07:51:43.000Z</time>
      </trkpt>
      <trkpt lat="38.12663" lon="-4.92118">
        <ele>465.0</ele>
        <time>2018-10-06T07:51:44.000Z</time>
      </trkpt>
      <trkpt lat="38.126615" lon="-4.92118833">
        <ele>466.0</ele>
        <time>2018-10-06T07:51:45.000Z</time>
      </trkpt>
      <trkpt lat="38.1266" lon="-4.921195">
        <ele>466.0</ele>
        <time>2018-10-06T07:51:46.000Z</time>
      </trkpt>
      <trkpt lat="38.12658833" lon="-4.9212">
        <ele>466.0</ele>
        <time>2018-10-06T07:51:47.000Z</time>
      </trkpt>
      <trkpt lat="38.12658" lon="-4.921205">
        <ele>466.0</ele>
        <time>2018-10-06T07:51:48.000Z</time>
      </trkpt>
      <trkpt lat="38.12657167" lon="-4.92120833">
        <ele>466.0</ele>
        <time>2018-10-06T07:51:49.000Z</time>
      </trkpt>
      <trkpt lat="38.12657167" lon="-4.92120833">
        <ele>466.0</ele>
        <time>2018-10-06T07:51:50.000Z</time>
      </trkpt>
      <trkpt lat="38.12657167" lon="-4.92120833">
        <ele>466.0</ele>
        <time>2018-10-06T07:51:51.000Z</time>
      </trkpt>
      <trkpt lat="38.12657167" lon="-4.92120833">
        <ele>466.0</ele>
        <time>2018-10-06T07:51:52.000Z</time>
      </trkpt>
      <trkpt lat="38.12657167" lon="-4.92120833">
        <ele>466.0</ele>
        <time>2018-10-06T07:51:53.000Z</time>
      </trkpt>
      <trkpt lat="38.12657167" lon="-4.92120833">
        <ele>466.0</ele>
        <time>2018-10-06T07:51:54.000Z</time>
      </trkpt>
      <trkpt lat="38.12657167" lon="-4.92120833">
        <ele>466.0</ele>
        <time>2018-10-06T07:51:55.000Z</time>
      </trkpt>
      <trkpt lat="38.12657167" lon="-4.92120833">
        <ele>466.0</ele>
        <time>2018-10-06T07:51:56.000Z</time>
      </trkpt>
      <trkpt lat="38.12657167" lon="-4.92120833">
        <ele>466.0</ele>
        <time>2018-10-06T07:51:57.000Z</time>
      </trkpt>
      <trkpt lat="38.12657167" lon="-4.92120833">
        <ele>466.0</ele>
        <time>2018-10-06T07:51:58.000Z</time>
      </trkpt>
      <trkpt lat="38.12657167" lon="-4.92120833">
        <ele>466.0</ele>
        <time>2018-10-06T07:51:59.000Z</time>
      </trkpt>
      <trkpt lat="38.12657167" lon="-4.92120833">
        <ele>466.0</ele>
        <time>2018-10-06T07:52:00.000Z</time>
      </trkpt>
      <trkpt lat="38.12657167" lon="-4.92120833">
        <ele>466.0</ele>
        <time>2018-10-06T07:52:01.000Z</time>
      </trkpt>
      <trkpt lat="38.12657167" lon="-4.92120833">
        <ele>466.0</ele>
        <time>2018-10-06T07:52:02.000Z</time>
      </trkpt>
      <trkpt lat="38.12657167" lon="-4.92120833">
        <ele>466.0</ele>
        <time>2018-10-06T07:52:03.000Z</time>
      </trkpt>
      <trkpt lat="38.12657167" lon="-4.92120833">
        <ele>466.0</ele>
        <time>2018-10-06T07:52:04.000Z</time>
      </trkpt>
      <trkpt lat="38.12657167" lon="-4.92120833">
        <ele>466.0</ele>
        <time>2018-10-06T07:52:05.000Z</time>
      </trkpt>
      <trkpt lat="38.12657167" lon="-4.92120833">
        <ele>466.0</ele>
        <time>2018-10-06T07:52:06.000Z</time>
      </trkpt>
      <trkpt lat="38.12657167" lon="-4.92120833">
        <ele>466.0</ele>
        <time>2018-10-06T07:52:07.000Z</time>
      </trkpt>
      <trkpt lat="38.12657167" lon="-4.92120833">
        <ele>466.0</ele>
        <time>2018-10-06T07:52:08.000Z</time>
      </trkpt>
      <trkpt lat="38.12657167" lon="-4.92120833">
        <ele>466.0</ele>
        <time>2018-10-06T07:52:09.000Z</time>
      </trkpt>
      <trkpt lat="38.12657167" lon="-4.92120833">
        <ele>466.0</ele>
        <time>2018-10-06T07:52:10.000Z</time>
      </trkpt>
      <trkpt lat="38.12657167" lon="-4.92120833">
        <ele>466.0</ele>
        <time>2018-10-06T07:52:11.000Z</time>
      </trkpt>
      <trkpt lat="38.12657167" lon="-4.92120833">
        <ele>466.0</ele>
        <time>2018-10-06T07:52:12.000Z</time>
      </trkpt>
      <trkpt lat="38.12657167" lon="-4.92120833">
        <ele>466.0</ele>
        <time>2018-10-06T07:52:13.000Z</time>
      </trkpt>
      <trkpt lat="38.12657167" lon="-4.92120833">
        <ele>466.0</ele>
        <time>2018-10-06T07:52:14.000Z</time>
      </trkpt>
      <trkpt lat="38.12657167" lon="-4.92120833">
        <ele>466.0</ele>
        <time>2018-10-06T07:52:15.000Z</time>
      </trkpt>
      <trkpt lat="38.12657167" lon="-4.92120833">
        <ele>466.0</ele>
        <time>2018-10-06T07:52:16.000Z</time>
      </trkpt>
      <trkpt lat="38.12657167" lon="-4.92120833">
        <ele>466.0</ele>
        <time>2018-10-06T07:52:17.000Z</time>
      </trkpt>
      <trkpt lat="38.12657167" lon="-4.92120833">
        <ele>466.0</ele>
        <time>2018-10-06T07:52:18.000Z</time>
      </trkpt>
      <trkpt lat="38.12657167" lon="-4.92120833">
        <ele>466.0</ele>
        <time>2018-10-06T07:52:19.000Z</time>
      </trkpt>
      <trkpt lat="38.12657167" lon="-4.92120833">
        <ele>466.0</ele>
        <time>2018-10-06T07:52:20.000Z</time>
      </trkpt>
      <trkpt lat="38.12657167" lon="-4.92120833">
        <ele>466.0</ele>
        <time>2018-10-06T07:52:21.000Z</time>
      </trkpt>
      <trkpt lat="38.12657167" lon="-4.92120833">
        <ele>466.0</ele>
        <time>2018-10-06T07:52:22.000Z</time>
      </trkpt>
      <trkpt lat="38.12657167" lon="-4.92120833">
        <ele>466.0</ele>
        <time>2018-10-06T07:52:23.000Z</time>
      </trkpt>
      <trkpt lat="38.12657167" lon="-4.92120833">
        <ele>466.0</ele>
        <time>2018-10-06T07:52:24.000Z</time>
      </trkpt>
      <trkpt lat="38.12657167" lon="-4.92120833">
        <ele>466.0</ele>
        <time>2018-10-06T07:52:25.000Z</time>
      </trkpt>
      <trkpt lat="38.12657167" lon="-4.92120833">
        <ele>466.0</ele>
        <time>2018-10-06T07:52:26.000Z</time>
      </trkpt>
      <trkpt lat="38.12657167" lon="-4.92120833">
        <ele>466.0</ele>
        <time>2018-10-06T07:52:27.000Z</time>
      </trkpt>
      <trkpt lat="38.12657167" lon="-4.92120833">
        <ele>466.0</ele>
        <time>2018-10-06T07:52:28.000Z</time>
      </trkpt>
      <trkpt lat="38.12657167" lon="-4.92120833">
        <ele>466.0</ele>
        <time>2018-10-06T07:52:29.000Z</time>
      </trkpt>
      <trkpt lat="38.12657167" lon="-4.92120833">
        <ele>466.0</ele>
        <time>2018-10-06T07:52:30.000Z</time>
      </trkpt>
      <trkpt lat="38.12657167" lon="-4.92120833">
        <ele>466.0</ele>
        <time>2018-10-06T07:52:31.000Z</time>
      </trkpt>
      <trkpt lat="38.12657167" lon="-4.92120833">
        <ele>466.0</ele>
        <time>2018-10-06T07:52:32.000Z</time>
      </trkpt>
      <trkpt lat="38.12657167" lon="-4.92120833">
        <ele>466.0</ele>
        <time>2018-10-06T07:52:33.000Z</time>
      </trkpt>
      <trkpt lat="38.12657167" lon="-4.92120833">
        <ele>466.0</ele>
        <time>2018-10-06T07:52:34.000Z</time>
      </trkpt>
      <trkpt lat="38.12657167" lon="-4.92120833">
        <ele>466.0</ele>
        <time>2018-10-06T07:52:35.000Z</time>
      </trkpt>
      <trkpt lat="38.12657167" lon="-4.92120833">
        <ele>466.0</ele>
        <time>2018-10-06T07:52:36.000Z</time>
      </trkpt>
      <trkpt lat="38.12657167" lon="-4.92120833">
        <ele>466.0</ele>
        <time>2018-10-06T07:52:37.000Z</time>
      </trkpt>
      <trkpt lat="38.12657167" lon="-4.92120833">
        <ele>466.0</ele>
        <time>2018-10-06T07:52:38.000Z</time>
      </trkpt>
      <trkpt lat="38.12649167" lon="-4.921365">
        <ele>463.0</ele>
        <time>2018-10-06T07:52:39.000Z</time>
      </trkpt>
      <trkpt lat="38.12649" lon="-4.92136">
        <ele>463.0</ele>
        <time>2018-10-06T07:52:40.000Z</time>
      </trkpt>
      <trkpt lat="38.12648833" lon="-4.92135667">
        <ele>463.0</ele>
        <time>2018-10-06T07:52:41.000Z</time>
      </trkpt>
      <trkpt lat="38.12648667" lon="-4.92135333">
        <ele>463.0</ele>
        <time>2018-10-06T07:52:42.000Z</time>
      </trkpt>
      <trkpt lat="38.126485" lon="-4.92135333">
        <ele>463.0</ele>
        <time>2018-10-06T07:52:43.000Z</time>
      </trkpt>
      <trkpt lat="38.12648333" lon="-4.92135167">
        <ele>463.0</ele>
        <time>2018-10-06T07:52:44.000Z</time>
      </trkpt>
      <trkpt lat="38.12648167" lon="-4.92135">
        <ele>463.0</ele>
        <time>2018-10-06T07:52:45.000Z</time>
      </trkpt>
      <trkpt lat="38.12648" lon="-4.92134667">
        <ele>463.0</ele>
        <time>2018-10-06T07:52:46.000Z</time>
      </trkpt>
      <trkpt lat="38.12647833" lon="-4.921345">
        <ele>462.0</ele>
        <time>2018-10-06T07:52:47.000Z</time>
      </trkpt>
      <trkpt lat="38.12647833" lon="-4.92134333">
        <ele>462.0</ele>
        <time>2018-10-06T07:52:48.000Z</time>
      </trkpt>
      <trkpt lat="38.12647667" lon="-4.92134167">
        <ele>462.0</ele>
        <time>2018-10-06T07:52:49.000Z</time>
      </trkpt>
      <trkpt lat="38.12647667" lon="-4.92134167">
        <ele>462.0</ele>
        <time>2018-10-06T07:52:50.000Z</time>
      </trkpt>
      <trkpt lat="38.12647667" lon="-4.92134167">
        <ele>462.0</ele>
        <time>2018-10-06T07:52:51.000Z</time>
      </trkpt>
      <trkpt lat="38.12647667" lon="-4.92134167">
        <ele>462.0</ele>
        <time>2018-10-06T07:52:52.000Z</time>
      </trkpt>
      <trkpt lat="38.12647667" lon="-4.92134167">
        <ele>462.0</ele>
        <time>2018-10-06T07:52:53.000Z</time>
      </trkpt>
      <trkpt lat="38.12647667" lon="-4.92134167">
        <ele>462.0</ele>
        <time>2018-10-06T07:52:54.000Z</time>
      </trkpt>
      <trkpt lat="38.12647667" lon="-4.92134167">
        <ele>462.0</ele>
        <time>2018-10-06T07:52:55.000Z</time>
      </trkpt>
      <trkpt lat="38.12647667" lon="-4.92134167">
        <ele>462.0</ele>
        <time>2018-10-06T07:52:56.000Z</time>
      </trkpt>
      <trkpt lat="38.12647667" lon="-4.92134167">
        <ele>462.0</ele>
        <time>2018-10-06T07:52:57.000Z</time>
      </trkpt>
      <trkpt lat="38.12647667" lon="-4.92134167">
        <ele>462.0</ele>
        <time>2018-10-06T07:52:58.000Z</time>
      </trkpt>
      <trkpt lat="38.12647667" lon="-4.92134167">
        <ele>462.0</ele>
        <time>2018-10-06T07:52:59.000Z</time>
      </trkpt>
      <trkpt lat="38.12647667" lon="-4.92134167">
        <ele>462.0</ele>
        <time>2018-10-06T07:53:00.000Z</time>
      </trkpt>
      <trkpt lat="38.12647667" lon="-4.92134167">
        <ele>462.0</ele>
        <time>2018-10-06T07:53:01.000Z</time>
      </trkpt>
      <trkpt lat="38.12647667" lon="-4.92134167">
        <ele>462.0</ele>
        <time>2018-10-06T07:53:02.000Z</time>
      </trkpt>
      <trkpt lat="38.12647667" lon="-4.92134167">
        <ele>462.0</ele>
        <time>2018-10-06T07:53:03.000Z</time>
      </trkpt>
      <trkpt lat="38.12647667" lon="-4.92134167">
        <ele>462.0</ele>
        <time>2018-10-06T07:53:04.000Z</time>
      </trkpt>
      <trkpt lat="38.12647667" lon="-4.92134167">
        <ele>462.0</ele>
        <time>2018-10-06T07:53:05.000Z</time>
      </trkpt>
      <trkpt lat="38.12647667" lon="-4.92134167">
        <ele>462.0</ele>
        <time>2018-10-06T07:53:06.000Z</time>
      </trkpt>
      <trkpt lat="38.12647667" lon="-4.92134167">
        <ele>462.0</ele>
        <time>2018-10-06T07:53:07.000Z</time>
      </trkpt>
      <trkpt lat="38.12647667" lon="-4.92134167">
        <ele>462.0</ele>
        <time>2018-10-06T07:53:08.000Z</time>
      </trkpt>
      <trkpt lat="38.12647667" lon="-4.92134167">
        <ele>462.0</ele>
        <time>2018-10-06T07:53:09.000Z</time>
      </trkpt>
      <trkpt lat="38.12647667" lon="-4.92134167">
        <ele>462.0</ele>
        <time>2018-10-06T07:53:10.000Z</time>
      </trkpt>
      <trkpt lat="38.12647667" lon="-4.92134167">
        <ele>462.0</ele>
        <time>2018-10-06T07:53:11.000Z</time>
      </trkpt>
      <trkpt lat="38.12647667" lon="-4.92134167">
        <ele>462.0</ele>
        <time>2018-10-06T07:53:12.000Z</time>
      </trkpt>
      <trkpt lat="38.12647667" lon="-4.92134167">
        <ele>462.0</ele>
        <time>2018-10-06T07:53:13.000Z</time>
      </trkpt>
      <trkpt lat="38.12647667" lon="-4.92134167">
        <ele>462.0</ele>
        <time>2018-10-06T07:53:14.000Z</time>
      </trkpt>
      <trkpt lat="38.12647667" lon="-4.92134167">
        <ele>462.0</ele>
        <time>2018-10-06T07:53:15.000Z</time>
      </trkpt>
      <trkpt lat="38.12647667" lon="-4.92134167">
        <ele>462.0</ele>
        <time>2018-10-06T07:53:16.000Z</time>
      </trkpt>
      <trkpt lat="38.12647667" lon="-4.92134167">
        <ele>462.0</ele>
        <time>2018-10-06T07:53:17.000Z</time>
      </trkpt>
      <trkpt lat="38.12647667" lon="-4.92134167">
        <ele>462.0</ele>
        <time>2018-10-06T07:53:18.000Z</time>
      </trkpt>
      <trkpt lat="38.12647667" lon="-4.92134167">
        <ele>462.0</ele>
        <time>2018-10-06T07:53:19.000Z</time>
      </trkpt>
      <trkpt lat="38.12647667" lon="-4.92134167">
        <ele>462.0</ele>
        <time>2018-10-06T07:53:20.000Z</time>
      </trkpt>
      <trkpt lat="38.12647667" lon="-4.92134167">
        <ele>462.0</ele>
        <time>2018-10-06T07:53:21.000Z</time>
      </trkpt>
      <trkpt lat="38.12647667" lon="-4.92134167">
        <ele>462.0</ele>
        <time>2018-10-06T07:53:22.000Z</time>
      </trkpt>
      <trkpt lat="38.12647667" lon="-4.92134167">
        <ele>462.0</ele>
        <time>2018-10-06T07:53:23.000Z</time>
      </trkpt>
      <trkpt lat="38.12647667" lon="-4.92134167">
        <ele>462.0</ele>
        <time>2018-10-06T07:53:24.000Z</time>
      </trkpt>
      <trkpt lat="38.12647667" lon="-4.92134167">
        <ele>462.0</ele>
        <time>2018-10-06T07:53:25.000Z</time>
      </trkpt>
      <trkpt lat="38.12647667" lon="-4.92134167">
        <ele>462.0</ele>
        <time>2018-10-06T07:53:26.000Z</time>
      </trkpt>
      <trkpt lat="38.12647667" lon="-4.92134167">
        <ele>462.0</ele>
        <time>2018-10-06T07:53:27.000Z</time>
      </trkpt>
      <trkpt lat="38.12647667" lon="-4.92134167">
        <ele>462.0</ele>
        <time>2018-10-06T07:53:28.000Z</time>
      </trkpt>
      <trkpt lat="38.12647667" lon="-4.92134167">
        <ele>462.0</ele>
        <time>2018-10-06T07:53:29.000Z</time>
      </trkpt>
      <trkpt lat="38.12647667" lon="-4.92134167">
        <ele>462.0</ele>
        <time>2018-10-06T07:53:30.000Z</time>
      </trkpt>
      <trkpt lat="38.12647667" lon="-4.92134167">
        <ele>462.0</ele>
        <time>2018-10-06T07:53:31.000Z</time>
      </trkpt>
      <trkpt lat="38.12647667" lon="-4.92134167">
        <ele>462.0</ele>
        <time>2018-10-06T07:53:32.000Z</time>
      </trkpt>
      <trkpt lat="38.12647667" lon="-4.92134167">
        <ele>462.0</ele>
        <time>2018-10-06T07:53:33.000Z</time>
      </trkpt>
      <trkpt lat="38.12647667" lon="-4.92134167">
        <ele>462.0</ele>
        <time>2018-10-06T07:53:34.000Z</time>
      </trkpt>
      <trkpt lat="38.12647667" lon="-4.92134167">
        <ele>462.0</ele>
        <time>2018-10-06T07:53:35.000Z</time>
      </trkpt>
      <trkpt lat="38.12647667" lon="-4.92134167">
        <ele>462.0</ele>
        <time>2018-10-06T07:53:36.000Z</time>
      </trkpt>
      <trkpt lat="38.12647667" lon="-4.92134167">
        <ele>462.0</ele>
        <time>2018-10-06T07:53:37.000Z</time>
      </trkpt>
      <trkpt lat="38.12647667" lon="-4.92134167">
        <ele>462.0</ele>
        <time>2018-10-06T07:53:38.000Z</time>
      </trkpt>
      <trkpt lat="38.12654333" lon="-4.92135833">
        <ele>455.0</ele>
        <time>2018-10-06T07:53:39.000Z</time>
      </trkpt>
      <trkpt lat="38.12654" lon="-4.92136">
        <ele>455.0</ele>
        <time>2018-10-06T07:53:40.000Z</time>
      </trkpt>
      <trkpt lat="38.12653667" lon="-4.92135833">
        <ele>456.0</ele>
        <time>2018-10-06T07:53:41.000Z</time>
      </trkpt>
      <trkpt lat="38.12653667" lon="-4.92135833">
        <ele>458.0</ele>
        <time>2018-10-06T07:53:42.000Z</time>
      </trkpt>
      <trkpt lat="38.12653667" lon="-4.92135667">
        <ele>459.0</ele>
        <time>2018-10-06T07:53:43.000Z</time>
      </trkpt>
      <trkpt lat="38.12653833" lon="-4.92135333">
        <ele>460.0</ele>
        <time>2018-10-06T07:53:44.000Z</time>
      </trkpt>
      <trkpt lat="38.12653667" lon="-4.92135333">
        <ele>461.0</ele>
        <time>2018-10-06T07:53:45.000Z</time>
      </trkpt>
      <trkpt lat="38.126535" lon="-4.92134833">
        <ele>462.0</ele>
        <time>2018-10-06T07:53:46.000Z</time>
      </trkpt>
      <trkpt lat="38.12653" lon="-4.92134833">
        <ele>463.0</ele>
        <time>2018-10-06T07:53:47.000Z</time>
      </trkpt>
      <trkpt lat="38.12652667" lon="-4.92135">
        <ele>463.0</ele>
        <time>2018-10-06T07:53:48.000Z</time>
      </trkpt>
      <trkpt lat="38.126525" lon="-4.92134667">
        <ele>464.0</ele>
        <time>2018-10-06T07:53:49.000Z</time>
      </trkpt>
      <trkpt lat="38.126525" lon="-4.92134667">
        <ele>464.0</ele>
        <time>2018-10-06T07:53:50.000Z</time>
      </trkpt>
      <trkpt lat="38.126525" lon="-4.92134667">
        <ele>464.0</ele>
        <time>2018-10-06T07:53:51.000Z</time>
      </trkpt>
      <trkpt lat="38.126525" lon="-4.92134667">
        <ele>464.0</ele>
        <time>2018-10-06T07:53:52.000Z</time>
      </trkpt>
      <trkpt lat="38.126525" lon="-4.92134667">
        <ele>464.0</ele>
        <time>2018-10-06T07:53:53.000Z</time>
      </trkpt>
      <trkpt lat="38.126525" lon="-4.92134667">
        <ele>464.0</ele>
        <time>2018-10-06T07:53:54.000Z</time>
      </trkpt>
      <trkpt lat="38.126525" lon="-4.92134667">
        <ele>464.0</ele>
        <time>2018-10-06T07:53:55.000Z</time>
      </trkpt>
      <trkpt lat="38.126525" lon="-4.92134667">
        <ele>464.0</ele>
        <time>2018-10-06T07:53:56.000Z</time>
      </trkpt>
      <trkpt lat="38.126525" lon="-4.92134667">
        <ele>464.0</ele>
        <time>2018-10-06T07:53:57.000Z</time>
      </trkpt>
      <trkpt lat="38.126525" lon="-4.92134667">
        <ele>464.0</ele>
        <time>2018-10-06T07:53:58.000Z</time>
      </trkpt>
      <trkpt lat="38.126525" lon="-4.92134667">
        <ele>464.0</ele>
        <time>2018-10-06T07:53:59.000Z</time>
      </trkpt>
      <trkpt lat="38.126525" lon="-4.92134667">
        <ele>464.0</ele>
        <time>2018-10-06T07:54:00.000Z</time>
      </trkpt>
      <trkpt lat="38.126525" lon="-4.92134667">
        <ele>464.0</ele>
        <time>2018-10-06T07:54:01.000Z</time>
      </trkpt>
      <trkpt lat="38.126525" lon="-4.92134667">
        <ele>464.0</ele>
        <time>2018-10-06T07:54:02.000Z</time>
      </trkpt>
      <trkpt lat="38.126525" lon="-4.92134667">
        <ele>464.0</ele>
        <time>2018-10-06T07:54:03.000Z</time>
      </trkpt>
      <trkpt lat="38.126525" lon="-4.92134667">
        <ele>464.0</ele>
        <time>2018-10-06T07:54:04.000Z</time>
      </trkpt>
      <trkpt lat="38.126525" lon="-4.92134667">
        <ele>464.0</ele>
        <time>2018-10-06T07:54:05.000Z</time>
      </trkpt>
      <trkpt lat="38.126525" lon="-4.92134667">
        <ele>464.0</ele>
        <time>2018-10-06T07:54:06.000Z</time>
      </trkpt>
      <trkpt lat="38.126525" lon="-4.92134667">
        <ele>464.0</ele>
        <time>2018-10-06T07:54:07.000Z</time>
      </trkpt>
      <trkpt lat="38.126525" lon="-4.92134667">
        <ele>464.0</ele>
        <time>2018-10-06T07:54:08.000Z</time>
      </trkpt>
      <trkpt lat="38.126525" lon="-4.92134667">
        <ele>464.0</ele>
        <time>2018-10-06T07:54:09.000Z</time>
      </trkpt>
      <trkpt lat="38.126525" lon="-4.92134667">
        <ele>464.0</ele>
        <time>2018-10-06T07:54:10.000Z</time>
      </trkpt>
      <trkpt lat="38.126525" lon="-4.92134667">
        <ele>464.0</ele>
        <time>2018-10-06T07:54:11.000Z</time>
      </trkpt>
      <trkpt lat="38.126525" lon="-4.92134667">
        <ele>464.0</ele>
        <time>2018-10-06T07:54:12.000Z</time>
      </trkpt>
      <trkpt lat="38.126525" lon="-4.92134667">
        <ele>464.0</ele>
        <time>2018-10-06T07:54:13.000Z</time>
      </trkpt>
      <trkpt lat="38.126525" lon="-4.92134667">
        <ele>464.0</ele>
        <time>2018-10-06T07:54:14.000Z</time>
      </trkpt>
      <trkpt lat="38.126525" lon="-4.92134667">
        <ele>464.0</ele>
        <time>2018-10-06T07:54:15.000Z</time>
      </trkpt>
      <trkpt lat="38.126525" lon="-4.92134667">
        <ele>464.0</ele>
        <time>2018-10-06T07:54:16.000Z</time>
      </trkpt>
      <trkpt lat="38.126525" lon="-4.92134667">
        <ele>464.0</ele>
        <time>2018-10-06T07:54:17.000Z</time>
      </trkpt>
      <trkpt lat="38.126525" lon="-4.92134667">
        <ele>464.0</ele>
        <time>2018-10-06T07:54:18.000Z</time>
      </trkpt>
      <trkpt lat="38.126525" lon="-4.92134667">
        <ele>464.0</ele>
        <time>2018-10-06T07:54:19.000Z</time>
      </trkpt>
      <trkpt lat="38.126525" lon="-4.92134667">
        <ele>464.0</ele>
        <time>2018-10-06T07:54:20.000Z</time>
      </trkpt>
      <trkpt lat="38.126525" lon="-4.92134667">
        <ele>464.0</ele>
        <time>2018-10-06T07:54:21.000Z</time>
      </trkpt>
      <trkpt lat="38.126525" lon="-4.92134667">
        <ele>464.0</ele>
        <time>2018-10-06T07:54:22.000Z</time>
      </trkpt>
      <trkpt lat="38.126525" lon="-4.92134667">
        <ele>464.0</ele>
        <time>2018-10-06T07:54:23.000Z</time>
      </trkpt>
      <trkpt lat="38.126525" lon="-4.92134667">
        <ele>464.0</ele>
        <time>2018-10-06T07:54:24.000Z</time>
      </trkpt>
      <trkpt lat="38.126525" lon="-4.92134667">
        <ele>464.0</ele>
        <time>2018-10-06T07:54:25.000Z</time>
      </trkpt>
      <trkpt lat="38.126525" lon="-4.92134667">
        <ele>464.0</ele>
        <time>2018-10-06T07:54:26.000Z</time>
      </trkpt>
      <trkpt lat="38.126525" lon="-4.92134667">
        <ele>464.0</ele>
        <time>2018-10-06T07:54:27.000Z</time>
      </trkpt>
      <trkpt lat="38.126525" lon="-4.92134667">
        <ele>464.0</ele>
        <time>2018-10-06T07:54:28.000Z</time>
      </trkpt>
      <trkpt lat="38.126525" lon="-4.92134667">
        <ele>464.0</ele>
        <time>2018-10-06T07:54:29.000Z</time>
      </trkpt>
      <trkpt lat="38.126525" lon="-4.92134667">
        <ele>464.0</ele>
        <time>2018-10-06T07:54:30.000Z</time>
      </trkpt>
      <trkpt lat="38.126525" lon="-4.92134667">
        <ele>464.0</ele>
        <time>2018-10-06T07:54:31.000Z</time>
      </trkpt>
      <trkpt lat="38.126525" lon="-4.92134667">
        <ele>464.0</ele>
        <time>2018-10-06T07:54:32.000Z</time>
      </trkpt>
      <trkpt lat="38.126525" lon="-4.92134667">
        <ele>464.0</ele>
        <time>2018-10-06T07:54:33.000Z</time>
      </trkpt>
      <trkpt lat="38.126525" lon="-4.92134667">
        <ele>464.0</ele>
        <time>2018-10-06T07:54:34.000Z</time>
      </trkpt>
      <trkpt lat="38.126525" lon="-4.92134667">
        <ele>464.0</ele>
        <time>2018-10-06T07:54:35.000Z</time>
      </trkpt>
      <trkpt lat="38.126525" lon="-4.92134667">
        <ele>464.0</ele>
        <time>2018-10-06T07:54:36.000Z</time>
      </trkpt>
      <trkpt lat="38.126525" lon="-4.92134667">
        <ele>464.0</ele>
        <time>2018-10-06T07:54:37.000Z</time>
      </trkpt>
      <trkpt lat="38.12638833" lon="-4.92150833">
        <ele>461.0</ele>
        <time>2018-10-06T07:54:38.000Z</time>
      </trkpt>
      <trkpt lat="38.12639833" lon="-4.92152167">
        <ele>463.0</ele>
        <time>2018-10-06T07:54:39.000Z</time>
      </trkpt>
      <trkpt lat="38.1264" lon="-4.92151833">
        <ele>463.0</ele>
        <time>2018-10-06T07:54:40.000Z</time>
      </trkpt>
      <trkpt lat="38.12639833" lon="-4.92152167">
        <ele>464.0</ele>
        <time>2018-10-06T07:54:41.000Z</time>
      </trkpt>
      <trkpt lat="38.1264" lon="-4.92152333">
        <ele>465.0</ele>
        <time>2018-10-06T07:54:42.000Z</time>
      </trkpt>
      <trkpt lat="38.1264" lon="-4.92152167">
        <ele>466.0</ele>
        <time>2018-10-06T07:54:43.000Z</time>
      </trkpt>
      <trkpt lat="38.12639667" lon="-4.921515">
        <ele>466.0</ele>
        <time>2018-10-06T07:54:44.000Z</time>
      </trkpt>
      <trkpt lat="38.126395" lon="-4.92150833">
        <ele>467.0</ele>
        <time>2018-10-06T07:54:45.000Z</time>
      </trkpt>
      <trkpt lat="38.12639" lon="-4.92150333">
        <ele>467.0</ele>
        <time>2018-10-06T07:54:46.000Z</time>
      </trkpt>
      <trkpt lat="38.12638667" lon="-4.921495">
        <ele>467.0</ele>
        <time>2018-10-06T07:54:47.000Z</time>
      </trkpt>
      <trkpt lat="38.12638167" lon="-4.921485">
        <ele>467.0</ele>
        <time>2018-10-06T07:54:48.000Z</time>
      </trkpt>
      <trkpt lat="38.126375" lon="-4.92147833">
        <ele>468.0</ele>
        <time>2018-10-06T07:54:49.000Z</time>
      </trkpt>
      <trkpt lat="38.126375" lon="-4.92147833">
        <ele>468.0</ele>
        <time>2018-10-06T07:54:50.000Z</time>
      </trkpt>
      <trkpt lat="38.126375" lon="-4.92147833">
        <ele>468.0</ele>
        <time>2018-10-06T07:54:51.000Z</time>
      </trkpt>
      <trkpt lat="38.126375" lon="-4.92147833">
        <ele>468.0</ele>
        <time>2018-10-06T07:54:52.000Z</time>
      </trkpt>
      <trkpt lat="38.126375" lon="-4.92147833">
        <ele>468.0</ele>
        <time>2018-10-06T07:54:53.000Z</time>
      </trkpt>
      <trkpt lat="38.126375" lon="-4.92147833">
        <ele>468.0</ele>
        <time>2018-10-06T07:54:54.000Z</time>
      </trkpt>
      <trkpt lat="38.126375" lon="-4.92147833">
        <ele>468.0</ele>
        <time>2018-10-06T07:54:55.000Z</time>
      </trkpt>
      <trkpt lat="38.126375" lon="-4.92147833">
        <ele>468.0</ele>
        <time>2018-10-06T07:54:56.000Z</time>
      </trkpt>
      <trkpt lat="38.126375" lon="-4.92147833">
        <ele>468.0</ele>
        <time>2018-10-06T07:54:57.000Z</time>
      </trkpt>
      <trkpt lat="38.126375" lon="-4.92147833">
        <ele>468.0</ele>
        <time>2018-10-06T07:54:58.000Z</time>
      </trkpt>
      <trkpt lat="38.126375" lon="-4.92147833">
        <ele>468.0</ele>
        <time>2018-10-06T07:54:59.000Z</time>
      </trkpt>
      <trkpt lat="38.126375" lon="-4.92147833">
        <ele>468.0</ele>
        <time>2018-10-06T07:55:00.000Z</time>
      </trkpt>
      <trkpt lat="38.126375" lon="-4.92147833">
        <ele>468.0</ele>
        <time>2018-10-06T07:55:01.000Z</time>
      </trkpt>
      <trkpt lat="38.126375" lon="-4.92147833">
        <ele>468.0</ele>
        <time>2018-10-06T07:55:02.000Z</time>
      </trkpt>
      <trkpt lat="38.126375" lon="-4.92147833">
        <ele>468.0</ele>
        <time>2018-10-06T07:55:03.000Z</time>
      </trkpt>
      <trkpt lat="38.126375" lon="-4.92147833">
        <ele>468.0</ele>
        <time>2018-10-06T07:55:04.000Z</time>
      </trkpt>
      <trkpt lat="38.126375" lon="-4.92147833">
        <ele>468.0</ele>
        <time>2018-10-06T07:55:05.000Z</time>
      </trkpt>
      <trkpt lat="38.126375" lon="-4.92147833">
        <ele>468.0</ele>
        <time>2018-10-06T07:55:06.000Z</time>
      </trkpt>
      <trkpt lat="38.126375" lon="-4.92147833">
        <ele>468.0</ele>
        <time>2018-10-06T07:55:07.000Z</time>
      </trkpt>
      <trkpt lat="38.126375" lon="-4.92147833">
        <ele>468.0</ele>
        <time>2018-10-06T07:55:08.000Z</time>
      </trkpt>
      <trkpt lat="38.126375" lon="-4.92147833">
        <ele>468.0</ele>
        <time>2018-10-06T07:55:09.000Z</time>
      </trkpt>
      <trkpt lat="38.126375" lon="-4.92147833">
        <ele>468.0</ele>
        <time>2018-10-06T07:55:10.000Z</time>
      </trkpt>
      <trkpt lat="38.126375" lon="-4.92147833">
        <ele>468.0</ele>
        <time>2018-10-06T07:55:11.000Z</time>
      </trkpt>
      <trkpt lat="38.126375" lon="-4.92147833">
        <ele>468.0</ele>
        <time>2018-10-06T07:55:12.000Z</time>
      </trkpt>
      <trkpt lat="38.126375" lon="-4.92147833">
        <ele>468.0</ele>
        <time>2018-10-06T07:55:13.000Z</time>
      </trkpt>
      <trkpt lat="38.126375" lon="-4.92147833">
        <ele>468.0</ele>
        <time>2018-10-06T07:55:14.000Z</time>
      </trkpt>
      <trkpt lat="38.126375" lon="-4.92147833">
        <ele>468.0</ele>
        <time>2018-10-06T07:55:15.000Z</time>
      </trkpt>
      <trkpt lat="38.126375" lon="-4.92147833">
        <ele>468.0</ele>
        <time>2018-10-06T07:55:16.000Z</time>
      </trkpt>
      <trkpt lat="38.126375" lon="-4.92147833">
        <ele>468.0</ele>
        <time>2018-10-06T07:55:17.000Z</time>
      </trkpt>
      <trkpt lat="38.126375" lon="-4.92147833">
        <ele>468.0</ele>
        <time>2018-10-06T07:55:18.000Z</time>
      </trkpt>
      <trkpt lat="38.126375" lon="-4.92147833">
        <ele>468.0</ele>
        <time>2018-10-06T07:55:19.000Z</time>
      </trkpt>
      <trkpt lat="38.126375" lon="-4.92147833">
        <ele>468.0</ele>
        <time>2018-10-06T07:55:20.000Z</time>
      </trkpt>
      <trkpt lat="38.126375" lon="-4.92147833">
        <ele>468.0</ele>
        <time>2018-10-06T07:55:21.000Z</time>
      </trkpt>
      <trkpt lat="38.126375" lon="-4.92147833">
        <ele>468.0</ele>
        <time>2018-10-06T07:55:22.000Z</time>
      </trkpt>
      <trkpt lat="38.126375" lon="-4.92147833">
        <ele>468.0</ele>
        <time>2018-10-06T07:55:23.000Z</time>
      </trkpt>
      <trkpt lat="38.126375" lon="-4.92147833">
        <ele>468.0</ele>
        <time>2018-10-06T07:55:24.000Z</time>
      </trkpt>
      <trkpt lat="38.126375" lon="-4.92147833">
        <ele>468.0</ele>
        <time>2018-10-06T07:55:25.000Z</time>
      </trkpt>
      <trkpt lat="38.126375" lon="-4.92147833">
        <ele>468.0</ele>
        <time>2018-10-06T07:55:26.000Z</time>
      </trkpt>
      <trkpt lat="38.126375" lon="-4.92147833">
        <ele>468.0</ele>
        <time>2018-10-06T07:55:27.000Z</time>
      </trkpt>
      <trkpt lat="38.126375" lon="-4.92147833">
        <ele>468.0</ele>
        <time>2018-10-06T07:55:28.000Z</time>
      </trkpt>
      <trkpt lat="38.126375" lon="-4.92147833">
        <ele>468.0</ele>
        <time>2018-10-06T07:55:29.000Z</time>
      </trkpt>
      <trkpt lat="38.126375" lon="-4.92147833">
        <ele>468.0</ele>
        <time>2018-10-06T07:55:30.000Z</time>
      </trkpt>
      <trkpt lat="38.126375" lon="-4.92147833">
        <ele>468.0</ele>
        <time>2018-10-06T07:55:31.000Z</time>
      </trkpt>
      <trkpt lat="38.126375" lon="-4.92147833">
        <ele>468.0</ele>
        <time>2018-10-06T07:55:32.000Z</time>
      </trkpt>
      <trkpt lat="38.126375" lon="-4.92147833">
        <ele>468.0</ele>
        <time>2018-10-06T07:55:33.000Z</time>
      </trkpt>
      <trkpt lat="38.126375" lon="-4.92147833">
        <ele>468.0</ele>
        <time>2018-10-06T07:55:34.000Z</time>
      </trkpt>
      <trkpt lat="38.126375" lon="-4.92147833">
        <ele>468.0</ele>
        <time>2018-10-06T07:55:35.000Z</time>
      </trkpt>
      <trkpt lat="38.126375" lon="-4.92147833">
        <ele>468.0</ele>
        <time>2018-10-06T07:55:36.000Z</time>
      </trkpt>
      <trkpt lat="38.126375" lon="-4.92147833">
        <ele>468.0</ele>
        <time>2018-10-06T07:55:37.000Z</time>
      </trkpt>
      <trkpt lat="38.12618667" lon="-4.92116167">
        <ele>476.0</ele>
        <time>2018-10-06T07:55:38.000Z</time>
      </trkpt>
      <trkpt lat="38.12617667" lon="-4.92115833">
        <ele>476.0</ele>
        <time>2018-10-06T07:55:39.000Z</time>
      </trkpt>
      <trkpt lat="38.12617" lon="-4.92115167">
        <ele>475.0</ele>
        <time>2018-10-06T07:55:40.000Z</time>
      </trkpt>
      <trkpt lat="38.12616167" lon="-4.92113833">
        <ele>475.0</ele>
        <time>2018-10-06T07:55:41.000Z</time>
      </trkpt>
      <trkpt lat="38.126155" lon="-4.92112667">
        <ele>475.0</ele>
        <time>2018-10-06T07:55:42.000Z</time>
      </trkpt>
      <trkpt lat="38.12614667" lon="-4.921115">
        <ele>475.0</ele>
        <time>2018-10-06T07:55:43.000Z</time>
      </trkpt>
      <trkpt lat="38.12613833" lon="-4.921105">
        <ele>475.0</ele>
        <time>2018-10-06T07:55:44.000Z</time>
      </trkpt>
      <trkpt lat="38.12613" lon="-4.92109333">
        <ele>475.0</ele>
        <time>2018-10-06T07:55:45.000Z</time>
      </trkpt>
      <trkpt lat="38.12612167" lon="-4.92108333">
        <ele>475.0</ele>
        <time>2018-10-06T07:55:46.000Z</time>
      </trkpt>
      <trkpt lat="38.12611167" lon="-4.92107333">
        <ele>475.0</ele>
        <time>2018-10-06T07:55:47.000Z</time>
      </trkpt>
      <trkpt lat="38.12610333" lon="-4.92106333">
        <ele>475.0</ele>
        <time>2018-10-06T07:55:48.000Z</time>
      </trkpt>
      <trkpt lat="38.12609333" lon="-4.921055">
        <ele>475.0</ele>
        <time>2018-10-06T07:55:49.000Z</time>
      </trkpt>
      <trkpt lat="38.12608333" lon="-4.92104667">
        <ele>474.0</ele>
        <time>2018-10-06T07:55:50.000Z</time>
      </trkpt>
      <trkpt lat="38.12608333" lon="-4.92104667">
        <ele>474.0</ele>
        <time>2018-10-06T07:55:51.000Z</time>
      </trkpt>
      <trkpt lat="38.12608333" lon="-4.92104667">
        <ele>474.0</ele>
        <time>2018-10-06T07:55:52.000Z</time>
      </trkpt>
      <trkpt lat="38.12608333" lon="-4.92104667">
        <ele>474.0</ele>
        <time>2018-10-06T07:55:53.000Z</time>
      </trkpt>
      <trkpt lat="38.12608333" lon="-4.92104667">
        <ele>474.0</ele>
        <time>2018-10-06T07:55:54.000Z</time>
      </trkpt>
      <trkpt lat="38.12608333" lon="-4.92104667">
        <ele>474.0</ele>
        <time>2018-10-06T07:55:55.000Z</time>
      </trkpt>
      <trkpt lat="38.12608333" lon="-4.92104667">
        <ele>474.0</ele>
        <time>2018-10-06T07:55:56.000Z</time>
      </trkpt>
      <trkpt lat="38.12608333" lon="-4.92104667">
        <ele>474.0</ele>
        <time>2018-10-06T07:55:57.000Z</time>
      </trkpt>
      <trkpt lat="38.12608333" lon="-4.92104667">
        <ele>474.0</ele>
        <time>2018-10-06T07:55:58.000Z</time>
      </trkpt>
      <trkpt lat="38.12608333" lon="-4.92104667">
        <ele>474.0</ele>
        <time>2018-10-06T07:55:59.000Z</time>
      </trkpt>
      <trkpt lat="38.12608333" lon="-4.92104667">
        <ele>474.0</ele>
        <time>2018-10-06T07:56:00.000Z</time>
      </trkpt>
      <trkpt lat="38.12608333" lon="-4.92104667">
        <ele>474.0</ele>
        <time>2018-10-06T07:56:01.000Z</time>
      </trkpt>
      <trkpt lat="38.12608333" lon="-4.92104667">
        <ele>474.0</ele>
        <time>2018-10-06T07:56:02.000Z</time>
      </trkpt>
      <trkpt lat="38.12608333" lon="-4.92104667">
        <ele>474.0</ele>
        <time>2018-10-06T07:56:03.000Z</time>
      </trkpt>
      <trkpt lat="38.12608333" lon="-4.92104667">
        <ele>474.0</ele>
        <time>2018-10-06T07:56:04.000Z</time>
      </trkpt>
      <trkpt lat="38.12608333" lon="-4.92104667">
        <ele>474.0</ele>
        <time>2018-10-06T07:56:05.000Z</time>
      </trkpt>
      <trkpt lat="38.12608333" lon="-4.92104667">
        <ele>474.0</ele>
        <time>2018-10-06T07:56:06.000Z</time>
      </trkpt>
      <trkpt lat="38.12608333" lon="-4.92104667">
        <ele>474.0</ele>
        <time>2018-10-06T07:56:07.000Z</time>
      </trkpt>
      <trkpt lat="38.12608333" lon="-4.92104667">
        <ele>474.0</ele>
        <time>2018-10-06T07:56:08.000Z</time>
      </trkpt>
      <trkpt lat="38.12608333" lon="-4.92104667">
        <ele>474.0</ele>
        <time>2018-10-06T07:56:09.000Z</time>
      </trkpt>
      <trkpt lat="38.12608333" lon="-4.92104667">
        <ele>474.0</ele>
        <time>2018-10-06T07:56:10.000Z</time>
      </trkpt>
      <trkpt lat="38.12608333" lon="-4.92104667">
        <ele>474.0</ele>
        <time>2018-10-06T07:56:11.000Z</time>
      </trkpt>
      <trkpt lat="38.12608333" lon="-4.92104667">
        <ele>474.0</ele>
        <time>2018-10-06T07:56:12.000Z</time>
      </trkpt>
      <trkpt lat="38.12608333" lon="-4.92104667">
        <ele>474.0</ele>
        <time>2018-10-06T07:56:13.000Z</time>
      </trkpt>
      <trkpt lat="38.12608333" lon="-4.92104667">
        <ele>474.0</ele>
        <time>2018-10-06T07:56:14.000Z</time>
      </trkpt>
      <trkpt lat="38.12608333" lon="-4.92104667">
        <ele>474.0</ele>
        <time>2018-10-06T07:56:15.000Z</time>
      </trkpt>
      <trkpt lat="38.12608333" lon="-4.92104667">
        <ele>474.0</ele>
        <time>2018-10-06T07:56:16.000Z</time>
      </trkpt>
      <trkpt lat="38.12608333" lon="-4.92104667">
        <ele>474.0</ele>
        <time>2018-10-06T07:56:17.000Z</time>
      </trkpt>
      <trkpt lat="38.12608333" lon="-4.92104667">
        <ele>474.0</ele>
        <time>2018-10-06T07:56:18.000Z</time>
      </trkpt>
      <trkpt lat="38.12608333" lon="-4.92104667">
        <ele>474.0</ele>
        <time>2018-10-06T07:56:19.000Z</time>
      </trkpt>
      <trkpt lat="38.12608333" lon="-4.92104667">
        <ele>474.0</ele>
        <time>2018-10-06T07:56:20.000Z</time>
      </trkpt>
      <trkpt lat="38.12608333" lon="-4.92104667">
        <ele>474.0</ele>
        <time>2018-10-06T07:56:21.000Z</time>
      </trkpt>
      <trkpt lat="38.12608333" lon="-4.92104667">
        <ele>474.0</ele>
        <time>2018-10-06T07:56:22.000Z</time>
      </trkpt>
      <trkpt lat="38.12608333" lon="-4.92104667">
        <ele>474.0</ele>
        <time>2018-10-06T07:56:23.000Z</time>
      </trkpt>
      <trkpt lat="38.12608333" lon="-4.92104667">
        <ele>474.0</ele>
        <time>2018-10-06T07:56:24.000Z</time>
      </trkpt>
      <trkpt lat="38.12608333" lon="-4.92104667">
        <ele>474.0</ele>
        <time>2018-10-06T07:56:25.000Z</time>
      </trkpt>
      <trkpt lat="38.12608333" lon="-4.92104667">
        <ele>474.0</ele>
        <time>2018-10-06T07:56:26.000Z</time>
      </trkpt>
      <trkpt lat="38.12608333" lon="-4.92104667">
        <ele>474.0</ele>
        <time>2018-10-06T07:56:27.000Z</time>
      </trkpt>
      <trkpt lat="38.12608333" lon="-4.92104667">
        <ele>474.0</ele>
        <time>2018-10-06T07:56:28.000Z</time>
      </trkpt>
      <trkpt lat="38.12608333" lon="-4.92104667">
        <ele>474.0</ele>
        <time>2018-10-06T07:56:29.000Z</time>
      </trkpt>
      <trkpt lat="38.12608333" lon="-4.92104667">
        <ele>474.0</ele>
        <time>2018-10-06T07:56:30.000Z</time>
      </trkpt>
      <trkpt lat="38.12608333" lon="-4.92104667">
        <ele>474.0</ele>
        <time>2018-10-06T07:56:31.000Z</time>
      </trkpt>
      <trkpt lat="38.12608333" lon="-4.92104667">
        <ele>474.0</ele>
        <time>2018-10-06T07:56:32.000Z</time>
      </trkpt>
      <trkpt lat="38.12608333" lon="-4.92104667">
        <ele>474.0</ele>
        <time>2018-10-06T07:56:33.000Z</time>
      </trkpt>
      <trkpt lat="38.12608333" lon="-4.92104667">
        <ele>474.0</ele>
        <time>2018-10-06T07:56:34.000Z</time>
      </trkpt>
      <trkpt lat="38.12608333" lon="-4.92104667">
        <ele>474.0</ele>
        <time>2018-10-06T07:56:35.000Z</time>
      </trkpt>
      <trkpt lat="38.12608333" lon="-4.92104667">
        <ele>474.0</ele>
        <time>2018-10-06T07:56:36.000Z</time>
      </trkpt>
      <trkpt lat="38.12608333" lon="-4.92104667">
        <ele>474.0</ele>
        <time>2018-10-06T07:56:37.000Z</time>
      </trkpt>
      <trkpt lat="38.12608333" lon="-4.92104667">
        <ele>474.0</ele>
        <time>2018-10-06T07:56:38.000Z</time>
      </trkpt>
      <trkpt lat="38.12582667" lon="-4.92066667">
        <ele>479.0</ele>
        <time>2018-10-06T07:56:39.000Z</time>
      </trkpt>
      <trkpt lat="38.12581333" lon="-4.92064667">
        <ele>480.0</ele>
        <time>2018-10-06T07:56:40.000Z</time>
      </trkpt>
      <trkpt lat="38.12580667" lon="-4.92063167">
        <ele>480.0</ele>
        <time>2018-10-06T07:56:41.000Z</time>
      </trkpt>
      <trkpt lat="38.1258" lon="-4.92061333">
        <ele>480.0</ele>
        <time>2018-10-06T07:56:42.000Z</time>
      </trkpt>
      <trkpt lat="38.125795" lon="-4.9206">
        <ele>480.0</ele>
        <time>2018-10-06T07:56:43.000Z</time>
      </trkpt>
      <trkpt lat="38.12579" lon="-4.92058833">
        <ele>480.0</ele>
        <time>2018-10-06T07:56:44.000Z</time>
      </trkpt>
      <trkpt lat="38.125785" lon="-4.920575">
        <ele>480.0</ele>
        <time>2018-10-06T07:56:45.000Z</time>
      </trkpt>
      <trkpt lat="38.12577667" lon="-4.92056333">
        <ele>479.0</ele>
        <time>2018-10-06T07:56:46.000Z</time>
      </trkpt>
      <trkpt lat="38.12577167" lon="-4.92054833">
        <ele>479.0</ele>
        <time>2018-10-06T07:56:47.000Z</time>
      </trkpt>
      <trkpt lat="38.12576667" lon="-4.92053667">
        <ele>479.0</ele>
        <time>2018-10-06T07:56:48.000Z</time>
      </trkpt>
      <trkpt lat="38.12576333" lon="-4.92052667">
        <ele>479.0</ele>
        <time>2018-10-06T07:56:49.000Z</time>
      </trkpt>
      <trkpt lat="38.12575833" lon="-4.920515">
        <ele>479.0</ele>
        <time>2018-10-06T07:56:50.000Z</time>
      </trkpt>
      <trkpt lat="38.12575833" lon="-4.920515">
        <ele>479.0</ele>
        <time>2018-10-06T07:56:51.000Z</time>
      </trkpt>
      <trkpt lat="38.12575833" lon="-4.920515">
        <ele>479.0</ele>
        <time>2018-10-06T07:56:52.000Z</time>
      </trkpt>
      <trkpt lat="38.12575833" lon="-4.920515">
        <ele>479.0</ele>
        <time>2018-10-06T07:56:53.000Z</time>
      </trkpt>
      <trkpt lat="38.12575833" lon="-4.920515">
        <ele>479.0</ele>
        <time>2018-10-06T07:56:54.000Z</time>
      </trkpt>
      <trkpt lat="38.12575833" lon="-4.920515">
        <ele>479.0</ele>
        <time>2018-10-06T07:56:55.000Z</time>
      </trkpt>
      <trkpt lat="38.12575833" lon="-4.920515">
        <ele>479.0</ele>
        <time>2018-10-06T07:56:56.000Z</time>
      </trkpt>
      <trkpt lat="38.12575833" lon="-4.920515">
        <ele>479.0</ele>
        <time>2018-10-06T07:56:57.000Z</time>
      </trkpt>
      <trkpt lat="38.12575833" lon="-4.920515">
        <ele>479.0</ele>
        <time>2018-10-06T07:56:58.000Z</time>
      </trkpt>
      <trkpt lat="38.12575833" lon="-4.920515">
        <ele>479.0</ele>
        <time>2018-10-06T07:56:59.000Z</time>
      </trkpt>
      <trkpt lat="38.12575833" lon="-4.920515">
        <ele>479.0</ele>
        <time>2018-10-06T07:57:00.000Z</time>
      </trkpt>
      <trkpt lat="38.12575833" lon="-4.920515">
        <ele>479.0</ele>
        <time>2018-10-06T07:57:01.000Z</time>
      </trkpt>
      <trkpt lat="38.12575833" lon="-4.920515">
        <ele>479.0</ele>
        <time>2018-10-06T07:57:02.000Z</time>
      </trkpt>
      <trkpt lat="38.12575833" lon="-4.920515">
        <ele>479.0</ele>
        <time>2018-10-06T07:57:03.000Z</time>
      </trkpt>
      <trkpt lat="38.12575833" lon="-4.920515">
        <ele>479.0</ele>
        <time>2018-10-06T07:57:04.000Z</time>
      </trkpt>
      <trkpt lat="38.12575833" lon="-4.920515">
        <ele>479.0</ele>
        <time>2018-10-06T07:57:05.000Z</time>
      </trkpt>
      <trkpt lat="38.12575833" lon="-4.920515">
        <ele>479.0</ele>
        <time>2018-10-06T07:57:06.000Z</time>
      </trkpt>
      <trkpt lat="38.12575833" lon="-4.920515">
        <ele>479.0</ele>
        <time>2018-10-06T07:57:07.000Z</time>
      </trkpt>
      <trkpt lat="38.12575833" lon="-4.920515">
        <ele>479.0</ele>
        <time>2018-10-06T07:57:08.000Z</time>
      </trkpt>
      <trkpt lat="38.12575833" lon="-4.920515">
        <ele>479.0</ele>
        <time>2018-10-06T07:57:09.000Z</time>
      </trkpt>
      <trkpt lat="38.12575833" lon="-4.920515">
        <ele>479.0</ele>
        <time>2018-10-06T07:57:10.000Z</time>
      </trkpt>
      <trkpt lat="38.12575833" lon="-4.920515">
        <ele>479.0</ele>
        <time>2018-10-06T07:57:11.000Z</time>
      </trkpt>
      <trkpt lat="38.12575833" lon="-4.920515">
        <ele>479.0</ele>
        <time>2018-10-06T07:57:12.000Z</time>
      </trkpt>
      <trkpt lat="38.12575833" lon="-4.920515">
        <ele>479.0</ele>
        <time>2018-10-06T07:57:13.000Z</time>
      </trkpt>
      <trkpt lat="38.12575833" lon="-4.920515">
        <ele>479.0</ele>
        <time>2018-10-06T07:57:14.000Z</time>
      </trkpt>
      <trkpt lat="38.12575833" lon="-4.920515">
        <ele>479.0</ele>
        <time>2018-10-06T07:57:15.000Z</time>
      </trkpt>
      <trkpt lat="38.12575833" lon="-4.920515">
        <ele>479.0</ele>
        <time>2018-10-06T07:57:16.000Z</time>
      </trkpt>
      <trkpt lat="38.12575833" lon="-4.920515">
        <ele>479.0</ele>
        <time>2018-10-06T07:57:17.000Z</time>
      </trkpt>
      <trkpt lat="38.12575833" lon="-4.920515">
        <ele>479.0</ele>
        <time>2018-10-06T07:57:18.000Z</time>
      </trkpt>
      <trkpt lat="38.12575833" lon="-4.920515">
        <ele>479.0</ele>
        <time>2018-10-06T07:57:19.000Z</time>
      </trkpt>
      <trkpt lat="38.12575833" lon="-4.920515">
        <ele>479.0</ele>
        <time>2018-10-06T07:57:20.000Z</time>
      </trkpt>
      <trkpt lat="38.12575833" lon="-4.920515">
        <ele>479.0</ele>
        <time>2018-10-06T07:57:21.000Z</time>
      </trkpt>
      <trkpt lat="38.12575833" lon="-4.920515">
        <ele>479.0</ele>
        <time>2018-10-06T07:57:22.000Z</time>
      </trkpt>
      <trkpt lat="38.12575833" lon="-4.920515">
        <ele>479.0</ele>
        <time>2018-10-06T07:57:23.000Z</time>
      </trkpt>
      <trkpt lat="38.12575833" lon="-4.920515">
        <ele>479.0</ele>
        <time>2018-10-06T07:57:24.000Z</time>
      </trkpt>
      <trkpt lat="38.12575833" lon="-4.920515">
        <ele>479.0</ele>
        <time>2018-10-06T07:57:25.000Z</time>
      </trkpt>
      <trkpt lat="38.12575833" lon="-4.920515">
        <ele>479.0</ele>
        <time>2018-10-06T07:57:26.000Z</time>
      </trkpt>
      <trkpt lat="38.12575833" lon="-4.920515">
        <ele>479.0</ele>
        <time>2018-10-06T07:57:27.000Z</time>
      </trkpt>
      <trkpt lat="38.12575833" lon="-4.920515">
        <ele>479.0</ele>
        <time>2018-10-06T07:57:28.000Z</time>
      </trkpt>
      <trkpt lat="38.12575833" lon="-4.920515">
        <ele>479.0</ele>
        <time>2018-10-06T07:57:29.000Z</time>
      </trkpt>
      <trkpt lat="38.12575833" lon="-4.920515">
        <ele>479.0</ele>
        <time>2018-10-06T07:57:30.000Z</time>
      </trkpt>
      <trkpt lat="38.12575833" lon="-4.920515">
        <ele>479.0</ele>
        <time>2018-10-06T07:57:31.000Z</time>
      </trkpt>
      <trkpt lat="38.12575833" lon="-4.920515">
        <ele>479.0</ele>
        <time>2018-10-06T07:57:32.000Z</time>
      </trkpt>
      <trkpt lat="38.12575833" lon="-4.920515">
        <ele>479.0</ele>
        <time>2018-10-06T07:57:33.000Z</time>
      </trkpt>
      <trkpt lat="38.12575833" lon="-4.920515">
        <ele>479.0</ele>
        <time>2018-10-06T07:57:34.000Z</time>
      </trkpt>
      <trkpt lat="38.12575833" lon="-4.920515">
        <ele>479.0</ele>
        <time>2018-10-06T07:57:35.000Z</time>
      </trkpt>
      <trkpt lat="38.12575833" lon="-4.920515">
        <ele>479.0</ele>
        <time>2018-10-06T07:57:36.000Z</time>
      </trkpt>
      <trkpt lat="38.12575833" lon="-4.920515">
        <ele>479.0</ele>
        <time>2018-10-06T07:57:37.000Z</time>
      </trkpt>
      <trkpt lat="38.12575833" lon="-4.920515">
        <ele>479.0</ele>
        <time>2018-10-06T07:57:38.000Z</time>
      </trkpt>
      <trkpt lat="38.12575833" lon="-4.920515">
        <ele>479.0</ele>
        <time>2018-10-06T07:57:39.000Z</time>
      </trkpt>
      <trkpt lat="38.125425" lon="-4.92013833">
        <ele>481.0</ele>
        <time>2018-10-06T07:57:40.000Z</time>
      </trkpt>
      <trkpt lat="38.12540833" lon="-4.92013833">
        <ele>481.0</ele>
        <time>2018-10-06T07:57:41.000Z</time>
      </trkpt>
      <trkpt lat="38.12539833" lon="-4.92013167">
        <ele>481.0</ele>
        <time>2018-10-06T07:57:42.000Z</time>
      </trkpt>
      <trkpt lat="38.12538833" lon="-4.92012833">
        <ele>481.0</ele>
        <time>2018-10-06T07:57:43.000Z</time>
      </trkpt>
      <trkpt lat="38.12537833" lon="-4.920125">
        <ele>481.0</ele>
        <time>2018-10-06T07:57:44.000Z</time>
      </trkpt>
      <trkpt lat="38.12536667" lon="-4.92012">
        <ele>481.0</ele>
        <time>2018-10-06T07:57:45.000Z</time>
      </trkpt>
      <trkpt lat="38.125355" lon="-4.920115">
        <ele>481.0</ele>
        <time>2018-10-06T07:57:46.000Z</time>
      </trkpt>
      <trkpt lat="38.125345" lon="-4.92011167">
        <ele>481.0</ele>
        <time>2018-10-06T07:57:47.000Z</time>
      </trkpt>
      <trkpt lat="38.12533667" lon="-4.92010833">
        <ele>481.0</ele>
        <time>2018-10-06T07:57:48.000Z</time>
      </trkpt>
      <trkpt lat="38.12532667" lon="-4.920105">
        <ele>481.0</ele>
        <time>2018-10-06T07:57:49.000Z</time>
      </trkpt>
      <trkpt lat="38.12531667" lon="-4.92010333">
        <ele>481.0</ele>
        <time>2018-10-06T07:57:50.000Z</time>
      </trkpt>
      <trkpt lat="38.12531667" lon="-4.92010333">
        <ele>481.0</ele>
        <time>2018-10-06T07:57:51.000Z</time>
      </trkpt>
      <trkpt lat="38.12531667" lon="-4.92010333">
        <ele>481.0</ele>
        <time>2018-10-06T07:57:52.000Z</time>
      </trkpt>
      <trkpt lat="38.12531667" lon="-4.92010333">
        <ele>481.0</ele>
        <time>2018-10-06T07:57:53.000Z</time>
      </trkpt>
      <trkpt lat="38.12531667" lon="-4.92010333">
        <ele>481.0</ele>
        <time>2018-10-06T07:57:54.000Z</time>
      </trkpt>
      <trkpt lat="38.12531667" lon="-4.92010333">
        <ele>481.0</ele>
        <time>2018-10-06T07:57:55.000Z</time>
      </trkpt>
      <trkpt lat="38.12531667" lon="-4.92010333">
        <ele>481.0</ele>
        <time>2018-10-06T07:57:56.000Z</time>
      </trkpt>
      <trkpt lat="38.12531667" lon="-4.92010333">
        <ele>481.0</ele>
        <time>2018-10-06T07:57:57.000Z</time>
      </trkpt>
      <trkpt lat="38.12531667" lon="-4.92010333">
        <ele>481.0</ele>
        <time>2018-10-06T07:57:58.000Z</time>
      </trkpt>
      <trkpt lat="38.12531667" lon="-4.92010333">
        <ele>481.0</ele>
        <time>2018-10-06T07:57:59.000Z</time>
      </trkpt>
      <trkpt lat="38.12531667" lon="-4.92010333">
        <ele>481.0</ele>
        <time>2018-10-06T07:58:00.000Z</time>
      </trkpt>
      <trkpt lat="38.12531667" lon="-4.92010333">
        <ele>481.0</ele>
        <time>2018-10-06T07:58:01.000Z</time>
      </trkpt>
      <trkpt lat="38.12531667" lon="-4.92010333">
        <ele>481.0</ele>
        <time>2018-10-06T07:58:02.000Z</time>
      </trkpt>
      <trkpt lat="38.12531667" lon="-4.92010333">
        <ele>481.0</ele>
        <time>2018-10-06T07:58:03.000Z</time>
      </trkpt>
      <trkpt lat="38.12531667" lon="-4.92010333">
        <ele>481.0</ele>
        <time>2018-10-06T07:58:04.000Z</time>
      </trkpt>
      <trkpt lat="38.12531667" lon="-4.92010333">
        <ele>481.0</ele>
        <time>2018-10-06T07:58:05.000Z</time>
      </trkpt>
      <trkpt lat="38.12531667" lon="-4.92010333">
        <ele>481.0</ele>
        <time>2018-10-06T07:58:06.000Z</time>
      </trkpt>
      <trkpt lat="38.12531667" lon="-4.92010333">
        <ele>481.0</ele>
        <time>2018-10-06T07:58:07.000Z</time>
      </trkpt>
      <trkpt lat="38.12531667" lon="-4.92010333">
        <ele>481.0</ele>
        <time>2018-10-06T07:58:08.000Z</time>
      </trkpt>
      <trkpt lat="38.12531667" lon="-4.92010333">
        <ele>481.0</ele>
        <time>2018-10-06T07:58:09.000Z</time>
      </trkpt>
      <trkpt lat="38.12531667" lon="-4.92010333">
        <ele>481.0</ele>
        <time>2018-10-06T07:58:10.000Z</time>
      </trkpt>
      <trkpt lat="38.12531667" lon="-4.92010333">
        <ele>481.0</ele>
        <time>2018-10-06T07:58:11.000Z</time>
      </trkpt>
      <trkpt lat="38.12531667" lon="-4.92010333">
        <ele>481.0</ele>
        <time>2018-10-06T07:58:12.000Z</time>
      </trkpt>
      <trkpt lat="38.12531667" lon="-4.92010333">
        <ele>481.0</ele>
        <time>2018-10-06T07:58:13.000Z</time>
      </trkpt>
      <trkpt lat="38.12531667" lon="-4.92010333">
        <ele>481.0</ele>
        <time>2018-10-06T07:58:14.000Z</time>
      </trkpt>
      <trkpt lat="38.12531667" lon="-4.92010333">
        <ele>481.0</ele>
        <time>2018-10-06T07:58:15.000Z</time>
      </trkpt>
      <trkpt lat="38.12531667" lon="-4.92010333">
        <ele>481.0</ele>
        <time>2018-10-06T07:58:16.000Z</time>
      </trkpt>
      <trkpt lat="38.12531667" lon="-4.92010333">
        <ele>481.0</ele>
        <time>2018-10-06T07:58:17.000Z</time>
      </trkpt>
      <trkpt lat="38.12531667" lon="-4.92010333">
        <ele>481.0</ele>
        <time>2018-10-06T07:58:18.000Z</time>
      </trkpt>
      <trkpt lat="38.12531667" lon="-4.92010333">
        <ele>481.0</ele>
        <time>2018-10-06T07:58:19.000Z</time>
      </trkpt>
      <trkpt lat="38.12531667" lon="-4.92010333">
        <ele>481.0</ele>
        <time>2018-10-06T07:58:20.000Z</time>
      </trkpt>
      <trkpt lat="38.12531667" lon="-4.92010333">
        <ele>481.0</ele>
        <time>2018-10-06T07:58:21.000Z</time>
      </trkpt>
      <trkpt lat="38.12531667" lon="-4.92010333">
        <ele>481.0</ele>
        <time>2018-10-06T07:58:22.000Z</time>
      </trkpt>
      <trkpt lat="38.12531667" lon="-4.92010333">
        <ele>481.0</ele>
        <time>2018-10-06T07:58:23.000Z</time>
      </trkpt>
      <trkpt lat="38.12531667" lon="-4.92010333">
        <ele>481.0</ele>
        <time>2018-10-06T07:58:24.000Z</time>
      </trkpt>
      <trkpt lat="38.12531667" lon="-4.92010333">
        <ele>481.0</ele>
        <time>2018-10-06T07:58:25.000Z</time>
      </trkpt>
      <trkpt lat="38.12531667" lon="-4.92010333">
        <ele>481.0</ele>
        <time>2018-10-06T07:58:26.000Z</time>
      </trkpt>
      <trkpt lat="38.12531667" lon="-4.92010333">
        <ele>481.0</ele>
        <time>2018-10-06T07:58:27.000Z</time>
      </trkpt>
      <trkpt lat="38.12531667" lon="-4.92010333">
        <ele>481.0</ele>
        <time>2018-10-06T07:58:28.000Z</time>
      </trkpt>
      <trkpt lat="38.12531667" lon="-4.92010333">
        <ele>481.0</ele>
        <time>2018-10-06T07:58:29.000Z</time>
      </trkpt>
      <trkpt lat="38.12531667" lon="-4.92010333">
        <ele>481.0</ele>
        <time>2018-10-06T07:58:30.000Z</time>
      </trkpt>
      <trkpt lat="38.12531667" lon="-4.92010333">
        <ele>481.0</ele>
        <time>2018-10-06T07:58:31.000Z</time>
      </trkpt>
      <trkpt lat="38.12531667" lon="-4.92010333">
        <ele>481.0</ele>
        <time>2018-10-06T07:58:32.000Z</time>
      </trkpt>
      <trkpt lat="38.12531667" lon="-4.92010333">
        <ele>481.0</ele>
        <time>2018-10-06T07:58:33.000Z</time>
      </trkpt>
      <trkpt lat="38.12531667" lon="-4.92010333">
        <ele>481.0</ele>
        <time>2018-10-06T07:58:34.000Z</time>
      </trkpt>
      <trkpt lat="38.12531667" lon="-4.92010333">
        <ele>481.0</ele>
        <time>2018-10-06T07:58:35.000Z</time>
      </trkpt>
      <trkpt lat="38.12531667" lon="-4.92010333">
        <ele>481.0</ele>
        <time>2018-10-06T07:58:36.000Z</time>
      </trkpt>
      <trkpt lat="38.12531667" lon="-4.92010333">
        <ele>481.0</ele>
        <time>2018-10-06T07:58:37.000Z</time>
      </trkpt>
      <trkpt lat="38.12531667" lon="-4.92010333">
        <ele>481.0</ele>
        <time>2018-10-06T07:58:38.000Z</time>
      </trkpt>
      <trkpt lat="38.12549167" lon="-4.92025667">
        <ele>478.0</ele>
        <time>2018-10-06T07:58:39.000Z</time>
      </trkpt>
      <trkpt lat="38.12548333" lon="-4.920265">
        <ele>479.0</ele>
        <time>2018-10-06T07:58:40.000Z</time>
      </trkpt>
      <trkpt lat="38.12548" lon="-4.92027333">
        <ele>480.0</ele>
        <time>2018-10-06T07:58:41.000Z</time>
      </trkpt>
      <trkpt lat="38.12547333" lon="-4.92027667">
        <ele>480.0</ele>
        <time>2018-10-06T07:58:42.000Z</time>
      </trkpt>
      <trkpt lat="38.12547" lon="-4.920285">
        <ele>480.0</ele>
        <time>2018-10-06T07:58:43.000Z</time>
      </trkpt>
      <trkpt lat="38.12546667" lon="-4.92029167">
        <ele>480.0</ele>
        <time>2018-10-06T07:58:44.000Z</time>
      </trkpt>
      <trkpt lat="38.12546333" lon="-4.92029833">
        <ele>480.0</ele>
        <time>2018-10-06T07:58:45.000Z</time>
      </trkpt>
      <trkpt lat="38.12546" lon="-4.920305">
        <ele>480.0</ele>
        <time>2018-10-06T07:58:46.000Z</time>
      </trkpt>
      <trkpt lat="38.12545667" lon="-4.92030667">
        <ele>480.0</ele>
        <time>2018-10-06T07:58:47.000Z</time>
      </trkpt>
      <trkpt lat="38.12545333" lon="-4.92030833">
        <ele>480.0</ele>
        <time>2018-10-06T07:58:48.000Z</time>
      </trkpt>
      <trkpt lat="38.12545" lon="-4.92031">
        <ele>480.0</ele>
        <time>2018-10-06T07:58:49.000Z</time>
      </trkpt>
      <trkpt lat="38.125445" lon="-4.92031167">
        <ele>479.0</ele>
        <time>2018-10-06T07:58:50.000Z</time>
      </trkpt>
      <trkpt lat="38.125445" lon="-4.92031167">
        <ele>479.0</ele>
        <time>2018-10-06T07:58:51.000Z</time>
      </trkpt>
      <trkpt lat="38.125445" lon="-4.92031167">
        <ele>479.0</ele>
        <time>2018-10-06T07:58:52.000Z</time>
      </trkpt>
      <trkpt lat="38.125445" lon="-4.92031167">
        <ele>479.0</ele>
        <time>2018-10-06T07:58:53.000Z</time>
      </trkpt>
      <trkpt lat="38.125445" lon="-4.92031167">
        <ele>479.0</ele>
        <time>2018-10-06T07:58:54.000Z</time>
      </trkpt>
      <trkpt lat="38.125445" lon="-4.92031167">
        <ele>479.0</ele>
        <time>2018-10-06T07:58:55.000Z</time>
      </trkpt>
      <trkpt lat="38.125445" lon="-4.92031167">
        <ele>479.0</ele>
        <time>2018-10-06T07:58:56.000Z</time>
      </trkpt>
      <trkpt lat="38.125445" lon="-4.92031167">
        <ele>479.0</ele>
        <time>2018-10-06T07:58:57.000Z</time>
      </trkpt>
      <trkpt lat="38.125445" lon="-4.92031167">
        <ele>479.0</ele>
        <time>2018-10-06T07:58:58.000Z</time>
      </trkpt>
      <trkpt lat="38.125445" lon="-4.92031167">
        <ele>479.0</ele>
        <time>2018-10-06T07:58:59.000Z</time>
      </trkpt>
      <trkpt lat="38.125445" lon="-4.92031167">
        <ele>479.0</ele>
        <time>2018-10-06T07:59:00.000Z</time>
      </trkpt>
      <trkpt lat="38.125445" lon="-4.92031167">
        <ele>479.0</ele>
        <time>2018-10-06T07:59:01.000Z</time>
      </trkpt>
      <trkpt lat="38.125445" lon="-4.92031167">
        <ele>479.0</ele>
        <time>2018-10-06T07:59:02.000Z</time>
      </trkpt>
      <trkpt lat="38.125445" lon="-4.92031167">
        <ele>479.0</ele>
        <time>2018-10-06T07:59:03.000Z</time>
      </trkpt>
      <trkpt lat="38.125445" lon="-4.92031167">
        <ele>479.0</ele>
        <time>2018-10-06T07:59:04.000Z</time>
      </trkpt>
      <trkpt lat="38.125445" lon="-4.92031167">
        <ele>479.0</ele>
        <time>2018-10-06T07:59:05.000Z</time>
      </trkpt>
      <trkpt lat="38.125445" lon="-4.92031167">
        <ele>479.0</ele>
        <time>2018-10-06T07:59:06.000Z</time>
      </trkpt>
      <trkpt lat="38.125445" lon="-4.92031167">
        <ele>479.0</ele>
        <time>2018-10-06T07:59:07.000Z</time>
      </trkpt>
      <trkpt lat="38.125445" lon="-4.92031167">
        <ele>479.0</ele>
        <time>2018-10-06T07:59:08.000Z</time>
      </trkpt>
      <trkpt lat="38.125445" lon="-4.92031167">
        <ele>479.0</ele>
        <time>2018-10-06T07:59:09.000Z</time>
      </trkpt>
      <trkpt lat="38.125445" lon="-4.92031167">
        <ele>479.0</ele>
        <time>2018-10-06T07:59:10.000Z</time>
      </trkpt>
      <trkpt lat="38.125445" lon="-4.92031167">
        <ele>479.0</ele>
        <time>2018-10-06T07:59:11.000Z</time>
      </trkpt>
      <trkpt lat="38.125445" lon="-4.92031167">
        <ele>479.0</ele>
        <time>2018-10-06T07:59:12.000Z</time>
      </trkpt>
      <trkpt lat="38.125445" lon="-4.92031167">
        <ele>479.0</ele>
        <time>2018-10-06T07:59:13.000Z</time>
      </trkpt>
      <trkpt lat="38.125445" lon="-4.92031167">
        <ele>479.0</ele>
        <time>2018-10-06T07:59:14.000Z</time>
      </trkpt>
      <trkpt lat="38.125445" lon="-4.92031167">
        <ele>479.0</ele>
        <time>2018-10-06T07:59:15.000Z</time>
      </trkpt>
      <trkpt lat="38.125445" lon="-4.92031167">
        <ele>479.0</ele>
        <time>2018-10-06T07:59:16.000Z</time>
      </trkpt>
      <trkpt lat="38.125445" lon="-4.92031167">
        <ele>479.0</ele>
        <time>2018-10-06T07:59:17.000Z</time>
      </trkpt>
      <trkpt lat="38.125445" lon="-4.92031167">
        <ele>479.0</ele>
        <time>2018-10-06T07:59:18.000Z</time>
      </trkpt>
      <trkpt lat="38.125445" lon="-4.92031167">
        <ele>479.0</ele>
        <time>2018-10-06T07:59:19.000Z</time>
      </trkpt>
      <trkpt lat="38.125445" lon="-4.92031167">
        <ele>479.0</ele>
        <time>2018-10-06T07:59:20.000Z</time>
      </trkpt>
      <trkpt lat="38.125445" lon="-4.92031167">
        <ele>479.0</ele>
        <time>2018-10-06T07:59:21.000Z</time>
      </trkpt>
      <trkpt lat="38.125445" lon="-4.92031167">
        <ele>479.0</ele>
        <time>2018-10-06T07:59:22.000Z</time>
      </trkpt>
      <trkpt lat="38.125445" lon="-4.92031167">
        <ele>479.0</ele>
        <time>2018-10-06T07:59:23.000Z</time>
      </trkpt>
      <trkpt lat="38.125445" lon="-4.92031167">
        <ele>479.0</ele>
        <time>2018-10-06T07:59:24.000Z</time>
      </trkpt>
      <trkpt lat="38.125445" lon="-4.92031167">
        <ele>479.0</ele>
        <time>2018-10-06T07:59:25.000Z</time>
      </trkpt>
      <trkpt lat="38.125445" lon="-4.92031167">
        <ele>479.0</ele>
        <time>2018-10-06T07:59:26.000Z</time>
      </trkpt>
      <trkpt lat="38.125445" lon="-4.92031167">
        <ele>479.0</ele>
        <time>2018-10-06T07:59:27.000Z</time>
      </trkpt>
      <trkpt lat="38.125445" lon="-4.92031167">
        <ele>479.0</ele>
        <time>2018-10-06T07:59:28.000Z</time>
      </trkpt>
      <trkpt lat="38.125445" lon="-4.92031167">
        <ele>479.0</ele>
        <time>2018-10-06T07:59:29.000Z</time>
      </trkpt>
      <trkpt lat="38.125445" lon="-4.92031167">
        <ele>479.0</ele>
        <time>2018-10-06T07:59:30.000Z</time>
      </trkpt>
      <trkpt lat="38.125445" lon="-4.92031167">
        <ele>479.0</ele>
        <time>2018-10-06T07:59:31.000Z</time>
      </trkpt>
      <trkpt lat="38.125445" lon="-4.92031167">
        <ele>479.0</ele>
        <time>2018-10-06T07:59:32.000Z</time>
      </trkpt>
      <trkpt lat="38.125445" lon="-4.92031167">
        <ele>479.0</ele>
        <time>2018-10-06T07:59:33.000Z</time>
      </trkpt>
      <trkpt lat="38.125445" lon="-4.92031167">
        <ele>479.0</ele>
        <time>2018-10-06T07:59:34.000Z</time>
      </trkpt>
      <trkpt lat="38.125445" lon="-4.92031167">
        <ele>479.0</ele>
        <time>2018-10-06T07:59:35.000Z</time>
      </trkpt>
      <trkpt lat="38.125445" lon="-4.92031167">
        <ele>479.0</ele>
        <time>2018-10-06T07:59:36.000Z</time>
      </trkpt>
      <trkpt lat="38.125445" lon="-4.92031167">
        <ele>479.0</ele>
        <time>2018-10-06T07:59:37.000Z</time>
      </trkpt>
      <trkpt lat="38.125445" lon="-4.92031167">
        <ele>479.0</ele>
        <time>2018-10-06T07:59:38.000Z</time>
      </trkpt>
      <trkpt lat="38.125385" lon="-4.92034167">
        <ele>477.0</ele>
        <time>2018-10-06T07:59:39.000Z</time>
      </trkpt>
      <trkpt lat="38.125405" lon="-4.920425">
        <ele>479.0</ele>
        <time>2018-10-06T07:59:40.000Z</time>
      </trkpt>
      <trkpt lat="38.12540667" lon="-4.92042333">
        <ele>479.0</ele>
        <time>2018-10-06T07:59:41.000Z</time>
      </trkpt>
      <trkpt lat="38.125405" lon="-4.92042">
        <ele>479.0</ele>
        <time>2018-10-06T07:59:42.000Z</time>
      </trkpt>
      <trkpt lat="38.12540333" lon="-4.92041833">
        <ele>479.0</ele>
        <time>2018-10-06T07:59:43.000Z</time>
      </trkpt>
      <trkpt lat="38.12540167" lon="-4.92041833">
        <ele>479.0</ele>
        <time>2018-10-06T07:59:44.000Z</time>
      </trkpt>
      <trkpt lat="38.12539833" lon="-4.92041833">
        <ele>480.0</ele>
        <time>2018-10-06T07:59:45.000Z</time>
      </trkpt>
      <trkpt lat="38.12539667" lon="-4.92041833">
        <ele>480.0</ele>
        <time>2018-10-06T07:59:46.000Z</time>
      </trkpt>
      <trkpt lat="38.12539333" lon="-4.92041667">
        <ele>480.0</ele>
        <time>2018-10-06T07:59:47.000Z</time>
      </trkpt>
      <trkpt lat="38.12539167" lon="-4.92041667">
        <ele>481.0</ele>
        <time>2018-10-06T07:59:48.000Z</time>
      </trkpt>
      <trkpt lat="38.12539" lon="-4.92041833">
        <ele>481.0</ele>
        <time>2018-10-06T07:59:49.000Z</time>
      </trkpt>
      <trkpt lat="38.12539167" lon="-4.92041833">
        <ele>481.0</ele>
        <time>2018-10-06T07:59:50.000Z</time>
      </trkpt>
      <trkpt lat="38.12539167" lon="-4.92041833">
        <ele>481.0</ele>
        <time>2018-10-06T07:59:51.000Z</time>
      </trkpt>
      <trkpt lat="38.12539167" lon="-4.92041833">
        <ele>481.0</ele>
        <time>2018-10-06T07:59:52.000Z</time>
      </trkpt>
      <trkpt lat="38.12539167" lon="-4.92041833">
        <ele>481.0</ele>
        <time>2018-10-06T07:59:53.000Z</time>
      </trkpt>
      <trkpt lat="38.12539167" lon="-4.92041833">
        <ele>481.0</ele>
        <time>2018-10-06T07:59:54.000Z</time>
      </trkpt>
      <trkpt lat="38.12539167" lon="-4.92041833">
        <ele>481.0</ele>
        <time>2018-10-06T07:59:55.000Z</time>
      </trkpt>
      <trkpt lat="38.12539167" lon="-4.92041833">
        <ele>481.0</ele>
        <time>2018-10-06T07:59:56.000Z</time>
      </trkpt>
      <trkpt lat="38.12539167" lon="-4.92041833">
        <ele>481.0</ele>
        <time>2018-10-06T07:59:57.000Z</time>
      </trkpt>
      <trkpt lat="38.12539167" lon="-4.92041833">
        <ele>481.0</ele>
        <time>2018-10-06T07:59:58.000Z</time>
      </trkpt>
      <trkpt lat="38.12539167" lon="-4.92041833">
        <ele>481.0</ele>
        <time>2018-10-06T07:59:59.000Z</time>
      </trkpt>
      <trkpt lat="38.12539167" lon="-4.92041833">
        <ele>481.0</ele>
        <time>2018-10-06T08:00:00.000Z</time>
      </trkpt>
      <trkpt lat="38.12539167" lon="-4.92041833">
        <ele>481.0</ele>
        <time>2018-10-06T08:00:01.000Z</time>
      </trkpt>
      <trkpt lat="38.12539167" lon="-4.92041833">
        <ele>481.0</ele>
        <time>2018-10-06T08:00:02.000Z</time>
      </trkpt>
      <trkpt lat="38.12539167" lon="-4.92041833">
        <ele>481.0</ele>
        <time>2018-10-06T08:00:03.000Z</time>
      </trkpt>
      <trkpt lat="38.12539167" lon="-4.92041833">
        <ele>481.0</ele>
        <time>2018-10-06T08:00:04.000Z</time>
      </trkpt>
      <trkpt lat="38.12539167" lon="-4.92041833">
        <ele>481.0</ele>
        <time>2018-10-06T08:00:05.000Z</time>
      </trkpt>
      <trkpt lat="38.12539167" lon="-4.92041833">
        <ele>481.0</ele>
        <time>2018-10-06T08:00:06.000Z</time>
      </trkpt>
      <trkpt lat="38.12539167" lon="-4.92041833">
        <ele>481.0</ele>
        <time>2018-10-06T08:00:07.000Z</time>
      </trkpt>
      <trkpt lat="38.12539167" lon="-4.92041833">
        <ele>481.0</ele>
        <time>2018-10-06T08:00:08.000Z</time>
      </trkpt>
      <trkpt lat="38.12539167" lon="-4.92041833">
        <ele>481.0</ele>
        <time>2018-10-06T08:00:09.000Z</time>
      </trkpt>
      <trkpt lat="38.12539167" lon="-4.92041833">
        <ele>481.0</ele>
        <time>2018-10-06T08:00:10.000Z</time>
      </trkpt>
      <trkpt lat="38.12539167" lon="-4.92041833">
        <ele>481.0</ele>
        <time>2018-10-06T08:00:11.000Z</time>
      </trkpt>
      <trkpt lat="38.12539167" lon="-4.92041833">
        <ele>481.0</ele>
        <time>2018-10-06T08:00:12.000Z</time>
      </trkpt>
      <trkpt lat="38.12539167" lon="-4.92041833">
        <ele>481.0</ele>
        <time>2018-10-06T08:00:13.000Z</time>
      </trkpt>
      <trkpt lat="38.12539167" lon="-4.92041833">
        <ele>481.0</ele>
        <time>2018-10-06T08:00:14.000Z</time>
      </trkpt>
      <trkpt lat="38.12539167" lon="-4.92041833">
        <ele>481.0</ele>
        <time>2018-10-06T08:00:15.000Z</time>
      </trkpt>
      <trkpt lat="38.12539167" lon="-4.92041833">
        <ele>481.0</ele>
        <time>2018-10-06T08:00:16.000Z</time>
      </trkpt>
      <trkpt lat="38.12539167" lon="-4.92041833">
        <ele>481.0</ele>
        <time>2018-10-06T08:00:17.000Z</time>
      </trkpt>
      <trkpt lat="38.12539167" lon="-4.92041833">
        <ele>481.0</ele>
        <time>2018-10-06T08:00:18.000Z</time>
      </trkpt>
      <trkpt lat="38.12539167" lon="-4.92041833">
        <ele>481.0</ele>
        <time>2018-10-06T08:00:19.000Z</time>
      </trkpt>
      <trkpt lat="38.12539167" lon="-4.92041833">
        <ele>481.0</ele>
        <time>2018-10-06T08:00:20.000Z</time>
      </trkpt>
      <trkpt lat="38.12539167" lon="-4.92041833">
        <ele>481.0</ele>
        <time>2018-10-06T08:00:21.000Z</time>
      </trkpt>
      <trkpt lat="38.12539167" lon="-4.92041833">
        <ele>481.0</ele>
        <time>2018-10-06T08:00:22.000Z</time>
      </trkpt>
      <trkpt lat="38.12539167" lon="-4.92041833">
        <ele>481.0</ele>
        <time>2018-10-06T08:00:23.000Z</time>
      </trkpt>
      <trkpt lat="38.12539167" lon="-4.92041833">
        <ele>481.0</ele>
        <time>2018-10-06T08:00:24.000Z</time>
      </trkpt>
      <trkpt lat="38.12539167" lon="-4.92041833">
        <ele>481.0</ele>
        <time>2018-10-06T08:00:25.000Z</time>
      </trkpt>
      <trkpt lat="38.12539167" lon="-4.92041833">
        <ele>481.0</ele>
        <time>2018-10-06T08:00:26.000Z</time>
      </trkpt>
      <trkpt lat="38.12539167" lon="-4.92041833">
        <ele>481.0</ele>
        <time>2018-10-06T08:00:27.000Z</time>
      </trkpt>
      <trkpt lat="38.12539167" lon="-4.92041833">
        <ele>481.0</ele>
        <time>2018-10-06T08:00:28.000Z</time>
      </trkpt>
      <trkpt lat="38.12539167" lon="-4.92041833">
        <ele>481.0</ele>
        <time>2018-10-06T08:00:29.000Z</time>
      </trkpt>
      <trkpt lat="38.12539167" lon="-4.92041833">
        <ele>481.0</ele>
        <time>2018-10-06T08:00:30.000Z</time>
      </trkpt>
      <trkpt lat="38.12539167" lon="-4.92041833">
        <ele>481.0</ele>
        <time>2018-10-06T08:00:31.000Z</time>
      </trkpt>
      <trkpt lat="38.12539167" lon="-4.92041833">
        <ele>481.0</ele>
        <time>2018-10-06T08:00:32.000Z</time>
      </trkpt>
      <trkpt lat="38.12539167" lon="-4.92041833">
        <ele>481.0</ele>
        <time>2018-10-06T08:00:33.000Z</time>
      </trkpt>
      <trkpt lat="38.12539167" lon="-4.92041833">
        <ele>481.0</ele>
        <time>2018-10-06T08:00:34.000Z</time>
      </trkpt>
      <trkpt lat="38.12539167" lon="-4.92041833">
        <ele>481.0</ele>
        <time>2018-10-06T08:00:35.000Z</time>
      </trkpt>
      <trkpt lat="38.12539167" lon="-4.92041833">
        <ele>481.0</ele>
        <time>2018-10-06T08:00:36.000Z</time>
      </trkpt>
      <trkpt lat="38.12539167" lon="-4.92041833">
        <ele>481.0</ele>
        <time>2018-10-06T08:00:37.000Z</time>
      </trkpt>
      <trkpt lat="38.12539167" lon="-4.92041833">
        <ele>481.0</ele>
        <time>2018-10-06T08:00:38.000Z</time>
      </trkpt>
      <trkpt lat="38.12539167" lon="-4.92041833">
        <ele>481.0</ele>
        <time>2018-10-06T08:00:39.000Z</time>
      </trkpt>
      <trkpt lat="38.125365" lon="-4.920555">
        <ele>482.0</ele>
        <time>2018-10-06T08:00:40.000Z</time>
      </trkpt>
      <trkpt lat="38.12542667" lon="-4.92063167">
        <ele>483.0</ele>
        <time>2018-10-06T08:00:41.000Z</time>
      </trkpt>
      <trkpt lat="38.125435" lon="-4.92063333">
        <ele>482.0</ele>
        <time>2018-10-06T08:00:42.000Z</time>
      </trkpt>
      <trkpt lat="38.12544167" lon="-4.92063667">
        <ele>482.0</ele>
        <time>2018-10-06T08:00:43.000Z</time>
      </trkpt>
      <trkpt lat="38.125445" lon="-4.92064">
        <ele>482.0</ele>
        <time>2018-10-06T08:00:44.000Z</time>
      </trkpt>
      <trkpt lat="38.12544667" lon="-4.920645">
        <ele>482.0</ele>
        <time>2018-10-06T08:00:45.000Z</time>
      </trkpt>
      <trkpt lat="38.12544833" lon="-4.92065">
        <ele>482.0</ele>
        <time>2018-10-06T08:00:46.000Z</time>
      </trkpt>
      <trkpt lat="38.12544667" lon="-4.92065167">
        <ele>481.0</ele>
        <time>2018-10-06T08:00:47.000Z</time>
      </trkpt>
      <trkpt lat="38.125445" lon="-4.92065833">
        <ele>481.0</ele>
        <time>2018-10-06T08:00:48.000Z</time>
      </trkpt>
      <trkpt lat="38.12544333" lon="-4.92066167">
        <ele>481.0</ele>
        <time>2018-10-06T08:00:49.000Z</time>
      </trkpt>
      <trkpt lat="38.12544" lon="-4.92066333">
        <ele>481.0</ele>
        <time>2018-10-06T08:00:50.000Z</time>
      </trkpt>
      <trkpt lat="38.12544" lon="-4.92066333">
        <ele>481.0</ele>
        <time>2018-10-06T08:00:51.000Z</time>
      </trkpt>
      <trkpt lat="38.12544" lon="-4.92066333">
        <ele>481.0</ele>
        <time>2018-10-06T08:00:52.000Z</time>
      </trkpt>
      <trkpt lat="38.12544" lon="-4.92066333">
        <ele>481.0</ele>
        <time>2018-10-06T08:00:53.000Z</time>
      </trkpt>
      <trkpt lat="38.12544" lon="-4.92066333">
        <ele>481.0</ele>
        <time>2018-10-06T08:00:54.000Z</time>
      </trkpt>
      <trkpt lat="38.12544" lon="-4.92066333">
        <ele>481.0</ele>
        <time>2018-10-06T08:00:55.000Z</time>
      </trkpt>
      <trkpt lat="38.12544" lon="-4.92066333">
        <ele>481.0</ele>
        <time>2018-10-06T08:00:56.000Z</time>
      </trkpt>
      <trkpt lat="38.12544" lon="-4.92066333">
        <ele>481.0</ele>
        <time>2018-10-06T08:00:57.000Z</time>
      </trkpt>
      <trkpt lat="38.12544" lon="-4.92066333">
        <ele>481.0</ele>
        <time>2018-10-06T08:00:58.000Z</time>
      </trkpt>
      <trkpt lat="38.12544" lon="-4.92066333">
        <ele>481.0</ele>
        <time>2018-10-06T08:00:59.000Z</time>
      </trkpt>
      <trkpt lat="38.12544" lon="-4.92066333">
        <ele>481.0</ele>
        <time>2018-10-06T08:01:00.000Z</time>
      </trkpt>
      <trkpt lat="38.12544" lon="-4.92066333">
        <ele>481.0</ele>
        <time>2018-10-06T08:01:01.000Z</time>
      </trkpt>
      <trkpt lat="38.12544" lon="-4.92066333">
        <ele>481.0</ele>
        <time>2018-10-06T08:01:02.000Z</time>
      </trkpt>
      <trkpt lat="38.12544" lon="-4.92066333">
        <ele>481.0</ele>
        <time>2018-10-06T08:01:03.000Z</time>
      </trkpt>
      <trkpt lat="38.12544" lon="-4.92066333">
        <ele>481.0</ele>
        <time>2018-10-06T08:01:04.000Z</time>
      </trkpt>
      <trkpt lat="38.12544" lon="-4.92066333">
        <ele>481.0</ele>
        <time>2018-10-06T08:01:05.000Z</time>
      </trkpt>
      <trkpt lat="38.12544" lon="-4.92066333">
        <ele>481.0</ele>
        <time>2018-10-06T08:01:06.000Z</time>
      </trkpt>
      <trkpt lat="38.12544" lon="-4.92066333">
        <ele>481.0</ele>
        <time>2018-10-06T08:01:07.000Z</time>
      </trkpt>
      <trkpt lat="38.12544" lon="-4.92066333">
        <ele>481.0</ele>
        <time>2018-10-06T08:01:08.000Z</time>
      </trkpt>
      <trkpt lat="38.12544" lon="-4.92066333">
        <ele>481.0</ele>
        <time>2018-10-06T08:01:09.000Z</time>
      </trkpt>
      <trkpt lat="38.12544" lon="-4.92066333">
        <ele>481.0</ele>
        <time>2018-10-06T08:01:10.000Z</time>
      </trkpt>
      <trkpt lat="38.12544" lon="-4.92066333">
        <ele>481.0</ele>
        <time>2018-10-06T08:01:11.000Z</time>
      </trkpt>
      <trkpt lat="38.12544" lon="-4.92066333">
        <ele>481.0</ele>
        <time>2018-10-06T08:01:12.000Z</time>
      </trkpt>
      <trkpt lat="38.12544" lon="-4.92066333">
        <ele>481.0</ele>
        <time>2018-10-06T08:01:13.000Z</time>
      </trkpt>
      <trkpt lat="38.12544" lon="-4.92066333">
        <ele>481.0</ele>
        <time>2018-10-06T08:01:14.000Z</time>
      </trkpt>
      <trkpt lat="38.12544" lon="-4.92066333">
        <ele>481.0</ele>
        <time>2018-10-06T08:01:15.000Z</time>
      </trkpt>
      <trkpt lat="38.12544" lon="-4.92066333">
        <ele>481.0</ele>
        <time>2018-10-06T08:01:16.000Z</time>
      </trkpt>
      <trkpt lat="38.12544" lon="-4.92066333">
        <ele>481.0</ele>
        <time>2018-10-06T08:01:17.000Z</time>
      </trkpt>
      <trkpt lat="38.12544" lon="-4.92066333">
        <ele>481.0</ele>
        <time>2018-10-06T08:01:18.000Z</time>
      </trkpt>
      <trkpt lat="38.12544" lon="-4.92066333">
        <ele>481.0</ele>
        <time>2018-10-06T08:01:19.000Z</time>
      </trkpt>
      <trkpt lat="38.12544" lon="-4.92066333">
        <ele>481.0</ele>
        <time>2018-10-06T08:01:20.000Z</time>
      </trkpt>
      <trkpt lat="38.12544" lon="-4.92066333">
        <ele>481.0</ele>
        <time>2018-10-06T08:01:21.000Z</time>
      </trkpt>
      <trkpt lat="38.12544" lon="-4.92066333">
        <ele>481.0</ele>
        <time>2018-10-06T08:01:22.000Z</time>
      </trkpt>
      <trkpt lat="38.12544" lon="-4.92066333">
        <ele>481.0</ele>
        <time>2018-10-06T08:01:23.000Z</time>
      </trkpt>
      <trkpt lat="38.12544" lon="-4.92066333">
        <ele>481.0</ele>
        <time>2018-10-06T08:01:24.000Z</time>
      </trkpt>
      <trkpt lat="38.12544" lon="-4.92066333">
        <ele>481.0</ele>
        <time>2018-10-06T08:01:25.000Z</time>
      </trkpt>
      <trkpt lat="38.12544" lon="-4.92066333">
        <ele>481.0</ele>
        <time>2018-10-06T08:01:26.000Z</time>
      </trkpt>
      <trkpt lat="38.12544" lon="-4.92066333">
        <ele>481.0</ele>
        <time>2018-10-06T08:01:27.000Z</time>
      </trkpt>
      <trkpt lat="38.12544" lon="-4.92066333">
        <ele>481.0</ele>
        <time>2018-10-06T08:01:28.000Z</time>
      </trkpt>
      <trkpt lat="38.12544" lon="-4.92066333">
        <ele>481.0</ele>
        <time>2018-10-06T08:01:29.000Z</time>
      </trkpt>
      <trkpt lat="38.12544" lon="-4.92066333">
        <ele>481.0</ele>
        <time>2018-10-06T08:01:30.000Z</time>
      </trkpt>
      <trkpt lat="38.12544" lon="-4.92066333">
        <ele>481.0</ele>
        <time>2018-10-06T08:01:31.000Z</time>
      </trkpt>
      <trkpt lat="38.12544" lon="-4.92066333">
        <ele>481.0</ele>
        <time>2018-10-06T08:01:32.000Z</time>
      </trkpt>
      <trkpt lat="38.12544" lon="-4.92066333">
        <ele>481.0</ele>
        <time>2018-10-06T08:01:33.000Z</time>
      </trkpt>
      <trkpt lat="38.12544" lon="-4.92066333">
        <ele>481.0</ele>
        <time>2018-10-06T08:01:34.000Z</time>
      </trkpt>
      <trkpt lat="38.12544" lon="-4.92066333">
        <ele>481.0</ele>
        <time>2018-10-06T08:01:35.000Z</time>
      </trkpt>
      <trkpt lat="38.12544" lon="-4.92066333">
        <ele>481.0</ele>
        <time>2018-10-06T08:01:36.000Z</time>
      </trkpt>
      <trkpt lat="38.12544" lon="-4.92066333">
        <ele>481.0</ele>
        <time>2018-10-06T08:01:37.000Z</time>
      </trkpt>
      <trkpt lat="38.12544" lon="-4.92066333">
        <ele>481.0</ele>
        <time>2018-10-06T08:01:38.000Z</time>
      </trkpt>
      <trkpt lat="38.12517167" lon="-4.92071">
        <ele>487.0</ele>
        <time>2018-10-06T08:01:39.000Z</time>
      </trkpt>
      <trkpt lat="38.125165" lon="-4.92071">
        <ele>488.0</ele>
        <time>2018-10-06T08:01:40.000Z</time>
      </trkpt>
      <trkpt lat="38.12515833" lon="-4.92070333">
        <ele>489.0</ele>
        <time>2018-10-06T08:01:41.000Z</time>
      </trkpt>
      <trkpt lat="38.125145" lon="-4.92069833">
        <ele>489.0</ele>
        <time>2018-10-06T08:01:42.000Z</time>
      </trkpt>
      <trkpt lat="38.12513667" lon="-4.92069">
        <ele>489.0</ele>
        <time>2018-10-06T08:01:43.000Z</time>
      </trkpt>
      <trkpt lat="38.12512833" lon="-4.920685">
        <ele>490.0</ele>
        <time>2018-10-06T08:01:44.000Z</time>
      </trkpt>
      <trkpt lat="38.12512" lon="-4.92068333">
        <ele>490.0</ele>
        <time>2018-10-06T08:01:45.000Z</time>
      </trkpt>
      <trkpt lat="38.12511167" lon="-4.92068167">
        <ele>491.0</ele>
        <time>2018-10-06T08:01:46.000Z</time>
      </trkpt>
      <trkpt lat="38.12511" lon="-4.92067833">
        <ele>491.0</ele>
        <time>2018-10-06T08:01:47.000Z</time>
      </trkpt>
      <trkpt lat="38.12510667" lon="-4.920675">
        <ele>491.0</ele>
        <time>2018-10-06T08:01:48.000Z</time>
      </trkpt>
      <trkpt lat="38.12510333" lon="-4.92067167">
        <ele>492.0</ele>
        <time>2018-10-06T08:01:49.000Z</time>
      </trkpt>
      <trkpt lat="38.12510167" lon="-4.92066833">
        <ele>492.0</ele>
        <time>2018-10-06T08:01:50.000Z</time>
      </trkpt>
      <trkpt lat="38.12510167" lon="-4.92066833">
        <ele>492.0</ele>
        <time>2018-10-06T08:01:51.000Z</time>
      </trkpt>
      <trkpt lat="38.12510167" lon="-4.92066833">
        <ele>492.0</ele>
        <time>2018-10-06T08:01:52.000Z</time>
      </trkpt>
      <trkpt lat="38.12510167" lon="-4.92066833">
        <ele>492.0</ele>
        <time>2018-10-06T08:01:53.000Z</time>
      </trkpt>
      <trkpt lat="38.12510167" lon="-4.92066833">
        <ele>492.0</ele>
        <time>2018-10-06T08:01:54.000Z</time>
      </trkpt>
      <trkpt lat="38.12510167" lon="-4.92066833">
        <ele>492.0</ele>
        <time>2018-10-06T08:01:55.000Z</time>
      </trkpt>
      <trkpt lat="38.12510167" lon="-4.92066833">
        <ele>492.0</ele>
        <time>2018-10-06T08:01:56.000Z</time>
      </trkpt>
      <trkpt lat="38.12510167" lon="-4.92066833">
        <ele>492.0</ele>
        <time>2018-10-06T08:01:57.000Z</time>
      </trkpt>
      <trkpt lat="38.12510167" lon="-4.92066833">
        <ele>492.0</ele>
        <time>2018-10-06T08:01:58.000Z</time>
      </trkpt>
      <trkpt lat="38.12510167" lon="-4.92066833">
        <ele>492.0</ele>
        <time>2018-10-06T08:01:59.000Z</time>
      </trkpt>
      <trkpt lat="38.12510167" lon="-4.92066833">
        <ele>492.0</ele>
        <time>2018-10-06T08:02:00.000Z</time>
      </trkpt>
      <trkpt lat="38.12510167" lon="-4.92066833">
        <ele>492.0</ele>
        <time>2018-10-06T08:02:01.000Z</time>
      </trkpt>
      <trkpt lat="38.12510167" lon="-4.92066833">
        <ele>492.0</ele>
        <time>2018-10-06T08:02:02.000Z</time>
      </trkpt>
      <trkpt lat="38.12510167" lon="-4.92066833">
        <ele>492.0</ele>
        <time>2018-10-06T08:02:03.000Z</time>
      </trkpt>
      <trkpt lat="38.12510167" lon="-4.92066833">
        <ele>492.0</ele>
        <time>2018-10-06T08:02:04.000Z</time>
      </trkpt>
      <trkpt lat="38.12510167" lon="-4.92066833">
        <ele>492.0</ele>
        <time>2018-10-06T08:02:05.000Z</time>
      </trkpt>
      <trkpt lat="38.12510167" lon="-4.92066833">
        <ele>492.0</ele>
        <time>2018-10-06T08:02:06.000Z</time>
      </trkpt>
      <trkpt lat="38.12510167" lon="-4.92066833">
        <ele>492.0</ele>
        <time>2018-10-06T08:02:07.000Z</time>
      </trkpt>
      <trkpt lat="38.12510167" lon="-4.92066833">
        <ele>492.0</ele>
        <time>2018-10-06T08:02:08.000Z</time>
      </trkpt>
      <trkpt lat="38.12510167" lon="-4.92066833">
        <ele>492.0</ele>
        <time>2018-10-06T08:02:09.000Z</time>
      </trkpt>
      <trkpt lat="38.12510167" lon="-4.92066833">
        <ele>492.0</ele>
        <time>2018-10-06T08:02:10.000Z</time>
      </trkpt>
      <trkpt lat="38.12510167" lon="-4.92066833">
        <ele>492.0</ele>
        <time>2018-10-06T08:02:11.000Z</time>
      </trkpt>
      <trkpt lat="38.12510167" lon="-4.92066833">
        <ele>492.0</ele>
        <time>2018-10-06T08:02:12.000Z</time>
      </trkpt>
      <trkpt lat="38.12510167" lon="-4.92066833">
        <ele>492.0</ele>
        <time>2018-10-06T08:02:13.000Z</time>
      </trkpt>
      <trkpt lat="38.12510167" lon="-4.92066833">
        <ele>492.0</ele>
        <time>2018-10-06T08:02:14.000Z</time>
      </trkpt>
      <trkpt lat="38.12510167" lon="-4.92066833">
        <ele>492.0</ele>
        <time>2018-10-06T08:02:15.000Z</time>
      </trkpt>
      <trkpt lat="38.12510167" lon="-4.92066833">
        <ele>492.0</ele>
        <time>2018-10-06T08:02:16.000Z</time>
      </trkpt>
      <trkpt lat="38.12510167" lon="-4.92066833">
        <ele>492.0</ele>
        <time>2018-10-06T08:02:17.000Z</time>
      </trkpt>
      <trkpt lat="38.12510167" lon="-4.92066833">
        <ele>492.0</ele>
        <time>2018-10-06T08:02:18.000Z</time>
      </trkpt>
      <trkpt lat="38.12510167" lon="-4.92066833">
        <ele>492.0</ele>
        <time>2018-10-06T08:02:19.000Z</time>
      </trkpt>
      <trkpt lat="38.12510167" lon="-4.92066833">
        <ele>492.0</ele>
        <time>2018-10-06T08:02:20.000Z</time>
      </trkpt>
      <trkpt lat="38.12510167" lon="-4.92066833">
        <ele>492.0</ele>
        <time>2018-10-06T08:02:21.000Z</time>
      </trkpt>
      <trkpt lat="38.12510167" lon="-4.92066833">
        <ele>492.0</ele>
        <time>2018-10-06T08:02:22.000Z</time>
      </trkpt>
      <trkpt lat="38.12510167" lon="-4.92066833">
        <ele>492.0</ele>
        <time>2018-10-06T08:02:23.000Z</time>
      </trkpt>
      <trkpt lat="38.12510167" lon="-4.92066833">
        <ele>492.0</ele>
        <time>2018-10-06T08:02:24.000Z</time>
      </trkpt>
      <trkpt lat="38.12510167" lon="-4.92066833">
        <ele>492.0</ele>
        <time>2018-10-06T08:02:25.000Z</time>
      </trkpt>
      <trkpt lat="38.12510167" lon="-4.92066833">
        <ele>492.0</ele>
        <time>2018-10-06T08:02:26.000Z</time>
      </trkpt>
      <trkpt lat="38.12510167" lon="-4.92066833">
        <ele>492.0</ele>
        <time>2018-10-06T08:02:27.000Z</time>
      </trkpt>
      <trkpt lat="38.12510167" lon="-4.92066833">
        <ele>492.0</ele>
        <time>2018-10-06T08:02:28.000Z</time>
      </trkpt>
      <trkpt lat="38.12510167" lon="-4.92066833">
        <ele>492.0</ele>
        <time>2018-10-06T08:02:29.000Z</time>
      </trkpt>
      <trkpt lat="38.12510167" lon="-4.92066833">
        <ele>492.0</ele>
        <time>2018-10-06T08:02:30.000Z</time>
      </trkpt>
      <trkpt lat="38.12510167" lon="-4.92066833">
        <ele>492.0</ele>
        <time>2018-10-06T08:02:31.000Z</time>
      </trkpt>
      <trkpt lat="38.12510167" lon="-4.92066833">
        <ele>492.0</ele>
        <time>2018-10-06T08:02:32.000Z</time>
      </trkpt>
      <trkpt lat="38.12510167" lon="-4.92066833">
        <ele>492.0</ele>
        <time>2018-10-06T08:02:33.000Z</time>
      </trkpt>
      <trkpt lat="38.12510167" lon="-4.92066833">
        <ele>492.0</ele>
        <time>2018-10-06T08:02:34.000Z</time>
      </trkpt>
      <trkpt lat="38.12510167" lon="-4.92066833">
        <ele>492.0</ele>
        <time>2018-10-06T08:02:35.000Z</time>
      </trkpt>
      <trkpt lat="38.12510167" lon="-4.92066833">
        <ele>492.0</ele>
        <time>2018-10-06T08:02:36.000Z</time>
      </trkpt>
      <trkpt lat="38.12510167" lon="-4.92066833">
        <ele>492.0</ele>
        <time>2018-10-06T08:02:37.000Z</time>
      </trkpt>
      <trkpt lat="38.12510167" lon="-4.92066833">
        <ele>492.0</ele>
        <time>2018-10-06T08:02:38.000Z</time>
      </trkpt>
      <trkpt lat="38.12510167" lon="-4.92066833">
        <ele>492.0</ele>
        <time>2018-10-06T08:02:39.000Z</time>
      </trkpt>
      <trkpt lat="38.12506167" lon="-4.9207">
        <ele>495.0</ele>
        <time>2018-10-06T08:02:40.000Z</time>
      </trkpt>
      <trkpt lat="38.12503" lon="-4.920745">
        <ele>493.0</ele>
        <time>2018-10-06T08:02:41.000Z</time>
      </trkpt>
      <trkpt lat="38.12498167" lon="-4.92078">
        <ele>493.0</ele>
        <time>2018-10-06T08:02:42.000Z</time>
      </trkpt>
      <trkpt lat="38.12497667" lon="-4.92078833">
        <ele>493.0</ele>
        <time>2018-10-06T08:02:43.000Z</time>
      </trkpt>
      <trkpt lat="38.12497667" lon="-4.920795">
        <ele>494.0</ele>
        <time>2018-10-06T08:02:44.000Z</time>
      </trkpt>
      <trkpt lat="38.124975" lon="-4.9208">
        <ele>495.0</ele>
        <time>2018-10-06T08:02:45.000Z</time>
      </trkpt>
      <trkpt lat="38.12497667" lon="-4.92080667">
        <ele>496.0</ele>
        <time>2018-10-06T08:02:46.000Z</time>
      </trkpt>
      <trkpt lat="38.124975" lon="-4.92081667">
        <ele>496.0</ele>
        <time>2018-10-06T08:02:47.000Z</time>
      </trkpt>
      <trkpt lat="38.12497833" lon="-4.92082833">
        <ele>496.0</ele>
        <time>2018-10-06T08:02:48.000Z</time>
      </trkpt>
      <trkpt lat="38.12498167" lon="-4.92084167">
        <ele>497.0</ele>
        <time>2018-10-06T08:02:49.000Z</time>
      </trkpt>
      <trkpt lat="38.12498333" lon="-4.92085333">
        <ele>497.0</ele>
        <time>2018-10-06T08:02:50.000Z</time>
      </trkpt>
      <trkpt lat="38.12498667" lon="-4.92086167">
        <ele>498.0</ele>
        <time>2018-10-06T08:02:51.000Z</time>
      </trkpt>
      <trkpt lat="38.12498667" lon="-4.92086167">
        <ele>498.0</ele>
        <time>2018-10-06T08:02:52.000Z</time>
      </trkpt>
      <trkpt lat="38.12498667" lon="-4.92086167">
        <ele>498.0</ele>
        <time>2018-10-06T08:02:53.000Z</time>
      </trkpt>
      <trkpt lat="38.12498667" lon="-4.92086167">
        <ele>498.0</ele>
        <time>2018-10-06T08:02:54.000Z</time>
      </trkpt>
      <trkpt lat="38.12498667" lon="-4.92086167">
        <ele>498.0</ele>
        <time>2018-10-06T08:02:55.000Z</time>
      </trkpt>
      <trkpt lat="38.12498667" lon="-4.92086167">
        <ele>498.0</ele>
        <time>2018-10-06T08:02:56.000Z</time>
      </trkpt>
      <trkpt lat="38.12498667" lon="-4.92086167">
        <ele>498.0</ele>
        <time>2018-10-06T08:02:57.000Z</time>
      </trkpt>
      <trkpt lat="38.12498667" lon="-4.92086167">
        <ele>498.0</ele>
        <time>2018-10-06T08:02:58.000Z</time>
      </trkpt>
      <trkpt lat="38.12498667" lon="-4.92086167">
        <ele>498.0</ele>
        <time>2018-10-06T08:02:59.000Z</time>
      </trkpt>
      <trkpt lat="38.12498667" lon="-4.92086167">
        <ele>498.0</ele>
        <time>2018-10-06T08:03:00.000Z</time>
      </trkpt>
      <trkpt lat="38.12498667" lon="-4.92086167">
        <ele>498.0</ele>
        <time>2018-10-06T08:03:01.000Z</time>
      </trkpt>
      <trkpt lat="38.12498667" lon="-4.92086167">
        <ele>498.0</ele>
        <time>2018-10-06T08:03:02.000Z</time>
      </trkpt>
      <trkpt lat="38.12498667" lon="-4.92086167">
        <ele>498.0</ele>
        <time>2018-10-06T08:03:03.000Z</time>
      </trkpt>
      <trkpt lat="38.12498667" lon="-4.92086167">
        <ele>498.0</ele>
        <time>2018-10-06T08:03:04.000Z</time>
      </trkpt>
      <trkpt lat="38.12498667" lon="-4.92086167">
        <ele>498.0</ele>
        <time>2018-10-06T08:03:05.000Z</time>
      </trkpt>
      <trkpt lat="38.12498667" lon="-4.92086167">
        <ele>498.0</ele>
        <time>2018-10-06T08:03:06.000Z</time>
      </trkpt>
      <trkpt lat="38.12498667" lon="-4.92086167">
        <ele>498.0</ele>
        <time>2018-10-06T08:03:07.000Z</time>
      </trkpt>
      <trkpt lat="38.12498667" lon="-4.92086167">
        <ele>498.0</ele>
        <time>2018-10-06T08:03:08.000Z</time>
      </trkpt>
      <trkpt lat="38.12498667" lon="-4.92086167">
        <ele>498.0</ele>
        <time>2018-10-06T08:03:09.000Z</time>
      </trkpt>
      <trkpt lat="38.12498667" lon="-4.92086167">
        <ele>498.0</ele>
        <time>2018-10-06T08:03:10.000Z</time>
      </trkpt>
      <trkpt lat="38.12498667" lon="-4.92086167">
        <ele>498.0</ele>
        <time>2018-10-06T08:03:11.000Z</time>
      </trkpt>
      <trkpt lat="38.12498667" lon="-4.92086167">
        <ele>498.0</ele>
        <time>2018-10-06T08:03:12.000Z</time>
      </trkpt>
      <trkpt lat="38.12498667" lon="-4.92086167">
        <ele>498.0</ele>
        <time>2018-10-06T08:03:13.000Z</time>
      </trkpt>
      <trkpt lat="38.12498667" lon="-4.92086167">
        <ele>498.0</ele>
        <time>2018-10-06T08:03:14.000Z</time>
      </trkpt>
      <trkpt lat="38.12498667" lon="-4.92086167">
        <ele>498.0</ele>
        <time>2018-10-06T08:03:15.000Z</time>
      </trkpt>
      <trkpt lat="38.12498667" lon="-4.92086167">
        <ele>498.0</ele>
        <time>2018-10-06T08:03:16.000Z</time>
      </trkpt>
      <trkpt lat="38.12498667" lon="-4.92086167">
        <ele>498.0</ele>
        <time>2018-10-06T08:03:17.000Z</time>
      </trkpt>
      <trkpt lat="38.12498667" lon="-4.92086167">
        <ele>498.0</ele>
        <time>2018-10-06T08:03:18.000Z</time>
      </trkpt>
      <trkpt lat="38.12498667" lon="-4.92086167">
        <ele>498.0</ele>
        <time>2018-10-06T08:03:19.000Z</time>
      </trkpt>
      <trkpt lat="38.12498667" lon="-4.92086167">
        <ele>498.0</ele>
        <time>2018-10-06T08:03:20.000Z</time>
      </trkpt>
      <trkpt lat="38.12498667" lon="-4.92086167">
        <ele>498.0</ele>
        <time>2018-10-06T08:03:21.000Z</time>
      </trkpt>
      <trkpt lat="38.12498667" lon="-4.92086167">
        <ele>498.0</ele>
        <time>2018-10-06T08:03:22.000Z</time>
      </trkpt>
      <trkpt lat="38.12498667" lon="-4.92086167">
        <ele>498.0</ele>
        <time>2018-10-06T08:03:23.000Z</time>
      </trkpt>
      <trkpt lat="38.12498667" lon="-4.92086167">
        <ele>498.0</ele>
        <time>2018-10-06T08:03:24.000Z</time>
      </trkpt>
      <trkpt lat="38.12498667" lon="-4.92086167">
        <ele>498.0</ele>
        <time>2018-10-06T08:03:25.000Z</time>
      </trkpt>
      <trkpt lat="38.12498667" lon="-4.92086167">
        <ele>498.0</ele>
        <time>2018-10-06T08:03:26.000Z</time>
      </trkpt>
      <trkpt lat="38.12498667" lon="-4.92086167">
        <ele>498.0</ele>
        <time>2018-10-06T08:03:27.000Z</time>
      </trkpt>
      <trkpt lat="38.12498667" lon="-4.92086167">
        <ele>498.0</ele>
        <time>2018-10-06T08:03:28.000Z</time>
      </trkpt>
      <trkpt lat="38.12498667" lon="-4.92086167">
        <ele>498.0</ele>
        <time>2018-10-06T08:03:29.000Z</time>
      </trkpt>
      <trkpt lat="38.12498667" lon="-4.92086167">
        <ele>498.0</ele>
        <time>2018-10-06T08:03:30.000Z</time>
      </trkpt>
      <trkpt lat="38.12498667" lon="-4.92086167">
        <ele>498.0</ele>
        <time>2018-10-06T08:03:31.000Z</time>
      </trkpt>
      <trkpt lat="38.12498667" lon="-4.92086167">
        <ele>498.0</ele>
        <time>2018-10-06T08:03:32.000Z</time>
      </trkpt>
      <trkpt lat="38.12498667" lon="-4.92086167">
        <ele>498.0</ele>
        <time>2018-10-06T08:03:33.000Z</time>
      </trkpt>
      <trkpt lat="38.12498667" lon="-4.92086167">
        <ele>498.0</ele>
        <time>2018-10-06T08:03:34.000Z</time>
      </trkpt>
      <trkpt lat="38.12498667" lon="-4.92086167">
        <ele>498.0</ele>
        <time>2018-10-06T08:03:35.000Z</time>
      </trkpt>
      <trkpt lat="38.12498667" lon="-4.92086167">
        <ele>498.0</ele>
        <time>2018-10-06T08:03:36.000Z</time>
      </trkpt>
      <trkpt lat="38.12498667" lon="-4.92086167">
        <ele>498.0</ele>
        <time>2018-10-06T08:03:37.000Z</time>
      </trkpt>
      <trkpt lat="38.12498667" lon="-4.92086167">
        <ele>498.0</ele>
        <time>2018-10-06T08:03:38.000Z</time>
      </trkpt>
      <trkpt lat="38.12498667" lon="-4.92086167">
        <ele>498.0</ele>
        <time>2018-10-06T08:03:39.000Z</time>
      </trkpt>
      <trkpt lat="38.12522" lon="-4.92112167">
        <ele>489.0</ele>
        <time>2018-10-06T08:03:40.000Z</time>
      </trkpt>
      <trkpt lat="38.12524" lon="-4.921285">
        <ele>500.0</ele>
        <time>2018-10-06T08:03:41.000Z</time>
      </trkpt>
      <trkpt lat="38.12524167" lon="-4.92130333">
        <ele>501.0</ele>
        <time>2018-10-06T08:03:42.000Z</time>
      </trkpt>
      <trkpt lat="38.12524667" lon="-4.92131667">
        <ele>502.0</ele>
        <time>2018-10-06T08:03:43.000Z</time>
      </trkpt>
      <trkpt lat="38.12525333" lon="-4.92132833">
        <ele>502.0</ele>
        <time>2018-10-06T08:03:44.000Z</time>
      </trkpt>
      <trkpt lat="38.12526" lon="-4.92134167">
        <ele>503.0</ele>
        <time>2018-10-06T08:03:45.000Z</time>
      </trkpt>
      <trkpt lat="38.125265" lon="-4.92135167">
        <ele>503.0</ele>
        <time>2018-10-06T08:03:46.000Z</time>
      </trkpt>
      <trkpt lat="38.12527" lon="-4.92136">
        <ele>504.0</ele>
        <time>2018-10-06T08:03:47.000Z</time>
      </trkpt>
      <trkpt lat="38.125275" lon="-4.92136167">
        <ele>504.0</ele>
        <time>2018-10-06T08:03:48.000Z</time>
      </trkpt>
      <trkpt lat="38.12527833" lon="-4.92136333">
        <ele>504.0</ele>
        <time>2018-10-06T08:03:49.000Z</time>
      </trkpt>
      <trkpt lat="38.12528" lon="-4.92136333">
        <ele>504.0</ele>
        <time>2018-10-06T08:03:50.000Z</time>
      </trkpt>
      <trkpt lat="38.12528167" lon="-4.921365">
        <ele>504.0</ele>
        <time>2018-10-06T08:03:51.000Z</time>
      </trkpt>
      <trkpt lat="38.12528167" lon="-4.921365">
        <ele>504.0</ele>
        <time>2018-10-06T08:03:52.000Z</time>
      </trkpt>
      <trkpt lat="38.12528167" lon="-4.921365">
        <ele>504.0</ele>
        <time>2018-10-06T08:03:53.000Z</time>
      </trkpt>
      <trkpt lat="38.12528167" lon="-4.921365">
        <ele>504.0</ele>
        <time>2018-10-06T08:03:54.000Z</time>
      </trkpt>
      <trkpt lat="38.12528167" lon="-4.921365">
        <ele>504.0</ele>
        <time>2018-10-06T08:03:55.000Z</time>
      </trkpt>
      <trkpt lat="38.12528167" lon="-4.921365">
        <ele>504.0</ele>
        <time>2018-10-06T08:03:56.000Z</time>
      </trkpt>
      <trkpt lat="38.12528167" lon="-4.921365">
        <ele>504.0</ele>
        <time>2018-10-06T08:03:57.000Z</time>
      </trkpt>
      <trkpt lat="38.12528167" lon="-4.921365">
        <ele>504.0</ele>
        <time>2018-10-06T08:03:58.000Z</time>
      </trkpt>
      <trkpt lat="38.12528167" lon="-4.921365">
        <ele>504.0</ele>
        <time>2018-10-06T08:03:59.000Z</time>
      </trkpt>
      <trkpt lat="38.12528167" lon="-4.921365">
        <ele>504.0</ele>
        <time>2018-10-06T08:04:00.000Z</time>
      </trkpt>
      <trkpt lat="38.12528167" lon="-4.921365">
        <ele>504.0</ele>
        <time>2018-10-06T08:04:01.000Z</time>
      </trkpt>
      <trkpt lat="38.12528167" lon="-4.921365">
        <ele>504.0</ele>
        <time>2018-10-06T08:04:02.000Z</time>
      </trkpt>
      <trkpt lat="38.12528167" lon="-4.921365">
        <ele>504.0</ele>
        <time>2018-10-06T08:04:03.000Z</time>
      </trkpt>
      <trkpt lat="38.12528167" lon="-4.921365">
        <ele>504.0</ele>
        <time>2018-10-06T08:04:04.000Z</time>
      </trkpt>
      <trkpt lat="38.12528167" lon="-4.921365">
        <ele>504.0</ele>
        <time>2018-10-06T08:04:05.000Z</time>
      </trkpt>
      <trkpt lat="38.12528167" lon="-4.921365">
        <ele>504.0</ele>
        <time>2018-10-06T08:04:06.000Z</time>
      </trkpt>
      <trkpt lat="38.12528167" lon="-4.921365">
        <ele>504.0</ele>
        <time>2018-10-06T08:04:07.000Z</time>
      </trkpt>
      <trkpt lat="38.12528167" lon="-4.921365">
        <ele>504.0</ele>
        <time>2018-10-06T08:04:08.000Z</time>
      </trkpt>
      <trkpt lat="38.12528167" lon="-4.921365">
        <ele>504.0</ele>
        <time>2018-10-06T08:04:09.000Z</time>
      </trkpt>
      <trkpt lat="38.12528167" lon="-4.921365">
        <ele>504.0</ele>
        <time>2018-10-06T08:04:10.000Z</time>
      </trkpt>
      <trkpt lat="38.12528167" lon="-4.921365">
        <ele>504.0</ele>
        <time>2018-10-06T08:04:11.000Z</time>
      </trkpt>
      <trkpt lat="38.12528167" lon="-4.921365">
        <ele>504.0</ele>
        <time>2018-10-06T08:04:12.000Z</time>
      </trkpt>
      <trkpt lat="38.12528167" lon="-4.921365">
        <ele>504.0</ele>
        <time>2018-10-06T08:04:13.000Z</time>
      </trkpt>
      <trkpt lat="38.12528167" lon="-4.921365">
        <ele>504.0</ele>
        <time>2018-10-06T08:04:14.000Z</time>
      </trkpt>
      <trkpt lat="38.12528167" lon="-4.921365">
        <ele>504.0</ele>
        <time>2018-10-06T08:04:15.000Z</time>
      </trkpt>
      <trkpt lat="38.12528167" lon="-4.921365">
        <ele>504.0</ele>
        <time>2018-10-06T08:04:16.000Z</time>
      </trkpt>
      <trkpt lat="38.12528167" lon="-4.921365">
        <ele>504.0</ele>
        <time>2018-10-06T08:04:17.000Z</time>
      </trkpt>
      <trkpt lat="38.12528167" lon="-4.921365">
        <ele>504.0</ele>
        <time>2018-10-06T08:04:18.000Z</time>
      </trkpt>
      <trkpt lat="38.12528167" lon="-4.921365">
        <ele>504.0</ele>
        <time>2018-10-06T08:04:19.000Z</time>
      </trkpt>
      <trkpt lat="38.12528167" lon="-4.921365">
        <ele>504.0</ele>
        <time>2018-10-06T08:04:20.000Z</time>
      </trkpt>
      <trkpt lat="38.12528167" lon="-4.921365">
        <ele>504.0</ele>
        <time>2018-10-06T08:04:21.000Z</time>
      </trkpt>
      <trkpt lat="38.12528167" lon="-4.921365">
        <ele>504.0</ele>
        <time>2018-10-06T08:04:22.000Z</time>
      </trkpt>
      <trkpt lat="38.12528167" lon="-4.921365">
        <ele>504.0</ele>
        <time>2018-10-06T08:04:23.000Z</time>
      </trkpt>
      <trkpt lat="38.12528167" lon="-4.921365">
        <ele>504.0</ele>
        <time>2018-10-06T08:04:24.000Z</time>
      </trkpt>
      <trkpt lat="38.12528167" lon="-4.921365">
        <ele>504.0</ele>
        <time>2018-10-06T08:04:25.000Z</time>
      </trkpt>
      <trkpt lat="38.12528167" lon="-4.921365">
        <ele>504.0</ele>
        <time>2018-10-06T08:04:26.000Z</time>
      </trkpt>
      <trkpt lat="38.12528167" lon="-4.921365">
        <ele>504.0</ele>
        <time>2018-10-06T08:04:27.000Z</time>
      </trkpt>
      <trkpt lat="38.12528167" lon="-4.921365">
        <ele>504.0</ele>
        <time>2018-10-06T08:04:28.000Z</time>
      </trkpt>
      <trkpt lat="38.12528167" lon="-4.921365">
        <ele>504.0</ele>
        <time>2018-10-06T08:04:29.000Z</time>
      </trkpt>
      <trkpt lat="38.12528167" lon="-4.921365">
        <ele>504.0</ele>
        <time>2018-10-06T08:04:30.000Z</time>
      </trkpt>
      <trkpt lat="38.12528167" lon="-4.921365">
        <ele>504.0</ele>
        <time>2018-10-06T08:04:31.000Z</time>
      </trkpt>
      <trkpt lat="38.12528167" lon="-4.921365">
        <ele>504.0</ele>
        <time>2018-10-06T08:04:32.000Z</time>
      </trkpt>
      <trkpt lat="38.12528167" lon="-4.921365">
        <ele>504.0</ele>
        <time>2018-10-06T08:04:33.000Z</time>
      </trkpt>
      <trkpt lat="38.12528167" lon="-4.921365">
        <ele>504.0</ele>
        <time>2018-10-06T08:04:34.000Z</time>
      </trkpt>
      <trkpt lat="38.12528167" lon="-4.921365">
        <ele>504.0</ele>
        <time>2018-10-06T08:04:35.000Z</time>
      </trkpt>
      <trkpt lat="38.12528167" lon="-4.921365">
        <ele>504.0</ele>
        <time>2018-10-06T08:04:36.000Z</time>
      </trkpt>
      <trkpt lat="38.12528167" lon="-4.921365">
        <ele>504.0</ele>
        <time>2018-10-06T08:04:37.000Z</time>
      </trkpt>
      <trkpt lat="38.12528167" lon="-4.921365">
        <ele>504.0</ele>
        <time>2018-10-06T08:04:38.000Z</time>
      </trkpt>
      <trkpt lat="38.12528167" lon="-4.921365">
        <ele>504.0</ele>
        <time>2018-10-06T08:04:39.000Z</time>
      </trkpt>
      <trkpt lat="38.12524833" lon="-4.92134833">
        <ele>506.0</ele>
        <time>2018-10-06T08:04:40.000Z</time>
      </trkpt>
      <trkpt lat="38.12525167" lon="-4.92135333">
        <ele>505.0</ele>
        <time>2018-10-06T08:04:41.000Z</time>
      </trkpt>
      <trkpt lat="38.125255" lon="-4.92135333">
        <ele>505.0</ele>
        <time>2018-10-06T08:04:42.000Z</time>
      </trkpt>
      <trkpt lat="38.12525667" lon="-4.92135167">
        <ele>505.0</ele>
        <time>2018-10-06T08:04:43.000Z</time>
      </trkpt>
      <trkpt lat="38.12525667" lon="-4.921355">
        <ele>505.0</ele>
        <time>2018-10-06T08:04:44.000Z</time>
      </trkpt>
      <trkpt lat="38.12525833" lon="-4.92135333">
        <ele>505.0</ele>
        <time>2018-10-06T08:04:45.000Z</time>
      </trkpt>
      <trkpt lat="38.12525667" lon="-4.921355">
        <ele>505.0</ele>
        <time>2018-10-06T08:04:46.000Z</time>
      </trkpt>
      <trkpt lat="38.12525667" lon="-4.92136167">
        <ele>505.0</ele>
        <time>2018-10-06T08:04:47.000Z</time>
      </trkpt>
      <trkpt lat="38.125255" lon="-4.92136667">
        <ele>505.0</ele>
        <time>2018-10-06T08:04:48.000Z</time>
      </trkpt>
      <trkpt lat="38.12525333" lon="-4.92137333">
        <ele>505.0</ele>
        <time>2018-10-06T08:04:49.000Z</time>
      </trkpt>
      <trkpt lat="38.12525" lon="-4.92138167">
        <ele>505.0</ele>
        <time>2018-10-06T08:04:50.000Z</time>
      </trkpt>
      <trkpt lat="38.12524667" lon="-4.92138833">
        <ele>505.0</ele>
        <time>2018-10-06T08:04:51.000Z</time>
      </trkpt>
      <trkpt lat="38.125245" lon="-4.921395">
        <ele>505.0</ele>
        <time>2018-10-06T08:04:52.000Z</time>
      </trkpt>
      <trkpt lat="38.12524167" lon="-4.92140167">
        <ele>505.0</ele>
        <time>2018-10-06T08:04:53.000Z</time>
      </trkpt>
      <trkpt lat="38.12523833" lon="-4.92140667">
        <ele>505.0</ele>
        <time>2018-10-06T08:04:54.000Z</time>
      </trkpt>
      <trkpt lat="38.12523333" lon="-4.92141333">
        <ele>505.0</ele>
        <time>2018-10-06T08:04:55.000Z</time>
      </trkpt>
      <trkpt lat="38.12522833" lon="-4.92141833">
        <ele>505.0</ele>
        <time>2018-10-06T08:04:56.000Z</time>
      </trkpt>
      <trkpt lat="38.12522333" lon="-4.92142333">
        <ele>505.0</ele>
        <time>2018-10-06T08:04:57.000Z</time>
      </trkpt>
      <trkpt lat="38.12521833" lon="-4.92142667">
        <ele>505.0</ele>
        <time>2018-10-06T08:04:58.000Z</time>
      </trkpt>
      <trkpt lat="38.12521167" lon="-4.92143">
        <ele>505.0</ele>
        <time>2018-10-06T08:04:59.000Z</time>
      </trkpt>
      <trkpt lat="38.12520667" lon="-4.92143167">
        <ele>506.0</ele>
        <time>2018-10-06T08:05:00.000Z</time>
      </trkpt>
      <trkpt lat="38.1252" lon="-4.92143167">
        <ele>506.0</ele>
        <time>2018-10-06T08:05:01.000Z</time>
      </trkpt>
      <trkpt lat="38.125195" lon="-4.92143167">
        <ele>506.0</ele>
        <time>2018-10-06T08:05:02.000Z</time>
      </trkpt>
      <trkpt lat="38.12518833" lon="-4.92143167">
        <ele>506.0</ele>
        <time>2018-10-06T08:05:03.000Z</time>
      </trkpt>
      <trkpt lat="38.12518167" lon="-4.92143">
        <ele>507.0</ele>
        <time>2018-10-06T08:05:04.000Z</time>
      </trkpt>
      <trkpt lat="38.12517667" lon="-4.92142667">
        <ele>507.0</ele>
        <time>2018-10-06T08:05:05.000Z</time>
      </trkpt>
      <trkpt lat="38.12517" lon="-4.921425">
        <ele>507.0</ele>
        <time>2018-10-06T08:05:06.000Z</time>
      </trkpt>
      <trkpt lat="38.12516333" lon="-4.92142167">
        <ele>508.0</ele>
        <time>2018-10-06T08:05:07.000Z</time>
      </trkpt>
      <trkpt lat="38.12515667" lon="-4.92142">
        <ele>508.0</ele>
        <time>2018-10-06T08:05:08.000Z</time>
      </trkpt>
      <trkpt lat="38.12514833" lon="-4.92141833">
        <ele>508.0</ele>
        <time>2018-10-06T08:05:09.000Z</time>
      </trkpt>
      <trkpt lat="38.12514333" lon="-4.921415">
        <ele>508.0</ele>
        <time>2018-10-06T08:05:10.000Z</time>
      </trkpt>
      <trkpt lat="38.12513333" lon="-4.92141">
        <ele>509.0</ele>
        <time>2018-10-06T08:05:11.000Z</time>
      </trkpt>
      <trkpt lat="38.125125" lon="-4.92140667">
        <ele>509.0</ele>
        <time>2018-10-06T08:05:12.000Z</time>
      </trkpt>
      <trkpt lat="38.12512" lon="-4.92140333">
        <ele>509.0</ele>
        <time>2018-10-06T08:05:13.000Z</time>
      </trkpt>
      <trkpt lat="38.12511333" lon="-4.9214">
        <ele>509.0</ele>
        <time>2018-10-06T08:05:14.000Z</time>
      </trkpt>
      <trkpt lat="38.12510667" lon="-4.92139667">
        <ele>509.0</ele>
        <time>2018-10-06T08:05:15.000Z</time>
      </trkpt>
      <trkpt lat="38.1251" lon="-4.921395">
        <ele>509.0</ele>
        <time>2018-10-06T08:05:16.000Z</time>
      </trkpt>
      <trkpt lat="38.125095" lon="-4.92139167">
        <ele>509.0</ele>
        <time>2018-10-06T08:05:17.000Z</time>
      </trkpt>
      <trkpt lat="38.12509" lon="-4.92138833">
        <ele>509.0</ele>
        <time>2018-10-06T08:05:18.000Z</time>
      </trkpt>
      <trkpt lat="38.12508333" lon="-4.921385">
        <ele>509.0</ele>
        <time>2018-10-06T08:05:19.000Z</time>
      </trkpt>
      <trkpt lat="38.12507667" lon="-4.92138333">
        <ele>509.0</ele>
        <time>2018-10-06T08:05:20.000Z</time>
      </trkpt>
      <trkpt lat="38.12507167" lon="-4.92138167">
        <ele>509.0</ele>
        <time>2018-10-06T08:05:21.000Z</time>
      </trkpt>
      <trkpt lat="38.125065" lon="-4.92138">
        <ele>509.0</ele>
        <time>2018-10-06T08:05:22.000Z</time>
      </trkpt>
      <trkpt lat="38.12506167" lon="-4.92137667">
        <ele>509.0</ele>
        <time>2018-10-06T08:05:23.000Z</time>
      </trkpt>
      <trkpt lat="38.12505667" lon="-4.921375">
        <ele>510.0</ele>
        <time>2018-10-06T08:05:24.000Z</time>
      </trkpt>
      <trkpt lat="38.12505" lon="-4.92137333">
        <ele>510.0</ele>
        <time>2018-10-06T08:05:25.000Z</time>
      </trkpt>
      <trkpt lat="38.12504167" lon="-4.92136833">
        <ele>510.0</ele>
        <time>2018-10-06T08:05:26.000Z</time>
      </trkpt>
      <trkpt lat="38.125035" lon="-4.92136333">
        <ele>510.0</ele>
        <time>2018-10-06T08:05:27.000Z</time>
      </trkpt>
      <trkpt lat="38.12503" lon="-4.92136">
        <ele>510.0</ele>
        <time>2018-10-06T08:05:28.000Z</time>
      </trkpt>
      <trkpt lat="38.12502167" lon="-4.92135667">
        <ele>510.0</ele>
        <time>2018-10-06T08:05:29.000Z</time>
      </trkpt>
      <trkpt lat="38.12501167" lon="-4.92135667">
        <ele>510.0</ele>
        <time>2018-10-06T08:05:30.000Z</time>
      </trkpt>
      <trkpt lat="38.12500667" lon="-4.921355">
        <ele>510.0</ele>
        <time>2018-10-06T08:05:31.000Z</time>
      </trkpt>
      <trkpt lat="38.12500167" lon="-4.92135333">
        <ele>510.0</ele>
        <time>2018-10-06T08:05:32.000Z</time>
      </trkpt>
      <trkpt lat="38.124995" lon="-4.92135167">
        <ele>510.0</ele>
        <time>2018-10-06T08:05:33.000Z</time>
      </trkpt>
      <trkpt lat="38.12499" lon="-4.92135167">
        <ele>511.0</ele>
        <time>2018-10-06T08:05:34.000Z</time>
      </trkpt>
      <trkpt lat="38.12498333" lon="-4.92134833">
        <ele>511.0</ele>
        <time>2018-10-06T08:05:35.000Z</time>
      </trkpt>
      <trkpt lat="38.12497833" lon="-4.92134667">
        <ele>511.0</ele>
        <time>2018-10-06T08:05:36.000Z</time>
      </trkpt>
      <trkpt lat="38.12497167" lon="-4.92134333">
        <ele>511.0</ele>
        <time>2018-10-06T08:05:37.000Z</time>
      </trkpt>
      <trkpt lat="38.12496667" lon="-4.92134">
        <ele>511.0</ele>
        <time>2018-10-06T08:05:38.000Z</time>
      </trkpt>
      <trkpt lat="38.12495833" lon="-4.921335">
        <ele>511.0</ele>
        <time>2018-10-06T08:05:39.000Z</time>
      </trkpt>
      <trkpt lat="38.124955" lon="-4.92133333">
        <ele>511.0</ele>
        <time>2018-10-06T08:05:40.000Z</time>
      </trkpt>
      <trkpt lat="38.12495167" lon="-4.92133167">
        <ele>511.0</ele>
        <time>2018-10-06T08:05:41.000Z</time>
      </trkpt>
      <trkpt lat="38.12495" lon="-4.92133">
        <ele>511.0</ele>
        <time>2018-10-06T08:05:42.000Z</time>
      </trkpt>
      <trkpt lat="38.12494833" lon="-4.92133167">
        <ele>511.0</ele>
        <time>2018-10-06T08:05:43.000Z</time>
      </trkpt>
      <trkpt lat="38.12494333" lon="-4.92133">
        <ele>511.0</ele>
        <time>2018-10-06T08:05:44.000Z</time>
      </trkpt>
      <trkpt lat="38.124935" lon="-4.92133">
        <ele>511.0</ele>
        <time>2018-10-06T08:05:45.000Z</time>
      </trkpt>
      <trkpt lat="38.124935" lon="-4.92133">
        <ele>511.0</ele>
        <time>2018-10-06T08:05:46.000Z</time>
      </trkpt>
      <trkpt lat="38.124935" lon="-4.92133">
        <ele>511.0</ele>
        <time>2018-10-06T08:05:47.000Z</time>
      </trkpt>
      <trkpt lat="38.124935" lon="-4.92133">
        <ele>511.0</ele>
        <time>2018-10-06T08:05:48.000Z</time>
      </trkpt>
      <trkpt lat="38.124935" lon="-4.92133">
        <ele>511.0</ele>
        <time>2018-10-06T08:05:49.000Z</time>
      </trkpt>
      <trkpt lat="38.124935" lon="-4.92133">
        <ele>511.0</ele>
        <time>2018-10-06T08:05:50.000Z</time>
      </trkpt>
      <trkpt lat="38.124935" lon="-4.92133">
        <ele>511.0</ele>
        <time>2018-10-06T08:05:51.000Z</time>
      </trkpt>
      <trkpt lat="38.124935" lon="-4.92133">
        <ele>511.0</ele>
        <time>2018-10-06T08:05:52.000Z</time>
      </trkpt>
      <trkpt lat="38.124935" lon="-4.92133">
        <ele>511.0</ele>
        <time>2018-10-06T08:05:53.000Z</time>
      </trkpt>
      <trkpt lat="38.124935" lon="-4.92133">
        <ele>511.0</ele>
        <time>2018-10-06T08:05:54.000Z</time>
      </trkpt>
      <trkpt lat="38.124935" lon="-4.92133">
        <ele>511.0</ele>
        <time>2018-10-06T08:05:55.000Z</time>
      </trkpt>
      <trkpt lat="38.124935" lon="-4.92133">
        <ele>511.0</ele>
        <time>2018-10-06T08:05:56.000Z</time>
      </trkpt>
      <trkpt lat="38.124935" lon="-4.92133">
        <ele>511.0</ele>
        <time>2018-10-06T08:05:57.000Z</time>
      </trkpt>
      <trkpt lat="38.124935" lon="-4.92133">
        <ele>511.0</ele>
        <time>2018-10-06T08:05:58.000Z</time>
      </trkpt>
      <trkpt lat="38.124935" lon="-4.92133">
        <ele>511.0</ele>
        <time>2018-10-06T08:05:59.000Z</time>
      </trkpt>
      <trkpt lat="38.124935" lon="-4.92133">
        <ele>511.0</ele>
        <time>2018-10-06T08:06:00.000Z</time>
      </trkpt>
      <trkpt lat="38.124935" lon="-4.92133">
        <ele>511.0</ele>
        <time>2018-10-06T08:06:01.000Z</time>
      </trkpt>
      <trkpt lat="38.124935" lon="-4.92133">
        <ele>511.0</ele>
        <time>2018-10-06T08:06:02.000Z</time>
      </trkpt>
      <trkpt lat="38.124935" lon="-4.92133">
        <ele>511.0</ele>
        <time>2018-10-06T08:06:03.000Z</time>
      </trkpt>
      <trkpt lat="38.124935" lon="-4.92133">
        <ele>511.0</ele>
        <time>2018-10-06T08:06:04.000Z</time>
      </trkpt>
      <trkpt lat="38.124935" lon="-4.92133">
        <ele>511.0</ele>
        <time>2018-10-06T08:06:05.000Z</time>
      </trkpt>
      <trkpt lat="38.124935" lon="-4.92133">
        <ele>511.0</ele>
        <time>2018-10-06T08:06:06.000Z</time>
      </trkpt>
      <trkpt lat="38.124935" lon="-4.92133">
        <ele>511.0</ele>
        <time>2018-10-06T08:06:07.000Z</time>
      </trkpt>
      <trkpt lat="38.124935" lon="-4.92133">
        <ele>511.0</ele>
        <time>2018-10-06T08:06:08.000Z</time>
      </trkpt>
      <trkpt lat="38.124935" lon="-4.92133">
        <ele>511.0</ele>
        <time>2018-10-06T08:06:09.000Z</time>
      </trkpt>
      <trkpt lat="38.124935" lon="-4.92133">
        <ele>511.0</ele>
        <time>2018-10-06T08:06:10.000Z</time>
      </trkpt>
      <trkpt lat="38.124935" lon="-4.92133">
        <ele>511.0</ele>
        <time>2018-10-06T08:06:11.000Z</time>
      </trkpt>
      <trkpt lat="38.124935" lon="-4.92133">
        <ele>511.0</ele>
        <time>2018-10-06T08:06:12.000Z</time>
      </trkpt>
      <trkpt lat="38.124935" lon="-4.92133">
        <ele>511.0</ele>
        <time>2018-10-06T08:06:13.000Z</time>
      </trkpt>
      <trkpt lat="38.124935" lon="-4.92133">
        <ele>511.0</ele>
        <time>2018-10-06T08:06:14.000Z</time>
      </trkpt>
      <trkpt lat="38.124935" lon="-4.92133">
        <ele>511.0</ele>
        <time>2018-10-06T08:06:15.000Z</time>
      </trkpt>
      <trkpt lat="38.124935" lon="-4.92133">
        <ele>511.0</ele>
        <time>2018-10-06T08:06:16.000Z</time>
      </trkpt>
      <trkpt lat="38.124935" lon="-4.92133">
        <ele>511.0</ele>
        <time>2018-10-06T08:06:17.000Z</time>
      </trkpt>
      <trkpt lat="38.124935" lon="-4.92133">
        <ele>511.0</ele>
        <time>2018-10-06T08:06:18.000Z</time>
      </trkpt>
      <trkpt lat="38.124935" lon="-4.92133">
        <ele>511.0</ele>
        <time>2018-10-06T08:06:19.000Z</time>
      </trkpt>
      <trkpt lat="38.124935" lon="-4.92133">
        <ele>511.0</ele>
        <time>2018-10-06T08:06:20.000Z</time>
      </trkpt>
      <trkpt lat="38.124935" lon="-4.92133">
        <ele>511.0</ele>
        <time>2018-10-06T08:06:21.000Z</time>
      </trkpt>
      <trkpt lat="38.124935" lon="-4.92133">
        <ele>511.0</ele>
        <time>2018-10-06T08:06:22.000Z</time>
      </trkpt>
      <trkpt lat="38.124935" lon="-4.92133">
        <ele>511.0</ele>
        <time>2018-10-06T08:06:23.000Z</time>
      </trkpt>
      <trkpt lat="38.124935" lon="-4.92133">
        <ele>511.0</ele>
        <time>2018-10-06T08:06:24.000Z</time>
      </trkpt>
      <trkpt lat="38.124935" lon="-4.92133">
        <ele>511.0</ele>
        <time>2018-10-06T08:06:25.000Z</time>
      </trkpt>
      <trkpt lat="38.124935" lon="-4.92133">
        <ele>511.0</ele>
        <time>2018-10-06T08:06:26.000Z</time>
      </trkpt>
      <trkpt lat="38.124935" lon="-4.92133">
        <ele>511.0</ele>
        <time>2018-10-06T08:06:27.000Z</time>
      </trkpt>
      <trkpt lat="38.124935" lon="-4.92133">
        <ele>511.0</ele>
        <time>2018-10-06T08:06:28.000Z</time>
      </trkpt>
      <trkpt lat="38.124935" lon="-4.92133">
        <ele>511.0</ele>
        <time>2018-10-06T08:06:29.000Z</time>
      </trkpt>
      <trkpt lat="38.124935" lon="-4.92133">
        <ele>511.0</ele>
        <time>2018-10-06T08:06:30.000Z</time>
      </trkpt>
      <trkpt lat="38.124935" lon="-4.92133">
        <ele>511.0</ele>
        <time>2018-10-06T08:06:31.000Z</time>
      </trkpt>
      <trkpt lat="38.124935" lon="-4.92133">
        <ele>511.0</ele>
        <time>2018-10-06T08:06:32.000Z</time>
      </trkpt>
      <trkpt lat="38.124935" lon="-4.92133">
        <ele>511.0</ele>
        <time>2018-10-06T08:06:33.000Z</time>
      </trkpt>
      <trkpt lat="38.124935" lon="-4.92133">
        <ele>511.0</ele>
        <time>2018-10-06T08:06:34.000Z</time>
      </trkpt>
      <trkpt lat="38.124935" lon="-4.92133">
        <ele>511.0</ele>
        <time>2018-10-06T08:06:35.000Z</time>
      </trkpt>
      <trkpt lat="38.124935" lon="-4.92133">
        <ele>511.0</ele>
        <time>2018-10-06T08:06:36.000Z</time>
      </trkpt>
      <trkpt lat="38.124935" lon="-4.92133">
        <ele>511.0</ele>
        <time>2018-10-06T08:06:37.000Z</time>
      </trkpt>
      <trkpt lat="38.124935" lon="-4.92133">
        <ele>511.0</ele>
        <time>2018-10-06T08:06:38.000Z</time>
      </trkpt>
      <trkpt lat="38.124935" lon="-4.92133">
        <ele>511.0</ele>
        <time>2018-10-06T08:06:39.000Z</time>
      </trkpt>
      <trkpt lat="38.124935" lon="-4.92133">
        <ele>511.0</ele>
        <time>2018-10-06T08:06:40.000Z</time>
      </trkpt>
      <trkpt lat="38.124935" lon="-4.92133">
        <ele>511.0</ele>
        <time>2018-10-06T08:06:41.000Z</time>
      </trkpt>
      <trkpt lat="38.124935" lon="-4.92133">
        <ele>511.0</ele>
        <time>2018-10-06T08:06:42.000Z</time>
      </trkpt>
      <trkpt lat="38.124935" lon="-4.92133">
        <ele>511.0</ele>
        <time>2018-10-06T08:06:43.000Z</time>
      </trkpt>
      <trkpt lat="38.124935" lon="-4.92133">
        <ele>511.0</ele>
        <time>2018-10-06T08:06:44.000Z</time>
      </trkpt>
      <trkpt lat="38.124935" lon="-4.92133">
        <ele>511.0</ele>
        <time>2018-10-06T08:06:45.000Z</time>
      </trkpt>
      <trkpt lat="38.12465" lon="-4.921165">
        <ele>504.0</ele>
        <time>2018-10-06T08:06:46.000Z</time>
      </trkpt>
      <trkpt lat="38.12465" lon="-4.92116667">
        <ele>504.0</ele>
        <time>2018-10-06T08:06:47.000Z</time>
      </trkpt>
      <trkpt lat="38.124645" lon="-4.92116333">
        <ele>505.0</ele>
        <time>2018-10-06T08:06:48.000Z</time>
      </trkpt>
      <trkpt lat="38.12463833" lon="-4.92116">
        <ele>506.0</ele>
        <time>2018-10-06T08:06:49.000Z</time>
      </trkpt>
      <trkpt lat="38.124635" lon="-4.92115333">
        <ele>506.0</ele>
        <time>2018-10-06T08:06:50.000Z</time>
      </trkpt>
      <trkpt lat="38.12462833" lon="-4.92115">
        <ele>507.0</ele>
        <time>2018-10-06T08:06:51.000Z</time>
      </trkpt>
      <trkpt lat="38.12462167" lon="-4.92114833">
        <ele>508.0</ele>
        <time>2018-10-06T08:06:52.000Z</time>
      </trkpt>
      <trkpt lat="38.124615" lon="-4.92114333">
        <ele>509.0</ele>
        <time>2018-10-06T08:06:53.000Z</time>
      </trkpt>
      <trkpt lat="38.12461" lon="-4.92114">
        <ele>509.0</ele>
        <time>2018-10-06T08:06:54.000Z</time>
      </trkpt>
      <trkpt lat="38.124605" lon="-4.92113833">
        <ele>510.0</ele>
        <time>2018-10-06T08:06:55.000Z</time>
      </trkpt>
      <trkpt lat="38.12460167" lon="-4.92113667">
        <ele>511.0</ele>
        <time>2018-10-06T08:06:56.000Z</time>
      </trkpt>
      <trkpt lat="38.12459833" lon="-4.92113333">
        <ele>511.0</ele>
        <time>2018-10-06T08:06:57.000Z</time>
      </trkpt>
      <trkpt lat="38.12459667" lon="-4.92113167">
        <ele>512.0</ele>
        <time>2018-10-06T08:06:58.000Z</time>
      </trkpt>
      <trkpt lat="38.12459667" lon="-4.92113167">
        <ele>512.0</ele>
        <time>2018-10-06T08:06:59.000Z</time>
      </trkpt>
      <trkpt lat="38.12459667" lon="-4.92113167">
        <ele>512.0</ele>
        <time>2018-10-06T08:07:00.000Z</time>
      </trkpt>
      <trkpt lat="38.12459667" lon="-4.92113167">
        <ele>512.0</ele>
        <time>2018-10-06T08:07:01.000Z</time>
      </trkpt>
      <trkpt lat="38.12459667" lon="-4.92113167">
        <ele>512.0</ele>
        <time>2018-10-06T08:07:02.000Z</time>
      </trkpt>
      <trkpt lat="38.12459667" lon="-4.92113167">
        <ele>512.0</ele>
        <time>2018-10-06T08:07:03.000Z</time>
      </trkpt>
      <trkpt lat="38.12459667" lon="-4.92113167">
        <ele>512.0</ele>
        <time>2018-10-06T08:07:04.000Z</time>
      </trkpt>
      <trkpt lat="38.12459667" lon="-4.92113167">
        <ele>512.0</ele>
        <time>2018-10-06T08:07:05.000Z</time>
      </trkpt>
      <trkpt lat="38.12459667" lon="-4.92113167">
        <ele>512.0</ele>
        <time>2018-10-06T08:07:06.000Z</time>
      </trkpt>
      <trkpt lat="38.12459667" lon="-4.92113167">
        <ele>512.0</ele>
        <time>2018-10-06T08:07:07.000Z</time>
      </trkpt>
      <trkpt lat="38.12459667" lon="-4.92113167">
        <ele>512.0</ele>
        <time>2018-10-06T08:07:08.000Z</time>
      </trkpt>
      <trkpt lat="38.12459667" lon="-4.92113167">
        <ele>512.0</ele>
        <time>2018-10-06T08:07:09.000Z</time>
      </trkpt>
      <trkpt lat="38.12459667" lon="-4.92113167">
        <ele>512.0</ele>
        <time>2018-10-06T08:07:10.000Z</time>
      </trkpt>
      <trkpt lat="38.12459667" lon="-4.92113167">
        <ele>512.0</ele>
        <time>2018-10-06T08:07:11.000Z</time>
      </trkpt>
      <trkpt lat="38.12459667" lon="-4.92113167">
        <ele>512.0</ele>
        <time>2018-10-06T08:07:12.000Z</time>
      </trkpt>
      <trkpt lat="38.12459667" lon="-4.92113167">
        <ele>512.0</ele>
        <time>2018-10-06T08:07:13.000Z</time>
      </trkpt>
      <trkpt lat="38.12459667" lon="-4.92113167">
        <ele>512.0</ele>
        <time>2018-10-06T08:07:14.000Z</time>
      </trkpt>
      <trkpt lat="38.12459667" lon="-4.92113167">
        <ele>512.0</ele>
        <time>2018-10-06T08:07:15.000Z</time>
      </trkpt>
      <trkpt lat="38.12459667" lon="-4.92113167">
        <ele>512.0</ele>
        <time>2018-10-06T08:07:16.000Z</time>
      </trkpt>
      <trkpt lat="38.12459667" lon="-4.92113167">
        <ele>512.0</ele>
        <time>2018-10-06T08:07:17.000Z</time>
      </trkpt>
      <trkpt lat="38.12459667" lon="-4.92113167">
        <ele>512.0</ele>
        <time>2018-10-06T08:07:18.000Z</time>
      </trkpt>
      <trkpt lat="38.12459667" lon="-4.92113167">
        <ele>512.0</ele>
        <time>2018-10-06T08:07:19.000Z</time>
      </trkpt>
      <trkpt lat="38.12459667" lon="-4.92113167">
        <ele>512.0</ele>
        <time>2018-10-06T08:07:20.000Z</time>
      </trkpt>
      <trkpt lat="38.12459667" lon="-4.92113167">
        <ele>512.0</ele>
        <time>2018-10-06T08:07:21.000Z</time>
      </trkpt>
      <trkpt lat="38.12459667" lon="-4.92113167">
        <ele>512.0</ele>
        <time>2018-10-06T08:07:22.000Z</time>
      </trkpt>
      <trkpt lat="38.12459667" lon="-4.92113167">
        <ele>512.0</ele>
        <time>2018-10-06T08:07:23.000Z</time>
      </trkpt>
      <trkpt lat="38.12459667" lon="-4.92113167">
        <ele>512.0</ele>
        <time>2018-10-06T08:07:24.000Z</time>
      </trkpt>
      <trkpt lat="38.12459667" lon="-4.92113167">
        <ele>512.0</ele>
        <time>2018-10-06T08:07:25.000Z</time>
      </trkpt>
      <trkpt lat="38.12459667" lon="-4.92113167">
        <ele>512.0</ele>
        <time>2018-10-06T08:07:26.000Z</time>
      </trkpt>
      <trkpt lat="38.12459667" lon="-4.92113167">
        <ele>512.0</ele>
        <time>2018-10-06T08:07:27.000Z</time>
      </trkpt>
      <trkpt lat="38.12459667" lon="-4.92113167">
        <ele>512.0</ele>
        <time>2018-10-06T08:07:28.000Z</time>
      </trkpt>
      <trkpt lat="38.12459667" lon="-4.92113167">
        <ele>512.0</ele>
        <time>2018-10-06T08:07:29.000Z</time>
      </trkpt>
      <trkpt lat="38.12459667" lon="-4.92113167">
        <ele>512.0</ele>
        <time>2018-10-06T08:07:30.000Z</time>
      </trkpt>
      <trkpt lat="38.12459667" lon="-4.92113167">
        <ele>512.0</ele>
        <time>2018-10-06T08:07:31.000Z</time>
      </trkpt>
      <trkpt lat="38.12459667" lon="-4.92113167">
        <ele>512.0</ele>
        <time>2018-10-06T08:07:32.000Z</time>
      </trkpt>
      <trkpt lat="38.12459667" lon="-4.92113167">
        <ele>512.0</ele>
        <time>2018-10-06T08:07:33.000Z</time>
      </trkpt>
      <trkpt lat="38.12459667" lon="-4.92113167">
        <ele>512.0</ele>
        <time>2018-10-06T08:07:34.000Z</time>
      </trkpt>
      <trkpt lat="38.12459667" lon="-4.92113167">
        <ele>512.0</ele>
        <time>2018-10-06T08:07:35.000Z</time>
      </trkpt>
      <trkpt lat="38.12459667" lon="-4.92113167">
        <ele>512.0</ele>
        <time>2018-10-06T08:07:36.000Z</time>
      </trkpt>
      <trkpt lat="38.12459667" lon="-4.92113167">
        <ele>512.0</ele>
        <time>2018-10-06T08:07:37.000Z</time>
      </trkpt>
      <trkpt lat="38.12459667" lon="-4.92113167">
        <ele>512.0</ele>
        <time>2018-10-06T08:07:38.000Z</time>
      </trkpt>
      <trkpt lat="38.12459667" lon="-4.92113167">
        <ele>512.0</ele>
        <time>2018-10-06T08:07:39.000Z</time>
      </trkpt>
      <trkpt lat="38.12459667" lon="-4.92113167">
        <ele>512.0</ele>
        <time>2018-10-06T08:07:40.000Z</time>
      </trkpt>
      <trkpt lat="38.12459667" lon="-4.92113167">
        <ele>512.0</ele>
        <time>2018-10-06T08:07:41.000Z</time>
      </trkpt>
      <trkpt lat="38.12459667" lon="-4.92113167">
        <ele>512.0</ele>
        <time>2018-10-06T08:07:42.000Z</time>
      </trkpt>
      <trkpt lat="38.12459667" lon="-4.92113167">
        <ele>512.0</ele>
        <time>2018-10-06T08:07:43.000Z</time>
      </trkpt>
      <trkpt lat="38.12459667" lon="-4.92113167">
        <ele>512.0</ele>
        <time>2018-10-06T08:07:44.000Z</time>
      </trkpt>
      <trkpt lat="38.12459667" lon="-4.92113167">
        <ele>512.0</ele>
        <time>2018-10-06T08:07:45.000Z</time>
      </trkpt>
      <trkpt lat="38.12459667" lon="-4.92113167">
        <ele>512.0</ele>
        <time>2018-10-06T08:07:46.000Z</time>
      </trkpt>
      <trkpt lat="38.12454167" lon="-4.92114">
        <ele>513.0</ele>
        <time>2018-10-06T08:07:47.000Z</time>
      </trkpt>
      <trkpt lat="38.12452667" lon="-4.921125">
        <ele>514.0</ele>
        <time>2018-10-06T08:07:48.000Z</time>
      </trkpt>
      <trkpt lat="38.12451" lon="-4.92111667">
        <ele>515.0</ele>
        <time>2018-10-06T08:07:49.000Z</time>
      </trkpt>
      <trkpt lat="38.124495" lon="-4.92110667">
        <ele>516.0</ele>
        <time>2018-10-06T08:07:50.000Z</time>
      </trkpt>
      <trkpt lat="38.12448167" lon="-4.92109833">
        <ele>517.0</ele>
        <time>2018-10-06T08:07:51.000Z</time>
      </trkpt>
      <trkpt lat="38.12447333" lon="-4.92109">
        <ele>517.0</ele>
        <time>2018-10-06T08:07:52.000Z</time>
      </trkpt>
      <trkpt lat="38.12446333" lon="-4.92108167">
        <ele>518.0</ele>
        <time>2018-10-06T08:07:53.000Z</time>
      </trkpt>
      <trkpt lat="38.12445" lon="-4.921075">
        <ele>518.0</ele>
        <time>2018-10-06T08:07:54.000Z</time>
      </trkpt>
      <trkpt lat="38.12443833" lon="-4.92106833">
        <ele>519.0</ele>
        <time>2018-10-06T08:07:55.000Z</time>
      </trkpt>
      <trkpt lat="38.12442833" lon="-4.92106667">
        <ele>519.0</ele>
        <time>2018-10-06T08:07:56.000Z</time>
      </trkpt>
      <trkpt lat="38.12442" lon="-4.92106167">
        <ele>519.0</ele>
        <time>2018-10-06T08:07:57.000Z</time>
      </trkpt>
      <trkpt lat="38.12441" lon="-4.92105667">
        <ele>519.0</ele>
        <time>2018-10-06T08:07:58.000Z</time>
      </trkpt>
      <trkpt lat="38.12441" lon="-4.92105667">
        <ele>519.0</ele>
        <time>2018-10-06T08:07:59.000Z</time>
      </trkpt>
      <trkpt lat="38.12441" lon="-4.92105667">
        <ele>519.0</ele>
        <time>2018-10-06T08:08:00.000Z</time>
      </trkpt>
      <trkpt lat="38.12441" lon="-4.92105667">
        <ele>519.0</ele>
        <time>2018-10-06T08:08:01.000Z</time>
      </trkpt>
      <trkpt lat="38.12441" lon="-4.92105667">
        <ele>519.0</ele>
        <time>2018-10-06T08:08:02.000Z</time>
      </trkpt>
      <trkpt lat="38.12441" lon="-4.92105667">
        <ele>519.0</ele>
        <time>2018-10-06T08:08:03.000Z</time>
      </trkpt>
      <trkpt lat="38.12441" lon="-4.92105667">
        <ele>519.0</ele>
        <time>2018-10-06T08:08:04.000Z</time>
      </trkpt>
      <trkpt lat="38.12441" lon="-4.92105667">
        <ele>519.0</ele>
        <time>2018-10-06T08:08:05.000Z</time>
      </trkpt>
      <trkpt lat="38.12441" lon="-4.92105667">
        <ele>519.0</ele>
        <time>2018-10-06T08:08:06.000Z</time>
      </trkpt>
      <trkpt lat="38.12441" lon="-4.92105667">
        <ele>519.0</ele>
        <time>2018-10-06T08:08:07.000Z</time>
      </trkpt>
      <trkpt lat="38.12441" lon="-4.92105667">
        <ele>519.0</ele>
        <time>2018-10-06T08:08:08.000Z</time>
      </trkpt>
      <trkpt lat="38.12441" lon="-4.92105667">
        <ele>519.0</ele>
        <time>2018-10-06T08:08:09.000Z</time>
      </trkpt>
      <trkpt lat="38.12441" lon="-4.92105667">
        <ele>519.0</ele>
        <time>2018-10-06T08:08:10.000Z</time>
      </trkpt>
      <trkpt lat="38.12441" lon="-4.92105667">
        <ele>519.0</ele>
        <time>2018-10-06T08:08:11.000Z</time>
      </trkpt>
      <trkpt lat="38.12441" lon="-4.92105667">
        <ele>519.0</ele>
        <time>2018-10-06T08:08:12.000Z</time>
      </trkpt>
      <trkpt lat="38.12441" lon="-4.92105667">
        <ele>519.0</ele>
        <time>2018-10-06T08:08:13.000Z</time>
      </trkpt>
      <trkpt lat="38.12441" lon="-4.92105667">
        <ele>519.0</ele>
        <time>2018-10-06T08:08:14.000Z</time>
      </trkpt>
      <trkpt lat="38.12441" lon="-4.92105667">
        <ele>519.0</ele>
        <time>2018-10-06T08:08:15.000Z</time>
      </trkpt>
      <trkpt lat="38.12441" lon="-4.92105667">
        <ele>519.0</ele>
        <time>2018-10-06T08:08:16.000Z</time>
      </trkpt>
      <trkpt lat="38.12441" lon="-4.92105667">
        <ele>519.0</ele>
        <time>2018-10-06T08:08:17.000Z</time>
      </trkpt>
      <trkpt lat="38.12441" lon="-4.92105667">
        <ele>519.0</ele>
        <time>2018-10-06T08:08:18.000Z</time>
      </trkpt>
      <trkpt lat="38.12441" lon="-4.92105667">
        <ele>519.0</ele>
        <time>2018-10-06T08:08:19.000Z</time>
      </trkpt>
      <trkpt lat="38.12441" lon="-4.92105667">
        <ele>519.0</ele>
        <time>2018-10-06T08:08:20.000Z</time>
      </trkpt>
      <trkpt lat="38.12441" lon="-4.92105667">
        <ele>519.0</ele>
        <time>2018-10-06T08:08:21.000Z</time>
      </trkpt>
      <trkpt lat="38.12441" lon="-4.92105667">
        <ele>519.0</ele>
        <time>2018-10-06T08:08:22.000Z</time>
      </trkpt>
      <trkpt lat="38.12441" lon="-4.92105667">
        <ele>519.0</ele>
        <time>2018-10-06T08:08:23.000Z</time>
      </trkpt>
      <trkpt lat="38.12441" lon="-4.92105667">
        <ele>519.0</ele>
        <time>2018-10-06T08:08:24.000Z</time>
      </trkpt>
      <trkpt lat="38.12441" lon="-4.92105667">
        <ele>519.0</ele>
        <time>2018-10-06T08:08:25.000Z</time>
      </trkpt>
      <trkpt lat="38.12441" lon="-4.92105667">
        <ele>519.0</ele>
        <time>2018-10-06T08:08:26.000Z</time>
      </trkpt>
      <trkpt lat="38.12441" lon="-4.92105667">
        <ele>519.0</ele>
        <time>2018-10-06T08:08:27.000Z</time>
      </trkpt>
      <trkpt lat="38.12441" lon="-4.92105667">
        <ele>519.0</ele>
        <time>2018-10-06T08:08:28.000Z</time>
      </trkpt>
      <trkpt lat="38.12441" lon="-4.92105667">
        <ele>519.0</ele>
        <time>2018-10-06T08:08:29.000Z</time>
      </trkpt>
      <trkpt lat="38.12441" lon="-4.92105667">
        <ele>519.0</ele>
        <time>2018-10-06T08:08:30.000Z</time>
      </trkpt>
      <trkpt lat="38.12441" lon="-4.92105667">
        <ele>519.0</ele>
        <time>2018-10-06T08:08:31.000Z</time>
      </trkpt>
      <trkpt lat="38.12441" lon="-4.92105667">
        <ele>519.0</ele>
        <time>2018-10-06T08:08:32.000Z</time>
      </trkpt>
      <trkpt lat="38.12441" lon="-4.92105667">
        <ele>519.0</ele>
        <time>2018-10-06T08:08:33.000Z</time>
      </trkpt>
      <trkpt lat="38.12441" lon="-4.92105667">
        <ele>519.0</ele>
        <time>2018-10-06T08:08:34.000Z</time>
      </trkpt>
      <trkpt lat="38.12441" lon="-4.92105667">
        <ele>519.0</ele>
        <time>2018-10-06T08:08:35.000Z</time>
      </trkpt>
      <trkpt lat="38.12441" lon="-4.92105667">
        <ele>519.0</ele>
        <time>2018-10-06T08:08:36.000Z</time>
      </trkpt>
      <trkpt lat="38.12441" lon="-4.92105667">
        <ele>519.0</ele>
        <time>2018-10-06T08:08:37.000Z</time>
      </trkpt>
      <trkpt lat="38.12441" lon="-4.92105667">
        <ele>519.0</ele>
        <time>2018-10-06T08:08:38.000Z</time>
      </trkpt>
      <trkpt lat="38.12441" lon="-4.92105667">
        <ele>519.0</ele>
        <time>2018-10-06T08:08:39.000Z</time>
      </trkpt>
      <trkpt lat="38.12441" lon="-4.92105667">
        <ele>519.0</ele>
        <time>2018-10-06T08:08:40.000Z</time>
      </trkpt>
      <trkpt lat="38.12441" lon="-4.92105667">
        <ele>519.0</ele>
        <time>2018-10-06T08:08:41.000Z</time>
      </trkpt>
      <trkpt lat="38.12441" lon="-4.92105667">
        <ele>519.0</ele>
        <time>2018-10-06T08:08:42.000Z</time>
      </trkpt>
      <trkpt lat="38.12441" lon="-4.92105667">
        <ele>519.0</ele>
        <time>2018-10-06T08:08:43.000Z</time>
      </trkpt>
      <trkpt lat="38.12441" lon="-4.92105667">
        <ele>519.0</ele>
        <time>2018-10-06T08:08:44.000Z</time>
      </trkpt>
      <trkpt lat="38.12441" lon="-4.92105667">
        <ele>519.0</ele>
        <time>2018-10-06T08:08:45.000Z</time>
      </trkpt>
      <trkpt lat="38.12441" lon="-4.92105667">
        <ele>519.0</ele>
        <time>2018-10-06T08:08:46.000Z</time>
      </trkpt>
      <trkpt lat="38.12436" lon="-4.92108">
        <ele>521.0</ele>
        <time>2018-10-06T08:08:47.000Z</time>
      </trkpt>
      <trkpt lat="38.124355" lon="-4.92108333">
        <ele>521.0</ele>
        <time>2018-10-06T08:08:48.000Z</time>
      </trkpt>
      <trkpt lat="38.12435333" lon="-4.92109">
        <ele>521.0</ele>
        <time>2018-10-06T08:08:49.000Z</time>
      </trkpt>
      <trkpt lat="38.12434833" lon="-4.92109667">
        <ele>522.0</ele>
        <time>2018-10-06T08:08:50.000Z</time>
      </trkpt>
      <trkpt lat="38.124345" lon="-4.92110333">
        <ele>522.0</ele>
        <time>2018-10-06T08:08:51.000Z</time>
      </trkpt>
      <trkpt lat="38.124345" lon="-4.92111">
        <ele>523.0</ele>
        <time>2018-10-06T08:08:52.000Z</time>
      </trkpt>
      <trkpt lat="38.12434333" lon="-4.92111667">
        <ele>523.0</ele>
        <time>2018-10-06T08:08:53.000Z</time>
      </trkpt>
      <trkpt lat="38.124345" lon="-4.921125">
        <ele>524.0</ele>
        <time>2018-10-06T08:08:54.000Z</time>
      </trkpt>
      <trkpt lat="38.12434667" lon="-4.92113333">
        <ele>524.0</ele>
        <time>2018-10-06T08:08:55.000Z</time>
      </trkpt>
      <trkpt lat="38.12434833" lon="-4.92114167">
        <ele>524.0</ele>
        <time>2018-10-06T08:08:56.000Z</time>
      </trkpt>
      <trkpt lat="38.12435167" lon="-4.92115">
        <ele>524.0</ele>
        <time>2018-10-06T08:08:57.000Z</time>
      </trkpt>
      <trkpt lat="38.124355" lon="-4.92115833">
        <ele>525.0</ele>
        <time>2018-10-06T08:08:58.000Z</time>
      </trkpt>
      <trkpt lat="38.124355" lon="-4.92115833">
        <ele>525.0</ele>
        <time>2018-10-06T08:08:59.000Z</time>
      </trkpt>
      <trkpt lat="38.124355" lon="-4.92115833">
        <ele>525.0</ele>
        <time>2018-10-06T08:09:00.000Z</time>
      </trkpt>
      <trkpt lat="38.124355" lon="-4.92115833">
        <ele>525.0</ele>
        <time>2018-10-06T08:09:01.000Z</time>
      </trkpt>
      <trkpt lat="38.124355" lon="-4.92115833">
        <ele>525.0</ele>
        <time>2018-10-06T08:09:02.000Z</time>
      </trkpt>
      <trkpt lat="38.124355" lon="-4.92115833">
        <ele>525.0</ele>
        <time>2018-10-06T08:09:03.000Z</time>
      </trkpt>
      <trkpt lat="38.124355" lon="-4.92115833">
        <ele>525.0</ele>
        <time>2018-10-06T08:09:04.000Z</time>
      </trkpt>
      <trkpt lat="38.124355" lon="-4.92115833">
        <ele>525.0</ele>
        <time>2018-10-06T08:09:05.000Z</time>
      </trkpt>
      <trkpt lat="38.124355" lon="-4.92115833">
        <ele>525.0</ele>
        <time>2018-10-06T08:09:06.000Z</time>
      </trkpt>
      <trkpt lat="38.124355" lon="-4.92115833">
        <ele>525.0</ele>
        <time>2018-10-06T08:09:07.000Z</time>
      </trkpt>
      <trkpt lat="38.124355" lon="-4.92115833">
        <ele>525.0</ele>
        <time>2018-10-06T08:09:08.000Z</time>
      </trkpt>
      <trkpt lat="38.124355" lon="-4.92115833">
        <ele>525.0</ele>
        <time>2018-10-06T08:09:09.000Z</time>
      </trkpt>
      <trkpt lat="38.124355" lon="-4.92115833">
        <ele>525.0</ele>
        <time>2018-10-06T08:09:10.000Z</time>
      </trkpt>
      <trkpt lat="38.124355" lon="-4.92115833">
        <ele>525.0</ele>
        <time>2018-10-06T08:09:11.000Z</time>
      </trkpt>
      <trkpt lat="38.124355" lon="-4.92115833">
        <ele>525.0</ele>
        <time>2018-10-06T08:09:12.000Z</time>
      </trkpt>
      <trkpt lat="38.124355" lon="-4.92115833">
        <ele>525.0</ele>
        <time>2018-10-06T08:09:13.000Z</time>
      </trkpt>
      <trkpt lat="38.124355" lon="-4.92115833">
        <ele>525.0</ele>
        <time>2018-10-06T08:09:14.000Z</time>
      </trkpt>
      <trkpt lat="38.124355" lon="-4.92115833">
        <ele>525.0</ele>
        <time>2018-10-06T08:09:15.000Z</time>
      </trkpt>
      <trkpt lat="38.124355" lon="-4.92115833">
        <ele>525.0</ele>
        <time>2018-10-06T08:09:16.000Z</time>
      </trkpt>
      <trkpt lat="38.124355" lon="-4.92115833">
        <ele>525.0</ele>
        <time>2018-10-06T08:09:17.000Z</time>
      </trkpt>
      <trkpt lat="38.124355" lon="-4.92115833">
        <ele>525.0</ele>
        <time>2018-10-06T08:09:18.000Z</time>
      </trkpt>
      <trkpt lat="38.124355" lon="-4.92115833">
        <ele>525.0</ele>
        <time>2018-10-06T08:09:19.000Z</time>
      </trkpt>
      <trkpt lat="38.124355" lon="-4.92115833">
        <ele>525.0</ele>
        <time>2018-10-06T08:09:20.000Z</time>
      </trkpt>
      <trkpt lat="38.124355" lon="-4.92115833">
        <ele>525.0</ele>
        <time>2018-10-06T08:09:21.000Z</time>
      </trkpt>
      <trkpt lat="38.124355" lon="-4.92115833">
        <ele>525.0</ele>
        <time>2018-10-06T08:09:22.000Z</time>
      </trkpt>
      <trkpt lat="38.124355" lon="-4.92115833">
        <ele>525.0</ele>
        <time>2018-10-06T08:09:23.000Z</time>
      </trkpt>
      <trkpt lat="38.124355" lon="-4.92115833">
        <ele>525.0</ele>
        <time>2018-10-06T08:09:24.000Z</time>
      </trkpt>
      <trkpt lat="38.124355" lon="-4.92115833">
        <ele>525.0</ele>
        <time>2018-10-06T08:09:25.000Z</time>
      </trkpt>
      <trkpt lat="38.124355" lon="-4.92115833">
        <ele>525.0</ele>
        <time>2018-10-06T08:09:26.000Z</time>
      </trkpt>
      <trkpt lat="38.124355" lon="-4.92115833">
        <ele>525.0</ele>
        <time>2018-10-06T08:09:27.000Z</time>
      </trkpt>
      <trkpt lat="38.124355" lon="-4.92115833">
        <ele>525.0</ele>
        <time>2018-10-06T08:09:28.000Z</time>
      </trkpt>
      <trkpt lat="38.124355" lon="-4.92115833">
        <ele>525.0</ele>
        <time>2018-10-06T08:09:29.000Z</time>
      </trkpt>
      <trkpt lat="38.124355" lon="-4.92115833">
        <ele>525.0</ele>
        <time>2018-10-06T08:09:30.000Z</time>
      </trkpt>
      <trkpt lat="38.124355" lon="-4.92115833">
        <ele>525.0</ele>
        <time>2018-10-06T08:09:31.000Z</time>
      </trkpt>
      <trkpt lat="38.124355" lon="-4.92115833">
        <ele>525.0</ele>
        <time>2018-10-06T08:09:32.000Z</time>
      </trkpt>
      <trkpt lat="38.124355" lon="-4.92115833">
        <ele>525.0</ele>
        <time>2018-10-06T08:09:33.000Z</time>
      </trkpt>
      <trkpt lat="38.124355" lon="-4.92115833">
        <ele>525.0</ele>
        <time>2018-10-06T08:09:34.000Z</time>
      </trkpt>
      <trkpt lat="38.124355" lon="-4.92115833">
        <ele>525.0</ele>
        <time>2018-10-06T08:09:35.000Z</time>
      </trkpt>
      <trkpt lat="38.124355" lon="-4.92115833">
        <ele>525.0</ele>
        <time>2018-10-06T08:09:36.000Z</time>
      </trkpt>
      <trkpt lat="38.124355" lon="-4.92115833">
        <ele>525.0</ele>
        <time>2018-10-06T08:09:37.000Z</time>
      </trkpt>
      <trkpt lat="38.124355" lon="-4.92115833">
        <ele>525.0</ele>
        <time>2018-10-06T08:09:38.000Z</time>
      </trkpt>
      <trkpt lat="38.124355" lon="-4.92115833">
        <ele>525.0</ele>
        <time>2018-10-06T08:09:39.000Z</time>
      </trkpt>
      <trkpt lat="38.124355" lon="-4.92115833">
        <ele>525.0</ele>
        <time>2018-10-06T08:09:40.000Z</time>
      </trkpt>
      <trkpt lat="38.124355" lon="-4.92115833">
        <ele>525.0</ele>
        <time>2018-10-06T08:09:41.000Z</time>
      </trkpt>
      <trkpt lat="38.124355" lon="-4.92115833">
        <ele>525.0</ele>
        <time>2018-10-06T08:09:42.000Z</time>
      </trkpt>
      <trkpt lat="38.124355" lon="-4.92115833">
        <ele>525.0</ele>
        <time>2018-10-06T08:09:43.000Z</time>
      </trkpt>
      <trkpt lat="38.124355" lon="-4.92115833">
        <ele>525.0</ele>
        <time>2018-10-06T08:09:44.000Z</time>
      </trkpt>
      <trkpt lat="38.124355" lon="-4.92115833">
        <ele>525.0</ele>
        <time>2018-10-06T08:09:45.000Z</time>
      </trkpt>
      <trkpt lat="38.124355" lon="-4.92115833">
        <ele>525.0</ele>
        <time>2018-10-06T08:09:46.000Z</time>
      </trkpt>
      <trkpt lat="38.124355" lon="-4.92115833">
        <ele>525.0</ele>
        <time>2018-10-06T08:09:47.000Z</time>
      </trkpt>
      <trkpt lat="38.124465" lon="-4.92159">
        <ele>526.0</ele>
        <time>2018-10-06T08:09:48.000Z</time>
      </trkpt>
      <trkpt lat="38.124465" lon="-4.92159167">
        <ele>526.0</ele>
        <time>2018-10-06T08:09:49.000Z</time>
      </trkpt>
      <trkpt lat="38.12446833" lon="-4.921595">
        <ele>527.0</ele>
        <time>2018-10-06T08:09:50.000Z</time>
      </trkpt>
      <trkpt lat="38.12447167" lon="-4.92160833">
        <ele>527.0</ele>
        <time>2018-10-06T08:09:51.000Z</time>
      </trkpt>
      <trkpt lat="38.12447333" lon="-4.92161667">
        <ele>528.0</ele>
        <time>2018-10-06T08:09:52.000Z</time>
      </trkpt>
      <trkpt lat="38.12447667" lon="-4.92162667">
        <ele>529.0</ele>
        <time>2018-10-06T08:09:53.000Z</time>
      </trkpt>
      <trkpt lat="38.12448" lon="-4.92163667">
        <ele>530.0</ele>
        <time>2018-10-06T08:09:54.000Z</time>
      </trkpt>
      <trkpt lat="38.12448333" lon="-4.92164333">
        <ele>530.0</ele>
        <time>2018-10-06T08:09:55.000Z</time>
      </trkpt>
      <trkpt lat="38.12448667" lon="-4.92164833">
        <ele>531.0</ele>
        <time>2018-10-06T08:09:56.000Z</time>
      </trkpt>
      <trkpt lat="38.12448833" lon="-4.92165167">
        <ele>531.0</ele>
        <time>2018-10-06T08:09:57.000Z</time>
      </trkpt>
      <trkpt lat="38.12449167" lon="-4.92165833">
        <ele>532.0</ele>
        <time>2018-10-06T08:09:58.000Z</time>
      </trkpt>
      <trkpt lat="38.12449167" lon="-4.92165833">
        <ele>532.0</ele>
        <time>2018-10-06T08:09:59.000Z</time>
      </trkpt>
      <trkpt lat="38.12449167" lon="-4.92165833">
        <ele>532.0</ele>
        <time>2018-10-06T08:10:00.000Z</time>
      </trkpt>
      <trkpt lat="38.12449167" lon="-4.92165833">
        <ele>532.0</ele>
        <time>2018-10-06T08:10:01.000Z</time>
      </trkpt>
      <trkpt lat="38.12449167" lon="-4.92165833">
        <ele>532.0</ele>
        <time>2018-10-06T08:10:02.000Z</time>
      </trkpt>
      <trkpt lat="38.12449167" lon="-4.92165833">
        <ele>532.0</ele>
        <time>2018-10-06T08:10:03.000Z</time>
      </trkpt>
      <trkpt lat="38.12449167" lon="-4.92165833">
        <ele>532.0</ele>
        <time>2018-10-06T08:10:04.000Z</time>
      </trkpt>
      <trkpt lat="38.12449167" lon="-4.92165833">
        <ele>532.0</ele>
        <time>2018-10-06T08:10:05.000Z</time>
      </trkpt>
      <trkpt lat="38.12449167" lon="-4.92165833">
        <ele>532.0</ele>
        <time>2018-10-06T08:10:06.000Z</time>
      </trkpt>
      <trkpt lat="38.12449167" lon="-4.92165833">
        <ele>532.0</ele>
        <time>2018-10-06T08:10:07.000Z</time>
      </trkpt>
      <trkpt lat="38.12449167" lon="-4.92165833">
        <ele>532.0</ele>
        <time>2018-10-06T08:10:08.000Z</time>
      </trkpt>
      <trkpt lat="38.12449167" lon="-4.92165833">
        <ele>532.0</ele>
        <time>2018-10-06T08:10:09.000Z</time>
      </trkpt>
      <trkpt lat="38.12449167" lon="-4.92165833">
        <ele>532.0</ele>
        <time>2018-10-06T08:10:10.000Z</time>
      </trkpt>
      <trkpt lat="38.12449167" lon="-4.92165833">
        <ele>532.0</ele>
        <time>2018-10-06T08:10:11.000Z</time>
      </trkpt>
      <trkpt lat="38.12449167" lon="-4.92165833">
        <ele>532.0</ele>
        <time>2018-10-06T08:10:12.000Z</time>
      </trkpt>
      <trkpt lat="38.12449167" lon="-4.92165833">
        <ele>532.0</ele>
        <time>2018-10-06T08:10:13.000Z</time>
      </trkpt>
      <trkpt lat="38.12449167" lon="-4.92165833">
        <ele>532.0</ele>
        <time>2018-10-06T08:10:14.000Z</time>
      </trkpt>
      <trkpt lat="38.12449167" lon="-4.92165833">
        <ele>532.0</ele>
        <time>2018-10-06T08:10:15.000Z</time>
      </trkpt>
      <trkpt lat="38.12449167" lon="-4.92165833">
        <ele>532.0</ele>
        <time>2018-10-06T08:10:16.000Z</time>
      </trkpt>
      <trkpt lat="38.12449167" lon="-4.92165833">
        <ele>532.0</ele>
        <time>2018-10-06T08:10:17.000Z</time>
      </trkpt>
      <trkpt lat="38.12449167" lon="-4.92165833">
        <ele>532.0</ele>
        <time>2018-10-06T08:10:18.000Z</time>
      </trkpt>
      <trkpt lat="38.12449167" lon="-4.92165833">
        <ele>532.0</ele>
        <time>2018-10-06T08:10:19.000Z</time>
      </trkpt>
      <trkpt lat="38.12449167" lon="-4.92165833">
        <ele>532.0</ele>
        <time>2018-10-06T08:10:20.000Z</time>
      </trkpt>
      <trkpt lat="38.12449167" lon="-4.92165833">
        <ele>532.0</ele>
        <time>2018-10-06T08:10:21.000Z</time>
      </trkpt>
      <trkpt lat="38.12449167" lon="-4.92165833">
        <ele>532.0</ele>
        <time>2018-10-06T08:10:22.000Z</time>
      </trkpt>
      <trkpt lat="38.12449167" lon="-4.92165833">
        <ele>532.0</ele>
        <time>2018-10-06T08:10:23.000Z</time>
      </trkpt>
      <trkpt lat="38.12449167" lon="-4.92165833">
        <ele>532.0</ele>
        <time>2018-10-06T08:10:24.000Z</time>
      </trkpt>
      <trkpt lat="38.12449167" lon="-4.92165833">
        <ele>532.0</ele>
        <time>2018-10-06T08:10:25.000Z</time>
      </trkpt>
      <trkpt lat="38.12449167" lon="-4.92165833">
        <ele>532.0</ele>
        <time>2018-10-06T08:10:26.000Z</time>
      </trkpt>
      <trkpt lat="38.12449167" lon="-4.92165833">
        <ele>532.0</ele>
        <time>2018-10-06T08:10:27.000Z</time>
      </trkpt>
      <trkpt lat="38.12449167" lon="-4.92165833">
        <ele>532.0</ele>
        <time>2018-10-06T08:10:28.000Z</time>
      </trkpt>
      <trkpt lat="38.12449167" lon="-4.92165833">
        <ele>532.0</ele>
        <time>2018-10-06T08:10:29.000Z</time>
      </trkpt>
      <trkpt lat="38.12449167" lon="-4.92165833">
        <ele>532.0</ele>
        <time>2018-10-06T08:10:30.000Z</time>
      </trkpt>
      <trkpt lat="38.12449167" lon="-4.92165833">
        <ele>532.0</ele>
        <time>2018-10-06T08:10:31.000Z</time>
      </trkpt>
      <trkpt lat="38.12449167" lon="-4.92165833">
        <ele>532.0</ele>
        <time>2018-10-06T08:10:32.000Z</time>
      </trkpt>
      <trkpt lat="38.12449167" lon="-4.92165833">
        <ele>532.0</ele>
        <time>2018-10-06T08:10:33.000Z</time>
      </trkpt>
      <trkpt lat="38.12449167" lon="-4.92165833">
        <ele>532.0</ele>
        <time>2018-10-06T08:10:34.000Z</time>
      </trkpt>
      <trkpt lat="38.12449167" lon="-4.92165833">
        <ele>532.0</ele>
        <time>2018-10-06T08:10:35.000Z</time>
      </trkpt>
      <trkpt lat="38.12449167" lon="-4.92165833">
        <ele>532.0</ele>
        <time>2018-10-06T08:10:36.000Z</time>
      </trkpt>
      <trkpt lat="38.12449167" lon="-4.92165833">
        <ele>532.0</ele>
        <time>2018-10-06T08:10:37.000Z</time>
      </trkpt>
      <trkpt lat="38.12449167" lon="-4.92165833">
        <ele>532.0</ele>
        <time>2018-10-06T08:10:38.000Z</time>
      </trkpt>
      <trkpt lat="38.12449167" lon="-4.92165833">
        <ele>532.0</ele>
        <time>2018-10-06T08:10:39.000Z</time>
      </trkpt>
      <trkpt lat="38.12449167" lon="-4.92165833">
        <ele>532.0</ele>
        <time>2018-10-06T08:10:40.000Z</time>
      </trkpt>
      <trkpt lat="38.12449167" lon="-4.92165833">
        <ele>532.0</ele>
        <time>2018-10-06T08:10:41.000Z</time>
      </trkpt>
      <trkpt lat="38.12449167" lon="-4.92165833">
        <ele>532.0</ele>
        <time>2018-10-06T08:10:42.000Z</time>
      </trkpt>
      <trkpt lat="38.12449167" lon="-4.92165833">
        <ele>532.0</ele>
        <time>2018-10-06T08:10:43.000Z</time>
      </trkpt>
      <trkpt lat="38.12449167" lon="-4.92165833">
        <ele>532.0</ele>
        <time>2018-10-06T08:10:44.000Z</time>
      </trkpt>
      <trkpt lat="38.12449167" lon="-4.92165833">
        <ele>532.0</ele>
        <time>2018-10-06T08:10:45.000Z</time>
      </trkpt>
      <trkpt lat="38.12449167" lon="-4.92165833">
        <ele>532.0</ele>
        <time>2018-10-06T08:10:46.000Z</time>
      </trkpt>
      <trkpt lat="38.12446833" lon="-4.92166">
        <ele>533.0</ele>
        <time>2018-10-06T08:10:47.000Z</time>
      </trkpt>
      <trkpt lat="38.12447333" lon="-4.92167333">
        <ele>533.0</ele>
        <time>2018-10-06T08:10:48.000Z</time>
      </trkpt>
      <trkpt lat="38.12447667" lon="-4.92169167">
        <ele>533.0</ele>
        <time>2018-10-06T08:10:49.000Z</time>
      </trkpt>
      <trkpt lat="38.12448" lon="-4.921705">
        <ele>533.0</ele>
        <time>2018-10-06T08:10:50.000Z</time>
      </trkpt>
      <trkpt lat="38.124485" lon="-4.92172333">
        <ele>533.0</ele>
        <time>2018-10-06T08:10:51.000Z</time>
      </trkpt>
      <trkpt lat="38.12449" lon="-4.92174167">
        <ele>533.0</ele>
        <time>2018-10-06T08:10:52.000Z</time>
      </trkpt>
      <trkpt lat="38.12449667" lon="-4.92176">
        <ele>533.0</ele>
        <time>2018-10-06T08:10:53.000Z</time>
      </trkpt>
      <trkpt lat="38.12450167" lon="-4.92177667">
        <ele>533.0</ele>
        <time>2018-10-06T08:10:54.000Z</time>
      </trkpt>
      <trkpt lat="38.12450667" lon="-4.92179333">
        <ele>533.0</ele>
        <time>2018-10-06T08:10:55.000Z</time>
      </trkpt>
      <trkpt lat="38.12451167" lon="-4.92181">
        <ele>533.0</ele>
        <time>2018-10-06T08:10:56.000Z</time>
      </trkpt>
      <trkpt lat="38.124515" lon="-4.921825">
        <ele>534.0</ele>
        <time>2018-10-06T08:10:57.000Z</time>
      </trkpt>
      <trkpt lat="38.12452" lon="-4.92184">
        <ele>534.0</ele>
        <time>2018-10-06T08:10:58.000Z</time>
      </trkpt>
      <trkpt lat="38.12452" lon="-4.92184">
        <ele>534.0</ele>
        <time>2018-10-06T08:10:59.000Z</time>
      </trkpt>
      <trkpt lat="38.12452" lon="-4.92184">
        <ele>534.0</ele>
        <time>2018-10-06T08:11:00.000Z</time>
      </trkpt>
      <trkpt lat="38.12452" lon="-4.92184">
        <ele>534.0</ele>
        <time>2018-10-06T08:11:01.000Z</time>
      </trkpt>
      <trkpt lat="38.12452" lon="-4.92184">
        <ele>534.0</ele>
        <time>2018-10-06T08:11:02.000Z</time>
      </trkpt>
      <trkpt lat="38.12452" lon="-4.92184">
        <ele>534.0</ele>
        <time>2018-10-06T08:11:03.000Z</time>
      </trkpt>
      <trkpt lat="38.12452" lon="-4.92184">
        <ele>534.0</ele>
        <time>2018-10-06T08:11:04.000Z</time>
      </trkpt>
      <trkpt lat="38.12452" lon="-4.92184">
        <ele>534.0</ele>
        <time>2018-10-06T08:11:05.000Z</time>
      </trkpt>
      <trkpt lat="38.12452" lon="-4.92184">
        <ele>534.0</ele>
        <time>2018-10-06T08:11:06.000Z</time>
      </trkpt>
      <trkpt lat="38.12452" lon="-4.92184">
        <ele>534.0</ele>
        <time>2018-10-06T08:11:07.000Z</time>
      </trkpt>
      <trkpt lat="38.12452" lon="-4.92184">
        <ele>534.0</ele>
        <time>2018-10-06T08:11:08.000Z</time>
      </trkpt>
      <trkpt lat="38.12452" lon="-4.92184">
        <ele>534.0</ele>
        <time>2018-10-06T08:11:09.000Z</time>
      </trkpt>
      <trkpt lat="38.12452" lon="-4.92184">
        <ele>534.0</ele>
        <time>2018-10-06T08:11:10.000Z</time>
      </trkpt>
      <trkpt lat="38.12452" lon="-4.92184">
        <ele>534.0</ele>
        <time>2018-10-06T08:11:11.000Z</time>
      </trkpt>
      <trkpt lat="38.12452" lon="-4.92184">
        <ele>534.0</ele>
        <time>2018-10-06T08:11:12.000Z</time>
      </trkpt>
      <trkpt lat="38.12452" lon="-4.92184">
        <ele>534.0</ele>
        <time>2018-10-06T08:11:13.000Z</time>
      </trkpt>
      <trkpt lat="38.12452" lon="-4.92184">
        <ele>534.0</ele>
        <time>2018-10-06T08:11:14.000Z</time>
      </trkpt>
      <trkpt lat="38.12452" lon="-4.92184">
        <ele>534.0</ele>
        <time>2018-10-06T08:11:15.000Z</time>
      </trkpt>
      <trkpt lat="38.12452" lon="-4.92184">
        <ele>534.0</ele>
        <time>2018-10-06T08:11:16.000Z</time>
      </trkpt>
      <trkpt lat="38.12452" lon="-4.92184">
        <ele>534.0</ele>
        <time>2018-10-06T08:11:17.000Z</time>
      </trkpt>
      <trkpt lat="38.12452" lon="-4.92184">
        <ele>534.0</ele>
        <time>2018-10-06T08:11:18.000Z</time>
      </trkpt>
      <trkpt lat="38.12452" lon="-4.92184">
        <ele>534.0</ele>
        <time>2018-10-06T08:11:19.000Z</time>
      </trkpt>
      <trkpt lat="38.12452" lon="-4.92184">
        <ele>534.0</ele>
        <time>2018-10-06T08:11:20.000Z</time>
      </trkpt>
      <trkpt lat="38.12452" lon="-4.92184">
        <ele>534.0</ele>
        <time>2018-10-06T08:11:21.000Z</time>
      </trkpt>
      <trkpt lat="38.12452" lon="-4.92184">
        <ele>534.0</ele>
        <time>2018-10-06T08:11:22.000Z</time>
      </trkpt>
      <trkpt lat="38.12452" lon="-4.92184">
        <ele>534.0</ele>
        <time>2018-10-06T08:11:23.000Z</time>
      </trkpt>
      <trkpt lat="38.12452" lon="-4.92184">
        <ele>534.0</ele>
        <time>2018-10-06T08:11:24.000Z</time>
      </trkpt>
      <trkpt lat="38.12452" lon="-4.92184">
        <ele>534.0</ele>
        <time>2018-10-06T08:11:25.000Z</time>
      </trkpt>
      <trkpt lat="38.12452" lon="-4.92184">
        <ele>534.0</ele>
        <time>2018-10-06T08:11:26.000Z</time>
      </trkpt>
      <trkpt lat="38.12452" lon="-4.92184">
        <ele>534.0</ele>
        <time>2018-10-06T08:11:27.000Z</time>
      </trkpt>
      <trkpt lat="38.12452" lon="-4.92184">
        <ele>534.0</ele>
        <time>2018-10-06T08:11:28.000Z</time>
      </trkpt>
      <trkpt lat="38.12452" lon="-4.92184">
        <ele>534.0</ele>
        <time>2018-10-06T08:11:29.000Z</time>
      </trkpt>
      <trkpt lat="38.12452" lon="-4.92184">
        <ele>534.0</ele>
        <time>2018-10-06T08:11:30.000Z</time>
      </trkpt>
      <trkpt lat="38.12452" lon="-4.92184">
        <ele>534.0</ele>
        <time>2018-10-06T08:11:31.000Z</time>
      </trkpt>
      <trkpt lat="38.12452" lon="-4.92184">
        <ele>534.0</ele>
        <time>2018-10-06T08:11:32.000Z</time>
      </trkpt>
      <trkpt lat="38.12452" lon="-4.92184">
        <ele>534.0</ele>
        <time>2018-10-06T08:11:33.000Z</time>
      </trkpt>
      <trkpt lat="38.12452" lon="-4.92184">
        <ele>534.0</ele>
        <time>2018-10-06T08:11:34.000Z</time>
      </trkpt>
      <trkpt lat="38.12452" lon="-4.92184">
        <ele>534.0</ele>
        <time>2018-10-06T08:11:35.000Z</time>
      </trkpt>
      <trkpt lat="38.12452" lon="-4.92184">
        <ele>534.0</ele>
        <time>2018-10-06T08:11:36.000Z</time>
      </trkpt>
      <trkpt lat="38.12452" lon="-4.92184">
        <ele>534.0</ele>
        <time>2018-10-06T08:11:37.000Z</time>
      </trkpt>
      <trkpt lat="38.12452" lon="-4.92184">
        <ele>534.0</ele>
        <time>2018-10-06T08:11:38.000Z</time>
      </trkpt>
      <trkpt lat="38.12452" lon="-4.92184">
        <ele>534.0</ele>
        <time>2018-10-06T08:11:39.000Z</time>
      </trkpt>
      <trkpt lat="38.12452" lon="-4.92184">
        <ele>534.0</ele>
        <time>2018-10-06T08:11:40.000Z</time>
      </trkpt>
      <trkpt lat="38.12452" lon="-4.92184">
        <ele>534.0</ele>
        <time>2018-10-06T08:11:41.000Z</time>
      </trkpt>
      <trkpt lat="38.12452" lon="-4.92184">
        <ele>534.0</ele>
        <time>2018-10-06T08:11:42.000Z</time>
      </trkpt>
      <trkpt lat="38.12452" lon="-4.92184">
        <ele>534.0</ele>
        <time>2018-10-06T08:11:43.000Z</time>
      </trkpt>
      <trkpt lat="38.12452" lon="-4.92184">
        <ele>534.0</ele>
        <time>2018-10-06T08:11:44.000Z</time>
      </trkpt>
      <trkpt lat="38.12452" lon="-4.92184">
        <ele>534.0</ele>
        <time>2018-10-06T08:11:45.000Z</time>
      </trkpt>
      <trkpt lat="38.12452" lon="-4.92184">
        <ele>534.0</ele>
        <time>2018-10-06T08:11:46.000Z</time>
      </trkpt>
      <trkpt lat="38.124505" lon="-4.92208167">
        <ele>546.0</ele>
        <time>2018-10-06T08:11:47.000Z</time>
      </trkpt>
      <trkpt lat="38.12451167" lon="-4.92215167">
        <ele>552.0</ele>
        <time>2018-10-06T08:11:48.000Z</time>
      </trkpt>
      <trkpt lat="38.12450833" lon="-4.92216333">
        <ele>552.0</ele>
        <time>2018-10-06T08:11:49.000Z</time>
      </trkpt>
      <trkpt lat="38.12450667" lon="-4.92217333">
        <ele>551.0</ele>
        <time>2018-10-06T08:11:50.000Z</time>
      </trkpt>
      <trkpt lat="38.12450333" lon="-4.922185">
        <ele>550.0</ele>
        <time>2018-10-06T08:11:51.000Z</time>
      </trkpt>
      <trkpt lat="38.12449833" lon="-4.92219167">
        <ele>550.0</ele>
        <time>2018-10-06T08:11:52.000Z</time>
      </trkpt>
      <trkpt lat="38.124495" lon="-4.92219833">
        <ele>549.0</ele>
        <time>2018-10-06T08:11:53.000Z</time>
      </trkpt>
      <trkpt lat="38.12449167" lon="-4.92220333">
        <ele>549.0</ele>
        <time>2018-10-06T08:11:54.000Z</time>
      </trkpt>
      <trkpt lat="38.12449" lon="-4.92220667">
        <ele>548.0</ele>
        <time>2018-10-06T08:11:55.000Z</time>
      </trkpt>
      <trkpt lat="38.12448833" lon="-4.92220833">
        <ele>548.0</ele>
        <time>2018-10-06T08:11:56.000Z</time>
      </trkpt>
      <trkpt lat="38.12448667" lon="-4.92220667">
        <ele>548.0</ele>
        <time>2018-10-06T08:11:57.000Z</time>
      </trkpt>
      <trkpt lat="38.124485" lon="-4.92220667">
        <ele>548.0</ele>
        <time>2018-10-06T08:11:58.000Z</time>
      </trkpt>
      <trkpt lat="38.124485" lon="-4.92220667">
        <ele>548.0</ele>
        <time>2018-10-06T08:11:59.000Z</time>
      </trkpt>
      <trkpt lat="38.124485" lon="-4.92220667">
        <ele>548.0</ele>
        <time>2018-10-06T08:12:00.000Z</time>
      </trkpt>
      <trkpt lat="38.124485" lon="-4.92220667">
        <ele>548.0</ele>
        <time>2018-10-06T08:12:01.000Z</time>
      </trkpt>
      <trkpt lat="38.124485" lon="-4.92220667">
        <ele>548.0</ele>
        <time>2018-10-06T08:12:02.000Z</time>
      </trkpt>
      <trkpt lat="38.124485" lon="-4.92220667">
        <ele>548.0</ele>
        <time>2018-10-06T08:12:03.000Z</time>
      </trkpt>
      <trkpt lat="38.124485" lon="-4.92220667">
        <ele>548.0</ele>
        <time>2018-10-06T08:12:04.000Z</time>
      </trkpt>
      <trkpt lat="38.124485" lon="-4.92220667">
        <ele>548.0</ele>
        <time>2018-10-06T08:12:05.000Z</time>
      </trkpt>
      <trkpt lat="38.124485" lon="-4.92220667">
        <ele>548.0</ele>
        <time>2018-10-06T08:12:06.000Z</time>
      </trkpt>
      <trkpt lat="38.124485" lon="-4.92220667">
        <ele>548.0</ele>
        <time>2018-10-06T08:12:07.000Z</time>
      </trkpt>
      <trkpt lat="38.124485" lon="-4.92220667">
        <ele>548.0</ele>
        <time>2018-10-06T08:12:08.000Z</time>
      </trkpt>
      <trkpt lat="38.124485" lon="-4.92220667">
        <ele>548.0</ele>
        <time>2018-10-06T08:12:09.000Z</time>
      </trkpt>
      <trkpt lat="38.124485" lon="-4.92220667">
        <ele>548.0</ele>
        <time>2018-10-06T08:12:10.000Z</time>
      </trkpt>
      <trkpt lat="38.124485" lon="-4.92220667">
        <ele>548.0</ele>
        <time>2018-10-06T08:12:11.000Z</time>
      </trkpt>
      <trkpt lat="38.124485" lon="-4.92220667">
        <ele>548.0</ele>
        <time>2018-10-06T08:12:12.000Z</time>
      </trkpt>
      <trkpt lat="38.124485" lon="-4.92220667">
        <ele>548.0</ele>
        <time>2018-10-06T08:12:13.000Z</time>
      </trkpt>
      <trkpt lat="38.124485" lon="-4.92220667">
        <ele>548.0</ele>
        <time>2018-10-06T08:12:14.000Z</time>
      </trkpt>
      <trkpt lat="38.124485" lon="-4.92220667">
        <ele>548.0</ele>
        <time>2018-10-06T08:12:15.000Z</time>
      </trkpt>
      <trkpt lat="38.124485" lon="-4.92220667">
        <ele>548.0</ele>
        <time>2018-10-06T08:12:16.000Z</time>
      </trkpt>
      <trkpt lat="38.124485" lon="-4.92220667">
        <ele>548.0</ele>
        <time>2018-10-06T08:12:17.000Z</time>
      </trkpt>
      <trkpt lat="38.124485" lon="-4.92220667">
        <ele>548.0</ele>
        <time>2018-10-06T08:12:18.000Z</time>
      </trkpt>
      <trkpt lat="38.124485" lon="-4.92220667">
        <ele>548.0</ele>
        <time>2018-10-06T08:12:19.000Z</time>
      </trkpt>
      <trkpt lat="38.124485" lon="-4.92220667">
        <ele>548.0</ele>
        <time>2018-10-06T08:12:20.000Z</time>
      </trkpt>
      <trkpt lat="38.124485" lon="-4.92220667">
        <ele>548.0</ele>
        <time>2018-10-06T08:12:21.000Z</time>
      </trkpt>
      <trkpt lat="38.124485" lon="-4.92220667">
        <ele>548.0</ele>
        <time>2018-10-06T08:12:22.000Z</time>
      </trkpt>
      <trkpt lat="38.124485" lon="-4.92220667">
        <ele>548.0</ele>
        <time>2018-10-06T08:12:23.000Z</time>
      </trkpt>
      <trkpt lat="38.124485" lon="-4.92220667">
        <ele>548.0</ele>
        <time>2018-10-06T08:12:24.000Z</time>
      </trkpt>
      <trkpt lat="38.124485" lon="-4.92220667">
        <ele>548.0</ele>
        <time>2018-10-06T08:12:25.000Z</time>
      </trkpt>
      <trkpt lat="38.124485" lon="-4.92220667">
        <ele>548.0</ele>
        <time>2018-10-06T08:12:26.000Z</time>
      </trkpt>
      <trkpt lat="38.124485" lon="-4.92220667">
        <ele>548.0</ele>
        <time>2018-10-06T08:12:27.000Z</time>
      </trkpt>
      <trkpt lat="38.124485" lon="-4.92220667">
        <ele>548.0</ele>
        <time>2018-10-06T08:12:28.000Z</time>
      </trkpt>
      <trkpt lat="38.124485" lon="-4.92220667">
        <ele>548.0</ele>
        <time>2018-10-06T08:12:29.000Z</time>
      </trkpt>
      <trkpt lat="38.124485" lon="-4.92220667">
        <ele>548.0</ele>
        <time>2018-10-06T08:12:30.000Z</time>
      </trkpt>
      <trkpt lat="38.124485" lon="-4.92220667">
        <ele>548.0</ele>
        <time>2018-10-06T08:12:31.000Z</time>
      </trkpt>
      <trkpt lat="38.124485" lon="-4.92220667">
        <ele>548.0</ele>
        <time>2018-10-06T08:12:32.000Z</time>
      </trkpt>
      <trkpt lat="38.124485" lon="-4.92220667">
        <ele>548.0</ele>
        <time>2018-10-06T08:12:33.000Z</time>
      </trkpt>
      <trkpt lat="38.124485" lon="-4.92220667">
        <ele>548.0</ele>
        <time>2018-10-06T08:12:34.000Z</time>
      </trkpt>
      <trkpt lat="38.124485" lon="-4.92220667">
        <ele>548.0</ele>
        <time>2018-10-06T08:12:35.000Z</time>
      </trkpt>
      <trkpt lat="38.124485" lon="-4.92220667">
        <ele>548.0</ele>
        <time>2018-10-06T08:12:36.000Z</time>
      </trkpt>
      <trkpt lat="38.124485" lon="-4.92220667">
        <ele>548.0</ele>
        <time>2018-10-06T08:12:37.000Z</time>
      </trkpt>
      <trkpt lat="38.124485" lon="-4.92220667">
        <ele>548.0</ele>
        <time>2018-10-06T08:12:38.000Z</time>
      </trkpt>
      <trkpt lat="38.124485" lon="-4.92220667">
        <ele>548.0</ele>
        <time>2018-10-06T08:12:39.000Z</time>
      </trkpt>
      <trkpt lat="38.124485" lon="-4.92220667">
        <ele>548.0</ele>
        <time>2018-10-06T08:12:40.000Z</time>
      </trkpt>
      <trkpt lat="38.124485" lon="-4.92220667">
        <ele>548.0</ele>
        <time>2018-10-06T08:12:41.000Z</time>
      </trkpt>
      <trkpt lat="38.124485" lon="-4.92220667">
        <ele>548.0</ele>
        <time>2018-10-06T08:12:42.000Z</time>
      </trkpt>
      <trkpt lat="38.124485" lon="-4.92220667">
        <ele>548.0</ele>
        <time>2018-10-06T08:12:43.000Z</time>
      </trkpt>
      <trkpt lat="38.124485" lon="-4.92220667">
        <ele>548.0</ele>
        <time>2018-10-06T08:12:44.000Z</time>
      </trkpt>
      <trkpt lat="38.124485" lon="-4.92220667">
        <ele>548.0</ele>
        <time>2018-10-06T08:12:45.000Z</time>
      </trkpt>
      <trkpt lat="38.124485" lon="-4.92220667">
        <ele>548.0</ele>
        <time>2018-10-06T08:12:46.000Z</time>
      </trkpt>
      <trkpt lat="38.12446167" lon="-4.92218833">
        <ele>548.0</ele>
        <time>2018-10-06T08:12:47.000Z</time>
      </trkpt>
      <trkpt lat="38.12446167" lon="-4.92218833">
        <ele>548.0</ele>
        <time>2018-10-06T08:12:48.000Z</time>
      </trkpt>
      <trkpt lat="38.12445667" lon="-4.92218333">
        <ele>547.0</ele>
        <time>2018-10-06T08:12:49.000Z</time>
      </trkpt>
      <trkpt lat="38.12445667" lon="-4.92218333">
        <ele>547.0</ele>
        <time>2018-10-06T08:12:50.000Z</time>
      </trkpt>
      <trkpt lat="38.12445833" lon="-4.92218167">
        <ele>547.0</ele>
        <time>2018-10-06T08:12:51.000Z</time>
      </trkpt>
      <trkpt lat="38.12446" lon="-4.92218167">
        <ele>547.0</ele>
        <time>2018-10-06T08:12:52.000Z</time>
      </trkpt>
      <trkpt lat="38.12446" lon="-4.92218167">
        <ele>547.0</ele>
        <time>2018-10-06T08:12:53.000Z</time>
      </trkpt>
      <trkpt lat="38.12446167" lon="-4.92218167">
        <ele>547.0</ele>
        <time>2018-10-06T08:12:54.000Z</time>
      </trkpt>
      <trkpt lat="38.12446167" lon="-4.92218167">
        <ele>548.0</ele>
        <time>2018-10-06T08:12:55.000Z</time>
      </trkpt>
      <trkpt lat="38.12446167" lon="-4.92218167">
        <ele>548.0</ele>
        <time>2018-10-06T08:12:56.000Z</time>
      </trkpt>
      <trkpt lat="38.12446333" lon="-4.92218">
        <ele>548.0</ele>
        <time>2018-10-06T08:12:57.000Z</time>
      </trkpt>
      <trkpt lat="38.12446333" lon="-4.92218">
        <ele>548.0</ele>
        <time>2018-10-06T08:12:58.000Z</time>
      </trkpt>
      <trkpt lat="38.124465" lon="-4.92218">
        <ele>548.0</ele>
        <time>2018-10-06T08:12:59.000Z</time>
      </trkpt>
      <trkpt lat="38.124465" lon="-4.92218">
        <ele>548.0</ele>
        <time>2018-10-06T08:13:00.000Z</time>
      </trkpt>
      <trkpt lat="38.124465" lon="-4.92218">
        <ele>548.0</ele>
        <time>2018-10-06T08:13:01.000Z</time>
      </trkpt>
      <trkpt lat="38.124465" lon="-4.92218">
        <ele>548.0</ele>
        <time>2018-10-06T08:13:02.000Z</time>
      </trkpt>
      <trkpt lat="38.124465" lon="-4.92218">
        <ele>548.0</ele>
        <time>2018-10-06T08:13:03.000Z</time>
      </trkpt>
      <trkpt lat="38.124465" lon="-4.92218">
        <ele>548.0</ele>
        <time>2018-10-06T08:13:04.000Z</time>
      </trkpt>
      <trkpt lat="38.124465" lon="-4.92218">
        <ele>548.0</ele>
        <time>2018-10-06T08:13:05.000Z</time>
      </trkpt>
      <trkpt lat="38.124465" lon="-4.92218">
        <ele>548.0</ele>
        <time>2018-10-06T08:13:06.000Z</time>
      </trkpt>
      <trkpt lat="38.124465" lon="-4.92218">
        <ele>548.0</ele>
        <time>2018-10-06T08:13:07.000Z</time>
      </trkpt>
      <trkpt lat="38.124465" lon="-4.92218">
        <ele>548.0</ele>
        <time>2018-10-06T08:13:08.000Z</time>
      </trkpt>
      <trkpt lat="38.124465" lon="-4.92218">
        <ele>548.0</ele>
        <time>2018-10-06T08:13:09.000Z</time>
      </trkpt>
      <trkpt lat="38.124465" lon="-4.92218">
        <ele>548.0</ele>
        <time>2018-10-06T08:13:10.000Z</time>
      </trkpt>
      <trkpt lat="38.124465" lon="-4.92218">
        <ele>548.0</ele>
        <time>2018-10-06T08:13:11.000Z</time>
      </trkpt>
      <trkpt lat="38.124465" lon="-4.92218">
        <ele>548.0</ele>
        <time>2018-10-06T08:13:12.000Z</time>
      </trkpt>
      <trkpt lat="38.124465" lon="-4.92218">
        <ele>548.0</ele>
        <time>2018-10-06T08:13:13.000Z</time>
      </trkpt>
      <trkpt lat="38.124465" lon="-4.92218">
        <ele>548.0</ele>
        <time>2018-10-06T08:13:14.000Z</time>
      </trkpt>
      <trkpt lat="38.124465" lon="-4.92218">
        <ele>548.0</ele>
        <time>2018-10-06T08:13:15.000Z</time>
      </trkpt>
      <trkpt lat="38.124465" lon="-4.92218">
        <ele>548.0</ele>
        <time>2018-10-06T08:13:16.000Z</time>
      </trkpt>
      <trkpt lat="38.124465" lon="-4.92218">
        <ele>548.0</ele>
        <time>2018-10-06T08:13:17.000Z</time>
      </trkpt>
      <trkpt lat="38.124465" lon="-4.92218">
        <ele>548.0</ele>
        <time>2018-10-06T08:13:18.000Z</time>
      </trkpt>
      <trkpt lat="38.124465" lon="-4.92218">
        <ele>548.0</ele>
        <time>2018-10-06T08:13:19.000Z</time>
      </trkpt>
      <trkpt lat="38.124465" lon="-4.92218">
        <ele>548.0</ele>
        <time>2018-10-06T08:13:20.000Z</time>
      </trkpt>
      <trkpt lat="38.124465" lon="-4.92218">
        <ele>548.0</ele>
        <time>2018-10-06T08:13:21.000Z</time>
      </trkpt>
      <trkpt lat="38.124465" lon="-4.92218">
        <ele>548.0</ele>
        <time>2018-10-06T08:13:22.000Z</time>
      </trkpt>
      <trkpt lat="38.124465" lon="-4.92218">
        <ele>548.0</ele>
        <time>2018-10-06T08:13:23.000Z</time>
      </trkpt>
      <trkpt lat="38.124465" lon="-4.92218">
        <ele>548.0</ele>
        <time>2018-10-06T08:13:24.000Z</time>
      </trkpt>
      <trkpt lat="38.124465" lon="-4.92218">
        <ele>548.0</ele>
        <time>2018-10-06T08:13:25.000Z</time>
      </trkpt>
      <trkpt lat="38.124465" lon="-4.92218">
        <ele>548.0</ele>
        <time>2018-10-06T08:13:26.000Z</time>
      </trkpt>
      <trkpt lat="38.124465" lon="-4.92218">
        <ele>548.0</ele>
        <time>2018-10-06T08:13:27.000Z</time>
      </trkpt>
      <trkpt lat="38.124465" lon="-4.92218">
        <ele>548.0</ele>
        <time>2018-10-06T08:13:28.000Z</time>
      </trkpt>
      <trkpt lat="38.124465" lon="-4.92218">
        <ele>548.0</ele>
        <time>2018-10-06T08:13:29.000Z</time>
      </trkpt>
      <trkpt lat="38.124465" lon="-4.92218">
        <ele>548.0</ele>
        <time>2018-10-06T08:13:30.000Z</time>
      </trkpt>
      <trkpt lat="38.124465" lon="-4.92218">
        <ele>548.0</ele>
        <time>2018-10-06T08:13:31.000Z</time>
      </trkpt>
      <trkpt lat="38.124465" lon="-4.92218">
        <ele>548.0</ele>
        <time>2018-10-06T08:13:32.000Z</time>
      </trkpt>
      <trkpt lat="38.124465" lon="-4.92218">
        <ele>548.0</ele>
        <time>2018-10-06T08:13:33.000Z</time>
      </trkpt>
      <trkpt lat="38.124465" lon="-4.92218">
        <ele>548.0</ele>
        <time>2018-10-06T08:13:34.000Z</time>
      </trkpt>
      <trkpt lat="38.124465" lon="-4.92218">
        <ele>548.0</ele>
        <time>2018-10-06T08:13:35.000Z</time>
      </trkpt>
      <trkpt lat="38.124465" lon="-4.92218">
        <ele>548.0</ele>
        <time>2018-10-06T08:13:36.000Z</time>
      </trkpt>
      <trkpt lat="38.124465" lon="-4.92218">
        <ele>548.0</ele>
        <time>2018-10-06T08:13:37.000Z</time>
      </trkpt>
      <trkpt lat="38.124465" lon="-4.92218">
        <ele>548.0</ele>
        <time>2018-10-06T08:13:38.000Z</time>
      </trkpt>
      <trkpt lat="38.124465" lon="-4.92218">
        <ele>548.0</ele>
        <time>2018-10-06T08:13:39.000Z</time>
      </trkpt>
      <trkpt lat="38.124465" lon="-4.92218">
        <ele>548.0</ele>
        <time>2018-10-06T08:13:40.000Z</time>
      </trkpt>
      <trkpt lat="38.124465" lon="-4.92218">
        <ele>548.0</ele>
        <time>2018-10-06T08:13:41.000Z</time>
      </trkpt>
      <trkpt lat="38.124465" lon="-4.92218">
        <ele>548.0</ele>
        <time>2018-10-06T08:13:42.000Z</time>
      </trkpt>
      <trkpt lat="38.124465" lon="-4.92218">
        <ele>548.0</ele>
        <time>2018-10-06T08:13:43.000Z</time>
      </trkpt>
      <trkpt lat="38.124465" lon="-4.92218">
        <ele>548.0</ele>
        <time>2018-10-06T08:13:44.000Z</time>
      </trkpt>
      <trkpt lat="38.124465" lon="-4.92218">
        <ele>548.0</ele>
        <time>2018-10-06T08:13:45.000Z</time>
      </trkpt>
      <trkpt lat="38.124465" lon="-4.92218">
        <ele>548.0</ele>
        <time>2018-10-06T08:13:46.000Z</time>
      </trkpt>
      <trkpt lat="38.124465" lon="-4.92218">
        <ele>548.0</ele>
        <time>2018-10-06T08:13:47.000Z</time>
      </trkpt>
      <trkpt lat="38.124415" lon="-4.92223833">
        <ele>555.0</ele>
        <time>2018-10-06T08:13:48.000Z</time>
      </trkpt>
      <trkpt lat="38.12441167" lon="-4.922235">
        <ele>554.0</ele>
        <time>2018-10-06T08:13:49.000Z</time>
      </trkpt>
      <trkpt lat="38.12441167" lon="-4.92223167">
        <ele>553.0</ele>
        <time>2018-10-06T08:13:50.000Z</time>
      </trkpt>
      <trkpt lat="38.12441167" lon="-4.92222667">
        <ele>553.0</ele>
        <time>2018-10-06T08:13:51.000Z</time>
      </trkpt>
      <trkpt lat="38.12441667" lon="-4.92222">
        <ele>552.0</ele>
        <time>2018-10-06T08:13:52.000Z</time>
      </trkpt>
      <trkpt lat="38.124415" lon="-4.922215">
        <ele>551.0</ele>
        <time>2018-10-06T08:13:53.000Z</time>
      </trkpt>
      <trkpt lat="38.124415" lon="-4.92220833">
        <ele>551.0</ele>
        <time>2018-10-06T08:13:54.000Z</time>
      </trkpt>
      <trkpt lat="38.124415" lon="-4.92220333">
        <ele>550.0</ele>
        <time>2018-10-06T08:13:55.000Z</time>
      </trkpt>
      <trkpt lat="38.12441667" lon="-4.9222">
        <ele>549.0</ele>
        <time>2018-10-06T08:13:56.000Z</time>
      </trkpt>
      <trkpt lat="38.12441667" lon="-4.922195">
        <ele>549.0</ele>
        <time>2018-10-06T08:13:57.000Z</time>
      </trkpt>
      <trkpt lat="38.12441833" lon="-4.92219167">
        <ele>549.0</ele>
        <time>2018-10-06T08:13:58.000Z</time>
      </trkpt>
      <trkpt lat="38.12441833" lon="-4.92218833">
        <ele>548.0</ele>
        <time>2018-10-06T08:13:59.000Z</time>
      </trkpt>
      <trkpt lat="38.12442" lon="-4.92218667">
        <ele>548.0</ele>
        <time>2018-10-06T08:14:00.000Z</time>
      </trkpt>
      <trkpt lat="38.12442167" lon="-4.922185">
        <ele>548.0</ele>
        <time>2018-10-06T08:14:01.000Z</time>
      </trkpt>
      <trkpt lat="38.12442333" lon="-4.92218">
        <ele>547.0</ele>
        <time>2018-10-06T08:14:02.000Z</time>
      </trkpt>
      <trkpt lat="38.12442333" lon="-4.92217667">
        <ele>547.0</ele>
        <time>2018-10-06T08:14:03.000Z</time>
      </trkpt>
      <trkpt lat="38.124425" lon="-4.922175">
        <ele>547.0</ele>
        <time>2018-10-06T08:14:04.000Z</time>
      </trkpt>
      <trkpt lat="38.124425" lon="-4.922175">
        <ele>547.0</ele>
        <time>2018-10-06T08:14:05.000Z</time>
      </trkpt>
      <trkpt lat="38.124425" lon="-4.92217333">
        <ele>547.0</ele>
        <time>2018-10-06T08:14:06.000Z</time>
      </trkpt>
      <trkpt lat="38.124425" lon="-4.92217167">
        <ele>547.0</ele>
        <time>2018-10-06T08:14:07.000Z</time>
      </trkpt>
      <trkpt lat="38.12442333" lon="-4.92217167">
        <ele>547.0</ele>
        <time>2018-10-06T08:14:08.000Z</time>
      </trkpt>
      <trkpt lat="38.12442333" lon="-4.92217">
        <ele>547.0</ele>
        <time>2018-10-06T08:14:09.000Z</time>
      </trkpt>
      <trkpt lat="38.12442333" lon="-4.92217">
        <ele>547.0</ele>
        <time>2018-10-06T08:14:10.000Z</time>
      </trkpt>
      <trkpt lat="38.124425" lon="-4.92216833">
        <ele>546.0</ele>
        <time>2018-10-06T08:14:11.000Z</time>
      </trkpt>
      <trkpt lat="38.124425" lon="-4.92216667">
        <ele>546.0</ele>
        <time>2018-10-06T08:14:12.000Z</time>
      </trkpt>
      <trkpt lat="38.124425" lon="-4.92216667">
        <ele>546.0</ele>
        <time>2018-10-06T08:14:13.000Z</time>
      </trkpt>
      <trkpt lat="38.12442333" lon="-4.92216833">
        <ele>546.0</ele>
        <time>2018-10-06T08:14:14.000Z</time>
      </trkpt>
      <trkpt lat="38.12442333" lon="-4.92216833">
        <ele>546.0</ele>
        <time>2018-10-06T08:14:15.000Z</time>
      </trkpt>
      <trkpt lat="38.12442333" lon="-4.92216833">
        <ele>546.0</ele>
        <time>2018-10-06T08:14:16.000Z</time>
      </trkpt>
      <trkpt lat="38.12442333" lon="-4.92216833">
        <ele>546.0</ele>
        <time>2018-10-06T08:14:17.000Z</time>
      </trkpt>
      <trkpt lat="38.124425" lon="-4.92216667">
        <ele>546.0</ele>
        <time>2018-10-06T08:14:18.000Z</time>
      </trkpt>
      <trkpt lat="38.124425" lon="-4.92216667">
        <ele>546.0</ele>
        <time>2018-10-06T08:14:19.000Z</time>
      </trkpt>
      <trkpt lat="38.12442667" lon="-4.922165">
        <ele>546.0</ele>
        <time>2018-10-06T08:14:20.000Z</time>
      </trkpt>
      <trkpt lat="38.12442667" lon="-4.922165">
        <ele>546.0</ele>
        <time>2018-10-06T08:14:21.000Z</time>
      </trkpt>
      <trkpt lat="38.12442667" lon="-4.922165">
        <ele>546.0</ele>
        <time>2018-10-06T08:14:22.000Z</time>
      </trkpt>
      <trkpt lat="38.12442667" lon="-4.922165">
        <ele>546.0</ele>
        <time>2018-10-06T08:14:23.000Z</time>
      </trkpt>
      <trkpt lat="38.12442667" lon="-4.922165">
        <ele>546.0</ele>
        <time>2018-10-06T08:14:24.000Z</time>
      </trkpt>
      <trkpt lat="38.12442667" lon="-4.922165">
        <ele>546.0</ele>
        <time>2018-10-06T08:14:25.000Z</time>
      </trkpt>
      <trkpt lat="38.12442667" lon="-4.922165">
        <ele>546.0</ele>
        <time>2018-10-06T08:14:26.000Z</time>
      </trkpt>
      <trkpt lat="38.12442667" lon="-4.922165">
        <ele>546.0</ele>
        <time>2018-10-06T08:14:27.000Z</time>
      </trkpt>
      <trkpt lat="38.12442667" lon="-4.922165">
        <ele>546.0</ele>
        <time>2018-10-06T08:14:28.000Z</time>
      </trkpt>
      <trkpt lat="38.12442667" lon="-4.922165">
        <ele>546.0</ele>
        <time>2018-10-06T08:14:29.000Z</time>
      </trkpt>
      <trkpt lat="38.12442667" lon="-4.922165">
        <ele>546.0</ele>
        <time>2018-10-06T08:14:30.000Z</time>
      </trkpt>
      <trkpt lat="38.12442667" lon="-4.922165">
        <ele>546.0</ele>
        <time>2018-10-06T08:14:31.000Z</time>
      </trkpt>
      <trkpt lat="38.12442667" lon="-4.922165">
        <ele>546.0</ele>
        <time>2018-10-06T08:14:32.000Z</time>
      </trkpt>
      <trkpt lat="38.12442667" lon="-4.922165">
        <ele>546.0</ele>
        <time>2018-10-06T08:14:33.000Z</time>
      </trkpt>
      <trkpt lat="38.12442667" lon="-4.922165">
        <ele>546.0</ele>
        <time>2018-10-06T08:14:34.000Z</time>
      </trkpt>
      <trkpt lat="38.12442667" lon="-4.922165">
        <ele>546.0</ele>
        <time>2018-10-06T08:14:35.000Z</time>
      </trkpt>
      <trkpt lat="38.12442667" lon="-4.922165">
        <ele>546.0</ele>
        <time>2018-10-06T08:14:36.000Z</time>
      </trkpt>
      <trkpt lat="38.12442667" lon="-4.922165">
        <ele>546.0</ele>
        <time>2018-10-06T08:14:37.000Z</time>
      </trkpt>
      <trkpt lat="38.12442667" lon="-4.922165">
        <ele>546.0</ele>
        <time>2018-10-06T08:14:38.000Z</time>
      </trkpt>
      <trkpt lat="38.12442667" lon="-4.922165">
        <ele>546.0</ele>
        <time>2018-10-06T08:14:39.000Z</time>
      </trkpt>
      <trkpt lat="38.12442667" lon="-4.922165">
        <ele>546.0</ele>
        <time>2018-10-06T08:14:40.000Z</time>
      </trkpt>
      <trkpt lat="38.12442667" lon="-4.922165">
        <ele>546.0</ele>
        <time>2018-10-06T08:14:41.000Z</time>
      </trkpt>
      <trkpt lat="38.12442667" lon="-4.922165">
        <ele>546.0</ele>
        <time>2018-10-06T08:14:42.000Z</time>
      </trkpt>
      <trkpt lat="38.12442667" lon="-4.922165">
        <ele>546.0</ele>
        <time>2018-10-06T08:14:43.000Z</time>
      </trkpt>
      <trkpt lat="38.12442667" lon="-4.922165">
        <ele>546.0</ele>
        <time>2018-10-06T08:14:44.000Z</time>
      </trkpt>
      <trkpt lat="38.12442667" lon="-4.922165">
        <ele>546.0</ele>
        <time>2018-10-06T08:14:45.000Z</time>
      </trkpt>
      <trkpt lat="38.12442667" lon="-4.922165">
        <ele>546.0</ele>
        <time>2018-10-06T08:14:46.000Z</time>
      </trkpt>
      <trkpt lat="38.12442667" lon="-4.922165">
        <ele>546.0</ele>
        <time>2018-10-06T08:14:47.000Z</time>
      </trkpt>
      <trkpt lat="38.12444" lon="-4.922135">
        <ele>541.0</ele>
        <time>2018-10-06T08:14:48.000Z</time>
      </trkpt>
      <trkpt lat="38.12444" lon="-4.92213667">
        <ele>541.0</ele>
        <time>2018-10-06T08:14:49.000Z</time>
      </trkpt>
      <trkpt lat="38.12444" lon="-4.92213833">
        <ele>542.0</ele>
        <time>2018-10-06T08:14:50.000Z</time>
      </trkpt>
      <trkpt lat="38.12444" lon="-4.92214">
        <ele>542.0</ele>
        <time>2018-10-06T08:14:51.000Z</time>
      </trkpt>
      <trkpt lat="38.12444" lon="-4.92214">
        <ele>542.0</ele>
        <time>2018-10-06T08:14:52.000Z</time>
      </trkpt>
      <trkpt lat="38.12443833" lon="-4.92214167">
        <ele>542.0</ele>
        <time>2018-10-06T08:14:53.000Z</time>
      </trkpt>
      <trkpt lat="38.12443833" lon="-4.92214333">
        <ele>543.0</ele>
        <time>2018-10-06T08:14:54.000Z</time>
      </trkpt>
      <trkpt lat="38.12443833" lon="-4.922145">
        <ele>543.0</ele>
        <time>2018-10-06T08:14:55.000Z</time>
      </trkpt>
      <trkpt lat="38.12443833" lon="-4.922145">
        <ele>543.0</ele>
        <time>2018-10-06T08:14:56.000Z</time>
      </trkpt>
      <trkpt lat="38.12443667" lon="-4.92214667">
        <ele>543.0</ele>
        <time>2018-10-06T08:14:57.000Z</time>
      </trkpt>
      <trkpt lat="38.12443667" lon="-4.92214667">
        <ele>543.0</ele>
        <time>2018-10-06T08:14:58.000Z</time>
      </trkpt>
      <trkpt lat="38.12443667" lon="-4.92214667">
        <ele>543.0</ele>
        <time>2018-10-06T08:14:59.000Z</time>
      </trkpt>
      <trkpt lat="38.12443667" lon="-4.92214667">
        <ele>543.0</ele>
        <time>2018-10-06T08:15:00.000Z</time>
      </trkpt>
      <trkpt lat="38.12443667" lon="-4.92214667">
        <ele>543.0</ele>
        <time>2018-10-06T08:15:01.000Z</time>
      </trkpt>
      <trkpt lat="38.12443667" lon="-4.92214667">
        <ele>543.0</ele>
        <time>2018-10-06T08:15:02.000Z</time>
      </trkpt>
      <trkpt lat="38.12443667" lon="-4.92214667">
        <ele>543.0</ele>
        <time>2018-10-06T08:15:03.000Z</time>
      </trkpt>
      <trkpt lat="38.12443667" lon="-4.92214667">
        <ele>543.0</ele>
        <time>2018-10-06T08:15:04.000Z</time>
      </trkpt>
      <trkpt lat="38.12443667" lon="-4.92214667">
        <ele>543.0</ele>
        <time>2018-10-06T08:15:05.000Z</time>
      </trkpt>
      <trkpt lat="38.12443667" lon="-4.92214667">
        <ele>543.0</ele>
        <time>2018-10-06T08:15:06.000Z</time>
      </trkpt>
      <trkpt lat="38.12443667" lon="-4.92214667">
        <ele>543.0</ele>
        <time>2018-10-06T08:15:07.000Z</time>
      </trkpt>
      <trkpt lat="38.12443667" lon="-4.92214667">
        <ele>543.0</ele>
        <time>2018-10-06T08:15:08.000Z</time>
      </trkpt>
      <trkpt lat="38.12443667" lon="-4.92214667">
        <ele>543.0</ele>
        <time>2018-10-06T08:15:09.000Z</time>
      </trkpt>
      <trkpt lat="38.12443667" lon="-4.92214667">
        <ele>543.0</ele>
        <time>2018-10-06T08:15:10.000Z</time>
      </trkpt>
      <trkpt lat="38.12443667" lon="-4.92214667">
        <ele>543.0</ele>
        <time>2018-10-06T08:15:11.000Z</time>
      </trkpt>
      <trkpt lat="38.12443667" lon="-4.92214667">
        <ele>543.0</ele>
        <time>2018-10-06T08:15:12.000Z</time>
      </trkpt>
      <trkpt lat="38.12443667" lon="-4.92214667">
        <ele>543.0</ele>
        <time>2018-10-06T08:15:13.000Z</time>
      </trkpt>
      <trkpt lat="38.12443667" lon="-4.92214667">
        <ele>543.0</ele>
        <time>2018-10-06T08:15:14.000Z</time>
      </trkpt>
      <trkpt lat="38.12443667" lon="-4.92214667">
        <ele>543.0</ele>
        <time>2018-10-06T08:15:15.000Z</time>
      </trkpt>
      <trkpt lat="38.12443667" lon="-4.92214667">
        <ele>543.0</ele>
        <time>2018-10-06T08:15:16.000Z</time>
      </trkpt>
      <trkpt lat="38.12443667" lon="-4.92214667">
        <ele>543.0</ele>
        <time>2018-10-06T08:15:17.000Z</time>
      </trkpt>
      <trkpt lat="38.12443667" lon="-4.92214667">
        <ele>543.0</ele>
        <time>2018-10-06T08:15:18.000Z</time>
      </trkpt>
      <trkpt lat="38.12443667" lon="-4.92214667">
        <ele>543.0</ele>
        <time>2018-10-06T08:15:19.000Z</time>
      </trkpt>
      <trkpt lat="38.12443667" lon="-4.92214667">
        <ele>543.0</ele>
        <time>2018-10-06T08:15:20.000Z</time>
      </trkpt>
      <trkpt lat="38.12443667" lon="-4.92214667">
        <ele>543.0</ele>
        <time>2018-10-06T08:15:21.000Z</time>
      </trkpt>
      <trkpt lat="38.12443667" lon="-4.92214667">
        <ele>543.0</ele>
        <time>2018-10-06T08:15:22.000Z</time>
      </trkpt>
      <trkpt lat="38.12443667" lon="-4.92214667">
        <ele>543.0</ele>
        <time>2018-10-06T08:15:23.000Z</time>
      </trkpt>
      <trkpt lat="38.12443667" lon="-4.92214667">
        <ele>543.0</ele>
        <time>2018-10-06T08:15:24.000Z</time>
      </trkpt>
      <trkpt lat="38.12443667" lon="-4.92214667">
        <ele>543.0</ele>
        <time>2018-10-06T08:15:25.000Z</time>
      </trkpt>
      <trkpt lat="38.12443667" lon="-4.92214667">
        <ele>543.0</ele>
        <time>2018-10-06T08:15:26.000Z</time>
      </trkpt>
      <trkpt lat="38.12443667" lon="-4.92214667">
        <ele>543.0</ele>
        <time>2018-10-06T08:15:27.000Z</time>
      </trkpt>
      <trkpt lat="38.12443667" lon="-4.92214667">
        <ele>543.0</ele>
        <time>2018-10-06T08:15:28.000Z</time>
      </trkpt>
      <trkpt lat="38.12443667" lon="-4.92214667">
        <ele>543.0</ele>
        <time>2018-10-06T08:15:29.000Z</time>
      </trkpt>
      <trkpt lat="38.12443667" lon="-4.92214667">
        <ele>543.0</ele>
        <time>2018-10-06T08:15:30.000Z</time>
      </trkpt>
      <trkpt lat="38.12443667" lon="-4.92214667">
        <ele>543.0</ele>
        <time>2018-10-06T08:15:31.000Z</time>
      </trkpt>
      <trkpt lat="38.12443667" lon="-4.92214667">
        <ele>543.0</ele>
        <time>2018-10-06T08:15:32.000Z</time>
      </trkpt>
      <trkpt lat="38.12443667" lon="-4.92214667">
        <ele>543.0</ele>
        <time>2018-10-06T08:15:33.000Z</time>
      </trkpt>
      <trkpt lat="38.12443667" lon="-4.92214667">
        <ele>543.0</ele>
        <time>2018-10-06T08:15:34.000Z</time>
      </trkpt>
      <trkpt lat="38.12443667" lon="-4.92214667">
        <ele>543.0</ele>
        <time>2018-10-06T08:15:35.000Z</time>
      </trkpt>
      <trkpt lat="38.12443667" lon="-4.92214667">
        <ele>543.0</ele>
        <time>2018-10-06T08:15:36.000Z</time>
      </trkpt>
      <trkpt lat="38.12443667" lon="-4.92214667">
        <ele>543.0</ele>
        <time>2018-10-06T08:15:37.000Z</time>
      </trkpt>
      <trkpt lat="38.12443667" lon="-4.92214667">
        <ele>543.0</ele>
        <time>2018-10-06T08:15:38.000Z</time>
      </trkpt>
      <trkpt lat="38.12443667" lon="-4.92214667">
        <ele>543.0</ele>
        <time>2018-10-06T08:15:39.000Z</time>
      </trkpt>
      <trkpt lat="38.12443667" lon="-4.92214667">
        <ele>543.0</ele>
        <time>2018-10-06T08:15:40.000Z</time>
      </trkpt>
      <trkpt lat="38.12443667" lon="-4.92214667">
        <ele>543.0</ele>
        <time>2018-10-06T08:15:41.000Z</time>
      </trkpt>
      <trkpt lat="38.12443667" lon="-4.92214667">
        <ele>543.0</ele>
        <time>2018-10-06T08:15:42.000Z</time>
      </trkpt>
      <trkpt lat="38.12443667" lon="-4.92214667">
        <ele>543.0</ele>
        <time>2018-10-06T08:15:43.000Z</time>
      </trkpt>
      <trkpt lat="38.12443667" lon="-4.92214667">
        <ele>543.0</ele>
        <time>2018-10-06T08:15:44.000Z</time>
      </trkpt>
      <trkpt lat="38.12443667" lon="-4.92214667">
        <ele>543.0</ele>
        <time>2018-10-06T08:15:45.000Z</time>
      </trkpt>
      <trkpt lat="38.12443667" lon="-4.92214667">
        <ele>543.0</ele>
        <time>2018-10-06T08:15:46.000Z</time>
      </trkpt>
      <trkpt lat="38.12443667" lon="-4.92214667">
        <ele>543.0</ele>
        <time>2018-10-06T08:15:47.000Z</time>
      </trkpt>
      <trkpt lat="38.12443667" lon="-4.92211333">
        <ele>550.0</ele>
        <time>2018-10-06T08:15:48.000Z</time>
      </trkpt>
      <trkpt lat="38.12443667" lon="-4.92211333">
        <ele>549.0</ele>
        <time>2018-10-06T08:15:49.000Z</time>
      </trkpt>
      <trkpt lat="38.12443667" lon="-4.922115">
        <ele>549.0</ele>
        <time>2018-10-06T08:15:50.000Z</time>
      </trkpt>
      <trkpt lat="38.12443667" lon="-4.92211833">
        <ele>548.0</ele>
        <time>2018-10-06T08:15:51.000Z</time>
      </trkpt>
      <trkpt lat="38.12443667" lon="-4.92212">
        <ele>548.0</ele>
        <time>2018-10-06T08:15:52.000Z</time>
      </trkpt>
      <trkpt lat="38.12443667" lon="-4.92212333">
        <ele>548.0</ele>
        <time>2018-10-06T08:15:53.000Z</time>
      </trkpt>
      <trkpt lat="38.12443667" lon="-4.922125">
        <ele>548.0</ele>
        <time>2018-10-06T08:15:54.000Z</time>
      </trkpt>
      <trkpt lat="38.12443667" lon="-4.92212833">
        <ele>547.0</ele>
        <time>2018-10-06T08:15:55.000Z</time>
      </trkpt>
      <trkpt lat="38.12443667" lon="-4.92213167">
        <ele>547.0</ele>
        <time>2018-10-06T08:15:56.000Z</time>
      </trkpt>
      <trkpt lat="38.124435" lon="-4.92213333">
        <ele>547.0</ele>
        <time>2018-10-06T08:15:57.000Z</time>
      </trkpt>
      <trkpt lat="38.124435" lon="-4.922135">
        <ele>547.0</ele>
        <time>2018-10-06T08:15:58.000Z</time>
      </trkpt>
      <trkpt lat="38.124435" lon="-4.92213833">
        <ele>547.0</ele>
        <time>2018-10-06T08:15:59.000Z</time>
      </trkpt>
      <trkpt lat="38.124435" lon="-4.92213833">
        <ele>547.0</ele>
        <time>2018-10-06T08:16:00.000Z</time>
      </trkpt>
      <trkpt lat="38.124435" lon="-4.92213833">
        <ele>547.0</ele>
        <time>2018-10-06T08:16:01.000Z</time>
      </trkpt>
      <trkpt lat="38.124435" lon="-4.92213833">
        <ele>547.0</ele>
        <time>2018-10-06T08:16:02.000Z</time>
      </trkpt>
      <trkpt lat="38.124435" lon="-4.92213833">
        <ele>547.0</ele>
        <time>2018-10-06T08:16:03.000Z</time>
      </trkpt>
      <trkpt lat="38.124435" lon="-4.92213833">
        <ele>547.0</ele>
        <time>2018-10-06T08:16:04.000Z</time>
      </trkpt>
      <trkpt lat="38.124435" lon="-4.92213833">
        <ele>547.0</ele>
        <time>2018-10-06T08:16:05.000Z</time>
      </trkpt>
      <trkpt lat="38.124435" lon="-4.92213833">
        <ele>547.0</ele>
        <time>2018-10-06T08:16:06.000Z</time>
      </trkpt>
      <trkpt lat="38.124435" lon="-4.92213833">
        <ele>547.0</ele>
        <time>2018-10-06T08:16:07.000Z</time>
      </trkpt>
      <trkpt lat="38.124435" lon="-4.92213833">
        <ele>547.0</ele>
        <time>2018-10-06T08:16:08.000Z</time>
      </trkpt>
      <trkpt lat="38.124435" lon="-4.92213833">
        <ele>547.0</ele>
        <time>2018-10-06T08:16:09.000Z</time>
      </trkpt>
      <trkpt lat="38.124435" lon="-4.92213833">
        <ele>547.0</ele>
        <time>2018-10-06T08:16:10.000Z</time>
      </trkpt>
      <trkpt lat="38.124435" lon="-4.92213833">
        <ele>547.0</ele>
        <time>2018-10-06T08:16:11.000Z</time>
      </trkpt>
      <trkpt lat="38.124435" lon="-4.92213833">
        <ele>547.0</ele>
        <time>2018-10-06T08:16:12.000Z</time>
      </trkpt>
      <trkpt lat="38.124435" lon="-4.92213833">
        <ele>547.0</ele>
        <time>2018-10-06T08:16:13.000Z</time>
      </trkpt>
      <trkpt lat="38.124435" lon="-4.92213833">
        <ele>547.0</ele>
        <time>2018-10-06T08:16:14.000Z</time>
      </trkpt>
      <trkpt lat="38.124435" lon="-4.92213833">
        <ele>547.0</ele>
        <time>2018-10-06T08:16:15.000Z</time>
      </trkpt>
      <trkpt lat="38.124435" lon="-4.92213833">
        <ele>547.0</ele>
        <time>2018-10-06T08:16:16.000Z</time>
      </trkpt>
      <trkpt lat="38.124435" lon="-4.92213833">
        <ele>547.0</ele>
        <time>2018-10-06T08:16:17.000Z</time>
      </trkpt>
      <trkpt lat="38.124435" lon="-4.92213833">
        <ele>547.0</ele>
        <time>2018-10-06T08:16:18.000Z</time>
      </trkpt>
      <trkpt lat="38.124435" lon="-4.92213833">
        <ele>547.0</ele>
        <time>2018-10-06T08:16:19.000Z</time>
      </trkpt>
      <trkpt lat="38.124435" lon="-4.92213833">
        <ele>547.0</ele>
        <time>2018-10-06T08:16:20.000Z</time>
      </trkpt>
      <trkpt lat="38.124435" lon="-4.92213833">
        <ele>547.0</ele>
        <time>2018-10-06T08:16:21.000Z</time>
      </trkpt>
      <trkpt lat="38.124435" lon="-4.92213833">
        <ele>547.0</ele>
        <time>2018-10-06T08:16:22.000Z</time>
      </trkpt>
      <trkpt lat="38.124435" lon="-4.92213833">
        <ele>547.0</ele>
        <time>2018-10-06T08:16:23.000Z</time>
      </trkpt>
      <trkpt lat="38.124435" lon="-4.92213833">
        <ele>547.0</ele>
        <time>2018-10-06T08:16:24.000Z</time>
      </trkpt>
      <trkpt lat="38.124435" lon="-4.92213833">
        <ele>547.0</ele>
        <time>2018-10-06T08:16:25.000Z</time>
      </trkpt>
      <trkpt lat="38.124435" lon="-4.92213833">
        <ele>547.0</ele>
        <time>2018-10-06T08:16:26.000Z</time>
      </trkpt>
      <trkpt lat="38.124435" lon="-4.92213833">
        <ele>547.0</ele>
        <time>2018-10-06T08:16:27.000Z</time>
      </trkpt>
      <trkpt lat="38.124435" lon="-4.92213833">
        <ele>547.0</ele>
        <time>2018-10-06T08:16:28.000Z</time>
      </trkpt>
      <trkpt lat="38.124435" lon="-4.92213833">
        <ele>547.0</ele>
        <time>2018-10-06T08:16:29.000Z</time>
      </trkpt>
      <trkpt lat="38.124435" lon="-4.92213833">
        <ele>547.0</ele>
        <time>2018-10-06T08:16:30.000Z</time>
      </trkpt>
      <trkpt lat="38.124435" lon="-4.92213833">
        <ele>547.0</ele>
        <time>2018-10-06T08:16:31.000Z</time>
      </trkpt>
      <trkpt lat="38.124435" lon="-4.92213833">
        <ele>547.0</ele>
        <time>2018-10-06T08:16:32.000Z</time>
      </trkpt>
      <trkpt lat="38.124435" lon="-4.92213833">
        <ele>547.0</ele>
        <time>2018-10-06T08:16:33.000Z</time>
      </trkpt>
      <trkpt lat="38.124435" lon="-4.92213833">
        <ele>547.0</ele>
        <time>2018-10-06T08:16:34.000Z</time>
      </trkpt>
      <trkpt lat="38.124435" lon="-4.92213833">
        <ele>547.0</ele>
        <time>2018-10-06T08:16:35.000Z</time>
      </trkpt>
      <trkpt lat="38.124435" lon="-4.92213833">
        <ele>547.0</ele>
        <time>2018-10-06T08:16:36.000Z</time>
      </trkpt>
      <trkpt lat="38.124435" lon="-4.92213833">
        <ele>547.0</ele>
        <time>2018-10-06T08:16:37.000Z</time>
      </trkpt>
      <trkpt lat="38.124435" lon="-4.92213833">
        <ele>547.0</ele>
        <time>2018-10-06T08:16:38.000Z</time>
      </trkpt>
      <trkpt lat="38.124435" lon="-4.92213833">
        <ele>547.0</ele>
        <time>2018-10-06T08:16:39.000Z</time>
      </trkpt>
      <trkpt lat="38.124435" lon="-4.92213833">
        <ele>547.0</ele>
        <time>2018-10-06T08:16:40.000Z</time>
      </trkpt>
      <trkpt lat="38.124435" lon="-4.92213833">
        <ele>547.0</ele>
        <time>2018-10-06T08:16:41.000Z</time>
      </trkpt>
      <trkpt lat="38.124435" lon="-4.92213833">
        <ele>547.0</ele>
        <time>2018-10-06T08:16:42.000Z</time>
      </trkpt>
      <trkpt lat="38.124435" lon="-4.92213833">
        <ele>547.0</ele>
        <time>2018-10-06T08:16:43.000Z</time>
      </trkpt>
      <trkpt lat="38.124435" lon="-4.92213833">
        <ele>547.0</ele>
        <time>2018-10-06T08:16:44.000Z</time>
      </trkpt>
      <trkpt lat="38.124435" lon="-4.92213833">
        <ele>547.0</ele>
        <time>2018-10-06T08:16:45.000Z</time>
      </trkpt>
      <trkpt lat="38.124435" lon="-4.92213833">
        <ele>547.0</ele>
        <time>2018-10-06T08:16:46.000Z</time>
      </trkpt>
      <trkpt lat="38.124435" lon="-4.92213833">
        <ele>547.0</ele>
        <time>2018-10-06T08:16:47.000Z</time>
      </trkpt>
      <trkpt lat="38.12439833" lon="-4.922135">
        <ele>548.0</ele>
        <time>2018-10-06T08:16:48.000Z</time>
      </trkpt>
      <trkpt lat="38.12439667" lon="-4.92214">
        <ele>547.0</ele>
        <time>2018-10-06T08:16:49.000Z</time>
      </trkpt>
      <trkpt lat="38.12439833" lon="-4.92214167">
        <ele>547.0</ele>
        <time>2018-10-06T08:16:50.000Z</time>
      </trkpt>
      <trkpt lat="38.12440333" lon="-4.92214667">
        <ele>546.0</ele>
        <time>2018-10-06T08:16:51.000Z</time>
      </trkpt>
      <trkpt lat="38.12440667" lon="-4.922145">
        <ele>546.0</ele>
        <time>2018-10-06T08:16:52.000Z</time>
      </trkpt>
      <trkpt lat="38.12441" lon="-4.92214333">
        <ele>546.0</ele>
        <time>2018-10-06T08:16:53.000Z</time>
      </trkpt>
      <trkpt lat="38.124415" lon="-4.92214167">
        <ele>545.0</ele>
        <time>2018-10-06T08:16:54.000Z</time>
      </trkpt>
      <trkpt lat="38.12441667" lon="-4.92214167">
        <ele>545.0</ele>
        <time>2018-10-06T08:16:55.000Z</time>
      </trkpt>
      <trkpt lat="38.12442" lon="-4.922145">
        <ele>545.0</ele>
        <time>2018-10-06T08:16:56.000Z</time>
      </trkpt>
      <trkpt lat="38.12442167" lon="-4.92214833">
        <ele>545.0</ele>
        <time>2018-10-06T08:16:57.000Z</time>
      </trkpt>
      <trkpt lat="38.12442333" lon="-4.92215">
        <ele>545.0</ele>
        <time>2018-10-06T08:16:58.000Z</time>
      </trkpt>
      <trkpt lat="38.12442333" lon="-4.92214667">
        <ele>546.0</ele>
        <time>2018-10-06T08:16:59.000Z</time>
      </trkpt>
      <trkpt lat="38.12442333" lon="-4.92214667">
        <ele>546.0</ele>
        <time>2018-10-06T08:17:00.000Z</time>
      </trkpt>
      <trkpt lat="38.12442333" lon="-4.92214667">
        <ele>546.0</ele>
        <time>2018-10-06T08:17:01.000Z</time>
      </trkpt>
      <trkpt lat="38.12442333" lon="-4.92214667">
        <ele>546.0</ele>
        <time>2018-10-06T08:17:02.000Z</time>
      </trkpt>
      <trkpt lat="38.12442333" lon="-4.92214667">
        <ele>546.0</ele>
        <time>2018-10-06T08:17:03.000Z</time>
      </trkpt>
      <trkpt lat="38.12442333" lon="-4.92214667">
        <ele>546.0</ele>
        <time>2018-10-06T08:17:04.000Z</time>
      </trkpt>
      <trkpt lat="38.12442333" lon="-4.92214667">
        <ele>546.0</ele>
        <time>2018-10-06T08:17:05.000Z</time>
      </trkpt>
      <trkpt lat="38.12442333" lon="-4.92214667">
        <ele>546.0</ele>
        <time>2018-10-06T08:17:06.000Z</time>
      </trkpt>
      <trkpt lat="38.12442333" lon="-4.92214667">
        <ele>546.0</ele>
        <time>2018-10-06T08:17:07.000Z</time>
      </trkpt>
      <trkpt lat="38.12442333" lon="-4.92214667">
        <ele>546.0</ele>
        <time>2018-10-06T08:17:08.000Z</time>
      </trkpt>
      <trkpt lat="38.12442333" lon="-4.92214667">
        <ele>546.0</ele>
        <time>2018-10-06T08:17:09.000Z</time>
      </trkpt>
      <trkpt lat="38.12442333" lon="-4.92214667">
        <ele>546.0</ele>
        <time>2018-10-06T08:17:10.000Z</time>
      </trkpt>
      <trkpt lat="38.12442333" lon="-4.92214667">
        <ele>546.0</ele>
        <time>2018-10-06T08:17:11.000Z</time>
      </trkpt>
      <trkpt lat="38.12442333" lon="-4.92214667">
        <ele>546.0</ele>
        <time>2018-10-06T08:17:12.000Z</time>
      </trkpt>
      <trkpt lat="38.12443833" lon="-4.92222">
        <ele>551.0</ele>
        <time>2018-10-06T08:17:13.000Z</time>
      </trkpt>
      <trkpt lat="38.12445" lon="-4.92221">
        <ele>546.0</ele>
        <time>2018-10-06T08:17:14.000Z</time>
      </trkpt>
      <trkpt lat="38.12444833" lon="-4.92220833">
        <ele>546.0</ele>
        <time>2018-10-06T08:17:15.000Z</time>
      </trkpt>
      <trkpt lat="38.12444833" lon="-4.92221">
        <ele>546.0</ele>
        <time>2018-10-06T08:17:16.000Z</time>
      </trkpt>
      <trkpt lat="38.12444667" lon="-4.92220833">
        <ele>546.0</ele>
        <time>2018-10-06T08:17:17.000Z</time>
      </trkpt>
      <trkpt lat="38.12444667" lon="-4.92220667">
        <ele>546.0</ele>
        <time>2018-10-06T08:17:18.000Z</time>
      </trkpt>
      <trkpt lat="38.12444667" lon="-4.92220333">
        <ele>547.0</ele>
        <time>2018-10-06T08:17:19.000Z</time>
      </trkpt>
      <trkpt lat="38.12444667" lon="-4.92220167">
        <ele>547.0</ele>
        <time>2018-10-06T08:17:20.000Z</time>
      </trkpt>
      <trkpt lat="38.12444667" lon="-4.92219833">
        <ele>547.0</ele>
        <time>2018-10-06T08:17:21.000Z</time>
      </trkpt>
      <trkpt lat="38.12444667" lon="-4.92219667">
        <ele>547.0</ele>
        <time>2018-10-06T08:17:22.000Z</time>
      </trkpt>
      <trkpt lat="38.12444667" lon="-4.922195">
        <ele>547.0</ele>
        <time>2018-10-06T08:17:23.000Z</time>
      </trkpt>
      <trkpt lat="38.12444667" lon="-4.92219333">
        <ele>547.0</ele>
        <time>2018-10-06T08:17:24.000Z</time>
      </trkpt>
      <trkpt lat="38.12444667" lon="-4.92219333">
        <ele>547.0</ele>
        <time>2018-10-06T08:17:25.000Z</time>
      </trkpt>
      <trkpt lat="38.12444667" lon="-4.92219333">
        <ele>547.0</ele>
        <time>2018-10-06T08:17:26.000Z</time>
      </trkpt>
      <trkpt lat="38.12444667" lon="-4.92219333">
        <ele>547.0</ele>
        <time>2018-10-06T08:17:27.000Z</time>
      </trkpt>
      <trkpt lat="38.12444667" lon="-4.92219333">
        <ele>547.0</ele>
        <time>2018-10-06T08:17:28.000Z</time>
      </trkpt>
      <trkpt lat="38.12444667" lon="-4.92219333">
        <ele>547.0</ele>
        <time>2018-10-06T08:17:29.000Z</time>
      </trkpt>
      <trkpt lat="38.12444667" lon="-4.92219333">
        <ele>547.0</ele>
        <time>2018-10-06T08:17:30.000Z</time>
      </trkpt>
      <trkpt lat="38.12444667" lon="-4.92219333">
        <ele>547.0</ele>
        <time>2018-10-06T08:17:31.000Z</time>
      </trkpt>
      <trkpt lat="38.12444667" lon="-4.92219333">
        <ele>547.0</ele>
        <time>2018-10-06T08:17:32.000Z</time>
      </trkpt>
      <trkpt lat="38.12444667" lon="-4.92219333">
        <ele>547.0</ele>
        <time>2018-10-06T08:17:33.000Z</time>
      </trkpt>
      <trkpt lat="38.12444667" lon="-4.92219333">
        <ele>547.0</ele>
        <time>2018-10-06T08:17:34.000Z</time>
      </trkpt>
      <trkpt lat="38.12444667" lon="-4.92219333">
        <ele>547.0</ele>
        <time>2018-10-06T08:17:35.000Z</time>
      </trkpt>
      <trkpt lat="38.12444667" lon="-4.92219333">
        <ele>547.0</ele>
        <time>2018-10-06T08:17:36.000Z</time>
      </trkpt>
      <trkpt lat="38.12444667" lon="-4.92219333">
        <ele>547.0</ele>
        <time>2018-10-06T08:17:37.000Z</time>
      </trkpt>
      <trkpt lat="38.12444667" lon="-4.92219333">
        <ele>547.0</ele>
        <time>2018-10-06T08:17:38.000Z</time>
      </trkpt>
      <trkpt lat="38.12444667" lon="-4.92219333">
        <ele>547.0</ele>
        <time>2018-10-06T08:17:39.000Z</time>
      </trkpt>
      <trkpt lat="38.12444667" lon="-4.92219333">
        <ele>547.0</ele>
        <time>2018-10-06T08:17:40.000Z</time>
      </trkpt>
      <trkpt lat="38.12444667" lon="-4.92219333">
        <ele>547.0</ele>
        <time>2018-10-06T08:17:41.000Z</time>
      </trkpt>
      <trkpt lat="38.12444667" lon="-4.92219333">
        <ele>547.0</ele>
        <time>2018-10-06T08:17:42.000Z</time>
      </trkpt>
      <trkpt lat="38.12444667" lon="-4.92219333">
        <ele>547.0</ele>
        <time>2018-10-06T08:17:43.000Z</time>
      </trkpt>
      <trkpt lat="38.12444667" lon="-4.92219333">
        <ele>547.0</ele>
        <time>2018-10-06T08:17:44.000Z</time>
      </trkpt>
      <trkpt lat="38.12444667" lon="-4.92219333">
        <ele>547.0</ele>
        <time>2018-10-06T08:17:45.000Z</time>
      </trkpt>
      <trkpt lat="38.12444667" lon="-4.92219333">
        <ele>547.0</ele>
        <time>2018-10-06T08:17:46.000Z</time>
      </trkpt>
      <trkpt lat="38.12444667" lon="-4.92219333">
        <ele>547.0</ele>
        <time>2018-10-06T08:17:47.000Z</time>
      </trkpt>
      <trkpt lat="38.12444667" lon="-4.92219333">
        <ele>547.0</ele>
        <time>2018-10-06T08:17:48.000Z</time>
      </trkpt>
      <trkpt lat="38.12444667" lon="-4.92219333">
        <ele>547.0</ele>
        <time>2018-10-06T08:17:49.000Z</time>
      </trkpt>
      <trkpt lat="38.12444667" lon="-4.92219333">
        <ele>547.0</ele>
        <time>2018-10-06T08:17:50.000Z</time>
      </trkpt>
      <trkpt lat="38.12444667" lon="-4.92219333">
        <ele>547.0</ele>
        <time>2018-10-06T08:17:51.000Z</time>
      </trkpt>
      <trkpt lat="38.12444667" lon="-4.92219333">
        <ele>547.0</ele>
        <time>2018-10-06T08:17:52.000Z</time>
      </trkpt>
      <trkpt lat="38.12444667" lon="-4.92219333">
        <ele>547.0</ele>
        <time>2018-10-06T08:17:53.000Z</time>
      </trkpt>
      <trkpt lat="38.12444667" lon="-4.92219333">
        <ele>547.0</ele>
        <time>2018-10-06T08:17:54.000Z</time>
      </trkpt>
      <trkpt lat="38.12444667" lon="-4.92219333">
        <ele>547.0</ele>
        <time>2018-10-06T08:17:55.000Z</time>
      </trkpt>
      <trkpt lat="38.12444667" lon="-4.92219333">
        <ele>547.0</ele>
        <time>2018-10-06T08:17:56.000Z</time>
      </trkpt>
      <trkpt lat="38.12444667" lon="-4.92219333">
        <ele>547.0</ele>
        <time>2018-10-06T08:17:57.000Z</time>
      </trkpt>
      <trkpt lat="38.12444667" lon="-4.92219333">
        <ele>547.0</ele>
        <time>2018-10-06T08:17:58.000Z</time>
      </trkpt>
      <trkpt lat="38.12444667" lon="-4.92219333">
        <ele>547.0</ele>
        <time>2018-10-06T08:17:59.000Z</time>
      </trkpt>
      <trkpt lat="38.12444667" lon="-4.92219333">
        <ele>547.0</ele>
        <time>2018-10-06T08:18:00.000Z</time>
      </trkpt>
      <trkpt lat="38.12447167" lon="-4.92210833">
        <ele>541.0</ele>
        <time>2018-10-06T08:18:01.000Z</time>
      </trkpt>
      <trkpt lat="38.12446667" lon="-4.922105">
        <ele>540.0</ele>
        <time>2018-10-06T08:18:02.000Z</time>
      </trkpt>
      <trkpt lat="38.12446167" lon="-4.92211">
        <ele>540.0</ele>
        <time>2018-10-06T08:18:03.000Z</time>
      </trkpt>
      <trkpt lat="38.12445667" lon="-4.92211333">
        <ele>541.0</ele>
        <time>2018-10-06T08:18:04.000Z</time>
      </trkpt>
      <trkpt lat="38.12445333" lon="-4.92211833">
        <ele>541.0</ele>
        <time>2018-10-06T08:18:05.000Z</time>
      </trkpt>
      <trkpt lat="38.12445" lon="-4.92212167">
        <ele>541.0</ele>
        <time>2018-10-06T08:18:06.000Z</time>
      </trkpt>
      <trkpt lat="38.12444667" lon="-4.922125">
        <ele>542.0</ele>
        <time>2018-10-06T08:18:07.000Z</time>
      </trkpt>
      <trkpt lat="38.12444333" lon="-4.92212833">
        <ele>542.0</ele>
        <time>2018-10-06T08:18:08.000Z</time>
      </trkpt>
      <trkpt lat="38.12444" lon="-4.92213167">
        <ele>542.0</ele>
        <time>2018-10-06T08:18:09.000Z</time>
      </trkpt>
      <trkpt lat="38.12443667" lon="-4.922135">
        <ele>543.0</ele>
        <time>2018-10-06T08:18:10.000Z</time>
      </trkpt>
      <trkpt lat="38.124435" lon="-4.92213667">
        <ele>543.0</ele>
        <time>2018-10-06T08:18:11.000Z</time>
      </trkpt>
      <trkpt lat="38.12443167" lon="-4.92213833">
        <ele>543.0</ele>
        <time>2018-10-06T08:18:12.000Z</time>
      </trkpt>
      <trkpt lat="38.12443167" lon="-4.92213833">
        <ele>543.0</ele>
        <time>2018-10-06T08:18:13.000Z</time>
      </trkpt>
      <trkpt lat="38.12443167" lon="-4.92213833">
        <ele>543.0</ele>
        <time>2018-10-06T08:18:14.000Z</time>
      </trkpt>
      <trkpt lat="38.12443167" lon="-4.92213833">
        <ele>543.0</ele>
        <time>2018-10-06T08:18:15.000Z</time>
      </trkpt>
      <trkpt lat="38.12443167" lon="-4.92213833">
        <ele>543.0</ele>
        <time>2018-10-06T08:18:16.000Z</time>
      </trkpt>
      <trkpt lat="38.12443167" lon="-4.92213833">
        <ele>543.0</ele>
        <time>2018-10-06T08:18:17.000Z</time>
      </trkpt>
      <trkpt lat="38.12443167" lon="-4.92213833">
        <ele>543.0</ele>
        <time>2018-10-06T08:18:18.000Z</time>
      </trkpt>
      <trkpt lat="38.12443167" lon="-4.92213833">
        <ele>543.0</ele>
        <time>2018-10-06T08:18:19.000Z</time>
      </trkpt>
      <trkpt lat="38.12443167" lon="-4.92213833">
        <ele>543.0</ele>
        <time>2018-10-06T08:18:20.000Z</time>
      </trkpt>
      <trkpt lat="38.12443167" lon="-4.92213833">
        <ele>543.0</ele>
        <time>2018-10-06T08:18:21.000Z</time>
      </trkpt>
      <trkpt lat="38.12443167" lon="-4.92213833">
        <ele>543.0</ele>
        <time>2018-10-06T08:18:22.000Z</time>
      </trkpt>
      <trkpt lat="38.12443167" lon="-4.92213833">
        <ele>543.0</ele>
        <time>2018-10-06T08:18:23.000Z</time>
      </trkpt>
      <trkpt lat="38.12443167" lon="-4.92213833">
        <ele>543.0</ele>
        <time>2018-10-06T08:18:24.000Z</time>
      </trkpt>
      <trkpt lat="38.12443167" lon="-4.92213833">
        <ele>543.0</ele>
        <time>2018-10-06T08:18:25.000Z</time>
      </trkpt>
      <trkpt lat="38.12443167" lon="-4.92213833">
        <ele>543.0</ele>
        <time>2018-10-06T08:18:26.000Z</time>
      </trkpt>
      <trkpt lat="38.12443167" lon="-4.92213833">
        <ele>543.0</ele>
        <time>2018-10-06T08:18:27.000Z</time>
      </trkpt>
      <trkpt lat="38.12443167" lon="-4.92213833">
        <ele>543.0</ele>
        <time>2018-10-06T08:18:28.000Z</time>
      </trkpt>
      <trkpt lat="38.12443167" lon="-4.92213833">
        <ele>543.0</ele>
        <time>2018-10-06T08:18:29.000Z</time>
      </trkpt>
      <trkpt lat="38.12443167" lon="-4.92213833">
        <ele>543.0</ele>
        <time>2018-10-06T08:18:30.000Z</time>
      </trkpt>
      <trkpt lat="38.12443167" lon="-4.92213833">
        <ele>543.0</ele>
        <time>2018-10-06T08:18:31.000Z</time>
      </trkpt>
      <trkpt lat="38.12443167" lon="-4.92213833">
        <ele>543.0</ele>
        <time>2018-10-06T08:18:32.000Z</time>
      </trkpt>
      <trkpt lat="38.12443167" lon="-4.92213833">
        <ele>543.0</ele>
        <time>2018-10-06T08:18:33.000Z</time>
      </trkpt>
      <trkpt lat="38.12443167" lon="-4.92213833">
        <ele>543.0</ele>
        <time>2018-10-06T08:18:34.000Z</time>
      </trkpt>
      <trkpt lat="38.12443167" lon="-4.92213833">
        <ele>543.0</ele>
        <time>2018-10-06T08:18:35.000Z</time>
      </trkpt>
      <trkpt lat="38.12443167" lon="-4.92213833">
        <ele>543.0</ele>
        <time>2018-10-06T08:18:36.000Z</time>
      </trkpt>
      <trkpt lat="38.12443167" lon="-4.92213833">
        <ele>543.0</ele>
        <time>2018-10-06T08:18:37.000Z</time>
      </trkpt>
      <trkpt lat="38.12443167" lon="-4.92213833">
        <ele>543.0</ele>
        <time>2018-10-06T08:18:38.000Z</time>
      </trkpt>
      <trkpt lat="38.12443167" lon="-4.92213833">
        <ele>543.0</ele>
        <time>2018-10-06T08:18:39.000Z</time>
      </trkpt>
      <trkpt lat="38.12443167" lon="-4.92213833">
        <ele>543.0</ele>
        <time>2018-10-06T08:18:40.000Z</time>
      </trkpt>
      <trkpt lat="38.12443167" lon="-4.92213833">
        <ele>543.0</ele>
        <time>2018-10-06T08:18:41.000Z</time>
      </trkpt>
      <trkpt lat="38.12443167" lon="-4.92213833">
        <ele>543.0</ele>
        <time>2018-10-06T08:18:42.000Z</time>
      </trkpt>
      <trkpt lat="38.12443167" lon="-4.92213833">
        <ele>543.0</ele>
        <time>2018-10-06T08:18:43.000Z</time>
      </trkpt>
      <trkpt lat="38.12443167" lon="-4.92213833">
        <ele>543.0</ele>
        <time>2018-10-06T08:18:44.000Z</time>
      </trkpt>
      <trkpt lat="38.12443167" lon="-4.92213833">
        <ele>543.0</ele>
        <time>2018-10-06T08:18:45.000Z</time>
      </trkpt>
      <trkpt lat="38.12443167" lon="-4.92213833">
        <ele>543.0</ele>
        <time>2018-10-06T08:18:46.000Z</time>
      </trkpt>
      <trkpt lat="38.12443167" lon="-4.92213833">
        <ele>543.0</ele>
        <time>2018-10-06T08:18:47.000Z</time>
      </trkpt>
      <trkpt lat="38.12443167" lon="-4.92213833">
        <ele>543.0</ele>
        <time>2018-10-06T08:18:48.000Z</time>
      </trkpt>
      <trkpt lat="38.12443167" lon="-4.92213833">
        <ele>543.0</ele>
        <time>2018-10-06T08:18:49.000Z</time>
      </trkpt>
      <trkpt lat="38.12443167" lon="-4.92213833">
        <ele>543.0</ele>
        <time>2018-10-06T08:18:50.000Z</time>
      </trkpt>
      <trkpt lat="38.12443167" lon="-4.92213833">
        <ele>543.0</ele>
        <time>2018-10-06T08:18:51.000Z</time>
      </trkpt>
      <trkpt lat="38.12443167" lon="-4.92213833">
        <ele>543.0</ele>
        <time>2018-10-06T08:18:52.000Z</time>
      </trkpt>
      <trkpt lat="38.12443167" lon="-4.92213833">
        <ele>543.0</ele>
        <time>2018-10-06T08:18:53.000Z</time>
      </trkpt>
      <trkpt lat="38.12443167" lon="-4.92213833">
        <ele>543.0</ele>
        <time>2018-10-06T08:18:54.000Z</time>
      </trkpt>
      <trkpt lat="38.12443167" lon="-4.92213833">
        <ele>543.0</ele>
        <time>2018-10-06T08:18:55.000Z</time>
      </trkpt>
      <trkpt lat="38.12443167" lon="-4.92213833">
        <ele>543.0</ele>
        <time>2018-10-06T08:18:56.000Z</time>
      </trkpt>
      <trkpt lat="38.12443167" lon="-4.92213833">
        <ele>543.0</ele>
        <time>2018-10-06T08:18:57.000Z</time>
      </trkpt>
      <trkpt lat="38.12443167" lon="-4.92213833">
        <ele>543.0</ele>
        <time>2018-10-06T08:18:58.000Z</time>
      </trkpt>
      <trkpt lat="38.12443167" lon="-4.92213833">
        <ele>543.0</ele>
        <time>2018-10-06T08:18:59.000Z</time>
      </trkpt>
      <trkpt lat="38.12443167" lon="-4.92213833">
        <ele>543.0</ele>
        <time>2018-10-06T08:19:00.000Z</time>
      </trkpt>
      <trkpt lat="38.12445" lon="-4.92219167">
        <ele>542.0</ele>
        <time>2018-10-06T08:19:01.000Z</time>
      </trkpt>
      <trkpt lat="38.124455" lon="-4.922205">
        <ele>543.0</ele>
        <time>2018-10-06T08:19:02.000Z</time>
      </trkpt>
      <trkpt lat="38.12445667" lon="-4.92221833">
        <ele>543.0</ele>
        <time>2018-10-06T08:19:03.000Z</time>
      </trkpt>
      <trkpt lat="38.12445833" lon="-4.92223">
        <ele>543.0</ele>
        <time>2018-10-06T08:19:04.000Z</time>
      </trkpt>
      <trkpt lat="38.12446167" lon="-4.92224167">
        <ele>543.0</ele>
        <time>2018-10-06T08:19:05.000Z</time>
      </trkpt>
      <trkpt lat="38.124465" lon="-4.92225333">
        <ele>543.0</ele>
        <time>2018-10-06T08:19:06.000Z</time>
      </trkpt>
      <trkpt lat="38.12446667" lon="-4.92226667">
        <ele>542.0</ele>
        <time>2018-10-06T08:19:07.000Z</time>
      </trkpt>
      <trkpt lat="38.12447167" lon="-4.92227833">
        <ele>542.0</ele>
        <time>2018-10-06T08:19:08.000Z</time>
      </trkpt>
      <trkpt lat="38.124475" lon="-4.92229">
        <ele>542.0</ele>
        <time>2018-10-06T08:19:09.000Z</time>
      </trkpt>
      <trkpt lat="38.12447833" lon="-4.92229833">
        <ele>542.0</ele>
        <time>2018-10-06T08:19:10.000Z</time>
      </trkpt>
      <trkpt lat="38.12448333" lon="-4.92230833">
        <ele>542.0</ele>
        <time>2018-10-06T08:19:11.000Z</time>
      </trkpt>
      <trkpt lat="38.12448833" lon="-4.92231833">
        <ele>541.0</ele>
        <time>2018-10-06T08:19:12.000Z</time>
      </trkpt>
      <trkpt lat="38.12448833" lon="-4.92231833">
        <ele>541.0</ele>
        <time>2018-10-06T08:19:13.000Z</time>
      </trkpt>
      <trkpt lat="38.12448833" lon="-4.92231833">
        <ele>541.0</ele>
        <time>2018-10-06T08:19:14.000Z</time>
      </trkpt>
      <trkpt lat="38.12448833" lon="-4.92231833">
        <ele>541.0</ele>
        <time>2018-10-06T08:19:15.000Z</time>
      </trkpt>
      <trkpt lat="38.12448833" lon="-4.92231833">
        <ele>541.0</ele>
        <time>2018-10-06T08:19:16.000Z</time>
      </trkpt>
      <trkpt lat="38.12448833" lon="-4.92231833">
        <ele>541.0</ele>
        <time>2018-10-06T08:19:17.000Z</time>
      </trkpt>
      <trkpt lat="38.12448833" lon="-4.92231833">
        <ele>541.0</ele>
        <time>2018-10-06T08:19:18.000Z</time>
      </trkpt>
      <trkpt lat="38.12448833" lon="-4.92231833">
        <ele>541.0</ele>
        <time>2018-10-06T08:19:19.000Z</time>
      </trkpt>
      <trkpt lat="38.12448833" lon="-4.92231833">
        <ele>541.0</ele>
        <time>2018-10-06T08:19:20.000Z</time>
      </trkpt>
      <trkpt lat="38.12448833" lon="-4.92231833">
        <ele>541.0</ele>
        <time>2018-10-06T08:19:21.000Z</time>
      </trkpt>
      <trkpt lat="38.12448833" lon="-4.92231833">
        <ele>541.0</ele>
        <time>2018-10-06T08:19:22.000Z</time>
      </trkpt>
      <trkpt lat="38.12448833" lon="-4.92231833">
        <ele>541.0</ele>
        <time>2018-10-06T08:19:23.000Z</time>
      </trkpt>
      <trkpt lat="38.12448833" lon="-4.92231833">
        <ele>541.0</ele>
        <time>2018-10-06T08:19:24.000Z</time>
      </trkpt>
      <trkpt lat="38.12448833" lon="-4.92231833">
        <ele>541.0</ele>
        <time>2018-10-06T08:19:25.000Z</time>
      </trkpt>
      <trkpt lat="38.12448833" lon="-4.92231833">
        <ele>541.0</ele>
        <time>2018-10-06T08:19:26.000Z</time>
      </trkpt>
      <trkpt lat="38.12448833" lon="-4.92231833">
        <ele>541.0</ele>
        <time>2018-10-06T08:19:27.000Z</time>
      </trkpt>
      <trkpt lat="38.12448833" lon="-4.92231833">
        <ele>541.0</ele>
        <time>2018-10-06T08:19:28.000Z</time>
      </trkpt>
      <trkpt lat="38.12448833" lon="-4.92231833">
        <ele>541.0</ele>
        <time>2018-10-06T08:19:29.000Z</time>
      </trkpt>
      <trkpt lat="38.12448833" lon="-4.92231833">
        <ele>541.0</ele>
        <time>2018-10-06T08:19:30.000Z</time>
      </trkpt>
      <trkpt lat="38.12448833" lon="-4.92231833">
        <ele>541.0</ele>
        <time>2018-10-06T08:19:31.000Z</time>
      </trkpt>
      <trkpt lat="38.12448833" lon="-4.92231833">
        <ele>541.0</ele>
        <time>2018-10-06T08:19:32.000Z</time>
      </trkpt>
      <trkpt lat="38.12448833" lon="-4.92231833">
        <ele>541.0</ele>
        <time>2018-10-06T08:19:33.000Z</time>
      </trkpt>
      <trkpt lat="38.12448833" lon="-4.92231833">
        <ele>541.0</ele>
        <time>2018-10-06T08:19:34.000Z</time>
      </trkpt>
      <trkpt lat="38.12448833" lon="-4.92231833">
        <ele>541.0</ele>
        <time>2018-10-06T08:19:35.000Z</time>
      </trkpt>
      <trkpt lat="38.12448833" lon="-4.92231833">
        <ele>541.0</ele>
        <time>2018-10-06T08:19:36.000Z</time>
      </trkpt>
      <trkpt lat="38.12448833" lon="-4.92231833">
        <ele>541.0</ele>
        <time>2018-10-06T08:19:37.000Z</time>
      </trkpt>
      <trkpt lat="38.12448833" lon="-4.92231833">
        <ele>541.0</ele>
        <time>2018-10-06T08:19:38.000Z</time>
      </trkpt>
      <trkpt lat="38.12448833" lon="-4.92231833">
        <ele>541.0</ele>
        <time>2018-10-06T08:19:39.000Z</time>
      </trkpt>
      <trkpt lat="38.12448833" lon="-4.92231833">
        <ele>541.0</ele>
        <time>2018-10-06T08:19:40.000Z</time>
      </trkpt>
      <trkpt lat="38.12448833" lon="-4.92231833">
        <ele>541.0</ele>
        <time>2018-10-06T08:19:41.000Z</time>
      </trkpt>
      <trkpt lat="38.12448833" lon="-4.92231833">
        <ele>541.0</ele>
        <time>2018-10-06T08:19:42.000Z</time>
      </trkpt>
      <trkpt lat="38.12448833" lon="-4.92231833">
        <ele>541.0</ele>
        <time>2018-10-06T08:19:43.000Z</time>
      </trkpt>
      <trkpt lat="38.12448833" lon="-4.92231833">
        <ele>541.0</ele>
        <time>2018-10-06T08:19:44.000Z</time>
      </trkpt>
      <trkpt lat="38.12448833" lon="-4.92231833">
        <ele>541.0</ele>
        <time>2018-10-06T08:19:45.000Z</time>
      </trkpt>
      <trkpt lat="38.12448833" lon="-4.92231833">
        <ele>541.0</ele>
        <time>2018-10-06T08:19:46.000Z</time>
      </trkpt>
      <trkpt lat="38.12448833" lon="-4.92231833">
        <ele>541.0</ele>
        <time>2018-10-06T08:19:47.000Z</time>
      </trkpt>
      <trkpt lat="38.12448833" lon="-4.92231833">
        <ele>541.0</ele>
        <time>2018-10-06T08:19:48.000Z</time>
      </trkpt>
      <trkpt lat="38.12448833" lon="-4.92231833">
        <ele>541.0</ele>
        <time>2018-10-06T08:19:49.000Z</time>
      </trkpt>
      <trkpt lat="38.12448833" lon="-4.92231833">
        <ele>541.0</ele>
        <time>2018-10-06T08:19:50.000Z</time>
      </trkpt>
      <trkpt lat="38.12448833" lon="-4.92231833">
        <ele>541.0</ele>
        <time>2018-10-06T08:19:51.000Z</time>
      </trkpt>
      <trkpt lat="38.12448833" lon="-4.92231833">
        <ele>541.0</ele>
        <time>2018-10-06T08:19:52.000Z</time>
      </trkpt>
      <trkpt lat="38.12448833" lon="-4.92231833">
        <ele>541.0</ele>
        <time>2018-10-06T08:19:53.000Z</time>
      </trkpt>
      <trkpt lat="38.12448833" lon="-4.92231833">
        <ele>541.0</ele>
        <time>2018-10-06T08:19:54.000Z</time>
      </trkpt>
      <trkpt lat="38.12448833" lon="-4.92231833">
        <ele>541.0</ele>
        <time>2018-10-06T08:19:55.000Z</time>
      </trkpt>
      <trkpt lat="38.12448833" lon="-4.92231833">
        <ele>541.0</ele>
        <time>2018-10-06T08:19:56.000Z</time>
      </trkpt>
      <trkpt lat="38.12448833" lon="-4.92231833">
        <ele>541.0</ele>
        <time>2018-10-06T08:19:57.000Z</time>
      </trkpt>
      <trkpt lat="38.12448833" lon="-4.92231833">
        <ele>541.0</ele>
        <time>2018-10-06T08:19:58.000Z</time>
      </trkpt>
      <trkpt lat="38.12448833" lon="-4.92231833">
        <ele>541.0</ele>
        <time>2018-10-06T08:19:59.000Z</time>
      </trkpt>
      <trkpt lat="38.12448833" lon="-4.92231833">
        <ele>541.0</ele>
        <time>2018-10-06T08:20:00.000Z</time>
      </trkpt>
      <trkpt lat="38.12454833" lon="-4.922275">
        <ele>533.0</ele>
        <time>2018-10-06T08:20:01.000Z</time>
      </trkpt>
      <trkpt lat="38.12460167" lon="-4.92222333">
        <ele>534.0</ele>
        <time>2018-10-06T08:20:02.000Z</time>
      </trkpt>
      <trkpt lat="38.12460667" lon="-4.92221167">
        <ele>535.0</ele>
        <time>2018-10-06T08:20:03.000Z</time>
      </trkpt>
      <trkpt lat="38.12460667" lon="-4.92219833">
        <ele>535.0</ele>
        <time>2018-10-06T08:20:04.000Z</time>
      </trkpt>
      <trkpt lat="38.12461" lon="-4.92218667">
        <ele>535.0</ele>
        <time>2018-10-06T08:20:05.000Z</time>
      </trkpt>
      <trkpt lat="38.12461" lon="-4.92217333">
        <ele>535.0</ele>
        <time>2018-10-06T08:20:06.000Z</time>
      </trkpt>
      <trkpt lat="38.12461" lon="-4.92216">
        <ele>536.0</ele>
        <time>2018-10-06T08:20:07.000Z</time>
      </trkpt>
      <trkpt lat="38.12461167" lon="-4.92214833">
        <ele>536.0</ele>
        <time>2018-10-06T08:20:08.000Z</time>
      </trkpt>
      <trkpt lat="38.12461333" lon="-4.92213833">
        <ele>536.0</ele>
        <time>2018-10-06T08:20:09.000Z</time>
      </trkpt>
      <trkpt lat="38.124615" lon="-4.92213">
        <ele>536.0</ele>
        <time>2018-10-06T08:20:10.000Z</time>
      </trkpt>
      <trkpt lat="38.124615" lon="-4.92212167">
        <ele>536.0</ele>
        <time>2018-10-06T08:20:11.000Z</time>
      </trkpt>
      <trkpt lat="38.12461333" lon="-4.922115">
        <ele>536.0</ele>
        <time>2018-10-06T08:20:12.000Z</time>
      </trkpt>
      <trkpt lat="38.12461333" lon="-4.922115">
        <ele>536.0</ele>
        <time>2018-10-06T08:20:13.000Z</time>
      </trkpt>
      <trkpt lat="38.12461333" lon="-4.922115">
        <ele>536.0</ele>
        <time>2018-10-06T08:20:14.000Z</time>
      </trkpt>
      <trkpt lat="38.12461333" lon="-4.922115">
        <ele>536.0</ele>
        <time>2018-10-06T08:20:15.000Z</time>
      </trkpt>
      <trkpt lat="38.12461333" lon="-4.922115">
        <ele>536.0</ele>
        <time>2018-10-06T08:20:16.000Z</time>
      </trkpt>
      <trkpt lat="38.12461333" lon="-4.922115">
        <ele>536.0</ele>
        <time>2018-10-06T08:20:17.000Z</time>
      </trkpt>
      <trkpt lat="38.12461333" lon="-4.922115">
        <ele>536.0</ele>
        <time>2018-10-06T08:20:18.000Z</time>
      </trkpt>
      <trkpt lat="38.12461333" lon="-4.922115">
        <ele>536.0</ele>
        <time>2018-10-06T08:20:19.000Z</time>
      </trkpt>
      <trkpt lat="38.12461333" lon="-4.922115">
        <ele>536.0</ele>
        <time>2018-10-06T08:20:20.000Z</time>
      </trkpt>
      <trkpt lat="38.12461333" lon="-4.922115">
        <ele>536.0</ele>
        <time>2018-10-06T08:20:21.000Z</time>
      </trkpt>
      <trkpt lat="38.12461333" lon="-4.922115">
        <ele>536.0</ele>
        <time>2018-10-06T08:20:22.000Z</time>
      </trkpt>
      <trkpt lat="38.12461333" lon="-4.922115">
        <ele>536.0</ele>
        <time>2018-10-06T08:20:23.000Z</time>
      </trkpt>
      <trkpt lat="38.12461333" lon="-4.922115">
        <ele>536.0</ele>
        <time>2018-10-06T08:20:24.000Z</time>
      </trkpt>
      <trkpt lat="38.12461333" lon="-4.922115">
        <ele>536.0</ele>
        <time>2018-10-06T08:20:25.000Z</time>
      </trkpt>
      <trkpt lat="38.12461333" lon="-4.922115">
        <ele>536.0</ele>
        <time>2018-10-06T08:20:26.000Z</time>
      </trkpt>
      <trkpt lat="38.12461333" lon="-4.922115">
        <ele>536.0</ele>
        <time>2018-10-06T08:20:27.000Z</time>
      </trkpt>
      <trkpt lat="38.12461333" lon="-4.922115">
        <ele>536.0</ele>
        <time>2018-10-06T08:20:28.000Z</time>
      </trkpt>
      <trkpt lat="38.12461333" lon="-4.922115">
        <ele>536.0</ele>
        <time>2018-10-06T08:20:29.000Z</time>
      </trkpt>
      <trkpt lat="38.12461333" lon="-4.922115">
        <ele>536.0</ele>
        <time>2018-10-06T08:20:30.000Z</time>
      </trkpt>
      <trkpt lat="38.12461333" lon="-4.922115">
        <ele>536.0</ele>
        <time>2018-10-06T08:20:31.000Z</time>
      </trkpt>
      <trkpt lat="38.12461333" lon="-4.922115">
        <ele>536.0</ele>
        <time>2018-10-06T08:20:32.000Z</time>
      </trkpt>
      <trkpt lat="38.12461333" lon="-4.922115">
        <ele>536.0</ele>
        <time>2018-10-06T08:20:33.000Z</time>
      </trkpt>
      <trkpt lat="38.12461333" lon="-4.922115">
        <ele>536.0</ele>
        <time>2018-10-06T08:20:34.000Z</time>
      </trkpt>
      <trkpt lat="38.12461333" lon="-4.922115">
        <ele>536.0</ele>
        <time>2018-10-06T08:20:35.000Z</time>
      </trkpt>
      <trkpt lat="38.12461333" lon="-4.922115">
        <ele>536.0</ele>
        <time>2018-10-06T08:20:36.000Z</time>
      </trkpt>
      <trkpt lat="38.12461333" lon="-4.922115">
        <ele>536.0</ele>
        <time>2018-10-06T08:20:37.000Z</time>
      </trkpt>
      <trkpt lat="38.12461333" lon="-4.922115">
        <ele>536.0</ele>
        <time>2018-10-06T08:20:38.000Z</time>
      </trkpt>
      <trkpt lat="38.12461333" lon="-4.922115">
        <ele>536.0</ele>
        <time>2018-10-06T08:20:39.000Z</time>
      </trkpt>
      <trkpt lat="38.12461333" lon="-4.922115">
        <ele>536.0</ele>
        <time>2018-10-06T08:20:40.000Z</time>
      </trkpt>
      <trkpt lat="38.12461333" lon="-4.922115">
        <ele>536.0</ele>
        <time>2018-10-06T08:20:41.000Z</time>
      </trkpt>
      <trkpt lat="38.12461333" lon="-4.922115">
        <ele>536.0</ele>
        <time>2018-10-06T08:20:42.000Z</time>
      </trkpt>
      <trkpt lat="38.12461333" lon="-4.922115">
        <ele>536.0</ele>
        <time>2018-10-06T08:20:43.000Z</time>
      </trkpt>
      <trkpt lat="38.12461333" lon="-4.922115">
        <ele>536.0</ele>
        <time>2018-10-06T08:20:44.000Z</time>
      </trkpt>
      <trkpt lat="38.12461333" lon="-4.922115">
        <ele>536.0</ele>
        <time>2018-10-06T08:20:45.000Z</time>
      </trkpt>
      <trkpt lat="38.12461333" lon="-4.922115">
        <ele>536.0</ele>
        <time>2018-10-06T08:20:46.000Z</time>
      </trkpt>
      <trkpt lat="38.12461333" lon="-4.922115">
        <ele>536.0</ele>
        <time>2018-10-06T08:20:47.000Z</time>
      </trkpt>
      <trkpt lat="38.12461333" lon="-4.922115">
        <ele>536.0</ele>
        <time>2018-10-06T08:20:48.000Z</time>
      </trkpt>
      <trkpt lat="38.12461333" lon="-4.922115">
        <ele>536.0</ele>
        <time>2018-10-06T08:20:49.000Z</time>
      </trkpt>
      <trkpt lat="38.12461333" lon="-4.922115">
        <ele>536.0</ele>
        <time>2018-10-06T08:20:50.000Z</time>
      </trkpt>
      <trkpt lat="38.12461333" lon="-4.922115">
        <ele>536.0</ele>
        <time>2018-10-06T08:20:51.000Z</time>
      </trkpt>
      <trkpt lat="38.12461333" lon="-4.922115">
        <ele>536.0</ele>
        <time>2018-10-06T08:20:52.000Z</time>
      </trkpt>
      <trkpt lat="38.12461333" lon="-4.922115">
        <ele>536.0</ele>
        <time>2018-10-06T08:20:53.000Z</time>
      </trkpt>
      <trkpt lat="38.12461333" lon="-4.922115">
        <ele>536.0</ele>
        <time>2018-10-06T08:20:54.000Z</time>
      </trkpt>
      <trkpt lat="38.12461333" lon="-4.922115">
        <ele>536.0</ele>
        <time>2018-10-06T08:20:55.000Z</time>
      </trkpt>
      <trkpt lat="38.12461333" lon="-4.922115">
        <ele>536.0</ele>
        <time>2018-10-06T08:20:56.000Z</time>
      </trkpt>
      <trkpt lat="38.12461333" lon="-4.922115">
        <ele>536.0</ele>
        <time>2018-10-06T08:20:57.000Z</time>
      </trkpt>
      <trkpt lat="38.12461333" lon="-4.922115">
        <ele>536.0</ele>
        <time>2018-10-06T08:20:58.000Z</time>
      </trkpt>
      <trkpt lat="38.12461333" lon="-4.922115">
        <ele>536.0</ele>
        <time>2018-10-06T08:20:59.000Z</time>
      </trkpt>
      <trkpt lat="38.12461333" lon="-4.922115">
        <ele>536.0</ele>
        <time>2018-10-06T08:21:00.000Z</time>
      </trkpt>
      <trkpt lat="38.12458667" lon="-4.92191667">
        <ele>524.0</ele>
        <time>2018-10-06T08:21:01.000Z</time>
      </trkpt>
      <trkpt lat="38.12459" lon="-4.9219">
        <ele>526.0</ele>
        <time>2018-10-06T08:21:02.000Z</time>
      </trkpt>
      <trkpt lat="38.12458667" lon="-4.92187667">
        <ele>526.0</ele>
        <time>2018-10-06T08:21:03.000Z</time>
      </trkpt>
      <trkpt lat="38.12458333" lon="-4.921855">
        <ele>527.0</ele>
        <time>2018-10-06T08:21:04.000Z</time>
      </trkpt>
      <trkpt lat="38.12458333" lon="-4.92183333">
        <ele>528.0</ele>
        <time>2018-10-06T08:21:05.000Z</time>
      </trkpt>
      <trkpt lat="38.12458" lon="-4.92181167">
        <ele>528.0</ele>
        <time>2018-10-06T08:21:06.000Z</time>
      </trkpt>
      <trkpt lat="38.12458" lon="-4.92179333">
        <ele>529.0</ele>
        <time>2018-10-06T08:21:07.000Z</time>
      </trkpt>
      <trkpt lat="38.12457833" lon="-4.92177667">
        <ele>529.0</ele>
        <time>2018-10-06T08:21:08.000Z</time>
      </trkpt>
      <trkpt lat="38.12457833" lon="-4.92176">
        <ele>529.0</ele>
        <time>2018-10-06T08:21:09.000Z</time>
      </trkpt>
      <trkpt lat="38.124575" lon="-4.92174333">
        <ele>530.0</ele>
        <time>2018-10-06T08:21:10.000Z</time>
      </trkpt>
      <trkpt lat="38.12457333" lon="-4.92172833">
        <ele>530.0</ele>
        <time>2018-10-06T08:21:11.000Z</time>
      </trkpt>
      <trkpt lat="38.12456833" lon="-4.92171167">
        <ele>530.0</ele>
        <time>2018-10-06T08:21:12.000Z</time>
      </trkpt>
      <trkpt lat="38.124565" lon="-4.92169833">
        <ele>530.0</ele>
        <time>2018-10-06T08:21:13.000Z</time>
      </trkpt>
      <trkpt lat="38.124565" lon="-4.92169833">
        <ele>530.0</ele>
        <time>2018-10-06T08:21:14.000Z</time>
      </trkpt>
      <trkpt lat="38.124565" lon="-4.92169833">
        <ele>530.0</ele>
        <time>2018-10-06T08:21:15.000Z</time>
      </trkpt>
      <trkpt lat="38.124565" lon="-4.92169833">
        <ele>530.0</ele>
        <time>2018-10-06T08:21:16.000Z</time>
      </trkpt>
      <trkpt lat="38.124565" lon="-4.92169833">
        <ele>530.0</ele>
        <time>2018-10-06T08:21:17.000Z</time>
      </trkpt>
      <trkpt lat="38.124565" lon="-4.92169833">
        <ele>530.0</ele>
        <time>2018-10-06T08:21:18.000Z</time>
      </trkpt>
      <trkpt lat="38.124565" lon="-4.92169833">
        <ele>530.0</ele>
        <time>2018-10-06T08:21:19.000Z</time>
      </trkpt>
      <trkpt lat="38.124565" lon="-4.92169833">
        <ele>530.0</ele>
        <time>2018-10-06T08:21:20.000Z</time>
      </trkpt>
      <trkpt lat="38.124565" lon="-4.92169833">
        <ele>530.0</ele>
        <time>2018-10-06T08:21:21.000Z</time>
      </trkpt>
      <trkpt lat="38.124565" lon="-4.92169833">
        <ele>530.0</ele>
        <time>2018-10-06T08:21:22.000Z</time>
      </trkpt>
      <trkpt lat="38.124565" lon="-4.92169833">
        <ele>530.0</ele>
        <time>2018-10-06T08:21:23.000Z</time>
      </trkpt>
      <trkpt lat="38.124565" lon="-4.92169833">
        <ele>530.0</ele>
        <time>2018-10-06T08:21:24.000Z</time>
      </trkpt>
      <trkpt lat="38.124565" lon="-4.92169833">
        <ele>530.0</ele>
        <time>2018-10-06T08:21:25.000Z</time>
      </trkpt>
      <trkpt lat="38.124565" lon="-4.92169833">
        <ele>530.0</ele>
        <time>2018-10-06T08:21:26.000Z</time>
      </trkpt>
      <trkpt lat="38.124565" lon="-4.92169833">
        <ele>530.0</ele>
        <time>2018-10-06T08:21:27.000Z</time>
      </trkpt>
      <trkpt lat="38.124565" lon="-4.92169833">
        <ele>530.0</ele>
        <time>2018-10-06T08:21:28.000Z</time>
      </trkpt>
      <trkpt lat="38.124565" lon="-4.92169833">
        <ele>530.0</ele>
        <time>2018-10-06T08:21:29.000Z</time>
      </trkpt>
      <trkpt lat="38.124565" lon="-4.92169833">
        <ele>530.0</ele>
        <time>2018-10-06T08:21:30.000Z</time>
      </trkpt>
      <trkpt lat="38.124565" lon="-4.92169833">
        <ele>530.0</ele>
        <time>2018-10-06T08:21:31.000Z</time>
      </trkpt>
      <trkpt lat="38.124565" lon="-4.92169833">
        <ele>530.0</ele>
        <time>2018-10-06T08:21:32.000Z</time>
      </trkpt>
      <trkpt lat="38.124565" lon="-4.92169833">
        <ele>530.0</ele>
        <time>2018-10-06T08:21:33.000Z</time>
      </trkpt>
      <trkpt lat="38.124565" lon="-4.92169833">
        <ele>530.0</ele>
        <time>2018-10-06T08:21:34.000Z</time>
      </trkpt>
      <trkpt lat="38.124565" lon="-4.92169833">
        <ele>530.0</ele>
        <time>2018-10-06T08:21:35.000Z</time>
      </trkpt>
      <trkpt lat="38.124565" lon="-4.92169833">
        <ele>530.0</ele>
        <time>2018-10-06T08:21:36.000Z</time>
      </trkpt>
      <trkpt lat="38.124565" lon="-4.92169833">
        <ele>530.0</ele>
        <time>2018-10-06T08:21:37.000Z</time>
      </trkpt>
      <trkpt lat="38.124565" lon="-4.92169833">
        <ele>530.0</ele>
        <time>2018-10-06T08:21:38.000Z</time>
      </trkpt>
      <trkpt lat="38.124565" lon="-4.92169833">
        <ele>530.0</ele>
        <time>2018-10-06T08:21:39.000Z</time>
      </trkpt>
      <trkpt lat="38.124565" lon="-4.92169833">
        <ele>530.0</ele>
        <time>2018-10-06T08:21:40.000Z</time>
      </trkpt>
      <trkpt lat="38.124565" lon="-4.92169833">
        <ele>530.0</ele>
        <time>2018-10-06T08:21:41.000Z</time>
      </trkpt>
      <trkpt lat="38.124565" lon="-4.92169833">
        <ele>530.0</ele>
        <time>2018-10-06T08:21:42.000Z</time>
      </trkpt>
      <trkpt lat="38.124565" lon="-4.92169833">
        <ele>530.0</ele>
        <time>2018-10-06T08:21:43.000Z</time>
      </trkpt>
      <trkpt lat="38.124565" lon="-4.92169833">
        <ele>530.0</ele>
        <time>2018-10-06T08:21:44.000Z</time>
      </trkpt>
      <trkpt lat="38.124565" lon="-4.92169833">
        <ele>530.0</ele>
        <time>2018-10-06T08:21:45.000Z</time>
      </trkpt>
      <trkpt lat="38.124565" lon="-4.92169833">
        <ele>530.0</ele>
        <time>2018-10-06T08:21:46.000Z</time>
      </trkpt>
      <trkpt lat="38.124565" lon="-4.92169833">
        <ele>530.0</ele>
        <time>2018-10-06T08:21:47.000Z</time>
      </trkpt>
      <trkpt lat="38.124565" lon="-4.92169833">
        <ele>530.0</ele>
        <time>2018-10-06T08:21:48.000Z</time>
      </trkpt>
      <trkpt lat="38.124565" lon="-4.92169833">
        <ele>530.0</ele>
        <time>2018-10-06T08:21:49.000Z</time>
      </trkpt>
      <trkpt lat="38.124565" lon="-4.92169833">
        <ele>530.0</ele>
        <time>2018-10-06T08:21:50.000Z</time>
      </trkpt>
      <trkpt lat="38.124565" lon="-4.92169833">
        <ele>530.0</ele>
        <time>2018-10-06T08:21:51.000Z</time>
      </trkpt>
      <trkpt lat="38.124565" lon="-4.92169833">
        <ele>530.0</ele>
        <time>2018-10-06T08:21:52.000Z</time>
      </trkpt>
      <trkpt lat="38.124565" lon="-4.92169833">
        <ele>530.0</ele>
        <time>2018-10-06T08:21:53.000Z</time>
      </trkpt>
      <trkpt lat="38.124565" lon="-4.92169833">
        <ele>530.0</ele>
        <time>2018-10-06T08:21:54.000Z</time>
      </trkpt>
      <trkpt lat="38.124565" lon="-4.92169833">
        <ele>530.0</ele>
        <time>2018-10-06T08:21:55.000Z</time>
      </trkpt>
      <trkpt lat="38.124565" lon="-4.92169833">
        <ele>530.0</ele>
        <time>2018-10-06T08:21:56.000Z</time>
      </trkpt>
      <trkpt lat="38.124565" lon="-4.92169833">
        <ele>530.0</ele>
        <time>2018-10-06T08:21:57.000Z</time>
      </trkpt>
      <trkpt lat="38.124565" lon="-4.92169833">
        <ele>530.0</ele>
        <time>2018-10-06T08:21:58.000Z</time>
      </trkpt>
      <trkpt lat="38.124565" lon="-4.92169833">
        <ele>530.0</ele>
        <time>2018-10-06T08:21:59.000Z</time>
      </trkpt>
      <trkpt lat="38.124565" lon="-4.92169833">
        <ele>530.0</ele>
        <time>2018-10-06T08:22:00.000Z</time>
      </trkpt>
      <trkpt lat="38.124565" lon="-4.92169833">
        <ele>530.0</ele>
        <time>2018-10-06T08:22:01.000Z</time>
      </trkpt>
      <trkpt lat="38.12447667" lon="-4.92133333">
        <ele>522.0</ele>
        <time>2018-10-06T08:22:02.000Z</time>
      </trkpt>
      <trkpt lat="38.12446667" lon="-4.92131833">
        <ele>522.0</ele>
        <time>2018-10-06T08:22:03.000Z</time>
      </trkpt>
      <trkpt lat="38.12446167" lon="-4.92130667">
        <ele>522.0</ele>
        <time>2018-10-06T08:22:04.000Z</time>
      </trkpt>
      <trkpt lat="38.124455" lon="-4.92129">
        <ele>522.0</ele>
        <time>2018-10-06T08:22:05.000Z</time>
      </trkpt>
      <trkpt lat="38.12444667" lon="-4.921275">
        <ele>523.0</ele>
        <time>2018-10-06T08:22:06.000Z</time>
      </trkpt>
      <trkpt lat="38.12444" lon="-4.92126">
        <ele>523.0</ele>
        <time>2018-10-06T08:22:07.000Z</time>
      </trkpt>
      <trkpt lat="38.124435" lon="-4.92124667">
        <ele>523.0</ele>
        <time>2018-10-06T08:22:08.000Z</time>
      </trkpt>
      <trkpt lat="38.12443" lon="-4.92123333">
        <ele>523.0</ele>
        <time>2018-10-06T08:22:09.000Z</time>
      </trkpt>
      <trkpt lat="38.12442667" lon="-4.92122">
        <ele>523.0</ele>
        <time>2018-10-06T08:22:10.000Z</time>
      </trkpt>
      <trkpt lat="38.12442167" lon="-4.92120667">
        <ele>523.0</ele>
        <time>2018-10-06T08:22:11.000Z</time>
      </trkpt>
      <trkpt lat="38.12441667" lon="-4.92119333">
        <ele>523.0</ele>
        <time>2018-10-06T08:22:12.000Z</time>
      </trkpt>
      <trkpt lat="38.12441333" lon="-4.92118333">
        <ele>523.0</ele>
        <time>2018-10-06T08:22:13.000Z</time>
      </trkpt>
      <trkpt lat="38.12441333" lon="-4.92118333">
        <ele>523.0</ele>
        <time>2018-10-06T08:22:14.000Z</time>
      </trkpt>
      <trkpt lat="38.12441333" lon="-4.92118333">
        <ele>523.0</ele>
        <time>2018-10-06T08:22:15.000Z</time>
      </trkpt>
      <trkpt lat="38.12441333" lon="-4.92118333">
        <ele>523.0</ele>
        <time>2018-10-06T08:22:16.000Z</time>
      </trkpt>
      <trkpt lat="38.12441333" lon="-4.92118333">
        <ele>523.0</ele>
        <time>2018-10-06T08:22:17.000Z</time>
      </trkpt>
      <trkpt lat="38.12441333" lon="-4.92118333">
        <ele>523.0</ele>
        <time>2018-10-06T08:22:18.000Z</time>
      </trkpt>
      <trkpt lat="38.12441333" lon="-4.92118333">
        <ele>523.0</ele>
        <time>2018-10-06T08:22:19.000Z</time>
      </trkpt>
      <trkpt lat="38.12441333" lon="-4.92118333">
        <ele>523.0</ele>
        <time>2018-10-06T08:22:20.000Z</time>
      </trkpt>
      <trkpt lat="38.12441333" lon="-4.92118333">
        <ele>523.0</ele>
        <time>2018-10-06T08:22:21.000Z</time>
      </trkpt>
      <trkpt lat="38.12441333" lon="-4.92118333">
        <ele>523.0</ele>
        <time>2018-10-06T08:22:22.000Z</time>
      </trkpt>
      <trkpt lat="38.12441333" lon="-4.92118333">
        <ele>523.0</ele>
        <time>2018-10-06T08:22:23.000Z</time>
      </trkpt>
      <trkpt lat="38.12441333" lon="-4.92118333">
        <ele>523.0</ele>
        <time>2018-10-06T08:22:24.000Z</time>
      </trkpt>
      <trkpt lat="38.12441333" lon="-4.92118333">
        <ele>523.0</ele>
        <time>2018-10-06T08:22:25.000Z</time>
      </trkpt>
      <trkpt lat="38.12441333" lon="-4.92118333">
        <ele>523.0</ele>
        <time>2018-10-06T08:22:26.000Z</time>
      </trkpt>
      <trkpt lat="38.12441333" lon="-4.92118333">
        <ele>523.0</ele>
        <time>2018-10-06T08:22:27.000Z</time>
      </trkpt>
      <trkpt lat="38.12441333" lon="-4.92118333">
        <ele>523.0</ele>
        <time>2018-10-06T08:22:28.000Z</time>
      </trkpt>
      <trkpt lat="38.12441333" lon="-4.92118333">
        <ele>523.0</ele>
        <time>2018-10-06T08:22:29.000Z</time>
      </trkpt>
      <trkpt lat="38.12441333" lon="-4.92118333">
        <ele>523.0</ele>
        <time>2018-10-06T08:22:30.000Z</time>
      </trkpt>
      <trkpt lat="38.12441333" lon="-4.92118333">
        <ele>523.0</ele>
        <time>2018-10-06T08:22:31.000Z</time>
      </trkpt>
      <trkpt lat="38.12441333" lon="-4.92118333">
        <ele>523.0</ele>
        <time>2018-10-06T08:22:32.000Z</time>
      </trkpt>
      <trkpt lat="38.12441333" lon="-4.92118333">
        <ele>523.0</ele>
        <time>2018-10-06T08:22:33.000Z</time>
      </trkpt>
      <trkpt lat="38.12441333" lon="-4.92118333">
        <ele>523.0</ele>
        <time>2018-10-06T08:22:34.000Z</time>
      </trkpt>
      <trkpt lat="38.12441333" lon="-4.92118333">
        <ele>523.0</ele>
        <time>2018-10-06T08:22:35.000Z</time>
      </trkpt>
      <trkpt lat="38.12441333" lon="-4.92118333">
        <ele>523.0</ele>
        <time>2018-10-06T08:22:36.000Z</time>
      </trkpt>
      <trkpt lat="38.12441333" lon="-4.92118333">
        <ele>523.0</ele>
        <time>2018-10-06T08:22:37.000Z</time>
      </trkpt>
      <trkpt lat="38.12441333" lon="-4.92118333">
        <ele>523.0</ele>
        <time>2018-10-06T08:22:38.000Z</time>
      </trkpt>
      <trkpt lat="38.12441333" lon="-4.92118333">
        <ele>523.0</ele>
        <time>2018-10-06T08:22:39.000Z</time>
      </trkpt>
      <trkpt lat="38.12441333" lon="-4.92118333">
        <ele>523.0</ele>
        <time>2018-10-06T08:22:40.000Z</time>
      </trkpt>
      <trkpt lat="38.12441333" lon="-4.92118333">
        <ele>523.0</ele>
        <time>2018-10-06T08:22:41.000Z</time>
      </trkpt>
      <trkpt lat="38.12441333" lon="-4.92118333">
        <ele>523.0</ele>
        <time>2018-10-06T08:22:42.000Z</time>
      </trkpt>
      <trkpt lat="38.12441333" lon="-4.92118333">
        <ele>523.0</ele>
        <time>2018-10-06T08:22:43.000Z</time>
      </trkpt>
      <trkpt lat="38.12441333" lon="-4.92118333">
        <ele>523.0</ele>
        <time>2018-10-06T08:22:44.000Z</time>
      </trkpt>
      <trkpt lat="38.12441333" lon="-4.92118333">
        <ele>523.0</ele>
        <time>2018-10-06T08:22:45.000Z</time>
      </trkpt>
      <trkpt lat="38.12441333" lon="-4.92118333">
        <ele>523.0</ele>
        <time>2018-10-06T08:22:46.000Z</time>
      </trkpt>
      <trkpt lat="38.12441333" lon="-4.92118333">
        <ele>523.0</ele>
        <time>2018-10-06T08:22:47.000Z</time>
      </trkpt>
      <trkpt lat="38.12441333" lon="-4.92118333">
        <ele>523.0</ele>
        <time>2018-10-06T08:22:48.000Z</time>
      </trkpt>
      <trkpt lat="38.12441333" lon="-4.92118333">
        <ele>523.0</ele>
        <time>2018-10-06T08:22:49.000Z</time>
      </trkpt>
      <trkpt lat="38.12441333" lon="-4.92118333">
        <ele>523.0</ele>
        <time>2018-10-06T08:22:50.000Z</time>
      </trkpt>
      <trkpt lat="38.12441333" lon="-4.92118333">
        <ele>523.0</ele>
        <time>2018-10-06T08:22:51.000Z</time>
      </trkpt>
      <trkpt lat="38.12441333" lon="-4.92118333">
        <ele>523.0</ele>
        <time>2018-10-06T08:22:52.000Z</time>
      </trkpt>
      <trkpt lat="38.12441333" lon="-4.92118333">
        <ele>523.0</ele>
        <time>2018-10-06T08:22:53.000Z</time>
      </trkpt>
      <trkpt lat="38.12441333" lon="-4.92118333">
        <ele>523.0</ele>
        <time>2018-10-06T08:22:54.000Z</time>
      </trkpt>
      <trkpt lat="38.12441333" lon="-4.92118333">
        <ele>523.0</ele>
        <time>2018-10-06T08:22:55.000Z</time>
      </trkpt>
      <trkpt lat="38.12441333" lon="-4.92118333">
        <ele>523.0</ele>
        <time>2018-10-06T08:22:56.000Z</time>
      </trkpt>
      <trkpt lat="38.12441333" lon="-4.92118333">
        <ele>523.0</ele>
        <time>2018-10-06T08:22:57.000Z</time>
      </trkpt>
      <trkpt lat="38.12441333" lon="-4.92118333">
        <ele>523.0</ele>
        <time>2018-10-06T08:22:58.000Z</time>
      </trkpt>
      <trkpt lat="38.12441333" lon="-4.92118333">
        <ele>523.0</ele>
        <time>2018-10-06T08:22:59.000Z</time>
      </trkpt>
      <trkpt lat="38.12441333" lon="-4.92118333">
        <ele>523.0</ele>
        <time>2018-10-06T08:23:00.000Z</time>
      </trkpt>
      <trkpt lat="38.12441333" lon="-4.92118333">
        <ele>523.0</ele>
        <time>2018-10-06T08:23:01.000Z</time>
      </trkpt>
      <trkpt lat="38.12447667" lon="-4.92118667">
        <ele>532.0</ele>
        <time>2018-10-06T08:23:02.000Z</time>
      </trkpt>
      <trkpt lat="38.12450333" lon="-4.921175">
        <ele>527.0</ele>
        <time>2018-10-06T08:23:03.000Z</time>
      </trkpt>
      <trkpt lat="38.12450333" lon="-4.92117667">
        <ele>529.0</ele>
        <time>2018-10-06T08:23:04.000Z</time>
      </trkpt>
      <trkpt lat="38.124505" lon="-4.921175">
        <ele>529.0</ele>
        <time>2018-10-06T08:23:05.000Z</time>
      </trkpt>
      <trkpt lat="38.12451" lon="-4.921175">
        <ele>529.0</ele>
        <time>2018-10-06T08:23:06.000Z</time>
      </trkpt>
      <trkpt lat="38.12451333" lon="-4.921175">
        <ele>529.0</ele>
        <time>2018-10-06T08:23:07.000Z</time>
      </trkpt>
      <trkpt lat="38.124515" lon="-4.921175">
        <ele>529.0</ele>
        <time>2018-10-06T08:23:08.000Z</time>
      </trkpt>
      <trkpt lat="38.12451667" lon="-4.921175">
        <ele>529.0</ele>
        <time>2018-10-06T08:23:09.000Z</time>
      </trkpt>
      <trkpt lat="38.12451667" lon="-4.92117167">
        <ele>529.0</ele>
        <time>2018-10-06T08:23:10.000Z</time>
      </trkpt>
      <trkpt lat="38.12451833" lon="-4.92117">
        <ele>529.0</ele>
        <time>2018-10-06T08:23:11.000Z</time>
      </trkpt>
      <trkpt lat="38.12452" lon="-4.92116833">
        <ele>529.0</ele>
        <time>2018-10-06T08:23:12.000Z</time>
      </trkpt>
      <trkpt lat="38.12452333" lon="-4.92116667">
        <ele>528.0</ele>
        <time>2018-10-06T08:23:13.000Z</time>
      </trkpt>
      <trkpt lat="38.12452333" lon="-4.92116667">
        <ele>528.0</ele>
        <time>2018-10-06T08:23:14.000Z</time>
      </trkpt>
      <trkpt lat="38.12452333" lon="-4.92116667">
        <ele>528.0</ele>
        <time>2018-10-06T08:23:15.000Z</time>
      </trkpt>
      <trkpt lat="38.12452333" lon="-4.92116667">
        <ele>528.0</ele>
        <time>2018-10-06T08:23:16.000Z</time>
      </trkpt>
      <trkpt lat="38.12452333" lon="-4.92116667">
        <ele>528.0</ele>
        <time>2018-10-06T08:23:17.000Z</time>
      </trkpt>
      <trkpt lat="38.12452333" lon="-4.92116667">
        <ele>528.0</ele>
        <time>2018-10-06T08:23:18.000Z</time>
      </trkpt>
      <trkpt lat="38.12452333" lon="-4.92116667">
        <ele>528.0</ele>
        <time>2018-10-06T08:23:19.000Z</time>
      </trkpt>
      <trkpt lat="38.12452333" lon="-4.92116667">
        <ele>528.0</ele>
        <time>2018-10-06T08:23:20.000Z</time>
      </trkpt>
      <trkpt lat="38.12452333" lon="-4.92116667">
        <ele>528.0</ele>
        <time>2018-10-06T08:23:21.000Z</time>
      </trkpt>
      <trkpt lat="38.12452333" lon="-4.92116667">
        <ele>528.0</ele>
        <time>2018-10-06T08:23:22.000Z</time>
      </trkpt>
      <trkpt lat="38.12452333" lon="-4.92116667">
        <ele>528.0</ele>
        <time>2018-10-06T08:23:23.000Z</time>
      </trkpt>
      <trkpt lat="38.12452333" lon="-4.92116667">
        <ele>528.0</ele>
        <time>2018-10-06T08:23:24.000Z</time>
      </trkpt>
      <trkpt lat="38.12452333" lon="-4.92116667">
        <ele>528.0</ele>
        <time>2018-10-06T08:23:25.000Z</time>
      </trkpt>
      <trkpt lat="38.12452333" lon="-4.92116667">
        <ele>528.0</ele>
        <time>2018-10-06T08:23:26.000Z</time>
      </trkpt>
      <trkpt lat="38.12452333" lon="-4.92116667">
        <ele>528.0</ele>
        <time>2018-10-06T08:23:27.000Z</time>
      </trkpt>
      <trkpt lat="38.12452333" lon="-4.92116667">
        <ele>528.0</ele>
        <time>2018-10-06T08:23:28.000Z</time>
      </trkpt>
      <trkpt lat="38.12452333" lon="-4.92116667">
        <ele>528.0</ele>
        <time>2018-10-06T08:23:29.000Z</time>
      </trkpt>
      <trkpt lat="38.12452333" lon="-4.92116667">
        <ele>528.0</ele>
        <time>2018-10-06T08:23:30.000Z</time>
      </trkpt>
      <trkpt lat="38.12452333" lon="-4.92116667">
        <ele>528.0</ele>
        <time>2018-10-06T08:23:31.000Z</time>
      </trkpt>
      <trkpt lat="38.12452333" lon="-4.92116667">
        <ele>528.0</ele>
        <time>2018-10-06T08:23:32.000Z</time>
      </trkpt>
      <trkpt lat="38.12452333" lon="-4.92116667">
        <ele>528.0</ele>
        <time>2018-10-06T08:23:33.000Z</time>
      </trkpt>
      <trkpt lat="38.12452333" lon="-4.92116667">
        <ele>528.0</ele>
        <time>2018-10-06T08:23:34.000Z</time>
      </trkpt>
      <trkpt lat="38.12452333" lon="-4.92116667">
        <ele>528.0</ele>
        <time>2018-10-06T08:23:35.000Z</time>
      </trkpt>
      <trkpt lat="38.12452333" lon="-4.92116667">
        <ele>528.0</ele>
        <time>2018-10-06T08:23:36.000Z</time>
      </trkpt>
      <trkpt lat="38.12452333" lon="-4.92116667">
        <ele>528.0</ele>
        <time>2018-10-06T08:23:37.000Z</time>
      </trkpt>
      <trkpt lat="38.12452333" lon="-4.92116667">
        <ele>528.0</ele>
        <time>2018-10-06T08:23:38.000Z</time>
      </trkpt>
      <trkpt lat="38.12452333" lon="-4.92116667">
        <ele>528.0</ele>
        <time>2018-10-06T08:23:39.000Z</time>
      </trkpt>
      <trkpt lat="38.12452333" lon="-4.92116667">
        <ele>528.0</ele>
        <time>2018-10-06T08:23:40.000Z</time>
      </trkpt>
      <trkpt lat="38.12452333" lon="-4.92116667">
        <ele>528.0</ele>
        <time>2018-10-06T08:23:41.000Z</time>
      </trkpt>
      <trkpt lat="38.12452333" lon="-4.92116667">
        <ele>528.0</ele>
        <time>2018-10-06T08:23:42.000Z</time>
      </trkpt>
      <trkpt lat="38.12452333" lon="-4.92116667">
        <ele>528.0</ele>
        <time>2018-10-06T08:23:43.000Z</time>
      </trkpt>
      <trkpt lat="38.12452333" lon="-4.92116667">
        <ele>528.0</ele>
        <time>2018-10-06T08:23:44.000Z</time>
      </trkpt>
      <trkpt lat="38.12452333" lon="-4.92116667">
        <ele>528.0</ele>
        <time>2018-10-06T08:23:45.000Z</time>
      </trkpt>
      <trkpt lat="38.12452333" lon="-4.92116667">
        <ele>528.0</ele>
        <time>2018-10-06T08:23:46.000Z</time>
      </trkpt>
      <trkpt lat="38.12452333" lon="-4.92116667">
        <ele>528.0</ele>
        <time>2018-10-06T08:23:47.000Z</time>
      </trkpt>
      <trkpt lat="38.12452333" lon="-4.92116667">
        <ele>528.0</ele>
        <time>2018-10-06T08:23:48.000Z</time>
      </trkpt>
      <trkpt lat="38.12452333" lon="-4.92116667">
        <ele>528.0</ele>
        <time>2018-10-06T08:23:49.000Z</time>
      </trkpt>
      <trkpt lat="38.12452333" lon="-4.92116667">
        <ele>528.0</ele>
        <time>2018-10-06T08:23:50.000Z</time>
      </trkpt>
      <trkpt lat="38.12452333" lon="-4.92116667">
        <ele>528.0</ele>
        <time>2018-10-06T08:23:51.000Z</time>
      </trkpt>
      <trkpt lat="38.12452333" lon="-4.92116667">
        <ele>528.0</ele>
        <time>2018-10-06T08:23:52.000Z</time>
      </trkpt>
      <trkpt lat="38.12452333" lon="-4.92116667">
        <ele>528.0</ele>
        <time>2018-10-06T08:23:53.000Z</time>
      </trkpt>
      <trkpt lat="38.12452333" lon="-4.92116667">
        <ele>528.0</ele>
        <time>2018-10-06T08:23:54.000Z</time>
      </trkpt>
      <trkpt lat="38.12452333" lon="-4.92116667">
        <ele>528.0</ele>
        <time>2018-10-06T08:23:55.000Z</time>
      </trkpt>
      <trkpt lat="38.12452333" lon="-4.92116667">
        <ele>528.0</ele>
        <time>2018-10-06T08:23:56.000Z</time>
      </trkpt>
      <trkpt lat="38.12452333" lon="-4.92116667">
        <ele>528.0</ele>
        <time>2018-10-06T08:23:57.000Z</time>
      </trkpt>
      <trkpt lat="38.12452333" lon="-4.92116667">
        <ele>528.0</ele>
        <time>2018-10-06T08:23:58.000Z</time>
      </trkpt>
      <trkpt lat="38.12452333" lon="-4.92116667">
        <ele>528.0</ele>
        <time>2018-10-06T08:23:59.000Z</time>
      </trkpt>
      <trkpt lat="38.12452333" lon="-4.92116667">
        <ele>528.0</ele>
        <time>2018-10-06T08:24:00.000Z</time>
      </trkpt>
      <trkpt lat="38.12452333" lon="-4.92116667">
        <ele>528.0</ele>
        <time>2018-10-06T08:24:01.000Z</time>
      </trkpt>
      <trkpt lat="38.12477167" lon="-4.92130833">
        <ele>530.0</ele>
        <time>2018-10-06T08:24:02.000Z</time>
      </trkpt>
      <trkpt lat="38.12481" lon="-4.921365">
        <ele>527.0</ele>
        <time>2018-10-06T08:24:03.000Z</time>
      </trkpt>
      <trkpt lat="38.124815" lon="-4.92137167">
        <ele>528.0</ele>
        <time>2018-10-06T08:24:04.000Z</time>
      </trkpt>
      <trkpt lat="38.12481833" lon="-4.92137833">
        <ele>527.0</ele>
        <time>2018-10-06T08:24:05.000Z</time>
      </trkpt>
      <trkpt lat="38.124825" lon="-4.92137833">
        <ele>527.0</ele>
        <time>2018-10-06T08:24:06.000Z</time>
      </trkpt>
      <trkpt lat="38.12483667" lon="-4.92138167">
        <ele>526.0</ele>
        <time>2018-10-06T08:24:07.000Z</time>
      </trkpt>
      <trkpt lat="38.124845" lon="-4.92138333">
        <ele>525.0</ele>
        <time>2018-10-06T08:24:08.000Z</time>
      </trkpt>
      <trkpt lat="38.124855" lon="-4.92138833">
        <ele>524.0</ele>
        <time>2018-10-06T08:24:09.000Z</time>
      </trkpt>
      <trkpt lat="38.124865" lon="-4.92139167">
        <ele>524.0</ele>
        <time>2018-10-06T08:24:10.000Z</time>
      </trkpt>
      <trkpt lat="38.12487667" lon="-4.92139333">
        <ele>523.0</ele>
        <time>2018-10-06T08:24:11.000Z</time>
      </trkpt>
      <trkpt lat="38.12488667" lon="-4.92139667">
        <ele>522.0</ele>
        <time>2018-10-06T08:24:12.000Z</time>
      </trkpt>
      <trkpt lat="38.12489667" lon="-4.92139833">
        <ele>521.0</ele>
        <time>2018-10-06T08:24:13.000Z</time>
      </trkpt>
      <trkpt lat="38.12489667" lon="-4.92139833">
        <ele>521.0</ele>
        <time>2018-10-06T08:24:14.000Z</time>
      </trkpt>
      <trkpt lat="38.12489667" lon="-4.92139833">
        <ele>521.0</ele>
        <time>2018-10-06T08:24:15.000Z</time>
      </trkpt>
      <trkpt lat="38.12489667" lon="-4.92139833">
        <ele>521.0</ele>
        <time>2018-10-06T08:24:16.000Z</time>
      </trkpt>
      <trkpt lat="38.12489667" lon="-4.92139833">
        <ele>521.0</ele>
        <time>2018-10-06T08:24:17.000Z</time>
      </trkpt>
      <trkpt lat="38.12489667" lon="-4.92139833">
        <ele>521.0</ele>
        <time>2018-10-06T08:24:18.000Z</time>
      </trkpt>
      <trkpt lat="38.12489667" lon="-4.92139833">
        <ele>521.0</ele>
        <time>2018-10-06T08:24:19.000Z</time>
      </trkpt>
      <trkpt lat="38.12489667" lon="-4.92139833">
        <ele>521.0</ele>
        <time>2018-10-06T08:24:20.000Z</time>
      </trkpt>
      <trkpt lat="38.12489667" lon="-4.92139833">
        <ele>521.0</ele>
        <time>2018-10-06T08:24:21.000Z</time>
      </trkpt>
      <trkpt lat="38.12489667" lon="-4.92139833">
        <ele>521.0</ele>
        <time>2018-10-06T08:24:22.000Z</time>
      </trkpt>
      <trkpt lat="38.12489667" lon="-4.92139833">
        <ele>521.0</ele>
        <time>2018-10-06T08:24:23.000Z</time>
      </trkpt>
      <trkpt lat="38.12489667" lon="-4.92139833">
        <ele>521.0</ele>
        <time>2018-10-06T08:24:24.000Z</time>
      </trkpt>
      <trkpt lat="38.12489667" lon="-4.92139833">
        <ele>521.0</ele>
        <time>2018-10-06T08:24:25.000Z</time>
      </trkpt>
      <trkpt lat="38.12489667" lon="-4.92139833">
        <ele>521.0</ele>
        <time>2018-10-06T08:24:26.000Z</time>
      </trkpt>
      <trkpt lat="38.12489667" lon="-4.92139833">
        <ele>521.0</ele>
        <time>2018-10-06T08:24:27.000Z</time>
      </trkpt>
      <trkpt lat="38.12489667" lon="-4.92139833">
        <ele>521.0</ele>
        <time>2018-10-06T08:24:28.000Z</time>
      </trkpt>
      <trkpt lat="38.12489667" lon="-4.92139833">
        <ele>521.0</ele>
        <time>2018-10-06T08:24:29.000Z</time>
      </trkpt>
      <trkpt lat="38.12489667" lon="-4.92139833">
        <ele>521.0</ele>
        <time>2018-10-06T08:24:30.000Z</time>
      </trkpt>
      <trkpt lat="38.12489667" lon="-4.92139833">
        <ele>521.0</ele>
        <time>2018-10-06T08:24:31.000Z</time>
      </trkpt>
      <trkpt lat="38.12489667" lon="-4.92139833">
        <ele>521.0</ele>
        <time>2018-10-06T08:24:32.000Z</time>
      </trkpt>
      <trkpt lat="38.12489667" lon="-4.92139833">
        <ele>521.0</ele>
        <time>2018-10-06T08:24:33.000Z</time>
      </trkpt>
      <trkpt lat="38.12489667" lon="-4.92139833">
        <ele>521.0</ele>
        <time>2018-10-06T08:24:34.000Z</time>
      </trkpt>
      <trkpt lat="38.12489667" lon="-4.92139833">
        <ele>521.0</ele>
        <time>2018-10-06T08:24:35.000Z</time>
      </trkpt>
      <trkpt lat="38.12489667" lon="-4.92139833">
        <ele>521.0</ele>
        <time>2018-10-06T08:24:36.000Z</time>
      </trkpt>
      <trkpt lat="38.12489667" lon="-4.92139833">
        <ele>521.0</ele>
        <time>2018-10-06T08:24:37.000Z</time>
      </trkpt>
      <trkpt lat="38.12489667" lon="-4.92139833">
        <ele>521.0</ele>
        <time>2018-10-06T08:24:38.000Z</time>
      </trkpt>
      <trkpt lat="38.12489667" lon="-4.92139833">
        <ele>521.0</ele>
        <time>2018-10-06T08:24:39.000Z</time>
      </trkpt>
      <trkpt lat="38.12489667" lon="-4.92139833">
        <ele>521.0</ele>
        <time>2018-10-06T08:24:40.000Z</time>
      </trkpt>
      <trkpt lat="38.12489667" lon="-4.92139833">
        <ele>521.0</ele>
        <time>2018-10-06T08:24:41.000Z</time>
      </trkpt>
      <trkpt lat="38.12489667" lon="-4.92139833">
        <ele>521.0</ele>
        <time>2018-10-06T08:24:42.000Z</time>
      </trkpt>
      <trkpt lat="38.12489667" lon="-4.92139833">
        <ele>521.0</ele>
        <time>2018-10-06T08:24:43.000Z</time>
      </trkpt>
      <trkpt lat="38.12489667" lon="-4.92139833">
        <ele>521.0</ele>
        <time>2018-10-06T08:24:44.000Z</time>
      </trkpt>
      <trkpt lat="38.12489667" lon="-4.92139833">
        <ele>521.0</ele>
        <time>2018-10-06T08:24:45.000Z</time>
      </trkpt>
      <trkpt lat="38.12489667" lon="-4.92139833">
        <ele>521.0</ele>
        <time>2018-10-06T08:24:46.000Z</time>
      </trkpt>
      <trkpt lat="38.12489667" lon="-4.92139833">
        <ele>521.0</ele>
        <time>2018-10-06T08:24:47.000Z</time>
      </trkpt>
      <trkpt lat="38.12489667" lon="-4.92139833">
        <ele>521.0</ele>
        <time>2018-10-06T08:24:48.000Z</time>
      </trkpt>
      <trkpt lat="38.12489667" lon="-4.92139833">
        <ele>521.0</ele>
        <time>2018-10-06T08:24:49.000Z</time>
      </trkpt>
      <trkpt lat="38.12489667" lon="-4.92139833">
        <ele>521.0</ele>
        <time>2018-10-06T08:24:50.000Z</time>
      </trkpt>
      <trkpt lat="38.12489667" lon="-4.92139833">
        <ele>521.0</ele>
        <time>2018-10-06T08:24:51.000Z</time>
      </trkpt>
      <trkpt lat="38.12489667" lon="-4.92139833">
        <ele>521.0</ele>
        <time>2018-10-06T08:24:52.000Z</time>
      </trkpt>
      <trkpt lat="38.12489667" lon="-4.92139833">
        <ele>521.0</ele>
        <time>2018-10-06T08:24:53.000Z</time>
      </trkpt>
      <trkpt lat="38.12489667" lon="-4.92139833">
        <ele>521.0</ele>
        <time>2018-10-06T08:24:54.000Z</time>
      </trkpt>
      <trkpt lat="38.12489667" lon="-4.92139833">
        <ele>521.0</ele>
        <time>2018-10-06T08:24:55.000Z</time>
      </trkpt>
      <trkpt lat="38.12489667" lon="-4.92139833">
        <ele>521.0</ele>
        <time>2018-10-06T08:24:56.000Z</time>
      </trkpt>
      <trkpt lat="38.12489667" lon="-4.92139833">
        <ele>521.0</ele>
        <time>2018-10-06T08:24:57.000Z</time>
      </trkpt>
      <trkpt lat="38.12489667" lon="-4.92139833">
        <ele>521.0</ele>
        <time>2018-10-06T08:24:58.000Z</time>
      </trkpt>
      <trkpt lat="38.12489667" lon="-4.92139833">
        <ele>521.0</ele>
        <time>2018-10-06T08:24:59.000Z</time>
      </trkpt>
      <trkpt lat="38.12489667" lon="-4.92139833">
        <ele>521.0</ele>
        <time>2018-10-06T08:25:00.000Z</time>
      </trkpt>
      <trkpt lat="38.12489667" lon="-4.92139833">
        <ele>521.0</ele>
        <time>2018-10-06T08:25:01.000Z</time>
      </trkpt>
      <trkpt lat="38.12514" lon="-4.92147167">
        <ele>499.0</ele>
        <time>2018-10-06T08:25:02.000Z</time>
      </trkpt>
      <trkpt lat="38.12515167" lon="-4.92146333">
        <ele>499.0</ele>
        <time>2018-10-06T08:25:03.000Z</time>
      </trkpt>
      <trkpt lat="38.12516333" lon="-4.921455">
        <ele>499.0</ele>
        <time>2018-10-06T08:25:04.000Z</time>
      </trkpt>
      <trkpt lat="38.12518167" lon="-4.921445">
        <ele>499.0</ele>
        <time>2018-10-06T08:25:05.000Z</time>
      </trkpt>
      <trkpt lat="38.12519667" lon="-4.92143333">
        <ele>499.0</ele>
        <time>2018-10-06T08:25:06.000Z</time>
      </trkpt>
      <trkpt lat="38.12521" lon="-4.92142">
        <ele>499.0</ele>
        <time>2018-10-06T08:25:07.000Z</time>
      </trkpt>
      <trkpt lat="38.12522" lon="-4.92140833">
        <ele>499.0</ele>
        <time>2018-10-06T08:25:08.000Z</time>
      </trkpt>
      <trkpt lat="38.12522833" lon="-4.92139333">
        <ele>499.0</ele>
        <time>2018-10-06T08:25:09.000Z</time>
      </trkpt>
      <trkpt lat="38.12523333" lon="-4.92138">
        <ele>499.0</ele>
        <time>2018-10-06T08:25:10.000Z</time>
      </trkpt>
      <trkpt lat="38.12523667" lon="-4.92136667">
        <ele>499.0</ele>
        <time>2018-10-06T08:25:11.000Z</time>
      </trkpt>
      <trkpt lat="38.12523833" lon="-4.92135667">
        <ele>499.0</ele>
        <time>2018-10-06T08:25:12.000Z</time>
      </trkpt>
      <trkpt lat="38.12523667" lon="-4.921345">
        <ele>499.0</ele>
        <time>2018-10-06T08:25:13.000Z</time>
      </trkpt>
      <trkpt lat="38.12523667" lon="-4.921345">
        <ele>499.0</ele>
        <time>2018-10-06T08:25:14.000Z</time>
      </trkpt>
      <trkpt lat="38.12523667" lon="-4.921345">
        <ele>499.0</ele>
        <time>2018-10-06T08:25:15.000Z</time>
      </trkpt>
      <trkpt lat="38.12523667" lon="-4.921345">
        <ele>499.0</ele>
        <time>2018-10-06T08:25:16.000Z</time>
      </trkpt>
      <trkpt lat="38.12523667" lon="-4.921345">
        <ele>499.0</ele>
        <time>2018-10-06T08:25:17.000Z</time>
      </trkpt>
      <trkpt lat="38.12523667" lon="-4.921345">
        <ele>499.0</ele>
        <time>2018-10-06T08:25:18.000Z</time>
      </trkpt>
      <trkpt lat="38.12523667" lon="-4.921345">
        <ele>499.0</ele>
        <time>2018-10-06T08:25:19.000Z</time>
      </trkpt>
      <trkpt lat="38.12523667" lon="-4.921345">
        <ele>499.0</ele>
        <time>2018-10-06T08:25:20.000Z</time>
      </trkpt>
      <trkpt lat="38.12523667" lon="-4.921345">
        <ele>499.0</ele>
        <time>2018-10-06T08:25:21.000Z</time>
      </trkpt>
      <trkpt lat="38.12523667" lon="-4.921345">
        <ele>499.0</ele>
        <time>2018-10-06T08:25:22.000Z</time>
      </trkpt>
      <trkpt lat="38.12523667" lon="-4.921345">
        <ele>499.0</ele>
        <time>2018-10-06T08:25:23.000Z</time>
      </trkpt>
      <trkpt lat="38.12523667" lon="-4.921345">
        <ele>499.0</ele>
        <time>2018-10-06T08:25:24.000Z</time>
      </trkpt>
      <trkpt lat="38.12523667" lon="-4.921345">
        <ele>499.0</ele>
        <time>2018-10-06T08:25:25.000Z</time>
      </trkpt>
      <trkpt lat="38.12523667" lon="-4.921345">
        <ele>499.0</ele>
        <time>2018-10-06T08:25:26.000Z</time>
      </trkpt>
      <trkpt lat="38.12523667" lon="-4.921345">
        <ele>499.0</ele>
        <time>2018-10-06T08:25:27.000Z</time>
      </trkpt>
      <trkpt lat="38.12523667" lon="-4.921345">
        <ele>499.0</ele>
        <time>2018-10-06T08:25:28.000Z</time>
      </trkpt>
      <trkpt lat="38.12523667" lon="-4.921345">
        <ele>499.0</ele>
        <time>2018-10-06T08:25:29.000Z</time>
      </trkpt>
      <trkpt lat="38.12523667" lon="-4.921345">
        <ele>499.0</ele>
        <time>2018-10-06T08:25:30.000Z</time>
      </trkpt>
      <trkpt lat="38.12523667" lon="-4.921345">
        <ele>499.0</ele>
        <time>2018-10-06T08:25:31.000Z</time>
      </trkpt>
      <trkpt lat="38.12523667" lon="-4.921345">
        <ele>499.0</ele>
        <time>2018-10-06T08:25:32.000Z</time>
      </trkpt>
      <trkpt lat="38.12523667" lon="-4.921345">
        <ele>499.0</ele>
        <time>2018-10-06T08:25:33.000Z</time>
      </trkpt>
      <trkpt lat="38.12523667" lon="-4.921345">
        <ele>499.0</ele>
        <time>2018-10-06T08:25:34.000Z</time>
      </trkpt>
      <trkpt lat="38.12523667" lon="-4.921345">
        <ele>499.0</ele>
        <time>2018-10-06T08:25:35.000Z</time>
      </trkpt>
      <trkpt lat="38.12523667" lon="-4.921345">
        <ele>499.0</ele>
        <time>2018-10-06T08:25:36.000Z</time>
      </trkpt>
      <trkpt lat="38.12523667" lon="-4.921345">
        <ele>499.0</ele>
        <time>2018-10-06T08:25:37.000Z</time>
      </trkpt>
      <trkpt lat="38.12523667" lon="-4.921345">
        <ele>499.0</ele>
        <time>2018-10-06T08:25:38.000Z</time>
      </trkpt>
      <trkpt lat="38.12523667" lon="-4.921345">
        <ele>499.0</ele>
        <time>2018-10-06T08:25:39.000Z</time>
      </trkpt>
      <trkpt lat="38.12523667" lon="-4.921345">
        <ele>499.0</ele>
        <time>2018-10-06T08:25:40.000Z</time>
      </trkpt>
      <trkpt lat="38.12523667" lon="-4.921345">
        <ele>499.0</ele>
        <time>2018-10-06T08:25:41.000Z</time>
      </trkpt>
      <trkpt lat="38.12523667" lon="-4.921345">
        <ele>499.0</ele>
        <time>2018-10-06T08:25:42.000Z</time>
      </trkpt>
      <trkpt lat="38.12523667" lon="-4.921345">
        <ele>499.0</ele>
        <time>2018-10-06T08:25:43.000Z</time>
      </trkpt>
      <trkpt lat="38.12523667" lon="-4.921345">
        <ele>499.0</ele>
        <time>2018-10-06T08:25:44.000Z</time>
      </trkpt>
      <trkpt lat="38.12523667" lon="-4.921345">
        <ele>499.0</ele>
        <time>2018-10-06T08:25:45.000Z</time>
      </trkpt>
      <trkpt lat="38.12523667" lon="-4.921345">
        <ele>499.0</ele>
        <time>2018-10-06T08:25:46.000Z</time>
      </trkpt>
      <trkpt lat="38.12523667" lon="-4.921345">
        <ele>499.0</ele>
        <time>2018-10-06T08:25:47.000Z</time>
      </trkpt>
      <trkpt lat="38.12523667" lon="-4.921345">
        <ele>499.0</ele>
        <time>2018-10-06T08:25:48.000Z</time>
      </trkpt>
      <trkpt lat="38.12523667" lon="-4.921345">
        <ele>499.0</ele>
        <time>2018-10-06T08:25:49.000Z</time>
      </trkpt>
      <trkpt lat="38.12523667" lon="-4.921345">
        <ele>499.0</ele>
        <time>2018-10-06T08:25:50.000Z</time>
      </trkpt>
      <trkpt lat="38.12523667" lon="-4.921345">
        <ele>499.0</ele>
        <time>2018-10-06T08:25:51.000Z</time>
      </trkpt>
      <trkpt lat="38.12523667" lon="-4.921345">
        <ele>499.0</ele>
        <time>2018-10-06T08:25:52.000Z</time>
      </trkpt>
      <trkpt lat="38.12523667" lon="-4.921345">
        <ele>499.0</ele>
        <time>2018-10-06T08:25:53.000Z</time>
      </trkpt>
      <trkpt lat="38.12523667" lon="-4.921345">
        <ele>499.0</ele>
        <time>2018-10-06T08:25:54.000Z</time>
      </trkpt>
      <trkpt lat="38.12523667" lon="-4.921345">
        <ele>499.0</ele>
        <time>2018-10-06T08:25:55.000Z</time>
      </trkpt>
      <trkpt lat="38.12523667" lon="-4.921345">
        <ele>499.0</ele>
        <time>2018-10-06T08:25:56.000Z</time>
      </trkpt>
      <trkpt lat="38.12523667" lon="-4.921345">
        <ele>499.0</ele>
        <time>2018-10-06T08:25:57.000Z</time>
      </trkpt>
      <trkpt lat="38.12523667" lon="-4.921345">
        <ele>499.0</ele>
        <time>2018-10-06T08:25:58.000Z</time>
      </trkpt>
      <trkpt lat="38.12523667" lon="-4.921345">
        <ele>499.0</ele>
        <time>2018-10-06T08:25:59.000Z</time>
      </trkpt>
      <trkpt lat="38.12523667" lon="-4.921345">
        <ele>499.0</ele>
        <time>2018-10-06T08:26:00.000Z</time>
      </trkpt>
      <trkpt lat="38.12523667" lon="-4.921345">
        <ele>499.0</ele>
        <time>2018-10-06T08:26:01.000Z</time>
      </trkpt>
      <trkpt lat="38.12516333" lon="-4.920985">
        <ele>497.0</ele>
        <time>2018-10-06T08:26:02.000Z</time>
      </trkpt>
      <trkpt lat="38.1251" lon="-4.92088833">
        <ele>496.0</ele>
        <time>2018-10-06T08:26:03.000Z</time>
      </trkpt>
      <trkpt lat="38.12509667" lon="-4.92087">
        <ele>496.0</ele>
        <time>2018-10-06T08:26:04.000Z</time>
      </trkpt>
      <trkpt lat="38.12509667" lon="-4.92085667">
        <ele>496.0</ele>
        <time>2018-10-06T08:26:05.000Z</time>
      </trkpt>
      <trkpt lat="38.125095" lon="-4.92085167">
        <ele>496.0</ele>
        <time>2018-10-06T08:26:06.000Z</time>
      </trkpt>
      <trkpt lat="38.12509333" lon="-4.92084167">
        <ele>496.0</ele>
        <time>2018-10-06T08:26:07.000Z</time>
      </trkpt>
      <trkpt lat="38.12509167" lon="-4.92083">
        <ele>496.0</ele>
        <time>2018-10-06T08:26:08.000Z</time>
      </trkpt>
      <trkpt lat="38.12508833" lon="-4.92082167">
        <ele>496.0</ele>
        <time>2018-10-06T08:26:09.000Z</time>
      </trkpt>
      <trkpt lat="38.12508833" lon="-4.92081">
        <ele>496.0</ele>
        <time>2018-10-06T08:26:10.000Z</time>
      </trkpt>
      <trkpt lat="38.12508667" lon="-4.9208">
        <ele>496.0</ele>
        <time>2018-10-06T08:26:11.000Z</time>
      </trkpt>
      <trkpt lat="38.12508333" lon="-4.92078833">
        <ele>496.0</ele>
        <time>2018-10-06T08:26:12.000Z</time>
      </trkpt>
      <trkpt lat="38.12508" lon="-4.92077833">
        <ele>495.0</ele>
        <time>2018-10-06T08:26:13.000Z</time>
      </trkpt>
      <trkpt lat="38.12507667" lon="-4.92076667">
        <ele>495.0</ele>
        <time>2018-10-06T08:26:14.000Z</time>
      </trkpt>
      <trkpt lat="38.12507667" lon="-4.92076667">
        <ele>495.0</ele>
        <time>2018-10-06T08:26:15.000Z</time>
      </trkpt>
      <trkpt lat="38.12507667" lon="-4.92076667">
        <ele>495.0</ele>
        <time>2018-10-06T08:26:16.000Z</time>
      </trkpt>
      <trkpt lat="38.12507667" lon="-4.92076667">
        <ele>495.0</ele>
        <time>2018-10-06T08:26:17.000Z</time>
      </trkpt>
      <trkpt lat="38.12507667" lon="-4.92076667">
        <ele>495.0</ele>
        <time>2018-10-06T08:26:18.000Z</time>
      </trkpt>
      <trkpt lat="38.12507667" lon="-4.92076667">
        <ele>495.0</ele>
        <time>2018-10-06T08:26:19.000Z</time>
      </trkpt>
      <trkpt lat="38.12507667" lon="-4.92076667">
        <ele>495.0</ele>
        <time>2018-10-06T08:26:20.000Z</time>
      </trkpt>
      <trkpt lat="38.12507667" lon="-4.92076667">
        <ele>495.0</ele>
        <time>2018-10-06T08:26:21.000Z</time>
      </trkpt>
      <trkpt lat="38.12507667" lon="-4.92076667">
        <ele>495.0</ele>
        <time>2018-10-06T08:26:22.000Z</time>
      </trkpt>
      <trkpt lat="38.12507667" lon="-4.92076667">
        <ele>495.0</ele>
        <time>2018-10-06T08:26:23.000Z</time>
      </trkpt>
      <trkpt lat="38.12507667" lon="-4.92076667">
        <ele>495.0</ele>
        <time>2018-10-06T08:26:24.000Z</time>
      </trkpt>
      <trkpt lat="38.12507667" lon="-4.92076667">
        <ele>495.0</ele>
        <time>2018-10-06T08:26:25.000Z</time>
      </trkpt>
      <trkpt lat="38.12507667" lon="-4.92076667">
        <ele>495.0</ele>
        <time>2018-10-06T08:26:26.000Z</time>
      </trkpt>
      <trkpt lat="38.12507667" lon="-4.92076667">
        <ele>495.0</ele>
        <time>2018-10-06T08:26:27.000Z</time>
      </trkpt>
      <trkpt lat="38.12507667" lon="-4.92076667">
        <ele>495.0</ele>
        <time>2018-10-06T08:26:28.000Z</time>
      </trkpt>
      <trkpt lat="38.12507667" lon="-4.92076667">
        <ele>495.0</ele>
        <time>2018-10-06T08:26:29.000Z</time>
      </trkpt>
      <trkpt lat="38.12507667" lon="-4.92076667">
        <ele>495.0</ele>
        <time>2018-10-06T08:26:30.000Z</time>
      </trkpt>
      <trkpt lat="38.12507667" lon="-4.92076667">
        <ele>495.0</ele>
        <time>2018-10-06T08:26:31.000Z</time>
      </trkpt>
      <trkpt lat="38.12507667" lon="-4.92076667">
        <ele>495.0</ele>
        <time>2018-10-06T08:26:32.000Z</time>
      </trkpt>
      <trkpt lat="38.12507667" lon="-4.92076667">
        <ele>495.0</ele>
        <time>2018-10-06T08:26:33.000Z</time>
      </trkpt>
      <trkpt lat="38.12507667" lon="-4.92076667">
        <ele>495.0</ele>
        <time>2018-10-06T08:26:34.000Z</time>
      </trkpt>
      <trkpt lat="38.12507667" lon="-4.92076667">
        <ele>495.0</ele>
        <time>2018-10-06T08:26:35.000Z</time>
      </trkpt>
      <trkpt lat="38.12507667" lon="-4.92076667">
        <ele>495.0</ele>
        <time>2018-10-06T08:26:36.000Z</time>
      </trkpt>
      <trkpt lat="38.12507667" lon="-4.92076667">
        <ele>495.0</ele>
        <time>2018-10-06T08:26:37.000Z</time>
      </trkpt>
      <trkpt lat="38.12507667" lon="-4.92076667">
        <ele>495.0</ele>
        <time>2018-10-06T08:26:38.000Z</time>
      </trkpt>
      <trkpt lat="38.12507667" lon="-4.92076667">
        <ele>495.0</ele>
        <time>2018-10-06T08:26:39.000Z</time>
      </trkpt>
      <trkpt lat="38.12507667" lon="-4.92076667">
        <ele>495.0</ele>
        <time>2018-10-06T08:26:40.000Z</time>
      </trkpt>
      <trkpt lat="38.12507667" lon="-4.92076667">
        <ele>495.0</ele>
        <time>2018-10-06T08:26:41.000Z</time>
      </trkpt>
      <trkpt lat="38.12507667" lon="-4.92076667">
        <ele>495.0</ele>
        <time>2018-10-06T08:26:42.000Z</time>
      </trkpt>
      <trkpt lat="38.12507667" lon="-4.92076667">
        <ele>495.0</ele>
        <time>2018-10-06T08:26:43.000Z</time>
      </trkpt>
      <trkpt lat="38.12507667" lon="-4.92076667">
        <ele>495.0</ele>
        <time>2018-10-06T08:26:44.000Z</time>
      </trkpt>
      <trkpt lat="38.12507667" lon="-4.92076667">
        <ele>495.0</ele>
        <time>2018-10-06T08:26:45.000Z</time>
      </trkpt>
      <trkpt lat="38.12507667" lon="-4.92076667">
        <ele>495.0</ele>
        <time>2018-10-06T08:26:46.000Z</time>
      </trkpt>
      <trkpt lat="38.12507667" lon="-4.92076667">
        <ele>495.0</ele>
        <time>2018-10-06T08:26:47.000Z</time>
      </trkpt>
      <trkpt lat="38.12507667" lon="-4.92076667">
        <ele>495.0</ele>
        <time>2018-10-06T08:26:48.000Z</time>
      </trkpt>
      <trkpt lat="38.12507667" lon="-4.92076667">
        <ele>495.0</ele>
        <time>2018-10-06T08:26:49.000Z</time>
      </trkpt>
      <trkpt lat="38.12507667" lon="-4.92076667">
        <ele>495.0</ele>
        <time>2018-10-06T08:26:50.000Z</time>
      </trkpt>
      <trkpt lat="38.12507667" lon="-4.92076667">
        <ele>495.0</ele>
        <time>2018-10-06T08:26:51.000Z</time>
      </trkpt>
      <trkpt lat="38.12507667" lon="-4.92076667">
        <ele>495.0</ele>
        <time>2018-10-06T08:26:52.000Z</time>
      </trkpt>
      <trkpt lat="38.12507667" lon="-4.92076667">
        <ele>495.0</ele>
        <time>2018-10-06T08:26:53.000Z</time>
      </trkpt>
      <trkpt lat="38.12507667" lon="-4.92076667">
        <ele>495.0</ele>
        <time>2018-10-06T08:26:54.000Z</time>
      </trkpt>
      <trkpt lat="38.12507667" lon="-4.92076667">
        <ele>495.0</ele>
        <time>2018-10-06T08:26:55.000Z</time>
      </trkpt>
      <trkpt lat="38.12507667" lon="-4.92076667">
        <ele>495.0</ele>
        <time>2018-10-06T08:26:56.000Z</time>
      </trkpt>
      <trkpt lat="38.12507667" lon="-4.92076667">
        <ele>495.0</ele>
        <time>2018-10-06T08:26:57.000Z</time>
      </trkpt>
      <trkpt lat="38.12507667" lon="-4.92076667">
        <ele>495.0</ele>
        <time>2018-10-06T08:26:58.000Z</time>
      </trkpt>
      <trkpt lat="38.12507667" lon="-4.92076667">
        <ele>495.0</ele>
        <time>2018-10-06T08:26:59.000Z</time>
      </trkpt>
      <trkpt lat="38.12507667" lon="-4.92076667">
        <ele>495.0</ele>
        <time>2018-10-06T08:27:00.000Z</time>
      </trkpt>
      <trkpt lat="38.12507667" lon="-4.92076667">
        <ele>495.0</ele>
        <time>2018-10-06T08:27:01.000Z</time>
      </trkpt>
      <trkpt lat="38.12507667" lon="-4.92076667">
        <ele>495.0</ele>
        <time>2018-10-06T08:27:02.000Z</time>
      </trkpt>
      <trkpt lat="38.125105" lon="-4.92070333">
        <ele>495.0</ele>
        <time>2018-10-06T08:27:03.000Z</time>
      </trkpt>
      <trkpt lat="38.12513167" lon="-4.92067833">
        <ele>493.0</ele>
        <time>2018-10-06T08:27:04.000Z</time>
      </trkpt>
      <trkpt lat="38.12514833" lon="-4.92067167">
        <ele>491.0</ele>
        <time>2018-10-06T08:27:05.000Z</time>
      </trkpt>
      <trkpt lat="38.125155" lon="-4.92067333">
        <ele>491.0</ele>
        <time>2018-10-06T08:27:06.000Z</time>
      </trkpt>
      <trkpt lat="38.12515833" lon="-4.920675">
        <ele>491.0</ele>
        <time>2018-10-06T08:27:07.000Z</time>
      </trkpt>
      <trkpt lat="38.12516333" lon="-4.92067667">
        <ele>491.0</ele>
        <time>2018-10-06T08:27:08.000Z</time>
      </trkpt>
      <trkpt lat="38.12516833" lon="-4.92067833">
        <ele>491.0</ele>
        <time>2018-10-06T08:27:09.000Z</time>
      </trkpt>
      <trkpt lat="38.12517167" lon="-4.92067833">
        <ele>491.0</ele>
        <time>2018-10-06T08:27:10.000Z</time>
      </trkpt>
      <trkpt lat="38.125175" lon="-4.92068">
        <ele>490.0</ele>
        <time>2018-10-06T08:27:11.000Z</time>
      </trkpt>
      <trkpt lat="38.12517833" lon="-4.92068167">
        <ele>490.0</ele>
        <time>2018-10-06T08:27:12.000Z</time>
      </trkpt>
      <trkpt lat="38.12518333" lon="-4.92068167">
        <ele>490.0</ele>
        <time>2018-10-06T08:27:13.000Z</time>
      </trkpt>
      <trkpt lat="38.12518667" lon="-4.92068167">
        <ele>489.0</ele>
        <time>2018-10-06T08:27:14.000Z</time>
      </trkpt>
      <trkpt lat="38.12518667" lon="-4.92068167">
        <ele>489.0</ele>
        <time>2018-10-06T08:27:15.000Z</time>
      </trkpt>
      <trkpt lat="38.12518667" lon="-4.92068167">
        <ele>489.0</ele>
        <time>2018-10-06T08:27:16.000Z</time>
      </trkpt>
      <trkpt lat="38.12518667" lon="-4.92068167">
        <ele>489.0</ele>
        <time>2018-10-06T08:27:17.000Z</time>
      </trkpt>
      <trkpt lat="38.12518667" lon="-4.92068167">
        <ele>489.0</ele>
        <time>2018-10-06T08:27:18.000Z</time>
      </trkpt>
      <trkpt lat="38.12518667" lon="-4.92068167">
        <ele>489.0</ele>
        <time>2018-10-06T08:27:19.000Z</time>
      </trkpt>
      <trkpt lat="38.12518667" lon="-4.92068167">
        <ele>489.0</ele>
        <time>2018-10-06T08:27:20.000Z</time>
      </trkpt>
      <trkpt lat="38.12518667" lon="-4.92068167">
        <ele>489.0</ele>
        <time>2018-10-06T08:27:21.000Z</time>
      </trkpt>
      <trkpt lat="38.12518667" lon="-4.92068167">
        <ele>489.0</ele>
        <time>2018-10-06T08:27:22.000Z</time>
      </trkpt>
      <trkpt lat="38.12518667" lon="-4.92068167">
        <ele>489.0</ele>
        <time>2018-10-06T08:27:23.000Z</time>
      </trkpt>
      <trkpt lat="38.12518667" lon="-4.92068167">
        <ele>489.0</ele>
        <time>2018-10-06T08:27:24.000Z</time>
      </trkpt>
      <trkpt lat="38.12518667" lon="-4.92068167">
        <ele>489.0</ele>
        <time>2018-10-06T08:27:25.000Z</time>
      </trkpt>
      <trkpt lat="38.12518667" lon="-4.92068167">
        <ele>489.0</ele>
        <time>2018-10-06T08:27:26.000Z</time>
      </trkpt>
      <trkpt lat="38.12518667" lon="-4.92068167">
        <ele>489.0</ele>
        <time>2018-10-06T08:27:27.000Z</time>
      </trkpt>
      <trkpt lat="38.12518667" lon="-4.92068167">
        <ele>489.0</ele>
        <time>2018-10-06T08:27:28.000Z</time>
      </trkpt>
      <trkpt lat="38.12518667" lon="-4.92068167">
        <ele>489.0</ele>
        <time>2018-10-06T08:27:29.000Z</time>
      </trkpt>
      <trkpt lat="38.12518667" lon="-4.92068167">
        <ele>489.0</ele>
        <time>2018-10-06T08:27:30.000Z</time>
      </trkpt>
      <trkpt lat="38.12518667" lon="-4.92068167">
        <ele>489.0</ele>
        <time>2018-10-06T08:27:31.000Z</time>
      </trkpt>
      <trkpt lat="38.12518667" lon="-4.92068167">
        <ele>489.0</ele>
        <time>2018-10-06T08:27:32.000Z</time>
      </trkpt>
      <trkpt lat="38.12518667" lon="-4.92068167">
        <ele>489.0</ele>
        <time>2018-10-06T08:27:33.000Z</time>
      </trkpt>
      <trkpt lat="38.12518667" lon="-4.92068167">
        <ele>489.0</ele>
        <time>2018-10-06T08:27:34.000Z</time>
      </trkpt>
      <trkpt lat="38.12518667" lon="-4.92068167">
        <ele>489.0</ele>
        <time>2018-10-06T08:27:35.000Z</time>
      </trkpt>
      <trkpt lat="38.12518667" lon="-4.92068167">
        <ele>489.0</ele>
        <time>2018-10-06T08:27:36.000Z</time>
      </trkpt>
      <trkpt lat="38.12518667" lon="-4.92068167">
        <ele>489.0</ele>
        <time>2018-10-06T08:27:37.000Z</time>
      </trkpt>
      <trkpt lat="38.12518667" lon="-4.92068167">
        <ele>489.0</ele>
        <time>2018-10-06T08:27:38.000Z</time>
      </trkpt>
      <trkpt lat="38.12518667" lon="-4.92068167">
        <ele>489.0</ele>
        <time>2018-10-06T08:27:39.000Z</time>
      </trkpt>
      <trkpt lat="38.12518667" lon="-4.92068167">
        <ele>489.0</ele>
        <time>2018-10-06T08:27:40.000Z</time>
      </trkpt>
      <trkpt lat="38.12518667" lon="-4.92068167">
        <ele>489.0</ele>
        <time>2018-10-06T08:27:41.000Z</time>
      </trkpt>
      <trkpt lat="38.12518667" lon="-4.92068167">
        <ele>489.0</ele>
        <time>2018-10-06T08:27:42.000Z</time>
      </trkpt>
      <trkpt lat="38.12518667" lon="-4.92068167">
        <ele>489.0</ele>
        <time>2018-10-06T08:27:43.000Z</time>
      </trkpt>
      <trkpt lat="38.12518667" lon="-4.92068167">
        <ele>489.0</ele>
        <time>2018-10-06T08:27:44.000Z</time>
      </trkpt>
      <trkpt lat="38.12518667" lon="-4.92068167">
        <ele>489.0</ele>
        <time>2018-10-06T08:27:45.000Z</time>
      </trkpt>
      <trkpt lat="38.12518667" lon="-4.92068167">
        <ele>489.0</ele>
        <time>2018-10-06T08:27:46.000Z</time>
      </trkpt>
      <trkpt lat="38.12518667" lon="-4.92068167">
        <ele>489.0</ele>
        <time>2018-10-06T08:27:47.000Z</time>
      </trkpt>
      <trkpt lat="38.12518667" lon="-4.92068167">
        <ele>489.0</ele>
        <time>2018-10-06T08:27:48.000Z</time>
      </trkpt>
      <trkpt lat="38.12518667" lon="-4.92068167">
        <ele>489.0</ele>
        <time>2018-10-06T08:27:49.000Z</time>
      </trkpt>
      <trkpt lat="38.12518667" lon="-4.92068167">
        <ele>489.0</ele>
        <time>2018-10-06T08:27:50.000Z</time>
      </trkpt>
      <trkpt lat="38.12518667" lon="-4.92068167">
        <ele>489.0</ele>
        <time>2018-10-06T08:27:51.000Z</time>
      </trkpt>
      <trkpt lat="38.12518667" lon="-4.92068167">
        <ele>489.0</ele>
        <time>2018-10-06T08:27:52.000Z</time>
      </trkpt>
      <trkpt lat="38.12518667" lon="-4.92068167">
        <ele>489.0</ele>
        <time>2018-10-06T08:27:53.000Z</time>
      </trkpt>
      <trkpt lat="38.12518667" lon="-4.92068167">
        <ele>489.0</ele>
        <time>2018-10-06T08:27:54.000Z</time>
      </trkpt>
      <trkpt lat="38.12518667" lon="-4.92068167">
        <ele>489.0</ele>
        <time>2018-10-06T08:27:55.000Z</time>
      </trkpt>
      <trkpt lat="38.12518667" lon="-4.92068167">
        <ele>489.0</ele>
        <time>2018-10-06T08:27:56.000Z</time>
      </trkpt>
      <trkpt lat="38.12518667" lon="-4.92068167">
        <ele>489.0</ele>
        <time>2018-10-06T08:27:57.000Z</time>
      </trkpt>
      <trkpt lat="38.12518667" lon="-4.92068167">
        <ele>489.0</ele>
        <time>2018-10-06T08:27:58.000Z</time>
      </trkpt>
      <trkpt lat="38.12518667" lon="-4.92068167">
        <ele>489.0</ele>
        <time>2018-10-06T08:27:59.000Z</time>
      </trkpt>
      <trkpt lat="38.12518667" lon="-4.92068167">
        <ele>489.0</ele>
        <time>2018-10-06T08:28:00.000Z</time>
      </trkpt>
      <trkpt lat="38.12518667" lon="-4.92068167">
        <ele>489.0</ele>
        <time>2018-10-06T08:28:01.000Z</time>
      </trkpt>
      <trkpt lat="38.12518667" lon="-4.92068167">
        <ele>489.0</ele>
        <time>2018-10-06T08:28:02.000Z</time>
      </trkpt>
      <trkpt lat="38.12545" lon="-4.92075333">
        <ele>493.0</ele>
        <time>2018-10-06T08:28:03.000Z</time>
      </trkpt>
      <trkpt lat="38.12545" lon="-4.92074667">
        <ele>493.0</ele>
        <time>2018-10-06T08:28:04.000Z</time>
      </trkpt>
      <trkpt lat="38.12545" lon="-4.92074667">
        <ele>493.0</ele>
        <time>2018-10-06T08:28:05.000Z</time>
      </trkpt>
      <trkpt lat="38.12545167" lon="-4.92074333">
        <ele>492.0</ele>
        <time>2018-10-06T08:28:06.000Z</time>
      </trkpt>
      <trkpt lat="38.12545333" lon="-4.92074">
        <ele>492.0</ele>
        <time>2018-10-06T08:28:07.000Z</time>
      </trkpt>
      <trkpt lat="38.12545667" lon="-4.920735">
        <ele>491.0</ele>
        <time>2018-10-06T08:28:08.000Z</time>
      </trkpt>
      <trkpt lat="38.12545833" lon="-4.92073">
        <ele>490.0</ele>
        <time>2018-10-06T08:28:09.000Z</time>
      </trkpt>
      <trkpt lat="38.12546" lon="-4.92072667">
        <ele>490.0</ele>
        <time>2018-10-06T08:28:10.000Z</time>
      </trkpt>
      <trkpt lat="38.12546167" lon="-4.92072333">
        <ele>489.0</ele>
        <time>2018-10-06T08:28:11.000Z</time>
      </trkpt>
      <trkpt lat="38.12546333" lon="-4.92072167">
        <ele>489.0</ele>
        <time>2018-10-06T08:28:12.000Z</time>
      </trkpt>
      <trkpt lat="38.125465" lon="-4.92071833">
        <ele>489.0</ele>
        <time>2018-10-06T08:28:13.000Z</time>
      </trkpt>
      <trkpt lat="38.12546667" lon="-4.92071667">
        <ele>488.0</ele>
        <time>2018-10-06T08:28:14.000Z</time>
      </trkpt>
      <trkpt lat="38.12546667" lon="-4.92071667">
        <ele>488.0</ele>
        <time>2018-10-06T08:28:15.000Z</time>
      </trkpt>
      <trkpt lat="38.12546667" lon="-4.92071667">
        <ele>488.0</ele>
        <time>2018-10-06T08:28:16.000Z</time>
      </trkpt>
      <trkpt lat="38.12546667" lon="-4.92071667">
        <ele>488.0</ele>
        <time>2018-10-06T08:28:17.000Z</time>
      </trkpt>
      <trkpt lat="38.12546667" lon="-4.92071667">
        <ele>488.0</ele>
        <time>2018-10-06T08:28:18.000Z</time>
      </trkpt>
      <trkpt lat="38.12546667" lon="-4.92071667">
        <ele>488.0</ele>
        <time>2018-10-06T08:28:19.000Z</time>
      </trkpt>
      <trkpt lat="38.12546667" lon="-4.92071667">
        <ele>488.0</ele>
        <time>2018-10-06T08:28:20.000Z</time>
      </trkpt>
      <trkpt lat="38.12546667" lon="-4.92071667">
        <ele>488.0</ele>
        <time>2018-10-06T08:28:21.000Z</time>
      </trkpt>
      <trkpt lat="38.12546667" lon="-4.92071667">
        <ele>488.0</ele>
        <time>2018-10-06T08:28:22.000Z</time>
      </trkpt>
      <trkpt lat="38.12546667" lon="-4.92071667">
        <ele>488.0</ele>
        <time>2018-10-06T08:28:23.000Z</time>
      </trkpt>
      <trkpt lat="38.12546667" lon="-4.92071667">
        <ele>488.0</ele>
        <time>2018-10-06T08:28:24.000Z</time>
      </trkpt>
      <trkpt lat="38.12546667" lon="-4.92071667">
        <ele>488.0</ele>
        <time>2018-10-06T08:28:25.000Z</time>
      </trkpt>
      <trkpt lat="38.12546667" lon="-4.92071667">
        <ele>488.0</ele>
        <time>2018-10-06T08:28:26.000Z</time>
      </trkpt>
      <trkpt lat="38.12546667" lon="-4.92071667">
        <ele>488.0</ele>
        <time>2018-10-06T08:28:27.000Z</time>
      </trkpt>
      <trkpt lat="38.12546667" lon="-4.92071667">
        <ele>488.0</ele>
        <time>2018-10-06T08:28:28.000Z</time>
      </trkpt>
      <trkpt lat="38.12546667" lon="-4.92071667">
        <ele>488.0</ele>
        <time>2018-10-06T08:28:29.000Z</time>
      </trkpt>
      <trkpt lat="38.12546667" lon="-4.92071667">
        <ele>488.0</ele>
        <time>2018-10-06T08:28:30.000Z</time>
      </trkpt>
      <trkpt lat="38.12546667" lon="-4.92071667">
        <ele>488.0</ele>
        <time>2018-10-06T08:28:31.000Z</time>
      </trkpt>
      <trkpt lat="38.12546667" lon="-4.92071667">
        <ele>488.0</ele>
        <time>2018-10-06T08:28:32.000Z</time>
      </trkpt>
      <trkpt lat="38.12546667" lon="-4.92071667">
        <ele>488.0</ele>
        <time>2018-10-06T08:28:33.000Z</time>
      </trkpt>
      <trkpt lat="38.12546667" lon="-4.92071667">
        <ele>488.0</ele>
        <time>2018-10-06T08:28:34.000Z</time>
      </trkpt>
      <trkpt lat="38.12546667" lon="-4.92071667">
        <ele>488.0</ele>
        <time>2018-10-06T08:28:35.000Z</time>
      </trkpt>
      <trkpt lat="38.12546667" lon="-4.92071667">
        <ele>488.0</ele>
        <time>2018-10-06T08:28:36.000Z</time>
      </trkpt>
      <trkpt lat="38.12546667" lon="-4.92071667">
        <ele>488.0</ele>
        <time>2018-10-06T08:28:37.000Z</time>
      </trkpt>
      <trkpt lat="38.12546667" lon="-4.92071667">
        <ele>488.0</ele>
        <time>2018-10-06T08:28:38.000Z</time>
      </trkpt>
      <trkpt lat="38.12546667" lon="-4.92071667">
        <ele>488.0</ele>
        <time>2018-10-06T08:28:39.000Z</time>
      </trkpt>
      <trkpt lat="38.12546667" lon="-4.92071667">
        <ele>488.0</ele>
        <time>2018-10-06T08:28:40.000Z</time>
      </trkpt>
      <trkpt lat="38.12546667" lon="-4.92071667">
        <ele>488.0</ele>
        <time>2018-10-06T08:28:41.000Z</time>
      </trkpt>
      <trkpt lat="38.12546667" lon="-4.92071667">
        <ele>488.0</ele>
        <time>2018-10-06T08:28:42.000Z</time>
      </trkpt>
      <trkpt lat="38.12546667" lon="-4.92071667">
        <ele>488.0</ele>
        <time>2018-10-06T08:28:43.000Z</time>
      </trkpt>
      <trkpt lat="38.12546667" lon="-4.92071667">
        <ele>488.0</ele>
        <time>2018-10-06T08:28:44.000Z</time>
      </trkpt>
      <trkpt lat="38.12546667" lon="-4.92071667">
        <ele>488.0</ele>
        <time>2018-10-06T08:28:45.000Z</time>
      </trkpt>
      <trkpt lat="38.12546667" lon="-4.92071667">
        <ele>488.0</ele>
        <time>2018-10-06T08:28:46.000Z</time>
      </trkpt>
      <trkpt lat="38.12546667" lon="-4.92071667">
        <ele>488.0</ele>
        <time>2018-10-06T08:28:47.000Z</time>
      </trkpt>
      <trkpt lat="38.12546667" lon="-4.92071667">
        <ele>488.0</ele>
        <time>2018-10-06T08:28:48.000Z</time>
      </trkpt>
      <trkpt lat="38.12546667" lon="-4.92071667">
        <ele>488.0</ele>
        <time>2018-10-06T08:28:49.000Z</time>
      </trkpt>
      <trkpt lat="38.12546667" lon="-4.92071667">
        <ele>488.0</ele>
        <time>2018-10-06T08:28:50.000Z</time>
      </trkpt>
      <trkpt lat="38.12546667" lon="-4.92071667">
        <ele>488.0</ele>
        <time>2018-10-06T08:28:51.000Z</time>
      </trkpt>
      <trkpt lat="38.12546667" lon="-4.92071667">
        <ele>488.0</ele>
        <time>2018-10-06T08:28:52.000Z</time>
      </trkpt>
      <trkpt lat="38.12546667" lon="-4.92071667">
        <ele>488.0</ele>
        <time>2018-10-06T08:28:53.000Z</time>
      </trkpt>
      <trkpt lat="38.12546667" lon="-4.92071667">
        <ele>488.0</ele>
        <time>2018-10-06T08:28:54.000Z</time>
      </trkpt>
      <trkpt lat="38.12546667" lon="-4.92071667">
        <ele>488.0</ele>
        <time>2018-10-06T08:28:55.000Z</time>
      </trkpt>
      <trkpt lat="38.12546667" lon="-4.92071667">
        <ele>488.0</ele>
        <time>2018-10-06T08:28:56.000Z</time>
      </trkpt>
      <trkpt lat="38.12546667" lon="-4.92071667">
        <ele>488.0</ele>
        <time>2018-10-06T08:28:57.000Z</time>
      </trkpt>
      <trkpt lat="38.12546667" lon="-4.92071667">
        <ele>488.0</ele>
        <time>2018-10-06T08:28:58.000Z</time>
      </trkpt>
      <trkpt lat="38.12546667" lon="-4.92071667">
        <ele>488.0</ele>
        <time>2018-10-06T08:28:59.000Z</time>
      </trkpt>
      <trkpt lat="38.12546667" lon="-4.92071667">
        <ele>488.0</ele>
        <time>2018-10-06T08:29:00.000Z</time>
      </trkpt>
      <trkpt lat="38.12546667" lon="-4.92071667">
        <ele>488.0</ele>
        <time>2018-10-06T08:29:01.000Z</time>
      </trkpt>
      <trkpt lat="38.12546667" lon="-4.92071667">
        <ele>488.0</ele>
        <time>2018-10-06T08:29:02.000Z</time>
      </trkpt>
      <trkpt lat="38.12558667" lon="-4.92080667">
        <ele>483.0</ele>
        <time>2018-10-06T08:29:03.000Z</time>
      </trkpt>
      <trkpt lat="38.12560167" lon="-4.92080833">
        <ele>483.0</ele>
        <time>2018-10-06T08:29:04.000Z</time>
      </trkpt>
      <trkpt lat="38.12561667" lon="-4.92081">
        <ele>483.0</ele>
        <time>2018-10-06T08:29:05.000Z</time>
      </trkpt>
      <trkpt lat="38.12563" lon="-4.92081">
        <ele>483.0</ele>
        <time>2018-10-06T08:29:06.000Z</time>
      </trkpt>
      <trkpt lat="38.12564333" lon="-4.92081">
        <ele>483.0</ele>
        <time>2018-10-06T08:29:07.000Z</time>
      </trkpt>
      <trkpt lat="38.12565667" lon="-4.92081">
        <ele>482.0</ele>
        <time>2018-10-06T08:29:08.000Z</time>
      </trkpt>
      <trkpt lat="38.12566667" lon="-4.920805">
        <ele>482.0</ele>
        <time>2018-10-06T08:29:09.000Z</time>
      </trkpt>
      <trkpt lat="38.12567667" lon="-4.92080333">
        <ele>482.0</ele>
        <time>2018-10-06T08:29:10.000Z</time>
      </trkpt>
      <trkpt lat="38.12568833" lon="-4.92080333">
        <ele>482.0</ele>
        <time>2018-10-06T08:29:11.000Z</time>
      </trkpt>
      <trkpt lat="38.12569833" lon="-4.92080333">
        <ele>481.0</ele>
        <time>2018-10-06T08:29:12.000Z</time>
      </trkpt>
      <trkpt lat="38.12570833" lon="-4.92080333">
        <ele>481.0</ele>
        <time>2018-10-06T08:29:13.000Z</time>
      </trkpt>
      <trkpt lat="38.12572" lon="-4.92080167">
        <ele>480.0</ele>
        <time>2018-10-06T08:29:14.000Z</time>
      </trkpt>
      <trkpt lat="38.12572" lon="-4.92080167">
        <ele>480.0</ele>
        <time>2018-10-06T08:29:15.000Z</time>
      </trkpt>
      <trkpt lat="38.12572" lon="-4.92080167">
        <ele>480.0</ele>
        <time>2018-10-06T08:29:16.000Z</time>
      </trkpt>
      <trkpt lat="38.12572" lon="-4.92080167">
        <ele>480.0</ele>
        <time>2018-10-06T08:29:17.000Z</time>
      </trkpt>
      <trkpt lat="38.12572" lon="-4.92080167">
        <ele>480.0</ele>
        <time>2018-10-06T08:29:18.000Z</time>
      </trkpt>
      <trkpt lat="38.12572" lon="-4.92080167">
        <ele>480.0</ele>
        <time>2018-10-06T08:29:19.000Z</time>
      </trkpt>
      <trkpt lat="38.12572" lon="-4.92080167">
        <ele>480.0</ele>
        <time>2018-10-06T08:29:20.000Z</time>
      </trkpt>
      <trkpt lat="38.12572" lon="-4.92080167">
        <ele>480.0</ele>
        <time>2018-10-06T08:29:21.000Z</time>
      </trkpt>
      <trkpt lat="38.12572" lon="-4.92080167">
        <ele>480.0</ele>
        <time>2018-10-06T08:29:22.000Z</time>
      </trkpt>
      <trkpt lat="38.12572" lon="-4.92080167">
        <ele>480.0</ele>
        <time>2018-10-06T08:29:23.000Z</time>
      </trkpt>
      <trkpt lat="38.12572" lon="-4.92080167">
        <ele>480.0</ele>
        <time>2018-10-06T08:29:24.000Z</time>
      </trkpt>
      <trkpt lat="38.12572" lon="-4.92080167">
        <ele>480.0</ele>
        <time>2018-10-06T08:29:25.000Z</time>
      </trkpt>
      <trkpt lat="38.12572" lon="-4.92080167">
        <ele>480.0</ele>
        <time>2018-10-06T08:29:26.000Z</time>
      </trkpt>
      <trkpt lat="38.12572" lon="-4.92080167">
        <ele>480.0</ele>
        <time>2018-10-06T08:29:27.000Z</time>
      </trkpt>
      <trkpt lat="38.12572" lon="-4.92080167">
        <ele>480.0</ele>
        <time>2018-10-06T08:29:28.000Z</time>
      </trkpt>
      <trkpt lat="38.12580167" lon="-4.92090167">
        <ele>477.0</ele>
        <time>2018-10-06T08:29:29.000Z</time>
      </trkpt>
      <trkpt lat="38.12581333" lon="-4.92091333">
        <ele>478.0</ele>
        <time>2018-10-06T08:29:30.000Z</time>
      </trkpt>
      <trkpt lat="38.12582333" lon="-4.92091667">
        <ele>477.0</ele>
        <time>2018-10-06T08:29:31.000Z</time>
      </trkpt>
      <trkpt lat="38.12583667" lon="-4.92091833">
        <ele>476.0</ele>
        <time>2018-10-06T08:29:32.000Z</time>
      </trkpt>
      <trkpt lat="38.12585" lon="-4.92092167">
        <ele>476.0</ele>
        <time>2018-10-06T08:29:33.000Z</time>
      </trkpt>
      <trkpt lat="38.12586333" lon="-4.92092667">
        <ele>476.0</ele>
        <time>2018-10-06T08:29:34.000Z</time>
      </trkpt>
      <trkpt lat="38.125875" lon="-4.92093">
        <ele>476.0</ele>
        <time>2018-10-06T08:29:35.000Z</time>
      </trkpt>
      <trkpt lat="38.125885" lon="-4.920935">
        <ele>475.0</ele>
        <time>2018-10-06T08:29:36.000Z</time>
      </trkpt>
      <trkpt lat="38.12589833" lon="-4.92094">
        <ele>475.0</ele>
        <time>2018-10-06T08:29:37.000Z</time>
      </trkpt>
      <trkpt lat="38.12591" lon="-4.920945">
        <ele>475.0</ele>
        <time>2018-10-06T08:29:38.000Z</time>
      </trkpt>
      <trkpt lat="38.12592167" lon="-4.92095167">
        <ele>475.0</ele>
        <time>2018-10-06T08:29:39.000Z</time>
      </trkpt>
      <trkpt lat="38.12593167" lon="-4.92096">
        <ele>474.0</ele>
        <time>2018-10-06T08:29:40.000Z</time>
      </trkpt>
      <trkpt lat="38.12593167" lon="-4.92096">
        <ele>474.0</ele>
        <time>2018-10-06T08:29:41.000Z</time>
      </trkpt>
      <trkpt lat="38.12593167" lon="-4.92096">
        <ele>474.0</ele>
        <time>2018-10-06T08:29:42.000Z</time>
      </trkpt>
      <trkpt lat="38.12593167" lon="-4.92096">
        <ele>474.0</ele>
        <time>2018-10-06T08:29:43.000Z</time>
      </trkpt>
      <trkpt lat="38.12593167" lon="-4.92096">
        <ele>474.0</ele>
        <time>2018-10-06T08:29:44.000Z</time>
      </trkpt>
      <trkpt lat="38.12593167" lon="-4.92096">
        <ele>474.0</ele>
        <time>2018-10-06T08:29:45.000Z</time>
      </trkpt>
      <trkpt lat="38.12593167" lon="-4.92096">
        <ele>474.0</ele>
        <time>2018-10-06T08:29:46.000Z</time>
      </trkpt>
      <trkpt lat="38.12593167" lon="-4.92096">
        <ele>474.0</ele>
        <time>2018-10-06T08:29:47.000Z</time>
      </trkpt>
      <trkpt lat="38.12593167" lon="-4.92096">
        <ele>474.0</ele>
        <time>2018-10-06T08:29:48.000Z</time>
      </trkpt>
      <trkpt lat="38.12593167" lon="-4.92096">
        <ele>474.0</ele>
        <time>2018-10-06T08:29:49.000Z</time>
      </trkpt>
      <trkpt lat="38.12593167" lon="-4.92096">
        <ele>474.0</ele>
        <time>2018-10-06T08:29:50.000Z</time>
      </trkpt>
      <trkpt lat="38.12593167" lon="-4.92096">
        <ele>474.0</ele>
        <time>2018-10-06T08:29:51.000Z</time>
      </trkpt>
      <trkpt lat="38.12593167" lon="-4.92096">
        <ele>474.0</ele>
        <time>2018-10-06T08:29:52.000Z</time>
      </trkpt>
      <trkpt lat="38.12593167" lon="-4.92096">
        <ele>474.0</ele>
        <time>2018-10-06T08:29:53.000Z</time>
      </trkpt>
      <trkpt lat="38.12593167" lon="-4.92096">
        <ele>474.0</ele>
        <time>2018-10-06T08:29:54.000Z</time>
      </trkpt>
      <trkpt lat="38.12593167" lon="-4.92096">
        <ele>474.0</ele>
        <time>2018-10-06T08:29:55.000Z</time>
      </trkpt>
      <trkpt lat="38.12593167" lon="-4.92096">
        <ele>474.0</ele>
        <time>2018-10-06T08:29:56.000Z</time>
      </trkpt>
      <trkpt lat="38.12593167" lon="-4.92096">
        <ele>474.0</ele>
        <time>2018-10-06T08:29:57.000Z</time>
      </trkpt>
      <trkpt lat="38.12593167" lon="-4.92096">
        <ele>474.0</ele>
        <time>2018-10-06T08:29:58.000Z</time>
      </trkpt>
      <trkpt lat="38.12593167" lon="-4.92096">
        <ele>474.0</ele>
        <time>2018-10-06T08:29:59.000Z</time>
      </trkpt>
      <trkpt lat="38.12593167" lon="-4.92096">
        <ele>474.0</ele>
        <time>2018-10-06T08:30:00.000Z</time>
      </trkpt>
      <trkpt lat="38.12593167" lon="-4.92096">
        <ele>474.0</ele>
        <time>2018-10-06T08:30:01.000Z</time>
      </trkpt>
      <trkpt lat="38.12593167" lon="-4.92096">
        <ele>474.0</ele>
        <time>2018-10-06T08:30:02.000Z</time>
      </trkpt>
      <trkpt lat="38.12593167" lon="-4.92096">
        <ele>474.0</ele>
        <time>2018-10-06T08:30:03.000Z</time>
      </trkpt>
      <trkpt lat="38.12593167" lon="-4.92096">
        <ele>474.0</ele>
        <time>2018-10-06T08:30:04.000Z</time>
      </trkpt>
      <trkpt lat="38.12593167" lon="-4.92096">
        <ele>474.0</ele>
        <time>2018-10-06T08:30:05.000Z</time>
      </trkpt>
      <trkpt lat="38.12593167" lon="-4.92096">
        <ele>474.0</ele>
        <time>2018-10-06T08:30:06.000Z</time>
      </trkpt>
      <trkpt lat="38.12593167" lon="-4.92096">
        <ele>474.0</ele>
        <time>2018-10-06T08:30:07.000Z</time>
      </trkpt>
      <trkpt lat="38.12593167" lon="-4.92096">
        <ele>474.0</ele>
        <time>2018-10-06T08:30:08.000Z</time>
      </trkpt>
      <trkpt lat="38.12593167" lon="-4.92096">
        <ele>474.0</ele>
        <time>2018-10-06T08:30:09.000Z</time>
      </trkpt>
      <trkpt lat="38.12593167" lon="-4.92096">
        <ele>474.0</ele>
        <time>2018-10-06T08:30:10.000Z</time>
      </trkpt>
      <trkpt lat="38.12593167" lon="-4.92096">
        <ele>474.0</ele>
        <time>2018-10-06T08:30:11.000Z</time>
      </trkpt>
      <trkpt lat="38.12593167" lon="-4.92096">
        <ele>474.0</ele>
        <time>2018-10-06T08:30:12.000Z</time>
      </trkpt>
      <trkpt lat="38.12593167" lon="-4.92096">
        <ele>474.0</ele>
        <time>2018-10-06T08:30:13.000Z</time>
      </trkpt>
      <trkpt lat="38.12593167" lon="-4.92096">
        <ele>474.0</ele>
        <time>2018-10-06T08:30:14.000Z</time>
      </trkpt>
      <trkpt lat="38.12593167" lon="-4.92096">
        <ele>474.0</ele>
        <time>2018-10-06T08:30:15.000Z</time>
      </trkpt>
      <trkpt lat="38.12593167" lon="-4.92096">
        <ele>474.0</ele>
        <time>2018-10-06T08:30:16.000Z</time>
      </trkpt>
      <trkpt lat="38.12593167" lon="-4.92096">
        <ele>474.0</ele>
        <time>2018-10-06T08:30:17.000Z</time>
      </trkpt>
      <trkpt lat="38.12593167" lon="-4.92096">
        <ele>474.0</ele>
        <time>2018-10-06T08:30:18.000Z</time>
      </trkpt>
      <trkpt lat="38.12593167" lon="-4.92096">
        <ele>474.0</ele>
        <time>2018-10-06T08:30:19.000Z</time>
      </trkpt>
      <trkpt lat="38.12593167" lon="-4.92096">
        <ele>474.0</ele>
        <time>2018-10-06T08:30:20.000Z</time>
      </trkpt>
      <trkpt lat="38.12593167" lon="-4.92096">
        <ele>474.0</ele>
        <time>2018-10-06T08:30:21.000Z</time>
      </trkpt>
      <trkpt lat="38.12593167" lon="-4.92096">
        <ele>474.0</ele>
        <time>2018-10-06T08:30:22.000Z</time>
      </trkpt>
      <trkpt lat="38.12593167" lon="-4.92096">
        <ele>474.0</ele>
        <time>2018-10-06T08:30:23.000Z</time>
      </trkpt>
      <trkpt lat="38.12593167" lon="-4.92096">
        <ele>474.0</ele>
        <time>2018-10-06T08:30:24.000Z</time>
      </trkpt>
      <trkpt lat="38.12593167" lon="-4.92096">
        <ele>474.0</ele>
        <time>2018-10-06T08:30:25.000Z</time>
      </trkpt>
      <trkpt lat="38.12593167" lon="-4.92096">
        <ele>474.0</ele>
        <time>2018-10-06T08:30:26.000Z</time>
      </trkpt>
      <trkpt lat="38.12593167" lon="-4.92096">
        <ele>474.0</ele>
        <time>2018-10-06T08:30:27.000Z</time>
      </trkpt>
      <trkpt lat="38.12593167" lon="-4.92096">
        <ele>474.0</ele>
        <time>2018-10-06T08:30:28.000Z</time>
      </trkpt>
      <trkpt lat="38.12615333" lon="-4.92123833">
        <ele>458.0</ele>
        <time>2018-10-06T08:30:29.000Z</time>
      </trkpt>
      <trkpt lat="38.12615333" lon="-4.92123833">
        <ele>458.0</ele>
        <time>2018-10-06T08:30:30.000Z</time>
      </trkpt>
      <trkpt lat="38.12615333" lon="-4.92123833">
        <ele>458.0</ele>
        <time>2018-10-06T08:30:31.000Z</time>
      </trkpt>
      <trkpt lat="38.12615333" lon="-4.92123833">
        <ele>458.0</ele>
        <time>2018-10-06T08:30:32.000Z</time>
      </trkpt>
      <trkpt lat="38.12615333" lon="-4.92123833">
        <ele>458.0</ele>
        <time>2018-10-06T08:30:33.000Z</time>
      </trkpt>
      <trkpt lat="38.12615333" lon="-4.92123833">
        <ele>458.0</ele>
        <time>2018-10-06T08:30:34.000Z</time>
      </trkpt>
      <trkpt lat="38.12615333" lon="-4.92123833">
        <ele>458.0</ele>
        <time>2018-10-06T08:30:35.000Z</time>
      </trkpt>
      <trkpt lat="38.12615333" lon="-4.92123833">
        <ele>458.0</ele>
        <time>2018-10-06T08:30:36.000Z</time>
      </trkpt>
      <trkpt lat="38.12615333" lon="-4.92123833">
        <ele>458.0</ele>
        <time>2018-10-06T08:30:37.000Z</time>
      </trkpt>
      <trkpt lat="38.12615333" lon="-4.92123833">
        <ele>458.0</ele>
        <time>2018-10-06T08:30:38.000Z</time>
      </trkpt>
      <trkpt lat="38.12615333" lon="-4.92123833">
        <ele>458.0</ele>
        <time>2018-10-06T08:30:39.000Z</time>
      </trkpt>
      <trkpt lat="38.12615333" lon="-4.92123833">
        <ele>458.0</ele>
        <time>2018-10-06T08:30:40.000Z</time>
      </trkpt>
      <trkpt lat="38.12615333" lon="-4.92123833">
        <ele>458.0</ele>
        <time>2018-10-06T08:30:41.000Z</time>
      </trkpt>
      <trkpt lat="38.12615333" lon="-4.92123833">
        <ele>458.0</ele>
        <time>2018-10-06T08:30:42.000Z</time>
      </trkpt>
      <trkpt lat="38.12615333" lon="-4.92123833">
        <ele>458.0</ele>
        <time>2018-10-06T08:30:43.000Z</time>
      </trkpt>
      <trkpt lat="38.12615333" lon="-4.92123833">
        <ele>458.0</ele>
        <time>2018-10-06T08:30:44.000Z</time>
      </trkpt>
      <trkpt lat="38.12615333" lon="-4.92123833">
        <ele>458.0</ele>
        <time>2018-10-06T08:30:45.000Z</time>
      </trkpt>
      <trkpt lat="38.12615333" lon="-4.92123833">
        <ele>458.0</ele>
        <time>2018-10-06T08:30:46.000Z</time>
      </trkpt>
      <trkpt lat="38.12615333" lon="-4.92123833">
        <ele>458.0</ele>
        <time>2018-10-06T08:30:47.000Z</time>
      </trkpt>
      <trkpt lat="38.12615333" lon="-4.92123833">
        <ele>458.0</ele>
        <time>2018-10-06T08:30:48.000Z</time>
      </trkpt>
      <trkpt lat="38.12615333" lon="-4.92123833">
        <ele>458.0</ele>
        <time>2018-10-06T08:30:49.000Z</time>
      </trkpt>
      <trkpt lat="38.12615333" lon="-4.92123833">
        <ele>458.0</ele>
        <time>2018-10-06T08:30:50.000Z</time>
      </trkpt>
      <trkpt lat="38.12615333" lon="-4.92123833">
        <ele>458.0</ele>
        <time>2018-10-06T08:30:51.000Z</time>
      </trkpt>
      <trkpt lat="38.12615333" lon="-4.92123833">
        <ele>458.0</ele>
        <time>2018-10-06T08:30:52.000Z</time>
      </trkpt>
      <trkpt lat="38.12615333" lon="-4.92123833">
        <ele>458.0</ele>
        <time>2018-10-06T08:30:53.000Z</time>
      </trkpt>
      <trkpt lat="38.12615333" lon="-4.92123833">
        <ele>458.0</ele>
        <time>2018-10-06T08:30:54.000Z</time>
      </trkpt>
      <trkpt lat="38.12615333" lon="-4.92123833">
        <ele>458.0</ele>
        <time>2018-10-06T08:30:55.000Z</time>
      </trkpt>
      <trkpt lat="38.12615333" lon="-4.92123833">
        <ele>458.0</ele>
        <time>2018-10-06T08:30:56.000Z</time>
      </trkpt>
      <trkpt lat="38.12615333" lon="-4.92123833">
        <ele>458.0</ele>
        <time>2018-10-06T08:30:57.000Z</time>
      </trkpt>
      <trkpt lat="38.12615333" lon="-4.92123833">
        <ele>458.0</ele>
        <time>2018-10-06T08:30:58.000Z</time>
      </trkpt>
      <trkpt lat="38.12615333" lon="-4.92123833">
        <ele>458.0</ele>
        <time>2018-10-06T08:30:59.000Z</time>
      </trkpt>
      <trkpt lat="38.12615333" lon="-4.92123833">
        <ele>458.0</ele>
        <time>2018-10-06T08:31:00.000Z</time>
      </trkpt>
      <trkpt lat="38.12615333" lon="-4.92123833">
        <ele>458.0</ele>
        <time>2018-10-06T08:31:01.000Z</time>
      </trkpt>
      <trkpt lat="38.12615333" lon="-4.92123833">
        <ele>458.0</ele>
        <time>2018-10-06T08:31:02.000Z</time>
      </trkpt>
      <trkpt lat="38.12615333" lon="-4.92123833">
        <ele>458.0</ele>
        <time>2018-10-06T08:31:03.000Z</time>
      </trkpt>
      <trkpt lat="38.12615333" lon="-4.92123833">
        <ele>458.0</ele>
        <time>2018-10-06T08:31:04.000Z</time>
      </trkpt>
      <trkpt lat="38.12615333" lon="-4.92123833">
        <ele>458.0</ele>
        <time>2018-10-06T08:31:05.000Z</time>
      </trkpt>
      <trkpt lat="38.12615333" lon="-4.92123833">
        <ele>458.0</ele>
        <time>2018-10-06T08:31:06.000Z</time>
      </trkpt>
      <trkpt lat="38.12615333" lon="-4.92123833">
        <ele>458.0</ele>
        <time>2018-10-06T08:31:07.000Z</time>
      </trkpt>
      <trkpt lat="38.12615333" lon="-4.92123833">
        <ele>458.0</ele>
        <time>2018-10-06T08:31:08.000Z</time>
      </trkpt>
      <trkpt lat="38.12615333" lon="-4.92123833">
        <ele>458.0</ele>
        <time>2018-10-06T08:31:09.000Z</time>
      </trkpt>
      <trkpt lat="38.12615333" lon="-4.92123833">
        <ele>458.0</ele>
        <time>2018-10-06T08:31:10.000Z</time>
      </trkpt>
      <trkpt lat="38.12615333" lon="-4.92123833">
        <ele>458.0</ele>
        <time>2018-10-06T08:31:11.000Z</time>
      </trkpt>
      <trkpt lat="38.12615333" lon="-4.92123833">
        <ele>458.0</ele>
        <time>2018-10-06T08:31:12.000Z</time>
      </trkpt>
      <trkpt lat="38.12615333" lon="-4.92123833">
        <ele>458.0</ele>
        <time>2018-10-06T08:31:13.000Z</time>
      </trkpt>
      <trkpt lat="38.12615333" lon="-4.92123833">
        <ele>458.0</ele>
        <time>2018-10-06T08:31:14.000Z</time>
      </trkpt>
      <trkpt lat="38.12615333" lon="-4.92123833">
        <ele>458.0</ele>
        <time>2018-10-06T08:31:15.000Z</time>
      </trkpt>
      <trkpt lat="38.12615333" lon="-4.92123833">
        <ele>458.0</ele>
        <time>2018-10-06T08:31:16.000Z</time>
      </trkpt>
      <trkpt lat="38.12615333" lon="-4.92123833">
        <ele>458.0</ele>
        <time>2018-10-06T08:31:17.000Z</time>
      </trkpt>
      <trkpt lat="38.12615333" lon="-4.92123833">
        <ele>458.0</ele>
        <time>2018-10-06T08:31:18.000Z</time>
      </trkpt>
      <trkpt lat="38.12615333" lon="-4.92123833">
        <ele>458.0</ele>
        <time>2018-10-06T08:31:19.000Z</time>
      </trkpt>
      <trkpt lat="38.12615333" lon="-4.92123833">
        <ele>458.0</ele>
        <time>2018-10-06T08:31:20.000Z</time>
      </trkpt>
      <trkpt lat="38.12615333" lon="-4.92123833">
        <ele>458.0</ele>
        <time>2018-10-06T08:31:21.000Z</time>
      </trkpt>
      <trkpt lat="38.12615333" lon="-4.92123833">
        <ele>458.0</ele>
        <time>2018-10-06T08:31:22.000Z</time>
      </trkpt>
      <trkpt lat="38.12615333" lon="-4.92123833">
        <ele>458.0</ele>
        <time>2018-10-06T08:31:23.000Z</time>
      </trkpt>
      <trkpt lat="38.12615333" lon="-4.92123833">
        <ele>458.0</ele>
        <time>2018-10-06T08:31:24.000Z</time>
      </trkpt>
      <trkpt lat="38.12615333" lon="-4.92123833">
        <ele>458.0</ele>
        <time>2018-10-06T08:31:25.000Z</time>
      </trkpt>
      <trkpt lat="38.12615333" lon="-4.92123833">
        <ele>458.0</ele>
        <time>2018-10-06T08:31:26.000Z</time>
      </trkpt>
      <trkpt lat="38.12615333" lon="-4.92123833">
        <ele>458.0</ele>
        <time>2018-10-06T08:31:27.000Z</time>
      </trkpt>
      <trkpt lat="38.12615333" lon="-4.92123833">
        <ele>458.0</ele>
        <time>2018-10-06T08:31:28.000Z</time>
      </trkpt>
      <trkpt lat="38.126325" lon="-4.92125667">
        <ele>468.0</ele>
        <time>2018-10-06T08:31:29.000Z</time>
      </trkpt>
      <trkpt lat="38.12633333" lon="-4.92125833">
        <ele>468.0</ele>
        <time>2018-10-06T08:31:30.000Z</time>
      </trkpt>
      <trkpt lat="38.12634" lon="-4.921255">
        <ele>468.0</ele>
        <time>2018-10-06T08:31:31.000Z</time>
      </trkpt>
      <trkpt lat="38.126355" lon="-4.92125167">
        <ele>468.0</ele>
        <time>2018-10-06T08:31:32.000Z</time>
      </trkpt>
      <trkpt lat="38.12636833" lon="-4.921245">
        <ele>467.0</ele>
        <time>2018-10-06T08:31:33.000Z</time>
      </trkpt>
      <trkpt lat="38.12637833" lon="-4.92124">
        <ele>467.0</ele>
        <time>2018-10-06T08:31:34.000Z</time>
      </trkpt>
      <trkpt lat="38.12638833" lon="-4.92123333">
        <ele>467.0</ele>
        <time>2018-10-06T08:31:35.000Z</time>
      </trkpt>
      <trkpt lat="38.12639667" lon="-4.92123167">
        <ele>467.0</ele>
        <time>2018-10-06T08:31:36.000Z</time>
      </trkpt>
      <trkpt lat="38.126405" lon="-4.92123">
        <ele>466.0</ele>
        <time>2018-10-06T08:31:37.000Z</time>
      </trkpt>
      <trkpt lat="38.126415" lon="-4.92123167">
        <ele>466.0</ele>
        <time>2018-10-06T08:31:38.000Z</time>
      </trkpt>
      <trkpt lat="38.12642667" lon="-4.92123333">
        <ele>465.0</ele>
        <time>2018-10-06T08:31:39.000Z</time>
      </trkpt>
      <trkpt lat="38.12644167" lon="-4.92123667">
        <ele>465.0</ele>
        <time>2018-10-06T08:31:40.000Z</time>
      </trkpt>
      <trkpt lat="38.12645667" lon="-4.92123667">
        <ele>465.0</ele>
        <time>2018-10-06T08:31:41.000Z</time>
      </trkpt>
      <trkpt lat="38.12645667" lon="-4.92123667">
        <ele>465.0</ele>
        <time>2018-10-06T08:31:42.000Z</time>
      </trkpt>
      <trkpt lat="38.12645667" lon="-4.92123667">
        <ele>465.0</ele>
        <time>2018-10-06T08:31:43.000Z</time>
      </trkpt>
      <trkpt lat="38.12645667" lon="-4.92123667">
        <ele>465.0</ele>
        <time>2018-10-06T08:31:44.000Z</time>
      </trkpt>
      <trkpt lat="38.12645667" lon="-4.92123667">
        <ele>465.0</ele>
        <time>2018-10-06T08:31:45.000Z</time>
      </trkpt>
      <trkpt lat="38.12645667" lon="-4.92123667">
        <ele>465.0</ele>
        <time>2018-10-06T08:31:46.000Z</time>
      </trkpt>
      <trkpt lat="38.12645667" lon="-4.92123667">
        <ele>465.0</ele>
        <time>2018-10-06T08:31:47.000Z</time>
      </trkpt>
      <trkpt lat="38.12645667" lon="-4.92123667">
        <ele>465.0</ele>
        <time>2018-10-06T08:31:48.000Z</time>
      </trkpt>
      <trkpt lat="38.12645667" lon="-4.92123667">
        <ele>465.0</ele>
        <time>2018-10-06T08:31:49.000Z</time>
      </trkpt>
      <trkpt lat="38.12645667" lon="-4.92123667">
        <ele>465.0</ele>
        <time>2018-10-06T08:31:50.000Z</time>
      </trkpt>
      <trkpt lat="38.12645667" lon="-4.92123667">
        <ele>465.0</ele>
        <time>2018-10-06T08:31:51.000Z</time>
      </trkpt>
      <trkpt lat="38.12645667" lon="-4.92123667">
        <ele>465.0</ele>
        <time>2018-10-06T08:31:52.000Z</time>
      </trkpt>
      <trkpt lat="38.12645667" lon="-4.92123667">
        <ele>465.0</ele>
        <time>2018-10-06T08:31:53.000Z</time>
      </trkpt>
      <trkpt lat="38.12645667" lon="-4.92123667">
        <ele>465.0</ele>
        <time>2018-10-06T08:31:54.000Z</time>
      </trkpt>
      <trkpt lat="38.12645667" lon="-4.92123667">
        <ele>465.0</ele>
        <time>2018-10-06T08:31:55.000Z</time>
      </trkpt>
      <trkpt lat="38.12645667" lon="-4.92123667">
        <ele>465.0</ele>
        <time>2018-10-06T08:31:56.000Z</time>
      </trkpt>
      <trkpt lat="38.12645667" lon="-4.92123667">
        <ele>465.0</ele>
        <time>2018-10-06T08:31:57.000Z</time>
      </trkpt>
      <trkpt lat="38.12645667" lon="-4.92123667">
        <ele>465.0</ele>
        <time>2018-10-06T08:31:58.000Z</time>
      </trkpt>
      <trkpt lat="38.12645667" lon="-4.92123667">
        <ele>465.0</ele>
        <time>2018-10-06T08:31:59.000Z</time>
      </trkpt>
      <trkpt lat="38.12645667" lon="-4.92123667">
        <ele>465.0</ele>
        <time>2018-10-06T08:32:00.000Z</time>
      </trkpt>
      <trkpt lat="38.12645667" lon="-4.92123667">
        <ele>465.0</ele>
        <time>2018-10-06T08:32:01.000Z</time>
      </trkpt>
      <trkpt lat="38.12645667" lon="-4.92123667">
        <ele>465.0</ele>
        <time>2018-10-06T08:32:02.000Z</time>
      </trkpt>
      <trkpt lat="38.12645667" lon="-4.92123667">
        <ele>465.0</ele>
        <time>2018-10-06T08:32:03.000Z</time>
      </trkpt>
      <trkpt lat="38.12645667" lon="-4.92123667">
        <ele>465.0</ele>
        <time>2018-10-06T08:32:04.000Z</time>
      </trkpt>
      <trkpt lat="38.12645667" lon="-4.92123667">
        <ele>465.0</ele>
        <time>2018-10-06T08:32:05.000Z</time>
      </trkpt>
      <trkpt lat="38.12645667" lon="-4.92123667">
        <ele>465.0</ele>
        <time>2018-10-06T08:32:06.000Z</time>
      </trkpt>
      <trkpt lat="38.12645667" lon="-4.92123667">
        <ele>465.0</ele>
        <time>2018-10-06T08:32:07.000Z</time>
      </trkpt>
      <trkpt lat="38.12645667" lon="-4.92123667">
        <ele>465.0</ele>
        <time>2018-10-06T08:32:08.000Z</time>
      </trkpt>
      <trkpt lat="38.12645667" lon="-4.92123667">
        <ele>465.0</ele>
        <time>2018-10-06T08:32:09.000Z</time>
      </trkpt>
      <trkpt lat="38.12645667" lon="-4.92123667">
        <ele>465.0</ele>
        <time>2018-10-06T08:32:10.000Z</time>
      </trkpt>
      <trkpt lat="38.12645667" lon="-4.92123667">
        <ele>465.0</ele>
        <time>2018-10-06T08:32:11.000Z</time>
      </trkpt>
      <trkpt lat="38.12645667" lon="-4.92123667">
        <ele>465.0</ele>
        <time>2018-10-06T08:32:12.000Z</time>
      </trkpt>
      <trkpt lat="38.12645667" lon="-4.92123667">
        <ele>465.0</ele>
        <time>2018-10-06T08:32:13.000Z</time>
      </trkpt>
      <trkpt lat="38.12645667" lon="-4.92123667">
        <ele>465.0</ele>
        <time>2018-10-06T08:32:14.000Z</time>
      </trkpt>
      <trkpt lat="38.12645667" lon="-4.92123667">
        <ele>465.0</ele>
        <time>2018-10-06T08:32:15.000Z</time>
      </trkpt>
      <trkpt lat="38.12645667" lon="-4.92123667">
        <ele>465.0</ele>
        <time>2018-10-06T08:32:16.000Z</time>
      </trkpt>
      <trkpt lat="38.12645667" lon="-4.92123667">
        <ele>465.0</ele>
        <time>2018-10-06T08:32:17.000Z</time>
      </trkpt>
      <trkpt lat="38.12645667" lon="-4.92123667">
        <ele>465.0</ele>
        <time>2018-10-06T08:32:18.000Z</time>
      </trkpt>
      <trkpt lat="38.12645667" lon="-4.92123667">
        <ele>465.0</ele>
        <time>2018-10-06T08:32:19.000Z</time>
      </trkpt>
      <trkpt lat="38.12645667" lon="-4.92123667">
        <ele>465.0</ele>
        <time>2018-10-06T08:32:20.000Z</time>
      </trkpt>
      <trkpt lat="38.12645667" lon="-4.92123667">
        <ele>465.0</ele>
        <time>2018-10-06T08:32:21.000Z</time>
      </trkpt>
      <trkpt lat="38.12645667" lon="-4.92123667">
        <ele>465.0</ele>
        <time>2018-10-06T08:32:22.000Z</time>
      </trkpt>
      <trkpt lat="38.12645667" lon="-4.92123667">
        <ele>465.0</ele>
        <time>2018-10-06T08:32:23.000Z</time>
      </trkpt>
      <trkpt lat="38.12645667" lon="-4.92123667">
        <ele>465.0</ele>
        <time>2018-10-06T08:32:24.000Z</time>
      </trkpt>
      <trkpt lat="38.12645667" lon="-4.92123667">
        <ele>465.0</ele>
        <time>2018-10-06T08:32:25.000Z</time>
      </trkpt>
      <trkpt lat="38.12645667" lon="-4.92123667">
        <ele>465.0</ele>
        <time>2018-10-06T08:32:26.000Z</time>
      </trkpt>
      <trkpt lat="38.12645667" lon="-4.92123667">
        <ele>465.0</ele>
        <time>2018-10-06T08:32:27.000Z</time>
      </trkpt>
      <trkpt lat="38.12645667" lon="-4.92123667">
        <ele>465.0</ele>
        <time>2018-10-06T08:32:28.000Z</time>
      </trkpt>
      <trkpt lat="38.12647833" lon="-4.92113167">
        <ele>466.0</ele>
        <time>2018-10-06T08:32:29.000Z</time>
      </trkpt>
      <trkpt lat="38.12649" lon="-4.92112833">
        <ele>466.0</ele>
        <time>2018-10-06T08:32:30.000Z</time>
      </trkpt>
      <trkpt lat="38.12651167" lon="-4.92113">
        <ele>466.0</ele>
        <time>2018-10-06T08:32:31.000Z</time>
      </trkpt>
      <trkpt lat="38.12653167" lon="-4.92113167">
        <ele>466.0</ele>
        <time>2018-10-06T08:32:32.000Z</time>
      </trkpt>
      <trkpt lat="38.12655" lon="-4.92113167">
        <ele>466.0</ele>
        <time>2018-10-06T08:32:33.000Z</time>
      </trkpt>
      <trkpt lat="38.12657167" lon="-4.92113167">
        <ele>466.0</ele>
        <time>2018-10-06T08:32:34.000Z</time>
      </trkpt>
      <trkpt lat="38.12659167" lon="-4.92112833">
        <ele>466.0</ele>
        <time>2018-10-06T08:32:35.000Z</time>
      </trkpt>
      <trkpt lat="38.12661167" lon="-4.92112667">
        <ele>466.0</ele>
        <time>2018-10-06T08:32:36.000Z</time>
      </trkpt>
      <trkpt lat="38.12663" lon="-4.92112333">
        <ele>465.0</ele>
        <time>2018-10-06T08:32:37.000Z</time>
      </trkpt>
      <trkpt lat="38.126645" lon="-4.92112167">
        <ele>465.0</ele>
        <time>2018-10-06T08:32:38.000Z</time>
      </trkpt>
      <trkpt lat="38.12665667" lon="-4.92112333">
        <ele>465.0</ele>
        <time>2018-10-06T08:32:39.000Z</time>
      </trkpt>
      <trkpt lat="38.12666833" lon="-4.92112333">
        <ele>465.0</ele>
        <time>2018-10-06T08:32:40.000Z</time>
      </trkpt>
      <trkpt lat="38.12667833" lon="-4.921125">
        <ele>465.0</ele>
        <time>2018-10-06T08:32:41.000Z</time>
      </trkpt>
      <trkpt lat="38.12667833" lon="-4.921125">
        <ele>465.0</ele>
        <time>2018-10-06T08:32:42.000Z</time>
      </trkpt>
      <trkpt lat="38.12667833" lon="-4.921125">
        <ele>465.0</ele>
        <time>2018-10-06T08:32:43.000Z</time>
      </trkpt>
      <trkpt lat="38.12667833" lon="-4.921125">
        <ele>465.0</ele>
        <time>2018-10-06T08:32:44.000Z</time>
      </trkpt>
      <trkpt lat="38.12667833" lon="-4.921125">
        <ele>465.0</ele>
        <time>2018-10-06T08:32:45.000Z</time>
      </trkpt>
      <trkpt lat="38.12667833" lon="-4.921125">
        <ele>465.0</ele>
        <time>2018-10-06T08:32:46.000Z</time>
      </trkpt>
      <trkpt lat="38.12667833" lon="-4.921125">
        <ele>465.0</ele>
        <time>2018-10-06T08:32:47.000Z</time>
      </trkpt>
      <trkpt lat="38.12667833" lon="-4.921125">
        <ele>465.0</ele>
        <time>2018-10-06T08:32:48.000Z</time>
      </trkpt>
      <trkpt lat="38.12667833" lon="-4.921125">
        <ele>465.0</ele>
        <time>2018-10-06T08:32:49.000Z</time>
      </trkpt>
      <trkpt lat="38.12667833" lon="-4.921125">
        <ele>465.0</ele>
        <time>2018-10-06T08:32:50.000Z</time>
      </trkpt>
      <trkpt lat="38.12667833" lon="-4.921125">
        <ele>465.0</ele>
        <time>2018-10-06T08:32:51.000Z</time>
      </trkpt>
      <trkpt lat="38.12667833" lon="-4.921125">
        <ele>465.0</ele>
        <time>2018-10-06T08:32:52.000Z</time>
      </trkpt>
      <trkpt lat="38.12667833" lon="-4.921125">
        <ele>465.0</ele>
        <time>2018-10-06T08:32:53.000Z</time>
      </trkpt>
      <trkpt lat="38.12667833" lon="-4.921125">
        <ele>465.0</ele>
        <time>2018-10-06T08:32:54.000Z</time>
      </trkpt>
      <trkpt lat="38.12667833" lon="-4.921125">
        <ele>465.0</ele>
        <time>2018-10-06T08:32:55.000Z</time>
      </trkpt>
      <trkpt lat="38.12667833" lon="-4.921125">
        <ele>465.0</ele>
        <time>2018-10-06T08:32:56.000Z</time>
      </trkpt>
      <trkpt lat="38.12667833" lon="-4.921125">
        <ele>465.0</ele>
        <time>2018-10-06T08:32:57.000Z</time>
      </trkpt>
      <trkpt lat="38.12667833" lon="-4.921125">
        <ele>465.0</ele>
        <time>2018-10-06T08:32:58.000Z</time>
      </trkpt>
      <trkpt lat="38.12667833" lon="-4.921125">
        <ele>465.0</ele>
        <time>2018-10-06T08:32:59.000Z</time>
      </trkpt>
      <trkpt lat="38.12667833" lon="-4.921125">
        <ele>465.0</ele>
        <time>2018-10-06T08:33:00.000Z</time>
      </trkpt>
      <trkpt lat="38.12667833" lon="-4.921125">
        <ele>465.0</ele>
        <time>2018-10-06T08:33:01.000Z</time>
      </trkpt>
      <trkpt lat="38.12667833" lon="-4.921125">
        <ele>465.0</ele>
        <time>2018-10-06T08:33:02.000Z</time>
      </trkpt>
      <trkpt lat="38.12667833" lon="-4.921125">
        <ele>465.0</ele>
        <time>2018-10-06T08:33:03.000Z</time>
      </trkpt>
      <trkpt lat="38.12667833" lon="-4.921125">
        <ele>465.0</ele>
        <time>2018-10-06T08:33:04.000Z</time>
      </trkpt>
      <trkpt lat="38.12667833" lon="-4.921125">
        <ele>465.0</ele>
        <time>2018-10-06T08:33:05.000Z</time>
      </trkpt>
      <trkpt lat="38.12667833" lon="-4.921125">
        <ele>465.0</ele>
        <time>2018-10-06T08:33:06.000Z</time>
      </trkpt>
      <trkpt lat="38.12667833" lon="-4.921125">
        <ele>465.0</ele>
        <time>2018-10-06T08:33:07.000Z</time>
      </trkpt>
      <trkpt lat="38.12667833" lon="-4.921125">
        <ele>465.0</ele>
        <time>2018-10-06T08:33:08.000Z</time>
      </trkpt>
      <trkpt lat="38.12667833" lon="-4.921125">
        <ele>465.0</ele>
        <time>2018-10-06T08:33:09.000Z</time>
      </trkpt>
      <trkpt lat="38.12667833" lon="-4.921125">
        <ele>465.0</ele>
        <time>2018-10-06T08:33:10.000Z</time>
      </trkpt>
      <trkpt lat="38.12667833" lon="-4.921125">
        <ele>465.0</ele>
        <time>2018-10-06T08:33:11.000Z</time>
      </trkpt>
      <trkpt lat="38.12667833" lon="-4.921125">
        <ele>465.0</ele>
        <time>2018-10-06T08:33:12.000Z</time>
      </trkpt>
      <trkpt lat="38.12667833" lon="-4.921125">
        <ele>465.0</ele>
        <time>2018-10-06T08:33:13.000Z</time>
      </trkpt>
      <trkpt lat="38.12667833" lon="-4.921125">
        <ele>465.0</ele>
        <time>2018-10-06T08:33:14.000Z</time>
      </trkpt>
      <trkpt lat="38.12667833" lon="-4.921125">
        <ele>465.0</ele>
        <time>2018-10-06T08:33:15.000Z</time>
      </trkpt>
      <trkpt lat="38.12667833" lon="-4.921125">
        <ele>465.0</ele>
        <time>2018-10-06T08:33:16.000Z</time>
      </trkpt>
      <trkpt lat="38.12667833" lon="-4.921125">
        <ele>465.0</ele>
        <time>2018-10-06T08:33:17.000Z</time>
      </trkpt>
      <trkpt lat="38.12667833" lon="-4.921125">
        <ele>465.0</ele>
        <time>2018-10-06T08:33:18.000Z</time>
      </trkpt>
      <trkpt lat="38.12667833" lon="-4.921125">
        <ele>465.0</ele>
        <time>2018-10-06T08:33:19.000Z</time>
      </trkpt>
      <trkpt lat="38.12667833" lon="-4.921125">
        <ele>465.0</ele>
        <time>2018-10-06T08:33:20.000Z</time>
      </trkpt>
      <trkpt lat="38.12667833" lon="-4.921125">
        <ele>465.0</ele>
        <time>2018-10-06T08:33:21.000Z</time>
      </trkpt>
      <trkpt lat="38.12667833" lon="-4.921125">
        <ele>465.0</ele>
        <time>2018-10-06T08:33:22.000Z</time>
      </trkpt>
      <trkpt lat="38.12667833" lon="-4.921125">
        <ele>465.0</ele>
        <time>2018-10-06T08:33:23.000Z</time>
      </trkpt>
      <trkpt lat="38.12667833" lon="-4.921125">
        <ele>465.0</ele>
        <time>2018-10-06T08:33:24.000Z</time>
      </trkpt>
      <trkpt lat="38.12667833" lon="-4.921125">
        <ele>465.0</ele>
        <time>2018-10-06T08:33:25.000Z</time>
      </trkpt>
      <trkpt lat="38.12667833" lon="-4.921125">
        <ele>465.0</ele>
        <time>2018-10-06T08:33:26.000Z</time>
      </trkpt>
      <trkpt lat="38.12667833" lon="-4.921125">
        <ele>465.0</ele>
        <time>2018-10-06T08:33:27.000Z</time>
      </trkpt>
      <trkpt lat="38.12667833" lon="-4.921125">
        <ele>465.0</ele>
        <time>2018-10-06T08:33:28.000Z</time>
      </trkpt>
      <trkpt lat="38.12667833" lon="-4.921125">
        <ele>465.0</ele>
        <time>2018-10-06T08:33:29.000Z</time>
      </trkpt>
      <trkpt lat="38.12667833" lon="-4.921125">
        <ele>465.0</ele>
        <time>2018-10-06T08:33:30.000Z</time>
      </trkpt>
      <trkpt lat="38.12666167" lon="-4.921165">
        <ele>467.0</ele>
        <time>2018-10-06T08:33:31.000Z</time>
      </trkpt>
      <trkpt lat="38.12684667" lon="-4.921095">
        <ele>475.0</ele>
        <time>2018-10-06T08:33:32.000Z</time>
      </trkpt>
      <trkpt lat="38.126855" lon="-4.92107833">
        <ele>477.0</ele>
        <time>2018-10-06T08:33:33.000Z</time>
      </trkpt>
      <trkpt lat="38.12684167" lon="-4.921065">
        <ele>477.0</ele>
        <time>2018-10-06T08:33:34.000Z</time>
      </trkpt>
      <trkpt lat="38.12683667" lon="-4.92106167">
        <ele>477.0</ele>
        <time>2018-10-06T08:33:35.000Z</time>
      </trkpt>
      <trkpt lat="38.126835" lon="-4.92106667">
        <ele>478.0</ele>
        <time>2018-10-06T08:33:36.000Z</time>
      </trkpt>
      <trkpt lat="38.12682833" lon="-4.921065">
        <ele>479.0</ele>
        <time>2018-10-06T08:33:37.000Z</time>
      </trkpt>
      <trkpt lat="38.126825" lon="-4.92106">
        <ele>479.0</ele>
        <time>2018-10-06T08:33:38.000Z</time>
      </trkpt>
      <trkpt lat="38.12682167" lon="-4.92105333">
        <ele>478.0</ele>
        <time>2018-10-06T08:33:39.000Z</time>
      </trkpt>
      <trkpt lat="38.126825" lon="-4.92105833">
        <ele>477.0</ele>
        <time>2018-10-06T08:33:40.000Z</time>
      </trkpt>
      <trkpt lat="38.126825" lon="-4.92106333">
        <ele>476.0</ele>
        <time>2018-10-06T08:33:41.000Z</time>
      </trkpt>
      <trkpt lat="38.126825" lon="-4.92106333">
        <ele>476.0</ele>
        <time>2018-10-06T08:33:42.000Z</time>
      </trkpt>
      <trkpt lat="38.126825" lon="-4.92106333">
        <ele>476.0</ele>
        <time>2018-10-06T08:33:43.000Z</time>
      </trkpt>
      <trkpt lat="38.126825" lon="-4.92106333">
        <ele>476.0</ele>
        <time>2018-10-06T08:33:44.000Z</time>
      </trkpt>
      <trkpt lat="38.126825" lon="-4.92106333">
        <ele>476.0</ele>
        <time>2018-10-06T08:33:45.000Z</time>
      </trkpt>
      <trkpt lat="38.126825" lon="-4.92106333">
        <ele>476.0</ele>
        <time>2018-10-06T08:33:46.000Z</time>
      </trkpt>
      <trkpt lat="38.126825" lon="-4.92106333">
        <ele>476.0</ele>
        <time>2018-10-06T08:33:47.000Z</time>
      </trkpt>
      <trkpt lat="38.126825" lon="-4.92106333">
        <ele>476.0</ele>
        <time>2018-10-06T08:33:48.000Z</time>
      </trkpt>
      <trkpt lat="38.126825" lon="-4.92106333">
        <ele>476.0</ele>
        <time>2018-10-06T08:33:49.000Z</time>
      </trkpt>
      <trkpt lat="38.126825" lon="-4.92106333">
        <ele>476.0</ele>
        <time>2018-10-06T08:33:50.000Z</time>
      </trkpt>
      <trkpt lat="38.126825" lon="-4.92106333">
        <ele>476.0</ele>
        <time>2018-10-06T08:33:51.000Z</time>
      </trkpt>
      <trkpt lat="38.126825" lon="-4.92106333">
        <ele>476.0</ele>
        <time>2018-10-06T08:33:52.000Z</time>
      </trkpt>
      <trkpt lat="38.126825" lon="-4.92106333">
        <ele>476.0</ele>
        <time>2018-10-06T08:33:53.000Z</time>
      </trkpt>
      <trkpt lat="38.126825" lon="-4.92106333">
        <ele>476.0</ele>
        <time>2018-10-06T08:33:54.000Z</time>
      </trkpt>
      <trkpt lat="38.126825" lon="-4.92106333">
        <ele>476.0</ele>
        <time>2018-10-06T08:33:55.000Z</time>
      </trkpt>
      <trkpt lat="38.126825" lon="-4.92106333">
        <ele>476.0</ele>
        <time>2018-10-06T08:33:56.000Z</time>
      </trkpt>
      <trkpt lat="38.126825" lon="-4.92106333">
        <ele>476.0</ele>
        <time>2018-10-06T08:33:57.000Z</time>
      </trkpt>
      <trkpt lat="38.126825" lon="-4.92106333">
        <ele>476.0</ele>
        <time>2018-10-06T08:33:58.000Z</time>
      </trkpt>
      <trkpt lat="38.126825" lon="-4.92106333">
        <ele>476.0</ele>
        <time>2018-10-06T08:33:59.000Z</time>
      </trkpt>
      <trkpt lat="38.126825" lon="-4.92106333">
        <ele>476.0</ele>
        <time>2018-10-06T08:34:00.000Z</time>
      </trkpt>
      <trkpt lat="38.126825" lon="-4.92106333">
        <ele>476.0</ele>
        <time>2018-10-06T08:34:01.000Z</time>
      </trkpt>
      <trkpt lat="38.126825" lon="-4.92106333">
        <ele>476.0</ele>
        <time>2018-10-06T08:34:02.000Z</time>
      </trkpt>
      <trkpt lat="38.126825" lon="-4.92106333">
        <ele>476.0</ele>
        <time>2018-10-06T08:34:03.000Z</time>
      </trkpt>
      <trkpt lat="38.126825" lon="-4.92106333">
        <ele>476.0</ele>
        <time>2018-10-06T08:34:04.000Z</time>
      </trkpt>
      <trkpt lat="38.126825" lon="-4.92106333">
        <ele>476.0</ele>
        <time>2018-10-06T08:34:05.000Z</time>
      </trkpt>
      <trkpt lat="38.126825" lon="-4.92106333">
        <ele>476.0</ele>
        <time>2018-10-06T08:34:06.000Z</time>
      </trkpt>
      <trkpt lat="38.126825" lon="-4.92106333">
        <ele>476.0</ele>
        <time>2018-10-06T08:34:07.000Z</time>
      </trkpt>
      <trkpt lat="38.126825" lon="-4.92106333">
        <ele>476.0</ele>
        <time>2018-10-06T08:34:08.000Z</time>
      </trkpt>
      <trkpt lat="38.126825" lon="-4.92106333">
        <ele>476.0</ele>
        <time>2018-10-06T08:34:09.000Z</time>
      </trkpt>
      <trkpt lat="38.126825" lon="-4.92106333">
        <ele>476.0</ele>
        <time>2018-10-06T08:34:10.000Z</time>
      </trkpt>
      <trkpt lat="38.126825" lon="-4.92106333">
        <ele>476.0</ele>
        <time>2018-10-06T08:34:11.000Z</time>
      </trkpt>
      <trkpt lat="38.126825" lon="-4.92106333">
        <ele>476.0</ele>
        <time>2018-10-06T08:34:12.000Z</time>
      </trkpt>
      <trkpt lat="38.126825" lon="-4.92106333">
        <ele>476.0</ele>
        <time>2018-10-06T08:34:13.000Z</time>
      </trkpt>
      <trkpt lat="38.126825" lon="-4.92106333">
        <ele>476.0</ele>
        <time>2018-10-06T08:34:14.000Z</time>
      </trkpt>
      <trkpt lat="38.126825" lon="-4.92106333">
        <ele>476.0</ele>
        <time>2018-10-06T08:34:15.000Z</time>
      </trkpt>
      <trkpt lat="38.126825" lon="-4.92106333">
        <ele>476.0</ele>
        <time>2018-10-06T08:34:16.000Z</time>
      </trkpt>
      <trkpt lat="38.126825" lon="-4.92106333">
        <ele>476.0</ele>
        <time>2018-10-06T08:34:17.000Z</time>
      </trkpt>
      <trkpt lat="38.126825" lon="-4.92106333">
        <ele>476.0</ele>
        <time>2018-10-06T08:34:18.000Z</time>
      </trkpt>
      <trkpt lat="38.126825" lon="-4.92106333">
        <ele>476.0</ele>
        <time>2018-10-06T08:34:19.000Z</time>
      </trkpt>
      <trkpt lat="38.126825" lon="-4.92106333">
        <ele>476.0</ele>
        <time>2018-10-06T08:34:20.000Z</time>
      </trkpt>
      <trkpt lat="38.126825" lon="-4.92106333">
        <ele>476.0</ele>
        <time>2018-10-06T08:34:21.000Z</time>
      </trkpt>
      <trkpt lat="38.126825" lon="-4.92106333">
        <ele>476.0</ele>
        <time>2018-10-06T08:34:22.000Z</time>
      </trkpt>
      <trkpt lat="38.126825" lon="-4.92106333">
        <ele>476.0</ele>
        <time>2018-10-06T08:34:23.000Z</time>
      </trkpt>
      <trkpt lat="38.126825" lon="-4.92106333">
        <ele>476.0</ele>
        <time>2018-10-06T08:34:24.000Z</time>
      </trkpt>
      <trkpt lat="38.126825" lon="-4.92106333">
        <ele>476.0</ele>
        <time>2018-10-06T08:34:25.000Z</time>
      </trkpt>
      <trkpt lat="38.126825" lon="-4.92106333">
        <ele>476.0</ele>
        <time>2018-10-06T08:34:26.000Z</time>
      </trkpt>
      <trkpt lat="38.126825" lon="-4.92106333">
        <ele>476.0</ele>
        <time>2018-10-06T08:34:27.000Z</time>
      </trkpt>
      <trkpt lat="38.126825" lon="-4.92106333">
        <ele>476.0</ele>
        <time>2018-10-06T08:34:28.000Z</time>
      </trkpt>
      <trkpt lat="38.126825" lon="-4.92106333">
        <ele>476.0</ele>
        <time>2018-10-06T08:34:29.000Z</time>
      </trkpt>
      <trkpt lat="38.12688333" lon="-4.921">
        <ele>460.0</ele>
        <time>2018-10-06T08:34:30.000Z</time>
      </trkpt>
      <trkpt lat="38.12690667" lon="-4.92099167">
        <ele>461.0</ele>
        <time>2018-10-06T08:34:31.000Z</time>
      </trkpt>
      <trkpt lat="38.126925" lon="-4.92098167">
        <ele>461.0</ele>
        <time>2018-10-06T08:34:32.000Z</time>
      </trkpt>
      <trkpt lat="38.126945" lon="-4.92097">
        <ele>462.0</ele>
        <time>2018-10-06T08:34:33.000Z</time>
      </trkpt>
      <trkpt lat="38.12696167" lon="-4.92096167">
        <ele>462.0</ele>
        <time>2018-10-06T08:34:34.000Z</time>
      </trkpt>
      <trkpt lat="38.12697667" lon="-4.92095167">
        <ele>462.0</ele>
        <time>2018-10-06T08:34:35.000Z</time>
      </trkpt>
      <trkpt lat="38.12699167" lon="-4.92094333">
        <ele>463.0</ele>
        <time>2018-10-06T08:34:36.000Z</time>
      </trkpt>
      <trkpt lat="38.12700833" lon="-4.92093667">
        <ele>463.0</ele>
        <time>2018-10-06T08:34:37.000Z</time>
      </trkpt>
      <trkpt lat="38.12702167" lon="-4.92092833">
        <ele>463.0</ele>
        <time>2018-10-06T08:34:38.000Z</time>
      </trkpt>
      <trkpt lat="38.12703667" lon="-4.92091833">
        <ele>463.0</ele>
        <time>2018-10-06T08:34:39.000Z</time>
      </trkpt>
      <trkpt lat="38.12705167" lon="-4.92091">
        <ele>464.0</ele>
        <time>2018-10-06T08:34:40.000Z</time>
      </trkpt>
      <trkpt lat="38.127065" lon="-4.92090333">
        <ele>464.0</ele>
        <time>2018-10-06T08:34:41.000Z</time>
      </trkpt>
      <trkpt lat="38.127065" lon="-4.92090333">
        <ele>464.0</ele>
        <time>2018-10-06T08:34:42.000Z</time>
      </trkpt>
      <trkpt lat="38.127065" lon="-4.92090333">
        <ele>464.0</ele>
        <time>2018-10-06T08:34:43.000Z</time>
      </trkpt>
      <trkpt lat="38.127065" lon="-4.92090333">
        <ele>464.0</ele>
        <time>2018-10-06T08:34:44.000Z</time>
      </trkpt>
      <trkpt lat="38.127065" lon="-4.92090333">
        <ele>464.0</ele>
        <time>2018-10-06T08:34:45.000Z</time>
      </trkpt>
      <trkpt lat="38.127065" lon="-4.92090333">
        <ele>464.0</ele>
        <time>2018-10-06T08:34:46.000Z</time>
      </trkpt>
      <trkpt lat="38.127065" lon="-4.92090333">
        <ele>464.0</ele>
        <time>2018-10-06T08:34:47.000Z</time>
      </trkpt>
      <trkpt lat="38.127065" lon="-4.92090333">
        <ele>464.0</ele>
        <time>2018-10-06T08:34:48.000Z</time>
      </trkpt>
      <trkpt lat="38.127065" lon="-4.92090333">
        <ele>464.0</ele>
        <time>2018-10-06T08:34:49.000Z</time>
      </trkpt>
      <trkpt lat="38.127065" lon="-4.92090333">
        <ele>464.0</ele>
        <time>2018-10-06T08:34:50.000Z</time>
      </trkpt>
      <trkpt lat="38.127065" lon="-4.92090333">
        <ele>464.0</ele>
        <time>2018-10-06T08:34:51.000Z</time>
      </trkpt>
      <trkpt lat="38.127065" lon="-4.92090333">
        <ele>464.0</ele>
        <time>2018-10-06T08:34:52.000Z</time>
      </trkpt>
      <trkpt lat="38.127065" lon="-4.92090333">
        <ele>464.0</ele>
        <time>2018-10-06T08:34:53.000Z</time>
      </trkpt>
      <trkpt lat="38.127065" lon="-4.92090333">
        <ele>464.0</ele>
        <time>2018-10-06T08:34:54.000Z</time>
      </trkpt>
      <trkpt lat="38.127065" lon="-4.92090333">
        <ele>464.0</ele>
        <time>2018-10-06T08:34:55.000Z</time>
      </trkpt>
      <trkpt lat="38.127065" lon="-4.92090333">
        <ele>464.0</ele>
        <time>2018-10-06T08:34:56.000Z</time>
      </trkpt>
      <trkpt lat="38.127065" lon="-4.92090333">
        <ele>464.0</ele>
        <time>2018-10-06T08:34:57.000Z</time>
      </trkpt>
      <trkpt lat="38.127065" lon="-4.92090333">
        <ele>464.0</ele>
        <time>2018-10-06T08:34:58.000Z</time>
      </trkpt>
      <trkpt lat="38.127065" lon="-4.92090333">
        <ele>464.0</ele>
        <time>2018-10-06T08:34:59.000Z</time>
      </trkpt>
      <trkpt lat="38.127065" lon="-4.92090333">
        <ele>464.0</ele>
        <time>2018-10-06T08:35:00.000Z</time>
      </trkpt>
      <trkpt lat="38.127065" lon="-4.92090333">
        <ele>464.0</ele>
        <time>2018-10-06T08:35:01.000Z</time>
      </trkpt>
      <trkpt lat="38.127065" lon="-4.92090333">
        <ele>464.0</ele>
        <time>2018-10-06T08:35:02.000Z</time>
      </trkpt>
      <trkpt lat="38.127065" lon="-4.92090333">
        <ele>464.0</ele>
        <time>2018-10-06T08:35:03.000Z</time>
      </trkpt>
      <trkpt lat="38.127065" lon="-4.92090333">
        <ele>464.0</ele>
        <time>2018-10-06T08:35:04.000Z</time>
      </trkpt>
      <trkpt lat="38.127065" lon="-4.92090333">
        <ele>464.0</ele>
        <time>2018-10-06T08:35:05.000Z</time>
      </trkpt>
      <trkpt lat="38.127065" lon="-4.92090333">
        <ele>464.0</ele>
        <time>2018-10-06T08:35:06.000Z</time>
      </trkpt>
      <trkpt lat="38.127065" lon="-4.92090333">
        <ele>464.0</ele>
        <time>2018-10-06T08:35:07.000Z</time>
      </trkpt>
      <trkpt lat="38.127065" lon="-4.92090333">
        <ele>464.0</ele>
        <time>2018-10-06T08:35:08.000Z</time>
      </trkpt>
      <trkpt lat="38.127065" lon="-4.92090333">
        <ele>464.0</ele>
        <time>2018-10-06T08:35:09.000Z</time>
      </trkpt>
      <trkpt lat="38.127065" lon="-4.92090333">
        <ele>464.0</ele>
        <time>2018-10-06T08:35:10.000Z</time>
      </trkpt>
      <trkpt lat="38.127065" lon="-4.92090333">
        <ele>464.0</ele>
        <time>2018-10-06T08:35:11.000Z</time>
      </trkpt>
      <trkpt lat="38.127065" lon="-4.92090333">
        <ele>464.0</ele>
        <time>2018-10-06T08:35:12.000Z</time>
      </trkpt>
      <trkpt lat="38.127065" lon="-4.92090333">
        <ele>464.0</ele>
        <time>2018-10-06T08:35:13.000Z</time>
      </trkpt>
      <trkpt lat="38.127065" lon="-4.92090333">
        <ele>464.0</ele>
        <time>2018-10-06T08:35:14.000Z</time>
      </trkpt>
      <trkpt lat="38.127065" lon="-4.92090333">
        <ele>464.0</ele>
        <time>2018-10-06T08:35:15.000Z</time>
      </trkpt>
      <trkpt lat="38.127065" lon="-4.92090333">
        <ele>464.0</ele>
        <time>2018-10-06T08:35:16.000Z</time>
      </trkpt>
      <trkpt lat="38.127065" lon="-4.92090333">
        <ele>464.0</ele>
        <time>2018-10-06T08:35:17.000Z</time>
      </trkpt>
      <trkpt lat="38.127065" lon="-4.92090333">
        <ele>464.0</ele>
        <time>2018-10-06T08:35:18.000Z</time>
      </trkpt>
      <trkpt lat="38.127065" lon="-4.92090333">
        <ele>464.0</ele>
        <time>2018-10-06T08:35:19.000Z</time>
      </trkpt>
      <trkpt lat="38.127065" lon="-4.92090333">
        <ele>464.0</ele>
        <time>2018-10-06T08:35:20.000Z</time>
      </trkpt>
      <trkpt lat="38.127065" lon="-4.92090333">
        <ele>464.0</ele>
        <time>2018-10-06T08:35:21.000Z</time>
      </trkpt>
      <trkpt lat="38.127065" lon="-4.92090333">
        <ele>464.0</ele>
        <time>2018-10-06T08:35:22.000Z</time>
      </trkpt>
      <trkpt lat="38.127065" lon="-4.92090333">
        <ele>464.0</ele>
        <time>2018-10-06T08:35:23.000Z</time>
      </trkpt>
      <trkpt lat="38.127065" lon="-4.92090333">
        <ele>464.0</ele>
        <time>2018-10-06T08:35:24.000Z</time>
      </trkpt>
      <trkpt lat="38.127065" lon="-4.92090333">
        <ele>464.0</ele>
        <time>2018-10-06T08:35:25.000Z</time>
      </trkpt>
      <trkpt lat="38.127065" lon="-4.92090333">
        <ele>464.0</ele>
        <time>2018-10-06T08:35:26.000Z</time>
      </trkpt>
      <trkpt lat="38.127065" lon="-4.92090333">
        <ele>464.0</ele>
        <time>2018-10-06T08:35:27.000Z</time>
      </trkpt>
      <trkpt lat="38.127065" lon="-4.92090333">
        <ele>464.0</ele>
        <time>2018-10-06T08:35:28.000Z</time>
      </trkpt>
      <trkpt lat="38.127065" lon="-4.92090333">
        <ele>464.0</ele>
        <time>2018-10-06T08:35:29.000Z</time>
      </trkpt>
      <trkpt lat="38.127065" lon="-4.92090333">
        <ele>464.0</ele>
        <time>2018-10-06T08:35:30.000Z</time>
      </trkpt>
      <trkpt lat="38.12748667" lon="-4.920775">
        <ele>484.0</ele>
        <time>2018-10-06T08:35:31.000Z</time>
      </trkpt>
      <trkpt lat="38.12749833" lon="-4.92077167">
        <ele>483.0</ele>
        <time>2018-10-06T08:35:32.000Z</time>
      </trkpt>
      <trkpt lat="38.12751667" lon="-4.92076833">
        <ele>482.0</ele>
        <time>2018-10-06T08:35:33.000Z</time>
      </trkpt>
      <trkpt lat="38.12753667" lon="-4.920765">
        <ele>481.0</ele>
        <time>2018-10-06T08:35:34.000Z</time>
      </trkpt>
      <trkpt lat="38.12755667" lon="-4.92076333">
        <ele>480.0</ele>
        <time>2018-10-06T08:35:35.000Z</time>
      </trkpt>
      <trkpt lat="38.12757667" lon="-4.92075833">
        <ele>479.0</ele>
        <time>2018-10-06T08:35:36.000Z</time>
      </trkpt>
      <trkpt lat="38.127595" lon="-4.92075333">
        <ele>478.0</ele>
        <time>2018-10-06T08:35:37.000Z</time>
      </trkpt>
      <trkpt lat="38.12761167" lon="-4.92074667">
        <ele>477.0</ele>
        <time>2018-10-06T08:35:38.000Z</time>
      </trkpt>
      <trkpt lat="38.12762667" lon="-4.92074">
        <ele>477.0</ele>
        <time>2018-10-06T08:35:39.000Z</time>
      </trkpt>
      <trkpt lat="38.12764167" lon="-4.920735">
        <ele>476.0</ele>
        <time>2018-10-06T08:35:40.000Z</time>
      </trkpt>
      <trkpt lat="38.12765667" lon="-4.92073">
        <ele>475.0</ele>
        <time>2018-10-06T08:35:41.000Z</time>
      </trkpt>
      <trkpt lat="38.12765667" lon="-4.92073">
        <ele>475.0</ele>
        <time>2018-10-06T08:35:42.000Z</time>
      </trkpt>
      <trkpt lat="38.12765667" lon="-4.92073">
        <ele>475.0</ele>
        <time>2018-10-06T08:35:43.000Z</time>
      </trkpt>
      <trkpt lat="38.12765667" lon="-4.92073">
        <ele>475.0</ele>
        <time>2018-10-06T08:35:44.000Z</time>
      </trkpt>
      <trkpt lat="38.12765667" lon="-4.92073">
        <ele>475.0</ele>
        <time>2018-10-06T08:35:45.000Z</time>
      </trkpt>
      <trkpt lat="38.12765667" lon="-4.92073">
        <ele>475.0</ele>
        <time>2018-10-06T08:35:46.000Z</time>
      </trkpt>
      <trkpt lat="38.12765667" lon="-4.92073">
        <ele>475.0</ele>
        <time>2018-10-06T08:35:47.000Z</time>
      </trkpt>
      <trkpt lat="38.12765667" lon="-4.92073">
        <ele>475.0</ele>
        <time>2018-10-06T08:35:48.000Z</time>
      </trkpt>
      <trkpt lat="38.12765667" lon="-4.92073">
        <ele>475.0</ele>
        <time>2018-10-06T08:35:49.000Z</time>
      </trkpt>
      <trkpt lat="38.12765667" lon="-4.92073">
        <ele>475.0</ele>
        <time>2018-10-06T08:35:50.000Z</time>
      </trkpt>
      <trkpt lat="38.12765667" lon="-4.92073">
        <ele>475.0</ele>
        <time>2018-10-06T08:35:51.000Z</time>
      </trkpt>
      <trkpt lat="38.12765667" lon="-4.92073">
        <ele>475.0</ele>
        <time>2018-10-06T08:35:52.000Z</time>
      </trkpt>
      <trkpt lat="38.12765667" lon="-4.92073">
        <ele>475.0</ele>
        <time>2018-10-06T08:35:53.000Z</time>
      </trkpt>
      <trkpt lat="38.12765667" lon="-4.92073">
        <ele>475.0</ele>
        <time>2018-10-06T08:35:54.000Z</time>
      </trkpt>
      <trkpt lat="38.12765667" lon="-4.92073">
        <ele>475.0</ele>
        <time>2018-10-06T08:35:55.000Z</time>
      </trkpt>
      <trkpt lat="38.12765667" lon="-4.92073">
        <ele>475.0</ele>
        <time>2018-10-06T08:35:56.000Z</time>
      </trkpt>
      <trkpt lat="38.12765667" lon="-4.92073">
        <ele>475.0</ele>
        <time>2018-10-06T08:35:57.000Z</time>
      </trkpt>
      <trkpt lat="38.12765667" lon="-4.92073">
        <ele>475.0</ele>
        <time>2018-10-06T08:35:58.000Z</time>
      </trkpt>
      <trkpt lat="38.12765667" lon="-4.92073">
        <ele>475.0</ele>
        <time>2018-10-06T08:35:59.000Z</time>
      </trkpt>
      <trkpt lat="38.12765667" lon="-4.92073">
        <ele>475.0</ele>
        <time>2018-10-06T08:36:00.000Z</time>
      </trkpt>
      <trkpt lat="38.12765667" lon="-4.92073">
        <ele>475.0</ele>
        <time>2018-10-06T08:36:01.000Z</time>
      </trkpt>
      <trkpt lat="38.12765667" lon="-4.92073">
        <ele>475.0</ele>
        <time>2018-10-06T08:36:02.000Z</time>
      </trkpt>
      <trkpt lat="38.12765667" lon="-4.92073">
        <ele>475.0</ele>
        <time>2018-10-06T08:36:03.000Z</time>
      </trkpt>
      <trkpt lat="38.12765667" lon="-4.92073">
        <ele>475.0</ele>
        <time>2018-10-06T08:36:04.000Z</time>
      </trkpt>
      <trkpt lat="38.12765667" lon="-4.92073">
        <ele>475.0</ele>
        <time>2018-10-06T08:36:05.000Z</time>
      </trkpt>
      <trkpt lat="38.12765667" lon="-4.92073">
        <ele>475.0</ele>
        <time>2018-10-06T08:36:06.000Z</time>
      </trkpt>
      <trkpt lat="38.12765667" lon="-4.92073">
        <ele>475.0</ele>
        <time>2018-10-06T08:36:07.000Z</time>
      </trkpt>
      <trkpt lat="38.12765667" lon="-4.92073">
        <ele>475.0</ele>
        <time>2018-10-06T08:36:08.000Z</time>
      </trkpt>
      <trkpt lat="38.12765667" lon="-4.92073">
        <ele>475.0</ele>
        <time>2018-10-06T08:36:09.000Z</time>
      </trkpt>
      <trkpt lat="38.12765667" lon="-4.92073">
        <ele>475.0</ele>
        <time>2018-10-06T08:36:10.000Z</time>
      </trkpt>
      <trkpt lat="38.12765667" lon="-4.92073">
        <ele>475.0</ele>
        <time>2018-10-06T08:36:11.000Z</time>
      </trkpt>
      <trkpt lat="38.12765667" lon="-4.92073">
        <ele>475.0</ele>
        <time>2018-10-06T08:36:12.000Z</time>
      </trkpt>
      <trkpt lat="38.12765667" lon="-4.92073">
        <ele>475.0</ele>
        <time>2018-10-06T08:36:13.000Z</time>
      </trkpt>
      <trkpt lat="38.12765667" lon="-4.92073">
        <ele>475.0</ele>
        <time>2018-10-06T08:36:14.000Z</time>
      </trkpt>
      <trkpt lat="38.12765667" lon="-4.92073">
        <ele>475.0</ele>
        <time>2018-10-06T08:36:15.000Z</time>
      </trkpt>
      <trkpt lat="38.12765667" lon="-4.92073">
        <ele>475.0</ele>
        <time>2018-10-06T08:36:16.000Z</time>
      </trkpt>
      <trkpt lat="38.12765667" lon="-4.92073">
        <ele>475.0</ele>
        <time>2018-10-06T08:36:17.000Z</time>
      </trkpt>
      <trkpt lat="38.12765667" lon="-4.92073">
        <ele>475.0</ele>
        <time>2018-10-06T08:36:18.000Z</time>
      </trkpt>
      <trkpt lat="38.12765667" lon="-4.92073">
        <ele>475.0</ele>
        <time>2018-10-06T08:36:19.000Z</time>
      </trkpt>
      <trkpt lat="38.12765667" lon="-4.92073">
        <ele>475.0</ele>
        <time>2018-10-06T08:36:20.000Z</time>
      </trkpt>
      <trkpt lat="38.12765667" lon="-4.92073">
        <ele>475.0</ele>
        <time>2018-10-06T08:36:21.000Z</time>
      </trkpt>
      <trkpt lat="38.12765667" lon="-4.92073">
        <ele>475.0</ele>
        <time>2018-10-06T08:36:22.000Z</time>
      </trkpt>
      <trkpt lat="38.12765667" lon="-4.92073">
        <ele>475.0</ele>
        <time>2018-10-06T08:36:23.000Z</time>
      </trkpt>
      <trkpt lat="38.12765667" lon="-4.92073">
        <ele>475.0</ele>
        <time>2018-10-06T08:36:24.000Z</time>
      </trkpt>
      <trkpt lat="38.12765667" lon="-4.92073">
        <ele>475.0</ele>
        <time>2018-10-06T08:36:25.000Z</time>
      </trkpt>
      <trkpt lat="38.12765667" lon="-4.92073">
        <ele>475.0</ele>
        <time>2018-10-06T08:36:26.000Z</time>
      </trkpt>
      <trkpt lat="38.12765667" lon="-4.92073">
        <ele>475.0</ele>
        <time>2018-10-06T08:36:27.000Z</time>
      </trkpt>
      <trkpt lat="38.12765667" lon="-4.92073">
        <ele>475.0</ele>
        <time>2018-10-06T08:36:28.000Z</time>
      </trkpt>
      <trkpt lat="38.12765667" lon="-4.92073">
        <ele>475.0</ele>
        <time>2018-10-06T08:36:29.000Z</time>
      </trkpt>
      <trkpt lat="38.12803" lon="-4.92055">
        <ele>464.0</ele>
        <time>2018-10-06T08:36:30.000Z</time>
      </trkpt>
      <trkpt lat="38.12804167" lon="-4.92055">
        <ele>465.0</ele>
        <time>2018-10-06T08:36:31.000Z</time>
      </trkpt>
      <trkpt lat="38.12805333" lon="-4.92054667">
        <ele>465.0</ele>
        <time>2018-10-06T08:36:32.000Z</time>
      </trkpt>
      <trkpt lat="38.12807" lon="-4.92054167">
        <ele>466.0</ele>
        <time>2018-10-06T08:36:33.000Z</time>
      </trkpt>
      <trkpt lat="38.12808833" lon="-4.92054167">
        <ele>467.0</ele>
        <time>2018-10-06T08:36:34.000Z</time>
      </trkpt>
      <trkpt lat="38.12810667" lon="-4.92053833">
        <ele>467.0</ele>
        <time>2018-10-06T08:36:35.000Z</time>
      </trkpt>
      <trkpt lat="38.12812333" lon="-4.92053833">
        <ele>468.0</ele>
        <time>2018-10-06T08:36:36.000Z</time>
      </trkpt>
      <trkpt lat="38.12814" lon="-4.92053667">
        <ele>468.0</ele>
        <time>2018-10-06T08:36:37.000Z</time>
      </trkpt>
      <trkpt lat="38.128155" lon="-4.920535">
        <ele>468.0</ele>
        <time>2018-10-06T08:36:38.000Z</time>
      </trkpt>
      <trkpt lat="38.12817167" lon="-4.92053333">
        <ele>469.0</ele>
        <time>2018-10-06T08:36:39.000Z</time>
      </trkpt>
      <trkpt lat="38.128185" lon="-4.92053333">
        <ele>469.0</ele>
        <time>2018-10-06T08:36:40.000Z</time>
      </trkpt>
      <trkpt lat="38.12819667" lon="-4.92053333">
        <ele>469.0</ele>
        <time>2018-10-06T08:36:41.000Z</time>
      </trkpt>
      <trkpt lat="38.12819667" lon="-4.92053333">
        <ele>469.0</ele>
        <time>2018-10-06T08:36:42.000Z</time>
      </trkpt>
      <trkpt lat="38.12819667" lon="-4.92053333">
        <ele>469.0</ele>
        <time>2018-10-06T08:36:43.000Z</time>
      </trkpt>
      <trkpt lat="38.12819667" lon="-4.92053333">
        <ele>469.0</ele>
        <time>2018-10-06T08:36:44.000Z</time>
      </trkpt>
      <trkpt lat="38.12819667" lon="-4.92053333">
        <ele>469.0</ele>
        <time>2018-10-06T08:36:45.000Z</time>
      </trkpt>
      <trkpt lat="38.12819667" lon="-4.92053333">
        <ele>469.0</ele>
        <time>2018-10-06T08:36:46.000Z</time>
      </trkpt>
      <trkpt lat="38.12819667" lon="-4.92053333">
        <ele>469.0</ele>
        <time>2018-10-06T08:36:47.000Z</time>
      </trkpt>
      <trkpt lat="38.12819667" lon="-4.92053333">
        <ele>469.0</ele>
        <time>2018-10-06T08:36:48.000Z</time>
      </trkpt>
      <trkpt lat="38.12819667" lon="-4.92053333">
        <ele>469.0</ele>
        <time>2018-10-06T08:36:49.000Z</time>
      </trkpt>
      <trkpt lat="38.12819667" lon="-4.92053333">
        <ele>469.0</ele>
        <time>2018-10-06T08:36:50.000Z</time>
      </trkpt>
      <trkpt lat="38.12819667" lon="-4.92053333">
        <ele>469.0</ele>
        <time>2018-10-06T08:36:51.000Z</time>
      </trkpt>
      <trkpt lat="38.12819667" lon="-4.92053333">
        <ele>469.0</ele>
        <time>2018-10-06T08:36:52.000Z</time>
      </trkpt>
      <trkpt lat="38.12819667" lon="-4.92053333">
        <ele>469.0</ele>
        <time>2018-10-06T08:36:53.000Z</time>
      </trkpt>
      <trkpt lat="38.12819667" lon="-4.92053333">
        <ele>469.0</ele>
        <time>2018-10-06T08:36:54.000Z</time>
      </trkpt>
      <trkpt lat="38.12819667" lon="-4.92053333">
        <ele>469.0</ele>
        <time>2018-10-06T08:36:55.000Z</time>
      </trkpt>
      <trkpt lat="38.12819667" lon="-4.92053333">
        <ele>469.0</ele>
        <time>2018-10-06T08:36:56.000Z</time>
      </trkpt>
      <trkpt lat="38.12819667" lon="-4.92053333">
        <ele>469.0</ele>
        <time>2018-10-06T08:36:57.000Z</time>
      </trkpt>
      <trkpt lat="38.12819667" lon="-4.92053333">
        <ele>469.0</ele>
        <time>2018-10-06T08:36:58.000Z</time>
      </trkpt>
      <trkpt lat="38.12819667" lon="-4.92053333">
        <ele>469.0</ele>
        <time>2018-10-06T08:36:59.000Z</time>
      </trkpt>
      <trkpt lat="38.12819667" lon="-4.92053333">
        <ele>469.0</ele>
        <time>2018-10-06T08:37:00.000Z</time>
      </trkpt>
      <trkpt lat="38.12819667" lon="-4.92053333">
        <ele>469.0</ele>
        <time>2018-10-06T08:37:01.000Z</time>
      </trkpt>
      <trkpt lat="38.12819667" lon="-4.92053333">
        <ele>469.0</ele>
        <time>2018-10-06T08:37:02.000Z</time>
      </trkpt>
      <trkpt lat="38.12819667" lon="-4.92053333">
        <ele>469.0</ele>
        <time>2018-10-06T08:37:03.000Z</time>
      </trkpt>
      <trkpt lat="38.12819667" lon="-4.92053333">
        <ele>469.0</ele>
        <time>2018-10-06T08:37:04.000Z</time>
      </trkpt>
      <trkpt lat="38.12819667" lon="-4.92053333">
        <ele>469.0</ele>
        <time>2018-10-06T08:37:05.000Z</time>
      </trkpt>
      <trkpt lat="38.12819667" lon="-4.92053333">
        <ele>469.0</ele>
        <time>2018-10-06T08:37:06.000Z</time>
      </trkpt>
      <trkpt lat="38.12819667" lon="-4.92053333">
        <ele>469.0</ele>
        <time>2018-10-06T08:37:07.000Z</time>
      </trkpt>
      <trkpt lat="38.12819667" lon="-4.92053333">
        <ele>469.0</ele>
        <time>2018-10-06T08:37:08.000Z</time>
      </trkpt>
      <trkpt lat="38.12819667" lon="-4.92053333">
        <ele>469.0</ele>
        <time>2018-10-06T08:37:09.000Z</time>
      </trkpt>
      <trkpt lat="38.12819667" lon="-4.92053333">
        <ele>469.0</ele>
        <time>2018-10-06T08:37:10.000Z</time>
      </trkpt>
      <trkpt lat="38.12819667" lon="-4.92053333">
        <ele>469.0</ele>
        <time>2018-10-06T08:37:11.000Z</time>
      </trkpt>
      <trkpt lat="38.12819667" lon="-4.92053333">
        <ele>469.0</ele>
        <time>2018-10-06T08:37:12.000Z</time>
      </trkpt>
      <trkpt lat="38.12819667" lon="-4.92053333">
        <ele>469.0</ele>
        <time>2018-10-06T08:37:13.000Z</time>
      </trkpt>
      <trkpt lat="38.12819667" lon="-4.92053333">
        <ele>469.0</ele>
        <time>2018-10-06T08:37:14.000Z</time>
      </trkpt>
      <trkpt lat="38.12819667" lon="-4.92053333">
        <ele>469.0</ele>
        <time>2018-10-06T08:37:15.000Z</time>
      </trkpt>
      <trkpt lat="38.12819667" lon="-4.92053333">
        <ele>469.0</ele>
        <time>2018-10-06T08:37:16.000Z</time>
      </trkpt>
      <trkpt lat="38.12819667" lon="-4.92053333">
        <ele>469.0</ele>
        <time>2018-10-06T08:37:17.000Z</time>
      </trkpt>
      <trkpt lat="38.12819667" lon="-4.92053333">
        <ele>469.0</ele>
        <time>2018-10-06T08:37:18.000Z</time>
      </trkpt>
      <trkpt lat="38.12819667" lon="-4.92053333">
        <ele>469.0</ele>
        <time>2018-10-06T08:37:19.000Z</time>
      </trkpt>
      <trkpt lat="38.12819667" lon="-4.92053333">
        <ele>469.0</ele>
        <time>2018-10-06T08:37:20.000Z</time>
      </trkpt>
      <trkpt lat="38.12819667" lon="-4.92053333">
        <ele>469.0</ele>
        <time>2018-10-06T08:37:21.000Z</time>
      </trkpt>
      <trkpt lat="38.12819667" lon="-4.92053333">
        <ele>469.0</ele>
        <time>2018-10-06T08:37:22.000Z</time>
      </trkpt>
      <trkpt lat="38.12819667" lon="-4.92053333">
        <ele>469.0</ele>
        <time>2018-10-06T08:37:23.000Z</time>
      </trkpt>
      <trkpt lat="38.12819667" lon="-4.92053333">
        <ele>469.0</ele>
        <time>2018-10-06T08:37:24.000Z</time>
      </trkpt>
      <trkpt lat="38.12819667" lon="-4.92053333">
        <ele>469.0</ele>
        <time>2018-10-06T08:37:25.000Z</time>
      </trkpt>
      <trkpt lat="38.12819667" lon="-4.92053333">
        <ele>469.0</ele>
        <time>2018-10-06T08:37:26.000Z</time>
      </trkpt>
      <trkpt lat="38.12819667" lon="-4.92053333">
        <ele>469.0</ele>
        <time>2018-10-06T08:37:27.000Z</time>
      </trkpt>
      <trkpt lat="38.12819667" lon="-4.92053333">
        <ele>469.0</ele>
        <time>2018-10-06T08:37:28.000Z</time>
      </trkpt>
      <trkpt lat="38.12819667" lon="-4.92053333">
        <ele>469.0</ele>
        <time>2018-10-06T08:37:29.000Z</time>
      </trkpt>
      <trkpt lat="38.128285" lon="-4.92019667">
        <ele>464.0</ele>
        <time>2018-10-06T08:37:30.000Z</time>
      </trkpt>
      <trkpt lat="38.12829833" lon="-4.920175">
        <ele>465.0</ele>
        <time>2018-10-06T08:37:31.000Z</time>
      </trkpt>
      <trkpt lat="38.12831833" lon="-4.92015333">
        <ele>466.0</ele>
        <time>2018-10-06T08:37:32.000Z</time>
      </trkpt>
      <trkpt lat="38.12834" lon="-4.92013167">
        <ele>467.0</ele>
        <time>2018-10-06T08:37:33.000Z</time>
      </trkpt>
      <trkpt lat="38.12836" lon="-4.92011333">
        <ele>468.0</ele>
        <time>2018-10-06T08:37:34.000Z</time>
      </trkpt>
      <trkpt lat="38.12838167" lon="-4.92009333">
        <ele>468.0</ele>
        <time>2018-10-06T08:37:35.000Z</time>
      </trkpt>
      <trkpt lat="38.1284" lon="-4.920075">
        <ele>469.0</ele>
        <time>2018-10-06T08:37:36.000Z</time>
      </trkpt>
      <trkpt lat="38.12841833" lon="-4.920055">
        <ele>469.0</ele>
        <time>2018-10-06T08:37:37.000Z</time>
      </trkpt>
      <trkpt lat="38.12843333" lon="-4.920035">
        <ele>470.0</ele>
        <time>2018-10-06T08:37:38.000Z</time>
      </trkpt>
      <trkpt lat="38.12844833" lon="-4.92001667">
        <ele>470.0</ele>
        <time>2018-10-06T08:37:39.000Z</time>
      </trkpt>
      <trkpt lat="38.12846167" lon="-4.91999833">
        <ele>470.0</ele>
        <time>2018-10-06T08:37:40.000Z</time>
      </trkpt>
      <trkpt lat="38.128475" lon="-4.91998167">
        <ele>471.0</ele>
        <time>2018-10-06T08:37:41.000Z</time>
      </trkpt>
      <trkpt lat="38.128475" lon="-4.91998167">
        <ele>471.0</ele>
        <time>2018-10-06T08:37:42.000Z</time>
      </trkpt>
      <trkpt lat="38.128475" lon="-4.91998167">
        <ele>471.0</ele>
        <time>2018-10-06T08:37:43.000Z</time>
      </trkpt>
      <trkpt lat="38.128475" lon="-4.91998167">
        <ele>471.0</ele>
        <time>2018-10-06T08:37:44.000Z</time>
      </trkpt>
      <trkpt lat="38.128475" lon="-4.91998167">
        <ele>471.0</ele>
        <time>2018-10-06T08:37:45.000Z</time>
      </trkpt>
      <trkpt lat="38.128475" lon="-4.91998167">
        <ele>471.0</ele>
        <time>2018-10-06T08:37:46.000Z</time>
      </trkpt>
      <trkpt lat="38.128475" lon="-4.91998167">
        <ele>471.0</ele>
        <time>2018-10-06T08:37:47.000Z</time>
      </trkpt>
      <trkpt lat="38.128475" lon="-4.91998167">
        <ele>471.0</ele>
        <time>2018-10-06T08:37:48.000Z</time>
      </trkpt>
      <trkpt lat="38.128475" lon="-4.91998167">
        <ele>471.0</ele>
        <time>2018-10-06T08:37:49.000Z</time>
      </trkpt>
      <trkpt lat="38.128475" lon="-4.91998167">
        <ele>471.0</ele>
        <time>2018-10-06T08:37:50.000Z</time>
      </trkpt>
      <trkpt lat="38.128475" lon="-4.91998167">
        <ele>471.0</ele>
        <time>2018-10-06T08:37:51.000Z</time>
      </trkpt>
      <trkpt lat="38.128475" lon="-4.91998167">
        <ele>471.0</ele>
        <time>2018-10-06T08:37:52.000Z</time>
      </trkpt>
      <trkpt lat="38.128475" lon="-4.91998167">
        <ele>471.0</ele>
        <time>2018-10-06T08:37:53.000Z</time>
      </trkpt>
      <trkpt lat="38.128475" lon="-4.91998167">
        <ele>471.0</ele>
        <time>2018-10-06T08:37:54.000Z</time>
      </trkpt>
      <trkpt lat="38.128475" lon="-4.91998167">
        <ele>471.0</ele>
        <time>2018-10-06T08:37:55.000Z</time>
      </trkpt>
      <trkpt lat="38.128475" lon="-4.91998167">
        <ele>471.0</ele>
        <time>2018-10-06T08:37:56.000Z</time>
      </trkpt>
      <trkpt lat="38.128475" lon="-4.91998167">
        <ele>471.0</ele>
        <time>2018-10-06T08:37:57.000Z</time>
      </trkpt>
      <trkpt lat="38.128475" lon="-4.91998167">
        <ele>471.0</ele>
        <time>2018-10-06T08:37:58.000Z</time>
      </trkpt>
      <trkpt lat="38.128475" lon="-4.91998167">
        <ele>471.0</ele>
        <time>2018-10-06T08:37:59.000Z</time>
      </trkpt>
      <trkpt lat="38.128475" lon="-4.91998167">
        <ele>471.0</ele>
        <time>2018-10-06T08:38:00.000Z</time>
      </trkpt>
      <trkpt lat="38.128475" lon="-4.91998167">
        <ele>471.0</ele>
        <time>2018-10-06T08:38:01.000Z</time>
      </trkpt>
      <trkpt lat="38.128475" lon="-4.91998167">
        <ele>471.0</ele>
        <time>2018-10-06T08:38:02.000Z</time>
      </trkpt>
      <trkpt lat="38.128475" lon="-4.91998167">
        <ele>471.0</ele>
        <time>2018-10-06T08:38:03.000Z</time>
      </trkpt>
      <trkpt lat="38.128475" lon="-4.91998167">
        <ele>471.0</ele>
        <time>2018-10-06T08:38:04.000Z</time>
      </trkpt>
      <trkpt lat="38.128475" lon="-4.91998167">
        <ele>471.0</ele>
        <time>2018-10-06T08:38:05.000Z</time>
      </trkpt>
      <trkpt lat="38.128475" lon="-4.91998167">
        <ele>471.0</ele>
        <time>2018-10-06T08:38:06.000Z</time>
      </trkpt>
      <trkpt lat="38.128475" lon="-4.91998167">
        <ele>471.0</ele>
        <time>2018-10-06T08:38:07.000Z</time>
      </trkpt>
      <trkpt lat="38.128475" lon="-4.91998167">
        <ele>471.0</ele>
        <time>2018-10-06T08:38:08.000Z</time>
      </trkpt>
      <trkpt lat="38.128475" lon="-4.91998167">
        <ele>471.0</ele>
        <time>2018-10-06T08:38:09.000Z</time>
      </trkpt>
      <trkpt lat="38.128475" lon="-4.91998167">
        <ele>471.0</ele>
        <time>2018-10-06T08:38:10.000Z</time>
      </trkpt>
      <trkpt lat="38.128475" lon="-4.91998167">
        <ele>471.0</ele>
        <time>2018-10-06T08:38:11.000Z</time>
      </trkpt>
      <trkpt lat="38.128475" lon="-4.91998167">
        <ele>471.0</ele>
        <time>2018-10-06T08:38:12.000Z</time>
      </trkpt>
      <trkpt lat="38.128475" lon="-4.91998167">
        <ele>471.0</ele>
        <time>2018-10-06T08:38:13.000Z</time>
      </trkpt>
      <trkpt lat="38.128475" lon="-4.91998167">
        <ele>471.0</ele>
        <time>2018-10-06T08:38:14.000Z</time>
      </trkpt>
      <trkpt lat="38.128475" lon="-4.91998167">
        <ele>471.0</ele>
        <time>2018-10-06T08:38:15.000Z</time>
      </trkpt>
      <trkpt lat="38.128475" lon="-4.91998167">
        <ele>471.0</ele>
        <time>2018-10-06T08:38:16.000Z</time>
      </trkpt>
      <trkpt lat="38.12854167" lon="-4.91958333">
        <ele>491.0</ele>
        <time>2018-10-06T08:38:17.000Z</time>
      </trkpt>
      <trkpt lat="38.12855333" lon="-4.919555">
        <ele>491.0</ele>
        <time>2018-10-06T08:38:18.000Z</time>
      </trkpt>
      <trkpt lat="38.128565" lon="-4.919535">
        <ele>490.0</ele>
        <time>2018-10-06T08:38:19.000Z</time>
      </trkpt>
      <trkpt lat="38.12857333" lon="-4.919515">
        <ele>489.0</ele>
        <time>2018-10-06T08:38:20.000Z</time>
      </trkpt>
      <trkpt lat="38.128585" lon="-4.919495">
        <ele>488.0</ele>
        <time>2018-10-06T08:38:21.000Z</time>
      </trkpt>
      <trkpt lat="38.12859667" lon="-4.91947333">
        <ele>487.0</ele>
        <time>2018-10-06T08:38:22.000Z</time>
      </trkpt>
      <trkpt lat="38.128605" lon="-4.91945333">
        <ele>486.0</ele>
        <time>2018-10-06T08:38:23.000Z</time>
      </trkpt>
      <trkpt lat="38.12861333" lon="-4.91943333">
        <ele>486.0</ele>
        <time>2018-10-06T08:38:24.000Z</time>
      </trkpt>
      <trkpt lat="38.12862167" lon="-4.91941667">
        <ele>485.0</ele>
        <time>2018-10-06T08:38:25.000Z</time>
      </trkpt>
      <trkpt lat="38.12863" lon="-4.9194">
        <ele>485.0</ele>
        <time>2018-10-06T08:38:26.000Z</time>
      </trkpt>
      <trkpt lat="38.12863833" lon="-4.91938333">
        <ele>484.0</ele>
        <time>2018-10-06T08:38:27.000Z</time>
      </trkpt>
      <trkpt lat="38.128645" lon="-4.919365">
        <ele>483.0</ele>
        <time>2018-10-06T08:38:28.000Z</time>
      </trkpt>
      <trkpt lat="38.128645" lon="-4.919365">
        <ele>483.0</ele>
        <time>2018-10-06T08:38:29.000Z</time>
      </trkpt>
      <trkpt lat="38.128645" lon="-4.919365">
        <ele>483.0</ele>
        <time>2018-10-06T08:38:30.000Z</time>
      </trkpt>
      <trkpt lat="38.128645" lon="-4.919365">
        <ele>483.0</ele>
        <time>2018-10-06T08:38:31.000Z</time>
      </trkpt>
      <trkpt lat="38.128645" lon="-4.919365">
        <ele>483.0</ele>
        <time>2018-10-06T08:38:32.000Z</time>
      </trkpt>
      <trkpt lat="38.128645" lon="-4.919365">
        <ele>483.0</ele>
        <time>2018-10-06T08:38:33.000Z</time>
      </trkpt>
      <trkpt lat="38.128645" lon="-4.919365">
        <ele>483.0</ele>
        <time>2018-10-06T08:38:34.000Z</time>
      </trkpt>
      <trkpt lat="38.128645" lon="-4.919365">
        <ele>483.0</ele>
        <time>2018-10-06T08:38:35.000Z</time>
      </trkpt>
      <trkpt lat="38.128645" lon="-4.919365">
        <ele>483.0</ele>
        <time>2018-10-06T08:38:36.000Z</time>
      </trkpt>
      <trkpt lat="38.128645" lon="-4.919365">
        <ele>483.0</ele>
        <time>2018-10-06T08:38:37.000Z</time>
      </trkpt>
      <trkpt lat="38.128645" lon="-4.919365">
        <ele>483.0</ele>
        <time>2018-10-06T08:38:38.000Z</time>
      </trkpt>
      <trkpt lat="38.128645" lon="-4.919365">
        <ele>483.0</ele>
        <time>2018-10-06T08:38:39.000Z</time>
      </trkpt>
      <trkpt lat="38.128645" lon="-4.919365">
        <ele>483.0</ele>
        <time>2018-10-06T08:38:40.000Z</time>
      </trkpt>
      <trkpt lat="38.128645" lon="-4.919365">
        <ele>483.0</ele>
        <time>2018-10-06T08:38:41.000Z</time>
      </trkpt>
      <trkpt lat="38.128645" lon="-4.919365">
        <ele>483.0</ele>
        <time>2018-10-06T08:38:42.000Z</time>
      </trkpt>
      <trkpt lat="38.128645" lon="-4.919365">
        <ele>483.0</ele>
        <time>2018-10-06T08:38:43.000Z</time>
      </trkpt>
      <trkpt lat="38.128645" lon="-4.919365">
        <ele>483.0</ele>
        <time>2018-10-06T08:38:44.000Z</time>
      </trkpt>
      <trkpt lat="38.128645" lon="-4.919365">
        <ele>483.0</ele>
        <time>2018-10-06T08:38:45.000Z</time>
      </trkpt>
      <trkpt lat="38.128645" lon="-4.919365">
        <ele>483.0</ele>
        <time>2018-10-06T08:38:46.000Z</time>
      </trkpt>
      <trkpt lat="38.128645" lon="-4.919365">
        <ele>483.0</ele>
        <time>2018-10-06T08:38:47.000Z</time>
      </trkpt>
      <trkpt lat="38.128645" lon="-4.919365">
        <ele>483.0</ele>
        <time>2018-10-06T08:38:48.000Z</time>
      </trkpt>
      <trkpt lat="38.128645" lon="-4.919365">
        <ele>483.0</ele>
        <time>2018-10-06T08:38:49.000Z</time>
      </trkpt>
      <trkpt lat="38.128645" lon="-4.919365">
        <ele>483.0</ele>
        <time>2018-10-06T08:38:50.000Z</time>
      </trkpt>
      <trkpt lat="38.128645" lon="-4.919365">
        <ele>483.0</ele>
        <time>2018-10-06T08:38:51.000Z</time>
      </trkpt>
      <trkpt lat="38.128645" lon="-4.919365">
        <ele>483.0</ele>
        <time>2018-10-06T08:38:52.000Z</time>
      </trkpt>
      <trkpt lat="38.128645" lon="-4.919365">
        <ele>483.0</ele>
        <time>2018-10-06T08:38:53.000Z</time>
      </trkpt>
      <trkpt lat="38.128645" lon="-4.919365">
        <ele>483.0</ele>
        <time>2018-10-06T08:38:54.000Z</time>
      </trkpt>
      <trkpt lat="38.128645" lon="-4.919365">
        <ele>483.0</ele>
        <time>2018-10-06T08:38:55.000Z</time>
      </trkpt>
      <trkpt lat="38.128645" lon="-4.919365">
        <ele>483.0</ele>
        <time>2018-10-06T08:38:56.000Z</time>
      </trkpt>
      <trkpt lat="38.128645" lon="-4.919365">
        <ele>483.0</ele>
        <time>2018-10-06T08:38:57.000Z</time>
      </trkpt>
      <trkpt lat="38.128645" lon="-4.919365">
        <ele>483.0</ele>
        <time>2018-10-06T08:38:58.000Z</time>
      </trkpt>
      <trkpt lat="38.128645" lon="-4.919365">
        <ele>483.0</ele>
        <time>2018-10-06T08:38:59.000Z</time>
      </trkpt>
      <trkpt lat="38.128645" lon="-4.919365">
        <ele>483.0</ele>
        <time>2018-10-06T08:39:00.000Z</time>
      </trkpt>
      <trkpt lat="38.128645" lon="-4.919365">
        <ele>483.0</ele>
        <time>2018-10-06T08:39:01.000Z</time>
      </trkpt>
      <trkpt lat="38.128645" lon="-4.919365">
        <ele>483.0</ele>
        <time>2018-10-06T08:39:02.000Z</time>
      </trkpt>
      <trkpt lat="38.128645" lon="-4.919365">
        <ele>483.0</ele>
        <time>2018-10-06T08:39:03.000Z</time>
      </trkpt>
      <trkpt lat="38.128645" lon="-4.919365">
        <ele>483.0</ele>
        <time>2018-10-06T08:39:04.000Z</time>
      </trkpt>
      <trkpt lat="38.128645" lon="-4.919365">
        <ele>483.0</ele>
        <time>2018-10-06T08:39:05.000Z</time>
      </trkpt>
      <trkpt lat="38.128645" lon="-4.919365">
        <ele>483.0</ele>
        <time>2018-10-06T08:39:06.000Z</time>
      </trkpt>
      <trkpt lat="38.128645" lon="-4.919365">
        <ele>483.0</ele>
        <time>2018-10-06T08:39:07.000Z</time>
      </trkpt>
      <trkpt lat="38.128645" lon="-4.919365">
        <ele>483.0</ele>
        <time>2018-10-06T08:39:08.000Z</time>
      </trkpt>
      <trkpt lat="38.128645" lon="-4.919365">
        <ele>483.0</ele>
        <time>2018-10-06T08:39:09.000Z</time>
      </trkpt>
      <trkpt lat="38.128645" lon="-4.919365">
        <ele>483.0</ele>
        <time>2018-10-06T08:39:10.000Z</time>
      </trkpt>
      <trkpt lat="38.128645" lon="-4.919365">
        <ele>483.0</ele>
        <time>2018-10-06T08:39:11.000Z</time>
      </trkpt>
      <trkpt lat="38.128645" lon="-4.919365">
        <ele>483.0</ele>
        <time>2018-10-06T08:39:12.000Z</time>
      </trkpt>
      <trkpt lat="38.128645" lon="-4.919365">
        <ele>483.0</ele>
        <time>2018-10-06T08:39:13.000Z</time>
      </trkpt>
      <trkpt lat="38.128645" lon="-4.919365">
        <ele>483.0</ele>
        <time>2018-10-06T08:39:14.000Z</time>
      </trkpt>
      <trkpt lat="38.128645" lon="-4.919365">
        <ele>483.0</ele>
        <time>2018-10-06T08:39:15.000Z</time>
      </trkpt>
      <trkpt lat="38.128645" lon="-4.919365">
        <ele>483.0</ele>
        <time>2018-10-06T08:39:16.000Z</time>
      </trkpt>
      <trkpt lat="38.12876667" lon="-4.91891333">
        <ele>482.0</ele>
        <time>2018-10-06T08:39:17.000Z</time>
      </trkpt>
      <trkpt lat="38.12876667" lon="-4.91888667">
        <ele>482.0</ele>
        <time>2018-10-06T08:39:18.000Z</time>
      </trkpt>
      <trkpt lat="38.12876833" lon="-4.91885833">
        <ele>481.0</ele>
        <time>2018-10-06T08:39:19.000Z</time>
      </trkpt>
      <trkpt lat="38.12876833" lon="-4.91883333">
        <ele>481.0</ele>
        <time>2018-10-06T08:39:20.000Z</time>
      </trkpt>
      <trkpt lat="38.12876833" lon="-4.91881">
        <ele>480.0</ele>
        <time>2018-10-06T08:39:21.000Z</time>
      </trkpt>
      <trkpt lat="38.12876833" lon="-4.91878667">
        <ele>480.0</ele>
        <time>2018-10-06T08:39:22.000Z</time>
      </trkpt>
      <trkpt lat="38.12877" lon="-4.91876333">
        <ele>480.0</ele>
        <time>2018-10-06T08:39:23.000Z</time>
      </trkpt>
      <trkpt lat="38.12877" lon="-4.91874">
        <ele>480.0</ele>
        <time>2018-10-06T08:39:24.000Z</time>
      </trkpt>
      <trkpt lat="38.12877" lon="-4.91871667">
        <ele>479.0</ele>
        <time>2018-10-06T08:39:25.000Z</time>
      </trkpt>
      <trkpt lat="38.12877" lon="-4.918695">
        <ele>479.0</ele>
        <time>2018-10-06T08:39:26.000Z</time>
      </trkpt>
      <trkpt lat="38.12877167" lon="-4.918675">
        <ele>479.0</ele>
        <time>2018-10-06T08:39:27.000Z</time>
      </trkpt>
      <trkpt lat="38.12877167" lon="-4.918655">
        <ele>479.0</ele>
        <time>2018-10-06T08:39:28.000Z</time>
      </trkpt>
      <trkpt lat="38.12877167" lon="-4.918655">
        <ele>479.0</ele>
        <time>2018-10-06T08:39:29.000Z</time>
      </trkpt>
      <trkpt lat="38.12877167" lon="-4.918655">
        <ele>479.0</ele>
        <time>2018-10-06T08:39:30.000Z</time>
      </trkpt>
      <trkpt lat="38.12877167" lon="-4.918655">
        <ele>479.0</ele>
        <time>2018-10-06T08:39:31.000Z</time>
      </trkpt>
      <trkpt lat="38.12877167" lon="-4.918655">
        <ele>479.0</ele>
        <time>2018-10-06T08:39:32.000Z</time>
      </trkpt>
      <trkpt lat="38.12877167" lon="-4.918655">
        <ele>479.0</ele>
        <time>2018-10-06T08:39:33.000Z</time>
      </trkpt>
      <trkpt lat="38.12877167" lon="-4.918655">
        <ele>479.0</ele>
        <time>2018-10-06T08:39:34.000Z</time>
      </trkpt>
      <trkpt lat="38.12877167" lon="-4.918655">
        <ele>479.0</ele>
        <time>2018-10-06T08:39:35.000Z</time>
      </trkpt>
      <trkpt lat="38.12877167" lon="-4.918655">
        <ele>479.0</ele>
        <time>2018-10-06T08:39:36.000Z</time>
      </trkpt>
      <trkpt lat="38.12877167" lon="-4.918655">
        <ele>479.0</ele>
        <time>2018-10-06T08:39:37.000Z</time>
      </trkpt>
      <trkpt lat="38.12877167" lon="-4.918655">
        <ele>479.0</ele>
        <time>2018-10-06T08:39:38.000Z</time>
      </trkpt>
      <trkpt lat="38.12877167" lon="-4.918655">
        <ele>479.0</ele>
        <time>2018-10-06T08:39:39.000Z</time>
      </trkpt>
      <trkpt lat="38.12877167" lon="-4.918655">
        <ele>479.0</ele>
        <time>2018-10-06T08:39:40.000Z</time>
      </trkpt>
      <trkpt lat="38.12877167" lon="-4.918655">
        <ele>479.0</ele>
        <time>2018-10-06T08:39:41.000Z</time>
      </trkpt>
      <trkpt lat="38.12877167" lon="-4.918655">
        <ele>479.0</ele>
        <time>2018-10-06T08:39:42.000Z</time>
      </trkpt>
      <trkpt lat="38.12877167" lon="-4.918655">
        <ele>479.0</ele>
        <time>2018-10-06T08:39:43.000Z</time>
      </trkpt>
      <trkpt lat="38.12877167" lon="-4.918655">
        <ele>479.0</ele>
        <time>2018-10-06T08:39:44.000Z</time>
      </trkpt>
      <trkpt lat="38.12877167" lon="-4.918655">
        <ele>479.0</ele>
        <time>2018-10-06T08:39:45.000Z</time>
      </trkpt>
      <trkpt lat="38.12877167" lon="-4.918655">
        <ele>479.0</ele>
        <time>2018-10-06T08:39:46.000Z</time>
      </trkpt>
      <trkpt lat="38.12877167" lon="-4.918655">
        <ele>479.0</ele>
        <time>2018-10-06T08:39:47.000Z</time>
      </trkpt>
      <trkpt lat="38.12877167" lon="-4.918655">
        <ele>479.0</ele>
        <time>2018-10-06T08:39:48.000Z</time>
      </trkpt>
      <trkpt lat="38.12877167" lon="-4.918655">
        <ele>479.0</ele>
        <time>2018-10-06T08:39:49.000Z</time>
      </trkpt>
      <trkpt lat="38.12877167" lon="-4.918655">
        <ele>479.0</ele>
        <time>2018-10-06T08:39:50.000Z</time>
      </trkpt>
      <trkpt lat="38.12877167" lon="-4.918655">
        <ele>479.0</ele>
        <time>2018-10-06T08:39:51.000Z</time>
      </trkpt>
      <trkpt lat="38.12877167" lon="-4.918655">
        <ele>479.0</ele>
        <time>2018-10-06T08:39:52.000Z</time>
      </trkpt>
      <trkpt lat="38.12877167" lon="-4.918655">
        <ele>479.0</ele>
        <time>2018-10-06T08:39:53.000Z</time>
      </trkpt>
      <trkpt lat="38.12877167" lon="-4.918655">
        <ele>479.0</ele>
        <time>2018-10-06T08:39:54.000Z</time>
      </trkpt>
      <trkpt lat="38.12877167" lon="-4.918655">
        <ele>479.0</ele>
        <time>2018-10-06T08:39:55.000Z</time>
      </trkpt>
      <trkpt lat="38.12877167" lon="-4.918655">
        <ele>479.0</ele>
        <time>2018-10-06T08:39:56.000Z</time>
      </trkpt>
      <trkpt lat="38.12877167" lon="-4.918655">
        <ele>479.0</ele>
        <time>2018-10-06T08:39:57.000Z</time>
      </trkpt>
      <trkpt lat="38.12877167" lon="-4.918655">
        <ele>479.0</ele>
        <time>2018-10-06T08:39:58.000Z</time>
      </trkpt>
      <trkpt lat="38.12877167" lon="-4.918655">
        <ele>479.0</ele>
        <time>2018-10-06T08:39:59.000Z</time>
      </trkpt>
      <trkpt lat="38.12877167" lon="-4.918655">
        <ele>479.0</ele>
        <time>2018-10-06T08:40:00.000Z</time>
      </trkpt>
      <trkpt lat="38.12877167" lon="-4.918655">
        <ele>479.0</ele>
        <time>2018-10-06T08:40:01.000Z</time>
      </trkpt>
      <trkpt lat="38.12877167" lon="-4.918655">
        <ele>479.0</ele>
        <time>2018-10-06T08:40:02.000Z</time>
      </trkpt>
      <trkpt lat="38.12877167" lon="-4.918655">
        <ele>479.0</ele>
        <time>2018-10-06T08:40:03.000Z</time>
      </trkpt>
      <trkpt lat="38.12877167" lon="-4.918655">
        <ele>479.0</ele>
        <time>2018-10-06T08:40:04.000Z</time>
      </trkpt>
      <trkpt lat="38.12877167" lon="-4.918655">
        <ele>479.0</ele>
        <time>2018-10-06T08:40:05.000Z</time>
      </trkpt>
      <trkpt lat="38.12877167" lon="-4.918655">
        <ele>479.0</ele>
        <time>2018-10-06T08:40:06.000Z</time>
      </trkpt>
      <trkpt lat="38.12877167" lon="-4.918655">
        <ele>479.0</ele>
        <time>2018-10-06T08:40:07.000Z</time>
      </trkpt>
      <trkpt lat="38.12877167" lon="-4.918655">
        <ele>479.0</ele>
        <time>2018-10-06T08:40:08.000Z</time>
      </trkpt>
      <trkpt lat="38.12877167" lon="-4.918655">
        <ele>479.0</ele>
        <time>2018-10-06T08:40:09.000Z</time>
      </trkpt>
      <trkpt lat="38.12877167" lon="-4.918655">
        <ele>479.0</ele>
        <time>2018-10-06T08:40:10.000Z</time>
      </trkpt>
      <trkpt lat="38.12877167" lon="-4.918655">
        <ele>479.0</ele>
        <time>2018-10-06T08:40:11.000Z</time>
      </trkpt>
      <trkpt lat="38.12877167" lon="-4.918655">
        <ele>479.0</ele>
        <time>2018-10-06T08:40:12.000Z</time>
      </trkpt>
      <trkpt lat="38.12877167" lon="-4.918655">
        <ele>479.0</ele>
        <time>2018-10-06T08:40:13.000Z</time>
      </trkpt>
      <trkpt lat="38.12877167" lon="-4.918655">
        <ele>479.0</ele>
        <time>2018-10-06T08:40:14.000Z</time>
      </trkpt>
      <trkpt lat="38.12877167" lon="-4.918655">
        <ele>479.0</ele>
        <time>2018-10-06T08:40:15.000Z</time>
      </trkpt>
      <trkpt lat="38.12877167" lon="-4.918655">
        <ele>479.0</ele>
        <time>2018-10-06T08:40:16.000Z</time>
      </trkpt>
      <trkpt lat="38.12884333" lon="-4.91797833">
        <ele>484.0</ele>
        <time>2018-10-06T08:40:17.000Z</time>
      </trkpt>
      <trkpt lat="38.12884667" lon="-4.91796167">
        <ele>484.0</ele>
        <time>2018-10-06T08:40:18.000Z</time>
      </trkpt>
      <trkpt lat="38.12884667" lon="-4.91795333">
        <ele>484.0</ele>
        <time>2018-10-06T08:40:19.000Z</time>
      </trkpt>
      <trkpt lat="38.128845" lon="-4.917935">
        <ele>483.0</ele>
        <time>2018-10-06T08:40:20.000Z</time>
      </trkpt>
      <trkpt lat="38.12884667" lon="-4.91791667">
        <ele>483.0</ele>
        <time>2018-10-06T08:40:21.000Z</time>
      </trkpt>
      <trkpt lat="38.12884667" lon="-4.91789833">
        <ele>483.0</ele>
        <time>2018-10-06T08:40:22.000Z</time>
      </trkpt>
      <trkpt lat="38.12884667" lon="-4.91788167">
        <ele>482.0</ele>
        <time>2018-10-06T08:40:23.000Z</time>
      </trkpt>
      <trkpt lat="38.12884667" lon="-4.917865">
        <ele>482.0</ele>
        <time>2018-10-06T08:40:24.000Z</time>
      </trkpt>
      <trkpt lat="38.128845" lon="-4.91785">
        <ele>482.0</ele>
        <time>2018-10-06T08:40:25.000Z</time>
      </trkpt>
      <trkpt lat="38.128845" lon="-4.91783333">
        <ele>482.0</ele>
        <time>2018-10-06T08:40:26.000Z</time>
      </trkpt>
      <trkpt lat="38.128845" lon="-4.91781667">
        <ele>481.0</ele>
        <time>2018-10-06T08:40:27.000Z</time>
      </trkpt>
      <trkpt lat="38.12884333" lon="-4.9178">
        <ele>481.0</ele>
        <time>2018-10-06T08:40:28.000Z</time>
      </trkpt>
      <trkpt lat="38.12884333" lon="-4.9178">
        <ele>481.0</ele>
        <time>2018-10-06T08:40:29.000Z</time>
      </trkpt>
      <trkpt lat="38.12884333" lon="-4.9178">
        <ele>481.0</ele>
        <time>2018-10-06T08:40:30.000Z</time>
      </trkpt>
      <trkpt lat="38.12884333" lon="-4.9178">
        <ele>481.0</ele>
        <time>2018-10-06T08:40:31.000Z</time>
      </trkpt>
      <trkpt lat="38.12884333" lon="-4.9178">
        <ele>481.0</ele>
        <time>2018-10-06T08:40:32.000Z</time>
      </trkpt>
      <trkpt lat="38.12884333" lon="-4.9178">
        <ele>481.0</ele>
        <time>2018-10-06T08:40:33.000Z</time>
      </trkpt>
      <trkpt lat="38.12884333" lon="-4.9178">
        <ele>481.0</ele>
        <time>2018-10-06T08:40:34.000Z</time>
      </trkpt>
      <trkpt lat="38.12884333" lon="-4.9178">
        <ele>481.0</ele>
        <time>2018-10-06T08:40:35.000Z</time>
      </trkpt>
      <trkpt lat="38.12884333" lon="-4.9178">
        <ele>481.0</ele>
        <time>2018-10-06T08:40:36.000Z</time>
      </trkpt>
      <trkpt lat="38.12884333" lon="-4.9178">
        <ele>481.0</ele>
        <time>2018-10-06T08:40:37.000Z</time>
      </trkpt>
      <trkpt lat="38.12884333" lon="-4.9178">
        <ele>481.0</ele>
        <time>2018-10-06T08:40:38.000Z</time>
      </trkpt>
      <trkpt lat="38.12884333" lon="-4.9178">
        <ele>481.0</ele>
        <time>2018-10-06T08:40:39.000Z</time>
      </trkpt>
      <trkpt lat="38.12884333" lon="-4.9178">
        <ele>481.0</ele>
        <time>2018-10-06T08:40:40.000Z</time>
      </trkpt>
      <trkpt lat="38.12884333" lon="-4.9178">
        <ele>481.0</ele>
        <time>2018-10-06T08:40:41.000Z</time>
      </trkpt>
      <trkpt lat="38.12884333" lon="-4.9178">
        <ele>481.0</ele>
        <time>2018-10-06T08:40:42.000Z</time>
      </trkpt>
      <trkpt lat="38.12884333" lon="-4.9178">
        <ele>481.0</ele>
        <time>2018-10-06T08:40:43.000Z</time>
      </trkpt>
      <trkpt lat="38.12884333" lon="-4.9178">
        <ele>481.0</ele>
        <time>2018-10-06T08:40:44.000Z</time>
      </trkpt>
      <trkpt lat="38.12884333" lon="-4.9178">
        <ele>481.0</ele>
        <time>2018-10-06T08:40:45.000Z</time>
      </trkpt>
      <trkpt lat="38.12884333" lon="-4.9178">
        <ele>481.0</ele>
        <time>2018-10-06T08:40:46.000Z</time>
      </trkpt>
      <trkpt lat="38.12884333" lon="-4.9178">
        <ele>481.0</ele>
        <time>2018-10-06T08:40:47.000Z</time>
      </trkpt>
      <trkpt lat="38.12884333" lon="-4.9178">
        <ele>481.0</ele>
        <time>2018-10-06T08:40:48.000Z</time>
      </trkpt>
      <trkpt lat="38.12884333" lon="-4.9178">
        <ele>481.0</ele>
        <time>2018-10-06T08:40:49.000Z</time>
      </trkpt>
      <trkpt lat="38.12884333" lon="-4.9178">
        <ele>481.0</ele>
        <time>2018-10-06T08:40:50.000Z</time>
      </trkpt>
      <trkpt lat="38.12884333" lon="-4.9178">
        <ele>481.0</ele>
        <time>2018-10-06T08:40:51.000Z</time>
      </trkpt>
      <trkpt lat="38.12884333" lon="-4.9178">
        <ele>481.0</ele>
        <time>2018-10-06T08:40:52.000Z</time>
      </trkpt>
      <trkpt lat="38.12884333" lon="-4.9178">
        <ele>481.0</ele>
        <time>2018-10-06T08:40:53.000Z</time>
      </trkpt>
      <trkpt lat="38.12884333" lon="-4.9178">
        <ele>481.0</ele>
        <time>2018-10-06T08:40:54.000Z</time>
      </trkpt>
      <trkpt lat="38.12884333" lon="-4.9178">
        <ele>481.0</ele>
        <time>2018-10-06T08:40:55.000Z</time>
      </trkpt>
      <trkpt lat="38.12884333" lon="-4.9178">
        <ele>481.0</ele>
        <time>2018-10-06T08:40:56.000Z</time>
      </trkpt>
      <trkpt lat="38.12884333" lon="-4.9178">
        <ele>481.0</ele>
        <time>2018-10-06T08:40:57.000Z</time>
      </trkpt>
      <trkpt lat="38.12884333" lon="-4.9178">
        <ele>481.0</ele>
        <time>2018-10-06T08:40:58.000Z</time>
      </trkpt>
      <trkpt lat="38.12884333" lon="-4.9178">
        <ele>481.0</ele>
        <time>2018-10-06T08:40:59.000Z</time>
      </trkpt>
      <trkpt lat="38.12884333" lon="-4.9178">
        <ele>481.0</ele>
        <time>2018-10-06T08:41:00.000Z</time>
      </trkpt>
      <trkpt lat="38.12884333" lon="-4.9178">
        <ele>481.0</ele>
        <time>2018-10-06T08:41:01.000Z</time>
      </trkpt>
      <trkpt lat="38.12884333" lon="-4.9178">
        <ele>481.0</ele>
        <time>2018-10-06T08:41:02.000Z</time>
      </trkpt>
      <trkpt lat="38.12884333" lon="-4.9178">
        <ele>481.0</ele>
        <time>2018-10-06T08:41:03.000Z</time>
      </trkpt>
      <trkpt lat="38.12884333" lon="-4.9178">
        <ele>481.0</ele>
        <time>2018-10-06T08:41:04.000Z</time>
      </trkpt>
      <trkpt lat="38.12884333" lon="-4.9178">
        <ele>481.0</ele>
        <time>2018-10-06T08:41:05.000Z</time>
      </trkpt>
      <trkpt lat="38.12884333" lon="-4.9178">
        <ele>481.0</ele>
        <time>2018-10-06T08:41:06.000Z</time>
      </trkpt>
      <trkpt lat="38.12884333" lon="-4.9178">
        <ele>481.0</ele>
        <time>2018-10-06T08:41:07.000Z</time>
      </trkpt>
      <trkpt lat="38.12884333" lon="-4.9178">
        <ele>481.0</ele>
        <time>2018-10-06T08:41:08.000Z</time>
      </trkpt>
      <trkpt lat="38.12884333" lon="-4.9178">
        <ele>481.0</ele>
        <time>2018-10-06T08:41:09.000Z</time>
      </trkpt>
      <trkpt lat="38.12884333" lon="-4.9178">
        <ele>481.0</ele>
        <time>2018-10-06T08:41:10.000Z</time>
      </trkpt>
      <trkpt lat="38.12884333" lon="-4.9178">
        <ele>481.0</ele>
        <time>2018-10-06T08:41:11.000Z</time>
      </trkpt>
      <trkpt lat="38.12884333" lon="-4.9178">
        <ele>481.0</ele>
        <time>2018-10-06T08:41:12.000Z</time>
      </trkpt>
      <trkpt lat="38.12884333" lon="-4.9178">
        <ele>481.0</ele>
        <time>2018-10-06T08:41:13.000Z</time>
      </trkpt>
      <trkpt lat="38.12884333" lon="-4.9178">
        <ele>481.0</ele>
        <time>2018-10-06T08:41:14.000Z</time>
      </trkpt>
      <trkpt lat="38.12884333" lon="-4.9178">
        <ele>481.0</ele>
        <time>2018-10-06T08:41:15.000Z</time>
      </trkpt>
      <trkpt lat="38.12884333" lon="-4.9178">
        <ele>481.0</ele>
        <time>2018-10-06T08:41:16.000Z</time>
      </trkpt>
      <trkpt lat="38.12890167" lon="-4.91718167">
        <ele>489.0</ele>
        <time>2018-10-06T08:41:17.000Z</time>
      </trkpt>
      <trkpt lat="38.128895" lon="-4.91716667">
        <ele>489.0</ele>
        <time>2018-10-06T08:41:18.000Z</time>
      </trkpt>
      <trkpt lat="38.128895" lon="-4.91715333">
        <ele>488.0</ele>
        <time>2018-10-06T08:41:19.000Z</time>
      </trkpt>
      <trkpt lat="38.12889667" lon="-4.91713333">
        <ele>488.0</ele>
        <time>2018-10-06T08:41:20.000Z</time>
      </trkpt>
      <trkpt lat="38.12889833" lon="-4.917115">
        <ele>487.0</ele>
        <time>2018-10-06T08:41:21.000Z</time>
      </trkpt>
      <trkpt lat="38.1289" lon="-4.917095">
        <ele>487.0</ele>
        <time>2018-10-06T08:41:22.000Z</time>
      </trkpt>
      <trkpt lat="38.1289" lon="-4.917075">
        <ele>486.0</ele>
        <time>2018-10-06T08:41:23.000Z</time>
      </trkpt>
      <trkpt lat="38.12890167" lon="-4.917055">
        <ele>486.0</ele>
        <time>2018-10-06T08:41:24.000Z</time>
      </trkpt>
      <trkpt lat="38.12890333" lon="-4.917035">
        <ele>486.0</ele>
        <time>2018-10-06T08:41:25.000Z</time>
      </trkpt>
      <trkpt lat="38.128905" lon="-4.917015">
        <ele>485.0</ele>
        <time>2018-10-06T08:41:26.000Z</time>
      </trkpt>
      <trkpt lat="38.12890667" lon="-4.91699667">
        <ele>485.0</ele>
        <time>2018-10-06T08:41:27.000Z</time>
      </trkpt>
      <trkpt lat="38.12890833" lon="-4.91698">
        <ele>485.0</ele>
        <time>2018-10-06T08:41:28.000Z</time>
      </trkpt>
      <trkpt lat="38.12890833" lon="-4.91696333">
        <ele>484.0</ele>
        <time>2018-10-06T08:41:29.000Z</time>
      </trkpt>
      <trkpt lat="38.12890833" lon="-4.91696333">
        <ele>484.0</ele>
        <time>2018-10-06T08:41:30.000Z</time>
      </trkpt>
      <trkpt lat="38.12890833" lon="-4.91696333">
        <ele>484.0</ele>
        <time>2018-10-06T08:41:31.000Z</time>
      </trkpt>
      <trkpt lat="38.12890833" lon="-4.91696333">
        <ele>484.0</ele>
        <time>2018-10-06T08:41:32.000Z</time>
      </trkpt>
      <trkpt lat="38.12890833" lon="-4.91696333">
        <ele>484.0</ele>
        <time>2018-10-06T08:41:33.000Z</time>
      </trkpt>
      <trkpt lat="38.12890833" lon="-4.91696333">
        <ele>484.0</ele>
        <time>2018-10-06T08:41:34.000Z</time>
      </trkpt>
      <trkpt lat="38.12890833" lon="-4.91696333">
        <ele>484.0</ele>
        <time>2018-10-06T08:41:35.000Z</time>
      </trkpt>
      <trkpt lat="38.12890833" lon="-4.91696333">
        <ele>484.0</ele>
        <time>2018-10-06T08:41:36.000Z</time>
      </trkpt>
      <trkpt lat="38.12890833" lon="-4.91696333">
        <ele>484.0</ele>
        <time>2018-10-06T08:41:37.000Z</time>
      </trkpt>
      <trkpt lat="38.12890833" lon="-4.91696333">
        <ele>484.0</ele>
        <time>2018-10-06T08:41:38.000Z</time>
      </trkpt>
      <trkpt lat="38.12890833" lon="-4.91696333">
        <ele>484.0</ele>
        <time>2018-10-06T08:41:39.000Z</time>
      </trkpt>
      <trkpt lat="38.12890833" lon="-4.91696333">
        <ele>484.0</ele>
        <time>2018-10-06T08:41:40.000Z</time>
      </trkpt>
      <trkpt lat="38.12890833" lon="-4.91696333">
        <ele>484.0</ele>
        <time>2018-10-06T08:41:41.000Z</time>
      </trkpt>
      <trkpt lat="38.12890833" lon="-4.91696333">
        <ele>484.0</ele>
        <time>2018-10-06T08:41:42.000Z</time>
      </trkpt>
      <trkpt lat="38.12890833" lon="-4.91696333">
        <ele>484.0</ele>
        <time>2018-10-06T08:41:43.000Z</time>
      </trkpt>
      <trkpt lat="38.12890833" lon="-4.91696333">
        <ele>484.0</ele>
        <time>2018-10-06T08:41:44.000Z</time>
      </trkpt>
      <trkpt lat="38.12894833" lon="-4.91674">
        <ele>481.0</ele>
        <time>2018-10-06T08:41:45.000Z</time>
      </trkpt>
      <trkpt lat="38.12895333" lon="-4.91672167">
        <ele>481.0</ele>
        <time>2018-10-06T08:41:46.000Z</time>
      </trkpt>
      <trkpt lat="38.12895833" lon="-4.91670667">
        <ele>481.0</ele>
        <time>2018-10-06T08:41:47.000Z</time>
      </trkpt>
      <trkpt lat="38.12896167" lon="-4.91669167">
        <ele>481.0</ele>
        <time>2018-10-06T08:41:48.000Z</time>
      </trkpt>
      <trkpt lat="38.12896333" lon="-4.91668">
        <ele>481.0</ele>
        <time>2018-10-06T08:41:49.000Z</time>
      </trkpt>
      <trkpt lat="38.12896667" lon="-4.916665">
        <ele>481.0</ele>
        <time>2018-10-06T08:41:50.000Z</time>
      </trkpt>
      <trkpt lat="38.12897" lon="-4.91665167">
        <ele>481.0</ele>
        <time>2018-10-06T08:41:51.000Z</time>
      </trkpt>
      <trkpt lat="38.12897333" lon="-4.91663833">
        <ele>481.0</ele>
        <time>2018-10-06T08:41:52.000Z</time>
      </trkpt>
      <trkpt lat="38.12897667" lon="-4.916625">
        <ele>481.0</ele>
        <time>2018-10-06T08:41:53.000Z</time>
      </trkpt>
      <trkpt lat="38.12898" lon="-4.91661">
        <ele>481.0</ele>
        <time>2018-10-06T08:41:54.000Z</time>
      </trkpt>
      <trkpt lat="38.12898167" lon="-4.916595">
        <ele>481.0</ele>
        <time>2018-10-06T08:41:55.000Z</time>
      </trkpt>
      <trkpt lat="38.128985" lon="-4.91658333">
        <ele>481.0</ele>
        <time>2018-10-06T08:41:56.000Z</time>
      </trkpt>
      <trkpt lat="38.128985" lon="-4.91658333">
        <ele>481.0</ele>
        <time>2018-10-06T08:41:57.000Z</time>
      </trkpt>
      <trkpt lat="38.128985" lon="-4.91658333">
        <ele>481.0</ele>
        <time>2018-10-06T08:41:58.000Z</time>
      </trkpt>
      <trkpt lat="38.128985" lon="-4.91658333">
        <ele>481.0</ele>
        <time>2018-10-06T08:41:59.000Z</time>
      </trkpt>
      <trkpt lat="38.128985" lon="-4.91658333">
        <ele>481.0</ele>
        <time>2018-10-06T08:42:00.000Z</time>
      </trkpt>
      <trkpt lat="38.128985" lon="-4.91658333">
        <ele>481.0</ele>
        <time>2018-10-06T08:42:01.000Z</time>
      </trkpt>
      <trkpt lat="38.128985" lon="-4.91658333">
        <ele>481.0</ele>
        <time>2018-10-06T08:42:02.000Z</time>
      </trkpt>
      <trkpt lat="38.128985" lon="-4.91658333">
        <ele>481.0</ele>
        <time>2018-10-06T08:42:03.000Z</time>
      </trkpt>
      <trkpt lat="38.128985" lon="-4.91658333">
        <ele>481.0</ele>
        <time>2018-10-06T08:42:04.000Z</time>
      </trkpt>
      <trkpt lat="38.128985" lon="-4.91658333">
        <ele>481.0</ele>
        <time>2018-10-06T08:42:05.000Z</time>
      </trkpt>
      <trkpt lat="38.128985" lon="-4.91658333">
        <ele>481.0</ele>
        <time>2018-10-06T08:42:06.000Z</time>
      </trkpt>
      <trkpt lat="38.128985" lon="-4.91658333">
        <ele>481.0</ele>
        <time>2018-10-06T08:42:07.000Z</time>
      </trkpt>
      <trkpt lat="38.128985" lon="-4.91658333">
        <ele>481.0</ele>
        <time>2018-10-06T08:42:08.000Z</time>
      </trkpt>
      <trkpt lat="38.128985" lon="-4.91658333">
        <ele>481.0</ele>
        <time>2018-10-06T08:42:09.000Z</time>
      </trkpt>
      <trkpt lat="38.128985" lon="-4.91658333">
        <ele>481.0</ele>
        <time>2018-10-06T08:42:10.000Z</time>
      </trkpt>
      <trkpt lat="38.128985" lon="-4.91658333">
        <ele>481.0</ele>
        <time>2018-10-06T08:42:11.000Z</time>
      </trkpt>
      <trkpt lat="38.128985" lon="-4.91658333">
        <ele>481.0</ele>
        <time>2018-10-06T08:42:12.000Z</time>
      </trkpt>
      <trkpt lat="38.128985" lon="-4.91658333">
        <ele>481.0</ele>
        <time>2018-10-06T08:42:13.000Z</time>
      </trkpt>
      <trkpt lat="38.128985" lon="-4.91658333">
        <ele>481.0</ele>
        <time>2018-10-06T08:42:14.000Z</time>
      </trkpt>
      <trkpt lat="38.128985" lon="-4.91658333">
        <ele>481.0</ele>
        <time>2018-10-06T08:42:15.000Z</time>
      </trkpt>
      <trkpt lat="38.128985" lon="-4.91658333">
        <ele>481.0</ele>
        <time>2018-10-06T08:42:16.000Z</time>
      </trkpt>
      <trkpt lat="38.128985" lon="-4.91658333">
        <ele>481.0</ele>
        <time>2018-10-06T08:42:17.000Z</time>
      </trkpt>
      <trkpt lat="38.128985" lon="-4.91658333">
        <ele>481.0</ele>
        <time>2018-10-06T08:42:18.000Z</time>
      </trkpt>
      <trkpt lat="38.128985" lon="-4.91658333">
        <ele>481.0</ele>
        <time>2018-10-06T08:42:19.000Z</time>
      </trkpt>
      <trkpt lat="38.128985" lon="-4.91658333">
        <ele>481.0</ele>
        <time>2018-10-06T08:42:20.000Z</time>
      </trkpt>
      <trkpt lat="38.128985" lon="-4.91658333">
        <ele>481.0</ele>
        <time>2018-10-06T08:42:21.000Z</time>
      </trkpt>
      <trkpt lat="38.128985" lon="-4.91658333">
        <ele>481.0</ele>
        <time>2018-10-06T08:42:22.000Z</time>
      </trkpt>
      <trkpt lat="38.128985" lon="-4.91658333">
        <ele>481.0</ele>
        <time>2018-10-06T08:42:23.000Z</time>
      </trkpt>
      <trkpt lat="38.128985" lon="-4.91658333">
        <ele>481.0</ele>
        <time>2018-10-06T08:42:24.000Z</time>
      </trkpt>
      <trkpt lat="38.128985" lon="-4.91658333">
        <ele>481.0</ele>
        <time>2018-10-06T08:42:25.000Z</time>
      </trkpt>
      <trkpt lat="38.128985" lon="-4.91658333">
        <ele>481.0</ele>
        <time>2018-10-06T08:42:26.000Z</time>
      </trkpt>
      <trkpt lat="38.128985" lon="-4.91658333">
        <ele>481.0</ele>
        <time>2018-10-06T08:42:27.000Z</time>
      </trkpt>
      <trkpt lat="38.128985" lon="-4.91658333">
        <ele>481.0</ele>
        <time>2018-10-06T08:42:28.000Z</time>
      </trkpt>
      <trkpt lat="38.128985" lon="-4.91658333">
        <ele>481.0</ele>
        <time>2018-10-06T08:42:29.000Z</time>
      </trkpt>
      <trkpt lat="38.128985" lon="-4.91658333">
        <ele>481.0</ele>
        <time>2018-10-06T08:42:30.000Z</time>
      </trkpt>
      <trkpt lat="38.128985" lon="-4.91658333">
        <ele>481.0</ele>
        <time>2018-10-06T08:42:31.000Z</time>
      </trkpt>
      <trkpt lat="38.128985" lon="-4.91658333">
        <ele>481.0</ele>
        <time>2018-10-06T08:42:32.000Z</time>
      </trkpt>
      <trkpt lat="38.128985" lon="-4.91658333">
        <ele>481.0</ele>
        <time>2018-10-06T08:42:33.000Z</time>
      </trkpt>
      <trkpt lat="38.128985" lon="-4.91658333">
        <ele>481.0</ele>
        <time>2018-10-06T08:42:34.000Z</time>
      </trkpt>
      <trkpt lat="38.128985" lon="-4.91658333">
        <ele>481.0</ele>
        <time>2018-10-06T08:42:35.000Z</time>
      </trkpt>
      <trkpt lat="38.128985" lon="-4.91658333">
        <ele>481.0</ele>
        <time>2018-10-06T08:42:36.000Z</time>
      </trkpt>
      <trkpt lat="38.128985" lon="-4.91658333">
        <ele>481.0</ele>
        <time>2018-10-06T08:42:37.000Z</time>
      </trkpt>
      <trkpt lat="38.128985" lon="-4.91658333">
        <ele>481.0</ele>
        <time>2018-10-06T08:42:38.000Z</time>
      </trkpt>
      <trkpt lat="38.128985" lon="-4.91658333">
        <ele>481.0</ele>
        <time>2018-10-06T08:42:39.000Z</time>
      </trkpt>
      <trkpt lat="38.128985" lon="-4.91658333">
        <ele>481.0</ele>
        <time>2018-10-06T08:42:40.000Z</time>
      </trkpt>
      <trkpt lat="38.128985" lon="-4.91658333">
        <ele>481.0</ele>
        <time>2018-10-06T08:42:41.000Z</time>
      </trkpt>
      <trkpt lat="38.128985" lon="-4.91658333">
        <ele>481.0</ele>
        <time>2018-10-06T08:42:42.000Z</time>
      </trkpt>
      <trkpt lat="38.128985" lon="-4.91658333">
        <ele>481.0</ele>
        <time>2018-10-06T08:42:43.000Z</time>
      </trkpt>
      <trkpt lat="38.128985" lon="-4.91658333">
        <ele>481.0</ele>
        <time>2018-10-06T08:42:44.000Z</time>
      </trkpt>
      <trkpt lat="38.12928333" lon="-4.91606833">
        <ele>490.0</ele>
        <time>2018-10-06T08:42:45.000Z</time>
      </trkpt>
      <trkpt lat="38.12929" lon="-4.91606167">
        <ele>491.0</ele>
        <time>2018-10-06T08:42:46.000Z</time>
      </trkpt>
      <trkpt lat="38.129295" lon="-4.91605333">
        <ele>491.0</ele>
        <time>2018-10-06T08:42:47.000Z</time>
      </trkpt>
      <trkpt lat="38.12930667" lon="-4.916045">
        <ele>490.0</ele>
        <time>2018-10-06T08:42:48.000Z</time>
      </trkpt>
      <trkpt lat="38.12931667" lon="-4.916035">
        <ele>490.0</ele>
        <time>2018-10-06T08:42:49.000Z</time>
      </trkpt>
      <trkpt lat="38.12932667" lon="-4.91602667">
        <ele>489.0</ele>
        <time>2018-10-06T08:42:50.000Z</time>
      </trkpt>
      <trkpt lat="38.12933667" lon="-4.91601667">
        <ele>489.0</ele>
        <time>2018-10-06T08:42:51.000Z</time>
      </trkpt>
      <trkpt lat="38.12934833" lon="-4.91600667">
        <ele>489.0</ele>
        <time>2018-10-06T08:42:52.000Z</time>
      </trkpt>
      <trkpt lat="38.12936" lon="-4.91599833">
        <ele>489.0</ele>
        <time>2018-10-06T08:42:53.000Z</time>
      </trkpt>
      <trkpt lat="38.12937167" lon="-4.91599">
        <ele>488.0</ele>
        <time>2018-10-06T08:42:54.000Z</time>
      </trkpt>
      <trkpt lat="38.12938333" lon="-4.91598167">
        <ele>488.0</ele>
        <time>2018-10-06T08:42:55.000Z</time>
      </trkpt>
      <trkpt lat="38.12939333" lon="-4.915975">
        <ele>488.0</ele>
        <time>2018-10-06T08:42:56.000Z</time>
      </trkpt>
      <trkpt lat="38.12939333" lon="-4.915975">
        <ele>488.0</ele>
        <time>2018-10-06T08:42:57.000Z</time>
      </trkpt>
      <trkpt lat="38.12939333" lon="-4.915975">
        <ele>488.0</ele>
        <time>2018-10-06T08:42:58.000Z</time>
      </trkpt>
      <trkpt lat="38.12939333" lon="-4.915975">
        <ele>488.0</ele>
        <time>2018-10-06T08:42:59.000Z</time>
      </trkpt>
      <trkpt lat="38.12939333" lon="-4.915975">
        <ele>488.0</ele>
        <time>2018-10-06T08:43:00.000Z</time>
      </trkpt>
      <trkpt lat="38.12939333" lon="-4.915975">
        <ele>488.0</ele>
        <time>2018-10-06T08:43:01.000Z</time>
      </trkpt>
      <trkpt lat="38.12939333" lon="-4.915975">
        <ele>488.0</ele>
        <time>2018-10-06T08:43:02.000Z</time>
      </trkpt>
      <trkpt lat="38.12939333" lon="-4.915975">
        <ele>488.0</ele>
        <time>2018-10-06T08:43:03.000Z</time>
      </trkpt>
      <trkpt lat="38.12939333" lon="-4.915975">
        <ele>488.0</ele>
        <time>2018-10-06T08:43:04.000Z</time>
      </trkpt>
      <trkpt lat="38.12939333" lon="-4.915975">
        <ele>488.0</ele>
        <time>2018-10-06T08:43:05.000Z</time>
      </trkpt>
      <trkpt lat="38.12939333" lon="-4.915975">
        <ele>488.0</ele>
        <time>2018-10-06T08:43:06.000Z</time>
      </trkpt>
      <trkpt lat="38.12939333" lon="-4.915975">
        <ele>488.0</ele>
        <time>2018-10-06T08:43:07.000Z</time>
      </trkpt>
      <trkpt lat="38.12939333" lon="-4.915975">
        <ele>488.0</ele>
        <time>2018-10-06T08:43:08.000Z</time>
      </trkpt>
      <trkpt lat="38.12939333" lon="-4.915975">
        <ele>488.0</ele>
        <time>2018-10-06T08:43:09.000Z</time>
      </trkpt>
      <trkpt lat="38.12939333" lon="-4.915975">
        <ele>488.0</ele>
        <time>2018-10-06T08:43:10.000Z</time>
      </trkpt>
      <trkpt lat="38.12939333" lon="-4.915975">
        <ele>488.0</ele>
        <time>2018-10-06T08:43:11.000Z</time>
      </trkpt>
      <trkpt lat="38.12939333" lon="-4.915975">
        <ele>488.0</ele>
        <time>2018-10-06T08:43:12.000Z</time>
      </trkpt>
      <trkpt lat="38.12939333" lon="-4.915975">
        <ele>488.0</ele>
        <time>2018-10-06T08:43:13.000Z</time>
      </trkpt>
      <trkpt lat="38.12939333" lon="-4.915975">
        <ele>488.0</ele>
        <time>2018-10-06T08:43:14.000Z</time>
      </trkpt>
      <trkpt lat="38.12939333" lon="-4.915975">
        <ele>488.0</ele>
        <time>2018-10-06T08:43:15.000Z</time>
      </trkpt>
      <trkpt lat="38.12939333" lon="-4.915975">
        <ele>488.0</ele>
        <time>2018-10-06T08:43:16.000Z</time>
      </trkpt>
      <trkpt lat="38.12939333" lon="-4.915975">
        <ele>488.0</ele>
        <time>2018-10-06T08:43:17.000Z</time>
      </trkpt>
      <trkpt lat="38.12939333" lon="-4.915975">
        <ele>488.0</ele>
        <time>2018-10-06T08:43:18.000Z</time>
      </trkpt>
      <trkpt lat="38.12939333" lon="-4.915975">
        <ele>488.0</ele>
        <time>2018-10-06T08:43:19.000Z</time>
      </trkpt>
      <trkpt lat="38.12939333" lon="-4.915975">
        <ele>488.0</ele>
        <time>2018-10-06T08:43:20.000Z</time>
      </trkpt>
      <trkpt lat="38.12939333" lon="-4.915975">
        <ele>488.0</ele>
        <time>2018-10-06T08:43:21.000Z</time>
      </trkpt>
      <trkpt lat="38.12939333" lon="-4.915975">
        <ele>488.0</ele>
        <time>2018-10-06T08:43:22.000Z</time>
      </trkpt>
      <trkpt lat="38.12939333" lon="-4.915975">
        <ele>488.0</ele>
        <time>2018-10-06T08:43:23.000Z</time>
      </trkpt>
      <trkpt lat="38.12939333" lon="-4.915975">
        <ele>488.0</ele>
        <time>2018-10-06T08:43:24.000Z</time>
      </trkpt>
      <trkpt lat="38.12939333" lon="-4.915975">
        <ele>488.0</ele>
        <time>2018-10-06T08:43:25.000Z</time>
      </trkpt>
      <trkpt lat="38.12939333" lon="-4.915975">
        <ele>488.0</ele>
        <time>2018-10-06T08:43:26.000Z</time>
      </trkpt>
      <trkpt lat="38.12939333" lon="-4.915975">
        <ele>488.0</ele>
        <time>2018-10-06T08:43:27.000Z</time>
      </trkpt>
      <trkpt lat="38.12939333" lon="-4.915975">
        <ele>488.0</ele>
        <time>2018-10-06T08:43:28.000Z</time>
      </trkpt>
      <trkpt lat="38.12939333" lon="-4.915975">
        <ele>488.0</ele>
        <time>2018-10-06T08:43:29.000Z</time>
      </trkpt>
      <trkpt lat="38.12939333" lon="-4.915975">
        <ele>488.0</ele>
        <time>2018-10-06T08:43:30.000Z</time>
      </trkpt>
      <trkpt lat="38.12939333" lon="-4.915975">
        <ele>488.0</ele>
        <time>2018-10-06T08:43:31.000Z</time>
      </trkpt>
      <trkpt lat="38.12939333" lon="-4.915975">
        <ele>488.0</ele>
        <time>2018-10-06T08:43:32.000Z</time>
      </trkpt>
      <trkpt lat="38.12939333" lon="-4.915975">
        <ele>488.0</ele>
        <time>2018-10-06T08:43:33.000Z</time>
      </trkpt>
      <trkpt lat="38.12939333" lon="-4.915975">
        <ele>488.0</ele>
        <time>2018-10-06T08:43:34.000Z</time>
      </trkpt>
      <trkpt lat="38.12939333" lon="-4.915975">
        <ele>488.0</ele>
        <time>2018-10-06T08:43:35.000Z</time>
      </trkpt>
      <trkpt lat="38.12939333" lon="-4.915975">
        <ele>488.0</ele>
        <time>2018-10-06T08:43:36.000Z</time>
      </trkpt>
      <trkpt lat="38.12939333" lon="-4.915975">
        <ele>488.0</ele>
        <time>2018-10-06T08:43:37.000Z</time>
      </trkpt>
      <trkpt lat="38.12939333" lon="-4.915975">
        <ele>488.0</ele>
        <time>2018-10-06T08:43:38.000Z</time>
      </trkpt>
      <trkpt lat="38.12939333" lon="-4.915975">
        <ele>488.0</ele>
        <time>2018-10-06T08:43:39.000Z</time>
      </trkpt>
      <trkpt lat="38.12939333" lon="-4.915975">
        <ele>488.0</ele>
        <time>2018-10-06T08:43:40.000Z</time>
      </trkpt>
      <trkpt lat="38.12939333" lon="-4.915975">
        <ele>488.0</ele>
        <time>2018-10-06T08:43:41.000Z</time>
      </trkpt>
      <trkpt lat="38.12939333" lon="-4.915975">
        <ele>488.0</ele>
        <time>2018-10-06T08:43:42.000Z</time>
      </trkpt>
      <trkpt lat="38.12939333" lon="-4.915975">
        <ele>488.0</ele>
        <time>2018-10-06T08:43:43.000Z</time>
      </trkpt>
      <trkpt lat="38.12939333" lon="-4.915975">
        <ele>488.0</ele>
        <time>2018-10-06T08:43:44.000Z</time>
      </trkpt>
      <trkpt lat="38.12958" lon="-4.91571667">
        <ele>493.0</ele>
        <time>2018-10-06T08:43:45.000Z</time>
      </trkpt>
      <trkpt lat="38.12960167" lon="-4.91571167">
        <ele>493.0</ele>
        <time>2018-10-06T08:43:46.000Z</time>
      </trkpt>
      <trkpt lat="38.12962833" lon="-4.91570333">
        <ele>492.0</ele>
        <time>2018-10-06T08:43:47.000Z</time>
      </trkpt>
      <trkpt lat="38.12965167" lon="-4.91569">
        <ele>492.0</ele>
        <time>2018-10-06T08:43:48.000Z</time>
      </trkpt>
      <trkpt lat="38.12967333" lon="-4.91568">
        <ele>492.0</ele>
        <time>2018-10-06T08:43:49.000Z</time>
      </trkpt>
      <trkpt lat="38.12969167" lon="-4.91567167">
        <ele>492.0</ele>
        <time>2018-10-06T08:43:50.000Z</time>
      </trkpt>
      <trkpt lat="38.12970833" lon="-4.91566167">
        <ele>491.0</ele>
        <time>2018-10-06T08:43:51.000Z</time>
      </trkpt>
      <trkpt lat="38.12972333" lon="-4.91565">
        <ele>491.0</ele>
        <time>2018-10-06T08:43:52.000Z</time>
      </trkpt>
      <trkpt lat="38.12974" lon="-4.91563833">
        <ele>491.0</ele>
        <time>2018-10-06T08:43:53.000Z</time>
      </trkpt>
      <trkpt lat="38.129755" lon="-4.91562667">
        <ele>490.0</ele>
        <time>2018-10-06T08:43:54.000Z</time>
      </trkpt>
      <trkpt lat="38.12977" lon="-4.91561333">
        <ele>490.0</ele>
        <time>2018-10-06T08:43:55.000Z</time>
      </trkpt>
      <trkpt lat="38.12978333" lon="-4.91560167">
        <ele>490.0</ele>
        <time>2018-10-06T08:43:56.000Z</time>
      </trkpt>
      <trkpt lat="38.12978333" lon="-4.91560167">
        <ele>490.0</ele>
        <time>2018-10-06T08:43:57.000Z</time>
      </trkpt>
      <trkpt lat="38.12978333" lon="-4.91560167">
        <ele>490.0</ele>
        <time>2018-10-06T08:43:58.000Z</time>
      </trkpt>
      <trkpt lat="38.12978333" lon="-4.91560167">
        <ele>490.0</ele>
        <time>2018-10-06T08:43:59.000Z</time>
      </trkpt>
      <trkpt lat="38.12978333" lon="-4.91560167">
        <ele>490.0</ele>
        <time>2018-10-06T08:44:00.000Z</time>
      </trkpt>
      <trkpt lat="38.12978333" lon="-4.91560167">
        <ele>490.0</ele>
        <time>2018-10-06T08:44:01.000Z</time>
      </trkpt>
      <trkpt lat="38.12978333" lon="-4.91560167">
        <ele>490.0</ele>
        <time>2018-10-06T08:44:02.000Z</time>
      </trkpt>
      <trkpt lat="38.12978333" lon="-4.91560167">
        <ele>490.0</ele>
        <time>2018-10-06T08:44:03.000Z</time>
      </trkpt>
      <trkpt lat="38.12978333" lon="-4.91560167">
        <ele>490.0</ele>
        <time>2018-10-06T08:44:04.000Z</time>
      </trkpt>
      <trkpt lat="38.12978333" lon="-4.91560167">
        <ele>490.0</ele>
        <time>2018-10-06T08:44:05.000Z</time>
      </trkpt>
      <trkpt lat="38.12978333" lon="-4.91560167">
        <ele>490.0</ele>
        <time>2018-10-06T08:44:06.000Z</time>
      </trkpt>
      <trkpt lat="38.12978333" lon="-4.91560167">
        <ele>490.0</ele>
        <time>2018-10-06T08:44:07.000Z</time>
      </trkpt>
      <trkpt lat="38.12978333" lon="-4.91560167">
        <ele>490.0</ele>
        <time>2018-10-06T08:44:08.000Z</time>
      </trkpt>
      <trkpt lat="38.12978333" lon="-4.91560167">
        <ele>490.0</ele>
        <time>2018-10-06T08:44:09.000Z</time>
      </trkpt>
      <trkpt lat="38.12978333" lon="-4.91560167">
        <ele>490.0</ele>
        <time>2018-10-06T08:44:10.000Z</time>
      </trkpt>
      <trkpt lat="38.12978333" lon="-4.91560167">
        <ele>490.0</ele>
        <time>2018-10-06T08:44:11.000Z</time>
      </trkpt>
      <trkpt lat="38.12978333" lon="-4.91560167">
        <ele>490.0</ele>
        <time>2018-10-06T08:44:12.000Z</time>
      </trkpt>
      <trkpt lat="38.12978333" lon="-4.91560167">
        <ele>490.0</ele>
        <time>2018-10-06T08:44:13.000Z</time>
      </trkpt>
      <trkpt lat="38.12978333" lon="-4.91560167">
        <ele>490.0</ele>
        <time>2018-10-06T08:44:14.000Z</time>
      </trkpt>
      <trkpt lat="38.12978333" lon="-4.91560167">
        <ele>490.0</ele>
        <time>2018-10-06T08:44:15.000Z</time>
      </trkpt>
      <trkpt lat="38.12978333" lon="-4.91560167">
        <ele>490.0</ele>
        <time>2018-10-06T08:44:16.000Z</time>
      </trkpt>
      <trkpt lat="38.12978333" lon="-4.91560167">
        <ele>490.0</ele>
        <time>2018-10-06T08:44:17.000Z</time>
      </trkpt>
      <trkpt lat="38.12978333" lon="-4.91560167">
        <ele>490.0</ele>
        <time>2018-10-06T08:44:18.000Z</time>
      </trkpt>
      <trkpt lat="38.12978333" lon="-4.91560167">
        <ele>490.0</ele>
        <time>2018-10-06T08:44:19.000Z</time>
      </trkpt>
      <trkpt lat="38.12978333" lon="-4.91560167">
        <ele>490.0</ele>
        <time>2018-10-06T08:44:20.000Z</time>
      </trkpt>
      <trkpt lat="38.12978333" lon="-4.91560167">
        <ele>490.0</ele>
        <time>2018-10-06T08:44:21.000Z</time>
      </trkpt>
      <trkpt lat="38.12978333" lon="-4.91560167">
        <ele>490.0</ele>
        <time>2018-10-06T08:44:22.000Z</time>
      </trkpt>
      <trkpt lat="38.12978333" lon="-4.91560167">
        <ele>490.0</ele>
        <time>2018-10-06T08:44:23.000Z</time>
      </trkpt>
      <trkpt lat="38.12978333" lon="-4.91560167">
        <ele>490.0</ele>
        <time>2018-10-06T08:44:24.000Z</time>
      </trkpt>
      <trkpt lat="38.12978333" lon="-4.91560167">
        <ele>490.0</ele>
        <time>2018-10-06T08:44:25.000Z</time>
      </trkpt>
      <trkpt lat="38.12978333" lon="-4.91560167">
        <ele>490.0</ele>
        <time>2018-10-06T08:44:26.000Z</time>
      </trkpt>
      <trkpt lat="38.12978333" lon="-4.91560167">
        <ele>490.0</ele>
        <time>2018-10-06T08:44:27.000Z</time>
      </trkpt>
      <trkpt lat="38.12978333" lon="-4.91560167">
        <ele>490.0</ele>
        <time>2018-10-06T08:44:28.000Z</time>
      </trkpt>
      <trkpt lat="38.12978333" lon="-4.91560167">
        <ele>490.0</ele>
        <time>2018-10-06T08:44:29.000Z</time>
      </trkpt>
      <trkpt lat="38.12978333" lon="-4.91560167">
        <ele>490.0</ele>
        <time>2018-10-06T08:44:30.000Z</time>
      </trkpt>
      <trkpt lat="38.12978333" lon="-4.91560167">
        <ele>490.0</ele>
        <time>2018-10-06T08:44:31.000Z</time>
      </trkpt>
      <trkpt lat="38.12978333" lon="-4.91560167">
        <ele>490.0</ele>
        <time>2018-10-06T08:44:32.000Z</time>
      </trkpt>
      <trkpt lat="38.12978333" lon="-4.91560167">
        <ele>490.0</ele>
        <time>2018-10-06T08:44:33.000Z</time>
      </trkpt>
      <trkpt lat="38.12978333" lon="-4.91560167">
        <ele>490.0</ele>
        <time>2018-10-06T08:44:34.000Z</time>
      </trkpt>
      <trkpt lat="38.12978333" lon="-4.91560167">
        <ele>490.0</ele>
        <time>2018-10-06T08:44:35.000Z</time>
      </trkpt>
      <trkpt lat="38.12978333" lon="-4.91560167">
        <ele>490.0</ele>
        <time>2018-10-06T08:44:36.000Z</time>
      </trkpt>
      <trkpt lat="38.12978333" lon="-4.91560167">
        <ele>490.0</ele>
        <time>2018-10-06T08:44:37.000Z</time>
      </trkpt>
      <trkpt lat="38.12978333" lon="-4.91560167">
        <ele>490.0</ele>
        <time>2018-10-06T08:44:38.000Z</time>
      </trkpt>
      <trkpt lat="38.12978333" lon="-4.91560167">
        <ele>490.0</ele>
        <time>2018-10-06T08:44:39.000Z</time>
      </trkpt>
      <trkpt lat="38.12978333" lon="-4.91560167">
        <ele>490.0</ele>
        <time>2018-10-06T08:44:40.000Z</time>
      </trkpt>
      <trkpt lat="38.12978333" lon="-4.91560167">
        <ele>490.0</ele>
        <time>2018-10-06T08:44:41.000Z</time>
      </trkpt>
      <trkpt lat="38.12978333" lon="-4.91560167">
        <ele>490.0</ele>
        <time>2018-10-06T08:44:42.000Z</time>
      </trkpt>
      <trkpt lat="38.12978333" lon="-4.91560167">
        <ele>490.0</ele>
        <time>2018-10-06T08:44:43.000Z</time>
      </trkpt>
      <trkpt lat="38.12978333" lon="-4.91560167">
        <ele>490.0</ele>
        <time>2018-10-06T08:44:44.000Z</time>
      </trkpt>
      <trkpt lat="38.12989167" lon="-4.91514167">
        <ele>489.0</ele>
        <time>2018-10-06T08:44:45.000Z</time>
      </trkpt>
      <trkpt lat="38.12989167" lon="-4.91514167">
        <ele>489.0</ele>
        <time>2018-10-06T08:44:46.000Z</time>
      </trkpt>
      <trkpt lat="38.12991" lon="-4.91512">
        <ele>490.0</ele>
        <time>2018-10-06T08:44:47.000Z</time>
      </trkpt>
      <trkpt lat="38.12992" lon="-4.91510333">
        <ele>489.0</ele>
        <time>2018-10-06T08:44:48.000Z</time>
      </trkpt>
      <trkpt lat="38.12992833" lon="-4.91508833">
        <ele>489.0</ele>
        <time>2018-10-06T08:44:49.000Z</time>
      </trkpt>
      <trkpt lat="38.129935" lon="-4.91507167">
        <ele>489.0</ele>
        <time>2018-10-06T08:44:50.000Z</time>
      </trkpt>
      <trkpt lat="38.12994167" lon="-4.91505667">
        <ele>489.0</ele>
        <time>2018-10-06T08:44:51.000Z</time>
      </trkpt>
      <trkpt lat="38.12994833" lon="-4.91504333">
        <ele>489.0</ele>
        <time>2018-10-06T08:44:52.000Z</time>
      </trkpt>
      <trkpt lat="38.12995333" lon="-4.91502833">
        <ele>489.0</ele>
        <time>2018-10-06T08:44:53.000Z</time>
      </trkpt>
      <trkpt lat="38.12996" lon="-4.915015">
        <ele>489.0</ele>
        <time>2018-10-06T08:44:54.000Z</time>
      </trkpt>
      <trkpt lat="38.12996333" lon="-4.915">
        <ele>489.0</ele>
        <time>2018-10-06T08:44:55.000Z</time>
      </trkpt>
      <trkpt lat="38.12996833" lon="-4.914985">
        <ele>489.0</ele>
        <time>2018-10-06T08:44:56.000Z</time>
      </trkpt>
      <trkpt lat="38.12997333" lon="-4.91497167">
        <ele>489.0</ele>
        <time>2018-10-06T08:44:57.000Z</time>
      </trkpt>
      <trkpt lat="38.12997333" lon="-4.91497167">
        <ele>489.0</ele>
        <time>2018-10-06T08:44:58.000Z</time>
      </trkpt>
      <trkpt lat="38.12997333" lon="-4.91497167">
        <ele>489.0</ele>
        <time>2018-10-06T08:44:59.000Z</time>
      </trkpt>
      <trkpt lat="38.12997333" lon="-4.91497167">
        <ele>489.0</ele>
        <time>2018-10-06T08:45:00.000Z</time>
      </trkpt>
      <trkpt lat="38.12997333" lon="-4.91497167">
        <ele>489.0</ele>
        <time>2018-10-06T08:45:01.000Z</time>
      </trkpt>
      <trkpt lat="38.12997333" lon="-4.91497167">
        <ele>489.0</ele>
        <time>2018-10-06T08:45:02.000Z</time>
      </trkpt>
      <trkpt lat="38.12997333" lon="-4.91497167">
        <ele>489.0</ele>
        <time>2018-10-06T08:45:03.000Z</time>
      </trkpt>
      <trkpt lat="38.12997333" lon="-4.91497167">
        <ele>489.0</ele>
        <time>2018-10-06T08:45:04.000Z</time>
      </trkpt>
      <trkpt lat="38.12997333" lon="-4.91497167">
        <ele>489.0</ele>
        <time>2018-10-06T08:45:05.000Z</time>
      </trkpt>
      <trkpt lat="38.12997333" lon="-4.91497167">
        <ele>489.0</ele>
        <time>2018-10-06T08:45:06.000Z</time>
      </trkpt>
      <trkpt lat="38.12997333" lon="-4.91497167">
        <ele>489.0</ele>
        <time>2018-10-06T08:45:07.000Z</time>
      </trkpt>
      <trkpt lat="38.12997333" lon="-4.91497167">
        <ele>489.0</ele>
        <time>2018-10-06T08:45:08.000Z</time>
      </trkpt>
      <trkpt lat="38.12997333" lon="-4.91497167">
        <ele>489.0</ele>
        <time>2018-10-06T08:45:09.000Z</time>
      </trkpt>
      <trkpt lat="38.12997333" lon="-4.91497167">
        <ele>489.0</ele>
        <time>2018-10-06T08:45:10.000Z</time>
      </trkpt>
      <trkpt lat="38.12997333" lon="-4.91497167">
        <ele>489.0</ele>
        <time>2018-10-06T08:45:11.000Z</time>
      </trkpt>
      <trkpt lat="38.12997333" lon="-4.91497167">
        <ele>489.0</ele>
        <time>2018-10-06T08:45:12.000Z</time>
      </trkpt>
      <trkpt lat="38.12997333" lon="-4.91497167">
        <ele>489.0</ele>
        <time>2018-10-06T08:45:13.000Z</time>
      </trkpt>
      <trkpt lat="38.12997333" lon="-4.91497167">
        <ele>489.0</ele>
        <time>2018-10-06T08:45:14.000Z</time>
      </trkpt>
      <trkpt lat="38.12997333" lon="-4.91497167">
        <ele>489.0</ele>
        <time>2018-10-06T08:45:15.000Z</time>
      </trkpt>
      <trkpt lat="38.12997333" lon="-4.91497167">
        <ele>489.0</ele>
        <time>2018-10-06T08:45:16.000Z</time>
      </trkpt>
      <trkpt lat="38.12997333" lon="-4.91497167">
        <ele>489.0</ele>
        <time>2018-10-06T08:45:17.000Z</time>
      </trkpt>
      <trkpt lat="38.12997333" lon="-4.91497167">
        <ele>489.0</ele>
        <time>2018-10-06T08:45:18.000Z</time>
      </trkpt>
      <trkpt lat="38.12997333" lon="-4.91497167">
        <ele>489.0</ele>
        <time>2018-10-06T08:45:19.000Z</time>
      </trkpt>
      <trkpt lat="38.12997333" lon="-4.91497167">
        <ele>489.0</ele>
        <time>2018-10-06T08:45:20.000Z</time>
      </trkpt>
      <trkpt lat="38.12997333" lon="-4.91497167">
        <ele>489.0</ele>
        <time>2018-10-06T08:45:21.000Z</time>
      </trkpt>
      <trkpt lat="38.12997333" lon="-4.91497167">
        <ele>489.0</ele>
        <time>2018-10-06T08:45:22.000Z</time>
      </trkpt>
      <trkpt lat="38.12997333" lon="-4.91497167">
        <ele>489.0</ele>
        <time>2018-10-06T08:45:23.000Z</time>
      </trkpt>
      <trkpt lat="38.12997333" lon="-4.91497167">
        <ele>489.0</ele>
        <time>2018-10-06T08:45:24.000Z</time>
      </trkpt>
      <trkpt lat="38.12997333" lon="-4.91497167">
        <ele>489.0</ele>
        <time>2018-10-06T08:45:25.000Z</time>
      </trkpt>
      <trkpt lat="38.12997333" lon="-4.91497167">
        <ele>489.0</ele>
        <time>2018-10-06T08:45:26.000Z</time>
      </trkpt>
      <trkpt lat="38.12997333" lon="-4.91497167">
        <ele>489.0</ele>
        <time>2018-10-06T08:45:27.000Z</time>
      </trkpt>
      <trkpt lat="38.12997333" lon="-4.91497167">
        <ele>489.0</ele>
        <time>2018-10-06T08:45:28.000Z</time>
      </trkpt>
      <trkpt lat="38.12997333" lon="-4.91497167">
        <ele>489.0</ele>
        <time>2018-10-06T08:45:29.000Z</time>
      </trkpt>
      <trkpt lat="38.12997333" lon="-4.91497167">
        <ele>489.0</ele>
        <time>2018-10-06T08:45:30.000Z</time>
      </trkpt>
      <trkpt lat="38.12997333" lon="-4.91497167">
        <ele>489.0</ele>
        <time>2018-10-06T08:45:31.000Z</time>
      </trkpt>
      <trkpt lat="38.12997333" lon="-4.91497167">
        <ele>489.0</ele>
        <time>2018-10-06T08:45:32.000Z</time>
      </trkpt>
      <trkpt lat="38.12997333" lon="-4.91497167">
        <ele>489.0</ele>
        <time>2018-10-06T08:45:33.000Z</time>
      </trkpt>
      <trkpt lat="38.12997333" lon="-4.91497167">
        <ele>489.0</ele>
        <time>2018-10-06T08:45:34.000Z</time>
      </trkpt>
      <trkpt lat="38.12997333" lon="-4.91497167">
        <ele>489.0</ele>
        <time>2018-10-06T08:45:35.000Z</time>
      </trkpt>
      <trkpt lat="38.12997333" lon="-4.91497167">
        <ele>489.0</ele>
        <time>2018-10-06T08:45:36.000Z</time>
      </trkpt>
      <trkpt lat="38.12997333" lon="-4.91497167">
        <ele>489.0</ele>
        <time>2018-10-06T08:45:37.000Z</time>
      </trkpt>
      <trkpt lat="38.12997333" lon="-4.91497167">
        <ele>489.0</ele>
        <time>2018-10-06T08:45:38.000Z</time>
      </trkpt>
      <trkpt lat="38.12997333" lon="-4.91497167">
        <ele>489.0</ele>
        <time>2018-10-06T08:45:39.000Z</time>
      </trkpt>
      <trkpt lat="38.12997333" lon="-4.91497167">
        <ele>489.0</ele>
        <time>2018-10-06T08:45:40.000Z</time>
      </trkpt>
      <trkpt lat="38.12997333" lon="-4.91497167">
        <ele>489.0</ele>
        <time>2018-10-06T08:45:41.000Z</time>
      </trkpt>
      <trkpt lat="38.12997333" lon="-4.91497167">
        <ele>489.0</ele>
        <time>2018-10-06T08:45:42.000Z</time>
      </trkpt>
      <trkpt lat="38.12997333" lon="-4.91497167">
        <ele>489.0</ele>
        <time>2018-10-06T08:45:43.000Z</time>
      </trkpt>
      <trkpt lat="38.12997333" lon="-4.91497167">
        <ele>489.0</ele>
        <time>2018-10-06T08:45:44.000Z</time>
      </trkpt>
      <trkpt lat="38.12997333" lon="-4.91497167">
        <ele>489.0</ele>
        <time>2018-10-06T08:45:45.000Z</time>
      </trkpt>
      <trkpt lat="38.13008333" lon="-4.91439667">
        <ele>496.0</ele>
        <time>2018-10-06T08:45:46.000Z</time>
      </trkpt>
      <trkpt lat="38.13009" lon="-4.91436833">
        <ele>495.0</ele>
        <time>2018-10-06T08:45:47.000Z</time>
      </trkpt>
      <trkpt lat="38.13008833" lon="-4.91434833">
        <ele>495.0</ele>
        <time>2018-10-06T08:45:48.000Z</time>
      </trkpt>
      <trkpt lat="38.13008667" lon="-4.91433">
        <ele>494.0</ele>
        <time>2018-10-06T08:45:49.000Z</time>
      </trkpt>
      <trkpt lat="38.13008333" lon="-4.91431333">
        <ele>493.0</ele>
        <time>2018-10-06T08:45:50.000Z</time>
      </trkpt>
      <trkpt lat="38.13008167" lon="-4.914295">
        <ele>493.0</ele>
        <time>2018-10-06T08:45:51.000Z</time>
      </trkpt>
      <trkpt lat="38.13007833" lon="-4.91427667">
        <ele>492.0</ele>
        <time>2018-10-06T08:45:52.000Z</time>
      </trkpt>
      <trkpt lat="38.130075" lon="-4.91425833">
        <ele>491.0</ele>
        <time>2018-10-06T08:45:53.000Z</time>
      </trkpt>
      <trkpt lat="38.13007333" lon="-4.91424167">
        <ele>491.0</ele>
        <time>2018-10-06T08:45:54.000Z</time>
      </trkpt>
      <trkpt lat="38.13007333" lon="-4.91422167">
        <ele>490.0</ele>
        <time>2018-10-06T08:45:55.000Z</time>
      </trkpt>
      <trkpt lat="38.13007167" lon="-4.91420333">
        <ele>490.0</ele>
        <time>2018-10-06T08:45:56.000Z</time>
      </trkpt>
      <trkpt lat="38.13007167" lon="-4.914185">
        <ele>489.0</ele>
        <time>2018-10-06T08:45:57.000Z</time>
      </trkpt>
      <trkpt lat="38.13007" lon="-4.91416833">
        <ele>489.0</ele>
        <time>2018-10-06T08:45:58.000Z</time>
      </trkpt>
      <trkpt lat="38.13006833" lon="-4.91415167">
        <ele>488.0</ele>
        <time>2018-10-06T08:45:59.000Z</time>
      </trkpt>
      <trkpt lat="38.13006667" lon="-4.91413333">
        <ele>488.0</ele>
        <time>2018-10-06T08:46:00.000Z</time>
      </trkpt>
      <trkpt lat="38.130065" lon="-4.91411833">
        <ele>487.0</ele>
        <time>2018-10-06T08:46:01.000Z</time>
      </trkpt>
      <trkpt lat="38.130065" lon="-4.91410167">
        <ele>487.0</ele>
        <time>2018-10-06T08:46:02.000Z</time>
      </trkpt>
      <trkpt lat="38.13006333" lon="-4.91408667">
        <ele>487.0</ele>
        <time>2018-10-06T08:46:03.000Z</time>
      </trkpt>
      <trkpt lat="38.13006167" lon="-4.91407">
        <ele>486.0</ele>
        <time>2018-10-06T08:46:04.000Z</time>
      </trkpt>
      <trkpt lat="38.13006167" lon="-4.91405333">
        <ele>486.0</ele>
        <time>2018-10-06T08:46:05.000Z</time>
      </trkpt>
      <trkpt lat="38.13006" lon="-4.91403667">
        <ele>486.0</ele>
        <time>2018-10-06T08:46:06.000Z</time>
      </trkpt>
      <trkpt lat="38.13006" lon="-4.91402">
        <ele>485.0</ele>
        <time>2018-10-06T08:46:07.000Z</time>
      </trkpt>
      <trkpt lat="38.13005833" lon="-4.914005">
        <ele>485.0</ele>
        <time>2018-10-06T08:46:08.000Z</time>
      </trkpt>
      <trkpt lat="38.13006" lon="-4.91399">
        <ele>485.0</ele>
        <time>2018-10-06T08:46:09.000Z</time>
      </trkpt>
      <trkpt lat="38.13006" lon="-4.913975">
        <ele>485.0</ele>
        <time>2018-10-06T08:46:10.000Z</time>
      </trkpt>
      <trkpt lat="38.13006" lon="-4.91395833">
        <ele>485.0</ele>
        <time>2018-10-06T08:46:11.000Z</time>
      </trkpt>
      <trkpt lat="38.13006" lon="-4.91394333">
        <ele>484.0</ele>
        <time>2018-10-06T08:46:12.000Z</time>
      </trkpt>
      <trkpt lat="38.13006" lon="-4.91392833">
        <ele>484.0</ele>
        <time>2018-10-06T08:46:13.000Z</time>
      </trkpt>
      <trkpt lat="38.13006" lon="-4.91391333">
        <ele>484.0</ele>
        <time>2018-10-06T08:46:14.000Z</time>
      </trkpt>
      <trkpt lat="38.13006" lon="-4.91389667">
        <ele>484.0</ele>
        <time>2018-10-06T08:46:15.000Z</time>
      </trkpt>
      <trkpt lat="38.13005833" lon="-4.91388">
        <ele>484.0</ele>
        <time>2018-10-06T08:46:16.000Z</time>
      </trkpt>
      <trkpt lat="38.13005833" lon="-4.913865">
        <ele>484.0</ele>
        <time>2018-10-06T08:46:17.000Z</time>
      </trkpt>
      <trkpt lat="38.13006" lon="-4.91385167">
        <ele>484.0</ele>
        <time>2018-10-06T08:46:18.000Z</time>
      </trkpt>
      <trkpt lat="38.13006" lon="-4.91383833">
        <ele>484.0</ele>
        <time>2018-10-06T08:46:19.000Z</time>
      </trkpt>
      <trkpt lat="38.13006" lon="-4.913825">
        <ele>484.0</ele>
        <time>2018-10-06T08:46:20.000Z</time>
      </trkpt>
      <trkpt lat="38.13006" lon="-4.91381167">
        <ele>483.0</ele>
        <time>2018-10-06T08:46:21.000Z</time>
      </trkpt>
      <trkpt lat="38.13006" lon="-4.91379667">
        <ele>483.0</ele>
        <time>2018-10-06T08:46:22.000Z</time>
      </trkpt>
      <trkpt lat="38.13006" lon="-4.91378167">
        <ele>483.0</ele>
        <time>2018-10-06T08:46:23.000Z</time>
      </trkpt>
      <trkpt lat="38.13006" lon="-4.913765">
        <ele>483.0</ele>
        <time>2018-10-06T08:46:24.000Z</time>
      </trkpt>
      <trkpt lat="38.13006" lon="-4.91375">
        <ele>483.0</ele>
        <time>2018-10-06T08:46:25.000Z</time>
      </trkpt>
      <trkpt lat="38.13006167" lon="-4.913735">
        <ele>483.0</ele>
        <time>2018-10-06T08:46:26.000Z</time>
      </trkpt>
      <trkpt lat="38.13006167" lon="-4.91372167">
        <ele>483.0</ele>
        <time>2018-10-06T08:46:27.000Z</time>
      </trkpt>
      <trkpt lat="38.13006" lon="-4.91370833">
        <ele>483.0</ele>
        <time>2018-10-06T08:46:28.000Z</time>
      </trkpt>
      <trkpt lat="38.13006" lon="-4.913695">
        <ele>483.0</ele>
        <time>2018-10-06T08:46:29.000Z</time>
      </trkpt>
      <trkpt lat="38.13006" lon="-4.91368">
        <ele>483.0</ele>
        <time>2018-10-06T08:46:30.000Z</time>
      </trkpt>
      <trkpt lat="38.13006" lon="-4.913665">
        <ele>483.0</ele>
        <time>2018-10-06T08:46:31.000Z</time>
      </trkpt>
      <trkpt lat="38.13006" lon="-4.91365">
        <ele>483.0</ele>
        <time>2018-10-06T08:46:32.000Z</time>
      </trkpt>
      <trkpt lat="38.13006" lon="-4.91363667">
        <ele>483.0</ele>
        <time>2018-10-06T08:46:33.000Z</time>
      </trkpt>
      <trkpt lat="38.13006" lon="-4.91362333">
        <ele>483.0</ele>
        <time>2018-10-06T08:46:34.000Z</time>
      </trkpt>
      <trkpt lat="38.13005833" lon="-4.91360833">
        <ele>483.0</ele>
        <time>2018-10-06T08:46:35.000Z</time>
      </trkpt>
      <trkpt lat="38.13005833" lon="-4.913595">
        <ele>483.0</ele>
        <time>2018-10-06T08:46:36.000Z</time>
      </trkpt>
      <trkpt lat="38.13005833" lon="-4.91358">
        <ele>483.0</ele>
        <time>2018-10-06T08:46:37.000Z</time>
      </trkpt>
      <trkpt lat="38.13005667" lon="-4.91356333">
        <ele>483.0</ele>
        <time>2018-10-06T08:46:38.000Z</time>
      </trkpt>
      <trkpt lat="38.13005667" lon="-4.91354833">
        <ele>483.0</ele>
        <time>2018-10-06T08:46:39.000Z</time>
      </trkpt>
      <trkpt lat="38.13005667" lon="-4.91353333">
        <ele>483.0</ele>
        <time>2018-10-06T08:46:40.000Z</time>
      </trkpt>
      <trkpt lat="38.13005667" lon="-4.91351833">
        <ele>483.0</ele>
        <time>2018-10-06T08:46:41.000Z</time>
      </trkpt>
      <trkpt lat="38.13005667" lon="-4.91350333">
        <ele>483.0</ele>
        <time>2018-10-06T08:46:42.000Z</time>
      </trkpt>
      <trkpt lat="38.130055" lon="-4.91349">
        <ele>483.0</ele>
        <time>2018-10-06T08:46:43.000Z</time>
      </trkpt>
      <trkpt lat="38.130055" lon="-4.913475">
        <ele>483.0</ele>
        <time>2018-10-06T08:46:44.000Z</time>
      </trkpt>
      <trkpt lat="38.130055" lon="-4.91346">
        <ele>483.0</ele>
        <time>2018-10-06T08:46:45.000Z</time>
      </trkpt>
      <trkpt lat="38.13005333" lon="-4.91344667">
        <ele>483.0</ele>
        <time>2018-10-06T08:46:46.000Z</time>
      </trkpt>
      <trkpt lat="38.13005333" lon="-4.91343">
        <ele>483.0</ele>
        <time>2018-10-06T08:46:47.000Z</time>
      </trkpt>
      <trkpt lat="38.13005167" lon="-4.913415">
        <ele>484.0</ele>
        <time>2018-10-06T08:46:48.000Z</time>
      </trkpt>
      <trkpt lat="38.13005" lon="-4.9134">
        <ele>484.0</ele>
        <time>2018-10-06T08:46:49.000Z</time>
      </trkpt>
      <trkpt lat="38.13005" lon="-4.91338667">
        <ele>484.0</ele>
        <time>2018-10-06T08:46:50.000Z</time>
      </trkpt>
      <trkpt lat="38.13004833" lon="-4.91337333">
        <ele>484.0</ele>
        <time>2018-10-06T08:46:51.000Z</time>
      </trkpt>
      <trkpt lat="38.13004833" lon="-4.91337333">
        <ele>484.0</ele>
        <time>2018-10-06T08:46:52.000Z</time>
      </trkpt>
      <trkpt lat="38.13004833" lon="-4.91337333">
        <ele>484.0</ele>
        <time>2018-10-06T08:46:53.000Z</time>
      </trkpt>
      <trkpt lat="38.13004833" lon="-4.91337333">
        <ele>484.0</ele>
        <time>2018-10-06T08:46:54.000Z</time>
      </trkpt>
      <trkpt lat="38.13004833" lon="-4.91337333">
        <ele>484.0</ele>
        <time>2018-10-06T08:46:55.000Z</time>
      </trkpt>
      <trkpt lat="38.13004833" lon="-4.91337333">
        <ele>484.0</ele>
        <time>2018-10-06T08:46:56.000Z</time>
      </trkpt>
      <trkpt lat="38.13004833" lon="-4.91337333">
        <ele>484.0</ele>
        <time>2018-10-06T08:46:57.000Z</time>
      </trkpt>
      <trkpt lat="38.13004833" lon="-4.91337333">
        <ele>484.0</ele>
        <time>2018-10-06T08:46:58.000Z</time>
      </trkpt>
      <trkpt lat="38.13004833" lon="-4.91337333">
        <ele>484.0</ele>
        <time>2018-10-06T08:46:59.000Z</time>
      </trkpt>
      <trkpt lat="38.13004833" lon="-4.91337333">
        <ele>484.0</ele>
        <time>2018-10-06T08:47:00.000Z</time>
      </trkpt>
      <trkpt lat="38.13004833" lon="-4.91337333">
        <ele>484.0</ele>
        <time>2018-10-06T08:47:01.000Z</time>
      </trkpt>
      <trkpt lat="38.13004833" lon="-4.91337333">
        <ele>484.0</ele>
        <time>2018-10-06T08:47:02.000Z</time>
      </trkpt>
      <trkpt lat="38.13004833" lon="-4.91337333">
        <ele>484.0</ele>
        <time>2018-10-06T08:47:03.000Z</time>
      </trkpt>
      <trkpt lat="38.13004833" lon="-4.91337333">
        <ele>484.0</ele>
        <time>2018-10-06T08:47:04.000Z</time>
      </trkpt>
      <trkpt lat="38.13004833" lon="-4.91337333">
        <ele>484.0</ele>
        <time>2018-10-06T08:47:05.000Z</time>
      </trkpt>
      <trkpt lat="38.13004833" lon="-4.91337333">
        <ele>484.0</ele>
        <time>2018-10-06T08:47:06.000Z</time>
      </trkpt>
      <trkpt lat="38.13004833" lon="-4.91337333">
        <ele>484.0</ele>
        <time>2018-10-06T08:47:07.000Z</time>
      </trkpt>
      <trkpt lat="38.13004833" lon="-4.91337333">
        <ele>484.0</ele>
        <time>2018-10-06T08:47:08.000Z</time>
      </trkpt>
      <trkpt lat="38.13004833" lon="-4.91337333">
        <ele>484.0</ele>
        <time>2018-10-06T08:47:09.000Z</time>
      </trkpt>
      <trkpt lat="38.13004833" lon="-4.91337333">
        <ele>484.0</ele>
        <time>2018-10-06T08:47:10.000Z</time>
      </trkpt>
      <trkpt lat="38.13004833" lon="-4.91337333">
        <ele>484.0</ele>
        <time>2018-10-06T08:47:11.000Z</time>
      </trkpt>
      <trkpt lat="38.13004833" lon="-4.91337333">
        <ele>484.0</ele>
        <time>2018-10-06T08:47:12.000Z</time>
      </trkpt>
      <trkpt lat="38.13004833" lon="-4.91337333">
        <ele>484.0</ele>
        <time>2018-10-06T08:47:13.000Z</time>
      </trkpt>
      <trkpt lat="38.13004833" lon="-4.91337333">
        <ele>484.0</ele>
        <time>2018-10-06T08:47:14.000Z</time>
      </trkpt>
      <trkpt lat="38.13004833" lon="-4.91337333">
        <ele>484.0</ele>
        <time>2018-10-06T08:47:15.000Z</time>
      </trkpt>
      <trkpt lat="38.13004833" lon="-4.91337333">
        <ele>484.0</ele>
        <time>2018-10-06T08:47:16.000Z</time>
      </trkpt>
      <trkpt lat="38.13004833" lon="-4.91337333">
        <ele>484.0</ele>
        <time>2018-10-06T08:47:17.000Z</time>
      </trkpt>
      <trkpt lat="38.13004833" lon="-4.91337333">
        <ele>484.0</ele>
        <time>2018-10-06T08:47:18.000Z</time>
      </trkpt>
      <trkpt lat="38.13004833" lon="-4.91337333">
        <ele>484.0</ele>
        <time>2018-10-06T08:47:19.000Z</time>
      </trkpt>
      <trkpt lat="38.13004833" lon="-4.91337333">
        <ele>484.0</ele>
        <time>2018-10-06T08:47:20.000Z</time>
      </trkpt>
      <trkpt lat="38.13004833" lon="-4.91337333">
        <ele>484.0</ele>
        <time>2018-10-06T08:47:21.000Z</time>
      </trkpt>
      <trkpt lat="38.13004833" lon="-4.91337333">
        <ele>484.0</ele>
        <time>2018-10-06T08:47:22.000Z</time>
      </trkpt>
      <trkpt lat="38.13004833" lon="-4.91337333">
        <ele>484.0</ele>
        <time>2018-10-06T08:47:23.000Z</time>
      </trkpt>
      <trkpt lat="38.13004833" lon="-4.91337333">
        <ele>484.0</ele>
        <time>2018-10-06T08:47:24.000Z</time>
      </trkpt>
      <trkpt lat="38.13004833" lon="-4.91337333">
        <ele>484.0</ele>
        <time>2018-10-06T08:47:25.000Z</time>
      </trkpt>
      <trkpt lat="38.13004833" lon="-4.91337333">
        <ele>484.0</ele>
        <time>2018-10-06T08:47:26.000Z</time>
      </trkpt>
      <trkpt lat="38.13004833" lon="-4.91337333">
        <ele>484.0</ele>
        <time>2018-10-06T08:47:27.000Z</time>
      </trkpt>
      <trkpt lat="38.13004833" lon="-4.91337333">
        <ele>484.0</ele>
        <time>2018-10-06T08:47:28.000Z</time>
      </trkpt>
      <trkpt lat="38.13004833" lon="-4.91337333">
        <ele>484.0</ele>
        <time>2018-10-06T08:47:29.000Z</time>
      </trkpt>
      <trkpt lat="38.13004833" lon="-4.91337333">
        <ele>484.0</ele>
        <time>2018-10-06T08:47:30.000Z</time>
      </trkpt>
      <trkpt lat="38.13004833" lon="-4.91337333">
        <ele>484.0</ele>
        <time>2018-10-06T08:47:31.000Z</time>
      </trkpt>
      <trkpt lat="38.13004833" lon="-4.91337333">
        <ele>484.0</ele>
        <time>2018-10-06T08:47:32.000Z</time>
      </trkpt>
      <trkpt lat="38.13004833" lon="-4.91337333">
        <ele>484.0</ele>
        <time>2018-10-06T08:47:33.000Z</time>
      </trkpt>
      <trkpt lat="38.13004833" lon="-4.91337333">
        <ele>484.0</ele>
        <time>2018-10-06T08:47:34.000Z</time>
      </trkpt>
      <trkpt lat="38.13004833" lon="-4.91337333">
        <ele>484.0</ele>
        <time>2018-10-06T08:47:35.000Z</time>
      </trkpt>
      <trkpt lat="38.13004833" lon="-4.91337333">
        <ele>484.0</ele>
        <time>2018-10-06T08:47:36.000Z</time>
      </trkpt>
      <trkpt lat="38.13004833" lon="-4.91337333">
        <ele>484.0</ele>
        <time>2018-10-06T08:47:37.000Z</time>
      </trkpt>
      <trkpt lat="38.13004833" lon="-4.91337333">
        <ele>484.0</ele>
        <time>2018-10-06T08:47:38.000Z</time>
      </trkpt>
      <trkpt lat="38.13004833" lon="-4.91337333">
        <ele>484.0</ele>
        <time>2018-10-06T08:47:39.000Z</time>
      </trkpt>
      <trkpt lat="38.13004833" lon="-4.91337333">
        <ele>484.0</ele>
        <time>2018-10-06T08:47:40.000Z</time>
      </trkpt>
      <trkpt lat="38.13004833" lon="-4.91337333">
        <ele>484.0</ele>
        <time>2018-10-06T08:47:41.000Z</time>
      </trkpt>
      <trkpt lat="38.13004833" lon="-4.91337333">
        <ele>484.0</ele>
        <time>2018-10-06T08:47:42.000Z</time>
      </trkpt>
      <trkpt lat="38.13004833" lon="-4.91337333">
        <ele>484.0</ele>
        <time>2018-10-06T08:47:43.000Z</time>
      </trkpt>
      <trkpt lat="38.13004833" lon="-4.91337333">
        <ele>484.0</ele>
        <time>2018-10-06T08:47:44.000Z</time>
      </trkpt>
      <trkpt lat="38.13004833" lon="-4.91337333">
        <ele>484.0</ele>
        <time>2018-10-06T08:47:45.000Z</time>
      </trkpt>
      <trkpt lat="38.13004833" lon="-4.91337333">
        <ele>484.0</ele>
        <time>2018-10-06T08:47:46.000Z</time>
      </trkpt>
      <trkpt lat="38.13004833" lon="-4.91337333">
        <ele>484.0</ele>
        <time>2018-10-06T08:47:47.000Z</time>
      </trkpt>
      <trkpt lat="38.13004833" lon="-4.91337333">
        <ele>484.0</ele>
        <time>2018-10-06T08:47:48.000Z</time>
      </trkpt>
      <trkpt lat="38.13004833" lon="-4.91337333">
        <ele>484.0</ele>
        <time>2018-10-06T08:47:49.000Z</time>
      </trkpt>
      <trkpt lat="38.13004833" lon="-4.91337333">
        <ele>484.0</ele>
        <time>2018-10-06T08:47:50.000Z</time>
      </trkpt>
      <trkpt lat="38.13004833" lon="-4.91337333">
        <ele>484.0</ele>
        <time>2018-10-06T08:47:51.000Z</time>
      </trkpt>
      <trkpt lat="38.13004667" lon="-4.91262833">
        <ele>497.0</ele>
        <time>2018-10-06T08:47:52.000Z</time>
      </trkpt>
      <trkpt lat="38.13004667" lon="-4.91262833">
        <ele>497.0</ele>
        <time>2018-10-06T08:47:53.000Z</time>
      </trkpt>
      <trkpt lat="38.130035" lon="-4.912595">
        <ele>496.0</ele>
        <time>2018-10-06T08:47:54.000Z</time>
      </trkpt>
      <trkpt lat="38.130025" lon="-4.912575">
        <ele>495.0</ele>
        <time>2018-10-06T08:47:55.000Z</time>
      </trkpt>
      <trkpt lat="38.13002" lon="-4.91255667">
        <ele>494.0</ele>
        <time>2018-10-06T08:47:56.000Z</time>
      </trkpt>
      <trkpt lat="38.130015" lon="-4.91253667">
        <ele>494.0</ele>
        <time>2018-10-06T08:47:57.000Z</time>
      </trkpt>
      <trkpt lat="38.13000833" lon="-4.91251667">
        <ele>493.0</ele>
        <time>2018-10-06T08:47:58.000Z</time>
      </trkpt>
      <trkpt lat="38.13" lon="-4.91249833">
        <ele>492.0</ele>
        <time>2018-10-06T08:47:59.000Z</time>
      </trkpt>
      <trkpt lat="38.12999167" lon="-4.91248">
        <ele>492.0</ele>
        <time>2018-10-06T08:48:00.000Z</time>
      </trkpt>
      <trkpt lat="38.12998333" lon="-4.91246167">
        <ele>491.0</ele>
        <time>2018-10-06T08:48:01.000Z</time>
      </trkpt>
      <trkpt lat="38.129975" lon="-4.91244333">
        <ele>490.0</ele>
        <time>2018-10-06T08:48:02.000Z</time>
      </trkpt>
      <trkpt lat="38.12996667" lon="-4.91242333">
        <ele>490.0</ele>
        <time>2018-10-06T08:48:03.000Z</time>
      </trkpt>
      <trkpt lat="38.12995833" lon="-4.912405">
        <ele>489.0</ele>
        <time>2018-10-06T08:48:04.000Z</time>
      </trkpt>
      <trkpt lat="38.12995833" lon="-4.912405">
        <ele>489.0</ele>
        <time>2018-10-06T08:48:05.000Z</time>
      </trkpt>
      <trkpt lat="38.12995833" lon="-4.912405">
        <ele>489.0</ele>
        <time>2018-10-06T08:48:06.000Z</time>
      </trkpt>
      <trkpt lat="38.12995833" lon="-4.912405">
        <ele>489.0</ele>
        <time>2018-10-06T08:48:07.000Z</time>
      </trkpt>
      <trkpt lat="38.12995833" lon="-4.912405">
        <ele>489.0</ele>
        <time>2018-10-06T08:48:08.000Z</time>
      </trkpt>
      <trkpt lat="38.12995833" lon="-4.912405">
        <ele>489.0</ele>
        <time>2018-10-06T08:48:09.000Z</time>
      </trkpt>
      <trkpt lat="38.12995833" lon="-4.912405">
        <ele>489.0</ele>
        <time>2018-10-06T08:48:10.000Z</time>
      </trkpt>
      <trkpt lat="38.12995833" lon="-4.912405">
        <ele>489.0</ele>
        <time>2018-10-06T08:48:11.000Z</time>
      </trkpt>
      <trkpt lat="38.12995833" lon="-4.912405">
        <ele>489.0</ele>
        <time>2018-10-06T08:48:12.000Z</time>
      </trkpt>
      <trkpt lat="38.12995833" lon="-4.912405">
        <ele>489.0</ele>
        <time>2018-10-06T08:48:13.000Z</time>
      </trkpt>
      <trkpt lat="38.12995833" lon="-4.912405">
        <ele>489.0</ele>
        <time>2018-10-06T08:48:14.000Z</time>
      </trkpt>
      <trkpt lat="38.12995833" lon="-4.912405">
        <ele>489.0</ele>
        <time>2018-10-06T08:48:15.000Z</time>
      </trkpt>
      <trkpt lat="38.12995833" lon="-4.912405">
        <ele>489.0</ele>
        <time>2018-10-06T08:48:16.000Z</time>
      </trkpt>
      <trkpt lat="38.12995833" lon="-4.912405">
        <ele>489.0</ele>
        <time>2018-10-06T08:48:17.000Z</time>
      </trkpt>
      <trkpt lat="38.12995833" lon="-4.912405">
        <ele>489.0</ele>
        <time>2018-10-06T08:48:18.000Z</time>
      </trkpt>
      <trkpt lat="38.12995833" lon="-4.912405">
        <ele>489.0</ele>
        <time>2018-10-06T08:48:19.000Z</time>
      </trkpt>
      <trkpt lat="38.12995833" lon="-4.912405">
        <ele>489.0</ele>
        <time>2018-10-06T08:48:20.000Z</time>
      </trkpt>
      <trkpt lat="38.12995833" lon="-4.912405">
        <ele>489.0</ele>
        <time>2018-10-06T08:48:21.000Z</time>
      </trkpt>
      <trkpt lat="38.12995833" lon="-4.912405">
        <ele>489.0</ele>
        <time>2018-10-06T08:48:22.000Z</time>
      </trkpt>
      <trkpt lat="38.12995833" lon="-4.912405">
        <ele>489.0</ele>
        <time>2018-10-06T08:48:23.000Z</time>
      </trkpt>
      <trkpt lat="38.12995833" lon="-4.912405">
        <ele>489.0</ele>
        <time>2018-10-06T08:48:24.000Z</time>
      </trkpt>
      <trkpt lat="38.12981167" lon="-4.91213833">
        <ele>505.0</ele>
        <time>2018-10-06T08:48:25.000Z</time>
      </trkpt>
      <trkpt lat="38.12978" lon="-4.91210833">
        <ele>507.0</ele>
        <time>2018-10-06T08:48:26.000Z</time>
      </trkpt>
      <trkpt lat="38.129775" lon="-4.91208833">
        <ele>506.0</ele>
        <time>2018-10-06T08:48:27.000Z</time>
      </trkpt>
      <trkpt lat="38.12977167" lon="-4.912065">
        <ele>505.0</ele>
        <time>2018-10-06T08:48:28.000Z</time>
      </trkpt>
      <trkpt lat="38.12977167" lon="-4.91204833">
        <ele>503.0</ele>
        <time>2018-10-06T08:48:29.000Z</time>
      </trkpt>
      <trkpt lat="38.12976833" lon="-4.91203167">
        <ele>502.0</ele>
        <time>2018-10-06T08:48:30.000Z</time>
      </trkpt>
      <trkpt lat="38.129765" lon="-4.91201667">
        <ele>500.0</ele>
        <time>2018-10-06T08:48:31.000Z</time>
      </trkpt>
      <trkpt lat="38.12976333" lon="-4.91200333">
        <ele>499.0</ele>
        <time>2018-10-06T08:48:32.000Z</time>
      </trkpt>
      <trkpt lat="38.12976" lon="-4.91198833">
        <ele>497.0</ele>
        <time>2018-10-06T08:48:33.000Z</time>
      </trkpt>
      <trkpt lat="38.12975667" lon="-4.91197333">
        <ele>496.0</ele>
        <time>2018-10-06T08:48:34.000Z</time>
      </trkpt>
      <trkpt lat="38.129755" lon="-4.91195667">
        <ele>495.0</ele>
        <time>2018-10-06T08:48:35.000Z</time>
      </trkpt>
      <trkpt lat="38.12975333" lon="-4.91194167">
        <ele>494.0</ele>
        <time>2018-10-06T08:48:36.000Z</time>
      </trkpt>
      <trkpt lat="38.12975333" lon="-4.91194167">
        <ele>494.0</ele>
        <time>2018-10-06T08:48:37.000Z</time>
      </trkpt>
      <trkpt lat="38.12975333" lon="-4.91194167">
        <ele>494.0</ele>
        <time>2018-10-06T08:48:38.000Z</time>
      </trkpt>
      <trkpt lat="38.12975333" lon="-4.91194167">
        <ele>494.0</ele>
        <time>2018-10-06T08:48:39.000Z</time>
      </trkpt>
      <trkpt lat="38.12975333" lon="-4.91194167">
        <ele>494.0</ele>
        <time>2018-10-06T08:48:40.000Z</time>
      </trkpt>
      <trkpt lat="38.12975333" lon="-4.91194167">
        <ele>494.0</ele>
        <time>2018-10-06T08:48:41.000Z</time>
      </trkpt>
      <trkpt lat="38.12975333" lon="-4.91194167">
        <ele>494.0</ele>
        <time>2018-10-06T08:48:42.000Z</time>
      </trkpt>
      <trkpt lat="38.12975333" lon="-4.91194167">
        <ele>494.0</ele>
        <time>2018-10-06T08:48:43.000Z</time>
      </trkpt>
      <trkpt lat="38.12975333" lon="-4.91194167">
        <ele>494.0</ele>
        <time>2018-10-06T08:48:44.000Z</time>
      </trkpt>
      <trkpt lat="38.12975333" lon="-4.91194167">
        <ele>494.0</ele>
        <time>2018-10-06T08:48:45.000Z</time>
      </trkpt>
      <trkpt lat="38.12975333" lon="-4.91194167">
        <ele>494.0</ele>
        <time>2018-10-06T08:48:46.000Z</time>
      </trkpt>
      <trkpt lat="38.12975333" lon="-4.91194167">
        <ele>494.0</ele>
        <time>2018-10-06T08:48:47.000Z</time>
      </trkpt>
      <trkpt lat="38.12975333" lon="-4.91194167">
        <ele>494.0</ele>
        <time>2018-10-06T08:48:48.000Z</time>
      </trkpt>
      <trkpt lat="38.12975333" lon="-4.91194167">
        <ele>494.0</ele>
        <time>2018-10-06T08:48:49.000Z</time>
      </trkpt>
      <trkpt lat="38.12975333" lon="-4.91194167">
        <ele>494.0</ele>
        <time>2018-10-06T08:48:50.000Z</time>
      </trkpt>
      <trkpt lat="38.12975333" lon="-4.91194167">
        <ele>494.0</ele>
        <time>2018-10-06T08:48:51.000Z</time>
      </trkpt>
      <trkpt lat="38.12975333" lon="-4.91194167">
        <ele>494.0</ele>
        <time>2018-10-06T08:48:52.000Z</time>
      </trkpt>
      <trkpt lat="38.12975333" lon="-4.91194167">
        <ele>494.0</ele>
        <time>2018-10-06T08:48:53.000Z</time>
      </trkpt>
      <trkpt lat="38.12975333" lon="-4.91194167">
        <ele>494.0</ele>
        <time>2018-10-06T08:48:54.000Z</time>
      </trkpt>
      <trkpt lat="38.12975333" lon="-4.91194167">
        <ele>494.0</ele>
        <time>2018-10-06T08:48:55.000Z</time>
      </trkpt>
      <trkpt lat="38.12975333" lon="-4.91194167">
        <ele>494.0</ele>
        <time>2018-10-06T08:48:56.000Z</time>
      </trkpt>
      <trkpt lat="38.12975333" lon="-4.91194167">
        <ele>494.0</ele>
        <time>2018-10-06T08:48:57.000Z</time>
      </trkpt>
      <trkpt lat="38.12975333" lon="-4.91194167">
        <ele>494.0</ele>
        <time>2018-10-06T08:48:58.000Z</time>
      </trkpt>
      <trkpt lat="38.12975333" lon="-4.91194167">
        <ele>494.0</ele>
        <time>2018-10-06T08:48:59.000Z</time>
      </trkpt>
      <trkpt lat="38.12975333" lon="-4.91194167">
        <ele>494.0</ele>
        <time>2018-10-06T08:49:00.000Z</time>
      </trkpt>
      <trkpt lat="38.12975333" lon="-4.91194167">
        <ele>494.0</ele>
        <time>2018-10-06T08:49:01.000Z</time>
      </trkpt>
      <trkpt lat="38.12975333" lon="-4.91194167">
        <ele>494.0</ele>
        <time>2018-10-06T08:49:02.000Z</time>
      </trkpt>
      <trkpt lat="38.12975333" lon="-4.91194167">
        <ele>494.0</ele>
        <time>2018-10-06T08:49:03.000Z</time>
      </trkpt>
      <trkpt lat="38.12975333" lon="-4.91194167">
        <ele>494.0</ele>
        <time>2018-10-06T08:49:04.000Z</time>
      </trkpt>
      <trkpt lat="38.12975333" lon="-4.91194167">
        <ele>494.0</ele>
        <time>2018-10-06T08:49:05.000Z</time>
      </trkpt>
      <trkpt lat="38.12975333" lon="-4.91194167">
        <ele>494.0</ele>
        <time>2018-10-06T08:49:06.000Z</time>
      </trkpt>
      <trkpt lat="38.12975333" lon="-4.91194167">
        <ele>494.0</ele>
        <time>2018-10-06T08:49:07.000Z</time>
      </trkpt>
      <trkpt lat="38.12975333" lon="-4.91194167">
        <ele>494.0</ele>
        <time>2018-10-06T08:49:08.000Z</time>
      </trkpt>
      <trkpt lat="38.12975333" lon="-4.91194167">
        <ele>494.0</ele>
        <time>2018-10-06T08:49:09.000Z</time>
      </trkpt>
      <trkpt lat="38.12975333" lon="-4.91194167">
        <ele>494.0</ele>
        <time>2018-10-06T08:49:10.000Z</time>
      </trkpt>
      <trkpt lat="38.12975333" lon="-4.91194167">
        <ele>494.0</ele>
        <time>2018-10-06T08:49:11.000Z</time>
      </trkpt>
      <trkpt lat="38.12975333" lon="-4.91194167">
        <ele>494.0</ele>
        <time>2018-10-06T08:49:12.000Z</time>
      </trkpt>
      <trkpt lat="38.12975333" lon="-4.91194167">
        <ele>494.0</ele>
        <time>2018-10-06T08:49:13.000Z</time>
      </trkpt>
      <trkpt lat="38.12975333" lon="-4.91194167">
        <ele>494.0</ele>
        <time>2018-10-06T08:49:14.000Z</time>
      </trkpt>
      <trkpt lat="38.12975333" lon="-4.91194167">
        <ele>494.0</ele>
        <time>2018-10-06T08:49:15.000Z</time>
      </trkpt>
      <trkpt lat="38.12975333" lon="-4.91194167">
        <ele>494.0</ele>
        <time>2018-10-06T08:49:16.000Z</time>
      </trkpt>
      <trkpt lat="38.12975333" lon="-4.91194167">
        <ele>494.0</ele>
        <time>2018-10-06T08:49:17.000Z</time>
      </trkpt>
      <trkpt lat="38.12975333" lon="-4.91194167">
        <ele>494.0</ele>
        <time>2018-10-06T08:49:18.000Z</time>
      </trkpt>
      <trkpt lat="38.12975333" lon="-4.91194167">
        <ele>494.0</ele>
        <time>2018-10-06T08:49:19.000Z</time>
      </trkpt>
      <trkpt lat="38.12975333" lon="-4.91194167">
        <ele>494.0</ele>
        <time>2018-10-06T08:49:20.000Z</time>
      </trkpt>
      <trkpt lat="38.12975333" lon="-4.91194167">
        <ele>494.0</ele>
        <time>2018-10-06T08:49:21.000Z</time>
      </trkpt>
      <trkpt lat="38.12975333" lon="-4.91194167">
        <ele>494.0</ele>
        <time>2018-10-06T08:49:22.000Z</time>
      </trkpt>
      <trkpt lat="38.12975333" lon="-4.91194167">
        <ele>494.0</ele>
        <time>2018-10-06T08:49:23.000Z</time>
      </trkpt>
      <trkpt lat="38.12975333" lon="-4.91194167">
        <ele>494.0</ele>
        <time>2018-10-06T08:49:24.000Z</time>
      </trkpt>
      <trkpt lat="38.12975333" lon="-4.91194167">
        <ele>494.0</ele>
        <time>2018-10-06T08:49:25.000Z</time>
      </trkpt>
      <trkpt lat="38.12968833" lon="-4.91141833">
        <ele>490.0</ele>
        <time>2018-10-06T08:49:26.000Z</time>
      </trkpt>
      <trkpt lat="38.12968333" lon="-4.91139833">
        <ele>491.0</ele>
        <time>2018-10-06T08:49:27.000Z</time>
      </trkpt>
      <trkpt lat="38.12967833" lon="-4.91137833">
        <ele>491.0</ele>
        <time>2018-10-06T08:49:28.000Z</time>
      </trkpt>
      <trkpt lat="38.12966" lon="-4.91135833">
        <ele>490.0</ele>
        <time>2018-10-06T08:49:29.000Z</time>
      </trkpt>
      <trkpt lat="38.12965" lon="-4.91134333">
        <ele>490.0</ele>
        <time>2018-10-06T08:49:30.000Z</time>
      </trkpt>
      <trkpt lat="38.12964833" lon="-4.91133167">
        <ele>489.0</ele>
        <time>2018-10-06T08:49:31.000Z</time>
      </trkpt>
      <trkpt lat="38.129645" lon="-4.91131667">
        <ele>488.0</ele>
        <time>2018-10-06T08:49:32.000Z</time>
      </trkpt>
      <trkpt lat="38.12964167" lon="-4.91130333">
        <ele>487.0</ele>
        <time>2018-10-06T08:49:33.000Z</time>
      </trkpt>
      <trkpt lat="38.12963833" lon="-4.91129">
        <ele>487.0</ele>
        <time>2018-10-06T08:49:34.000Z</time>
      </trkpt>
      <trkpt lat="38.129635" lon="-4.91127167">
        <ele>486.0</ele>
        <time>2018-10-06T08:49:35.000Z</time>
      </trkpt>
      <trkpt lat="38.12963" lon="-4.91125167">
        <ele>485.0</ele>
        <time>2018-10-06T08:49:36.000Z</time>
      </trkpt>
      <trkpt lat="38.12963" lon="-4.91125167">
        <ele>485.0</ele>
        <time>2018-10-06T08:49:37.000Z</time>
      </trkpt>
      <trkpt lat="38.12963" lon="-4.91125167">
        <ele>485.0</ele>
        <time>2018-10-06T08:49:38.000Z</time>
      </trkpt>
      <trkpt lat="38.12963" lon="-4.91125167">
        <ele>485.0</ele>
        <time>2018-10-06T08:49:39.000Z</time>
      </trkpt>
      <trkpt lat="38.12963" lon="-4.91125167">
        <ele>485.0</ele>
        <time>2018-10-06T08:49:40.000Z</time>
      </trkpt>
      <trkpt lat="38.12963" lon="-4.91125167">
        <ele>485.0</ele>
        <time>2018-10-06T08:49:41.000Z</time>
      </trkpt>
      <trkpt lat="38.12963" lon="-4.91125167">
        <ele>485.0</ele>
        <time>2018-10-06T08:49:42.000Z</time>
      </trkpt>
      <trkpt lat="38.12963" lon="-4.91125167">
        <ele>485.0</ele>
        <time>2018-10-06T08:49:43.000Z</time>
      </trkpt>
      <trkpt lat="38.12963" lon="-4.91125167">
        <ele>485.0</ele>
        <time>2018-10-06T08:49:44.000Z</time>
      </trkpt>
      <trkpt lat="38.12963" lon="-4.91125167">
        <ele>485.0</ele>
        <time>2018-10-06T08:49:45.000Z</time>
      </trkpt>
      <trkpt lat="38.12963" lon="-4.91125167">
        <ele>485.0</ele>
        <time>2018-10-06T08:49:46.000Z</time>
      </trkpt>
      <trkpt lat="38.12963" lon="-4.91125167">
        <ele>485.0</ele>
        <time>2018-10-06T08:49:47.000Z</time>
      </trkpt>
      <trkpt lat="38.12963" lon="-4.91125167">
        <ele>485.0</ele>
        <time>2018-10-06T08:49:48.000Z</time>
      </trkpt>
      <trkpt lat="38.12963" lon="-4.91125167">
        <ele>485.0</ele>
        <time>2018-10-06T08:49:49.000Z</time>
      </trkpt>
      <trkpt lat="38.12963" lon="-4.91125167">
        <ele>485.0</ele>
        <time>2018-10-06T08:49:50.000Z</time>
      </trkpt>
      <trkpt lat="38.12963" lon="-4.91125167">
        <ele>485.0</ele>
        <time>2018-10-06T08:49:51.000Z</time>
      </trkpt>
      <trkpt lat="38.12963" lon="-4.91125167">
        <ele>485.0</ele>
        <time>2018-10-06T08:49:52.000Z</time>
      </trkpt>
      <trkpt lat="38.12963" lon="-4.91125167">
        <ele>485.0</ele>
        <time>2018-10-06T08:49:53.000Z</time>
      </trkpt>
      <trkpt lat="38.12963" lon="-4.91125167">
        <ele>485.0</ele>
        <time>2018-10-06T08:49:54.000Z</time>
      </trkpt>
      <trkpt lat="38.12963" lon="-4.91125167">
        <ele>485.0</ele>
        <time>2018-10-06T08:49:55.000Z</time>
      </trkpt>
      <trkpt lat="38.12963" lon="-4.91125167">
        <ele>485.0</ele>
        <time>2018-10-06T08:49:56.000Z</time>
      </trkpt>
      <trkpt lat="38.12963" lon="-4.91125167">
        <ele>485.0</ele>
        <time>2018-10-06T08:49:57.000Z</time>
      </trkpt>
      <trkpt lat="38.12963" lon="-4.91125167">
        <ele>485.0</ele>
        <time>2018-10-06T08:49:58.000Z</time>
      </trkpt>
      <trkpt lat="38.12963" lon="-4.91125167">
        <ele>485.0</ele>
        <time>2018-10-06T08:49:59.000Z</time>
      </trkpt>
      <trkpt lat="38.12963" lon="-4.91125167">
        <ele>485.0</ele>
        <time>2018-10-06T08:50:00.000Z</time>
      </trkpt>
      <trkpt lat="38.12963" lon="-4.91125167">
        <ele>485.0</ele>
        <time>2018-10-06T08:50:01.000Z</time>
      </trkpt>
      <trkpt lat="38.12963" lon="-4.91125167">
        <ele>485.0</ele>
        <time>2018-10-06T08:50:02.000Z</time>
      </trkpt>
      <trkpt lat="38.12963" lon="-4.91125167">
        <ele>485.0</ele>
        <time>2018-10-06T08:50:03.000Z</time>
      </trkpt>
      <trkpt lat="38.12963" lon="-4.91125167">
        <ele>485.0</ele>
        <time>2018-10-06T08:50:04.000Z</time>
      </trkpt>
      <trkpt lat="38.12963" lon="-4.91125167">
        <ele>485.0</ele>
        <time>2018-10-06T08:50:05.000Z</time>
      </trkpt>
      <trkpt lat="38.12963" lon="-4.91125167">
        <ele>485.0</ele>
        <time>2018-10-06T08:50:06.000Z</time>
      </trkpt>
      <trkpt lat="38.12963" lon="-4.91125167">
        <ele>485.0</ele>
        <time>2018-10-06T08:50:07.000Z</time>
      </trkpt>
      <trkpt lat="38.12963" lon="-4.91125167">
        <ele>485.0</ele>
        <time>2018-10-06T08:50:08.000Z</time>
      </trkpt>
      <trkpt lat="38.12963" lon="-4.91125167">
        <ele>485.0</ele>
        <time>2018-10-06T08:50:09.000Z</time>
      </trkpt>
      <trkpt lat="38.12963" lon="-4.91125167">
        <ele>485.0</ele>
        <time>2018-10-06T08:50:10.000Z</time>
      </trkpt>
      <trkpt lat="38.12963" lon="-4.91125167">
        <ele>485.0</ele>
        <time>2018-10-06T08:50:11.000Z</time>
      </trkpt>
      <trkpt lat="38.12963" lon="-4.91125167">
        <ele>485.0</ele>
        <time>2018-10-06T08:50:12.000Z</time>
      </trkpt>
      <trkpt lat="38.12963" lon="-4.91125167">
        <ele>485.0</ele>
        <time>2018-10-06T08:50:13.000Z</time>
      </trkpt>
      <trkpt lat="38.12963" lon="-4.91125167">
        <ele>485.0</ele>
        <time>2018-10-06T08:50:14.000Z</time>
      </trkpt>
      <trkpt lat="38.12963" lon="-4.91125167">
        <ele>485.0</ele>
        <time>2018-10-06T08:50:15.000Z</time>
      </trkpt>
      <trkpt lat="38.12963" lon="-4.91125167">
        <ele>485.0</ele>
        <time>2018-10-06T08:50:16.000Z</time>
      </trkpt>
      <trkpt lat="38.12963" lon="-4.91125167">
        <ele>485.0</ele>
        <time>2018-10-06T08:50:17.000Z</time>
      </trkpt>
      <trkpt lat="38.12963" lon="-4.91125167">
        <ele>485.0</ele>
        <time>2018-10-06T08:50:18.000Z</time>
      </trkpt>
      <trkpt lat="38.12963" lon="-4.91125167">
        <ele>485.0</ele>
        <time>2018-10-06T08:50:19.000Z</time>
      </trkpt>
      <trkpt lat="38.12963" lon="-4.91125167">
        <ele>485.0</ele>
        <time>2018-10-06T08:50:20.000Z</time>
      </trkpt>
      <trkpt lat="38.12963" lon="-4.91125167">
        <ele>485.0</ele>
        <time>2018-10-06T08:50:21.000Z</time>
      </trkpt>
      <trkpt lat="38.12963" lon="-4.91125167">
        <ele>485.0</ele>
        <time>2018-10-06T08:50:22.000Z</time>
      </trkpt>
      <trkpt lat="38.12963" lon="-4.91125167">
        <ele>485.0</ele>
        <time>2018-10-06T08:50:23.000Z</time>
      </trkpt>
      <trkpt lat="38.12963" lon="-4.91125167">
        <ele>485.0</ele>
        <time>2018-10-06T08:50:24.000Z</time>
      </trkpt>
      <trkpt lat="38.12960333" lon="-4.910805">
        <ele>490.0</ele>
        <time>2018-10-06T08:50:25.000Z</time>
      </trkpt>
      <trkpt lat="38.12959667" lon="-4.91078833">
        <ele>489.0</ele>
        <time>2018-10-06T08:50:26.000Z</time>
      </trkpt>
      <trkpt lat="38.12958667" lon="-4.91077833">
        <ele>489.0</ele>
        <time>2018-10-06T08:50:27.000Z</time>
      </trkpt>
      <trkpt lat="38.12957667" lon="-4.91075667">
        <ele>489.0</ele>
        <time>2018-10-06T08:50:28.000Z</time>
      </trkpt>
      <trkpt lat="38.129565" lon="-4.91073667">
        <ele>488.0</ele>
        <time>2018-10-06T08:50:29.000Z</time>
      </trkpt>
      <trkpt lat="38.12955333" lon="-4.91071833">
        <ele>488.0</ele>
        <time>2018-10-06T08:50:30.000Z</time>
      </trkpt>
      <trkpt lat="38.12954167" lon="-4.9107">
        <ele>487.0</ele>
        <time>2018-10-06T08:50:31.000Z</time>
      </trkpt>
      <trkpt lat="38.12953" lon="-4.91068333">
        <ele>487.0</ele>
        <time>2018-10-06T08:50:32.000Z</time>
      </trkpt>
      <trkpt lat="38.12952167" lon="-4.910665">
        <ele>487.0</ele>
        <time>2018-10-06T08:50:33.000Z</time>
      </trkpt>
      <trkpt lat="38.129515" lon="-4.91064667">
        <ele>487.0</ele>
        <time>2018-10-06T08:50:34.000Z</time>
      </trkpt>
      <trkpt lat="38.12950667" lon="-4.91062833">
        <ele>486.0</ele>
        <time>2018-10-06T08:50:35.000Z</time>
      </trkpt>
      <trkpt lat="38.12949833" lon="-4.91061">
        <ele>486.0</ele>
        <time>2018-10-06T08:50:36.000Z</time>
      </trkpt>
      <trkpt lat="38.12949833" lon="-4.91061">
        <ele>486.0</ele>
        <time>2018-10-06T08:50:37.000Z</time>
      </trkpt>
      <trkpt lat="38.12949833" lon="-4.91061">
        <ele>486.0</ele>
        <time>2018-10-06T08:50:38.000Z</time>
      </trkpt>
      <trkpt lat="38.12949833" lon="-4.91061">
        <ele>486.0</ele>
        <time>2018-10-06T08:50:39.000Z</time>
      </trkpt>
      <trkpt lat="38.12949833" lon="-4.91061">
        <ele>486.0</ele>
        <time>2018-10-06T08:50:40.000Z</time>
      </trkpt>
      <trkpt lat="38.12949833" lon="-4.91061">
        <ele>486.0</ele>
        <time>2018-10-06T08:50:41.000Z</time>
      </trkpt>
      <trkpt lat="38.12949833" lon="-4.91061">
        <ele>486.0</ele>
        <time>2018-10-06T08:50:42.000Z</time>
      </trkpt>
      <trkpt lat="38.12949833" lon="-4.91061">
        <ele>486.0</ele>
        <time>2018-10-06T08:50:43.000Z</time>
      </trkpt>
      <trkpt lat="38.12949833" lon="-4.91061">
        <ele>486.0</ele>
        <time>2018-10-06T08:50:44.000Z</time>
      </trkpt>
      <trkpt lat="38.12949833" lon="-4.91061">
        <ele>486.0</ele>
        <time>2018-10-06T08:50:45.000Z</time>
      </trkpt>
      <trkpt lat="38.12949833" lon="-4.91061">
        <ele>486.0</ele>
        <time>2018-10-06T08:50:46.000Z</time>
      </trkpt>
      <trkpt lat="38.12949833" lon="-4.91061">
        <ele>486.0</ele>
        <time>2018-10-06T08:50:47.000Z</time>
      </trkpt>
      <trkpt lat="38.12949833" lon="-4.91061">
        <ele>486.0</ele>
        <time>2018-10-06T08:50:48.000Z</time>
      </trkpt>
      <trkpt lat="38.12949833" lon="-4.91061">
        <ele>486.0</ele>
        <time>2018-10-06T08:50:49.000Z</time>
      </trkpt>
      <trkpt lat="38.12949833" lon="-4.91061">
        <ele>486.0</ele>
        <time>2018-10-06T08:50:50.000Z</time>
      </trkpt>
      <trkpt lat="38.12949833" lon="-4.91061">
        <ele>486.0</ele>
        <time>2018-10-06T08:50:51.000Z</time>
      </trkpt>
      <trkpt lat="38.12949833" lon="-4.91061">
        <ele>486.0</ele>
        <time>2018-10-06T08:50:52.000Z</time>
      </trkpt>
      <trkpt lat="38.12949833" lon="-4.91061">
        <ele>486.0</ele>
        <time>2018-10-06T08:50:53.000Z</time>
      </trkpt>
      <trkpt lat="38.12949833" lon="-4.91061">
        <ele>486.0</ele>
        <time>2018-10-06T08:50:54.000Z</time>
      </trkpt>
      <trkpt lat="38.12949833" lon="-4.91061">
        <ele>486.0</ele>
        <time>2018-10-06T08:50:55.000Z</time>
      </trkpt>
      <trkpt lat="38.12949833" lon="-4.91061">
        <ele>486.0</ele>
        <time>2018-10-06T08:50:56.000Z</time>
      </trkpt>
      <trkpt lat="38.12949833" lon="-4.91061">
        <ele>486.0</ele>
        <time>2018-10-06T08:50:57.000Z</time>
      </trkpt>
      <trkpt lat="38.12949833" lon="-4.91061">
        <ele>486.0</ele>
        <time>2018-10-06T08:50:58.000Z</time>
      </trkpt>
      <trkpt lat="38.12949833" lon="-4.91061">
        <ele>486.0</ele>
        <time>2018-10-06T08:50:59.000Z</time>
      </trkpt>
      <trkpt lat="38.12949833" lon="-4.91061">
        <ele>486.0</ele>
        <time>2018-10-06T08:51:00.000Z</time>
      </trkpt>
      <trkpt lat="38.12949833" lon="-4.91061">
        <ele>486.0</ele>
        <time>2018-10-06T08:51:01.000Z</time>
      </trkpt>
      <trkpt lat="38.12949833" lon="-4.91061">
        <ele>486.0</ele>
        <time>2018-10-06T08:51:02.000Z</time>
      </trkpt>
      <trkpt lat="38.12949833" lon="-4.91061">
        <ele>486.0</ele>
        <time>2018-10-06T08:51:03.000Z</time>
      </trkpt>
      <trkpt lat="38.12949833" lon="-4.91061">
        <ele>486.0</ele>
        <time>2018-10-06T08:51:04.000Z</time>
      </trkpt>
      <trkpt lat="38.12949833" lon="-4.91061">
        <ele>486.0</ele>
        <time>2018-10-06T08:51:05.000Z</time>
      </trkpt>
      <trkpt lat="38.12949833" lon="-4.91061">
        <ele>486.0</ele>
        <time>2018-10-06T08:51:06.000Z</time>
      </trkpt>
      <trkpt lat="38.12949833" lon="-4.91061">
        <ele>486.0</ele>
        <time>2018-10-06T08:51:07.000Z</time>
      </trkpt>
      <trkpt lat="38.12949833" lon="-4.91061">
        <ele>486.0</ele>
        <time>2018-10-06T08:51:08.000Z</time>
      </trkpt>
      <trkpt lat="38.12949833" lon="-4.91061">
        <ele>486.0</ele>
        <time>2018-10-06T08:51:09.000Z</time>
      </trkpt>
      <trkpt lat="38.12949833" lon="-4.91061">
        <ele>486.0</ele>
        <time>2018-10-06T08:51:10.000Z</time>
      </trkpt>
      <trkpt lat="38.12949833" lon="-4.91061">
        <ele>486.0</ele>
        <time>2018-10-06T08:51:11.000Z</time>
      </trkpt>
      <trkpt lat="38.12949833" lon="-4.91061">
        <ele>486.0</ele>
        <time>2018-10-06T08:51:12.000Z</time>
      </trkpt>
      <trkpt lat="38.12949833" lon="-4.91061">
        <ele>486.0</ele>
        <time>2018-10-06T08:51:13.000Z</time>
      </trkpt>
      <trkpt lat="38.12949833" lon="-4.91061">
        <ele>486.0</ele>
        <time>2018-10-06T08:51:14.000Z</time>
      </trkpt>
      <trkpt lat="38.12949833" lon="-4.91061">
        <ele>486.0</ele>
        <time>2018-10-06T08:51:15.000Z</time>
      </trkpt>
      <trkpt lat="38.12949833" lon="-4.91061">
        <ele>486.0</ele>
        <time>2018-10-06T08:51:16.000Z</time>
      </trkpt>
      <trkpt lat="38.12949833" lon="-4.91061">
        <ele>486.0</ele>
        <time>2018-10-06T08:51:17.000Z</time>
      </trkpt>
      <trkpt lat="38.12949833" lon="-4.91061">
        <ele>486.0</ele>
        <time>2018-10-06T08:51:18.000Z</time>
      </trkpt>
      <trkpt lat="38.12949833" lon="-4.91061">
        <ele>486.0</ele>
        <time>2018-10-06T08:51:19.000Z</time>
      </trkpt>
      <trkpt lat="38.12949833" lon="-4.91061">
        <ele>486.0</ele>
        <time>2018-10-06T08:51:20.000Z</time>
      </trkpt>
      <trkpt lat="38.12949833" lon="-4.91061">
        <ele>486.0</ele>
        <time>2018-10-06T08:51:21.000Z</time>
      </trkpt>
      <trkpt lat="38.12949833" lon="-4.91061">
        <ele>486.0</ele>
        <time>2018-10-06T08:51:22.000Z</time>
      </trkpt>
      <trkpt lat="38.12949833" lon="-4.91061">
        <ele>486.0</ele>
        <time>2018-10-06T08:51:23.000Z</time>
      </trkpt>
      <trkpt lat="38.12949833" lon="-4.91061">
        <ele>486.0</ele>
        <time>2018-10-06T08:51:24.000Z</time>
      </trkpt>
      <trkpt lat="38.12952" lon="-4.91004167">
        <ele>492.0</ele>
        <time>2018-10-06T08:51:25.000Z</time>
      </trkpt>
      <trkpt lat="38.12951833" lon="-4.91003167">
        <ele>492.0</ele>
        <time>2018-10-06T08:51:26.000Z</time>
      </trkpt>
      <trkpt lat="38.129495" lon="-4.91001333">
        <ele>492.0</ele>
        <time>2018-10-06T08:51:27.000Z</time>
      </trkpt>
      <trkpt lat="38.12946833" lon="-4.90999333">
        <ele>491.0</ele>
        <time>2018-10-06T08:51:28.000Z</time>
      </trkpt>
      <trkpt lat="38.12944" lon="-4.90997667">
        <ele>491.0</ele>
        <time>2018-10-06T08:51:29.000Z</time>
      </trkpt>
      <trkpt lat="38.12941667" lon="-4.90995833">
        <ele>491.0</ele>
        <time>2018-10-06T08:51:30.000Z</time>
      </trkpt>
      <trkpt lat="38.12939333" lon="-4.90994">
        <ele>490.0</ele>
        <time>2018-10-06T08:51:31.000Z</time>
      </trkpt>
      <trkpt lat="38.12937167" lon="-4.90992167">
        <ele>490.0</ele>
        <time>2018-10-06T08:51:32.000Z</time>
      </trkpt>
      <trkpt lat="38.12935167" lon="-4.909905">
        <ele>490.0</ele>
        <time>2018-10-06T08:51:33.000Z</time>
      </trkpt>
      <trkpt lat="38.12933" lon="-4.90988667">
        <ele>490.0</ele>
        <time>2018-10-06T08:51:34.000Z</time>
      </trkpt>
      <trkpt lat="38.12931" lon="-4.90987167">
        <ele>490.0</ele>
        <time>2018-10-06T08:51:35.000Z</time>
      </trkpt>
      <trkpt lat="38.12929333" lon="-4.90985667">
        <ele>490.0</ele>
        <time>2018-10-06T08:51:36.000Z</time>
      </trkpt>
      <trkpt lat="38.12927667" lon="-4.90984167">
        <ele>490.0</ele>
        <time>2018-10-06T08:51:37.000Z</time>
      </trkpt>
      <trkpt lat="38.12927667" lon="-4.90984167">
        <ele>490.0</ele>
        <time>2018-10-06T08:51:38.000Z</time>
      </trkpt>
      <trkpt lat="38.12927667" lon="-4.90984167">
        <ele>490.0</ele>
        <time>2018-10-06T08:51:39.000Z</time>
      </trkpt>
      <trkpt lat="38.12927667" lon="-4.90984167">
        <ele>490.0</ele>
        <time>2018-10-06T08:51:40.000Z</time>
      </trkpt>
      <trkpt lat="38.12927667" lon="-4.90984167">
        <ele>490.0</ele>
        <time>2018-10-06T08:51:41.000Z</time>
      </trkpt>
      <trkpt lat="38.12927667" lon="-4.90984167">
        <ele>490.0</ele>
        <time>2018-10-06T08:51:42.000Z</time>
      </trkpt>
      <trkpt lat="38.12927667" lon="-4.90984167">
        <ele>490.0</ele>
        <time>2018-10-06T08:51:43.000Z</time>
      </trkpt>
      <trkpt lat="38.12927667" lon="-4.90984167">
        <ele>490.0</ele>
        <time>2018-10-06T08:51:44.000Z</time>
      </trkpt>
      <trkpt lat="38.12927667" lon="-4.90984167">
        <ele>490.0</ele>
        <time>2018-10-06T08:51:45.000Z</time>
      </trkpt>
      <trkpt lat="38.12927667" lon="-4.90984167">
        <ele>490.0</ele>
        <time>2018-10-06T08:51:46.000Z</time>
      </trkpt>
      <trkpt lat="38.12927667" lon="-4.90984167">
        <ele>490.0</ele>
        <time>2018-10-06T08:51:47.000Z</time>
      </trkpt>
      <trkpt lat="38.12927667" lon="-4.90984167">
        <ele>490.0</ele>
        <time>2018-10-06T08:51:48.000Z</time>
      </trkpt>
      <trkpt lat="38.12927667" lon="-4.90984167">
        <ele>490.0</ele>
        <time>2018-10-06T08:51:49.000Z</time>
      </trkpt>
      <trkpt lat="38.12927667" lon="-4.90984167">
        <ele>490.0</ele>
        <time>2018-10-06T08:51:50.000Z</time>
      </trkpt>
      <trkpt lat="38.12927667" lon="-4.90984167">
        <ele>490.0</ele>
        <time>2018-10-06T08:51:51.000Z</time>
      </trkpt>
      <trkpt lat="38.12927667" lon="-4.90984167">
        <ele>490.0</ele>
        <time>2018-10-06T08:51:52.000Z</time>
      </trkpt>
      <trkpt lat="38.12927667" lon="-4.90984167">
        <ele>490.0</ele>
        <time>2018-10-06T08:51:53.000Z</time>
      </trkpt>
      <trkpt lat="38.12927667" lon="-4.90984167">
        <ele>490.0</ele>
        <time>2018-10-06T08:51:54.000Z</time>
      </trkpt>
      <trkpt lat="38.12927667" lon="-4.90984167">
        <ele>490.0</ele>
        <time>2018-10-06T08:51:55.000Z</time>
      </trkpt>
      <trkpt lat="38.12927667" lon="-4.90984167">
        <ele>490.0</ele>
        <time>2018-10-06T08:51:56.000Z</time>
      </trkpt>
      <trkpt lat="38.12927667" lon="-4.90984167">
        <ele>490.0</ele>
        <time>2018-10-06T08:51:57.000Z</time>
      </trkpt>
      <trkpt lat="38.12927667" lon="-4.90984167">
        <ele>490.0</ele>
        <time>2018-10-06T08:51:58.000Z</time>
      </trkpt>
      <trkpt lat="38.12927667" lon="-4.90984167">
        <ele>490.0</ele>
        <time>2018-10-06T08:51:59.000Z</time>
      </trkpt>
      <trkpt lat="38.12927667" lon="-4.90984167">
        <ele>490.0</ele>
        <time>2018-10-06T08:52:00.000Z</time>
      </trkpt>
      <trkpt lat="38.12927667" lon="-4.90984167">
        <ele>490.0</ele>
        <time>2018-10-06T08:52:01.000Z</time>
      </trkpt>
      <trkpt lat="38.12927667" lon="-4.90984167">
        <ele>490.0</ele>
        <time>2018-10-06T08:52:02.000Z</time>
      </trkpt>
      <trkpt lat="38.12927667" lon="-4.90984167">
        <ele>490.0</ele>
        <time>2018-10-06T08:52:03.000Z</time>
      </trkpt>
      <trkpt lat="38.12927667" lon="-4.90984167">
        <ele>490.0</ele>
        <time>2018-10-06T08:52:04.000Z</time>
      </trkpt>
      <trkpt lat="38.12927667" lon="-4.90984167">
        <ele>490.0</ele>
        <time>2018-10-06T08:52:05.000Z</time>
      </trkpt>
      <trkpt lat="38.12927667" lon="-4.90984167">
        <ele>490.0</ele>
        <time>2018-10-06T08:52:06.000Z</time>
      </trkpt>
      <trkpt lat="38.12927667" lon="-4.90984167">
        <ele>490.0</ele>
        <time>2018-10-06T08:52:07.000Z</time>
      </trkpt>
      <trkpt lat="38.12927667" lon="-4.90984167">
        <ele>490.0</ele>
        <time>2018-10-06T08:52:08.000Z</time>
      </trkpt>
      <trkpt lat="38.12927667" lon="-4.90984167">
        <ele>490.0</ele>
        <time>2018-10-06T08:52:09.000Z</time>
      </trkpt>
      <trkpt lat="38.12927667" lon="-4.90984167">
        <ele>490.0</ele>
        <time>2018-10-06T08:52:10.000Z</time>
      </trkpt>
      <trkpt lat="38.12927667" lon="-4.90984167">
        <ele>490.0</ele>
        <time>2018-10-06T08:52:11.000Z</time>
      </trkpt>
      <trkpt lat="38.12927667" lon="-4.90984167">
        <ele>490.0</ele>
        <time>2018-10-06T08:52:12.000Z</time>
      </trkpt>
      <trkpt lat="38.12927667" lon="-4.90984167">
        <ele>490.0</ele>
        <time>2018-10-06T08:52:13.000Z</time>
      </trkpt>
      <trkpt lat="38.12927667" lon="-4.90984167">
        <ele>490.0</ele>
        <time>2018-10-06T08:52:14.000Z</time>
      </trkpt>
      <trkpt lat="38.12927667" lon="-4.90984167">
        <ele>490.0</ele>
        <time>2018-10-06T08:52:15.000Z</time>
      </trkpt>
      <trkpt lat="38.12927667" lon="-4.90984167">
        <ele>490.0</ele>
        <time>2018-10-06T08:52:16.000Z</time>
      </trkpt>
      <trkpt lat="38.12927667" lon="-4.90984167">
        <ele>490.0</ele>
        <time>2018-10-06T08:52:17.000Z</time>
      </trkpt>
      <trkpt lat="38.12927667" lon="-4.90984167">
        <ele>490.0</ele>
        <time>2018-10-06T08:52:18.000Z</time>
      </trkpt>
      <trkpt lat="38.12927667" lon="-4.90984167">
        <ele>490.0</ele>
        <time>2018-10-06T08:52:19.000Z</time>
      </trkpt>
      <trkpt lat="38.12927667" lon="-4.90984167">
        <ele>490.0</ele>
        <time>2018-10-06T08:52:20.000Z</time>
      </trkpt>
      <trkpt lat="38.12927667" lon="-4.90984167">
        <ele>490.0</ele>
        <time>2018-10-06T08:52:21.000Z</time>
      </trkpt>
      <trkpt lat="38.12927667" lon="-4.90984167">
        <ele>490.0</ele>
        <time>2018-10-06T08:52:22.000Z</time>
      </trkpt>
      <trkpt lat="38.12927667" lon="-4.90984167">
        <ele>490.0</ele>
        <time>2018-10-06T08:52:23.000Z</time>
      </trkpt>
      <trkpt lat="38.12927667" lon="-4.90984167">
        <ele>490.0</ele>
        <time>2018-10-06T08:52:24.000Z</time>
      </trkpt>
      <trkpt lat="38.12927667" lon="-4.90984167">
        <ele>490.0</ele>
        <time>2018-10-06T08:52:25.000Z</time>
      </trkpt>
      <trkpt lat="38.129045" lon="-4.90932">
        <ele>483.0</ele>
        <time>2018-10-06T08:52:26.000Z</time>
      </trkpt>
      <trkpt lat="38.12903167" lon="-4.909305">
        <ele>483.0</ele>
        <time>2018-10-06T08:52:27.000Z</time>
      </trkpt>
      <trkpt lat="38.12902" lon="-4.909285">
        <ele>482.0</ele>
        <time>2018-10-06T08:52:28.000Z</time>
      </trkpt>
      <trkpt lat="38.129005" lon="-4.909265">
        <ele>482.0</ele>
        <time>2018-10-06T08:52:29.000Z</time>
      </trkpt>
      <trkpt lat="38.12899333" lon="-4.909245">
        <ele>482.0</ele>
        <time>2018-10-06T08:52:30.000Z</time>
      </trkpt>
      <trkpt lat="38.12898" lon="-4.90922667">
        <ele>482.0</ele>
        <time>2018-10-06T08:52:31.000Z</time>
      </trkpt>
      <trkpt lat="38.12896833" lon="-4.90920667">
        <ele>483.0</ele>
        <time>2018-10-06T08:52:32.000Z</time>
      </trkpt>
      <trkpt lat="38.12895667" lon="-4.90918833">
        <ele>483.0</ele>
        <time>2018-10-06T08:52:33.000Z</time>
      </trkpt>
      <trkpt lat="38.12894667" lon="-4.90917">
        <ele>483.0</ele>
        <time>2018-10-06T08:52:34.000Z</time>
      </trkpt>
      <trkpt lat="38.12893667" lon="-4.90915167">
        <ele>483.0</ele>
        <time>2018-10-06T08:52:35.000Z</time>
      </trkpt>
      <trkpt lat="38.12892667" lon="-4.90913333">
        <ele>483.0</ele>
        <time>2018-10-06T08:52:36.000Z</time>
      </trkpt>
      <trkpt lat="38.12891667" lon="-4.90911833">
        <ele>483.0</ele>
        <time>2018-10-06T08:52:37.000Z</time>
      </trkpt>
      <trkpt lat="38.12891667" lon="-4.90911833">
        <ele>483.0</ele>
        <time>2018-10-06T08:52:38.000Z</time>
      </trkpt>
      <trkpt lat="38.12891667" lon="-4.90911833">
        <ele>483.0</ele>
        <time>2018-10-06T08:52:39.000Z</time>
      </trkpt>
      <trkpt lat="38.12891667" lon="-4.90911833">
        <ele>483.0</ele>
        <time>2018-10-06T08:52:40.000Z</time>
      </trkpt>
      <trkpt lat="38.12891667" lon="-4.90911833">
        <ele>483.0</ele>
        <time>2018-10-06T08:52:41.000Z</time>
      </trkpt>
      <trkpt lat="38.12891667" lon="-4.90911833">
        <ele>483.0</ele>
        <time>2018-10-06T08:52:42.000Z</time>
      </trkpt>
      <trkpt lat="38.12891667" lon="-4.90911833">
        <ele>483.0</ele>
        <time>2018-10-06T08:52:43.000Z</time>
      </trkpt>
      <trkpt lat="38.12891667" lon="-4.90911833">
        <ele>483.0</ele>
        <time>2018-10-06T08:52:44.000Z</time>
      </trkpt>
      <trkpt lat="38.12891667" lon="-4.90911833">
        <ele>483.0</ele>
        <time>2018-10-06T08:52:45.000Z</time>
      </trkpt>
      <trkpt lat="38.12891667" lon="-4.90911833">
        <ele>483.0</ele>
        <time>2018-10-06T08:52:46.000Z</time>
      </trkpt>
      <trkpt lat="38.12891667" lon="-4.90911833">
        <ele>483.0</ele>
        <time>2018-10-06T08:52:47.000Z</time>
      </trkpt>
      <trkpt lat="38.12891667" lon="-4.90911833">
        <ele>483.0</ele>
        <time>2018-10-06T08:52:48.000Z</time>
      </trkpt>
      <trkpt lat="38.12891667" lon="-4.90911833">
        <ele>483.0</ele>
        <time>2018-10-06T08:52:49.000Z</time>
      </trkpt>
      <trkpt lat="38.12891667" lon="-4.90911833">
        <ele>483.0</ele>
        <time>2018-10-06T08:52:50.000Z</time>
      </trkpt>
      <trkpt lat="38.12891667" lon="-4.90911833">
        <ele>483.0</ele>
        <time>2018-10-06T08:52:51.000Z</time>
      </trkpt>
      <trkpt lat="38.12891667" lon="-4.90911833">
        <ele>483.0</ele>
        <time>2018-10-06T08:52:52.000Z</time>
      </trkpt>
      <trkpt lat="38.12891667" lon="-4.90911833">
        <ele>483.0</ele>
        <time>2018-10-06T08:52:53.000Z</time>
      </trkpt>
      <trkpt lat="38.12891667" lon="-4.90911833">
        <ele>483.0</ele>
        <time>2018-10-06T08:52:54.000Z</time>
      </trkpt>
      <trkpt lat="38.12891667" lon="-4.90911833">
        <ele>483.0</ele>
        <time>2018-10-06T08:52:55.000Z</time>
      </trkpt>
      <trkpt lat="38.12891667" lon="-4.90911833">
        <ele>483.0</ele>
        <time>2018-10-06T08:52:56.000Z</time>
      </trkpt>
      <trkpt lat="38.12891667" lon="-4.90911833">
        <ele>483.0</ele>
        <time>2018-10-06T08:52:57.000Z</time>
      </trkpt>
      <trkpt lat="38.12891667" lon="-4.90911833">
        <ele>483.0</ele>
        <time>2018-10-06T08:52:58.000Z</time>
      </trkpt>
      <trkpt lat="38.12891667" lon="-4.90911833">
        <ele>483.0</ele>
        <time>2018-10-06T08:52:59.000Z</time>
      </trkpt>
      <trkpt lat="38.12891667" lon="-4.90911833">
        <ele>483.0</ele>
        <time>2018-10-06T08:53:00.000Z</time>
      </trkpt>
      <trkpt lat="38.12891667" lon="-4.90911833">
        <ele>483.0</ele>
        <time>2018-10-06T08:53:01.000Z</time>
      </trkpt>
      <trkpt lat="38.12891667" lon="-4.90911833">
        <ele>483.0</ele>
        <time>2018-10-06T08:53:02.000Z</time>
      </trkpt>
      <trkpt lat="38.12891667" lon="-4.90911833">
        <ele>483.0</ele>
        <time>2018-10-06T08:53:03.000Z</time>
      </trkpt>
      <trkpt lat="38.12891667" lon="-4.90911833">
        <ele>483.0</ele>
        <time>2018-10-06T08:53:04.000Z</time>
      </trkpt>
      <trkpt lat="38.12891667" lon="-4.90911833">
        <ele>483.0</ele>
        <time>2018-10-06T08:53:05.000Z</time>
      </trkpt>
      <trkpt lat="38.12891667" lon="-4.90911833">
        <ele>483.0</ele>
        <time>2018-10-06T08:53:06.000Z</time>
      </trkpt>
      <trkpt lat="38.12891667" lon="-4.90911833">
        <ele>483.0</ele>
        <time>2018-10-06T08:53:07.000Z</time>
      </trkpt>
      <trkpt lat="38.12891667" lon="-4.90911833">
        <ele>483.0</ele>
        <time>2018-10-06T08:53:08.000Z</time>
      </trkpt>
      <trkpt lat="38.12891667" lon="-4.90911833">
        <ele>483.0</ele>
        <time>2018-10-06T08:53:09.000Z</time>
      </trkpt>
      <trkpt lat="38.12891667" lon="-4.90911833">
        <ele>483.0</ele>
        <time>2018-10-06T08:53:10.000Z</time>
      </trkpt>
      <trkpt lat="38.12891667" lon="-4.90911833">
        <ele>483.0</ele>
        <time>2018-10-06T08:53:11.000Z</time>
      </trkpt>
      <trkpt lat="38.12891667" lon="-4.90911833">
        <ele>483.0</ele>
        <time>2018-10-06T08:53:12.000Z</time>
      </trkpt>
      <trkpt lat="38.12891667" lon="-4.90911833">
        <ele>483.0</ele>
        <time>2018-10-06T08:53:13.000Z</time>
      </trkpt>
      <trkpt lat="38.12891667" lon="-4.90911833">
        <ele>483.0</ele>
        <time>2018-10-06T08:53:14.000Z</time>
      </trkpt>
      <trkpt lat="38.12891667" lon="-4.90911833">
        <ele>483.0</ele>
        <time>2018-10-06T08:53:15.000Z</time>
      </trkpt>
      <trkpt lat="38.12891667" lon="-4.90911833">
        <ele>483.0</ele>
        <time>2018-10-06T08:53:16.000Z</time>
      </trkpt>
      <trkpt lat="38.12891667" lon="-4.90911833">
        <ele>483.0</ele>
        <time>2018-10-06T08:53:17.000Z</time>
      </trkpt>
      <trkpt lat="38.12891667" lon="-4.90911833">
        <ele>483.0</ele>
        <time>2018-10-06T08:53:18.000Z</time>
      </trkpt>
      <trkpt lat="38.12891667" lon="-4.90911833">
        <ele>483.0</ele>
        <time>2018-10-06T08:53:19.000Z</time>
      </trkpt>
      <trkpt lat="38.12891667" lon="-4.90911833">
        <ele>483.0</ele>
        <time>2018-10-06T08:53:20.000Z</time>
      </trkpt>
      <trkpt lat="38.12891667" lon="-4.90911833">
        <ele>483.0</ele>
        <time>2018-10-06T08:53:21.000Z</time>
      </trkpt>
      <trkpt lat="38.12891667" lon="-4.90911833">
        <ele>483.0</ele>
        <time>2018-10-06T08:53:22.000Z</time>
      </trkpt>
      <trkpt lat="38.12891667" lon="-4.90911833">
        <ele>483.0</ele>
        <time>2018-10-06T08:53:23.000Z</time>
      </trkpt>
      <trkpt lat="38.12891667" lon="-4.90911833">
        <ele>483.0</ele>
        <time>2018-10-06T08:53:24.000Z</time>
      </trkpt>
      <trkpt lat="38.12891667" lon="-4.90911833">
        <ele>483.0</ele>
        <time>2018-10-06T08:53:25.000Z</time>
      </trkpt>
      <trkpt lat="38.12889333" lon="-4.90852833">
        <ele>502.0</ele>
        <time>2018-10-06T08:53:26.000Z</time>
      </trkpt>
      <trkpt lat="38.12886333" lon="-4.9085">
        <ele>500.0</ele>
        <time>2018-10-06T08:53:27.000Z</time>
      </trkpt>
      <trkpt lat="38.12884667" lon="-4.90847667">
        <ele>499.0</ele>
        <time>2018-10-06T08:53:28.000Z</time>
      </trkpt>
      <trkpt lat="38.12883" lon="-4.908455">
        <ele>497.0</ele>
        <time>2018-10-06T08:53:29.000Z</time>
      </trkpt>
      <trkpt lat="38.12881333" lon="-4.908435">
        <ele>496.0</ele>
        <time>2018-10-06T08:53:30.000Z</time>
      </trkpt>
      <trkpt lat="38.12879833" lon="-4.908415">
        <ele>495.0</ele>
        <time>2018-10-06T08:53:31.000Z</time>
      </trkpt>
      <trkpt lat="38.12878167" lon="-4.90839667">
        <ele>494.0</ele>
        <time>2018-10-06T08:53:32.000Z</time>
      </trkpt>
      <trkpt lat="38.12876667" lon="-4.90837667">
        <ele>494.0</ele>
        <time>2018-10-06T08:53:33.000Z</time>
      </trkpt>
      <trkpt lat="38.12875333" lon="-4.90835667">
        <ele>493.0</ele>
        <time>2018-10-06T08:53:34.000Z</time>
      </trkpt>
      <trkpt lat="38.12874167" lon="-4.90834">
        <ele>492.0</ele>
        <time>2018-10-06T08:53:35.000Z</time>
      </trkpt>
      <trkpt lat="38.12873" lon="-4.90832333">
        <ele>492.0</ele>
        <time>2018-10-06T08:53:36.000Z</time>
      </trkpt>
      <trkpt lat="38.12872" lon="-4.90830833">
        <ele>491.0</ele>
        <time>2018-10-06T08:53:37.000Z</time>
      </trkpt>
      <trkpt lat="38.12872" lon="-4.90830833">
        <ele>491.0</ele>
        <time>2018-10-06T08:53:38.000Z</time>
      </trkpt>
      <trkpt lat="38.12872" lon="-4.90830833">
        <ele>491.0</ele>
        <time>2018-10-06T08:53:39.000Z</time>
      </trkpt>
      <trkpt lat="38.12872" lon="-4.90830833">
        <ele>491.0</ele>
        <time>2018-10-06T08:53:40.000Z</time>
      </trkpt>
      <trkpt lat="38.12872" lon="-4.90830833">
        <ele>491.0</ele>
        <time>2018-10-06T08:53:41.000Z</time>
      </trkpt>
      <trkpt lat="38.12872" lon="-4.90830833">
        <ele>491.0</ele>
        <time>2018-10-06T08:53:42.000Z</time>
      </trkpt>
      <trkpt lat="38.12872" lon="-4.90830833">
        <ele>491.0</ele>
        <time>2018-10-06T08:53:43.000Z</time>
      </trkpt>
      <trkpt lat="38.12872" lon="-4.90830833">
        <ele>491.0</ele>
        <time>2018-10-06T08:53:44.000Z</time>
      </trkpt>
      <trkpt lat="38.12872" lon="-4.90830833">
        <ele>491.0</ele>
        <time>2018-10-06T08:53:45.000Z</time>
      </trkpt>
      <trkpt lat="38.12872" lon="-4.90830833">
        <ele>491.0</ele>
        <time>2018-10-06T08:53:46.000Z</time>
      </trkpt>
      <trkpt lat="38.12872" lon="-4.90830833">
        <ele>491.0</ele>
        <time>2018-10-06T08:53:47.000Z</time>
      </trkpt>
      <trkpt lat="38.12872" lon="-4.90830833">
        <ele>491.0</ele>
        <time>2018-10-06T08:53:48.000Z</time>
      </trkpt>
      <trkpt lat="38.12872" lon="-4.90830833">
        <ele>491.0</ele>
        <time>2018-10-06T08:53:49.000Z</time>
      </trkpt>
      <trkpt lat="38.12872" lon="-4.90830833">
        <ele>491.0</ele>
        <time>2018-10-06T08:53:50.000Z</time>
      </trkpt>
      <trkpt lat="38.12872" lon="-4.90830833">
        <ele>491.0</ele>
        <time>2018-10-06T08:53:51.000Z</time>
      </trkpt>
      <trkpt lat="38.12872" lon="-4.90830833">
        <ele>491.0</ele>
        <time>2018-10-06T08:53:52.000Z</time>
      </trkpt>
      <trkpt lat="38.12872" lon="-4.90830833">
        <ele>491.0</ele>
        <time>2018-10-06T08:53:53.000Z</time>
      </trkpt>
      <trkpt lat="38.12872" lon="-4.90830833">
        <ele>491.0</ele>
        <time>2018-10-06T08:53:54.000Z</time>
      </trkpt>
      <trkpt lat="38.12872" lon="-4.90830833">
        <ele>491.0</ele>
        <time>2018-10-06T08:53:55.000Z</time>
      </trkpt>
      <trkpt lat="38.12872" lon="-4.90830833">
        <ele>491.0</ele>
        <time>2018-10-06T08:53:56.000Z</time>
      </trkpt>
      <trkpt lat="38.12872" lon="-4.90830833">
        <ele>491.0</ele>
        <time>2018-10-06T08:53:57.000Z</time>
      </trkpt>
      <trkpt lat="38.12872" lon="-4.90830833">
        <ele>491.0</ele>
        <time>2018-10-06T08:53:58.000Z</time>
      </trkpt>
      <trkpt lat="38.12872" lon="-4.90830833">
        <ele>491.0</ele>
        <time>2018-10-06T08:53:59.000Z</time>
      </trkpt>
      <trkpt lat="38.12872" lon="-4.90830833">
        <ele>491.0</ele>
        <time>2018-10-06T08:54:00.000Z</time>
      </trkpt>
      <trkpt lat="38.128675" lon="-4.90806667">
        <ele>501.0</ele>
        <time>2018-10-06T08:54:02.000Z</time>
      </trkpt>
      <trkpt lat="38.12865667" lon="-4.90805">
        <ele>500.0</ele>
        <time>2018-10-06T08:54:03.000Z</time>
      </trkpt>
      <trkpt lat="38.128645" lon="-4.90803333">
        <ele>499.0</ele>
        <time>2018-10-06T08:54:04.000Z</time>
      </trkpt>
      <trkpt lat="38.12863" lon="-4.90801167">
        <ele>498.0</ele>
        <time>2018-10-06T08:54:05.000Z</time>
      </trkpt>
      <trkpt lat="38.128615" lon="-4.90799167">
        <ele>497.0</ele>
        <time>2018-10-06T08:54:06.000Z</time>
      </trkpt>
      <trkpt lat="38.12860167" lon="-4.90797167">
        <ele>496.0</ele>
        <time>2018-10-06T08:54:07.000Z</time>
      </trkpt>
      <trkpt lat="38.12859167" lon="-4.907955">
        <ele>495.0</ele>
        <time>2018-10-06T08:54:08.000Z</time>
      </trkpt>
      <trkpt lat="38.12858" lon="-4.907935">
        <ele>494.0</ele>
        <time>2018-10-06T08:54:09.000Z</time>
      </trkpt>
      <trkpt lat="38.12856833" lon="-4.90791833">
        <ele>494.0</ele>
        <time>2018-10-06T08:54:10.000Z</time>
      </trkpt>
      <trkpt lat="38.12855833" lon="-4.90789833">
        <ele>493.0</ele>
        <time>2018-10-06T08:54:11.000Z</time>
      </trkpt>
      <trkpt lat="38.12855" lon="-4.90788167">
        <ele>492.0</ele>
        <time>2018-10-06T08:54:12.000Z</time>
      </trkpt>
      <trkpt lat="38.12854" lon="-4.90786333">
        <ele>492.0</ele>
        <time>2018-10-06T08:54:13.000Z</time>
      </trkpt>
      <trkpt lat="38.12853" lon="-4.907845">
        <ele>491.0</ele>
        <time>2018-10-06T08:54:14.000Z</time>
      </trkpt>
      <trkpt lat="38.12852167" lon="-4.90782833">
        <ele>490.0</ele>
        <time>2018-10-06T08:54:15.000Z</time>
      </trkpt>
      <trkpt lat="38.12851333" lon="-4.90781167">
        <ele>490.0</ele>
        <time>2018-10-06T08:54:16.000Z</time>
      </trkpt>
      <trkpt lat="38.128505" lon="-4.907795">
        <ele>489.0</ele>
        <time>2018-10-06T08:54:17.000Z</time>
      </trkpt>
      <trkpt lat="38.12849833" lon="-4.90777833">
        <ele>488.0</ele>
        <time>2018-10-06T08:54:18.000Z</time>
      </trkpt>
      <trkpt lat="38.12849167" lon="-4.90776333">
        <ele>488.0</ele>
        <time>2018-10-06T08:54:19.000Z</time>
      </trkpt>
      <trkpt lat="38.12848333" lon="-4.90774667">
        <ele>488.0</ele>
        <time>2018-10-06T08:54:20.000Z</time>
      </trkpt>
      <trkpt lat="38.128475" lon="-4.90772833">
        <ele>487.0</ele>
        <time>2018-10-06T08:54:21.000Z</time>
      </trkpt>
      <trkpt lat="38.12846833" lon="-4.90771333">
        <ele>487.0</ele>
        <time>2018-10-06T08:54:22.000Z</time>
      </trkpt>
      <trkpt lat="38.128465" lon="-4.9077">
        <ele>487.0</ele>
        <time>2018-10-06T08:54:23.000Z</time>
      </trkpt>
      <trkpt lat="38.12846" lon="-4.90768833">
        <ele>487.0</ele>
        <time>2018-10-06T08:54:24.000Z</time>
      </trkpt>
      <trkpt lat="38.128455" lon="-4.90767667">
        <ele>487.0</ele>
        <time>2018-10-06T08:54:25.000Z</time>
      </trkpt>
      <trkpt lat="38.12845" lon="-4.90766333">
        <ele>487.0</ele>
        <time>2018-10-06T08:54:26.000Z</time>
      </trkpt>
      <trkpt lat="38.128445" lon="-4.90764833">
        <ele>487.0</ele>
        <time>2018-10-06T08:54:27.000Z</time>
      </trkpt>
      <trkpt lat="38.12843667" lon="-4.90763333">
        <ele>487.0</ele>
        <time>2018-10-06T08:54:28.000Z</time>
      </trkpt>
      <trkpt lat="38.12843167" lon="-4.90761833">
        <ele>487.0</ele>
        <time>2018-10-06T08:54:29.000Z</time>
      </trkpt>
      <trkpt lat="38.128425" lon="-4.90760333">
        <ele>487.0</ele>
        <time>2018-10-06T08:54:30.000Z</time>
      </trkpt>
      <trkpt lat="38.12842" lon="-4.90758833">
        <ele>487.0</ele>
        <time>2018-10-06T08:54:31.000Z</time>
      </trkpt>
      <trkpt lat="38.12841333" lon="-4.907575">
        <ele>487.0</ele>
        <time>2018-10-06T08:54:32.000Z</time>
      </trkpt>
      <trkpt lat="38.12840833" lon="-4.90756167">
        <ele>487.0</ele>
        <time>2018-10-06T08:54:33.000Z</time>
      </trkpt>
      <trkpt lat="38.12840333" lon="-4.90754833">
        <ele>486.0</ele>
        <time>2018-10-06T08:54:34.000Z</time>
      </trkpt>
      <trkpt lat="38.12839833" lon="-4.90753333">
        <ele>486.0</ele>
        <time>2018-10-06T08:54:35.000Z</time>
      </trkpt>
      <trkpt lat="38.12839167" lon="-4.90751833">
        <ele>486.0</ele>
        <time>2018-10-06T08:54:36.000Z</time>
      </trkpt>
      <trkpt lat="38.128385" lon="-4.907505">
        <ele>486.0</ele>
        <time>2018-10-06T08:54:37.000Z</time>
      </trkpt>
      <trkpt lat="38.12837833" lon="-4.90749167">
        <ele>486.0</ele>
        <time>2018-10-06T08:54:38.000Z</time>
      </trkpt>
      <trkpt lat="38.12837333" lon="-4.907475">
        <ele>486.0</ele>
        <time>2018-10-06T08:54:39.000Z</time>
      </trkpt>
      <trkpt lat="38.12837" lon="-4.90746167">
        <ele>486.0</ele>
        <time>2018-10-06T08:54:40.000Z</time>
      </trkpt>
      <trkpt lat="38.128365" lon="-4.90744833">
        <ele>486.0</ele>
        <time>2018-10-06T08:54:41.000Z</time>
      </trkpt>
      <trkpt lat="38.12836167" lon="-4.907435">
        <ele>486.0</ele>
        <time>2018-10-06T08:54:42.000Z</time>
      </trkpt>
      <trkpt lat="38.12835667" lon="-4.90742167">
        <ele>486.0</ele>
        <time>2018-10-06T08:54:43.000Z</time>
      </trkpt>
      <trkpt lat="38.12835333" lon="-4.90740667">
        <ele>486.0</ele>
        <time>2018-10-06T08:54:44.000Z</time>
      </trkpt>
      <trkpt lat="38.12834833" lon="-4.90739333">
        <ele>486.0</ele>
        <time>2018-10-06T08:54:45.000Z</time>
      </trkpt>
      <trkpt lat="38.12834333" lon="-4.90737833">
        <ele>486.0</ele>
        <time>2018-10-06T08:54:46.000Z</time>
      </trkpt>
      <trkpt lat="38.12834" lon="-4.907365">
        <ele>486.0</ele>
        <time>2018-10-06T08:54:47.000Z</time>
      </trkpt>
      <trkpt lat="38.128335" lon="-4.90735167">
        <ele>486.0</ele>
        <time>2018-10-06T08:54:48.000Z</time>
      </trkpt>
      <trkpt lat="38.12833" lon="-4.90734">
        <ele>486.0</ele>
        <time>2018-10-06T08:54:49.000Z</time>
      </trkpt>
      <trkpt lat="38.128325" lon="-4.90732833">
        <ele>486.0</ele>
        <time>2018-10-06T08:54:50.000Z</time>
      </trkpt>
      <trkpt lat="38.12832" lon="-4.907315">
        <ele>486.0</ele>
        <time>2018-10-06T08:54:51.000Z</time>
      </trkpt>
      <trkpt lat="38.12831667" lon="-4.90730167">
        <ele>486.0</ele>
        <time>2018-10-06T08:54:52.000Z</time>
      </trkpt>
      <trkpt lat="38.12831333" lon="-4.90729">
        <ele>486.0</ele>
        <time>2018-10-06T08:54:53.000Z</time>
      </trkpt>
      <trkpt lat="38.12830833" lon="-4.90727333">
        <ele>486.0</ele>
        <time>2018-10-06T08:54:54.000Z</time>
      </trkpt>
      <trkpt lat="38.12830333" lon="-4.90726">
        <ele>486.0</ele>
        <time>2018-10-06T08:54:55.000Z</time>
      </trkpt>
      <trkpt lat="38.12829833" lon="-4.90724667">
        <ele>486.0</ele>
        <time>2018-10-06T08:54:56.000Z</time>
      </trkpt>
      <trkpt lat="38.12829333" lon="-4.90723167">
        <ele>486.0</ele>
        <time>2018-10-06T08:54:57.000Z</time>
      </trkpt>
      <trkpt lat="38.12829" lon="-4.90722">
        <ele>486.0</ele>
        <time>2018-10-06T08:54:58.000Z</time>
      </trkpt>
      <trkpt lat="38.12828667" lon="-4.90720667">
        <ele>486.0</ele>
        <time>2018-10-06T08:54:59.000Z</time>
      </trkpt>
      <trkpt lat="38.12828167" lon="-4.90719333">
        <ele>486.0</ele>
        <time>2018-10-06T08:55:00.000Z</time>
      </trkpt>
      <trkpt lat="38.12827667" lon="-4.90718">
        <ele>486.0</ele>
        <time>2018-10-06T08:55:01.000Z</time>
      </trkpt>
      <trkpt lat="38.12827667" lon="-4.90718">
        <ele>486.0</ele>
        <time>2018-10-06T08:55:02.000Z</time>
      </trkpt>
      <trkpt lat="38.12827667" lon="-4.90718">
        <ele>486.0</ele>
        <time>2018-10-06T08:55:03.000Z</time>
      </trkpt>
      <trkpt lat="38.12827667" lon="-4.90718">
        <ele>486.0</ele>
        <time>2018-10-06T08:55:04.000Z</time>
      </trkpt>
      <trkpt lat="38.12827667" lon="-4.90718">
        <ele>486.0</ele>
        <time>2018-10-06T08:55:05.000Z</time>
      </trkpt>
      <trkpt lat="38.12827667" lon="-4.90718">
        <ele>486.0</ele>
        <time>2018-10-06T08:55:06.000Z</time>
      </trkpt>
      <trkpt lat="38.12827667" lon="-4.90718">
        <ele>486.0</ele>
        <time>2018-10-06T08:55:07.000Z</time>
      </trkpt>
      <trkpt lat="38.12827667" lon="-4.90718">
        <ele>486.0</ele>
        <time>2018-10-06T08:55:08.000Z</time>
      </trkpt>
      <trkpt lat="38.12827667" lon="-4.90718">
        <ele>486.0</ele>
        <time>2018-10-06T08:55:09.000Z</time>
      </trkpt>
      <trkpt lat="38.12827667" lon="-4.90718">
        <ele>486.0</ele>
        <time>2018-10-06T08:55:10.000Z</time>
      </trkpt>
      <trkpt lat="38.12827667" lon="-4.90718">
        <ele>486.0</ele>
        <time>2018-10-06T08:55:11.000Z</time>
      </trkpt>
      <trkpt lat="38.12827667" lon="-4.90718">
        <ele>486.0</ele>
        <time>2018-10-06T08:55:12.000Z</time>
      </trkpt>
      <trkpt lat="38.12827667" lon="-4.90718">
        <ele>486.0</ele>
        <time>2018-10-06T08:55:13.000Z</time>
      </trkpt>
      <trkpt lat="38.12827667" lon="-4.90718">
        <ele>486.0</ele>
        <time>2018-10-06T08:55:14.000Z</time>
      </trkpt>
      <trkpt lat="38.12827667" lon="-4.90718">
        <ele>486.0</ele>
        <time>2018-10-06T08:55:15.000Z</time>
      </trkpt>
      <trkpt lat="38.12827667" lon="-4.90718">
        <ele>486.0</ele>
        <time>2018-10-06T08:55:16.000Z</time>
      </trkpt>
      <trkpt lat="38.12827667" lon="-4.90718">
        <ele>486.0</ele>
        <time>2018-10-06T08:55:17.000Z</time>
      </trkpt>
      <trkpt lat="38.12827667" lon="-4.90718">
        <ele>486.0</ele>
        <time>2018-10-06T08:55:18.000Z</time>
      </trkpt>
      <trkpt lat="38.12827667" lon="-4.90718">
        <ele>486.0</ele>
        <time>2018-10-06T08:55:19.000Z</time>
      </trkpt>
      <trkpt lat="38.12827667" lon="-4.90718">
        <ele>486.0</ele>
        <time>2018-10-06T08:55:20.000Z</time>
      </trkpt>
      <trkpt lat="38.12827667" lon="-4.90718">
        <ele>486.0</ele>
        <time>2018-10-06T08:55:21.000Z</time>
      </trkpt>
      <trkpt lat="38.12827667" lon="-4.90718">
        <ele>486.0</ele>
        <time>2018-10-06T08:55:22.000Z</time>
      </trkpt>
      <trkpt lat="38.12827667" lon="-4.90718">
        <ele>486.0</ele>
        <time>2018-10-06T08:55:23.000Z</time>
      </trkpt>
      <trkpt lat="38.12827667" lon="-4.90718">
        <ele>486.0</ele>
        <time>2018-10-06T08:55:24.000Z</time>
      </trkpt>
      <trkpt lat="38.12827667" lon="-4.90718">
        <ele>486.0</ele>
        <time>2018-10-06T08:55:25.000Z</time>
      </trkpt>
      <trkpt lat="38.12827667" lon="-4.90718">
        <ele>486.0</ele>
        <time>2018-10-06T08:55:26.000Z</time>
      </trkpt>
      <trkpt lat="38.12827667" lon="-4.90718">
        <ele>486.0</ele>
        <time>2018-10-06T08:55:27.000Z</time>
      </trkpt>
      <trkpt lat="38.12827667" lon="-4.90718">
        <ele>486.0</ele>
        <time>2018-10-06T08:55:28.000Z</time>
      </trkpt>
      <trkpt lat="38.12827667" lon="-4.90718">
        <ele>486.0</ele>
        <time>2018-10-06T08:55:29.000Z</time>
      </trkpt>
      <trkpt lat="38.12827667" lon="-4.90718">
        <ele>486.0</ele>
        <time>2018-10-06T08:55:30.000Z</time>
      </trkpt>
      <trkpt lat="38.12827667" lon="-4.90718">
        <ele>486.0</ele>
        <time>2018-10-06T08:55:31.000Z</time>
      </trkpt>
      <trkpt lat="38.12827667" lon="-4.90718">
        <ele>486.0</ele>
        <time>2018-10-06T08:55:32.000Z</time>
      </trkpt>
      <trkpt lat="38.12827667" lon="-4.90718">
        <ele>486.0</ele>
        <time>2018-10-06T08:55:33.000Z</time>
      </trkpt>
      <trkpt lat="38.12827667" lon="-4.90718">
        <ele>486.0</ele>
        <time>2018-10-06T08:55:34.000Z</time>
      </trkpt>
      <trkpt lat="38.12827667" lon="-4.90718">
        <ele>486.0</ele>
        <time>2018-10-06T08:55:35.000Z</time>
      </trkpt>
      <trkpt lat="38.12827667" lon="-4.90718">
        <ele>486.0</ele>
        <time>2018-10-06T08:55:36.000Z</time>
      </trkpt>
      <trkpt lat="38.12827667" lon="-4.90718">
        <ele>486.0</ele>
        <time>2018-10-06T08:55:37.000Z</time>
      </trkpt>
      <trkpt lat="38.12827667" lon="-4.90718">
        <ele>486.0</ele>
        <time>2018-10-06T08:55:38.000Z</time>
      </trkpt>
      <trkpt lat="38.12827667" lon="-4.90718">
        <ele>486.0</ele>
        <time>2018-10-06T08:55:39.000Z</time>
      </trkpt>
      <trkpt lat="38.12827667" lon="-4.90718">
        <ele>486.0</ele>
        <time>2018-10-06T08:55:40.000Z</time>
      </trkpt>
      <trkpt lat="38.12827667" lon="-4.90718">
        <ele>486.0</ele>
        <time>2018-10-06T08:55:41.000Z</time>
      </trkpt>
      <trkpt lat="38.12827667" lon="-4.90718">
        <ele>486.0</ele>
        <time>2018-10-06T08:55:42.000Z</time>
      </trkpt>
      <trkpt lat="38.12827667" lon="-4.90718">
        <ele>486.0</ele>
        <time>2018-10-06T08:55:43.000Z</time>
      </trkpt>
      <trkpt lat="38.12827667" lon="-4.90718">
        <ele>486.0</ele>
        <time>2018-10-06T08:55:44.000Z</time>
      </trkpt>
      <trkpt lat="38.12827667" lon="-4.90718">
        <ele>486.0</ele>
        <time>2018-10-06T08:55:45.000Z</time>
      </trkpt>
      <trkpt lat="38.12827667" lon="-4.90718">
        <ele>486.0</ele>
        <time>2018-10-06T08:55:46.000Z</time>
      </trkpt>
      <trkpt lat="38.12827667" lon="-4.90718">
        <ele>486.0</ele>
        <time>2018-10-06T08:55:47.000Z</time>
      </trkpt>
      <trkpt lat="38.12827667" lon="-4.90718">
        <ele>486.0</ele>
        <time>2018-10-06T08:55:48.000Z</time>
      </trkpt>
      <trkpt lat="38.12827667" lon="-4.90718">
        <ele>486.0</ele>
        <time>2018-10-06T08:55:49.000Z</time>
      </trkpt>
      <trkpt lat="38.12827667" lon="-4.90718">
        <ele>486.0</ele>
        <time>2018-10-06T08:55:50.000Z</time>
      </trkpt>
      <trkpt lat="38.12827667" lon="-4.90718">
        <ele>486.0</ele>
        <time>2018-10-06T08:55:51.000Z</time>
      </trkpt>
      <trkpt lat="38.12827667" lon="-4.90718">
        <ele>486.0</ele>
        <time>2018-10-06T08:55:52.000Z</time>
      </trkpt>
      <trkpt lat="38.12827667" lon="-4.90718">
        <ele>486.0</ele>
        <time>2018-10-06T08:55:53.000Z</time>
      </trkpt>
      <trkpt lat="38.12827667" lon="-4.90718">
        <ele>486.0</ele>
        <time>2018-10-06T08:55:54.000Z</time>
      </trkpt>
      <trkpt lat="38.12827667" lon="-4.90718">
        <ele>486.0</ele>
        <time>2018-10-06T08:55:55.000Z</time>
      </trkpt>
      <trkpt lat="38.12827667" lon="-4.90718">
        <ele>486.0</ele>
        <time>2018-10-06T08:55:56.000Z</time>
      </trkpt>
      <trkpt lat="38.12827667" lon="-4.90718">
        <ele>486.0</ele>
        <time>2018-10-06T08:55:57.000Z</time>
      </trkpt>
      <trkpt lat="38.12827667" lon="-4.90718">
        <ele>486.0</ele>
        <time>2018-10-06T08:55:58.000Z</time>
      </trkpt>
      <trkpt lat="38.12827667" lon="-4.90718">
        <ele>486.0</ele>
        <time>2018-10-06T08:55:59.000Z</time>
      </trkpt>
      <trkpt lat="38.12827667" lon="-4.90718">
        <ele>486.0</ele>
        <time>2018-10-06T08:56:00.000Z</time>
      </trkpt>
      <trkpt lat="38.12827667" lon="-4.90718">
        <ele>486.0</ele>
        <time>2018-10-06T08:56:01.000Z</time>
      </trkpt>
      <trkpt lat="38.12827667" lon="-4.90718">
        <ele>486.0</ele>
        <time>2018-10-06T08:56:02.000Z</time>
      </trkpt>
      <trkpt lat="38.12803" lon="-4.906355">
        <ele>485.0</ele>
        <time>2018-10-06T08:56:04.000Z</time>
      </trkpt>
      <trkpt lat="38.12802667" lon="-4.90634333">
        <ele>485.0</ele>
        <time>2018-10-06T08:56:05.000Z</time>
      </trkpt>
      <trkpt lat="38.12802167" lon="-4.90633167">
        <ele>486.0</ele>
        <time>2018-10-06T08:56:06.000Z</time>
      </trkpt>
      <trkpt lat="38.128015" lon="-4.906315">
        <ele>486.0</ele>
        <time>2018-10-06T08:56:07.000Z</time>
      </trkpt>
      <trkpt lat="38.12800833" lon="-4.90629667">
        <ele>486.0</ele>
        <time>2018-10-06T08:56:08.000Z</time>
      </trkpt>
      <trkpt lat="38.12800333" lon="-4.90628">
        <ele>486.0</ele>
        <time>2018-10-06T08:56:09.000Z</time>
      </trkpt>
      <trkpt lat="38.128" lon="-4.90626333">
        <ele>486.0</ele>
        <time>2018-10-06T08:56:10.000Z</time>
      </trkpt>
      <trkpt lat="38.127995" lon="-4.90624667">
        <ele>486.0</ele>
        <time>2018-10-06T08:56:11.000Z</time>
      </trkpt>
      <trkpt lat="38.12798833" lon="-4.90622833">
        <ele>486.0</ele>
        <time>2018-10-06T08:56:12.000Z</time>
      </trkpt>
      <trkpt lat="38.12798333" lon="-4.90621333">
        <ele>486.0</ele>
        <time>2018-10-06T08:56:13.000Z</time>
      </trkpt>
      <trkpt lat="38.127975" lon="-4.90619833">
        <ele>486.0</ele>
        <time>2018-10-06T08:56:14.000Z</time>
      </trkpt>
      <trkpt lat="38.127975" lon="-4.90619833">
        <ele>486.0</ele>
        <time>2018-10-06T08:56:15.000Z</time>
      </trkpt>
      <trkpt lat="38.127975" lon="-4.90619833">
        <ele>486.0</ele>
        <time>2018-10-06T08:56:16.000Z</time>
      </trkpt>
      <trkpt lat="38.127975" lon="-4.90619833">
        <ele>486.0</ele>
        <time>2018-10-06T08:56:17.000Z</time>
      </trkpt>
      <trkpt lat="38.127975" lon="-4.90619833">
        <ele>486.0</ele>
        <time>2018-10-06T08:56:18.000Z</time>
      </trkpt>
      <trkpt lat="38.127975" lon="-4.90619833">
        <ele>486.0</ele>
        <time>2018-10-06T08:56:19.000Z</time>
      </trkpt>
      <trkpt lat="38.127975" lon="-4.90619833">
        <ele>486.0</ele>
        <time>2018-10-06T08:56:20.000Z</time>
      </trkpt>
      <trkpt lat="38.127975" lon="-4.90619833">
        <ele>486.0</ele>
        <time>2018-10-06T08:56:21.000Z</time>
      </trkpt>
      <trkpt lat="38.127975" lon="-4.90619833">
        <ele>486.0</ele>
        <time>2018-10-06T08:56:22.000Z</time>
      </trkpt>
      <trkpt lat="38.127975" lon="-4.90619833">
        <ele>486.0</ele>
        <time>2018-10-06T08:56:23.000Z</time>
      </trkpt>
      <trkpt lat="38.127975" lon="-4.90619833">
        <ele>486.0</ele>
        <time>2018-10-06T08:56:24.000Z</time>
      </trkpt>
      <trkpt lat="38.127975" lon="-4.90619833">
        <ele>486.0</ele>
        <time>2018-10-06T08:56:25.000Z</time>
      </trkpt>
      <trkpt lat="38.127975" lon="-4.90619833">
        <ele>486.0</ele>
        <time>2018-10-06T08:56:26.000Z</time>
      </trkpt>
      <trkpt lat="38.127975" lon="-4.90619833">
        <ele>486.0</ele>
        <time>2018-10-06T08:56:27.000Z</time>
      </trkpt>
      <trkpt lat="38.127975" lon="-4.90619833">
        <ele>486.0</ele>
        <time>2018-10-06T08:56:28.000Z</time>
      </trkpt>
      <trkpt lat="38.127975" lon="-4.90619833">
        <ele>486.0</ele>
        <time>2018-10-06T08:56:29.000Z</time>
      </trkpt>
      <trkpt lat="38.127975" lon="-4.90619833">
        <ele>486.0</ele>
        <time>2018-10-06T08:56:30.000Z</time>
      </trkpt>
      <trkpt lat="38.127975" lon="-4.90619833">
        <ele>486.0</ele>
        <time>2018-10-06T08:56:31.000Z</time>
      </trkpt>
      <trkpt lat="38.127975" lon="-4.90619833">
        <ele>486.0</ele>
        <time>2018-10-06T08:56:32.000Z</time>
      </trkpt>
      <trkpt lat="38.127975" lon="-4.90619833">
        <ele>486.0</ele>
        <time>2018-10-06T08:56:33.000Z</time>
      </trkpt>
      <trkpt lat="38.127975" lon="-4.90619833">
        <ele>486.0</ele>
        <time>2018-10-06T08:56:34.000Z</time>
      </trkpt>
      <trkpt lat="38.127975" lon="-4.90619833">
        <ele>486.0</ele>
        <time>2018-10-06T08:56:35.000Z</time>
      </trkpt>
      <trkpt lat="38.127975" lon="-4.90619833">
        <ele>486.0</ele>
        <time>2018-10-06T08:56:36.000Z</time>
      </trkpt>
      <trkpt lat="38.127975" lon="-4.90619833">
        <ele>486.0</ele>
        <time>2018-10-06T08:56:37.000Z</time>
      </trkpt>
      <trkpt lat="38.127975" lon="-4.90619833">
        <ele>486.0</ele>
        <time>2018-10-06T08:56:38.000Z</time>
      </trkpt>
      <trkpt lat="38.127975" lon="-4.90619833">
        <ele>486.0</ele>
        <time>2018-10-06T08:56:39.000Z</time>
      </trkpt>
      <trkpt lat="38.127975" lon="-4.90619833">
        <ele>486.0</ele>
        <time>2018-10-06T08:56:40.000Z</time>
      </trkpt>
      <trkpt lat="38.127975" lon="-4.90619833">
        <ele>486.0</ele>
        <time>2018-10-06T08:56:41.000Z</time>
      </trkpt>
      <trkpt lat="38.127975" lon="-4.90619833">
        <ele>486.0</ele>
        <time>2018-10-06T08:56:42.000Z</time>
      </trkpt>
      <trkpt lat="38.127975" lon="-4.90619833">
        <ele>486.0</ele>
        <time>2018-10-06T08:56:43.000Z</time>
      </trkpt>
      <trkpt lat="38.127975" lon="-4.90619833">
        <ele>486.0</ele>
        <time>2018-10-06T08:56:44.000Z</time>
      </trkpt>
      <trkpt lat="38.127975" lon="-4.90619833">
        <ele>486.0</ele>
        <time>2018-10-06T08:56:45.000Z</time>
      </trkpt>
      <trkpt lat="38.127975" lon="-4.90619833">
        <ele>486.0</ele>
        <time>2018-10-06T08:56:46.000Z</time>
      </trkpt>
      <trkpt lat="38.127975" lon="-4.90619833">
        <ele>486.0</ele>
        <time>2018-10-06T08:56:47.000Z</time>
      </trkpt>
      <trkpt lat="38.127975" lon="-4.90619833">
        <ele>486.0</ele>
        <time>2018-10-06T08:56:48.000Z</time>
      </trkpt>
      <trkpt lat="38.127975" lon="-4.90619833">
        <ele>486.0</ele>
        <time>2018-10-06T08:56:49.000Z</time>
      </trkpt>
      <trkpt lat="38.127975" lon="-4.90619833">
        <ele>486.0</ele>
        <time>2018-10-06T08:56:50.000Z</time>
      </trkpt>
      <trkpt lat="38.127975" lon="-4.90619833">
        <ele>486.0</ele>
        <time>2018-10-06T08:56:51.000Z</time>
      </trkpt>
      <trkpt lat="38.127975" lon="-4.90619833">
        <ele>486.0</ele>
        <time>2018-10-06T08:56:52.000Z</time>
      </trkpt>
      <trkpt lat="38.127975" lon="-4.90619833">
        <ele>486.0</ele>
        <time>2018-10-06T08:56:53.000Z</time>
      </trkpt>
      <trkpt lat="38.127975" lon="-4.90619833">
        <ele>486.0</ele>
        <time>2018-10-06T08:56:54.000Z</time>
      </trkpt>
      <trkpt lat="38.127975" lon="-4.90619833">
        <ele>486.0</ele>
        <time>2018-10-06T08:56:55.000Z</time>
      </trkpt>
      <trkpt lat="38.127975" lon="-4.90619833">
        <ele>486.0</ele>
        <time>2018-10-06T08:56:56.000Z</time>
      </trkpt>
      <trkpt lat="38.127975" lon="-4.90619833">
        <ele>486.0</ele>
        <time>2018-10-06T08:56:57.000Z</time>
      </trkpt>
      <trkpt lat="38.127975" lon="-4.90619833">
        <ele>486.0</ele>
        <time>2018-10-06T08:56:58.000Z</time>
      </trkpt>
      <trkpt lat="38.127975" lon="-4.90619833">
        <ele>486.0</ele>
        <time>2018-10-06T08:56:59.000Z</time>
      </trkpt>
      <trkpt lat="38.127975" lon="-4.90619833">
        <ele>486.0</ele>
        <time>2018-10-06T08:57:00.000Z</time>
      </trkpt>
      <trkpt lat="38.127975" lon="-4.90619833">
        <ele>486.0</ele>
        <time>2018-10-06T08:57:01.000Z</time>
      </trkpt>
      <trkpt lat="38.127975" lon="-4.90619833">
        <ele>486.0</ele>
        <time>2018-10-06T08:57:02.000Z</time>
      </trkpt>
      <trkpt lat="38.12778833" lon="-4.90586167">
        <ele>472.0</ele>
        <time>2018-10-06T08:57:03.000Z</time>
      </trkpt>
      <trkpt lat="38.12778333" lon="-4.90583833">
        <ele>475.0</ele>
        <time>2018-10-06T08:57:04.000Z</time>
      </trkpt>
      <trkpt lat="38.12778167" lon="-4.90582833">
        <ele>476.0</ele>
        <time>2018-10-06T08:57:05.000Z</time>
      </trkpt>
      <trkpt lat="38.12778" lon="-4.90582167">
        <ele>477.0</ele>
        <time>2018-10-06T08:57:06.000Z</time>
      </trkpt>
      <trkpt lat="38.12777667" lon="-4.905815">
        <ele>478.0</ele>
        <time>2018-10-06T08:57:07.000Z</time>
      </trkpt>
      <trkpt lat="38.127775" lon="-4.90581">
        <ele>479.0</ele>
        <time>2018-10-06T08:57:08.000Z</time>
      </trkpt>
      <trkpt lat="38.12777333" lon="-4.90580333">
        <ele>479.0</ele>
        <time>2018-10-06T08:57:09.000Z</time>
      </trkpt>
      <trkpt lat="38.12777" lon="-4.9058">
        <ele>480.0</ele>
        <time>2018-10-06T08:57:10.000Z</time>
      </trkpt>
      <trkpt lat="38.12776833" lon="-4.905795">
        <ele>481.0</ele>
        <time>2018-10-06T08:57:11.000Z</time>
      </trkpt>
      <trkpt lat="38.12776667" lon="-4.90579167">
        <ele>481.0</ele>
        <time>2018-10-06T08:57:12.000Z</time>
      </trkpt>
      <trkpt lat="38.127765" lon="-4.90578667">
        <ele>482.0</ele>
        <time>2018-10-06T08:57:13.000Z</time>
      </trkpt>
      <trkpt lat="38.127765" lon="-4.905785">
        <ele>482.0</ele>
        <time>2018-10-06T08:57:14.000Z</time>
      </trkpt>
      <trkpt lat="38.127765" lon="-4.905785">
        <ele>482.0</ele>
        <time>2018-10-06T08:57:15.000Z</time>
      </trkpt>
      <trkpt lat="38.127765" lon="-4.905785">
        <ele>482.0</ele>
        <time>2018-10-06T08:57:16.000Z</time>
      </trkpt>
      <trkpt lat="38.127765" lon="-4.905785">
        <ele>482.0</ele>
        <time>2018-10-06T08:57:17.000Z</time>
      </trkpt>
      <trkpt lat="38.127765" lon="-4.905785">
        <ele>482.0</ele>
        <time>2018-10-06T08:57:18.000Z</time>
      </trkpt>
      <trkpt lat="38.127765" lon="-4.905785">
        <ele>482.0</ele>
        <time>2018-10-06T08:57:19.000Z</time>
      </trkpt>
      <trkpt lat="38.127765" lon="-4.905785">
        <ele>482.0</ele>
        <time>2018-10-06T08:57:20.000Z</time>
      </trkpt>
      <trkpt lat="38.127765" lon="-4.905785">
        <ele>482.0</ele>
        <time>2018-10-06T08:57:21.000Z</time>
      </trkpt>
      <trkpt lat="38.127765" lon="-4.905785">
        <ele>482.0</ele>
        <time>2018-10-06T08:57:22.000Z</time>
      </trkpt>
      <trkpt lat="38.127765" lon="-4.905785">
        <ele>482.0</ele>
        <time>2018-10-06T08:57:23.000Z</time>
      </trkpt>
      <trkpt lat="38.127765" lon="-4.905785">
        <ele>482.0</ele>
        <time>2018-10-06T08:57:24.000Z</time>
      </trkpt>
      <trkpt lat="38.127765" lon="-4.905785">
        <ele>482.0</ele>
        <time>2018-10-06T08:57:25.000Z</time>
      </trkpt>
      <trkpt lat="38.127765" lon="-4.905785">
        <ele>482.0</ele>
        <time>2018-10-06T08:57:26.000Z</time>
      </trkpt>
      <trkpt lat="38.127765" lon="-4.905785">
        <ele>482.0</ele>
        <time>2018-10-06T08:57:27.000Z</time>
      </trkpt>
      <trkpt lat="38.127765" lon="-4.905785">
        <ele>482.0</ele>
        <time>2018-10-06T08:57:28.000Z</time>
      </trkpt>
      <trkpt lat="38.127765" lon="-4.905785">
        <ele>482.0</ele>
        <time>2018-10-06T08:57:29.000Z</time>
      </trkpt>
      <trkpt lat="38.127765" lon="-4.905785">
        <ele>482.0</ele>
        <time>2018-10-06T08:57:30.000Z</time>
      </trkpt>
      <trkpt lat="38.127765" lon="-4.905785">
        <ele>482.0</ele>
        <time>2018-10-06T08:57:31.000Z</time>
      </trkpt>
      <trkpt lat="38.127765" lon="-4.905785">
        <ele>482.0</ele>
        <time>2018-10-06T08:57:32.000Z</time>
      </trkpt>
      <trkpt lat="38.127765" lon="-4.905785">
        <ele>482.0</ele>
        <time>2018-10-06T08:57:33.000Z</time>
      </trkpt>
      <trkpt lat="38.127765" lon="-4.905785">
        <ele>482.0</ele>
        <time>2018-10-06T08:57:34.000Z</time>
      </trkpt>
      <trkpt lat="38.127765" lon="-4.905785">
        <ele>482.0</ele>
        <time>2018-10-06T08:57:35.000Z</time>
      </trkpt>
      <trkpt lat="38.127765" lon="-4.905785">
        <ele>482.0</ele>
        <time>2018-10-06T08:57:36.000Z</time>
      </trkpt>
      <trkpt lat="38.127765" lon="-4.905785">
        <ele>482.0</ele>
        <time>2018-10-06T08:57:37.000Z</time>
      </trkpt>
      <trkpt lat="38.127765" lon="-4.905785">
        <ele>482.0</ele>
        <time>2018-10-06T08:57:38.000Z</time>
      </trkpt>
      <trkpt lat="38.127765" lon="-4.905785">
        <ele>482.0</ele>
        <time>2018-10-06T08:57:39.000Z</time>
      </trkpt>
      <trkpt lat="38.127765" lon="-4.905785">
        <ele>482.0</ele>
        <time>2018-10-06T08:57:40.000Z</time>
      </trkpt>
      <trkpt lat="38.127765" lon="-4.905785">
        <ele>482.0</ele>
        <time>2018-10-06T08:57:41.000Z</time>
      </trkpt>
      <trkpt lat="38.127765" lon="-4.905785">
        <ele>482.0</ele>
        <time>2018-10-06T08:57:42.000Z</time>
      </trkpt>
      <trkpt lat="38.127765" lon="-4.905785">
        <ele>482.0</ele>
        <time>2018-10-06T08:57:43.000Z</time>
      </trkpt>
      <trkpt lat="38.127765" lon="-4.905785">
        <ele>482.0</ele>
        <time>2018-10-06T08:57:44.000Z</time>
      </trkpt>
      <trkpt lat="38.127765" lon="-4.905785">
        <ele>482.0</ele>
        <time>2018-10-06T08:57:45.000Z</time>
      </trkpt>
      <trkpt lat="38.127765" lon="-4.905785">
        <ele>482.0</ele>
        <time>2018-10-06T08:57:46.000Z</time>
      </trkpt>
      <trkpt lat="38.127765" lon="-4.905785">
        <ele>482.0</ele>
        <time>2018-10-06T08:57:47.000Z</time>
      </trkpt>
      <trkpt lat="38.127765" lon="-4.905785">
        <ele>482.0</ele>
        <time>2018-10-06T08:57:48.000Z</time>
      </trkpt>
      <trkpt lat="38.127765" lon="-4.905785">
        <ele>482.0</ele>
        <time>2018-10-06T08:57:49.000Z</time>
      </trkpt>
      <trkpt lat="38.127765" lon="-4.905785">
        <ele>482.0</ele>
        <time>2018-10-06T08:57:50.000Z</time>
      </trkpt>
      <trkpt lat="38.127765" lon="-4.905785">
        <ele>482.0</ele>
        <time>2018-10-06T08:57:51.000Z</time>
      </trkpt>
      <trkpt lat="38.127765" lon="-4.905785">
        <ele>482.0</ele>
        <time>2018-10-06T08:57:52.000Z</time>
      </trkpt>
      <trkpt lat="38.127765" lon="-4.905785">
        <ele>482.0</ele>
        <time>2018-10-06T08:57:53.000Z</time>
      </trkpt>
      <trkpt lat="38.127765" lon="-4.905785">
        <ele>482.0</ele>
        <time>2018-10-06T08:57:54.000Z</time>
      </trkpt>
      <trkpt lat="38.127765" lon="-4.905785">
        <ele>482.0</ele>
        <time>2018-10-06T08:57:55.000Z</time>
      </trkpt>
      <trkpt lat="38.127765" lon="-4.905785">
        <ele>482.0</ele>
        <time>2018-10-06T08:57:56.000Z</time>
      </trkpt>
      <trkpt lat="38.127765" lon="-4.905785">
        <ele>482.0</ele>
        <time>2018-10-06T08:57:57.000Z</time>
      </trkpt>
      <trkpt lat="38.127765" lon="-4.905785">
        <ele>482.0</ele>
        <time>2018-10-06T08:57:58.000Z</time>
      </trkpt>
      <trkpt lat="38.127765" lon="-4.905785">
        <ele>482.0</ele>
        <time>2018-10-06T08:57:59.000Z</time>
      </trkpt>
      <trkpt lat="38.127765" lon="-4.905785">
        <ele>482.0</ele>
        <time>2018-10-06T08:58:00.000Z</time>
      </trkpt>
      <trkpt lat="38.127765" lon="-4.905785">
        <ele>482.0</ele>
        <time>2018-10-06T08:58:01.000Z</time>
      </trkpt>
      <trkpt lat="38.127765" lon="-4.905785">
        <ele>482.0</ele>
        <time>2018-10-06T08:58:02.000Z</time>
      </trkpt>
      <trkpt lat="38.12777333" lon="-4.90578667">
        <ele>480.0</ele>
        <time>2018-10-06T08:58:03.000Z</time>
      </trkpt>
      <trkpt lat="38.12779" lon="-4.90574667">
        <ele>482.0</ele>
        <time>2018-10-06T08:58:04.000Z</time>
      </trkpt>
      <trkpt lat="38.12779167" lon="-4.90574167">
        <ele>482.0</ele>
        <time>2018-10-06T08:58:05.000Z</time>
      </trkpt>
      <trkpt lat="38.12779167" lon="-4.90574333">
        <ele>482.0</ele>
        <time>2018-10-06T08:58:06.000Z</time>
      </trkpt>
      <trkpt lat="38.12779" lon="-4.90574167">
        <ele>482.0</ele>
        <time>2018-10-06T08:58:07.000Z</time>
      </trkpt>
      <trkpt lat="38.12779167" lon="-4.90574">
        <ele>482.0</ele>
        <time>2018-10-06T08:58:08.000Z</time>
      </trkpt>
      <trkpt lat="38.12779167" lon="-4.90574">
        <ele>482.0</ele>
        <time>2018-10-06T08:58:09.000Z</time>
      </trkpt>
      <trkpt lat="38.12779167" lon="-4.90573833">
        <ele>482.0</ele>
        <time>2018-10-06T08:58:10.000Z</time>
      </trkpt>
      <trkpt lat="38.12779167" lon="-4.905735">
        <ele>482.0</ele>
        <time>2018-10-06T08:58:11.000Z</time>
      </trkpt>
      <trkpt lat="38.12779" lon="-4.90573333">
        <ele>483.0</ele>
        <time>2018-10-06T08:58:12.000Z</time>
      </trkpt>
      <trkpt lat="38.12779" lon="-4.90573167">
        <ele>483.0</ele>
        <time>2018-10-06T08:58:13.000Z</time>
      </trkpt>
      <trkpt lat="38.12778833" lon="-4.90573">
        <ele>483.0</ele>
        <time>2018-10-06T08:58:14.000Z</time>
      </trkpt>
      <trkpt lat="38.12778833" lon="-4.90573">
        <ele>483.0</ele>
        <time>2018-10-06T08:58:15.000Z</time>
      </trkpt>
      <trkpt lat="38.12778833" lon="-4.90573">
        <ele>483.0</ele>
        <time>2018-10-06T08:58:16.000Z</time>
      </trkpt>
      <trkpt lat="38.12778833" lon="-4.90573">
        <ele>483.0</ele>
        <time>2018-10-06T08:58:17.000Z</time>
      </trkpt>
      <trkpt lat="38.12778833" lon="-4.90573">
        <ele>483.0</ele>
        <time>2018-10-06T08:58:18.000Z</time>
      </trkpt>
      <trkpt lat="38.12778833" lon="-4.90573">
        <ele>483.0</ele>
        <time>2018-10-06T08:58:19.000Z</time>
      </trkpt>
      <trkpt lat="38.12778833" lon="-4.90573">
        <ele>483.0</ele>
        <time>2018-10-06T08:58:20.000Z</time>
      </trkpt>
      <trkpt lat="38.12778833" lon="-4.90573">
        <ele>483.0</ele>
        <time>2018-10-06T08:58:21.000Z</time>
      </trkpt>
      <trkpt lat="38.12778833" lon="-4.90573">
        <ele>483.0</ele>
        <time>2018-10-06T08:58:22.000Z</time>
      </trkpt>
      <trkpt lat="38.12778833" lon="-4.90573">
        <ele>483.0</ele>
        <time>2018-10-06T08:58:23.000Z</time>
      </trkpt>
      <trkpt lat="38.12778833" lon="-4.90573">
        <ele>483.0</ele>
        <time>2018-10-06T08:58:24.000Z</time>
      </trkpt>
      <trkpt lat="38.12778833" lon="-4.90573">
        <ele>483.0</ele>
        <time>2018-10-06T08:58:25.000Z</time>
      </trkpt>
      <trkpt lat="38.12778833" lon="-4.90573">
        <ele>483.0</ele>
        <time>2018-10-06T08:58:26.000Z</time>
      </trkpt>
      <trkpt lat="38.12778833" lon="-4.90573">
        <ele>483.0</ele>
        <time>2018-10-06T08:58:27.000Z</time>
      </trkpt>
      <trkpt lat="38.12778833" lon="-4.90573">
        <ele>483.0</ele>
        <time>2018-10-06T08:58:28.000Z</time>
      </trkpt>
      <trkpt lat="38.12778833" lon="-4.90573">
        <ele>483.0</ele>
        <time>2018-10-06T08:58:29.000Z</time>
      </trkpt>
      <trkpt lat="38.12778833" lon="-4.90573">
        <ele>483.0</ele>
        <time>2018-10-06T08:58:30.000Z</time>
      </trkpt>
      <trkpt lat="38.12778833" lon="-4.90573">
        <ele>483.0</ele>
        <time>2018-10-06T08:58:31.000Z</time>
      </trkpt>
      <trkpt lat="38.12778833" lon="-4.90573">
        <ele>483.0</ele>
        <time>2018-10-06T08:58:32.000Z</time>
      </trkpt>
      <trkpt lat="38.12778333" lon="-4.90579">
        <ele>484.0</ele>
        <time>2018-10-06T08:58:33.000Z</time>
      </trkpt>
      <trkpt lat="38.12778333" lon="-4.90578667">
        <ele>485.0</ele>
        <time>2018-10-06T08:58:34.000Z</time>
      </trkpt>
      <trkpt lat="38.12778833" lon="-4.905785">
        <ele>486.0</ele>
        <time>2018-10-06T08:58:35.000Z</time>
      </trkpt>
      <trkpt lat="38.12779" lon="-4.90578333">
        <ele>486.0</ele>
        <time>2018-10-06T08:58:36.000Z</time>
      </trkpt>
      <trkpt lat="38.12779333" lon="-4.90578">
        <ele>486.0</ele>
        <time>2018-10-06T08:58:37.000Z</time>
      </trkpt>
      <trkpt lat="38.127795" lon="-4.90577833">
        <ele>486.0</ele>
        <time>2018-10-06T08:58:38.000Z</time>
      </trkpt>
      <trkpt lat="38.12779667" lon="-4.90577667">
        <ele>486.0</ele>
        <time>2018-10-06T08:58:39.000Z</time>
      </trkpt>
      <trkpt lat="38.12779833" lon="-4.905775">
        <ele>486.0</ele>
        <time>2018-10-06T08:58:40.000Z</time>
      </trkpt>
      <trkpt lat="38.12780167" lon="-4.905775">
        <ele>487.0</ele>
        <time>2018-10-06T08:58:41.000Z</time>
      </trkpt>
      <trkpt lat="38.12780333" lon="-4.90577333">
        <ele>487.0</ele>
        <time>2018-10-06T08:58:42.000Z</time>
      </trkpt>
      <trkpt lat="38.127805" lon="-4.90577333">
        <ele>487.0</ele>
        <time>2018-10-06T08:58:43.000Z</time>
      </trkpt>
      <trkpt lat="38.12780667" lon="-4.90577167">
        <ele>487.0</ele>
        <time>2018-10-06T08:58:44.000Z</time>
      </trkpt>
      <trkpt lat="38.12780667" lon="-4.90577167">
        <ele>487.0</ele>
        <time>2018-10-06T08:58:45.000Z</time>
      </trkpt>
      <trkpt lat="38.12780667" lon="-4.90577167">
        <ele>487.0</ele>
        <time>2018-10-06T08:58:46.000Z</time>
      </trkpt>
      <trkpt lat="38.12780667" lon="-4.90577167">
        <ele>487.0</ele>
        <time>2018-10-06T08:58:47.000Z</time>
      </trkpt>
      <trkpt lat="38.12780667" lon="-4.90577167">
        <ele>487.0</ele>
        <time>2018-10-06T08:58:48.000Z</time>
      </trkpt>
      <trkpt lat="38.12780667" lon="-4.90577167">
        <ele>487.0</ele>
        <time>2018-10-06T08:58:49.000Z</time>
      </trkpt>
      <trkpt lat="38.12780667" lon="-4.90577167">
        <ele>487.0</ele>
        <time>2018-10-06T08:58:50.000Z</time>
      </trkpt>
      <trkpt lat="38.12780667" lon="-4.90577167">
        <ele>487.0</ele>
        <time>2018-10-06T08:58:51.000Z</time>
      </trkpt>
      <trkpt lat="38.12780667" lon="-4.90577167">
        <ele>487.0</ele>
        <time>2018-10-06T08:58:52.000Z</time>
      </trkpt>
      <trkpt lat="38.12780667" lon="-4.90577167">
        <ele>487.0</ele>
        <time>2018-10-06T08:58:53.000Z</time>
      </trkpt>
      <trkpt lat="38.12780667" lon="-4.90577167">
        <ele>487.0</ele>
        <time>2018-10-06T08:58:54.000Z</time>
      </trkpt>
      <trkpt lat="38.12780667" lon="-4.90577167">
        <ele>487.0</ele>
        <time>2018-10-06T08:58:55.000Z</time>
      </trkpt>
      <trkpt lat="38.12780667" lon="-4.90577167">
        <ele>487.0</ele>
        <time>2018-10-06T08:58:56.000Z</time>
      </trkpt>
      <trkpt lat="38.12780667" lon="-4.90577167">
        <ele>487.0</ele>
        <time>2018-10-06T08:58:57.000Z</time>
      </trkpt>
      <trkpt lat="38.12780667" lon="-4.90577167">
        <ele>487.0</ele>
        <time>2018-10-06T08:58:58.000Z</time>
      </trkpt>
      <trkpt lat="38.12780667" lon="-4.90577167">
        <ele>487.0</ele>
        <time>2018-10-06T08:58:59.000Z</time>
      </trkpt>
      <trkpt lat="38.12780667" lon="-4.90577167">
        <ele>487.0</ele>
        <time>2018-10-06T08:59:00.000Z</time>
      </trkpt>
      <trkpt lat="38.12780667" lon="-4.90577167">
        <ele>487.0</ele>
        <time>2018-10-06T08:59:01.000Z</time>
      </trkpt>
      <trkpt lat="38.12780667" lon="-4.90577167">
        <ele>487.0</ele>
        <time>2018-10-06T08:59:02.000Z</time>
      </trkpt>
      <trkpt lat="38.12780667" lon="-4.90577167">
        <ele>487.0</ele>
        <time>2018-10-06T08:59:03.000Z</time>
      </trkpt>
      <trkpt lat="38.12780667" lon="-4.90577167">
        <ele>487.0</ele>
        <time>2018-10-06T08:59:04.000Z</time>
      </trkpt>
      <trkpt lat="38.12780667" lon="-4.90577167">
        <ele>487.0</ele>
        <time>2018-10-06T08:59:05.000Z</time>
      </trkpt>
      <trkpt lat="38.12780667" lon="-4.90577167">
        <ele>487.0</ele>
        <time>2018-10-06T08:59:06.000Z</time>
      </trkpt>
      <trkpt lat="38.12780667" lon="-4.90577167">
        <ele>487.0</ele>
        <time>2018-10-06T08:59:07.000Z</time>
      </trkpt>
      <trkpt lat="38.12780667" lon="-4.90577167">
        <ele>487.0</ele>
        <time>2018-10-06T08:59:08.000Z</time>
      </trkpt>
      <trkpt lat="38.12780667" lon="-4.90577167">
        <ele>487.0</ele>
        <time>2018-10-06T08:59:09.000Z</time>
      </trkpt>
      <trkpt lat="38.12780667" lon="-4.90577167">
        <ele>487.0</ele>
        <time>2018-10-06T08:59:10.000Z</time>
      </trkpt>
      <trkpt lat="38.12780667" lon="-4.90577167">
        <ele>487.0</ele>
        <time>2018-10-06T08:59:11.000Z</time>
      </trkpt>
      <trkpt lat="38.12780667" lon="-4.90577167">
        <ele>487.0</ele>
        <time>2018-10-06T08:59:12.000Z</time>
      </trkpt>
      <trkpt lat="38.12780667" lon="-4.90577167">
        <ele>487.0</ele>
        <time>2018-10-06T08:59:13.000Z</time>
      </trkpt>
      <trkpt lat="38.12780667" lon="-4.90577167">
        <ele>487.0</ele>
        <time>2018-10-06T08:59:14.000Z</time>
      </trkpt>
      <trkpt lat="38.12780667" lon="-4.90577167">
        <ele>487.0</ele>
        <time>2018-10-06T08:59:15.000Z</time>
      </trkpt>
      <trkpt lat="38.12780667" lon="-4.90577167">
        <ele>487.0</ele>
        <time>2018-10-06T08:59:16.000Z</time>
      </trkpt>
      <trkpt lat="38.12780667" lon="-4.90577167">
        <ele>487.0</ele>
        <time>2018-10-06T08:59:17.000Z</time>
      </trkpt>
      <trkpt lat="38.12780667" lon="-4.90577167">
        <ele>487.0</ele>
        <time>2018-10-06T08:59:18.000Z</time>
      </trkpt>
      <trkpt lat="38.12780667" lon="-4.90577167">
        <ele>487.0</ele>
        <time>2018-10-06T08:59:19.000Z</time>
      </trkpt>
      <trkpt lat="38.12780667" lon="-4.90577167">
        <ele>487.0</ele>
        <time>2018-10-06T08:59:20.000Z</time>
      </trkpt>
      <trkpt lat="38.12780667" lon="-4.90577167">
        <ele>487.0</ele>
        <time>2018-10-06T08:59:21.000Z</time>
      </trkpt>
      <trkpt lat="38.12780667" lon="-4.90577167">
        <ele>487.0</ele>
        <time>2018-10-06T08:59:22.000Z</time>
      </trkpt>
      <trkpt lat="38.12780667" lon="-4.90577167">
        <ele>487.0</ele>
        <time>2018-10-06T08:59:23.000Z</time>
      </trkpt>
      <trkpt lat="38.12780667" lon="-4.90577167">
        <ele>487.0</ele>
        <time>2018-10-06T08:59:24.000Z</time>
      </trkpt>
      <trkpt lat="38.12780667" lon="-4.90577167">
        <ele>487.0</ele>
        <time>2018-10-06T08:59:25.000Z</time>
      </trkpt>
      <trkpt lat="38.12780667" lon="-4.90577167">
        <ele>487.0</ele>
        <time>2018-10-06T08:59:26.000Z</time>
      </trkpt>
      <trkpt lat="38.12780667" lon="-4.90577167">
        <ele>487.0</ele>
        <time>2018-10-06T08:59:27.000Z</time>
      </trkpt>
      <trkpt lat="38.12780667" lon="-4.90577167">
        <ele>487.0</ele>
        <time>2018-10-06T08:59:28.000Z</time>
      </trkpt>
      <trkpt lat="38.12780667" lon="-4.90577167">
        <ele>487.0</ele>
        <time>2018-10-06T08:59:29.000Z</time>
      </trkpt>
      <trkpt lat="38.12780667" lon="-4.90577167">
        <ele>487.0</ele>
        <time>2018-10-06T08:59:30.000Z</time>
      </trkpt>
      <trkpt lat="38.12780667" lon="-4.90577167">
        <ele>487.0</ele>
        <time>2018-10-06T08:59:31.000Z</time>
      </trkpt>
      <trkpt lat="38.12780667" lon="-4.90577167">
        <ele>487.0</ele>
        <time>2018-10-06T08:59:32.000Z</time>
      </trkpt>
      <trkpt lat="38.12780833" lon="-4.90571667">
        <ele>496.0</ele>
        <time>2018-10-06T08:59:33.000Z</time>
      </trkpt>
      <trkpt lat="38.127805" lon="-4.90570833">
        <ele>496.0</ele>
        <time>2018-10-06T08:59:34.000Z</time>
      </trkpt>
      <trkpt lat="38.1278" lon="-4.90569167">
        <ele>495.0</ele>
        <time>2018-10-06T08:59:35.000Z</time>
      </trkpt>
      <trkpt lat="38.12779667" lon="-4.905675">
        <ele>494.0</ele>
        <time>2018-10-06T08:59:36.000Z</time>
      </trkpt>
      <trkpt lat="38.127795" lon="-4.90566">
        <ele>493.0</ele>
        <time>2018-10-06T08:59:37.000Z</time>
      </trkpt>
      <trkpt lat="38.12779333" lon="-4.90564333">
        <ele>492.0</ele>
        <time>2018-10-06T08:59:38.000Z</time>
      </trkpt>
      <trkpt lat="38.12779" lon="-4.905625">
        <ele>492.0</ele>
        <time>2018-10-06T08:59:39.000Z</time>
      </trkpt>
      <trkpt lat="38.12778667" lon="-4.90560833">
        <ele>491.0</ele>
        <time>2018-10-06T08:59:40.000Z</time>
      </trkpt>
      <trkpt lat="38.12778167" lon="-4.90559167">
        <ele>491.0</ele>
        <time>2018-10-06T08:59:41.000Z</time>
      </trkpt>
      <trkpt lat="38.12777667" lon="-4.905575">
        <ele>490.0</ele>
        <time>2018-10-06T08:59:42.000Z</time>
      </trkpt>
      <trkpt lat="38.12777167" lon="-4.90555833">
        <ele>490.0</ele>
        <time>2018-10-06T08:59:43.000Z</time>
      </trkpt>
      <trkpt lat="38.12776667" lon="-4.90554333">
        <ele>489.0</ele>
        <time>2018-10-06T08:59:44.000Z</time>
      </trkpt>
      <trkpt lat="38.12776667" lon="-4.90554333">
        <ele>489.0</ele>
        <time>2018-10-06T08:59:45.000Z</time>
      </trkpt>
      <trkpt lat="38.12776667" lon="-4.90554333">
        <ele>489.0</ele>
        <time>2018-10-06T08:59:46.000Z</time>
      </trkpt>
      <trkpt lat="38.12776667" lon="-4.90554333">
        <ele>489.0</ele>
        <time>2018-10-06T08:59:47.000Z</time>
      </trkpt>
      <trkpt lat="38.12776667" lon="-4.90554333">
        <ele>489.0</ele>
        <time>2018-10-06T08:59:48.000Z</time>
      </trkpt>
      <trkpt lat="38.12776667" lon="-4.90554333">
        <ele>489.0</ele>
        <time>2018-10-06T08:59:49.000Z</time>
      </trkpt>
      <trkpt lat="38.12776667" lon="-4.90554333">
        <ele>489.0</ele>
        <time>2018-10-06T08:59:50.000Z</time>
      </trkpt>
      <trkpt lat="38.12776667" lon="-4.90554333">
        <ele>489.0</ele>
        <time>2018-10-06T08:59:51.000Z</time>
      </trkpt>
      <trkpt lat="38.12776667" lon="-4.90554333">
        <ele>489.0</ele>
        <time>2018-10-06T08:59:52.000Z</time>
      </trkpt>
      <trkpt lat="38.12776667" lon="-4.90554333">
        <ele>489.0</ele>
        <time>2018-10-06T08:59:53.000Z</time>
      </trkpt>
      <trkpt lat="38.12776667" lon="-4.90554333">
        <ele>489.0</ele>
        <time>2018-10-06T08:59:54.000Z</time>
      </trkpt>
      <trkpt lat="38.12776667" lon="-4.90554333">
        <ele>489.0</ele>
        <time>2018-10-06T08:59:55.000Z</time>
      </trkpt>
      <trkpt lat="38.12776667" lon="-4.90554333">
        <ele>489.0</ele>
        <time>2018-10-06T08:59:56.000Z</time>
      </trkpt>
      <trkpt lat="38.12776667" lon="-4.90554333">
        <ele>489.0</ele>
        <time>2018-10-06T08:59:57.000Z</time>
      </trkpt>
      <trkpt lat="38.12776667" lon="-4.90554333">
        <ele>489.0</ele>
        <time>2018-10-06T08:59:58.000Z</time>
      </trkpt>
      <trkpt lat="38.12776667" lon="-4.90554333">
        <ele>489.0</ele>
        <time>2018-10-06T08:59:59.000Z</time>
      </trkpt>
      <trkpt lat="38.12776667" lon="-4.90554333">
        <ele>489.0</ele>
        <time>2018-10-06T09:00:00.000Z</time>
      </trkpt>
      <trkpt lat="38.12776667" lon="-4.90554333">
        <ele>489.0</ele>
        <time>2018-10-06T09:00:01.000Z</time>
      </trkpt>
      <trkpt lat="38.12776667" lon="-4.90554333">
        <ele>489.0</ele>
        <time>2018-10-06T09:00:02.000Z</time>
      </trkpt>
      <trkpt lat="38.12776667" lon="-4.90554333">
        <ele>489.0</ele>
        <time>2018-10-06T09:00:03.000Z</time>
      </trkpt>
      <trkpt lat="38.12776667" lon="-4.90554333">
        <ele>489.0</ele>
        <time>2018-10-06T09:00:04.000Z</time>
      </trkpt>
      <trkpt lat="38.12776667" lon="-4.90554333">
        <ele>489.0</ele>
        <time>2018-10-06T09:00:05.000Z</time>
      </trkpt>
      <trkpt lat="38.12776667" lon="-4.90554333">
        <ele>489.0</ele>
        <time>2018-10-06T09:00:06.000Z</time>
      </trkpt>
      <trkpt lat="38.12776667" lon="-4.90554333">
        <ele>489.0</ele>
        <time>2018-10-06T09:00:07.000Z</time>
      </trkpt>
      <trkpt lat="38.12776667" lon="-4.90554333">
        <ele>489.0</ele>
        <time>2018-10-06T09:00:08.000Z</time>
      </trkpt>
      <trkpt lat="38.12776667" lon="-4.90554333">
        <ele>489.0</ele>
        <time>2018-10-06T09:00:09.000Z</time>
      </trkpt>
      <trkpt lat="38.12776667" lon="-4.90554333">
        <ele>489.0</ele>
        <time>2018-10-06T09:00:10.000Z</time>
      </trkpt>
      <trkpt lat="38.12776667" lon="-4.90554333">
        <ele>489.0</ele>
        <time>2018-10-06T09:00:11.000Z</time>
      </trkpt>
      <trkpt lat="38.12776667" lon="-4.90554333">
        <ele>489.0</ele>
        <time>2018-10-06T09:00:12.000Z</time>
      </trkpt>
      <trkpt lat="38.12776667" lon="-4.90554333">
        <ele>489.0</ele>
        <time>2018-10-06T09:00:13.000Z</time>
      </trkpt>
      <trkpt lat="38.12776667" lon="-4.90554333">
        <ele>489.0</ele>
        <time>2018-10-06T09:00:14.000Z</time>
      </trkpt>
      <trkpt lat="38.12776667" lon="-4.90554333">
        <ele>489.0</ele>
        <time>2018-10-06T09:00:15.000Z</time>
      </trkpt>
      <trkpt lat="38.12776667" lon="-4.90554333">
        <ele>489.0</ele>
        <time>2018-10-06T09:00:16.000Z</time>
      </trkpt>
      <trkpt lat="38.12776667" lon="-4.90554333">
        <ele>489.0</ele>
        <time>2018-10-06T09:00:17.000Z</time>
      </trkpt>
      <trkpt lat="38.12776667" lon="-4.90554333">
        <ele>489.0</ele>
        <time>2018-10-06T09:00:18.000Z</time>
      </trkpt>
      <trkpt lat="38.12776667" lon="-4.90554333">
        <ele>489.0</ele>
        <time>2018-10-06T09:00:19.000Z</time>
      </trkpt>
      <trkpt lat="38.12776667" lon="-4.90554333">
        <ele>489.0</ele>
        <time>2018-10-06T09:00:20.000Z</time>
      </trkpt>
      <trkpt lat="38.12776667" lon="-4.90554333">
        <ele>489.0</ele>
        <time>2018-10-06T09:00:21.000Z</time>
      </trkpt>
      <trkpt lat="38.12776667" lon="-4.90554333">
        <ele>489.0</ele>
        <time>2018-10-06T09:00:22.000Z</time>
      </trkpt>
      <trkpt lat="38.12776667" lon="-4.90554333">
        <ele>489.0</ele>
        <time>2018-10-06T09:00:23.000Z</time>
      </trkpt>
      <trkpt lat="38.12776667" lon="-4.90554333">
        <ele>489.0</ele>
        <time>2018-10-06T09:00:24.000Z</time>
      </trkpt>
      <trkpt lat="38.12776667" lon="-4.90554333">
        <ele>489.0</ele>
        <time>2018-10-06T09:00:25.000Z</time>
      </trkpt>
      <trkpt lat="38.12776667" lon="-4.90554333">
        <ele>489.0</ele>
        <time>2018-10-06T09:00:26.000Z</time>
      </trkpt>
      <trkpt lat="38.12776667" lon="-4.90554333">
        <ele>489.0</ele>
        <time>2018-10-06T09:00:27.000Z</time>
      </trkpt>
      <trkpt lat="38.12776667" lon="-4.90554333">
        <ele>489.0</ele>
        <time>2018-10-06T09:00:28.000Z</time>
      </trkpt>
      <trkpt lat="38.12776667" lon="-4.90554333">
        <ele>489.0</ele>
        <time>2018-10-06T09:00:29.000Z</time>
      </trkpt>
      <trkpt lat="38.12776667" lon="-4.90554333">
        <ele>489.0</ele>
        <time>2018-10-06T09:00:30.000Z</time>
      </trkpt>
      <trkpt lat="38.12776667" lon="-4.90554333">
        <ele>489.0</ele>
        <time>2018-10-06T09:00:31.000Z</time>
      </trkpt>
      <trkpt lat="38.12776667" lon="-4.90554333">
        <ele>489.0</ele>
        <time>2018-10-06T09:00:32.000Z</time>
      </trkpt>
      <trkpt lat="38.12776667" lon="-4.90554333">
        <ele>489.0</ele>
        <time>2018-10-06T09:00:33.000Z</time>
      </trkpt>
      <trkpt lat="38.12761167" lon="-4.90523667">
        <ele>459.0</ele>
        <time>2018-10-06T09:00:34.000Z</time>
      </trkpt>
      <trkpt lat="38.127605" lon="-4.905215">
        <ele>461.0</ele>
        <time>2018-10-06T09:00:35.000Z</time>
      </trkpt>
      <trkpt lat="38.12759333" lon="-4.905185">
        <ele>462.0</ele>
        <time>2018-10-06T09:00:36.000Z</time>
      </trkpt>
      <trkpt lat="38.12758167" lon="-4.905155">
        <ele>464.0</ele>
        <time>2018-10-06T09:00:37.000Z</time>
      </trkpt>
      <trkpt lat="38.12757" lon="-4.90512667">
        <ele>466.0</ele>
        <time>2018-10-06T09:00:38.000Z</time>
      </trkpt>
      <trkpt lat="38.12755833" lon="-4.90509833">
        <ele>468.0</ele>
        <time>2018-10-06T09:00:39.000Z</time>
      </trkpt>
      <trkpt lat="38.12754833" lon="-4.90507167">
        <ele>469.0</ele>
        <time>2018-10-06T09:00:40.000Z</time>
      </trkpt>
      <trkpt lat="38.12753667" lon="-4.90504667">
        <ele>470.0</ele>
        <time>2018-10-06T09:00:41.000Z</time>
      </trkpt>
      <trkpt lat="38.12752667" lon="-4.90502333">
        <ele>472.0</ele>
        <time>2018-10-06T09:00:42.000Z</time>
      </trkpt>
      <trkpt lat="38.12751667" lon="-4.905">
        <ele>473.0</ele>
        <time>2018-10-06T09:00:43.000Z</time>
      </trkpt>
      <trkpt lat="38.12750667" lon="-4.90497667">
        <ele>474.0</ele>
        <time>2018-10-06T09:00:44.000Z</time>
      </trkpt>
      <trkpt lat="38.12749667" lon="-4.904955">
        <ele>474.0</ele>
        <time>2018-10-06T09:00:45.000Z</time>
      </trkpt>
      <trkpt lat="38.12749667" lon="-4.904955">
        <ele>474.0</ele>
        <time>2018-10-06T09:00:46.000Z</time>
      </trkpt>
      <trkpt lat="38.12749667" lon="-4.904955">
        <ele>474.0</ele>
        <time>2018-10-06T09:00:47.000Z</time>
      </trkpt>
      <trkpt lat="38.12749667" lon="-4.904955">
        <ele>474.0</ele>
        <time>2018-10-06T09:00:48.000Z</time>
      </trkpt>
      <trkpt lat="38.12749667" lon="-4.904955">
        <ele>474.0</ele>
        <time>2018-10-06T09:00:49.000Z</time>
      </trkpt>
      <trkpt lat="38.12749667" lon="-4.904955">
        <ele>474.0</ele>
        <time>2018-10-06T09:00:50.000Z</time>
      </trkpt>
      <trkpt lat="38.12749667" lon="-4.904955">
        <ele>474.0</ele>
        <time>2018-10-06T09:00:51.000Z</time>
      </trkpt>
      <trkpt lat="38.12749667" lon="-4.904955">
        <ele>474.0</ele>
        <time>2018-10-06T09:00:52.000Z</time>
      </trkpt>
      <trkpt lat="38.12749667" lon="-4.904955">
        <ele>474.0</ele>
        <time>2018-10-06T09:00:53.000Z</time>
      </trkpt>
      <trkpt lat="38.12749667" lon="-4.904955">
        <ele>474.0</ele>
        <time>2018-10-06T09:00:54.000Z</time>
      </trkpt>
      <trkpt lat="38.12749667" lon="-4.904955">
        <ele>474.0</ele>
        <time>2018-10-06T09:00:55.000Z</time>
      </trkpt>
      <trkpt lat="38.12749667" lon="-4.904955">
        <ele>474.0</ele>
        <time>2018-10-06T09:00:56.000Z</time>
      </trkpt>
      <trkpt lat="38.12749667" lon="-4.904955">
        <ele>474.0</ele>
        <time>2018-10-06T09:00:57.000Z</time>
      </trkpt>
      <trkpt lat="38.12749667" lon="-4.904955">
        <ele>474.0</ele>
        <time>2018-10-06T09:00:58.000Z</time>
      </trkpt>
      <trkpt lat="38.12749667" lon="-4.904955">
        <ele>474.0</ele>
        <time>2018-10-06T09:00:59.000Z</time>
      </trkpt>
      <trkpt lat="38.12749667" lon="-4.904955">
        <ele>474.0</ele>
        <time>2018-10-06T09:01:00.000Z</time>
      </trkpt>
      <trkpt lat="38.12749667" lon="-4.904955">
        <ele>474.0</ele>
        <time>2018-10-06T09:01:01.000Z</time>
      </trkpt>
      <trkpt lat="38.12749667" lon="-4.904955">
        <ele>474.0</ele>
        <time>2018-10-06T09:01:02.000Z</time>
      </trkpt>
      <trkpt lat="38.12749667" lon="-4.904955">
        <ele>474.0</ele>
        <time>2018-10-06T09:01:03.000Z</time>
      </trkpt>
      <trkpt lat="38.12749667" lon="-4.904955">
        <ele>474.0</ele>
        <time>2018-10-06T09:01:04.000Z</time>
      </trkpt>
      <trkpt lat="38.12749667" lon="-4.904955">
        <ele>474.0</ele>
        <time>2018-10-06T09:01:05.000Z</time>
      </trkpt>
      <trkpt lat="38.12749667" lon="-4.904955">
        <ele>474.0</ele>
        <time>2018-10-06T09:01:06.000Z</time>
      </trkpt>
      <trkpt lat="38.12749667" lon="-4.904955">
        <ele>474.0</ele>
        <time>2018-10-06T09:01:07.000Z</time>
      </trkpt>
      <trkpt lat="38.12749667" lon="-4.904955">
        <ele>474.0</ele>
        <time>2018-10-06T09:01:08.000Z</time>
      </trkpt>
      <trkpt lat="38.12749667" lon="-4.904955">
        <ele>474.0</ele>
        <time>2018-10-06T09:01:09.000Z</time>
      </trkpt>
      <trkpt lat="38.12749667" lon="-4.904955">
        <ele>474.0</ele>
        <time>2018-10-06T09:01:10.000Z</time>
      </trkpt>
      <trkpt lat="38.12749667" lon="-4.904955">
        <ele>474.0</ele>
        <time>2018-10-06T09:01:11.000Z</time>
      </trkpt>
      <trkpt lat="38.12749667" lon="-4.904955">
        <ele>474.0</ele>
        <time>2018-10-06T09:01:12.000Z</time>
      </trkpt>
      <trkpt lat="38.12749667" lon="-4.904955">
        <ele>474.0</ele>
        <time>2018-10-06T09:01:13.000Z</time>
      </trkpt>
      <trkpt lat="38.12749667" lon="-4.904955">
        <ele>474.0</ele>
        <time>2018-10-06T09:01:14.000Z</time>
      </trkpt>
      <trkpt lat="38.12749667" lon="-4.904955">
        <ele>474.0</ele>
        <time>2018-10-06T09:01:15.000Z</time>
      </trkpt>
      <trkpt lat="38.12749667" lon="-4.904955">
        <ele>474.0</ele>
        <time>2018-10-06T09:01:16.000Z</time>
      </trkpt>
      <trkpt lat="38.12749667" lon="-4.904955">
        <ele>474.0</ele>
        <time>2018-10-06T09:01:17.000Z</time>
      </trkpt>
      <trkpt lat="38.12749667" lon="-4.904955">
        <ele>474.0</ele>
        <time>2018-10-06T09:01:18.000Z</time>
      </trkpt>
      <trkpt lat="38.12749667" lon="-4.904955">
        <ele>474.0</ele>
        <time>2018-10-06T09:01:19.000Z</time>
      </trkpt>
      <trkpt lat="38.12749667" lon="-4.904955">
        <ele>474.0</ele>
        <time>2018-10-06T09:01:20.000Z</time>
      </trkpt>
      <trkpt lat="38.12749667" lon="-4.904955">
        <ele>474.0</ele>
        <time>2018-10-06T09:01:21.000Z</time>
      </trkpt>
      <trkpt lat="38.12749667" lon="-4.904955">
        <ele>474.0</ele>
        <time>2018-10-06T09:01:22.000Z</time>
      </trkpt>
      <trkpt lat="38.12749667" lon="-4.904955">
        <ele>474.0</ele>
        <time>2018-10-06T09:01:23.000Z</time>
      </trkpt>
      <trkpt lat="38.12749667" lon="-4.904955">
        <ele>474.0</ele>
        <time>2018-10-06T09:01:24.000Z</time>
      </trkpt>
      <trkpt lat="38.12749667" lon="-4.904955">
        <ele>474.0</ele>
        <time>2018-10-06T09:01:25.000Z</time>
      </trkpt>
      <trkpt lat="38.12749667" lon="-4.904955">
        <ele>474.0</ele>
        <time>2018-10-06T09:01:26.000Z</time>
      </trkpt>
      <trkpt lat="38.12749667" lon="-4.904955">
        <ele>474.0</ele>
        <time>2018-10-06T09:01:27.000Z</time>
      </trkpt>
      <trkpt lat="38.12749667" lon="-4.904955">
        <ele>474.0</ele>
        <time>2018-10-06T09:01:28.000Z</time>
      </trkpt>
      <trkpt lat="38.12749667" lon="-4.904955">
        <ele>474.0</ele>
        <time>2018-10-06T09:01:29.000Z</time>
      </trkpt>
      <trkpt lat="38.12749667" lon="-4.904955">
        <ele>474.0</ele>
        <time>2018-10-06T09:01:30.000Z</time>
      </trkpt>
      <trkpt lat="38.12749667" lon="-4.904955">
        <ele>474.0</ele>
        <time>2018-10-06T09:01:31.000Z</time>
      </trkpt>
      <trkpt lat="38.12749667" lon="-4.904955">
        <ele>474.0</ele>
        <time>2018-10-06T09:01:32.000Z</time>
      </trkpt>
      <trkpt lat="38.12748167" lon="-4.90488667">
        <ele>470.0</ele>
        <time>2018-10-06T09:01:33.000Z</time>
      </trkpt>
      <trkpt lat="38.127475" lon="-4.90487333">
        <ele>471.0</ele>
        <time>2018-10-06T09:01:34.000Z</time>
      </trkpt>
      <trkpt lat="38.127465" lon="-4.90484833">
        <ele>472.0</ele>
        <time>2018-10-06T09:01:35.000Z</time>
      </trkpt>
      <trkpt lat="38.12745667" lon="-4.90482667">
        <ele>473.0</ele>
        <time>2018-10-06T09:01:36.000Z</time>
      </trkpt>
      <trkpt lat="38.12744833" lon="-4.90480667">
        <ele>474.0</ele>
        <time>2018-10-06T09:01:37.000Z</time>
      </trkpt>
      <trkpt lat="38.12744333" lon="-4.90478667">
        <ele>475.0</ele>
        <time>2018-10-06T09:01:38.000Z</time>
      </trkpt>
      <trkpt lat="38.127435" lon="-4.90476833">
        <ele>476.0</ele>
        <time>2018-10-06T09:01:39.000Z</time>
      </trkpt>
      <trkpt lat="38.12743" lon="-4.90475333">
        <ele>477.0</ele>
        <time>2018-10-06T09:01:40.000Z</time>
      </trkpt>
      <trkpt lat="38.12742667" lon="-4.90473833">
        <ele>478.0</ele>
        <time>2018-10-06T09:01:41.000Z</time>
      </trkpt>
      <trkpt lat="38.12742" lon="-4.90472667">
        <ele>479.0</ele>
        <time>2018-10-06T09:01:42.000Z</time>
      </trkpt>
      <trkpt lat="38.12741667" lon="-4.90471833">
        <ele>480.0</ele>
        <time>2018-10-06T09:01:43.000Z</time>
      </trkpt>
      <trkpt lat="38.12741333" lon="-4.90471167">
        <ele>480.0</ele>
        <time>2018-10-06T09:01:44.000Z</time>
      </trkpt>
      <trkpt lat="38.12741" lon="-4.90470333">
        <ele>481.0</ele>
        <time>2018-10-06T09:01:45.000Z</time>
      </trkpt>
      <trkpt lat="38.12741" lon="-4.90470333">
        <ele>481.0</ele>
        <time>2018-10-06T09:01:46.000Z</time>
      </trkpt>
      <trkpt lat="38.12741" lon="-4.90470333">
        <ele>481.0</ele>
        <time>2018-10-06T09:01:47.000Z</time>
      </trkpt>
      <trkpt lat="38.12741" lon="-4.90470333">
        <ele>481.0</ele>
        <time>2018-10-06T09:01:48.000Z</time>
      </trkpt>
      <trkpt lat="38.12741" lon="-4.90470333">
        <ele>481.0</ele>
        <time>2018-10-06T09:01:49.000Z</time>
      </trkpt>
      <trkpt lat="38.12741" lon="-4.90470333">
        <ele>481.0</ele>
        <time>2018-10-06T09:01:50.000Z</time>
      </trkpt>
      <trkpt lat="38.12741" lon="-4.90470333">
        <ele>481.0</ele>
        <time>2018-10-06T09:01:51.000Z</time>
      </trkpt>
      <trkpt lat="38.12741" lon="-4.90470333">
        <ele>481.0</ele>
        <time>2018-10-06T09:01:52.000Z</time>
      </trkpt>
      <trkpt lat="38.12741" lon="-4.90470333">
        <ele>481.0</ele>
        <time>2018-10-06T09:01:53.000Z</time>
      </trkpt>
      <trkpt lat="38.12741" lon="-4.90470333">
        <ele>481.0</ele>
        <time>2018-10-06T09:01:54.000Z</time>
      </trkpt>
      <trkpt lat="38.12741" lon="-4.90470333">
        <ele>481.0</ele>
        <time>2018-10-06T09:01:55.000Z</time>
      </trkpt>
      <trkpt lat="38.12741" lon="-4.90470333">
        <ele>481.0</ele>
        <time>2018-10-06T09:01:56.000Z</time>
      </trkpt>
      <trkpt lat="38.12741" lon="-4.90470333">
        <ele>481.0</ele>
        <time>2018-10-06T09:01:57.000Z</time>
      </trkpt>
      <trkpt lat="38.12741" lon="-4.90470333">
        <ele>481.0</ele>
        <time>2018-10-06T09:01:58.000Z</time>
      </trkpt>
      <trkpt lat="38.12741" lon="-4.90470333">
        <ele>481.0</ele>
        <time>2018-10-06T09:01:59.000Z</time>
      </trkpt>
      <trkpt lat="38.12741" lon="-4.90470333">
        <ele>481.0</ele>
        <time>2018-10-06T09:02:00.000Z</time>
      </trkpt>
      <trkpt lat="38.12741" lon="-4.90470333">
        <ele>481.0</ele>
        <time>2018-10-06T09:02:01.000Z</time>
      </trkpt>
      <trkpt lat="38.12741" lon="-4.90470333">
        <ele>481.0</ele>
        <time>2018-10-06T09:02:02.000Z</time>
      </trkpt>
      <trkpt lat="38.12741" lon="-4.90470333">
        <ele>481.0</ele>
        <time>2018-10-06T09:02:03.000Z</time>
      </trkpt>
      <trkpt lat="38.12741" lon="-4.90470333">
        <ele>481.0</ele>
        <time>2018-10-06T09:02:04.000Z</time>
      </trkpt>
      <trkpt lat="38.12741" lon="-4.90470333">
        <ele>481.0</ele>
        <time>2018-10-06T09:02:05.000Z</time>
      </trkpt>
      <trkpt lat="38.12741" lon="-4.90470333">
        <ele>481.0</ele>
        <time>2018-10-06T09:02:06.000Z</time>
      </trkpt>
      <trkpt lat="38.12741" lon="-4.90470333">
        <ele>481.0</ele>
        <time>2018-10-06T09:02:07.000Z</time>
      </trkpt>
      <trkpt lat="38.12741" lon="-4.90470333">
        <ele>481.0</ele>
        <time>2018-10-06T09:02:08.000Z</time>
      </trkpt>
      <trkpt lat="38.12741" lon="-4.90470333">
        <ele>481.0</ele>
        <time>2018-10-06T09:02:09.000Z</time>
      </trkpt>
      <trkpt lat="38.12741" lon="-4.90470333">
        <ele>481.0</ele>
        <time>2018-10-06T09:02:10.000Z</time>
      </trkpt>
      <trkpt lat="38.12741" lon="-4.90470333">
        <ele>481.0</ele>
        <time>2018-10-06T09:02:11.000Z</time>
      </trkpt>
      <trkpt lat="38.12741" lon="-4.90470333">
        <ele>481.0</ele>
        <time>2018-10-06T09:02:12.000Z</time>
      </trkpt>
      <trkpt lat="38.12741" lon="-4.90470333">
        <ele>481.0</ele>
        <time>2018-10-06T09:02:13.000Z</time>
      </trkpt>
      <trkpt lat="38.12741" lon="-4.90470333">
        <ele>481.0</ele>
        <time>2018-10-06T09:02:14.000Z</time>
      </trkpt>
      <trkpt lat="38.12741" lon="-4.90470333">
        <ele>481.0</ele>
        <time>2018-10-06T09:02:15.000Z</time>
      </trkpt>
      <trkpt lat="38.12741" lon="-4.90470333">
        <ele>481.0</ele>
        <time>2018-10-06T09:02:16.000Z</time>
      </trkpt>
      <trkpt lat="38.12741" lon="-4.90470333">
        <ele>481.0</ele>
        <time>2018-10-06T09:02:17.000Z</time>
      </trkpt>
      <trkpt lat="38.12741" lon="-4.90470333">
        <ele>481.0</ele>
        <time>2018-10-06T09:02:18.000Z</time>
      </trkpt>
      <trkpt lat="38.12741" lon="-4.90470333">
        <ele>481.0</ele>
        <time>2018-10-06T09:02:19.000Z</time>
      </trkpt>
      <trkpt lat="38.12741" lon="-4.90470333">
        <ele>481.0</ele>
        <time>2018-10-06T09:02:20.000Z</time>
      </trkpt>
      <trkpt lat="38.12741" lon="-4.90470333">
        <ele>481.0</ele>
        <time>2018-10-06T09:02:21.000Z</time>
      </trkpt>
      <trkpt lat="38.12741" lon="-4.90470333">
        <ele>481.0</ele>
        <time>2018-10-06T09:02:22.000Z</time>
      </trkpt>
      <trkpt lat="38.12741" lon="-4.90470333">
        <ele>481.0</ele>
        <time>2018-10-06T09:02:23.000Z</time>
      </trkpt>
      <trkpt lat="38.12741" lon="-4.90470333">
        <ele>481.0</ele>
        <time>2018-10-06T09:02:24.000Z</time>
      </trkpt>
      <trkpt lat="38.12741" lon="-4.90470333">
        <ele>481.0</ele>
        <time>2018-10-06T09:02:25.000Z</time>
      </trkpt>
      <trkpt lat="38.12741" lon="-4.90470333">
        <ele>481.0</ele>
        <time>2018-10-06T09:02:26.000Z</time>
      </trkpt>
      <trkpt lat="38.12741" lon="-4.90470333">
        <ele>481.0</ele>
        <time>2018-10-06T09:02:27.000Z</time>
      </trkpt>
      <trkpt lat="38.12741" lon="-4.90470333">
        <ele>481.0</ele>
        <time>2018-10-06T09:02:28.000Z</time>
      </trkpt>
      <trkpt lat="38.12741" lon="-4.90470333">
        <ele>481.0</ele>
        <time>2018-10-06T09:02:29.000Z</time>
      </trkpt>
      <trkpt lat="38.12741" lon="-4.90470333">
        <ele>481.0</ele>
        <time>2018-10-06T09:02:30.000Z</time>
      </trkpt>
      <trkpt lat="38.12741" lon="-4.90470333">
        <ele>481.0</ele>
        <time>2018-10-06T09:02:31.000Z</time>
      </trkpt>
      <trkpt lat="38.12741" lon="-4.90470333">
        <ele>481.0</ele>
        <time>2018-10-06T09:02:32.000Z</time>
      </trkpt>
      <trkpt lat="38.12741" lon="-4.90470333">
        <ele>481.0</ele>
        <time>2018-10-06T09:02:33.000Z</time>
      </trkpt>
      <trkpt lat="38.12725167" lon="-4.90444667">
        <ele>484.0</ele>
        <time>2018-10-06T09:02:34.000Z</time>
      </trkpt>
      <trkpt lat="38.12724167" lon="-4.90443167">
        <ele>485.0</ele>
        <time>2018-10-06T09:02:35.000Z</time>
      </trkpt>
      <trkpt lat="38.12723167" lon="-4.904415">
        <ele>485.0</ele>
        <time>2018-10-06T09:02:36.000Z</time>
      </trkpt>
      <trkpt lat="38.12722" lon="-4.9044">
        <ele>486.0</ele>
        <time>2018-10-06T09:02:37.000Z</time>
      </trkpt>
      <trkpt lat="38.12720833" lon="-4.904385">
        <ele>486.0</ele>
        <time>2018-10-06T09:02:38.000Z</time>
      </trkpt>
      <trkpt lat="38.1272" lon="-4.90437167">
        <ele>487.0</ele>
        <time>2018-10-06T09:02:39.000Z</time>
      </trkpt>
      <trkpt lat="38.12719167" lon="-4.90436">
        <ele>487.0</ele>
        <time>2018-10-06T09:02:40.000Z</time>
      </trkpt>
      <trkpt lat="38.12718333" lon="-4.90434833">
        <ele>487.0</ele>
        <time>2018-10-06T09:02:41.000Z</time>
      </trkpt>
      <trkpt lat="38.127175" lon="-4.90433667">
        <ele>487.0</ele>
        <time>2018-10-06T09:02:42.000Z</time>
      </trkpt>
      <trkpt lat="38.12716667" lon="-4.90432167">
        <ele>488.0</ele>
        <time>2018-10-06T09:02:43.000Z</time>
      </trkpt>
      <trkpt lat="38.12715667" lon="-4.90430833">
        <ele>488.0</ele>
        <time>2018-10-06T09:02:44.000Z</time>
      </trkpt>
      <trkpt lat="38.12714667" lon="-4.904295">
        <ele>488.0</ele>
        <time>2018-10-06T09:02:45.000Z</time>
      </trkpt>
      <trkpt lat="38.12713667" lon="-4.90428">
        <ele>489.0</ele>
        <time>2018-10-06T09:02:46.000Z</time>
      </trkpt>
      <trkpt lat="38.12713" lon="-4.90426833">
        <ele>489.0</ele>
        <time>2018-10-06T09:02:47.000Z</time>
      </trkpt>
      <trkpt lat="38.12712333" lon="-4.90425667">
        <ele>489.0</ele>
        <time>2018-10-06T09:02:48.000Z</time>
      </trkpt>
      <trkpt lat="38.127115" lon="-4.904245">
        <ele>489.0</ele>
        <time>2018-10-06T09:02:49.000Z</time>
      </trkpt>
      <trkpt lat="38.12710667" lon="-4.904235">
        <ele>489.0</ele>
        <time>2018-10-06T09:02:50.000Z</time>
      </trkpt>
      <trkpt lat="38.12709833" lon="-4.90422333">
        <ele>489.0</ele>
        <time>2018-10-06T09:02:51.000Z</time>
      </trkpt>
      <trkpt lat="38.12709" lon="-4.90421167">
        <ele>489.0</ele>
        <time>2018-10-06T09:02:52.000Z</time>
      </trkpt>
      <trkpt lat="38.12708167" lon="-4.9042">
        <ele>490.0</ele>
        <time>2018-10-06T09:02:53.000Z</time>
      </trkpt>
      <trkpt lat="38.127075" lon="-4.90419167">
        <ele>490.0</ele>
        <time>2018-10-06T09:02:54.000Z</time>
      </trkpt>
      <trkpt lat="38.12706667" lon="-4.90418167">
        <ele>490.0</ele>
        <time>2018-10-06T09:02:55.000Z</time>
      </trkpt>
      <trkpt lat="38.12705667" lon="-4.90417333">
        <ele>490.0</ele>
        <time>2018-10-06T09:02:56.000Z</time>
      </trkpt>
      <trkpt lat="38.12704833" lon="-4.90416333">
        <ele>490.0</ele>
        <time>2018-10-06T09:02:57.000Z</time>
      </trkpt>
      <trkpt lat="38.12704167" lon="-4.90415333">
        <ele>490.0</ele>
        <time>2018-10-06T09:02:58.000Z</time>
      </trkpt>
      <trkpt lat="38.12703333" lon="-4.90414333">
        <ele>491.0</ele>
        <time>2018-10-06T09:02:59.000Z</time>
      </trkpt>
      <trkpt lat="38.12702667" lon="-4.90413333">
        <ele>491.0</ele>
        <time>2018-10-06T09:03:00.000Z</time>
      </trkpt>
      <trkpt lat="38.12702" lon="-4.90412333">
        <ele>491.0</ele>
        <time>2018-10-06T09:03:01.000Z</time>
      </trkpt>
      <trkpt lat="38.12701333" lon="-4.90411333">
        <ele>491.0</ele>
        <time>2018-10-06T09:03:02.000Z</time>
      </trkpt>
      <trkpt lat="38.12700667" lon="-4.90410333">
        <ele>491.0</ele>
        <time>2018-10-06T09:03:03.000Z</time>
      </trkpt>
      <trkpt lat="38.12699833" lon="-4.90409333">
        <ele>491.0</ele>
        <time>2018-10-06T09:03:04.000Z</time>
      </trkpt>
      <trkpt lat="38.12699167" lon="-4.90408167">
        <ele>491.0</ele>
        <time>2018-10-06T09:03:05.000Z</time>
      </trkpt>
      <trkpt lat="38.126985" lon="-4.90407">
        <ele>491.0</ele>
        <time>2018-10-06T09:03:06.000Z</time>
      </trkpt>
      <trkpt lat="38.12697833" lon="-4.90406">
        <ele>492.0</ele>
        <time>2018-10-06T09:03:07.000Z</time>
      </trkpt>
      <trkpt lat="38.12697167" lon="-4.90405167">
        <ele>492.0</ele>
        <time>2018-10-06T09:03:08.000Z</time>
      </trkpt>
      <trkpt lat="38.12696333" lon="-4.90404167">
        <ele>492.0</ele>
        <time>2018-10-06T09:03:09.000Z</time>
      </trkpt>
      <trkpt lat="38.12695667" lon="-4.90403167">
        <ele>492.0</ele>
        <time>2018-10-06T09:03:10.000Z</time>
      </trkpt>
      <trkpt lat="38.12695" lon="-4.90402167">
        <ele>492.0</ele>
        <time>2018-10-06T09:03:11.000Z</time>
      </trkpt>
      <trkpt lat="38.126945" lon="-4.90401167">
        <ele>492.0</ele>
        <time>2018-10-06T09:03:12.000Z</time>
      </trkpt>
      <trkpt lat="38.12694333" lon="-4.904005">
        <ele>492.0</ele>
        <time>2018-10-06T09:03:13.000Z</time>
      </trkpt>
      <trkpt lat="38.12693833" lon="-4.90399833">
        <ele>492.0</ele>
        <time>2018-10-06T09:03:14.000Z</time>
      </trkpt>
      <trkpt lat="38.12693167" lon="-4.90399">
        <ele>493.0</ele>
        <time>2018-10-06T09:03:15.000Z</time>
      </trkpt>
      <trkpt lat="38.12692667" lon="-4.90397833">
        <ele>493.0</ele>
        <time>2018-10-06T09:03:16.000Z</time>
      </trkpt>
      <trkpt lat="38.12691833" lon="-4.90397167">
        <ele>493.0</ele>
        <time>2018-10-06T09:03:17.000Z</time>
      </trkpt>
      <trkpt lat="38.12691333" lon="-4.90396167">
        <ele>493.0</ele>
        <time>2018-10-06T09:03:18.000Z</time>
      </trkpt>
      <trkpt lat="38.126905" lon="-4.90395333">
        <ele>493.0</ele>
        <time>2018-10-06T09:03:19.000Z</time>
      </trkpt>
      <trkpt lat="38.12689833" lon="-4.903945">
        <ele>493.0</ele>
        <time>2018-10-06T09:03:20.000Z</time>
      </trkpt>
      <trkpt lat="38.12689" lon="-4.90393667">
        <ele>493.0</ele>
        <time>2018-10-06T09:03:21.000Z</time>
      </trkpt>
      <trkpt lat="38.12688" lon="-4.90393">
        <ele>493.0</ele>
        <time>2018-10-06T09:03:22.000Z</time>
      </trkpt>
      <trkpt lat="38.126875" lon="-4.903925">
        <ele>493.0</ele>
        <time>2018-10-06T09:03:23.000Z</time>
      </trkpt>
      <trkpt lat="38.12687333" lon="-4.90392833">
        <ele>493.0</ele>
        <time>2018-10-06T09:03:24.000Z</time>
      </trkpt>
      <trkpt lat="38.12687167" lon="-4.90392667">
        <ele>493.0</ele>
        <time>2018-10-06T09:03:25.000Z</time>
      </trkpt>
      <trkpt lat="38.12686833" lon="-4.90391667">
        <ele>493.0</ele>
        <time>2018-10-06T09:03:26.000Z</time>
      </trkpt>
      <trkpt lat="38.12686833" lon="-4.90391667">
        <ele>493.0</ele>
        <time>2018-10-06T09:03:27.000Z</time>
      </trkpt>
      <trkpt lat="38.12686833" lon="-4.90391667">
        <ele>493.0</ele>
        <time>2018-10-06T09:03:28.000Z</time>
      </trkpt>
      <trkpt lat="38.12686833" lon="-4.90391667">
        <ele>493.0</ele>
        <time>2018-10-06T09:03:29.000Z</time>
      </trkpt>
      <trkpt lat="38.12686833" lon="-4.90391667">
        <ele>493.0</ele>
        <time>2018-10-06T09:03:30.000Z</time>
      </trkpt>
      <trkpt lat="38.12686833" lon="-4.90391667">
        <ele>493.0</ele>
        <time>2018-10-06T09:03:31.000Z</time>
      </trkpt>
      <trkpt lat="38.12686833" lon="-4.90391667">
        <ele>493.0</ele>
        <time>2018-10-06T09:03:32.000Z</time>
      </trkpt>
      <trkpt lat="38.12686833" lon="-4.90391667">
        <ele>493.0</ele>
        <time>2018-10-06T09:03:33.000Z</time>
      </trkpt>
      <trkpt lat="38.12684" lon="-4.90389167">
        <ele>485.0</ele>
        <time>2018-10-06T09:03:34.000Z</time>
      </trkpt>
      <trkpt lat="38.12681167" lon="-4.90384667">
        <ele>491.0</ele>
        <time>2018-10-06T09:03:35.000Z</time>
      </trkpt>
      <trkpt lat="38.12681" lon="-4.903845">
        <ele>491.0</ele>
        <time>2018-10-06T09:03:36.000Z</time>
      </trkpt>
      <trkpt lat="38.12680833" lon="-4.90384833">
        <ele>491.0</ele>
        <time>2018-10-06T09:03:37.000Z</time>
      </trkpt>
      <trkpt lat="38.12680833" lon="-4.90384833">
        <ele>491.0</ele>
        <time>2018-10-06T09:03:38.000Z</time>
      </trkpt>
      <trkpt lat="38.12680667" lon="-4.90384667">
        <ele>491.0</ele>
        <time>2018-10-06T09:03:39.000Z</time>
      </trkpt>
      <trkpt lat="38.12680667" lon="-4.90384667">
        <ele>491.0</ele>
        <time>2018-10-06T09:03:40.000Z</time>
      </trkpt>
      <trkpt lat="38.12680667" lon="-4.90384167">
        <ele>491.0</ele>
        <time>2018-10-06T09:03:41.000Z</time>
      </trkpt>
      <trkpt lat="38.12680833" lon="-4.90383667">
        <ele>492.0</ele>
        <time>2018-10-06T09:03:42.000Z</time>
      </trkpt>
      <trkpt lat="38.12680833" lon="-4.90383333">
        <ele>492.0</ele>
        <time>2018-10-06T09:03:43.000Z</time>
      </trkpt>
      <trkpt lat="38.12681" lon="-4.90383333">
        <ele>492.0</ele>
        <time>2018-10-06T09:03:44.000Z</time>
      </trkpt>
      <trkpt lat="38.12681167" lon="-4.90383167">
        <ele>492.0</ele>
        <time>2018-10-06T09:03:45.000Z</time>
      </trkpt>
      <trkpt lat="38.12681167" lon="-4.90383167">
        <ele>492.0</ele>
        <time>2018-10-06T09:03:46.000Z</time>
      </trkpt>
      <trkpt lat="38.12681167" lon="-4.90383167">
        <ele>492.0</ele>
        <time>2018-10-06T09:03:47.000Z</time>
      </trkpt>
      <trkpt lat="38.12681167" lon="-4.90383167">
        <ele>492.0</ele>
        <time>2018-10-06T09:03:48.000Z</time>
      </trkpt>
      <trkpt lat="38.12681167" lon="-4.90383167">
        <ele>492.0</ele>
        <time>2018-10-06T09:03:49.000Z</time>
      </trkpt>
      <trkpt lat="38.12681167" lon="-4.90383167">
        <ele>492.0</ele>
        <time>2018-10-06T09:03:50.000Z</time>
      </trkpt>
      <trkpt lat="38.12681167" lon="-4.90383167">
        <ele>492.0</ele>
        <time>2018-10-06T09:03:51.000Z</time>
      </trkpt>
      <trkpt lat="38.12681167" lon="-4.90383167">
        <ele>492.0</ele>
        <time>2018-10-06T09:03:52.000Z</time>
      </trkpt>
      <trkpt lat="38.12681167" lon="-4.90383167">
        <ele>492.0</ele>
        <time>2018-10-06T09:03:53.000Z</time>
      </trkpt>
      <trkpt lat="38.12681167" lon="-4.90383167">
        <ele>492.0</ele>
        <time>2018-10-06T09:03:54.000Z</time>
      </trkpt>
      <trkpt lat="38.12681167" lon="-4.90383167">
        <ele>492.0</ele>
        <time>2018-10-06T09:03:55.000Z</time>
      </trkpt>
      <trkpt lat="38.12681167" lon="-4.90383167">
        <ele>492.0</ele>
        <time>2018-10-06T09:03:56.000Z</time>
      </trkpt>
      <trkpt lat="38.12681167" lon="-4.90383167">
        <ele>492.0</ele>
        <time>2018-10-06T09:03:57.000Z</time>
      </trkpt>
      <trkpt lat="38.12681167" lon="-4.90383167">
        <ele>492.0</ele>
        <time>2018-10-06T09:03:58.000Z</time>
      </trkpt>
      <trkpt lat="38.12681167" lon="-4.90383167">
        <ele>492.0</ele>
        <time>2018-10-06T09:03:59.000Z</time>
      </trkpt>
      <trkpt lat="38.12681167" lon="-4.90383167">
        <ele>492.0</ele>
        <time>2018-10-06T09:04:00.000Z</time>
      </trkpt>
      <trkpt lat="38.12681167" lon="-4.90383167">
        <ele>492.0</ele>
        <time>2018-10-06T09:04:01.000Z</time>
      </trkpt>
      <trkpt lat="38.12681167" lon="-4.90383167">
        <ele>492.0</ele>
        <time>2018-10-06T09:04:02.000Z</time>
      </trkpt>
      <trkpt lat="38.12681167" lon="-4.90383167">
        <ele>492.0</ele>
        <time>2018-10-06T09:04:03.000Z</time>
      </trkpt>
      <trkpt lat="38.12681167" lon="-4.90383167">
        <ele>492.0</ele>
        <time>2018-10-06T09:04:04.000Z</time>
      </trkpt>
      <trkpt lat="38.12681167" lon="-4.90383167">
        <ele>492.0</ele>
        <time>2018-10-06T09:04:05.000Z</time>
      </trkpt>
      <trkpt lat="38.12681167" lon="-4.90383167">
        <ele>492.0</ele>
        <time>2018-10-06T09:04:06.000Z</time>
      </trkpt>
      <trkpt lat="38.12681167" lon="-4.90383167">
        <ele>492.0</ele>
        <time>2018-10-06T09:04:07.000Z</time>
      </trkpt>
      <trkpt lat="38.12681167" lon="-4.90383167">
        <ele>492.0</ele>
        <time>2018-10-06T09:04:08.000Z</time>
      </trkpt>
      <trkpt lat="38.12681167" lon="-4.90383167">
        <ele>492.0</ele>
        <time>2018-10-06T09:04:09.000Z</time>
      </trkpt>
      <trkpt lat="38.12681167" lon="-4.90383167">
        <ele>492.0</ele>
        <time>2018-10-06T09:04:10.000Z</time>
      </trkpt>
      <trkpt lat="38.12681167" lon="-4.90383167">
        <ele>492.0</ele>
        <time>2018-10-06T09:04:11.000Z</time>
      </trkpt>
      <trkpt lat="38.12681167" lon="-4.90383167">
        <ele>492.0</ele>
        <time>2018-10-06T09:04:12.000Z</time>
      </trkpt>
      <trkpt lat="38.12681167" lon="-4.90383167">
        <ele>492.0</ele>
        <time>2018-10-06T09:04:13.000Z</time>
      </trkpt>
      <trkpt lat="38.12681167" lon="-4.90383167">
        <ele>492.0</ele>
        <time>2018-10-06T09:04:14.000Z</time>
      </trkpt>
      <trkpt lat="38.12681167" lon="-4.90383167">
        <ele>492.0</ele>
        <time>2018-10-06T09:04:15.000Z</time>
      </trkpt>
      <trkpt lat="38.12681167" lon="-4.90383167">
        <ele>492.0</ele>
        <time>2018-10-06T09:04:16.000Z</time>
      </trkpt>
      <trkpt lat="38.12681167" lon="-4.90383167">
        <ele>492.0</ele>
        <time>2018-10-06T09:04:17.000Z</time>
      </trkpt>
      <trkpt lat="38.12681167" lon="-4.90383167">
        <ele>492.0</ele>
        <time>2018-10-06T09:04:18.000Z</time>
      </trkpt>
      <trkpt lat="38.12681167" lon="-4.90383167">
        <ele>492.0</ele>
        <time>2018-10-06T09:04:19.000Z</time>
      </trkpt>
      <trkpt lat="38.12681167" lon="-4.90383167">
        <ele>492.0</ele>
        <time>2018-10-06T09:04:20.000Z</time>
      </trkpt>
      <trkpt lat="38.12681167" lon="-4.90383167">
        <ele>492.0</ele>
        <time>2018-10-06T09:04:21.000Z</time>
      </trkpt>
      <trkpt lat="38.12681167" lon="-4.90383167">
        <ele>492.0</ele>
        <time>2018-10-06T09:04:22.000Z</time>
      </trkpt>
      <trkpt lat="38.12681167" lon="-4.90383167">
        <ele>492.0</ele>
        <time>2018-10-06T09:04:23.000Z</time>
      </trkpt>
      <trkpt lat="38.12681167" lon="-4.90383167">
        <ele>492.0</ele>
        <time>2018-10-06T09:04:24.000Z</time>
      </trkpt>
      <trkpt lat="38.12681167" lon="-4.90383167">
        <ele>492.0</ele>
        <time>2018-10-06T09:04:25.000Z</time>
      </trkpt>
      <trkpt lat="38.12681167" lon="-4.90383167">
        <ele>492.0</ele>
        <time>2018-10-06T09:04:26.000Z</time>
      </trkpt>
      <trkpt lat="38.12681167" lon="-4.90383167">
        <ele>492.0</ele>
        <time>2018-10-06T09:04:27.000Z</time>
      </trkpt>
      <trkpt lat="38.12681167" lon="-4.90383167">
        <ele>492.0</ele>
        <time>2018-10-06T09:04:28.000Z</time>
      </trkpt>
      <trkpt lat="38.12681167" lon="-4.90383167">
        <ele>492.0</ele>
        <time>2018-10-06T09:04:29.000Z</time>
      </trkpt>
      <trkpt lat="38.12681167" lon="-4.90383167">
        <ele>492.0</ele>
        <time>2018-10-06T09:04:30.000Z</time>
      </trkpt>
      <trkpt lat="38.12681167" lon="-4.90383167">
        <ele>492.0</ele>
        <time>2018-10-06T09:04:31.000Z</time>
      </trkpt>
      <trkpt lat="38.12681167" lon="-4.90383167">
        <ele>492.0</ele>
        <time>2018-10-06T09:04:32.000Z</time>
      </trkpt>
      <trkpt lat="38.12681167" lon="-4.90383167">
        <ele>492.0</ele>
        <time>2018-10-06T09:04:33.000Z</time>
      </trkpt>
      <trkpt lat="38.12674833" lon="-4.90376333">
        <ele>483.0</ele>
        <time>2018-10-06T09:04:34.000Z</time>
      </trkpt>
      <trkpt lat="38.12674167" lon="-4.90375333">
        <ele>482.0</ele>
        <time>2018-10-06T09:04:35.000Z</time>
      </trkpt>
      <trkpt lat="38.126735" lon="-4.90374">
        <ele>483.0</ele>
        <time>2018-10-06T09:04:36.000Z</time>
      </trkpt>
      <trkpt lat="38.12672333" lon="-4.90372167">
        <ele>484.0</ele>
        <time>2018-10-06T09:04:37.000Z</time>
      </trkpt>
      <trkpt lat="38.12671333" lon="-4.90370667">
        <ele>485.0</ele>
        <time>2018-10-06T09:04:38.000Z</time>
      </trkpt>
      <trkpt lat="38.12670333" lon="-4.90369167">
        <ele>485.0</ele>
        <time>2018-10-06T09:04:39.000Z</time>
      </trkpt>
      <trkpt lat="38.12669333" lon="-4.90367833">
        <ele>486.0</ele>
        <time>2018-10-06T09:04:40.000Z</time>
      </trkpt>
      <trkpt lat="38.12668333" lon="-4.90366667">
        <ele>487.0</ele>
        <time>2018-10-06T09:04:41.000Z</time>
      </trkpt>
      <trkpt lat="38.126675" lon="-4.903655">
        <ele>488.0</ele>
        <time>2018-10-06T09:04:42.000Z</time>
      </trkpt>
      <trkpt lat="38.12666667" lon="-4.90364">
        <ele>488.0</ele>
        <time>2018-10-06T09:04:43.000Z</time>
      </trkpt>
      <trkpt lat="38.12665667" lon="-4.90362667">
        <ele>489.0</ele>
        <time>2018-10-06T09:04:44.000Z</time>
      </trkpt>
      <trkpt lat="38.12664833" lon="-4.903615">
        <ele>489.0</ele>
        <time>2018-10-06T09:04:45.000Z</time>
      </trkpt>
      <trkpt lat="38.12664833" lon="-4.903615">
        <ele>489.0</ele>
        <time>2018-10-06T09:04:46.000Z</time>
      </trkpt>
      <trkpt lat="38.12664833" lon="-4.903615">
        <ele>489.0</ele>
        <time>2018-10-06T09:04:47.000Z</time>
      </trkpt>
      <trkpt lat="38.12664833" lon="-4.903615">
        <ele>489.0</ele>
        <time>2018-10-06T09:04:48.000Z</time>
      </trkpt>
      <trkpt lat="38.12664833" lon="-4.903615">
        <ele>489.0</ele>
        <time>2018-10-06T09:04:49.000Z</time>
      </trkpt>
      <trkpt lat="38.12664833" lon="-4.903615">
        <ele>489.0</ele>
        <time>2018-10-06T09:04:50.000Z</time>
      </trkpt>
      <trkpt lat="38.12664833" lon="-4.903615">
        <ele>489.0</ele>
        <time>2018-10-06T09:04:51.000Z</time>
      </trkpt>
      <trkpt lat="38.12664833" lon="-4.903615">
        <ele>489.0</ele>
        <time>2018-10-06T09:04:52.000Z</time>
      </trkpt>
      <trkpt lat="38.12664833" lon="-4.903615">
        <ele>489.0</ele>
        <time>2018-10-06T09:04:53.000Z</time>
      </trkpt>
      <trkpt lat="38.12664833" lon="-4.903615">
        <ele>489.0</ele>
        <time>2018-10-06T09:04:54.000Z</time>
      </trkpt>
      <trkpt lat="38.12664833" lon="-4.903615">
        <ele>489.0</ele>
        <time>2018-10-06T09:04:55.000Z</time>
      </trkpt>
      <trkpt lat="38.12664833" lon="-4.903615">
        <ele>489.0</ele>
        <time>2018-10-06T09:04:56.000Z</time>
      </trkpt>
      <trkpt lat="38.12664833" lon="-4.903615">
        <ele>489.0</ele>
        <time>2018-10-06T09:04:57.000Z</time>
      </trkpt>
      <trkpt lat="38.12664833" lon="-4.903615">
        <ele>489.0</ele>
        <time>2018-10-06T09:04:58.000Z</time>
      </trkpt>
      <trkpt lat="38.12664833" lon="-4.903615">
        <ele>489.0</ele>
        <time>2018-10-06T09:04:59.000Z</time>
      </trkpt>
      <trkpt lat="38.12664833" lon="-4.903615">
        <ele>489.0</ele>
        <time>2018-10-06T09:05:00.000Z</time>
      </trkpt>
      <trkpt lat="38.12664833" lon="-4.903615">
        <ele>489.0</ele>
        <time>2018-10-06T09:05:01.000Z</time>
      </trkpt>
      <trkpt lat="38.12664833" lon="-4.903615">
        <ele>489.0</ele>
        <time>2018-10-06T09:05:02.000Z</time>
      </trkpt>
      <trkpt lat="38.12664833" lon="-4.903615">
        <ele>489.0</ele>
        <time>2018-10-06T09:05:03.000Z</time>
      </trkpt>
      <trkpt lat="38.12664833" lon="-4.903615">
        <ele>489.0</ele>
        <time>2018-10-06T09:05:04.000Z</time>
      </trkpt>
      <trkpt lat="38.12664833" lon="-4.903615">
        <ele>489.0</ele>
        <time>2018-10-06T09:05:05.000Z</time>
      </trkpt>
      <trkpt lat="38.12664833" lon="-4.903615">
        <ele>489.0</ele>
        <time>2018-10-06T09:05:06.000Z</time>
      </trkpt>
      <trkpt lat="38.12664833" lon="-4.903615">
        <ele>489.0</ele>
        <time>2018-10-06T09:05:07.000Z</time>
      </trkpt>
      <trkpt lat="38.12664833" lon="-4.903615">
        <ele>489.0</ele>
        <time>2018-10-06T09:05:08.000Z</time>
      </trkpt>
      <trkpt lat="38.12664833" lon="-4.903615">
        <ele>489.0</ele>
        <time>2018-10-06T09:05:09.000Z</time>
      </trkpt>
      <trkpt lat="38.12664833" lon="-4.903615">
        <ele>489.0</ele>
        <time>2018-10-06T09:05:10.000Z</time>
      </trkpt>
      <trkpt lat="38.12664833" lon="-4.903615">
        <ele>489.0</ele>
        <time>2018-10-06T09:05:11.000Z</time>
      </trkpt>
      <trkpt lat="38.12664833" lon="-4.903615">
        <ele>489.0</ele>
        <time>2018-10-06T09:05:12.000Z</time>
      </trkpt>
      <trkpt lat="38.12664833" lon="-4.903615">
        <ele>489.0</ele>
        <time>2018-10-06T09:05:13.000Z</time>
      </trkpt>
      <trkpt lat="38.12664833" lon="-4.903615">
        <ele>489.0</ele>
        <time>2018-10-06T09:05:14.000Z</time>
      </trkpt>
      <trkpt lat="38.12664833" lon="-4.903615">
        <ele>489.0</ele>
        <time>2018-10-06T09:05:15.000Z</time>
      </trkpt>
      <trkpt lat="38.12664833" lon="-4.903615">
        <ele>489.0</ele>
        <time>2018-10-06T09:05:16.000Z</time>
      </trkpt>
      <trkpt lat="38.12664833" lon="-4.903615">
        <ele>489.0</ele>
        <time>2018-10-06T09:05:17.000Z</time>
      </trkpt>
      <trkpt lat="38.12664833" lon="-4.903615">
        <ele>489.0</ele>
        <time>2018-10-06T09:05:18.000Z</time>
      </trkpt>
      <trkpt lat="38.12664833" lon="-4.903615">
        <ele>489.0</ele>
        <time>2018-10-06T09:05:19.000Z</time>
      </trkpt>
      <trkpt lat="38.12664833" lon="-4.903615">
        <ele>489.0</ele>
        <time>2018-10-06T09:05:20.000Z</time>
      </trkpt>
      <trkpt lat="38.12664833" lon="-4.903615">
        <ele>489.0</ele>
        <time>2018-10-06T09:05:21.000Z</time>
      </trkpt>
      <trkpt lat="38.12664833" lon="-4.903615">
        <ele>489.0</ele>
        <time>2018-10-06T09:05:22.000Z</time>
      </trkpt>
      <trkpt lat="38.12664833" lon="-4.903615">
        <ele>489.0</ele>
        <time>2018-10-06T09:05:23.000Z</time>
      </trkpt>
      <trkpt lat="38.12664833" lon="-4.903615">
        <ele>489.0</ele>
        <time>2018-10-06T09:05:24.000Z</time>
      </trkpt>
      <trkpt lat="38.12664833" lon="-4.903615">
        <ele>489.0</ele>
        <time>2018-10-06T09:05:25.000Z</time>
      </trkpt>
      <trkpt lat="38.12664833" lon="-4.903615">
        <ele>489.0</ele>
        <time>2018-10-06T09:05:26.000Z</time>
      </trkpt>
      <trkpt lat="38.12664833" lon="-4.903615">
        <ele>489.0</ele>
        <time>2018-10-06T09:05:27.000Z</time>
      </trkpt>
      <trkpt lat="38.12664833" lon="-4.903615">
        <ele>489.0</ele>
        <time>2018-10-06T09:05:28.000Z</time>
      </trkpt>
      <trkpt lat="38.12664833" lon="-4.903615">
        <ele>489.0</ele>
        <time>2018-10-06T09:05:29.000Z</time>
      </trkpt>
      <trkpt lat="38.12664833" lon="-4.903615">
        <ele>489.0</ele>
        <time>2018-10-06T09:05:30.000Z</time>
      </trkpt>
      <trkpt lat="38.12664833" lon="-4.903615">
        <ele>489.0</ele>
        <time>2018-10-06T09:05:31.000Z</time>
      </trkpt>
      <trkpt lat="38.12664833" lon="-4.903615">
        <ele>489.0</ele>
        <time>2018-10-06T09:05:32.000Z</time>
      </trkpt>
      <trkpt lat="38.12664833" lon="-4.903615">
        <ele>489.0</ele>
        <time>2018-10-06T09:05:33.000Z</time>
      </trkpt>
      <trkpt lat="38.12634667" lon="-4.90327833">
        <ele>486.0</ele>
        <time>2018-10-06T09:05:34.000Z</time>
      </trkpt>
      <trkpt lat="38.12634" lon="-4.90326833">
        <ele>487.0</ele>
        <time>2018-10-06T09:05:35.000Z</time>
      </trkpt>
      <trkpt lat="38.12633167" lon="-4.90325833">
        <ele>487.0</ele>
        <time>2018-10-06T09:05:36.000Z</time>
      </trkpt>
      <trkpt lat="38.12632167" lon="-4.90323833">
        <ele>488.0</ele>
        <time>2018-10-06T09:05:37.000Z</time>
      </trkpt>
      <trkpt lat="38.12630833" lon="-4.90321667">
        <ele>489.0</ele>
        <time>2018-10-06T09:05:38.000Z</time>
      </trkpt>
      <trkpt lat="38.12629667" lon="-4.90319833">
        <ele>489.0</ele>
        <time>2018-10-06T09:05:39.000Z</time>
      </trkpt>
      <trkpt lat="38.126285" lon="-4.90318">
        <ele>490.0</ele>
        <time>2018-10-06T09:05:40.000Z</time>
      </trkpt>
      <trkpt lat="38.12627333" lon="-4.90316167">
        <ele>491.0</ele>
        <time>2018-10-06T09:05:41.000Z</time>
      </trkpt>
      <trkpt lat="38.12626333" lon="-4.90314167">
        <ele>492.0</ele>
        <time>2018-10-06T09:05:42.000Z</time>
      </trkpt>
      <trkpt lat="38.12625167" lon="-4.90312333">
        <ele>492.0</ele>
        <time>2018-10-06T09:05:43.000Z</time>
      </trkpt>
      <trkpt lat="38.12624167" lon="-4.90310333">
        <ele>493.0</ele>
        <time>2018-10-06T09:05:44.000Z</time>
      </trkpt>
      <trkpt lat="38.12623167" lon="-4.90308667">
        <ele>493.0</ele>
        <time>2018-10-06T09:05:45.000Z</time>
      </trkpt>
      <trkpt lat="38.12623167" lon="-4.90308667">
        <ele>493.0</ele>
        <time>2018-10-06T09:05:46.000Z</time>
      </trkpt>
      <trkpt lat="38.12623167" lon="-4.90308667">
        <ele>493.0</ele>
        <time>2018-10-06T09:05:47.000Z</time>
      </trkpt>
      <trkpt lat="38.12623167" lon="-4.90308667">
        <ele>493.0</ele>
        <time>2018-10-06T09:05:48.000Z</time>
      </trkpt>
      <trkpt lat="38.12623167" lon="-4.90308667">
        <ele>493.0</ele>
        <time>2018-10-06T09:05:49.000Z</time>
      </trkpt>
      <trkpt lat="38.12623167" lon="-4.90308667">
        <ele>493.0</ele>
        <time>2018-10-06T09:05:50.000Z</time>
      </trkpt>
      <trkpt lat="38.12623167" lon="-4.90308667">
        <ele>493.0</ele>
        <time>2018-10-06T09:05:51.000Z</time>
      </trkpt>
      <trkpt lat="38.12623167" lon="-4.90308667">
        <ele>493.0</ele>
        <time>2018-10-06T09:05:52.000Z</time>
      </trkpt>
      <trkpt lat="38.12623167" lon="-4.90308667">
        <ele>493.0</ele>
        <time>2018-10-06T09:05:53.000Z</time>
      </trkpt>
      <trkpt lat="38.12623167" lon="-4.90308667">
        <ele>493.0</ele>
        <time>2018-10-06T09:05:54.000Z</time>
      </trkpt>
      <trkpt lat="38.12623167" lon="-4.90308667">
        <ele>493.0</ele>
        <time>2018-10-06T09:05:55.000Z</time>
      </trkpt>
      <trkpt lat="38.12623167" lon="-4.90308667">
        <ele>493.0</ele>
        <time>2018-10-06T09:05:56.000Z</time>
      </trkpt>
      <trkpt lat="38.12623167" lon="-4.90308667">
        <ele>493.0</ele>
        <time>2018-10-06T09:05:57.000Z</time>
      </trkpt>
      <trkpt lat="38.12623167" lon="-4.90308667">
        <ele>493.0</ele>
        <time>2018-10-06T09:05:58.000Z</time>
      </trkpt>
      <trkpt lat="38.12623167" lon="-4.90308667">
        <ele>493.0</ele>
        <time>2018-10-06T09:05:59.000Z</time>
      </trkpt>
      <trkpt lat="38.12623167" lon="-4.90308667">
        <ele>493.0</ele>
        <time>2018-10-06T09:06:00.000Z</time>
      </trkpt>
      <trkpt lat="38.12623167" lon="-4.90308667">
        <ele>493.0</ele>
        <time>2018-10-06T09:06:01.000Z</time>
      </trkpt>
      <trkpt lat="38.12623167" lon="-4.90308667">
        <ele>493.0</ele>
        <time>2018-10-06T09:06:02.000Z</time>
      </trkpt>
      <trkpt lat="38.12623167" lon="-4.90308667">
        <ele>493.0</ele>
        <time>2018-10-06T09:06:03.000Z</time>
      </trkpt>
      <trkpt lat="38.12623167" lon="-4.90308667">
        <ele>493.0</ele>
        <time>2018-10-06T09:06:04.000Z</time>
      </trkpt>
      <trkpt lat="38.12623167" lon="-4.90308667">
        <ele>493.0</ele>
        <time>2018-10-06T09:06:05.000Z</time>
      </trkpt>
      <trkpt lat="38.12623167" lon="-4.90308667">
        <ele>493.0</ele>
        <time>2018-10-06T09:06:06.000Z</time>
      </trkpt>
      <trkpt lat="38.12623167" lon="-4.90308667">
        <ele>493.0</ele>
        <time>2018-10-06T09:06:07.000Z</time>
      </trkpt>
      <trkpt lat="38.12623167" lon="-4.90308667">
        <ele>493.0</ele>
        <time>2018-10-06T09:06:08.000Z</time>
      </trkpt>
      <trkpt lat="38.12623167" lon="-4.90308667">
        <ele>493.0</ele>
        <time>2018-10-06T09:06:09.000Z</time>
      </trkpt>
      <trkpt lat="38.12623167" lon="-4.90308667">
        <ele>493.0</ele>
        <time>2018-10-06T09:06:10.000Z</time>
      </trkpt>
      <trkpt lat="38.12623167" lon="-4.90308667">
        <ele>493.0</ele>
        <time>2018-10-06T09:06:11.000Z</time>
      </trkpt>
      <trkpt lat="38.12623167" lon="-4.90308667">
        <ele>493.0</ele>
        <time>2018-10-06T09:06:12.000Z</time>
      </trkpt>
      <trkpt lat="38.12623167" lon="-4.90308667">
        <ele>493.0</ele>
        <time>2018-10-06T09:06:13.000Z</time>
      </trkpt>
      <trkpt lat="38.12623167" lon="-4.90308667">
        <ele>493.0</ele>
        <time>2018-10-06T09:06:14.000Z</time>
      </trkpt>
      <trkpt lat="38.12623167" lon="-4.90308667">
        <ele>493.0</ele>
        <time>2018-10-06T09:06:15.000Z</time>
      </trkpt>
      <trkpt lat="38.12623167" lon="-4.90308667">
        <ele>493.0</ele>
        <time>2018-10-06T09:06:16.000Z</time>
      </trkpt>
      <trkpt lat="38.12615167" lon="-4.90292">
        <ele>500.0</ele>
        <time>2018-10-06T09:06:17.000Z</time>
      </trkpt>
      <trkpt lat="38.12614667" lon="-4.90290667">
        <ele>499.0</ele>
        <time>2018-10-06T09:06:18.000Z</time>
      </trkpt>
      <trkpt lat="38.12613833" lon="-4.90289167">
        <ele>499.0</ele>
        <time>2018-10-06T09:06:19.000Z</time>
      </trkpt>
      <trkpt lat="38.12612667" lon="-4.902875">
        <ele>500.0</ele>
        <time>2018-10-06T09:06:20.000Z</time>
      </trkpt>
      <trkpt lat="38.12611333" lon="-4.90286">
        <ele>500.0</ele>
        <time>2018-10-06T09:06:21.000Z</time>
      </trkpt>
      <trkpt lat="38.12610333" lon="-4.90284667">
        <ele>500.0</ele>
        <time>2018-10-06T09:06:22.000Z</time>
      </trkpt>
      <trkpt lat="38.12609333" lon="-4.90283833">
        <ele>500.0</ele>
        <time>2018-10-06T09:06:23.000Z</time>
      </trkpt>
      <trkpt lat="38.126085" lon="-4.90283167">
        <ele>501.0</ele>
        <time>2018-10-06T09:06:24.000Z</time>
      </trkpt>
      <trkpt lat="38.12608167" lon="-4.90282833">
        <ele>501.0</ele>
        <time>2018-10-06T09:06:25.000Z</time>
      </trkpt>
      <trkpt lat="38.126075" lon="-4.90281833">
        <ele>501.0</ele>
        <time>2018-10-06T09:06:26.000Z</time>
      </trkpt>
      <trkpt lat="38.12606833" lon="-4.90280833">
        <ele>501.0</ele>
        <time>2018-10-06T09:06:27.000Z</time>
      </trkpt>
      <trkpt lat="38.126065" lon="-4.902805">
        <ele>502.0</ele>
        <time>2018-10-06T09:06:28.000Z</time>
      </trkpt>
      <trkpt lat="38.126065" lon="-4.902805">
        <ele>502.0</ele>
        <time>2018-10-06T09:06:29.000Z</time>
      </trkpt>
      <trkpt lat="38.126065" lon="-4.902805">
        <ele>502.0</ele>
        <time>2018-10-06T09:06:30.000Z</time>
      </trkpt>
      <trkpt lat="38.126065" lon="-4.902805">
        <ele>502.0</ele>
        <time>2018-10-06T09:06:31.000Z</time>
      </trkpt>
      <trkpt lat="38.126065" lon="-4.902805">
        <ele>502.0</ele>
        <time>2018-10-06T09:06:32.000Z</time>
      </trkpt>
      <trkpt lat="38.126065" lon="-4.902805">
        <ele>502.0</ele>
        <time>2018-10-06T09:06:33.000Z</time>
      </trkpt>
      <trkpt lat="38.126065" lon="-4.902805">
        <ele>502.0</ele>
        <time>2018-10-06T09:06:34.000Z</time>
      </trkpt>
      <trkpt lat="38.126065" lon="-4.902805">
        <ele>502.0</ele>
        <time>2018-10-06T09:06:35.000Z</time>
      </trkpt>
      <trkpt lat="38.126065" lon="-4.902805">
        <ele>502.0</ele>
        <time>2018-10-06T09:06:36.000Z</time>
      </trkpt>
      <trkpt lat="38.126065" lon="-4.902805">
        <ele>502.0</ele>
        <time>2018-10-06T09:06:37.000Z</time>
      </trkpt>
      <trkpt lat="38.126065" lon="-4.902805">
        <ele>502.0</ele>
        <time>2018-10-06T09:06:38.000Z</time>
      </trkpt>
      <trkpt lat="38.126065" lon="-4.902805">
        <ele>502.0</ele>
        <time>2018-10-06T09:06:39.000Z</time>
      </trkpt>
      <trkpt lat="38.126065" lon="-4.902805">
        <ele>502.0</ele>
        <time>2018-10-06T09:06:40.000Z</time>
      </trkpt>
      <trkpt lat="38.126065" lon="-4.902805">
        <ele>502.0</ele>
        <time>2018-10-06T09:06:41.000Z</time>
      </trkpt>
      <trkpt lat="38.126065" lon="-4.902805">
        <ele>502.0</ele>
        <time>2018-10-06T09:06:42.000Z</time>
      </trkpt>
      <trkpt lat="38.126065" lon="-4.902805">
        <ele>502.0</ele>
        <time>2018-10-06T09:06:43.000Z</time>
      </trkpt>
      <trkpt lat="38.126065" lon="-4.902805">
        <ele>502.0</ele>
        <time>2018-10-06T09:06:44.000Z</time>
      </trkpt>
      <trkpt lat="38.126065" lon="-4.902805">
        <ele>502.0</ele>
        <time>2018-10-06T09:06:45.000Z</time>
      </trkpt>
      <trkpt lat="38.126065" lon="-4.902805">
        <ele>502.0</ele>
        <time>2018-10-06T09:06:46.000Z</time>
      </trkpt>
      <trkpt lat="38.126065" lon="-4.902805">
        <ele>502.0</ele>
        <time>2018-10-06T09:06:47.000Z</time>
      </trkpt>
      <trkpt lat="38.126065" lon="-4.902805">
        <ele>502.0</ele>
        <time>2018-10-06T09:06:48.000Z</time>
      </trkpt>
      <trkpt lat="38.126065" lon="-4.902805">
        <ele>502.0</ele>
        <time>2018-10-06T09:06:49.000Z</time>
      </trkpt>
      <trkpt lat="38.126065" lon="-4.902805">
        <ele>502.0</ele>
        <time>2018-10-06T09:06:50.000Z</time>
      </trkpt>
      <trkpt lat="38.126065" lon="-4.902805">
        <ele>502.0</ele>
        <time>2018-10-06T09:06:51.000Z</time>
      </trkpt>
      <trkpt lat="38.126065" lon="-4.902805">
        <ele>502.0</ele>
        <time>2018-10-06T09:06:52.000Z</time>
      </trkpt>
      <trkpt lat="38.126065" lon="-4.902805">
        <ele>502.0</ele>
        <time>2018-10-06T09:06:53.000Z</time>
      </trkpt>
      <trkpt lat="38.126065" lon="-4.902805">
        <ele>502.0</ele>
        <time>2018-10-06T09:06:54.000Z</time>
      </trkpt>
      <trkpt lat="38.126065" lon="-4.902805">
        <ele>502.0</ele>
        <time>2018-10-06T09:06:55.000Z</time>
      </trkpt>
      <trkpt lat="38.126065" lon="-4.902805">
        <ele>502.0</ele>
        <time>2018-10-06T09:06:56.000Z</time>
      </trkpt>
      <trkpt lat="38.126065" lon="-4.902805">
        <ele>502.0</ele>
        <time>2018-10-06T09:06:57.000Z</time>
      </trkpt>
      <trkpt lat="38.126065" lon="-4.902805">
        <ele>502.0</ele>
        <time>2018-10-06T09:06:58.000Z</time>
      </trkpt>
      <trkpt lat="38.126065" lon="-4.902805">
        <ele>502.0</ele>
        <time>2018-10-06T09:06:59.000Z</time>
      </trkpt>
      <trkpt lat="38.126065" lon="-4.902805">
        <ele>502.0</ele>
        <time>2018-10-06T09:07:00.000Z</time>
      </trkpt>
      <trkpt lat="38.126065" lon="-4.902805">
        <ele>502.0</ele>
        <time>2018-10-06T09:07:01.000Z</time>
      </trkpt>
      <trkpt lat="38.126065" lon="-4.902805">
        <ele>502.0</ele>
        <time>2018-10-06T09:07:02.000Z</time>
      </trkpt>
      <trkpt lat="38.126065" lon="-4.902805">
        <ele>502.0</ele>
        <time>2018-10-06T09:07:03.000Z</time>
      </trkpt>
      <trkpt lat="38.126065" lon="-4.902805">
        <ele>502.0</ele>
        <time>2018-10-06T09:07:04.000Z</time>
      </trkpt>
      <trkpt lat="38.126065" lon="-4.902805">
        <ele>502.0</ele>
        <time>2018-10-06T09:07:05.000Z</time>
      </trkpt>
      <trkpt lat="38.126065" lon="-4.902805">
        <ele>502.0</ele>
        <time>2018-10-06T09:07:06.000Z</time>
      </trkpt>
      <trkpt lat="38.126065" lon="-4.902805">
        <ele>502.0</ele>
        <time>2018-10-06T09:07:07.000Z</time>
      </trkpt>
      <trkpt lat="38.126065" lon="-4.902805">
        <ele>502.0</ele>
        <time>2018-10-06T09:07:08.000Z</time>
      </trkpt>
      <trkpt lat="38.126065" lon="-4.902805">
        <ele>502.0</ele>
        <time>2018-10-06T09:07:09.000Z</time>
      </trkpt>
      <trkpt lat="38.126065" lon="-4.902805">
        <ele>502.0</ele>
        <time>2018-10-06T09:07:10.000Z</time>
      </trkpt>
      <trkpt lat="38.126065" lon="-4.902805">
        <ele>502.0</ele>
        <time>2018-10-06T09:07:11.000Z</time>
      </trkpt>
      <trkpt lat="38.126065" lon="-4.902805">
        <ele>502.0</ele>
        <time>2018-10-06T09:07:12.000Z</time>
      </trkpt>
      <trkpt lat="38.126065" lon="-4.902805">
        <ele>502.0</ele>
        <time>2018-10-06T09:07:13.000Z</time>
      </trkpt>
      <trkpt lat="38.126065" lon="-4.902805">
        <ele>502.0</ele>
        <time>2018-10-06T09:07:14.000Z</time>
      </trkpt>
      <trkpt lat="38.126065" lon="-4.902805">
        <ele>502.0</ele>
        <time>2018-10-06T09:07:15.000Z</time>
      </trkpt>
      <trkpt lat="38.126065" lon="-4.902805">
        <ele>502.0</ele>
        <time>2018-10-06T09:07:16.000Z</time>
      </trkpt>
      <trkpt lat="38.12592833" lon="-4.90272833">
        <ele>499.0</ele>
        <time>2018-10-06T09:07:17.000Z</time>
      </trkpt>
      <trkpt lat="38.12592333" lon="-4.90271333">
        <ele>499.0</ele>
        <time>2018-10-06T09:07:18.000Z</time>
      </trkpt>
      <trkpt lat="38.12591667" lon="-4.902695">
        <ele>500.0</ele>
        <time>2018-10-06T09:07:19.000Z</time>
      </trkpt>
      <trkpt lat="38.12591" lon="-4.902675">
        <ele>500.0</ele>
        <time>2018-10-06T09:07:20.000Z</time>
      </trkpt>
      <trkpt lat="38.1259" lon="-4.90265667">
        <ele>500.0</ele>
        <time>2018-10-06T09:07:21.000Z</time>
      </trkpt>
      <trkpt lat="38.12589167" lon="-4.90264">
        <ele>500.0</ele>
        <time>2018-10-06T09:07:22.000Z</time>
      </trkpt>
      <trkpt lat="38.12588667" lon="-4.902625">
        <ele>500.0</ele>
        <time>2018-10-06T09:07:23.000Z</time>
      </trkpt>
      <trkpt lat="38.12588" lon="-4.90261">
        <ele>500.0</ele>
        <time>2018-10-06T09:07:24.000Z</time>
      </trkpt>
      <trkpt lat="38.12587333" lon="-4.90259333">
        <ele>501.0</ele>
        <time>2018-10-06T09:07:25.000Z</time>
      </trkpt>
      <trkpt lat="38.12586667" lon="-4.90258">
        <ele>501.0</ele>
        <time>2018-10-06T09:07:26.000Z</time>
      </trkpt>
      <trkpt lat="38.12586" lon="-4.90256833">
        <ele>501.0</ele>
        <time>2018-10-06T09:07:27.000Z</time>
      </trkpt>
      <trkpt lat="38.125855" lon="-4.90256167">
        <ele>501.0</ele>
        <time>2018-10-06T09:07:28.000Z</time>
      </trkpt>
      <trkpt lat="38.125855" lon="-4.90256167">
        <ele>501.0</ele>
        <time>2018-10-06T09:07:29.000Z</time>
      </trkpt>
      <trkpt lat="38.125855" lon="-4.90256167">
        <ele>501.0</ele>
        <time>2018-10-06T09:07:30.000Z</time>
      </trkpt>
      <trkpt lat="38.125855" lon="-4.90256167">
        <ele>501.0</ele>
        <time>2018-10-06T09:07:31.000Z</time>
      </trkpt>
      <trkpt lat="38.125855" lon="-4.90256167">
        <ele>501.0</ele>
        <time>2018-10-06T09:07:32.000Z</time>
      </trkpt>
      <trkpt lat="38.125855" lon="-4.90256167">
        <ele>501.0</ele>
        <time>2018-10-06T09:07:33.000Z</time>
      </trkpt>
      <trkpt lat="38.125855" lon="-4.90256167">
        <ele>501.0</ele>
        <time>2018-10-06T09:07:34.000Z</time>
      </trkpt>
      <trkpt lat="38.125855" lon="-4.90256167">
        <ele>501.0</ele>
        <time>2018-10-06T09:07:35.000Z</time>
      </trkpt>
      <trkpt lat="38.125855" lon="-4.90256167">
        <ele>501.0</ele>
        <time>2018-10-06T09:07:36.000Z</time>
      </trkpt>
      <trkpt lat="38.125855" lon="-4.90256167">
        <ele>501.0</ele>
        <time>2018-10-06T09:07:37.000Z</time>
      </trkpt>
      <trkpt lat="38.125855" lon="-4.90256167">
        <ele>501.0</ele>
        <time>2018-10-06T09:07:38.000Z</time>
      </trkpt>
      <trkpt lat="38.125855" lon="-4.90256167">
        <ele>501.0</ele>
        <time>2018-10-06T09:07:39.000Z</time>
      </trkpt>
      <trkpt lat="38.125855" lon="-4.90256167">
        <ele>501.0</ele>
        <time>2018-10-06T09:07:40.000Z</time>
      </trkpt>
      <trkpt lat="38.125855" lon="-4.90256167">
        <ele>501.0</ele>
        <time>2018-10-06T09:07:41.000Z</time>
      </trkpt>
      <trkpt lat="38.125855" lon="-4.90256167">
        <ele>501.0</ele>
        <time>2018-10-06T09:07:42.000Z</time>
      </trkpt>
      <trkpt lat="38.125855" lon="-4.90256167">
        <ele>501.0</ele>
        <time>2018-10-06T09:07:43.000Z</time>
      </trkpt>
      <trkpt lat="38.125855" lon="-4.90256167">
        <ele>501.0</ele>
        <time>2018-10-06T09:07:44.000Z</time>
      </trkpt>
      <trkpt lat="38.125855" lon="-4.90256167">
        <ele>501.0</ele>
        <time>2018-10-06T09:07:45.000Z</time>
      </trkpt>
      <trkpt lat="38.125855" lon="-4.90256167">
        <ele>501.0</ele>
        <time>2018-10-06T09:07:46.000Z</time>
      </trkpt>
      <trkpt lat="38.125855" lon="-4.90256167">
        <ele>501.0</ele>
        <time>2018-10-06T09:07:47.000Z</time>
      </trkpt>
      <trkpt lat="38.125855" lon="-4.90256167">
        <ele>501.0</ele>
        <time>2018-10-06T09:07:48.000Z</time>
      </trkpt>
      <trkpt lat="38.125855" lon="-4.90256167">
        <ele>501.0</ele>
        <time>2018-10-06T09:07:49.000Z</time>
      </trkpt>
      <trkpt lat="38.125855" lon="-4.90256167">
        <ele>501.0</ele>
        <time>2018-10-06T09:07:50.000Z</time>
      </trkpt>
      <trkpt lat="38.125855" lon="-4.90256167">
        <ele>501.0</ele>
        <time>2018-10-06T09:07:51.000Z</time>
      </trkpt>
      <trkpt lat="38.125855" lon="-4.90256167">
        <ele>501.0</ele>
        <time>2018-10-06T09:07:52.000Z</time>
      </trkpt>
      <trkpt lat="38.125855" lon="-4.90256167">
        <ele>501.0</ele>
        <time>2018-10-06T09:07:53.000Z</time>
      </trkpt>
      <trkpt lat="38.125855" lon="-4.90256167">
        <ele>501.0</ele>
        <time>2018-10-06T09:07:54.000Z</time>
      </trkpt>
      <trkpt lat="38.125855" lon="-4.90256167">
        <ele>501.0</ele>
        <time>2018-10-06T09:07:55.000Z</time>
      </trkpt>
      <trkpt lat="38.125855" lon="-4.90256167">
        <ele>501.0</ele>
        <time>2018-10-06T09:07:56.000Z</time>
      </trkpt>
      <trkpt lat="38.125855" lon="-4.90256167">
        <ele>501.0</ele>
        <time>2018-10-06T09:07:57.000Z</time>
      </trkpt>
      <trkpt lat="38.125855" lon="-4.90256167">
        <ele>501.0</ele>
        <time>2018-10-06T09:07:58.000Z</time>
      </trkpt>
      <trkpt lat="38.125855" lon="-4.90256167">
        <ele>501.0</ele>
        <time>2018-10-06T09:07:59.000Z</time>
      </trkpt>
      <trkpt lat="38.125855" lon="-4.90256167">
        <ele>501.0</ele>
        <time>2018-10-06T09:08:00.000Z</time>
      </trkpt>
      <trkpt lat="38.125855" lon="-4.90256167">
        <ele>501.0</ele>
        <time>2018-10-06T09:08:01.000Z</time>
      </trkpt>
      <trkpt lat="38.125855" lon="-4.90256167">
        <ele>501.0</ele>
        <time>2018-10-06T09:08:02.000Z</time>
      </trkpt>
      <trkpt lat="38.125855" lon="-4.90256167">
        <ele>501.0</ele>
        <time>2018-10-06T09:08:03.000Z</time>
      </trkpt>
      <trkpt lat="38.125855" lon="-4.90256167">
        <ele>501.0</ele>
        <time>2018-10-06T09:08:04.000Z</time>
      </trkpt>
      <trkpt lat="38.125855" lon="-4.90256167">
        <ele>501.0</ele>
        <time>2018-10-06T09:08:05.000Z</time>
      </trkpt>
      <trkpt lat="38.125855" lon="-4.90256167">
        <ele>501.0</ele>
        <time>2018-10-06T09:08:06.000Z</time>
      </trkpt>
      <trkpt lat="38.125855" lon="-4.90256167">
        <ele>501.0</ele>
        <time>2018-10-06T09:08:07.000Z</time>
      </trkpt>
      <trkpt lat="38.125855" lon="-4.90256167">
        <ele>501.0</ele>
        <time>2018-10-06T09:08:08.000Z</time>
      </trkpt>
      <trkpt lat="38.125855" lon="-4.90256167">
        <ele>501.0</ele>
        <time>2018-10-06T09:08:09.000Z</time>
      </trkpt>
      <trkpt lat="38.125855" lon="-4.90256167">
        <ele>501.0</ele>
        <time>2018-10-06T09:08:10.000Z</time>
      </trkpt>
      <trkpt lat="38.125855" lon="-4.90256167">
        <ele>501.0</ele>
        <time>2018-10-06T09:08:11.000Z</time>
      </trkpt>
      <trkpt lat="38.125855" lon="-4.90256167">
        <ele>501.0</ele>
        <time>2018-10-06T09:08:12.000Z</time>
      </trkpt>
      <trkpt lat="38.125855" lon="-4.90256167">
        <ele>501.0</ele>
        <time>2018-10-06T09:08:13.000Z</time>
      </trkpt>
      <trkpt lat="38.125855" lon="-4.90256167">
        <ele>501.0</ele>
        <time>2018-10-06T09:08:14.000Z</time>
      </trkpt>
      <trkpt lat="38.125855" lon="-4.90256167">
        <ele>501.0</ele>
        <time>2018-10-06T09:08:15.000Z</time>
      </trkpt>
      <trkpt lat="38.125855" lon="-4.90256167">
        <ele>501.0</ele>
        <time>2018-10-06T09:08:16.000Z</time>
      </trkpt>
      <trkpt lat="38.12564833" lon="-4.90205">
        <ele>492.0</ele>
        <time>2018-10-06T09:08:18.000Z</time>
      </trkpt>
      <trkpt lat="38.12563833" lon="-4.90204167">
        <ele>492.0</ele>
        <time>2018-10-06T09:08:19.000Z</time>
      </trkpt>
      <trkpt lat="38.12563167" lon="-4.902035">
        <ele>493.0</ele>
        <time>2018-10-06T09:08:20.000Z</time>
      </trkpt>
      <trkpt lat="38.12562167" lon="-4.90202167">
        <ele>494.0</ele>
        <time>2018-10-06T09:08:21.000Z</time>
      </trkpt>
      <trkpt lat="38.12561" lon="-4.90201">
        <ele>495.0</ele>
        <time>2018-10-06T09:08:22.000Z</time>
      </trkpt>
      <trkpt lat="38.12559833" lon="-4.90199667">
        <ele>496.0</ele>
        <time>2018-10-06T09:08:23.000Z</time>
      </trkpt>
      <trkpt lat="38.125585" lon="-4.90198667">
        <ele>497.0</ele>
        <time>2018-10-06T09:08:24.000Z</time>
      </trkpt>
      <trkpt lat="38.125575" lon="-4.901975">
        <ele>497.0</ele>
        <time>2018-10-06T09:08:25.000Z</time>
      </trkpt>
      <trkpt lat="38.125565" lon="-4.90196167">
        <ele>498.0</ele>
        <time>2018-10-06T09:08:26.000Z</time>
      </trkpt>
      <trkpt lat="38.12555667" lon="-4.90194667">
        <ele>499.0</ele>
        <time>2018-10-06T09:08:27.000Z</time>
      </trkpt>
      <trkpt lat="38.12554833" lon="-4.90193167">
        <ele>499.0</ele>
        <time>2018-10-06T09:08:28.000Z</time>
      </trkpt>
      <trkpt lat="38.12554833" lon="-4.90193167">
        <ele>499.0</ele>
        <time>2018-10-06T09:08:29.000Z</time>
      </trkpt>
      <trkpt lat="38.12554833" lon="-4.90193167">
        <ele>499.0</ele>
        <time>2018-10-06T09:08:30.000Z</time>
      </trkpt>
      <trkpt lat="38.12554833" lon="-4.90193167">
        <ele>499.0</ele>
        <time>2018-10-06T09:08:31.000Z</time>
      </trkpt>
      <trkpt lat="38.12554833" lon="-4.90193167">
        <ele>499.0</ele>
        <time>2018-10-06T09:08:32.000Z</time>
      </trkpt>
      <trkpt lat="38.12554833" lon="-4.90193167">
        <ele>499.0</ele>
        <time>2018-10-06T09:08:33.000Z</time>
      </trkpt>
      <trkpt lat="38.12554833" lon="-4.90193167">
        <ele>499.0</ele>
        <time>2018-10-06T09:08:34.000Z</time>
      </trkpt>
      <trkpt lat="38.12554833" lon="-4.90193167">
        <ele>499.0</ele>
        <time>2018-10-06T09:08:35.000Z</time>
      </trkpt>
      <trkpt lat="38.12554833" lon="-4.90193167">
        <ele>499.0</ele>
        <time>2018-10-06T09:08:36.000Z</time>
      </trkpt>
      <trkpt lat="38.12554833" lon="-4.90193167">
        <ele>499.0</ele>
        <time>2018-10-06T09:08:37.000Z</time>
      </trkpt>
      <trkpt lat="38.12554833" lon="-4.90193167">
        <ele>499.0</ele>
        <time>2018-10-06T09:08:38.000Z</time>
      </trkpt>
      <trkpt lat="38.12554833" lon="-4.90193167">
        <ele>499.0</ele>
        <time>2018-10-06T09:08:39.000Z</time>
      </trkpt>
      <trkpt lat="38.12554833" lon="-4.90193167">
        <ele>499.0</ele>
        <time>2018-10-06T09:08:40.000Z</time>
      </trkpt>
      <trkpt lat="38.12557833" lon="-4.90175833">
        <ele>504.0</ele>
        <time>2018-10-06T09:08:41.000Z</time>
      </trkpt>
      <trkpt lat="38.125565" lon="-4.90174167">
        <ele>504.0</ele>
        <time>2018-10-06T09:08:42.000Z</time>
      </trkpt>
      <trkpt lat="38.12555167" lon="-4.90173">
        <ele>503.0</ele>
        <time>2018-10-06T09:08:43.000Z</time>
      </trkpt>
      <trkpt lat="38.12554" lon="-4.90172167">
        <ele>503.0</ele>
        <time>2018-10-06T09:08:44.000Z</time>
      </trkpt>
      <trkpt lat="38.12552833" lon="-4.90171167">
        <ele>504.0</ele>
        <time>2018-10-06T09:08:45.000Z</time>
      </trkpt>
      <trkpt lat="38.12551667" lon="-4.90170167">
        <ele>504.0</ele>
        <time>2018-10-06T09:08:46.000Z</time>
      </trkpt>
      <trkpt lat="38.12550667" lon="-4.90169833">
        <ele>504.0</ele>
        <time>2018-10-06T09:08:47.000Z</time>
      </trkpt>
      <trkpt lat="38.125495" lon="-4.90169833">
        <ele>505.0</ele>
        <time>2018-10-06T09:08:48.000Z</time>
      </trkpt>
      <trkpt lat="38.12549167" lon="-4.90168667">
        <ele>505.0</ele>
        <time>2018-10-06T09:08:49.000Z</time>
      </trkpt>
      <trkpt lat="38.125485" lon="-4.90167667">
        <ele>505.0</ele>
        <time>2018-10-06T09:08:50.000Z</time>
      </trkpt>
      <trkpt lat="38.12547667" lon="-4.90166667">
        <ele>506.0</ele>
        <time>2018-10-06T09:08:51.000Z</time>
      </trkpt>
      <trkpt lat="38.12546667" lon="-4.90165667">
        <ele>506.0</ele>
        <time>2018-10-06T09:08:52.000Z</time>
      </trkpt>
      <trkpt lat="38.12546667" lon="-4.90165667">
        <ele>506.0</ele>
        <time>2018-10-06T09:08:53.000Z</time>
      </trkpt>
      <trkpt lat="38.12546667" lon="-4.90165667">
        <ele>506.0</ele>
        <time>2018-10-06T09:08:54.000Z</time>
      </trkpt>
      <trkpt lat="38.12546667" lon="-4.90165667">
        <ele>506.0</ele>
        <time>2018-10-06T09:08:55.000Z</time>
      </trkpt>
      <trkpt lat="38.12546667" lon="-4.90165667">
        <ele>506.0</ele>
        <time>2018-10-06T09:08:56.000Z</time>
      </trkpt>
      <trkpt lat="38.12546667" lon="-4.90165667">
        <ele>506.0</ele>
        <time>2018-10-06T09:08:57.000Z</time>
      </trkpt>
      <trkpt lat="38.12546667" lon="-4.90165667">
        <ele>506.0</ele>
        <time>2018-10-06T09:08:58.000Z</time>
      </trkpt>
      <trkpt lat="38.12546667" lon="-4.90165667">
        <ele>506.0</ele>
        <time>2018-10-06T09:08:59.000Z</time>
      </trkpt>
      <trkpt lat="38.12546667" lon="-4.90165667">
        <ele>506.0</ele>
        <time>2018-10-06T09:09:00.000Z</time>
      </trkpt>
      <trkpt lat="38.12546667" lon="-4.90165667">
        <ele>506.0</ele>
        <time>2018-10-06T09:09:01.000Z</time>
      </trkpt>
      <trkpt lat="38.12546667" lon="-4.90165667">
        <ele>506.0</ele>
        <time>2018-10-06T09:09:02.000Z</time>
      </trkpt>
      <trkpt lat="38.12546667" lon="-4.90165667">
        <ele>506.0</ele>
        <time>2018-10-06T09:09:03.000Z</time>
      </trkpt>
      <trkpt lat="38.12546667" lon="-4.90165667">
        <ele>506.0</ele>
        <time>2018-10-06T09:09:04.000Z</time>
      </trkpt>
      <trkpt lat="38.12546667" lon="-4.90165667">
        <ele>506.0</ele>
        <time>2018-10-06T09:09:05.000Z</time>
      </trkpt>
      <trkpt lat="38.12546667" lon="-4.90165667">
        <ele>506.0</ele>
        <time>2018-10-06T09:09:06.000Z</time>
      </trkpt>
      <trkpt lat="38.12546667" lon="-4.90165667">
        <ele>506.0</ele>
        <time>2018-10-06T09:09:07.000Z</time>
      </trkpt>
      <trkpt lat="38.12546667" lon="-4.90165667">
        <ele>506.0</ele>
        <time>2018-10-06T09:09:08.000Z</time>
      </trkpt>
      <trkpt lat="38.12546667" lon="-4.90165667">
        <ele>506.0</ele>
        <time>2018-10-06T09:09:09.000Z</time>
      </trkpt>
      <trkpt lat="38.12546667" lon="-4.90165667">
        <ele>506.0</ele>
        <time>2018-10-06T09:09:10.000Z</time>
      </trkpt>
      <trkpt lat="38.12546667" lon="-4.90165667">
        <ele>506.0</ele>
        <time>2018-10-06T09:09:11.000Z</time>
      </trkpt>
      <trkpt lat="38.12546667" lon="-4.90165667">
        <ele>506.0</ele>
        <time>2018-10-06T09:09:12.000Z</time>
      </trkpt>
      <trkpt lat="38.12546667" lon="-4.90165667">
        <ele>506.0</ele>
        <time>2018-10-06T09:09:13.000Z</time>
      </trkpt>
      <trkpt lat="38.12546667" lon="-4.90165667">
        <ele>506.0</ele>
        <time>2018-10-06T09:09:14.000Z</time>
      </trkpt>
      <trkpt lat="38.12546667" lon="-4.90165667">
        <ele>506.0</ele>
        <time>2018-10-06T09:09:15.000Z</time>
      </trkpt>
      <trkpt lat="38.12546667" lon="-4.90165667">
        <ele>506.0</ele>
        <time>2018-10-06T09:09:16.000Z</time>
      </trkpt>
      <trkpt lat="38.12546667" lon="-4.90165667">
        <ele>506.0</ele>
        <time>2018-10-06T09:09:17.000Z</time>
      </trkpt>
      <trkpt lat="38.12546667" lon="-4.90165667">
        <ele>506.0</ele>
        <time>2018-10-06T09:09:18.000Z</time>
      </trkpt>
      <trkpt lat="38.12546667" lon="-4.90165667">
        <ele>506.0</ele>
        <time>2018-10-06T09:09:19.000Z</time>
      </trkpt>
      <trkpt lat="38.12546667" lon="-4.90165667">
        <ele>506.0</ele>
        <time>2018-10-06T09:09:20.000Z</time>
      </trkpt>
      <trkpt lat="38.12546667" lon="-4.90165667">
        <ele>506.0</ele>
        <time>2018-10-06T09:09:21.000Z</time>
      </trkpt>
      <trkpt lat="38.12546667" lon="-4.90165667">
        <ele>506.0</ele>
        <time>2018-10-06T09:09:22.000Z</time>
      </trkpt>
      <trkpt lat="38.12546667" lon="-4.90165667">
        <ele>506.0</ele>
        <time>2018-10-06T09:09:23.000Z</time>
      </trkpt>
      <trkpt lat="38.12546667" lon="-4.90165667">
        <ele>506.0</ele>
        <time>2018-10-06T09:09:24.000Z</time>
      </trkpt>
      <trkpt lat="38.12546667" lon="-4.90165667">
        <ele>506.0</ele>
        <time>2018-10-06T09:09:25.000Z</time>
      </trkpt>
      <trkpt lat="38.12546667" lon="-4.90165667">
        <ele>506.0</ele>
        <time>2018-10-06T09:09:26.000Z</time>
      </trkpt>
      <trkpt lat="38.12546667" lon="-4.90165667">
        <ele>506.0</ele>
        <time>2018-10-06T09:09:27.000Z</time>
      </trkpt>
      <trkpt lat="38.12546667" lon="-4.90165667">
        <ele>506.0</ele>
        <time>2018-10-06T09:09:28.000Z</time>
      </trkpt>
      <trkpt lat="38.12546667" lon="-4.90165667">
        <ele>506.0</ele>
        <time>2018-10-06T09:09:29.000Z</time>
      </trkpt>
      <trkpt lat="38.12546667" lon="-4.90165667">
        <ele>506.0</ele>
        <time>2018-10-06T09:09:30.000Z</time>
      </trkpt>
      <trkpt lat="38.12546667" lon="-4.90165667">
        <ele>506.0</ele>
        <time>2018-10-06T09:09:31.000Z</time>
      </trkpt>
      <trkpt lat="38.12546667" lon="-4.90165667">
        <ele>506.0</ele>
        <time>2018-10-06T09:09:32.000Z</time>
      </trkpt>
      <trkpt lat="38.12546667" lon="-4.90165667">
        <ele>506.0</ele>
        <time>2018-10-06T09:09:33.000Z</time>
      </trkpt>
      <trkpt lat="38.12546667" lon="-4.90165667">
        <ele>506.0</ele>
        <time>2018-10-06T09:09:34.000Z</time>
      </trkpt>
      <trkpt lat="38.12546667" lon="-4.90165667">
        <ele>506.0</ele>
        <time>2018-10-06T09:09:35.000Z</time>
      </trkpt>
      <trkpt lat="38.12546667" lon="-4.90165667">
        <ele>506.0</ele>
        <time>2018-10-06T09:09:36.000Z</time>
      </trkpt>
      <trkpt lat="38.12546667" lon="-4.90165667">
        <ele>506.0</ele>
        <time>2018-10-06T09:09:37.000Z</time>
      </trkpt>
      <trkpt lat="38.12546667" lon="-4.90165667">
        <ele>506.0</ele>
        <time>2018-10-06T09:09:38.000Z</time>
      </trkpt>
      <trkpt lat="38.12546667" lon="-4.90165667">
        <ele>506.0</ele>
        <time>2018-10-06T09:09:39.000Z</time>
      </trkpt>
      <trkpt lat="38.12546667" lon="-4.90165667">
        <ele>506.0</ele>
        <time>2018-10-06T09:09:40.000Z</time>
      </trkpt>
      <trkpt lat="38.12533667" lon="-4.90115333">
        <ele>493.0</ele>
        <time>2018-10-06T09:09:41.000Z</time>
      </trkpt>
      <trkpt lat="38.125255" lon="-4.90112833">
        <ele>498.0</ele>
        <time>2018-10-06T09:09:42.000Z</time>
      </trkpt>
      <trkpt lat="38.12523667" lon="-4.90112">
        <ele>499.0</ele>
        <time>2018-10-06T09:09:43.000Z</time>
      </trkpt>
      <trkpt lat="38.12521667" lon="-4.90110833">
        <ele>500.0</ele>
        <time>2018-10-06T09:09:44.000Z</time>
      </trkpt>
      <trkpt lat="38.12519667" lon="-4.90109167">
        <ele>502.0</ele>
        <time>2018-10-06T09:09:45.000Z</time>
      </trkpt>
      <trkpt lat="38.12517667" lon="-4.90107833">
        <ele>503.0</ele>
        <time>2018-10-06T09:09:46.000Z</time>
      </trkpt>
      <trkpt lat="38.12515833" lon="-4.90106667">
        <ele>504.0</ele>
        <time>2018-10-06T09:09:47.000Z</time>
      </trkpt>
      <trkpt lat="38.12514167" lon="-4.90105667">
        <ele>505.0</ele>
        <time>2018-10-06T09:09:48.000Z</time>
      </trkpt>
      <trkpt lat="38.12512167" lon="-4.901045">
        <ele>505.0</ele>
        <time>2018-10-06T09:09:49.000Z</time>
      </trkpt>
      <trkpt lat="38.125105" lon="-4.90103333">
        <ele>506.0</ele>
        <time>2018-10-06T09:09:50.000Z</time>
      </trkpt>
      <trkpt lat="38.12509" lon="-4.90102333">
        <ele>507.0</ele>
        <time>2018-10-06T09:09:51.000Z</time>
      </trkpt>
      <trkpt lat="38.125075" lon="-4.90101167">
        <ele>507.0</ele>
        <time>2018-10-06T09:09:52.000Z</time>
      </trkpt>
      <trkpt lat="38.12506167" lon="-4.90100167">
        <ele>507.0</ele>
        <time>2018-10-06T09:09:53.000Z</time>
      </trkpt>
      <trkpt lat="38.12504833" lon="-4.90099">
        <ele>508.0</ele>
        <time>2018-10-06T09:09:54.000Z</time>
      </trkpt>
      <trkpt lat="38.12503833" lon="-4.90097833">
        <ele>508.0</ele>
        <time>2018-10-06T09:09:55.000Z</time>
      </trkpt>
      <trkpt lat="38.12502667" lon="-4.90096833">
        <ele>508.0</ele>
        <time>2018-10-06T09:09:56.000Z</time>
      </trkpt>
      <trkpt lat="38.125015" lon="-4.900955">
        <ele>509.0</ele>
        <time>2018-10-06T09:09:57.000Z</time>
      </trkpt>
      <trkpt lat="38.12500167" lon="-4.90094167">
        <ele>509.0</ele>
        <time>2018-10-06T09:09:58.000Z</time>
      </trkpt>
      <trkpt lat="38.12499" lon="-4.90093333">
        <ele>509.0</ele>
        <time>2018-10-06T09:09:59.000Z</time>
      </trkpt>
      <trkpt lat="38.12499" lon="-4.90093333">
        <ele>509.0</ele>
        <time>2018-10-06T09:10:00.000Z</time>
      </trkpt>
      <trkpt lat="38.12499" lon="-4.90093333">
        <ele>509.0</ele>
        <time>2018-10-06T09:10:01.000Z</time>
      </trkpt>
      <trkpt lat="38.12499" lon="-4.90093333">
        <ele>509.0</ele>
        <time>2018-10-06T09:10:02.000Z</time>
      </trkpt>
      <trkpt lat="38.12499" lon="-4.90093333">
        <ele>509.0</ele>
        <time>2018-10-06T09:10:03.000Z</time>
      </trkpt>
      <trkpt lat="38.12499" lon="-4.90093333">
        <ele>509.0</ele>
        <time>2018-10-06T09:10:04.000Z</time>
      </trkpt>
      <trkpt lat="38.12499" lon="-4.90093333">
        <ele>509.0</ele>
        <time>2018-10-06T09:10:05.000Z</time>
      </trkpt>
      <trkpt lat="38.12499" lon="-4.90093333">
        <ele>509.0</ele>
        <time>2018-10-06T09:10:06.000Z</time>
      </trkpt>
      <trkpt lat="38.12499" lon="-4.90093333">
        <ele>509.0</ele>
        <time>2018-10-06T09:10:07.000Z</time>
      </trkpt>
      <trkpt lat="38.12499" lon="-4.90093333">
        <ele>509.0</ele>
        <time>2018-10-06T09:10:08.000Z</time>
      </trkpt>
      <trkpt lat="38.12499" lon="-4.90093333">
        <ele>509.0</ele>
        <time>2018-10-06T09:10:09.000Z</time>
      </trkpt>
      <trkpt lat="38.12499" lon="-4.90093333">
        <ele>509.0</ele>
        <time>2018-10-06T09:10:10.000Z</time>
      </trkpt>
      <trkpt lat="38.12499" lon="-4.90093333">
        <ele>509.0</ele>
        <time>2018-10-06T09:10:11.000Z</time>
      </trkpt>
      <trkpt lat="38.12499" lon="-4.90093333">
        <ele>509.0</ele>
        <time>2018-10-06T09:10:12.000Z</time>
      </trkpt>
      <trkpt lat="38.12499" lon="-4.90093333">
        <ele>509.0</ele>
        <time>2018-10-06T09:10:13.000Z</time>
      </trkpt>
      <trkpt lat="38.12499" lon="-4.90093333">
        <ele>509.0</ele>
        <time>2018-10-06T09:10:14.000Z</time>
      </trkpt>
      <trkpt lat="38.12499" lon="-4.90093333">
        <ele>509.0</ele>
        <time>2018-10-06T09:10:15.000Z</time>
      </trkpt>
      <trkpt lat="38.12499" lon="-4.90093333">
        <ele>509.0</ele>
        <time>2018-10-06T09:10:16.000Z</time>
      </trkpt>
      <trkpt lat="38.12499" lon="-4.90093333">
        <ele>509.0</ele>
        <time>2018-10-06T09:10:17.000Z</time>
      </trkpt>
      <trkpt lat="38.12499" lon="-4.90093333">
        <ele>509.0</ele>
        <time>2018-10-06T09:10:18.000Z</time>
      </trkpt>
      <trkpt lat="38.12499" lon="-4.90093333">
        <ele>509.0</ele>
        <time>2018-10-06T09:10:19.000Z</time>
      </trkpt>
      <trkpt lat="38.12499" lon="-4.90093333">
        <ele>509.0</ele>
        <time>2018-10-06T09:10:20.000Z</time>
      </trkpt>
      <trkpt lat="38.12499" lon="-4.90093333">
        <ele>509.0</ele>
        <time>2018-10-06T09:10:21.000Z</time>
      </trkpt>
      <trkpt lat="38.12499" lon="-4.90093333">
        <ele>509.0</ele>
        <time>2018-10-06T09:10:22.000Z</time>
      </trkpt>
      <trkpt lat="38.12499" lon="-4.90093333">
        <ele>509.0</ele>
        <time>2018-10-06T09:10:23.000Z</time>
      </trkpt>
      <trkpt lat="38.12499" lon="-4.90093333">
        <ele>509.0</ele>
        <time>2018-10-06T09:10:24.000Z</time>
      </trkpt>
      <trkpt lat="38.12499" lon="-4.90093333">
        <ele>509.0</ele>
        <time>2018-10-06T09:10:25.000Z</time>
      </trkpt>
      <trkpt lat="38.12499" lon="-4.90093333">
        <ele>509.0</ele>
        <time>2018-10-06T09:10:26.000Z</time>
      </trkpt>
      <trkpt lat="38.12499" lon="-4.90093333">
        <ele>509.0</ele>
        <time>2018-10-06T09:10:27.000Z</time>
      </trkpt>
      <trkpt lat="38.12499" lon="-4.90093333">
        <ele>509.0</ele>
        <time>2018-10-06T09:10:28.000Z</time>
      </trkpt>
      <trkpt lat="38.12499" lon="-4.90093333">
        <ele>509.0</ele>
        <time>2018-10-06T09:10:29.000Z</time>
      </trkpt>
      <trkpt lat="38.12499" lon="-4.90093333">
        <ele>509.0</ele>
        <time>2018-10-06T09:10:30.000Z</time>
      </trkpt>
      <trkpt lat="38.12499" lon="-4.90093333">
        <ele>509.0</ele>
        <time>2018-10-06T09:10:31.000Z</time>
      </trkpt>
      <trkpt lat="38.12499" lon="-4.90093333">
        <ele>509.0</ele>
        <time>2018-10-06T09:10:32.000Z</time>
      </trkpt>
      <trkpt lat="38.12499" lon="-4.90093333">
        <ele>509.0</ele>
        <time>2018-10-06T09:10:33.000Z</time>
      </trkpt>
      <trkpt lat="38.12499" lon="-4.90093333">
        <ele>509.0</ele>
        <time>2018-10-06T09:10:34.000Z</time>
      </trkpt>
      <trkpt lat="38.12499" lon="-4.90093333">
        <ele>509.0</ele>
        <time>2018-10-06T09:10:35.000Z</time>
      </trkpt>
      <trkpt lat="38.12499" lon="-4.90093333">
        <ele>509.0</ele>
        <time>2018-10-06T09:10:36.000Z</time>
      </trkpt>
      <trkpt lat="38.12499" lon="-4.90093333">
        <ele>509.0</ele>
        <time>2018-10-06T09:10:37.000Z</time>
      </trkpt>
      <trkpt lat="38.12499" lon="-4.90093333">
        <ele>509.0</ele>
        <time>2018-10-06T09:10:38.000Z</time>
      </trkpt>
      <trkpt lat="38.12499" lon="-4.90093333">
        <ele>509.0</ele>
        <time>2018-10-06T09:10:39.000Z</time>
      </trkpt>
      <trkpt lat="38.12499" lon="-4.90093333">
        <ele>509.0</ele>
        <time>2018-10-06T09:10:40.000Z</time>
      </trkpt>
      <trkpt lat="38.124695" lon="-4.90055667">
        <ele>494.0</ele>
        <time>2018-10-06T09:10:41.000Z</time>
      </trkpt>
      <trkpt lat="38.12468333" lon="-4.900545">
        <ele>495.0</ele>
        <time>2018-10-06T09:10:42.000Z</time>
      </trkpt>
      <trkpt lat="38.124675" lon="-4.90052667">
        <ele>497.0</ele>
        <time>2018-10-06T09:10:43.000Z</time>
      </trkpt>
      <trkpt lat="38.12466" lon="-4.90051333">
        <ele>498.0</ele>
        <time>2018-10-06T09:10:44.000Z</time>
      </trkpt>
      <trkpt lat="38.12464667" lon="-4.90050167">
        <ele>500.0</ele>
        <time>2018-10-06T09:10:45.000Z</time>
      </trkpt>
      <trkpt lat="38.12463333" lon="-4.90048833">
        <ele>501.0</ele>
        <time>2018-10-06T09:10:46.000Z</time>
      </trkpt>
      <trkpt lat="38.12461833" lon="-4.90047833">
        <ele>502.0</ele>
        <time>2018-10-06T09:10:47.000Z</time>
      </trkpt>
      <trkpt lat="38.12460333" lon="-4.90046667">
        <ele>502.0</ele>
        <time>2018-10-06T09:10:48.000Z</time>
      </trkpt>
      <trkpt lat="38.12459" lon="-4.90045333">
        <ele>503.0</ele>
        <time>2018-10-06T09:10:49.000Z</time>
      </trkpt>
      <trkpt lat="38.12457667" lon="-4.90044167">
        <ele>504.0</ele>
        <time>2018-10-06T09:10:50.000Z</time>
      </trkpt>
      <trkpt lat="38.12456333" lon="-4.90043">
        <ele>505.0</ele>
        <time>2018-10-06T09:10:51.000Z</time>
      </trkpt>
      <trkpt lat="38.12455167" lon="-4.90042">
        <ele>506.0</ele>
        <time>2018-10-06T09:10:52.000Z</time>
      </trkpt>
      <trkpt lat="38.12455167" lon="-4.90042">
        <ele>506.0</ele>
        <time>2018-10-06T09:10:53.000Z</time>
      </trkpt>
      <trkpt lat="38.12455167" lon="-4.90042">
        <ele>506.0</ele>
        <time>2018-10-06T09:10:54.000Z</time>
      </trkpt>
      <trkpt lat="38.12455167" lon="-4.90042">
        <ele>506.0</ele>
        <time>2018-10-06T09:10:55.000Z</time>
      </trkpt>
      <trkpt lat="38.12455167" lon="-4.90042">
        <ele>506.0</ele>
        <time>2018-10-06T09:10:56.000Z</time>
      </trkpt>
      <trkpt lat="38.12455167" lon="-4.90042">
        <ele>506.0</ele>
        <time>2018-10-06T09:10:57.000Z</time>
      </trkpt>
      <trkpt lat="38.12455167" lon="-4.90042">
        <ele>506.0</ele>
        <time>2018-10-06T09:10:58.000Z</time>
      </trkpt>
      <trkpt lat="38.12455167" lon="-4.90042">
        <ele>506.0</ele>
        <time>2018-10-06T09:10:59.000Z</time>
      </trkpt>
      <trkpt lat="38.12455167" lon="-4.90042">
        <ele>506.0</ele>
        <time>2018-10-06T09:11:00.000Z</time>
      </trkpt>
      <trkpt lat="38.12455167" lon="-4.90042">
        <ele>506.0</ele>
        <time>2018-10-06T09:11:01.000Z</time>
      </trkpt>
      <trkpt lat="38.12455167" lon="-4.90042">
        <ele>506.0</ele>
        <time>2018-10-06T09:11:02.000Z</time>
      </trkpt>
      <trkpt lat="38.12455167" lon="-4.90042">
        <ele>506.0</ele>
        <time>2018-10-06T09:11:03.000Z</time>
      </trkpt>
      <trkpt lat="38.12455167" lon="-4.90042">
        <ele>506.0</ele>
        <time>2018-10-06T09:11:04.000Z</time>
      </trkpt>
      <trkpt lat="38.12455167" lon="-4.90042">
        <ele>506.0</ele>
        <time>2018-10-06T09:11:05.000Z</time>
      </trkpt>
      <trkpt lat="38.12455167" lon="-4.90042">
        <ele>506.0</ele>
        <time>2018-10-06T09:11:06.000Z</time>
      </trkpt>
      <trkpt lat="38.12455167" lon="-4.90042">
        <ele>506.0</ele>
        <time>2018-10-06T09:11:07.000Z</time>
      </trkpt>
      <trkpt lat="38.12455167" lon="-4.90042">
        <ele>506.0</ele>
        <time>2018-10-06T09:11:08.000Z</time>
      </trkpt>
      <trkpt lat="38.12455167" lon="-4.90042">
        <ele>506.0</ele>
        <time>2018-10-06T09:11:09.000Z</time>
      </trkpt>
      <trkpt lat="38.12455167" lon="-4.90042">
        <ele>506.0</ele>
        <time>2018-10-06T09:11:10.000Z</time>
      </trkpt>
      <trkpt lat="38.12455167" lon="-4.90042">
        <ele>506.0</ele>
        <time>2018-10-06T09:11:11.000Z</time>
      </trkpt>
      <trkpt lat="38.12455167" lon="-4.90042">
        <ele>506.0</ele>
        <time>2018-10-06T09:11:12.000Z</time>
      </trkpt>
      <trkpt lat="38.12455167" lon="-4.90042">
        <ele>506.0</ele>
        <time>2018-10-06T09:11:13.000Z</time>
      </trkpt>
      <trkpt lat="38.12455167" lon="-4.90042">
        <ele>506.0</ele>
        <time>2018-10-06T09:11:14.000Z</time>
      </trkpt>
      <trkpt lat="38.12455167" lon="-4.90042">
        <ele>506.0</ele>
        <time>2018-10-06T09:11:15.000Z</time>
      </trkpt>
      <trkpt lat="38.12455167" lon="-4.90042">
        <ele>506.0</ele>
        <time>2018-10-06T09:11:16.000Z</time>
      </trkpt>
      <trkpt lat="38.12455167" lon="-4.90042">
        <ele>506.0</ele>
        <time>2018-10-06T09:11:17.000Z</time>
      </trkpt>
      <trkpt lat="38.12455167" lon="-4.90042">
        <ele>506.0</ele>
        <time>2018-10-06T09:11:18.000Z</time>
      </trkpt>
      <trkpt lat="38.12455167" lon="-4.90042">
        <ele>506.0</ele>
        <time>2018-10-06T09:11:19.000Z</time>
      </trkpt>
      <trkpt lat="38.12455167" lon="-4.90042">
        <ele>506.0</ele>
        <time>2018-10-06T09:11:20.000Z</time>
      </trkpt>
      <trkpt lat="38.12455167" lon="-4.90042">
        <ele>506.0</ele>
        <time>2018-10-06T09:11:21.000Z</time>
      </trkpt>
      <trkpt lat="38.12455167" lon="-4.90042">
        <ele>506.0</ele>
        <time>2018-10-06T09:11:22.000Z</time>
      </trkpt>
      <trkpt lat="38.12455167" lon="-4.90042">
        <ele>506.0</ele>
        <time>2018-10-06T09:11:23.000Z</time>
      </trkpt>
      <trkpt lat="38.12455167" lon="-4.90042">
        <ele>506.0</ele>
        <time>2018-10-06T09:11:24.000Z</time>
      </trkpt>
      <trkpt lat="38.12455167" lon="-4.90042">
        <ele>506.0</ele>
        <time>2018-10-06T09:11:25.000Z</time>
      </trkpt>
      <trkpt lat="38.12455167" lon="-4.90042">
        <ele>506.0</ele>
        <time>2018-10-06T09:11:26.000Z</time>
      </trkpt>
      <trkpt lat="38.12455167" lon="-4.90042">
        <ele>506.0</ele>
        <time>2018-10-06T09:11:27.000Z</time>
      </trkpt>
      <trkpt lat="38.12455167" lon="-4.90042">
        <ele>506.0</ele>
        <time>2018-10-06T09:11:28.000Z</time>
      </trkpt>
      <trkpt lat="38.12455167" lon="-4.90042">
        <ele>506.0</ele>
        <time>2018-10-06T09:11:29.000Z</time>
      </trkpt>
      <trkpt lat="38.12455167" lon="-4.90042">
        <ele>506.0</ele>
        <time>2018-10-06T09:11:30.000Z</time>
      </trkpt>
      <trkpt lat="38.12455167" lon="-4.90042">
        <ele>506.0</ele>
        <time>2018-10-06T09:11:31.000Z</time>
      </trkpt>
      <trkpt lat="38.12455167" lon="-4.90042">
        <ele>506.0</ele>
        <time>2018-10-06T09:11:32.000Z</time>
      </trkpt>
      <trkpt lat="38.12455167" lon="-4.90042">
        <ele>506.0</ele>
        <time>2018-10-06T09:11:33.000Z</time>
      </trkpt>
      <trkpt lat="38.12455167" lon="-4.90042">
        <ele>506.0</ele>
        <time>2018-10-06T09:11:34.000Z</time>
      </trkpt>
      <trkpt lat="38.12455167" lon="-4.90042">
        <ele>506.0</ele>
        <time>2018-10-06T09:11:35.000Z</time>
      </trkpt>
      <trkpt lat="38.12455167" lon="-4.90042">
        <ele>506.0</ele>
        <time>2018-10-06T09:11:36.000Z</time>
      </trkpt>
      <trkpt lat="38.12455167" lon="-4.90042">
        <ele>506.0</ele>
        <time>2018-10-06T09:11:37.000Z</time>
      </trkpt>
      <trkpt lat="38.12455167" lon="-4.90042">
        <ele>506.0</ele>
        <time>2018-10-06T09:11:38.000Z</time>
      </trkpt>
      <trkpt lat="38.12455167" lon="-4.90042">
        <ele>506.0</ele>
        <time>2018-10-06T09:11:39.000Z</time>
      </trkpt>
      <trkpt lat="38.12455167" lon="-4.90042">
        <ele>506.0</ele>
        <time>2018-10-06T09:11:40.000Z</time>
      </trkpt>
      <trkpt lat="38.12432667" lon="-4.90030167">
        <ele>481.0</ele>
        <time>2018-10-06T09:11:41.000Z</time>
      </trkpt>
      <trkpt lat="38.12431667" lon="-4.90028333">
        <ele>481.0</ele>
        <time>2018-10-06T09:11:42.000Z</time>
      </trkpt>
      <trkpt lat="38.12429167" lon="-4.900245">
        <ele>483.0</ele>
        <time>2018-10-06T09:11:43.000Z</time>
      </trkpt>
      <trkpt lat="38.12426833" lon="-4.90020667">
        <ele>486.0</ele>
        <time>2018-10-06T09:11:44.000Z</time>
      </trkpt>
      <trkpt lat="38.124245" lon="-4.90016833">
        <ele>487.0</ele>
        <time>2018-10-06T09:11:45.000Z</time>
      </trkpt>
      <trkpt lat="38.12422167" lon="-4.90013167">
        <ele>489.0</ele>
        <time>2018-10-06T09:11:46.000Z</time>
      </trkpt>
      <trkpt lat="38.1242" lon="-4.90009667">
        <ele>491.0</ele>
        <time>2018-10-06T09:11:47.000Z</time>
      </trkpt>
      <trkpt lat="38.12417833" lon="-4.900065">
        <ele>493.0</ele>
        <time>2018-10-06T09:11:48.000Z</time>
      </trkpt>
      <trkpt lat="38.12415833" lon="-4.90003833">
        <ele>494.0</ele>
        <time>2018-10-06T09:11:49.000Z</time>
      </trkpt>
      <trkpt lat="38.12414" lon="-4.90001167">
        <ele>495.0</ele>
        <time>2018-10-06T09:11:50.000Z</time>
      </trkpt>
      <trkpt lat="38.12412167" lon="-4.89998333">
        <ele>497.0</ele>
        <time>2018-10-06T09:11:51.000Z</time>
      </trkpt>
      <trkpt lat="38.124105" lon="-4.89995833">
        <ele>498.0</ele>
        <time>2018-10-06T09:11:52.000Z</time>
      </trkpt>
      <trkpt lat="38.12408833" lon="-4.89993333">
        <ele>499.0</ele>
        <time>2018-10-06T09:11:53.000Z</time>
      </trkpt>
      <trkpt lat="38.12408833" lon="-4.89993333">
        <ele>499.0</ele>
        <time>2018-10-06T09:11:54.000Z</time>
      </trkpt>
      <trkpt lat="38.12408833" lon="-4.89993333">
        <ele>499.0</ele>
        <time>2018-10-06T09:11:55.000Z</time>
      </trkpt>
      <trkpt lat="38.12408833" lon="-4.89993333">
        <ele>499.0</ele>
        <time>2018-10-06T09:11:56.000Z</time>
      </trkpt>
      <trkpt lat="38.12408833" lon="-4.89993333">
        <ele>499.0</ele>
        <time>2018-10-06T09:11:57.000Z</time>
      </trkpt>
      <trkpt lat="38.12408833" lon="-4.89993333">
        <ele>499.0</ele>
        <time>2018-10-06T09:11:58.000Z</time>
      </trkpt>
      <trkpt lat="38.12408833" lon="-4.89993333">
        <ele>499.0</ele>
        <time>2018-10-06T09:11:59.000Z</time>
      </trkpt>
      <trkpt lat="38.12408833" lon="-4.89993333">
        <ele>499.0</ele>
        <time>2018-10-06T09:12:00.000Z</time>
      </trkpt>
      <trkpt lat="38.12408833" lon="-4.89993333">
        <ele>499.0</ele>
        <time>2018-10-06T09:12:01.000Z</time>
      </trkpt>
      <trkpt lat="38.12408833" lon="-4.89993333">
        <ele>499.0</ele>
        <time>2018-10-06T09:12:02.000Z</time>
      </trkpt>
      <trkpt lat="38.12408833" lon="-4.89993333">
        <ele>499.0</ele>
        <time>2018-10-06T09:12:03.000Z</time>
      </trkpt>
      <trkpt lat="38.12408833" lon="-4.89993333">
        <ele>499.0</ele>
        <time>2018-10-06T09:12:04.000Z</time>
      </trkpt>
      <trkpt lat="38.12408833" lon="-4.89993333">
        <ele>499.0</ele>
        <time>2018-10-06T09:12:05.000Z</time>
      </trkpt>
      <trkpt lat="38.12408833" lon="-4.89993333">
        <ele>499.0</ele>
        <time>2018-10-06T09:12:06.000Z</time>
      </trkpt>
      <trkpt lat="38.12408833" lon="-4.89993333">
        <ele>499.0</ele>
        <time>2018-10-06T09:12:07.000Z</time>
      </trkpt>
      <trkpt lat="38.12408833" lon="-4.89993333">
        <ele>499.0</ele>
        <time>2018-10-06T09:12:08.000Z</time>
      </trkpt>
      <trkpt lat="38.12408833" lon="-4.89993333">
        <ele>499.0</ele>
        <time>2018-10-06T09:12:09.000Z</time>
      </trkpt>
      <trkpt lat="38.12408833" lon="-4.89993333">
        <ele>499.0</ele>
        <time>2018-10-06T09:12:10.000Z</time>
      </trkpt>
      <trkpt lat="38.12408833" lon="-4.89993333">
        <ele>499.0</ele>
        <time>2018-10-06T09:12:11.000Z</time>
      </trkpt>
      <trkpt lat="38.12408833" lon="-4.89993333">
        <ele>499.0</ele>
        <time>2018-10-06T09:12:12.000Z</time>
      </trkpt>
      <trkpt lat="38.12408833" lon="-4.89993333">
        <ele>499.0</ele>
        <time>2018-10-06T09:12:13.000Z</time>
      </trkpt>
      <trkpt lat="38.12408833" lon="-4.89993333">
        <ele>499.0</ele>
        <time>2018-10-06T09:12:14.000Z</time>
      </trkpt>
      <trkpt lat="38.12408833" lon="-4.89993333">
        <ele>499.0</ele>
        <time>2018-10-06T09:12:15.000Z</time>
      </trkpt>
      <trkpt lat="38.12408833" lon="-4.89993333">
        <ele>499.0</ele>
        <time>2018-10-06T09:12:16.000Z</time>
      </trkpt>
      <trkpt lat="38.12408833" lon="-4.89993333">
        <ele>499.0</ele>
        <time>2018-10-06T09:12:17.000Z</time>
      </trkpt>
      <trkpt lat="38.12408833" lon="-4.89993333">
        <ele>499.0</ele>
        <time>2018-10-06T09:12:18.000Z</time>
      </trkpt>
      <trkpt lat="38.12408833" lon="-4.89993333">
        <ele>499.0</ele>
        <time>2018-10-06T09:12:19.000Z</time>
      </trkpt>
      <trkpt lat="38.12408833" lon="-4.89993333">
        <ele>499.0</ele>
        <time>2018-10-06T09:12:20.000Z</time>
      </trkpt>
      <trkpt lat="38.12408833" lon="-4.89993333">
        <ele>499.0</ele>
        <time>2018-10-06T09:12:21.000Z</time>
      </trkpt>
      <trkpt lat="38.12408833" lon="-4.89993333">
        <ele>499.0</ele>
        <time>2018-10-06T09:12:22.000Z</time>
      </trkpt>
      <trkpt lat="38.12408833" lon="-4.89993333">
        <ele>499.0</ele>
        <time>2018-10-06T09:12:23.000Z</time>
      </trkpt>
      <trkpt lat="38.12408833" lon="-4.89993333">
        <ele>499.0</ele>
        <time>2018-10-06T09:12:24.000Z</time>
      </trkpt>
      <trkpt lat="38.12408833" lon="-4.89993333">
        <ele>499.0</ele>
        <time>2018-10-06T09:12:25.000Z</time>
      </trkpt>
      <trkpt lat="38.12408833" lon="-4.89993333">
        <ele>499.0</ele>
        <time>2018-10-06T09:12:26.000Z</time>
      </trkpt>
      <trkpt lat="38.12408833" lon="-4.89993333">
        <ele>499.0</ele>
        <time>2018-10-06T09:12:27.000Z</time>
      </trkpt>
      <trkpt lat="38.12408833" lon="-4.89993333">
        <ele>499.0</ele>
        <time>2018-10-06T09:12:28.000Z</time>
      </trkpt>
      <trkpt lat="38.12408833" lon="-4.89993333">
        <ele>499.0</ele>
        <time>2018-10-06T09:12:29.000Z</time>
      </trkpt>
      <trkpt lat="38.12408833" lon="-4.89993333">
        <ele>499.0</ele>
        <time>2018-10-06T09:12:30.000Z</time>
      </trkpt>
      <trkpt lat="38.12408833" lon="-4.89993333">
        <ele>499.0</ele>
        <time>2018-10-06T09:12:31.000Z</time>
      </trkpt>
      <trkpt lat="38.12408833" lon="-4.89993333">
        <ele>499.0</ele>
        <time>2018-10-06T09:12:32.000Z</time>
      </trkpt>
      <trkpt lat="38.12408833" lon="-4.89993333">
        <ele>499.0</ele>
        <time>2018-10-06T09:12:33.000Z</time>
      </trkpt>
      <trkpt lat="38.12408833" lon="-4.89993333">
        <ele>499.0</ele>
        <time>2018-10-06T09:12:34.000Z</time>
      </trkpt>
      <trkpt lat="38.12408833" lon="-4.89993333">
        <ele>499.0</ele>
        <time>2018-10-06T09:12:35.000Z</time>
      </trkpt>
      <trkpt lat="38.12408833" lon="-4.89993333">
        <ele>499.0</ele>
        <time>2018-10-06T09:12:36.000Z</time>
      </trkpt>
      <trkpt lat="38.12408833" lon="-4.89993333">
        <ele>499.0</ele>
        <time>2018-10-06T09:12:37.000Z</time>
      </trkpt>
      <trkpt lat="38.12408833" lon="-4.89993333">
        <ele>499.0</ele>
        <time>2018-10-06T09:12:38.000Z</time>
      </trkpt>
      <trkpt lat="38.12408833" lon="-4.89993333">
        <ele>499.0</ele>
        <time>2018-10-06T09:12:39.000Z</time>
      </trkpt>
      <trkpt lat="38.12408833" lon="-4.89993333">
        <ele>499.0</ele>
        <time>2018-10-06T09:12:40.000Z</time>
      </trkpt>
      <trkpt lat="38.12408833" lon="-4.89993333">
        <ele>499.0</ele>
        <time>2018-10-06T09:12:41.000Z</time>
      </trkpt>
      <trkpt lat="38.123655" lon="-4.89943333">
        <ele>494.0</ele>
        <time>2018-10-06T09:12:42.000Z</time>
      </trkpt>
      <trkpt lat="38.12363667" lon="-4.899405">
        <ele>495.0</ele>
        <time>2018-10-06T09:12:43.000Z</time>
      </trkpt>
      <trkpt lat="38.123625" lon="-4.89938833">
        <ele>497.0</ele>
        <time>2018-10-06T09:12:44.000Z</time>
      </trkpt>
      <trkpt lat="38.12361167" lon="-4.89937">
        <ele>498.0</ele>
        <time>2018-10-06T09:12:45.000Z</time>
      </trkpt>
      <trkpt lat="38.12359833" lon="-4.899355">
        <ele>499.0</ele>
        <time>2018-10-06T09:12:46.000Z</time>
      </trkpt>
      <trkpt lat="38.12358667" lon="-4.89934">
        <ele>500.0</ele>
        <time>2018-10-06T09:12:47.000Z</time>
      </trkpt>
      <trkpt lat="38.123575" lon="-4.89932333">
        <ele>501.0</ele>
        <time>2018-10-06T09:12:48.000Z</time>
      </trkpt>
      <trkpt lat="38.12356333" lon="-4.89931">
        <ele>501.0</ele>
        <time>2018-10-06T09:12:49.000Z</time>
      </trkpt>
      <trkpt lat="38.12355167" lon="-4.899295">
        <ele>502.0</ele>
        <time>2018-10-06T09:12:50.000Z</time>
      </trkpt>
      <trkpt lat="38.12354167" lon="-4.89928167">
        <ele>503.0</ele>
        <time>2018-10-06T09:12:51.000Z</time>
      </trkpt>
      <trkpt lat="38.12353167" lon="-4.89926667">
        <ele>504.0</ele>
        <time>2018-10-06T09:12:52.000Z</time>
      </trkpt>
      <trkpt lat="38.12351833" lon="-4.89925333">
        <ele>505.0</ele>
        <time>2018-10-06T09:12:53.000Z</time>
      </trkpt>
      <trkpt lat="38.12351833" lon="-4.89925333">
        <ele>505.0</ele>
        <time>2018-10-06T09:12:54.000Z</time>
      </trkpt>
      <trkpt lat="38.12351833" lon="-4.89925333">
        <ele>505.0</ele>
        <time>2018-10-06T09:12:55.000Z</time>
      </trkpt>
      <trkpt lat="38.12351833" lon="-4.89925333">
        <ele>505.0</ele>
        <time>2018-10-06T09:12:56.000Z</time>
      </trkpt>
      <trkpt lat="38.12351833" lon="-4.89925333">
        <ele>505.0</ele>
        <time>2018-10-06T09:12:57.000Z</time>
      </trkpt>
      <trkpt lat="38.12351833" lon="-4.89925333">
        <ele>505.0</ele>
        <time>2018-10-06T09:12:58.000Z</time>
      </trkpt>
      <trkpt lat="38.12351833" lon="-4.89925333">
        <ele>505.0</ele>
        <time>2018-10-06T09:12:59.000Z</time>
      </trkpt>
      <trkpt lat="38.12351833" lon="-4.89925333">
        <ele>505.0</ele>
        <time>2018-10-06T09:13:00.000Z</time>
      </trkpt>
      <trkpt lat="38.12351833" lon="-4.89925333">
        <ele>505.0</ele>
        <time>2018-10-06T09:13:01.000Z</time>
      </trkpt>
      <trkpt lat="38.12351833" lon="-4.89925333">
        <ele>505.0</ele>
        <time>2018-10-06T09:13:02.000Z</time>
      </trkpt>
      <trkpt lat="38.12351833" lon="-4.89925333">
        <ele>505.0</ele>
        <time>2018-10-06T09:13:03.000Z</time>
      </trkpt>
      <trkpt lat="38.12351833" lon="-4.89925333">
        <ele>505.0</ele>
        <time>2018-10-06T09:13:04.000Z</time>
      </trkpt>
      <trkpt lat="38.12351833" lon="-4.89925333">
        <ele>505.0</ele>
        <time>2018-10-06T09:13:05.000Z</time>
      </trkpt>
      <trkpt lat="38.12351833" lon="-4.89925333">
        <ele>505.0</ele>
        <time>2018-10-06T09:13:06.000Z</time>
      </trkpt>
      <trkpt lat="38.12351833" lon="-4.89925333">
        <ele>505.0</ele>
        <time>2018-10-06T09:13:07.000Z</time>
      </trkpt>
      <trkpt lat="38.12351833" lon="-4.89925333">
        <ele>505.0</ele>
        <time>2018-10-06T09:13:08.000Z</time>
      </trkpt>
      <trkpt lat="38.12351833" lon="-4.89925333">
        <ele>505.0</ele>
        <time>2018-10-06T09:13:09.000Z</time>
      </trkpt>
      <trkpt lat="38.12351833" lon="-4.89925333">
        <ele>505.0</ele>
        <time>2018-10-06T09:13:10.000Z</time>
      </trkpt>
      <trkpt lat="38.12351833" lon="-4.89925333">
        <ele>505.0</ele>
        <time>2018-10-06T09:13:11.000Z</time>
      </trkpt>
      <trkpt lat="38.12351833" lon="-4.89925333">
        <ele>505.0</ele>
        <time>2018-10-06T09:13:12.000Z</time>
      </trkpt>
      <trkpt lat="38.12351833" lon="-4.89925333">
        <ele>505.0</ele>
        <time>2018-10-06T09:13:13.000Z</time>
      </trkpt>
      <trkpt lat="38.12351833" lon="-4.89925333">
        <ele>505.0</ele>
        <time>2018-10-06T09:13:14.000Z</time>
      </trkpt>
      <trkpt lat="38.12351833" lon="-4.89925333">
        <ele>505.0</ele>
        <time>2018-10-06T09:13:15.000Z</time>
      </trkpt>
      <trkpt lat="38.12351833" lon="-4.89925333">
        <ele>505.0</ele>
        <time>2018-10-06T09:13:16.000Z</time>
      </trkpt>
      <trkpt lat="38.12351833" lon="-4.89925333">
        <ele>505.0</ele>
        <time>2018-10-06T09:13:17.000Z</time>
      </trkpt>
      <trkpt lat="38.12351833" lon="-4.89925333">
        <ele>505.0</ele>
        <time>2018-10-06T09:13:18.000Z</time>
      </trkpt>
      <trkpt lat="38.12351833" lon="-4.89925333">
        <ele>505.0</ele>
        <time>2018-10-06T09:13:19.000Z</time>
      </trkpt>
      <trkpt lat="38.12351833" lon="-4.89925333">
        <ele>505.0</ele>
        <time>2018-10-06T09:13:20.000Z</time>
      </trkpt>
      <trkpt lat="38.12351833" lon="-4.89925333">
        <ele>505.0</ele>
        <time>2018-10-06T09:13:21.000Z</time>
      </trkpt>
      <trkpt lat="38.12351833" lon="-4.89925333">
        <ele>505.0</ele>
        <time>2018-10-06T09:13:22.000Z</time>
      </trkpt>
      <trkpt lat="38.12351833" lon="-4.89925333">
        <ele>505.0</ele>
        <time>2018-10-06T09:13:23.000Z</time>
      </trkpt>
      <trkpt lat="38.12351833" lon="-4.89925333">
        <ele>505.0</ele>
        <time>2018-10-06T09:13:24.000Z</time>
      </trkpt>
      <trkpt lat="38.12351833" lon="-4.89925333">
        <ele>505.0</ele>
        <time>2018-10-06T09:13:25.000Z</time>
      </trkpt>
      <trkpt lat="38.12351833" lon="-4.89925333">
        <ele>505.0</ele>
        <time>2018-10-06T09:13:26.000Z</time>
      </trkpt>
      <trkpt lat="38.12351833" lon="-4.89925333">
        <ele>505.0</ele>
        <time>2018-10-06T09:13:27.000Z</time>
      </trkpt>
      <trkpt lat="38.12351833" lon="-4.89925333">
        <ele>505.0</ele>
        <time>2018-10-06T09:13:28.000Z</time>
      </trkpt>
      <trkpt lat="38.12351833" lon="-4.89925333">
        <ele>505.0</ele>
        <time>2018-10-06T09:13:29.000Z</time>
      </trkpt>
      <trkpt lat="38.12351833" lon="-4.89925333">
        <ele>505.0</ele>
        <time>2018-10-06T09:13:30.000Z</time>
      </trkpt>
      <trkpt lat="38.12351833" lon="-4.89925333">
        <ele>505.0</ele>
        <time>2018-10-06T09:13:31.000Z</time>
      </trkpt>
      <trkpt lat="38.12351833" lon="-4.89925333">
        <ele>505.0</ele>
        <time>2018-10-06T09:13:32.000Z</time>
      </trkpt>
      <trkpt lat="38.12351833" lon="-4.89925333">
        <ele>505.0</ele>
        <time>2018-10-06T09:13:33.000Z</time>
      </trkpt>
      <trkpt lat="38.12351833" lon="-4.89925333">
        <ele>505.0</ele>
        <time>2018-10-06T09:13:34.000Z</time>
      </trkpt>
      <trkpt lat="38.12351833" lon="-4.89925333">
        <ele>505.0</ele>
        <time>2018-10-06T09:13:35.000Z</time>
      </trkpt>
      <trkpt lat="38.12351833" lon="-4.89925333">
        <ele>505.0</ele>
        <time>2018-10-06T09:13:36.000Z</time>
      </trkpt>
      <trkpt lat="38.12351833" lon="-4.89925333">
        <ele>505.0</ele>
        <time>2018-10-06T09:13:37.000Z</time>
      </trkpt>
      <trkpt lat="38.12351833" lon="-4.89925333">
        <ele>505.0</ele>
        <time>2018-10-06T09:13:38.000Z</time>
      </trkpt>
      <trkpt lat="38.12351833" lon="-4.89925333">
        <ele>505.0</ele>
        <time>2018-10-06T09:13:39.000Z</time>
      </trkpt>
      <trkpt lat="38.12351833" lon="-4.89925333">
        <ele>505.0</ele>
        <time>2018-10-06T09:13:40.000Z</time>
      </trkpt>
      <trkpt lat="38.12351833" lon="-4.89925333">
        <ele>505.0</ele>
        <time>2018-10-06T09:13:41.000Z</time>
      </trkpt>
      <trkpt lat="38.12318167" lon="-4.89903833">
        <ele>491.0</ele>
        <time>2018-10-06T09:13:42.000Z</time>
      </trkpt>
      <trkpt lat="38.12316" lon="-4.899015">
        <ele>494.0</ele>
        <time>2018-10-06T09:13:43.000Z</time>
      </trkpt>
      <trkpt lat="38.12314" lon="-4.899005">
        <ele>495.0</ele>
        <time>2018-10-06T09:13:44.000Z</time>
      </trkpt>
      <trkpt lat="38.12312167" lon="-4.898995">
        <ele>497.0</ele>
        <time>2018-10-06T09:13:45.000Z</time>
      </trkpt>
      <trkpt lat="38.123105" lon="-4.89898667">
        <ele>498.0</ele>
        <time>2018-10-06T09:13:46.000Z</time>
      </trkpt>
      <trkpt lat="38.12308667" lon="-4.89897833">
        <ele>500.0</ele>
        <time>2018-10-06T09:13:47.000Z</time>
      </trkpt>
      <trkpt lat="38.12306833" lon="-4.89897">
        <ele>501.0</ele>
        <time>2018-10-06T09:13:48.000Z</time>
      </trkpt>
      <trkpt lat="38.12305333" lon="-4.89896333">
        <ele>502.0</ele>
        <time>2018-10-06T09:13:49.000Z</time>
      </trkpt>
      <trkpt lat="38.12303833" lon="-4.89895667">
        <ele>503.0</ele>
        <time>2018-10-06T09:13:50.000Z</time>
      </trkpt>
      <trkpt lat="38.123025" lon="-4.89895167">
        <ele>504.0</ele>
        <time>2018-10-06T09:13:51.000Z</time>
      </trkpt>
      <trkpt lat="38.12301" lon="-4.89894667">
        <ele>505.0</ele>
        <time>2018-10-06T09:13:52.000Z</time>
      </trkpt>
      <trkpt lat="38.12299667" lon="-4.89894333">
        <ele>506.0</ele>
        <time>2018-10-06T09:13:53.000Z</time>
      </trkpt>
      <trkpt lat="38.12299667" lon="-4.89894333">
        <ele>506.0</ele>
        <time>2018-10-06T09:13:54.000Z</time>
      </trkpt>
      <trkpt lat="38.12299667" lon="-4.89894333">
        <ele>506.0</ele>
        <time>2018-10-06T09:13:55.000Z</time>
      </trkpt>
      <trkpt lat="38.12299667" lon="-4.89894333">
        <ele>506.0</ele>
        <time>2018-10-06T09:13:56.000Z</time>
      </trkpt>
      <trkpt lat="38.12299667" lon="-4.89894333">
        <ele>506.0</ele>
        <time>2018-10-06T09:13:57.000Z</time>
      </trkpt>
      <trkpt lat="38.12299667" lon="-4.89894333">
        <ele>506.0</ele>
        <time>2018-10-06T09:13:58.000Z</time>
      </trkpt>
      <trkpt lat="38.12299667" lon="-4.89894333">
        <ele>506.0</ele>
        <time>2018-10-06T09:13:59.000Z</time>
      </trkpt>
      <trkpt lat="38.12299667" lon="-4.89894333">
        <ele>506.0</ele>
        <time>2018-10-06T09:14:00.000Z</time>
      </trkpt>
      <trkpt lat="38.12299667" lon="-4.89894333">
        <ele>506.0</ele>
        <time>2018-10-06T09:14:01.000Z</time>
      </trkpt>
      <trkpt lat="38.12299667" lon="-4.89894333">
        <ele>506.0</ele>
        <time>2018-10-06T09:14:02.000Z</time>
      </trkpt>
      <trkpt lat="38.12299667" lon="-4.89894333">
        <ele>506.0</ele>
        <time>2018-10-06T09:14:03.000Z</time>
      </trkpt>
      <trkpt lat="38.12299667" lon="-4.89894333">
        <ele>506.0</ele>
        <time>2018-10-06T09:14:04.000Z</time>
      </trkpt>
      <trkpt lat="38.12299667" lon="-4.89894333">
        <ele>506.0</ele>
        <time>2018-10-06T09:14:05.000Z</time>
      </trkpt>
      <trkpt lat="38.12299667" lon="-4.89894333">
        <ele>506.0</ele>
        <time>2018-10-06T09:14:06.000Z</time>
      </trkpt>
      <trkpt lat="38.12299667" lon="-4.89894333">
        <ele>506.0</ele>
        <time>2018-10-06T09:14:07.000Z</time>
      </trkpt>
      <trkpt lat="38.12299667" lon="-4.89894333">
        <ele>506.0</ele>
        <time>2018-10-06T09:14:08.000Z</time>
      </trkpt>
      <trkpt lat="38.12299667" lon="-4.89894333">
        <ele>506.0</ele>
        <time>2018-10-06T09:14:09.000Z</time>
      </trkpt>
      <trkpt lat="38.12299667" lon="-4.89894333">
        <ele>506.0</ele>
        <time>2018-10-06T09:14:10.000Z</time>
      </trkpt>
      <trkpt lat="38.12299667" lon="-4.89894333">
        <ele>506.0</ele>
        <time>2018-10-06T09:14:11.000Z</time>
      </trkpt>
      <trkpt lat="38.12299667" lon="-4.89894333">
        <ele>506.0</ele>
        <time>2018-10-06T09:14:12.000Z</time>
      </trkpt>
      <trkpt lat="38.12299667" lon="-4.89894333">
        <ele>506.0</ele>
        <time>2018-10-06T09:14:13.000Z</time>
      </trkpt>
      <trkpt lat="38.12299667" lon="-4.89894333">
        <ele>506.0</ele>
        <time>2018-10-06T09:14:14.000Z</time>
      </trkpt>
      <trkpt lat="38.12299667" lon="-4.89894333">
        <ele>506.0</ele>
        <time>2018-10-06T09:14:15.000Z</time>
      </trkpt>
      <trkpt lat="38.12299667" lon="-4.89894333">
        <ele>506.0</ele>
        <time>2018-10-06T09:14:16.000Z</time>
      </trkpt>
      <trkpt lat="38.12299667" lon="-4.89894333">
        <ele>506.0</ele>
        <time>2018-10-06T09:14:17.000Z</time>
      </trkpt>
      <trkpt lat="38.12299667" lon="-4.89894333">
        <ele>506.0</ele>
        <time>2018-10-06T09:14:18.000Z</time>
      </trkpt>
      <trkpt lat="38.12299667" lon="-4.89894333">
        <ele>506.0</ele>
        <time>2018-10-06T09:14:19.000Z</time>
      </trkpt>
      <trkpt lat="38.12299667" lon="-4.89894333">
        <ele>506.0</ele>
        <time>2018-10-06T09:14:20.000Z</time>
      </trkpt>
      <trkpt lat="38.12299667" lon="-4.89894333">
        <ele>506.0</ele>
        <time>2018-10-06T09:14:21.000Z</time>
      </trkpt>
      <trkpt lat="38.12299667" lon="-4.89894333">
        <ele>506.0</ele>
        <time>2018-10-06T09:14:22.000Z</time>
      </trkpt>
      <trkpt lat="38.12299667" lon="-4.89894333">
        <ele>506.0</ele>
        <time>2018-10-06T09:14:23.000Z</time>
      </trkpt>
      <trkpt lat="38.12299667" lon="-4.89894333">
        <ele>506.0</ele>
        <time>2018-10-06T09:14:24.000Z</time>
      </trkpt>
      <trkpt lat="38.12299667" lon="-4.89894333">
        <ele>506.0</ele>
        <time>2018-10-06T09:14:25.000Z</time>
      </trkpt>
      <trkpt lat="38.12299667" lon="-4.89894333">
        <ele>506.0</ele>
        <time>2018-10-06T09:14:26.000Z</time>
      </trkpt>
      <trkpt lat="38.12299667" lon="-4.89894333">
        <ele>506.0</ele>
        <time>2018-10-06T09:14:27.000Z</time>
      </trkpt>
      <trkpt lat="38.12299667" lon="-4.89894333">
        <ele>506.0</ele>
        <time>2018-10-06T09:14:28.000Z</time>
      </trkpt>
      <trkpt lat="38.12299667" lon="-4.89894333">
        <ele>506.0</ele>
        <time>2018-10-06T09:14:29.000Z</time>
      </trkpt>
      <trkpt lat="38.12299667" lon="-4.89894333">
        <ele>506.0</ele>
        <time>2018-10-06T09:14:30.000Z</time>
      </trkpt>
      <trkpt lat="38.12299667" lon="-4.89894333">
        <ele>506.0</ele>
        <time>2018-10-06T09:14:31.000Z</time>
      </trkpt>
      <trkpt lat="38.12299667" lon="-4.89894333">
        <ele>506.0</ele>
        <time>2018-10-06T09:14:32.000Z</time>
      </trkpt>
      <trkpt lat="38.12299667" lon="-4.89894333">
        <ele>506.0</ele>
        <time>2018-10-06T09:14:33.000Z</time>
      </trkpt>
      <trkpt lat="38.12299667" lon="-4.89894333">
        <ele>506.0</ele>
        <time>2018-10-06T09:14:34.000Z</time>
      </trkpt>
      <trkpt lat="38.12299667" lon="-4.89894333">
        <ele>506.0</ele>
        <time>2018-10-06T09:14:35.000Z</time>
      </trkpt>
      <trkpt lat="38.12299667" lon="-4.89894333">
        <ele>506.0</ele>
        <time>2018-10-06T09:14:36.000Z</time>
      </trkpt>
      <trkpt lat="38.12299667" lon="-4.89894333">
        <ele>506.0</ele>
        <time>2018-10-06T09:14:37.000Z</time>
      </trkpt>
      <trkpt lat="38.12299667" lon="-4.89894333">
        <ele>506.0</ele>
        <time>2018-10-06T09:14:38.000Z</time>
      </trkpt>
      <trkpt lat="38.12299667" lon="-4.89894333">
        <ele>506.0</ele>
        <time>2018-10-06T09:14:39.000Z</time>
      </trkpt>
      <trkpt lat="38.12299667" lon="-4.89894333">
        <ele>506.0</ele>
        <time>2018-10-06T09:14:40.000Z</time>
      </trkpt>
      <trkpt lat="38.12299667" lon="-4.89894333">
        <ele>506.0</ele>
        <time>2018-10-06T09:14:41.000Z</time>
      </trkpt>
      <trkpt lat="38.12266333" lon="-4.898975">
        <ele>508.0</ele>
        <time>2018-10-06T09:14:42.000Z</time>
      </trkpt>
      <trkpt lat="38.12260167" lon="-4.89901667">
        <ele>507.0</ele>
        <time>2018-10-06T09:14:43.000Z</time>
      </trkpt>
      <trkpt lat="38.122525" lon="-4.89904833">
        <ele>512.0</ele>
        <time>2018-10-06T09:14:44.000Z</time>
      </trkpt>
      <trkpt lat="38.122515" lon="-4.89905667">
        <ele>513.0</ele>
        <time>2018-10-06T09:14:45.000Z</time>
      </trkpt>
      <trkpt lat="38.12249833" lon="-4.89907">
        <ele>513.0</ele>
        <time>2018-10-06T09:14:46.000Z</time>
      </trkpt>
      <trkpt lat="38.12248333" lon="-4.89908">
        <ele>514.0</ele>
        <time>2018-10-06T09:14:47.000Z</time>
      </trkpt>
      <trkpt lat="38.12247167" lon="-4.89908667">
        <ele>514.0</ele>
        <time>2018-10-06T09:14:48.000Z</time>
      </trkpt>
      <trkpt lat="38.12246" lon="-4.899095">
        <ele>514.0</ele>
        <time>2018-10-06T09:14:49.000Z</time>
      </trkpt>
      <trkpt lat="38.12244833" lon="-4.899105">
        <ele>515.0</ele>
        <time>2018-10-06T09:14:50.000Z</time>
      </trkpt>
      <trkpt lat="38.12243667" lon="-4.89911333">
        <ele>515.0</ele>
        <time>2018-10-06T09:14:51.000Z</time>
      </trkpt>
      <trkpt lat="38.122425" lon="-4.899125">
        <ele>515.0</ele>
        <time>2018-10-06T09:14:52.000Z</time>
      </trkpt>
      <trkpt lat="38.12241333" lon="-4.899135">
        <ele>515.0</ele>
        <time>2018-10-06T09:14:53.000Z</time>
      </trkpt>
      <trkpt lat="38.12241333" lon="-4.899135">
        <ele>515.0</ele>
        <time>2018-10-06T09:14:54.000Z</time>
      </trkpt>
      <trkpt lat="38.12241333" lon="-4.899135">
        <ele>515.0</ele>
        <time>2018-10-06T09:14:55.000Z</time>
      </trkpt>
      <trkpt lat="38.12241333" lon="-4.899135">
        <ele>515.0</ele>
        <time>2018-10-06T09:14:56.000Z</time>
      </trkpt>
      <trkpt lat="38.12241333" lon="-4.899135">
        <ele>515.0</ele>
        <time>2018-10-06T09:14:57.000Z</time>
      </trkpt>
      <trkpt lat="38.12241333" lon="-4.899135">
        <ele>515.0</ele>
        <time>2018-10-06T09:14:58.000Z</time>
      </trkpt>
      <trkpt lat="38.12241333" lon="-4.899135">
        <ele>515.0</ele>
        <time>2018-10-06T09:14:59.000Z</time>
      </trkpt>
      <trkpt lat="38.12241333" lon="-4.899135">
        <ele>515.0</ele>
        <time>2018-10-06T09:15:00.000Z</time>
      </trkpt>
      <trkpt lat="38.12241333" lon="-4.899135">
        <ele>515.0</ele>
        <time>2018-10-06T09:15:01.000Z</time>
      </trkpt>
      <trkpt lat="38.12241333" lon="-4.899135">
        <ele>515.0</ele>
        <time>2018-10-06T09:15:02.000Z</time>
      </trkpt>
      <trkpt lat="38.12241333" lon="-4.899135">
        <ele>515.0</ele>
        <time>2018-10-06T09:15:03.000Z</time>
      </trkpt>
      <trkpt lat="38.12241333" lon="-4.899135">
        <ele>515.0</ele>
        <time>2018-10-06T09:15:04.000Z</time>
      </trkpt>
      <trkpt lat="38.12241333" lon="-4.899135">
        <ele>515.0</ele>
        <time>2018-10-06T09:15:05.000Z</time>
      </trkpt>
      <trkpt lat="38.12241333" lon="-4.899135">
        <ele>515.0</ele>
        <time>2018-10-06T09:15:06.000Z</time>
      </trkpt>
      <trkpt lat="38.12241333" lon="-4.899135">
        <ele>515.0</ele>
        <time>2018-10-06T09:15:07.000Z</time>
      </trkpt>
      <trkpt lat="38.12241333" lon="-4.899135">
        <ele>515.0</ele>
        <time>2018-10-06T09:15:08.000Z</time>
      </trkpt>
      <trkpt lat="38.12241333" lon="-4.899135">
        <ele>515.0</ele>
        <time>2018-10-06T09:15:09.000Z</time>
      </trkpt>
      <trkpt lat="38.12241333" lon="-4.899135">
        <ele>515.0</ele>
        <time>2018-10-06T09:15:10.000Z</time>
      </trkpt>
      <trkpt lat="38.12241333" lon="-4.899135">
        <ele>515.0</ele>
        <time>2018-10-06T09:15:11.000Z</time>
      </trkpt>
      <trkpt lat="38.12241333" lon="-4.899135">
        <ele>515.0</ele>
        <time>2018-10-06T09:15:12.000Z</time>
      </trkpt>
      <trkpt lat="38.12241333" lon="-4.899135">
        <ele>515.0</ele>
        <time>2018-10-06T09:15:13.000Z</time>
      </trkpt>
      <trkpt lat="38.12241333" lon="-4.899135">
        <ele>515.0</ele>
        <time>2018-10-06T09:15:14.000Z</time>
      </trkpt>
      <trkpt lat="38.12241333" lon="-4.899135">
        <ele>515.0</ele>
        <time>2018-10-06T09:15:15.000Z</time>
      </trkpt>
      <trkpt lat="38.12241333" lon="-4.899135">
        <ele>515.0</ele>
        <time>2018-10-06T09:15:16.000Z</time>
      </trkpt>
      <trkpt lat="38.12241333" lon="-4.899135">
        <ele>515.0</ele>
        <time>2018-10-06T09:15:17.000Z</time>
      </trkpt>
      <trkpt lat="38.12241333" lon="-4.899135">
        <ele>515.0</ele>
        <time>2018-10-06T09:15:18.000Z</time>
      </trkpt>
      <trkpt lat="38.12241333" lon="-4.899135">
        <ele>515.0</ele>
        <time>2018-10-06T09:15:19.000Z</time>
      </trkpt>
      <trkpt lat="38.12241333" lon="-4.899135">
        <ele>515.0</ele>
        <time>2018-10-06T09:15:20.000Z</time>
      </trkpt>
      <trkpt lat="38.12241333" lon="-4.899135">
        <ele>515.0</ele>
        <time>2018-10-06T09:15:21.000Z</time>
      </trkpt>
      <trkpt lat="38.12241333" lon="-4.899135">
        <ele>515.0</ele>
        <time>2018-10-06T09:15:22.000Z</time>
      </trkpt>
      <trkpt lat="38.12241333" lon="-4.899135">
        <ele>515.0</ele>
        <time>2018-10-06T09:15:23.000Z</time>
      </trkpt>
      <trkpt lat="38.12241333" lon="-4.899135">
        <ele>515.0</ele>
        <time>2018-10-06T09:15:24.000Z</time>
      </trkpt>
      <trkpt lat="38.12241333" lon="-4.899135">
        <ele>515.0</ele>
        <time>2018-10-06T09:15:25.000Z</time>
      </trkpt>
      <trkpt lat="38.12241333" lon="-4.899135">
        <ele>515.0</ele>
        <time>2018-10-06T09:15:26.000Z</time>
      </trkpt>
      <trkpt lat="38.12241333" lon="-4.899135">
        <ele>515.0</ele>
        <time>2018-10-06T09:15:27.000Z</time>
      </trkpt>
      <trkpt lat="38.12241333" lon="-4.899135">
        <ele>515.0</ele>
        <time>2018-10-06T09:15:28.000Z</time>
      </trkpt>
      <trkpt lat="38.12241333" lon="-4.899135">
        <ele>515.0</ele>
        <time>2018-10-06T09:15:29.000Z</time>
      </trkpt>
      <trkpt lat="38.12241333" lon="-4.899135">
        <ele>515.0</ele>
        <time>2018-10-06T09:15:30.000Z</time>
      </trkpt>
      <trkpt lat="38.12241333" lon="-4.899135">
        <ele>515.0</ele>
        <time>2018-10-06T09:15:31.000Z</time>
      </trkpt>
      <trkpt lat="38.12241333" lon="-4.899135">
        <ele>515.0</ele>
        <time>2018-10-06T09:15:32.000Z</time>
      </trkpt>
      <trkpt lat="38.12241333" lon="-4.899135">
        <ele>515.0</ele>
        <time>2018-10-06T09:15:33.000Z</time>
      </trkpt>
      <trkpt lat="38.12241333" lon="-4.899135">
        <ele>515.0</ele>
        <time>2018-10-06T09:15:34.000Z</time>
      </trkpt>
      <trkpt lat="38.12241333" lon="-4.899135">
        <ele>515.0</ele>
        <time>2018-10-06T09:15:35.000Z</time>
      </trkpt>
      <trkpt lat="38.12241333" lon="-4.899135">
        <ele>515.0</ele>
        <time>2018-10-06T09:15:36.000Z</time>
      </trkpt>
      <trkpt lat="38.12241333" lon="-4.899135">
        <ele>515.0</ele>
        <time>2018-10-06T09:15:37.000Z</time>
      </trkpt>
      <trkpt lat="38.12241333" lon="-4.899135">
        <ele>515.0</ele>
        <time>2018-10-06T09:15:38.000Z</time>
      </trkpt>
      <trkpt lat="38.12241333" lon="-4.899135">
        <ele>515.0</ele>
        <time>2018-10-06T09:15:39.000Z</time>
      </trkpt>
      <trkpt lat="38.12241333" lon="-4.899135">
        <ele>515.0</ele>
        <time>2018-10-06T09:15:40.000Z</time>
      </trkpt>
      <trkpt lat="38.12241333" lon="-4.899135">
        <ele>515.0</ele>
        <time>2018-10-06T09:15:41.000Z</time>
      </trkpt>
      <trkpt lat="38.12241333" lon="-4.899135">
        <ele>515.0</ele>
        <time>2018-10-06T09:15:42.000Z</time>
      </trkpt>
      <trkpt lat="38.12223" lon="-4.89938">
        <ele>509.0</ele>
        <time>2018-10-06T09:15:43.000Z</time>
      </trkpt>
      <trkpt lat="38.12220167" lon="-4.899435">
        <ele>509.0</ele>
        <time>2018-10-06T09:15:44.000Z</time>
      </trkpt>
      <trkpt lat="38.12219333" lon="-4.89943333">
        <ele>509.0</ele>
        <time>2018-10-06T09:15:45.000Z</time>
      </trkpt>
      <trkpt lat="38.122185" lon="-4.899435">
        <ele>510.0</ele>
        <time>2018-10-06T09:15:46.000Z</time>
      </trkpt>
      <trkpt lat="38.122175" lon="-4.89944">
        <ele>510.0</ele>
        <time>2018-10-06T09:15:47.000Z</time>
      </trkpt>
      <trkpt lat="38.12216333" lon="-4.89944667">
        <ele>510.0</ele>
        <time>2018-10-06T09:15:48.000Z</time>
      </trkpt>
      <trkpt lat="38.12215333" lon="-4.89945">
        <ele>511.0</ele>
        <time>2018-10-06T09:15:49.000Z</time>
      </trkpt>
      <trkpt lat="38.12214167" lon="-4.89945333">
        <ele>511.0</ele>
        <time>2018-10-06T09:15:50.000Z</time>
      </trkpt>
      <trkpt lat="38.12213" lon="-4.89945833">
        <ele>512.0</ele>
        <time>2018-10-06T09:15:51.000Z</time>
      </trkpt>
      <trkpt lat="38.12212" lon="-4.89946333">
        <ele>512.0</ele>
        <time>2018-10-06T09:15:52.000Z</time>
      </trkpt>
      <trkpt lat="38.12211" lon="-4.899465">
        <ele>513.0</ele>
        <time>2018-10-06T09:15:53.000Z</time>
      </trkpt>
      <trkpt lat="38.12211" lon="-4.899465">
        <ele>513.0</ele>
        <time>2018-10-06T09:15:54.000Z</time>
      </trkpt>
      <trkpt lat="38.12211" lon="-4.899465">
        <ele>513.0</ele>
        <time>2018-10-06T09:15:55.000Z</time>
      </trkpt>
      <trkpt lat="38.12211" lon="-4.899465">
        <ele>513.0</ele>
        <time>2018-10-06T09:15:56.000Z</time>
      </trkpt>
      <trkpt lat="38.12211" lon="-4.899465">
        <ele>513.0</ele>
        <time>2018-10-06T09:15:57.000Z</time>
      </trkpt>
      <trkpt lat="38.12211" lon="-4.899465">
        <ele>513.0</ele>
        <time>2018-10-06T09:15:58.000Z</time>
      </trkpt>
      <trkpt lat="38.12211" lon="-4.899465">
        <ele>513.0</ele>
        <time>2018-10-06T09:15:59.000Z</time>
      </trkpt>
      <trkpt lat="38.12211" lon="-4.899465">
        <ele>513.0</ele>
        <time>2018-10-06T09:16:00.000Z</time>
      </trkpt>
      <trkpt lat="38.12211" lon="-4.899465">
        <ele>513.0</ele>
        <time>2018-10-06T09:16:01.000Z</time>
      </trkpt>
      <trkpt lat="38.12211" lon="-4.899465">
        <ele>513.0</ele>
        <time>2018-10-06T09:16:02.000Z</time>
      </trkpt>
      <trkpt lat="38.12211" lon="-4.899465">
        <ele>513.0</ele>
        <time>2018-10-06T09:16:03.000Z</time>
      </trkpt>
      <trkpt lat="38.12211" lon="-4.899465">
        <ele>513.0</ele>
        <time>2018-10-06T09:16:04.000Z</time>
      </trkpt>
      <trkpt lat="38.12211" lon="-4.899465">
        <ele>513.0</ele>
        <time>2018-10-06T09:16:05.000Z</time>
      </trkpt>
      <trkpt lat="38.12211" lon="-4.899465">
        <ele>513.0</ele>
        <time>2018-10-06T09:16:06.000Z</time>
      </trkpt>
      <trkpt lat="38.12211" lon="-4.899465">
        <ele>513.0</ele>
        <time>2018-10-06T09:16:07.000Z</time>
      </trkpt>
      <trkpt lat="38.12211" lon="-4.899465">
        <ele>513.0</ele>
        <time>2018-10-06T09:16:08.000Z</time>
      </trkpt>
      <trkpt lat="38.12211" lon="-4.899465">
        <ele>513.0</ele>
        <time>2018-10-06T09:16:09.000Z</time>
      </trkpt>
      <trkpt lat="38.12211" lon="-4.899465">
        <ele>513.0</ele>
        <time>2018-10-06T09:16:10.000Z</time>
      </trkpt>
      <trkpt lat="38.12211" lon="-4.899465">
        <ele>513.0</ele>
        <time>2018-10-06T09:16:11.000Z</time>
      </trkpt>
      <trkpt lat="38.12211" lon="-4.899465">
        <ele>513.0</ele>
        <time>2018-10-06T09:16:12.000Z</time>
      </trkpt>
      <trkpt lat="38.12211" lon="-4.899465">
        <ele>513.0</ele>
        <time>2018-10-06T09:16:13.000Z</time>
      </trkpt>
      <trkpt lat="38.12211" lon="-4.899465">
        <ele>513.0</ele>
        <time>2018-10-06T09:16:14.000Z</time>
      </trkpt>
      <trkpt lat="38.12211" lon="-4.899465">
        <ele>513.0</ele>
        <time>2018-10-06T09:16:15.000Z</time>
      </trkpt>
      <trkpt lat="38.12211" lon="-4.899465">
        <ele>513.0</ele>
        <time>2018-10-06T09:16:16.000Z</time>
      </trkpt>
      <trkpt lat="38.12211" lon="-4.899465">
        <ele>513.0</ele>
        <time>2018-10-06T09:16:17.000Z</time>
      </trkpt>
      <trkpt lat="38.12211" lon="-4.899465">
        <ele>513.0</ele>
        <time>2018-10-06T09:16:18.000Z</time>
      </trkpt>
      <trkpt lat="38.12211" lon="-4.899465">
        <ele>513.0</ele>
        <time>2018-10-06T09:16:19.000Z</time>
      </trkpt>
      <trkpt lat="38.12211" lon="-4.899465">
        <ele>513.0</ele>
        <time>2018-10-06T09:16:20.000Z</time>
      </trkpt>
      <trkpt lat="38.12211" lon="-4.899465">
        <ele>513.0</ele>
        <time>2018-10-06T09:16:21.000Z</time>
      </trkpt>
      <trkpt lat="38.12211" lon="-4.899465">
        <ele>513.0</ele>
        <time>2018-10-06T09:16:22.000Z</time>
      </trkpt>
      <trkpt lat="38.12211" lon="-4.899465">
        <ele>513.0</ele>
        <time>2018-10-06T09:16:23.000Z</time>
      </trkpt>
      <trkpt lat="38.12211" lon="-4.899465">
        <ele>513.0</ele>
        <time>2018-10-06T09:16:24.000Z</time>
      </trkpt>
      <trkpt lat="38.12211" lon="-4.899465">
        <ele>513.0</ele>
        <time>2018-10-06T09:16:25.000Z</time>
      </trkpt>
      <trkpt lat="38.12211" lon="-4.899465">
        <ele>513.0</ele>
        <time>2018-10-06T09:16:26.000Z</time>
      </trkpt>
      <trkpt lat="38.12211" lon="-4.899465">
        <ele>513.0</ele>
        <time>2018-10-06T09:16:27.000Z</time>
      </trkpt>
      <trkpt lat="38.12211" lon="-4.899465">
        <ele>513.0</ele>
        <time>2018-10-06T09:16:28.000Z</time>
      </trkpt>
      <trkpt lat="38.12211" lon="-4.899465">
        <ele>513.0</ele>
        <time>2018-10-06T09:16:29.000Z</time>
      </trkpt>
      <trkpt lat="38.12211" lon="-4.899465">
        <ele>513.0</ele>
        <time>2018-10-06T09:16:30.000Z</time>
      </trkpt>
      <trkpt lat="38.12211" lon="-4.899465">
        <ele>513.0</ele>
        <time>2018-10-06T09:16:31.000Z</time>
      </trkpt>
      <trkpt lat="38.12211" lon="-4.899465">
        <ele>513.0</ele>
        <time>2018-10-06T09:16:32.000Z</time>
      </trkpt>
      <trkpt lat="38.12211" lon="-4.899465">
        <ele>513.0</ele>
        <time>2018-10-06T09:16:33.000Z</time>
      </trkpt>
      <trkpt lat="38.12211" lon="-4.899465">
        <ele>513.0</ele>
        <time>2018-10-06T09:16:34.000Z</time>
      </trkpt>
      <trkpt lat="38.12211" lon="-4.899465">
        <ele>513.0</ele>
        <time>2018-10-06T09:16:35.000Z</time>
      </trkpt>
      <trkpt lat="38.12211" lon="-4.899465">
        <ele>513.0</ele>
        <time>2018-10-06T09:16:36.000Z</time>
      </trkpt>
      <trkpt lat="38.12211" lon="-4.899465">
        <ele>513.0</ele>
        <time>2018-10-06T09:16:37.000Z</time>
      </trkpt>
      <trkpt lat="38.12211" lon="-4.899465">
        <ele>513.0</ele>
        <time>2018-10-06T09:16:38.000Z</time>
      </trkpt>
      <trkpt lat="38.12211" lon="-4.899465">
        <ele>513.0</ele>
        <time>2018-10-06T09:16:39.000Z</time>
      </trkpt>
      <trkpt lat="38.12211" lon="-4.899465">
        <ele>513.0</ele>
        <time>2018-10-06T09:16:40.000Z</time>
      </trkpt>
      <trkpt lat="38.12211" lon="-4.899465">
        <ele>513.0</ele>
        <time>2018-10-06T09:16:41.000Z</time>
      </trkpt>
      <trkpt lat="38.12211" lon="-4.899465">
        <ele>513.0</ele>
        <time>2018-10-06T09:16:42.000Z</time>
      </trkpt>
      <trkpt lat="38.12170667" lon="-4.899505">
        <ele>500.0</ele>
        <time>2018-10-06T09:16:43.000Z</time>
      </trkpt>
      <trkpt lat="38.12165333" lon="-4.89955667">
        <ele>501.0</ele>
        <time>2018-10-06T09:16:44.000Z</time>
      </trkpt>
      <trkpt lat="38.12164833" lon="-4.89956167">
        <ele>502.0</ele>
        <time>2018-10-06T09:16:45.000Z</time>
      </trkpt>
      <trkpt lat="38.12163833" lon="-4.89956333">
        <ele>502.0</ele>
        <time>2018-10-06T09:16:46.000Z</time>
      </trkpt>
      <trkpt lat="38.121625" lon="-4.89956333">
        <ele>502.0</ele>
        <time>2018-10-06T09:16:47.000Z</time>
      </trkpt>
      <trkpt lat="38.12161167" lon="-4.89956333">
        <ele>503.0</ele>
        <time>2018-10-06T09:16:48.000Z</time>
      </trkpt>
      <trkpt lat="38.12159833" lon="-4.89956">
        <ele>503.0</ele>
        <time>2018-10-06T09:16:49.000Z</time>
      </trkpt>
      <trkpt lat="38.12158667" lon="-4.899555">
        <ele>503.0</ele>
        <time>2018-10-06T09:16:50.000Z</time>
      </trkpt>
      <trkpt lat="38.12157333" lon="-4.89955">
        <ele>503.0</ele>
        <time>2018-10-06T09:16:51.000Z</time>
      </trkpt>
      <trkpt lat="38.12156167" lon="-4.899545">
        <ele>504.0</ele>
        <time>2018-10-06T09:16:52.000Z</time>
      </trkpt>
      <trkpt lat="38.12154833" lon="-4.89953833">
        <ele>504.0</ele>
        <time>2018-10-06T09:16:53.000Z</time>
      </trkpt>
      <trkpt lat="38.12154833" lon="-4.89953833">
        <ele>504.0</ele>
        <time>2018-10-06T09:16:54.000Z</time>
      </trkpt>
      <trkpt lat="38.12154833" lon="-4.89953833">
        <ele>504.0</ele>
        <time>2018-10-06T09:16:55.000Z</time>
      </trkpt>
      <trkpt lat="38.12154833" lon="-4.89953833">
        <ele>504.0</ele>
        <time>2018-10-06T09:16:56.000Z</time>
      </trkpt>
      <trkpt lat="38.12154833" lon="-4.89953833">
        <ele>504.0</ele>
        <time>2018-10-06T09:16:57.000Z</time>
      </trkpt>
      <trkpt lat="38.12154833" lon="-4.89953833">
        <ele>504.0</ele>
        <time>2018-10-06T09:16:58.000Z</time>
      </trkpt>
      <trkpt lat="38.12154833" lon="-4.89953833">
        <ele>504.0</ele>
        <time>2018-10-06T09:16:59.000Z</time>
      </trkpt>
      <trkpt lat="38.12154833" lon="-4.89953833">
        <ele>504.0</ele>
        <time>2018-10-06T09:17:00.000Z</time>
      </trkpt>
      <trkpt lat="38.12154833" lon="-4.89953833">
        <ele>504.0</ele>
        <time>2018-10-06T09:17:01.000Z</time>
      </trkpt>
      <trkpt lat="38.12154833" lon="-4.89953833">
        <ele>504.0</ele>
        <time>2018-10-06T09:17:02.000Z</time>
      </trkpt>
      <trkpt lat="38.12154833" lon="-4.89953833">
        <ele>504.0</ele>
        <time>2018-10-06T09:17:03.000Z</time>
      </trkpt>
      <trkpt lat="38.12154833" lon="-4.89953833">
        <ele>504.0</ele>
        <time>2018-10-06T09:17:04.000Z</time>
      </trkpt>
      <trkpt lat="38.12154833" lon="-4.89953833">
        <ele>504.0</ele>
        <time>2018-10-06T09:17:05.000Z</time>
      </trkpt>
      <trkpt lat="38.12154833" lon="-4.89953833">
        <ele>504.0</ele>
        <time>2018-10-06T09:17:06.000Z</time>
      </trkpt>
      <trkpt lat="38.12154833" lon="-4.89953833">
        <ele>504.0</ele>
        <time>2018-10-06T09:17:07.000Z</time>
      </trkpt>
      <trkpt lat="38.12154833" lon="-4.89953833">
        <ele>504.0</ele>
        <time>2018-10-06T09:17:08.000Z</time>
      </trkpt>
      <trkpt lat="38.12154833" lon="-4.89953833">
        <ele>504.0</ele>
        <time>2018-10-06T09:17:09.000Z</time>
      </trkpt>
      <trkpt lat="38.12154833" lon="-4.89953833">
        <ele>504.0</ele>
        <time>2018-10-06T09:17:10.000Z</time>
      </trkpt>
      <trkpt lat="38.12154833" lon="-4.89953833">
        <ele>504.0</ele>
        <time>2018-10-06T09:17:11.000Z</time>
      </trkpt>
      <trkpt lat="38.12154833" lon="-4.89953833">
        <ele>504.0</ele>
        <time>2018-10-06T09:17:12.000Z</time>
      </trkpt>
      <trkpt lat="38.12154833" lon="-4.89953833">
        <ele>504.0</ele>
        <time>2018-10-06T09:17:13.000Z</time>
      </trkpt>
      <trkpt lat="38.12154833" lon="-4.89953833">
        <ele>504.0</ele>
        <time>2018-10-06T09:17:14.000Z</time>
      </trkpt>
      <trkpt lat="38.12154833" lon="-4.89953833">
        <ele>504.0</ele>
        <time>2018-10-06T09:17:15.000Z</time>
      </trkpt>
      <trkpt lat="38.12154833" lon="-4.89953833">
        <ele>504.0</ele>
        <time>2018-10-06T09:17:16.000Z</time>
      </trkpt>
      <trkpt lat="38.12154833" lon="-4.89953833">
        <ele>504.0</ele>
        <time>2018-10-06T09:17:17.000Z</time>
      </trkpt>
      <trkpt lat="38.12154833" lon="-4.89953833">
        <ele>504.0</ele>
        <time>2018-10-06T09:17:18.000Z</time>
      </trkpt>
      <trkpt lat="38.12154833" lon="-4.89953833">
        <ele>504.0</ele>
        <time>2018-10-06T09:17:19.000Z</time>
      </trkpt>
      <trkpt lat="38.12154833" lon="-4.89953833">
        <ele>504.0</ele>
        <time>2018-10-06T09:17:20.000Z</time>
      </trkpt>
      <trkpt lat="38.12154833" lon="-4.89953833">
        <ele>504.0</ele>
        <time>2018-10-06T09:17:21.000Z</time>
      </trkpt>
      <trkpt lat="38.12154833" lon="-4.89953833">
        <ele>504.0</ele>
        <time>2018-10-06T09:17:22.000Z</time>
      </trkpt>
      <trkpt lat="38.12154833" lon="-4.89953833">
        <ele>504.0</ele>
        <time>2018-10-06T09:17:23.000Z</time>
      </trkpt>
      <trkpt lat="38.12154833" lon="-4.89953833">
        <ele>504.0</ele>
        <time>2018-10-06T09:17:24.000Z</time>
      </trkpt>
      <trkpt lat="38.12154833" lon="-4.89953833">
        <ele>504.0</ele>
        <time>2018-10-06T09:17:25.000Z</time>
      </trkpt>
      <trkpt lat="38.12154833" lon="-4.89953833">
        <ele>504.0</ele>
        <time>2018-10-06T09:17:26.000Z</time>
      </trkpt>
      <trkpt lat="38.12154833" lon="-4.89953833">
        <ele>504.0</ele>
        <time>2018-10-06T09:17:27.000Z</time>
      </trkpt>
      <trkpt lat="38.12154833" lon="-4.89953833">
        <ele>504.0</ele>
        <time>2018-10-06T09:17:28.000Z</time>
      </trkpt>
      <trkpt lat="38.12154833" lon="-4.89953833">
        <ele>504.0</ele>
        <time>2018-10-06T09:17:29.000Z</time>
      </trkpt>
      <trkpt lat="38.12154833" lon="-4.89953833">
        <ele>504.0</ele>
        <time>2018-10-06T09:17:30.000Z</time>
      </trkpt>
      <trkpt lat="38.12154833" lon="-4.89953833">
        <ele>504.0</ele>
        <time>2018-10-06T09:17:31.000Z</time>
      </trkpt>
      <trkpt lat="38.12154833" lon="-4.89953833">
        <ele>504.0</ele>
        <time>2018-10-06T09:17:32.000Z</time>
      </trkpt>
      <trkpt lat="38.12154833" lon="-4.89953833">
        <ele>504.0</ele>
        <time>2018-10-06T09:17:33.000Z</time>
      </trkpt>
      <trkpt lat="38.12154833" lon="-4.89953833">
        <ele>504.0</ele>
        <time>2018-10-06T09:17:34.000Z</time>
      </trkpt>
      <trkpt lat="38.12154833" lon="-4.89953833">
        <ele>504.0</ele>
        <time>2018-10-06T09:17:35.000Z</time>
      </trkpt>
      <trkpt lat="38.12154833" lon="-4.89953833">
        <ele>504.0</ele>
        <time>2018-10-06T09:17:36.000Z</time>
      </trkpt>
      <trkpt lat="38.12154833" lon="-4.89953833">
        <ele>504.0</ele>
        <time>2018-10-06T09:17:37.000Z</time>
      </trkpt>
      <trkpt lat="38.12154833" lon="-4.89953833">
        <ele>504.0</ele>
        <time>2018-10-06T09:17:38.000Z</time>
      </trkpt>
      <trkpt lat="38.12135667" lon="-4.89946167">
        <ele>490.0</ele>
        <time>2018-10-06T09:17:39.000Z</time>
      </trkpt>
      <trkpt lat="38.12130667" lon="-4.89944833">
        <ele>492.0</ele>
        <time>2018-10-06T09:17:40.000Z</time>
      </trkpt>
      <trkpt lat="38.12127167" lon="-4.89948167">
        <ele>493.0</ele>
        <time>2018-10-06T09:17:41.000Z</time>
      </trkpt>
      <trkpt lat="38.12124667" lon="-4.8995">
        <ele>497.0</ele>
        <time>2018-10-06T09:17:42.000Z</time>
      </trkpt>
      <trkpt lat="38.12121833" lon="-4.89952333">
        <ele>503.0</ele>
        <time>2018-10-06T09:17:42.000Z</time>
      </trkpt>
      <trkpt lat="38.12146833" lon="-4.89952167">
        <ele>517.0</ele>
        <time>2018-10-06T09:17:44.000Z</time>
      </trkpt>
      <trkpt lat="38.12159" lon="-4.89957167">
        <ele>525.0</ele>
        <time>2018-10-06T09:17:45.000Z</time>
      </trkpt>
      <trkpt lat="38.121605" lon="-4.89965">
        <ele>517.0</ele>
        <time>2018-10-06T09:17:46.000Z</time>
      </trkpt>
      <trkpt lat="38.12160667" lon="-4.89965">
        <ele>517.0</ele>
        <time>2018-10-06T09:17:47.000Z</time>
      </trkpt>
      <trkpt lat="38.12160667" lon="-4.89964667">
        <ele>517.0</ele>
        <time>2018-10-06T09:17:48.000Z</time>
      </trkpt>
      <trkpt lat="38.12160833" lon="-4.89964">
        <ele>516.0</ele>
        <time>2018-10-06T09:17:49.000Z</time>
      </trkpt>
      <trkpt lat="38.12160833" lon="-4.899635">
        <ele>516.0</ele>
        <time>2018-10-06T09:17:50.000Z</time>
      </trkpt>
      <trkpt lat="38.12160833" lon="-4.89963167">
        <ele>516.0</ele>
        <time>2018-10-06T09:17:51.000Z</time>
      </trkpt>
      <trkpt lat="38.12160833" lon="-4.89962833">
        <ele>515.0</ele>
        <time>2018-10-06T09:17:52.000Z</time>
      </trkpt>
      <trkpt lat="38.12161" lon="-4.899625">
        <ele>515.0</ele>
        <time>2018-10-06T09:17:53.000Z</time>
      </trkpt>
      <trkpt lat="38.12161" lon="-4.899625">
        <ele>514.0</ele>
        <time>2018-10-06T09:17:54.000Z</time>
      </trkpt>
      <trkpt lat="38.12161" lon="-4.89962333">
        <ele>513.0</ele>
        <time>2018-10-06T09:17:55.000Z</time>
      </trkpt>
      <trkpt lat="38.12161" lon="-4.89962333">
        <ele>513.0</ele>
        <time>2018-10-06T09:17:56.000Z</time>
      </trkpt>
      <trkpt lat="38.12161" lon="-4.89962333">
        <ele>513.0</ele>
        <time>2018-10-06T09:17:57.000Z</time>
      </trkpt>
      <trkpt lat="38.12161" lon="-4.89962333">
        <ele>513.0</ele>
        <time>2018-10-06T09:17:58.000Z</time>
      </trkpt>
      <trkpt lat="38.12161" lon="-4.89962333">
        <ele>513.0</ele>
        <time>2018-10-06T09:17:59.000Z</time>
      </trkpt>
      <trkpt lat="38.12161" lon="-4.89962333">
        <ele>513.0</ele>
        <time>2018-10-06T09:18:00.000Z</time>
      </trkpt>
      <trkpt lat="38.12161" lon="-4.89962333">
        <ele>513.0</ele>
        <time>2018-10-06T09:18:01.000Z</time>
      </trkpt>
      <trkpt lat="38.12161" lon="-4.89962333">
        <ele>513.0</ele>
        <time>2018-10-06T09:18:02.000Z</time>
      </trkpt>
      <trkpt lat="38.12161" lon="-4.89962333">
        <ele>513.0</ele>
        <time>2018-10-06T09:18:03.000Z</time>
      </trkpt>
      <trkpt lat="38.12161" lon="-4.89962333">
        <ele>513.0</ele>
        <time>2018-10-06T09:18:04.000Z</time>
      </trkpt>
      <trkpt lat="38.12161" lon="-4.89962333">
        <ele>513.0</ele>
        <time>2018-10-06T09:18:05.000Z</time>
      </trkpt>
      <trkpt lat="38.12161" lon="-4.89962333">
        <ele>513.0</ele>
        <time>2018-10-06T09:18:06.000Z</time>
      </trkpt>
      <trkpt lat="38.12161" lon="-4.89962333">
        <ele>513.0</ele>
        <time>2018-10-06T09:18:07.000Z</time>
      </trkpt>
      <trkpt lat="38.12161" lon="-4.89962333">
        <ele>513.0</ele>
        <time>2018-10-06T09:18:08.000Z</time>
      </trkpt>
      <trkpt lat="38.12161" lon="-4.89962333">
        <ele>513.0</ele>
        <time>2018-10-06T09:18:09.000Z</time>
      </trkpt>
      <trkpt lat="38.12161" lon="-4.89962333">
        <ele>513.0</ele>
        <time>2018-10-06T09:18:10.000Z</time>
      </trkpt>
      <trkpt lat="38.12161" lon="-4.89962333">
        <ele>513.0</ele>
        <time>2018-10-06T09:18:11.000Z</time>
      </trkpt>
      <trkpt lat="38.12161" lon="-4.89962333">
        <ele>513.0</ele>
        <time>2018-10-06T09:18:12.000Z</time>
      </trkpt>
      <trkpt lat="38.12161" lon="-4.89962333">
        <ele>513.0</ele>
        <time>2018-10-06T09:18:13.000Z</time>
      </trkpt>
      <trkpt lat="38.12161" lon="-4.89962333">
        <ele>513.0</ele>
        <time>2018-10-06T09:18:14.000Z</time>
      </trkpt>
      <trkpt lat="38.12161" lon="-4.89962333">
        <ele>513.0</ele>
        <time>2018-10-06T09:18:15.000Z</time>
      </trkpt>
      <trkpt lat="38.12161" lon="-4.89962333">
        <ele>513.0</ele>
        <time>2018-10-06T09:18:16.000Z</time>
      </trkpt>
      <trkpt lat="38.12161" lon="-4.89962333">
        <ele>513.0</ele>
        <time>2018-10-06T09:18:17.000Z</time>
      </trkpt>
      <trkpt lat="38.12161" lon="-4.89962333">
        <ele>513.0</ele>
        <time>2018-10-06T09:18:18.000Z</time>
      </trkpt>
      <trkpt lat="38.12161" lon="-4.89962333">
        <ele>513.0</ele>
        <time>2018-10-06T09:18:19.000Z</time>
      </trkpt>
      <trkpt lat="38.12161" lon="-4.89962333">
        <ele>513.0</ele>
        <time>2018-10-06T09:18:20.000Z</time>
      </trkpt>
      <trkpt lat="38.12161" lon="-4.89962333">
        <ele>513.0</ele>
        <time>2018-10-06T09:18:21.000Z</time>
      </trkpt>
      <trkpt lat="38.12161" lon="-4.89962333">
        <ele>513.0</ele>
        <time>2018-10-06T09:18:22.000Z</time>
      </trkpt>
      <trkpt lat="38.12161" lon="-4.89962333">
        <ele>513.0</ele>
        <time>2018-10-06T09:18:23.000Z</time>
      </trkpt>
      <trkpt lat="38.12161" lon="-4.89962333">
        <ele>513.0</ele>
        <time>2018-10-06T09:18:24.000Z</time>
      </trkpt>
      <trkpt lat="38.12161" lon="-4.89962333">
        <ele>513.0</ele>
        <time>2018-10-06T09:18:25.000Z</time>
      </trkpt>
      <trkpt lat="38.12161" lon="-4.89962333">
        <ele>513.0</ele>
        <time>2018-10-06T09:18:26.000Z</time>
      </trkpt>
      <trkpt lat="38.12161" lon="-4.89962333">
        <ele>513.0</ele>
        <time>2018-10-06T09:18:27.000Z</time>
      </trkpt>
      <trkpt lat="38.12161" lon="-4.89962333">
        <ele>513.0</ele>
        <time>2018-10-06T09:18:28.000Z</time>
      </trkpt>
      <trkpt lat="38.12161" lon="-4.89962333">
        <ele>513.0</ele>
        <time>2018-10-06T09:18:29.000Z</time>
      </trkpt>
      <trkpt lat="38.12161" lon="-4.89962333">
        <ele>513.0</ele>
        <time>2018-10-06T09:18:30.000Z</time>
      </trkpt>
      <trkpt lat="38.12161" lon="-4.89962333">
        <ele>513.0</ele>
        <time>2018-10-06T09:18:31.000Z</time>
      </trkpt>
      <trkpt lat="38.12161" lon="-4.89962333">
        <ele>513.0</ele>
        <time>2018-10-06T09:18:32.000Z</time>
      </trkpt>
      <trkpt lat="38.12161" lon="-4.89962333">
        <ele>513.0</ele>
        <time>2018-10-06T09:18:33.000Z</time>
      </trkpt>
      <trkpt lat="38.12161" lon="-4.89962333">
        <ele>513.0</ele>
        <time>2018-10-06T09:18:34.000Z</time>
      </trkpt>
      <trkpt lat="38.12161" lon="-4.89962333">
        <ele>513.0</ele>
        <time>2018-10-06T09:18:35.000Z</time>
      </trkpt>
      <trkpt lat="38.12161" lon="-4.89962333">
        <ele>513.0</ele>
        <time>2018-10-06T09:18:36.000Z</time>
      </trkpt>
      <trkpt lat="38.12161" lon="-4.89962333">
        <ele>513.0</ele>
        <time>2018-10-06T09:18:37.000Z</time>
      </trkpt>
      <trkpt lat="38.12161" lon="-4.89962333">
        <ele>513.0</ele>
        <time>2018-10-06T09:18:38.000Z</time>
      </trkpt>
      <trkpt lat="38.12161" lon="-4.89962333">
        <ele>513.0</ele>
        <time>2018-10-06T09:18:39.000Z</time>
      </trkpt>
      <trkpt lat="38.12161" lon="-4.89962333">
        <ele>513.0</ele>
        <time>2018-10-06T09:18:40.000Z</time>
      </trkpt>
      <trkpt lat="38.12161" lon="-4.89962333">
        <ele>513.0</ele>
        <time>2018-10-06T09:18:41.000Z</time>
      </trkpt>
      <trkpt lat="38.12161" lon="-4.89962333">
        <ele>513.0</ele>
        <time>2018-10-06T09:18:42.000Z</time>
      </trkpt>
      <trkpt lat="38.12161" lon="-4.89962333">
        <ele>513.0</ele>
        <time>2018-10-06T09:18:43.000Z</time>
      </trkpt>
      <trkpt lat="38.12161" lon="-4.89962333">
        <ele>513.0</ele>
        <time>2018-10-06T09:18:44.000Z</time>
      </trkpt>
      <trkpt lat="38.12161" lon="-4.89962333">
        <ele>513.0</ele>
        <time>2018-10-06T09:18:45.000Z</time>
      </trkpt>
      <trkpt lat="38.121675" lon="-4.89964">
        <ele>506.0</ele>
        <time>2018-10-06T09:18:46.000Z</time>
      </trkpt>
      <trkpt lat="38.12167333" lon="-4.89964">
        <ele>506.0</ele>
        <time>2018-10-06T09:18:47.000Z</time>
      </trkpt>
      <trkpt lat="38.12167167" lon="-4.89963833">
        <ele>506.0</ele>
        <time>2018-10-06T09:18:48.000Z</time>
      </trkpt>
      <trkpt lat="38.12166833" lon="-4.89964">
        <ele>507.0</ele>
        <time>2018-10-06T09:18:49.000Z</time>
      </trkpt>
      <trkpt lat="38.12166333" lon="-4.89963833">
        <ele>508.0</ele>
        <time>2018-10-06T09:18:50.000Z</time>
      </trkpt>
      <trkpt lat="38.12166" lon="-4.89963833">
        <ele>510.0</ele>
        <time>2018-10-06T09:18:51.000Z</time>
      </trkpt>
      <trkpt lat="38.121655" lon="-4.89963833">
        <ele>511.0</ele>
        <time>2018-10-06T09:18:52.000Z</time>
      </trkpt>
      <trkpt lat="38.12164833" lon="-4.89963833">
        <ele>512.0</ele>
        <time>2018-10-06T09:18:53.000Z</time>
      </trkpt>
      <trkpt lat="38.121645" lon="-4.89963833">
        <ele>513.0</ele>
        <time>2018-10-06T09:18:54.000Z</time>
      </trkpt>
      <trkpt lat="38.12164167" lon="-4.89963667">
        <ele>514.0</ele>
        <time>2018-10-06T09:18:55.000Z</time>
      </trkpt>
      <trkpt lat="38.12164" lon="-4.899635">
        <ele>514.0</ele>
        <time>2018-10-06T09:18:56.000Z</time>
      </trkpt>
      <trkpt lat="38.12164" lon="-4.899635">
        <ele>514.0</ele>
        <time>2018-10-06T09:18:57.000Z</time>
      </trkpt>
      <trkpt lat="38.12164" lon="-4.899635">
        <ele>514.0</ele>
        <time>2018-10-06T09:18:58.000Z</time>
      </trkpt>
      <trkpt lat="38.12164" lon="-4.899635">
        <ele>514.0</ele>
        <time>2018-10-06T09:18:59.000Z</time>
      </trkpt>
      <trkpt lat="38.12164" lon="-4.899635">
        <ele>514.0</ele>
        <time>2018-10-06T09:19:00.000Z</time>
      </trkpt>
      <trkpt lat="38.12164" lon="-4.899635">
        <ele>514.0</ele>
        <time>2018-10-06T09:19:01.000Z</time>
      </trkpt>
      <trkpt lat="38.12164" lon="-4.899635">
        <ele>514.0</ele>
        <time>2018-10-06T09:19:02.000Z</time>
      </trkpt>
      <trkpt lat="38.12164" lon="-4.899635">
        <ele>514.0</ele>
        <time>2018-10-06T09:19:03.000Z</time>
      </trkpt>
      <trkpt lat="38.12164" lon="-4.899635">
        <ele>514.0</ele>
        <time>2018-10-06T09:19:04.000Z</time>
      </trkpt>
      <trkpt lat="38.12164" lon="-4.899635">
        <ele>514.0</ele>
        <time>2018-10-06T09:19:05.000Z</time>
      </trkpt>
      <trkpt lat="38.12164" lon="-4.899635">
        <ele>514.0</ele>
        <time>2018-10-06T09:19:06.000Z</time>
      </trkpt>
      <trkpt lat="38.12164" lon="-4.899635">
        <ele>514.0</ele>
        <time>2018-10-06T09:19:07.000Z</time>
      </trkpt>
      <trkpt lat="38.12164" lon="-4.899635">
        <ele>514.0</ele>
        <time>2018-10-06T09:19:08.000Z</time>
      </trkpt>
      <trkpt lat="38.12164" lon="-4.899635">
        <ele>514.0</ele>
        <time>2018-10-06T09:19:09.000Z</time>
      </trkpt>
      <trkpt lat="38.12164" lon="-4.899635">
        <ele>514.0</ele>
        <time>2018-10-06T09:19:10.000Z</time>
      </trkpt>
      <trkpt lat="38.12164" lon="-4.899635">
        <ele>514.0</ele>
        <time>2018-10-06T09:19:11.000Z</time>
      </trkpt>
      <trkpt lat="38.12164" lon="-4.899635">
        <ele>514.0</ele>
        <time>2018-10-06T09:19:12.000Z</time>
      </trkpt>
      <trkpt lat="38.12164" lon="-4.899635">
        <ele>514.0</ele>
        <time>2018-10-06T09:19:13.000Z</time>
      </trkpt>
      <trkpt lat="38.12164" lon="-4.899635">
        <ele>514.0</ele>
        <time>2018-10-06T09:19:14.000Z</time>
      </trkpt>
      <trkpt lat="38.12164" lon="-4.899635">
        <ele>514.0</ele>
        <time>2018-10-06T09:19:15.000Z</time>
      </trkpt>
      <trkpt lat="38.12164" lon="-4.899635">
        <ele>514.0</ele>
        <time>2018-10-06T09:19:16.000Z</time>
      </trkpt>
      <trkpt lat="38.12164" lon="-4.899635">
        <ele>514.0</ele>
        <time>2018-10-06T09:19:17.000Z</time>
      </trkpt>
      <trkpt lat="38.12164" lon="-4.899635">
        <ele>514.0</ele>
        <time>2018-10-06T09:19:18.000Z</time>
      </trkpt>
      <trkpt lat="38.12164" lon="-4.899635">
        <ele>514.0</ele>
        <time>2018-10-06T09:19:19.000Z</time>
      </trkpt>
      <trkpt lat="38.12164" lon="-4.899635">
        <ele>514.0</ele>
        <time>2018-10-06T09:19:20.000Z</time>
      </trkpt>
      <trkpt lat="38.12164" lon="-4.899635">
        <ele>514.0</ele>
        <time>2018-10-06T09:19:21.000Z</time>
      </trkpt>
      <trkpt lat="38.12164" lon="-4.899635">
        <ele>514.0</ele>
        <time>2018-10-06T09:19:22.000Z</time>
      </trkpt>
      <trkpt lat="38.12164" lon="-4.899635">
        <ele>514.0</ele>
        <time>2018-10-06T09:19:23.000Z</time>
      </trkpt>
      <trkpt lat="38.12164" lon="-4.899635">
        <ele>514.0</ele>
        <time>2018-10-06T09:19:24.000Z</time>
      </trkpt>
      <trkpt lat="38.12164" lon="-4.899635">
        <ele>514.0</ele>
        <time>2018-10-06T09:19:25.000Z</time>
      </trkpt>
      <trkpt lat="38.12164" lon="-4.899635">
        <ele>514.0</ele>
        <time>2018-10-06T09:19:26.000Z</time>
      </trkpt>
      <trkpt lat="38.12164" lon="-4.899635">
        <ele>514.0</ele>
        <time>2018-10-06T09:19:27.000Z</time>
      </trkpt>
      <trkpt lat="38.12164" lon="-4.899635">
        <ele>514.0</ele>
        <time>2018-10-06T09:19:28.000Z</time>
      </trkpt>
      <trkpt lat="38.12164" lon="-4.899635">
        <ele>514.0</ele>
        <time>2018-10-06T09:19:29.000Z</time>
      </trkpt>
      <trkpt lat="38.12164" lon="-4.899635">
        <ele>514.0</ele>
        <time>2018-10-06T09:19:30.000Z</time>
      </trkpt>
      <trkpt lat="38.12164" lon="-4.899635">
        <ele>514.0</ele>
        <time>2018-10-06T09:19:31.000Z</time>
      </trkpt>
      <trkpt lat="38.12164" lon="-4.899635">
        <ele>514.0</ele>
        <time>2018-10-06T09:19:32.000Z</time>
      </trkpt>
      <trkpt lat="38.12164" lon="-4.899635">
        <ele>514.0</ele>
        <time>2018-10-06T09:19:33.000Z</time>
      </trkpt>
      <trkpt lat="38.12164" lon="-4.899635">
        <ele>514.0</ele>
        <time>2018-10-06T09:19:34.000Z</time>
      </trkpt>
      <trkpt lat="38.12164" lon="-4.899635">
        <ele>514.0</ele>
        <time>2018-10-06T09:19:35.000Z</time>
      </trkpt>
      <trkpt lat="38.12164" lon="-4.899635">
        <ele>514.0</ele>
        <time>2018-10-06T09:19:36.000Z</time>
      </trkpt>
      <trkpt lat="38.12164" lon="-4.899635">
        <ele>514.0</ele>
        <time>2018-10-06T09:19:37.000Z</time>
      </trkpt>
      <trkpt lat="38.12164" lon="-4.899635">
        <ele>514.0</ele>
        <time>2018-10-06T09:19:38.000Z</time>
      </trkpt>
      <trkpt lat="38.12164" lon="-4.899635">
        <ele>514.0</ele>
        <time>2018-10-06T09:19:39.000Z</time>
      </trkpt>
      <trkpt lat="38.12164" lon="-4.899635">
        <ele>514.0</ele>
        <time>2018-10-06T09:19:40.000Z</time>
      </trkpt>
      <trkpt lat="38.12164" lon="-4.899635">
        <ele>514.0</ele>
        <time>2018-10-06T09:19:41.000Z</time>
      </trkpt>
      <trkpt lat="38.12164" lon="-4.899635">
        <ele>514.0</ele>
        <time>2018-10-06T09:19:42.000Z</time>
      </trkpt>
      <trkpt lat="38.12164" lon="-4.899635">
        <ele>514.0</ele>
        <time>2018-10-06T09:19:43.000Z</time>
      </trkpt>
      <trkpt lat="38.12164" lon="-4.899635">
        <ele>514.0</ele>
        <time>2018-10-06T09:19:44.000Z</time>
      </trkpt>
      <trkpt lat="38.12161833" lon="-4.89937667">
        <ele>516.0</ele>
        <time>2018-10-06T09:19:45.000Z</time>
      </trkpt>
      <trkpt lat="38.12162167" lon="-4.899365">
        <ele>515.0</ele>
        <time>2018-10-06T09:19:46.000Z</time>
      </trkpt>
      <trkpt lat="38.12163" lon="-4.89934667">
        <ele>515.0</ele>
        <time>2018-10-06T09:19:47.000Z</time>
      </trkpt>
      <trkpt lat="38.121645" lon="-4.89933167">
        <ele>515.0</ele>
        <time>2018-10-06T09:19:48.000Z</time>
      </trkpt>
      <trkpt lat="38.12165667" lon="-4.899315">
        <ele>514.0</ele>
        <time>2018-10-06T09:19:49.000Z</time>
      </trkpt>
      <trkpt lat="38.12166833" lon="-4.89929833">
        <ele>514.0</ele>
        <time>2018-10-06T09:19:50.000Z</time>
      </trkpt>
      <trkpt lat="38.12168" lon="-4.89928">
        <ele>513.0</ele>
        <time>2018-10-06T09:19:51.000Z</time>
      </trkpt>
      <trkpt lat="38.12168833" lon="-4.89926333">
        <ele>513.0</ele>
        <time>2018-10-06T09:19:52.000Z</time>
      </trkpt>
      <trkpt lat="38.12169667" lon="-4.89924667">
        <ele>512.0</ele>
        <time>2018-10-06T09:19:53.000Z</time>
      </trkpt>
      <trkpt lat="38.12170167" lon="-4.89923167">
        <ele>512.0</ele>
        <time>2018-10-06T09:19:54.000Z</time>
      </trkpt>
      <trkpt lat="38.12171167" lon="-4.899215">
        <ele>512.0</ele>
        <time>2018-10-06T09:19:55.000Z</time>
      </trkpt>
      <trkpt lat="38.12172" lon="-4.8992">
        <ele>511.0</ele>
        <time>2018-10-06T09:19:56.000Z</time>
      </trkpt>
      <trkpt lat="38.12172" lon="-4.8992">
        <ele>511.0</ele>
        <time>2018-10-06T09:19:57.000Z</time>
      </trkpt>
      <trkpt lat="38.12172" lon="-4.8992">
        <ele>511.0</ele>
        <time>2018-10-06T09:19:58.000Z</time>
      </trkpt>
      <trkpt lat="38.12172" lon="-4.8992">
        <ele>511.0</ele>
        <time>2018-10-06T09:19:59.000Z</time>
      </trkpt>
      <trkpt lat="38.12172" lon="-4.8992">
        <ele>511.0</ele>
        <time>2018-10-06T09:20:00.000Z</time>
      </trkpt>
      <trkpt lat="38.12172" lon="-4.8992">
        <ele>511.0</ele>
        <time>2018-10-06T09:20:01.000Z</time>
      </trkpt>
      <trkpt lat="38.12172" lon="-4.8992">
        <ele>511.0</ele>
        <time>2018-10-06T09:20:02.000Z</time>
      </trkpt>
      <trkpt lat="38.12172" lon="-4.8992">
        <ele>511.0</ele>
        <time>2018-10-06T09:20:03.000Z</time>
      </trkpt>
      <trkpt lat="38.12172" lon="-4.8992">
        <ele>511.0</ele>
        <time>2018-10-06T09:20:04.000Z</time>
      </trkpt>
      <trkpt lat="38.12172" lon="-4.8992">
        <ele>511.0</ele>
        <time>2018-10-06T09:20:05.000Z</time>
      </trkpt>
      <trkpt lat="38.12172" lon="-4.8992">
        <ele>511.0</ele>
        <time>2018-10-06T09:20:06.000Z</time>
      </trkpt>
      <trkpt lat="38.12172" lon="-4.8992">
        <ele>511.0</ele>
        <time>2018-10-06T09:20:07.000Z</time>
      </trkpt>
      <trkpt lat="38.12172" lon="-4.8992">
        <ele>511.0</ele>
        <time>2018-10-06T09:20:08.000Z</time>
      </trkpt>
      <trkpt lat="38.12172" lon="-4.8992">
        <ele>511.0</ele>
        <time>2018-10-06T09:20:09.000Z</time>
      </trkpt>
      <trkpt lat="38.12172" lon="-4.8992">
        <ele>511.0</ele>
        <time>2018-10-06T09:20:10.000Z</time>
      </trkpt>
      <trkpt lat="38.12172" lon="-4.8992">
        <ele>511.0</ele>
        <time>2018-10-06T09:20:11.000Z</time>
      </trkpt>
      <trkpt lat="38.12172" lon="-4.8992">
        <ele>511.0</ele>
        <time>2018-10-06T09:20:12.000Z</time>
      </trkpt>
      <trkpt lat="38.12172" lon="-4.8992">
        <ele>511.0</ele>
        <time>2018-10-06T09:20:13.000Z</time>
      </trkpt>
      <trkpt lat="38.12172" lon="-4.8992">
        <ele>511.0</ele>
        <time>2018-10-06T09:20:14.000Z</time>
      </trkpt>
      <trkpt lat="38.12172" lon="-4.8992">
        <ele>511.0</ele>
        <time>2018-10-06T09:20:15.000Z</time>
      </trkpt>
      <trkpt lat="38.12172" lon="-4.8992">
        <ele>511.0</ele>
        <time>2018-10-06T09:20:16.000Z</time>
      </trkpt>
      <trkpt lat="38.12172" lon="-4.8992">
        <ele>511.0</ele>
        <time>2018-10-06T09:20:17.000Z</time>
      </trkpt>
      <trkpt lat="38.12172" lon="-4.8992">
        <ele>511.0</ele>
        <time>2018-10-06T09:20:18.000Z</time>
      </trkpt>
      <trkpt lat="38.12172" lon="-4.8992">
        <ele>511.0</ele>
        <time>2018-10-06T09:20:19.000Z</time>
      </trkpt>
      <trkpt lat="38.12172" lon="-4.8992">
        <ele>511.0</ele>
        <time>2018-10-06T09:20:20.000Z</time>
      </trkpt>
      <trkpt lat="38.12172" lon="-4.8992">
        <ele>511.0</ele>
        <time>2018-10-06T09:20:21.000Z</time>
      </trkpt>
      <trkpt lat="38.12172" lon="-4.8992">
        <ele>511.0</ele>
        <time>2018-10-06T09:20:22.000Z</time>
      </trkpt>
      <trkpt lat="38.12172" lon="-4.8992">
        <ele>511.0</ele>
        <time>2018-10-06T09:20:23.000Z</time>
      </trkpt>
      <trkpt lat="38.12172" lon="-4.8992">
        <ele>511.0</ele>
        <time>2018-10-06T09:20:24.000Z</time>
      </trkpt>
      <trkpt lat="38.12172" lon="-4.8992">
        <ele>511.0</ele>
        <time>2018-10-06T09:20:25.000Z</time>
      </trkpt>
      <trkpt lat="38.12172" lon="-4.8992">
        <ele>511.0</ele>
        <time>2018-10-06T09:20:26.000Z</time>
      </trkpt>
      <trkpt lat="38.12172" lon="-4.8992">
        <ele>511.0</ele>
        <time>2018-10-06T09:20:27.000Z</time>
      </trkpt>
      <trkpt lat="38.12172" lon="-4.8992">
        <ele>511.0</ele>
        <time>2018-10-06T09:20:28.000Z</time>
      </trkpt>
      <trkpt lat="38.12172" lon="-4.8992">
        <ele>511.0</ele>
        <time>2018-10-06T09:20:29.000Z</time>
      </trkpt>
      <trkpt lat="38.12172" lon="-4.8992">
        <ele>511.0</ele>
        <time>2018-10-06T09:20:30.000Z</time>
      </trkpt>
      <trkpt lat="38.12172" lon="-4.8992">
        <ele>511.0</ele>
        <time>2018-10-06T09:20:31.000Z</time>
      </trkpt>
      <trkpt lat="38.12172" lon="-4.8992">
        <ele>511.0</ele>
        <time>2018-10-06T09:20:32.000Z</time>
      </trkpt>
      <trkpt lat="38.12172" lon="-4.8992">
        <ele>511.0</ele>
        <time>2018-10-06T09:20:33.000Z</time>
      </trkpt>
      <trkpt lat="38.12172" lon="-4.8992">
        <ele>511.0</ele>
        <time>2018-10-06T09:20:34.000Z</time>
      </trkpt>
      <trkpt lat="38.12172" lon="-4.8992">
        <ele>511.0</ele>
        <time>2018-10-06T09:20:35.000Z</time>
      </trkpt>
      <trkpt lat="38.12172" lon="-4.8992">
        <ele>511.0</ele>
        <time>2018-10-06T09:20:36.000Z</time>
      </trkpt>
      <trkpt lat="38.12172" lon="-4.8992">
        <ele>511.0</ele>
        <time>2018-10-06T09:20:37.000Z</time>
      </trkpt>
      <trkpt lat="38.12172" lon="-4.8992">
        <ele>511.0</ele>
        <time>2018-10-06T09:20:38.000Z</time>
      </trkpt>
      <trkpt lat="38.12172" lon="-4.8992">
        <ele>511.0</ele>
        <time>2018-10-06T09:20:39.000Z</time>
      </trkpt>
      <trkpt lat="38.12172" lon="-4.8992">
        <ele>511.0</ele>
        <time>2018-10-06T09:20:40.000Z</time>
      </trkpt>
      <trkpt lat="38.12172" lon="-4.8992">
        <ele>511.0</ele>
        <time>2018-10-06T09:20:41.000Z</time>
      </trkpt>
      <trkpt lat="38.12172" lon="-4.8992">
        <ele>511.0</ele>
        <time>2018-10-06T09:20:42.000Z</time>
      </trkpt>
      <trkpt lat="38.12172" lon="-4.8992">
        <ele>511.0</ele>
        <time>2018-10-06T09:20:43.000Z</time>
      </trkpt>
      <trkpt lat="38.12172" lon="-4.8992">
        <ele>511.0</ele>
        <time>2018-10-06T09:20:44.000Z</time>
      </trkpt>
      <trkpt lat="38.12172" lon="-4.8992">
        <ele>511.0</ele>
        <time>2018-10-06T09:20:45.000Z</time>
      </trkpt>
      <trkpt lat="38.12192" lon="-4.898715">
        <ele>498.0</ele>
        <time>2018-10-06T09:20:46.000Z</time>
      </trkpt>
      <trkpt lat="38.12192167" lon="-4.89869833">
        <ele>499.0</ele>
        <time>2018-10-06T09:20:47.000Z</time>
      </trkpt>
      <trkpt lat="38.12193" lon="-4.89868167">
        <ele>500.0</ele>
        <time>2018-10-06T09:20:48.000Z</time>
      </trkpt>
      <trkpt lat="38.12193833" lon="-4.898665">
        <ele>500.0</ele>
        <time>2018-10-06T09:20:49.000Z</time>
      </trkpt>
      <trkpt lat="38.12195" lon="-4.89864833">
        <ele>500.0</ele>
        <time>2018-10-06T09:20:50.000Z</time>
      </trkpt>
      <trkpt lat="38.12196" lon="-4.89863">
        <ele>501.0</ele>
        <time>2018-10-06T09:20:51.000Z</time>
      </trkpt>
      <trkpt lat="38.12197" lon="-4.89861333">
        <ele>501.0</ele>
        <time>2018-10-06T09:20:52.000Z</time>
      </trkpt>
      <trkpt lat="38.12198" lon="-4.89859833">
        <ele>502.0</ele>
        <time>2018-10-06T09:20:53.000Z</time>
      </trkpt>
      <trkpt lat="38.12199167" lon="-4.898585">
        <ele>502.0</ele>
        <time>2018-10-06T09:20:54.000Z</time>
      </trkpt>
      <trkpt lat="38.12200167" lon="-4.89857333">
        <ele>502.0</ele>
        <time>2018-10-06T09:20:55.000Z</time>
      </trkpt>
      <trkpt lat="38.12201167" lon="-4.89856333">
        <ele>502.0</ele>
        <time>2018-10-06T09:20:56.000Z</time>
      </trkpt>
      <trkpt lat="38.12202" lon="-4.89855167">
        <ele>503.0</ele>
        <time>2018-10-06T09:20:57.000Z</time>
      </trkpt>
      <trkpt lat="38.12202" lon="-4.89855167">
        <ele>503.0</ele>
        <time>2018-10-06T09:20:58.000Z</time>
      </trkpt>
      <trkpt lat="38.12202" lon="-4.89855167">
        <ele>503.0</ele>
        <time>2018-10-06T09:20:59.000Z</time>
      </trkpt>
      <trkpt lat="38.12202" lon="-4.89855167">
        <ele>503.0</ele>
        <time>2018-10-06T09:21:00.000Z</time>
      </trkpt>
      <trkpt lat="38.12202" lon="-4.89855167">
        <ele>503.0</ele>
        <time>2018-10-06T09:21:01.000Z</time>
      </trkpt>
      <trkpt lat="38.12202" lon="-4.89855167">
        <ele>503.0</ele>
        <time>2018-10-06T09:21:02.000Z</time>
      </trkpt>
      <trkpt lat="38.12202" lon="-4.89855167">
        <ele>503.0</ele>
        <time>2018-10-06T09:21:03.000Z</time>
      </trkpt>
      <trkpt lat="38.121975" lon="-4.89848">
        <ele>509.0</ele>
        <time>2018-10-06T09:21:04.000Z</time>
      </trkpt>
      <trkpt lat="38.12197333" lon="-4.898475">
        <ele>509.0</ele>
        <time>2018-10-06T09:21:05.000Z</time>
      </trkpt>
      <trkpt lat="38.121975" lon="-4.89847">
        <ele>508.0</ele>
        <time>2018-10-06T09:21:06.000Z</time>
      </trkpt>
      <trkpt lat="38.12198" lon="-4.89846167">
        <ele>508.0</ele>
        <time>2018-10-06T09:21:07.000Z</time>
      </trkpt>
      <trkpt lat="38.121985" lon="-4.898455">
        <ele>508.0</ele>
        <time>2018-10-06T09:21:08.000Z</time>
      </trkpt>
      <trkpt lat="38.12199" lon="-4.89845167">
        <ele>508.0</ele>
        <time>2018-10-06T09:21:09.000Z</time>
      </trkpt>
      <trkpt lat="38.12199667" lon="-4.89844833">
        <ele>508.0</ele>
        <time>2018-10-06T09:21:10.000Z</time>
      </trkpt>
      <trkpt lat="38.122" lon="-4.89844">
        <ele>508.0</ele>
        <time>2018-10-06T09:21:11.000Z</time>
      </trkpt>
      <trkpt lat="38.122005" lon="-4.89844">
        <ele>508.0</ele>
        <time>2018-10-06T09:21:12.000Z</time>
      </trkpt>
      <trkpt lat="38.12200833" lon="-4.89844">
        <ele>508.0</ele>
        <time>2018-10-06T09:21:13.000Z</time>
      </trkpt>
      <trkpt lat="38.12201167" lon="-4.89844">
        <ele>508.0</ele>
        <time>2018-10-06T09:21:14.000Z</time>
      </trkpt>
      <trkpt lat="38.12201333" lon="-4.89844">
        <ele>508.0</ele>
        <time>2018-10-06T09:21:15.000Z</time>
      </trkpt>
      <trkpt lat="38.12201333" lon="-4.89844">
        <ele>508.0</ele>
        <time>2018-10-06T09:21:16.000Z</time>
      </trkpt>
      <trkpt lat="38.12201333" lon="-4.89844">
        <ele>508.0</ele>
        <time>2018-10-06T09:21:17.000Z</time>
      </trkpt>
      <trkpt lat="38.12201333" lon="-4.89844">
        <ele>508.0</ele>
        <time>2018-10-06T09:21:18.000Z</time>
      </trkpt>
      <trkpt lat="38.12201333" lon="-4.89844">
        <ele>508.0</ele>
        <time>2018-10-06T09:21:19.000Z</time>
      </trkpt>
      <trkpt lat="38.12201333" lon="-4.89844">
        <ele>508.0</ele>
        <time>2018-10-06T09:21:20.000Z</time>
      </trkpt>
      <trkpt lat="38.12201333" lon="-4.89844">
        <ele>508.0</ele>
        <time>2018-10-06T09:21:21.000Z</time>
      </trkpt>
      <trkpt lat="38.12201333" lon="-4.89844">
        <ele>508.0</ele>
        <time>2018-10-06T09:21:22.000Z</time>
      </trkpt>
      <trkpt lat="38.12201333" lon="-4.89844">
        <ele>508.0</ele>
        <time>2018-10-06T09:21:23.000Z</time>
      </trkpt>
      <trkpt lat="38.12201333" lon="-4.89844">
        <ele>508.0</ele>
        <time>2018-10-06T09:21:24.000Z</time>
      </trkpt>
      <trkpt lat="38.12201333" lon="-4.89844">
        <ele>508.0</ele>
        <time>2018-10-06T09:21:25.000Z</time>
      </trkpt>
      <trkpt lat="38.12201333" lon="-4.89844">
        <ele>508.0</ele>
        <time>2018-10-06T09:21:26.000Z</time>
      </trkpt>
      <trkpt lat="38.12201333" lon="-4.89844">
        <ele>508.0</ele>
        <time>2018-10-06T09:21:27.000Z</time>
      </trkpt>
      <trkpt lat="38.12201333" lon="-4.89844">
        <ele>508.0</ele>
        <time>2018-10-06T09:21:28.000Z</time>
      </trkpt>
      <trkpt lat="38.12201333" lon="-4.89844">
        <ele>508.0</ele>
        <time>2018-10-06T09:21:29.000Z</time>
      </trkpt>
      <trkpt lat="38.12201333" lon="-4.89844">
        <ele>508.0</ele>
        <time>2018-10-06T09:21:30.000Z</time>
      </trkpt>
      <trkpt lat="38.12201333" lon="-4.89844">
        <ele>508.0</ele>
        <time>2018-10-06T09:21:31.000Z</time>
      </trkpt>
      <trkpt lat="38.12201333" lon="-4.89844">
        <ele>508.0</ele>
        <time>2018-10-06T09:21:32.000Z</time>
      </trkpt>
      <trkpt lat="38.12201333" lon="-4.89844">
        <ele>508.0</ele>
        <time>2018-10-06T09:21:33.000Z</time>
      </trkpt>
      <trkpt lat="38.12201333" lon="-4.89844">
        <ele>508.0</ele>
        <time>2018-10-06T09:21:34.000Z</time>
      </trkpt>
      <trkpt lat="38.12201333" lon="-4.89844">
        <ele>508.0</ele>
        <time>2018-10-06T09:21:35.000Z</time>
      </trkpt>
      <trkpt lat="38.12201333" lon="-4.89844">
        <ele>508.0</ele>
        <time>2018-10-06T09:21:36.000Z</time>
      </trkpt>
      <trkpt lat="38.12201333" lon="-4.89844">
        <ele>508.0</ele>
        <time>2018-10-06T09:21:37.000Z</time>
      </trkpt>
      <trkpt lat="38.12201333" lon="-4.89844">
        <ele>508.0</ele>
        <time>2018-10-06T09:21:38.000Z</time>
      </trkpt>
      <trkpt lat="38.12201333" lon="-4.89844">
        <ele>508.0</ele>
        <time>2018-10-06T09:21:39.000Z</time>
      </trkpt>
      <trkpt lat="38.12201333" lon="-4.89844">
        <ele>508.0</ele>
        <time>2018-10-06T09:21:40.000Z</time>
      </trkpt>
      <trkpt lat="38.12201333" lon="-4.89844">
        <ele>508.0</ele>
        <time>2018-10-06T09:21:41.000Z</time>
      </trkpt>
      <trkpt lat="38.12201333" lon="-4.89844">
        <ele>508.0</ele>
        <time>2018-10-06T09:21:42.000Z</time>
      </trkpt>
      <trkpt lat="38.12201333" lon="-4.89844">
        <ele>508.0</ele>
        <time>2018-10-06T09:21:43.000Z</time>
      </trkpt>
      <trkpt lat="38.12201333" lon="-4.89844">
        <ele>508.0</ele>
        <time>2018-10-06T09:21:44.000Z</time>
      </trkpt>
      <trkpt lat="38.12201333" lon="-4.89844">
        <ele>508.0</ele>
        <time>2018-10-06T09:21:45.000Z</time>
      </trkpt>
      <trkpt lat="38.12201333" lon="-4.89844">
        <ele>508.0</ele>
        <time>2018-10-06T09:21:46.000Z</time>
      </trkpt>
      <trkpt lat="38.12201333" lon="-4.89844">
        <ele>508.0</ele>
        <time>2018-10-06T09:21:47.000Z</time>
      </trkpt>
      <trkpt lat="38.12201333" lon="-4.89844">
        <ele>508.0</ele>
        <time>2018-10-06T09:21:48.000Z</time>
      </trkpt>
      <trkpt lat="38.12201333" lon="-4.89844">
        <ele>508.0</ele>
        <time>2018-10-06T09:21:49.000Z</time>
      </trkpt>
      <trkpt lat="38.12201333" lon="-4.89844">
        <ele>508.0</ele>
        <time>2018-10-06T09:21:50.000Z</time>
      </trkpt>
      <trkpt lat="38.12201333" lon="-4.89844">
        <ele>508.0</ele>
        <time>2018-10-06T09:21:51.000Z</time>
      </trkpt>
      <trkpt lat="38.12201333" lon="-4.89844">
        <ele>508.0</ele>
        <time>2018-10-06T09:21:52.000Z</time>
      </trkpt>
      <trkpt lat="38.12201333" lon="-4.89844">
        <ele>508.0</ele>
        <time>2018-10-06T09:21:53.000Z</time>
      </trkpt>
      <trkpt lat="38.12201333" lon="-4.89844">
        <ele>508.0</ele>
        <time>2018-10-06T09:21:54.000Z</time>
      </trkpt>
      <trkpt lat="38.12201333" lon="-4.89844">
        <ele>508.0</ele>
        <time>2018-10-06T09:21:55.000Z</time>
      </trkpt>
      <trkpt lat="38.12201333" lon="-4.89844">
        <ele>508.0</ele>
        <time>2018-10-06T09:21:56.000Z</time>
      </trkpt>
      <trkpt lat="38.12201333" lon="-4.89844">
        <ele>508.0</ele>
        <time>2018-10-06T09:21:57.000Z</time>
      </trkpt>
      <trkpt lat="38.12201333" lon="-4.89844">
        <ele>508.0</ele>
        <time>2018-10-06T09:21:58.000Z</time>
      </trkpt>
      <trkpt lat="38.12201333" lon="-4.89844">
        <ele>508.0</ele>
        <time>2018-10-06T09:21:59.000Z</time>
      </trkpt>
      <trkpt lat="38.12201333" lon="-4.89844">
        <ele>508.0</ele>
        <time>2018-10-06T09:22:00.000Z</time>
      </trkpt>
      <trkpt lat="38.12201333" lon="-4.89844">
        <ele>508.0</ele>
        <time>2018-10-06T09:22:01.000Z</time>
      </trkpt>
      <trkpt lat="38.12201333" lon="-4.89844">
        <ele>508.0</ele>
        <time>2018-10-06T09:22:02.000Z</time>
      </trkpt>
      <trkpt lat="38.12201333" lon="-4.89844">
        <ele>508.0</ele>
        <time>2018-10-06T09:22:03.000Z</time>
      </trkpt>
      <trkpt lat="38.12204333" lon="-4.89839">
        <ele>507.0</ele>
        <time>2018-10-06T09:22:04.000Z</time>
      </trkpt>
      <trkpt lat="38.122045" lon="-4.89838167">
        <ele>507.0</ele>
        <time>2018-10-06T09:22:05.000Z</time>
      </trkpt>
      <trkpt lat="38.12204833" lon="-4.898375">
        <ele>507.0</ele>
        <time>2018-10-06T09:22:06.000Z</time>
      </trkpt>
      <trkpt lat="38.12205" lon="-4.89837167">
        <ele>506.0</ele>
        <time>2018-10-06T09:22:07.000Z</time>
      </trkpt>
      <trkpt lat="38.12204833" lon="-4.89836833">
        <ele>506.0</ele>
        <time>2018-10-06T09:22:08.000Z</time>
      </trkpt>
      <trkpt lat="38.122045" lon="-4.898365">
        <ele>506.0</ele>
        <time>2018-10-06T09:22:09.000Z</time>
      </trkpt>
      <trkpt lat="38.12204667" lon="-4.89835833">
        <ele>505.0</ele>
        <time>2018-10-06T09:22:10.000Z</time>
      </trkpt>
      <trkpt lat="38.12204667" lon="-4.89835333">
        <ele>505.0</ele>
        <time>2018-10-06T09:22:11.000Z</time>
      </trkpt>
      <trkpt lat="38.12205" lon="-4.898345">
        <ele>505.0</ele>
        <time>2018-10-06T09:22:12.000Z</time>
      </trkpt>
      <trkpt lat="38.12205333" lon="-4.898335">
        <ele>505.0</ele>
        <time>2018-10-06T09:22:13.000Z</time>
      </trkpt>
      <trkpt lat="38.12205833" lon="-4.89832333">
        <ele>506.0</ele>
        <time>2018-10-06T09:22:14.000Z</time>
      </trkpt>
      <trkpt lat="38.12206167" lon="-4.89831333">
        <ele>506.0</ele>
        <time>2018-10-06T09:22:15.000Z</time>
      </trkpt>
      <trkpt lat="38.12206167" lon="-4.89831333">
        <ele>506.0</ele>
        <time>2018-10-06T09:22:16.000Z</time>
      </trkpt>
      <trkpt lat="38.12206167" lon="-4.89831333">
        <ele>506.0</ele>
        <time>2018-10-06T09:22:17.000Z</time>
      </trkpt>
      <trkpt lat="38.12206167" lon="-4.89831333">
        <ele>506.0</ele>
        <time>2018-10-06T09:22:18.000Z</time>
      </trkpt>
      <trkpt lat="38.12206167" lon="-4.89831333">
        <ele>506.0</ele>
        <time>2018-10-06T09:22:19.000Z</time>
      </trkpt>
      <trkpt lat="38.12206167" lon="-4.89831333">
        <ele>506.0</ele>
        <time>2018-10-06T09:22:20.000Z</time>
      </trkpt>
      <trkpt lat="38.12206167" lon="-4.89831333">
        <ele>506.0</ele>
        <time>2018-10-06T09:22:21.000Z</time>
      </trkpt>
      <trkpt lat="38.12206167" lon="-4.89831333">
        <ele>506.0</ele>
        <time>2018-10-06T09:22:22.000Z</time>
      </trkpt>
      <trkpt lat="38.12206167" lon="-4.89831333">
        <ele>506.0</ele>
        <time>2018-10-06T09:22:23.000Z</time>
      </trkpt>
      <trkpt lat="38.12206167" lon="-4.89831333">
        <ele>506.0</ele>
        <time>2018-10-06T09:22:24.000Z</time>
      </trkpt>
      <trkpt lat="38.12206167" lon="-4.89831333">
        <ele>506.0</ele>
        <time>2018-10-06T09:22:25.000Z</time>
      </trkpt>
      <trkpt lat="38.12206167" lon="-4.89831333">
        <ele>506.0</ele>
        <time>2018-10-06T09:22:26.000Z</time>
      </trkpt>
      <trkpt lat="38.12206167" lon="-4.89831333">
        <ele>506.0</ele>
        <time>2018-10-06T09:22:27.000Z</time>
      </trkpt>
      <trkpt lat="38.12206167" lon="-4.89831333">
        <ele>506.0</ele>
        <time>2018-10-06T09:22:28.000Z</time>
      </trkpt>
      <trkpt lat="38.12206167" lon="-4.89831333">
        <ele>506.0</ele>
        <time>2018-10-06T09:22:29.000Z</time>
      </trkpt>
      <trkpt lat="38.12206167" lon="-4.89831333">
        <ele>506.0</ele>
        <time>2018-10-06T09:22:30.000Z</time>
      </trkpt>
      <trkpt lat="38.12206167" lon="-4.89831333">
        <ele>506.0</ele>
        <time>2018-10-06T09:22:31.000Z</time>
      </trkpt>
      <trkpt lat="38.12206167" lon="-4.89831333">
        <ele>506.0</ele>
        <time>2018-10-06T09:22:32.000Z</time>
      </trkpt>
      <trkpt lat="38.12206167" lon="-4.89831333">
        <ele>506.0</ele>
        <time>2018-10-06T09:22:33.000Z</time>
      </trkpt>
      <trkpt lat="38.12206167" lon="-4.89831333">
        <ele>506.0</ele>
        <time>2018-10-06T09:22:34.000Z</time>
      </trkpt>
      <trkpt lat="38.12206167" lon="-4.89831333">
        <ele>506.0</ele>
        <time>2018-10-06T09:22:35.000Z</time>
      </trkpt>
      <trkpt lat="38.12206167" lon="-4.89831333">
        <ele>506.0</ele>
        <time>2018-10-06T09:22:36.000Z</time>
      </trkpt>
      <trkpt lat="38.12206167" lon="-4.89831333">
        <ele>506.0</ele>
        <time>2018-10-06T09:22:37.000Z</time>
      </trkpt>
      <trkpt lat="38.12206167" lon="-4.89831333">
        <ele>506.0</ele>
        <time>2018-10-06T09:22:38.000Z</time>
      </trkpt>
      <trkpt lat="38.12206167" lon="-4.89831333">
        <ele>506.0</ele>
        <time>2018-10-06T09:22:39.000Z</time>
      </trkpt>
      <trkpt lat="38.12206167" lon="-4.89831333">
        <ele>506.0</ele>
        <time>2018-10-06T09:22:40.000Z</time>
      </trkpt>
      <trkpt lat="38.12206167" lon="-4.89831333">
        <ele>506.0</ele>
        <time>2018-10-06T09:22:41.000Z</time>
      </trkpt>
      <trkpt lat="38.12206167" lon="-4.89831333">
        <ele>506.0</ele>
        <time>2018-10-06T09:22:42.000Z</time>
      </trkpt>
      <trkpt lat="38.12206167" lon="-4.89831333">
        <ele>506.0</ele>
        <time>2018-10-06T09:22:43.000Z</time>
      </trkpt>
      <trkpt lat="38.12206167" lon="-4.89831333">
        <ele>506.0</ele>
        <time>2018-10-06T09:22:44.000Z</time>
      </trkpt>
      <trkpt lat="38.12206167" lon="-4.89831333">
        <ele>506.0</ele>
        <time>2018-10-06T09:22:45.000Z</time>
      </trkpt>
      <trkpt lat="38.12206167" lon="-4.89831333">
        <ele>506.0</ele>
        <time>2018-10-06T09:22:46.000Z</time>
      </trkpt>
      <trkpt lat="38.12206167" lon="-4.89831333">
        <ele>506.0</ele>
        <time>2018-10-06T09:22:47.000Z</time>
      </trkpt>
      <trkpt lat="38.12206167" lon="-4.89831333">
        <ele>506.0</ele>
        <time>2018-10-06T09:22:48.000Z</time>
      </trkpt>
      <trkpt lat="38.12206167" lon="-4.89831333">
        <ele>506.0</ele>
        <time>2018-10-06T09:22:49.000Z</time>
      </trkpt>
      <trkpt lat="38.12206167" lon="-4.89831333">
        <ele>506.0</ele>
        <time>2018-10-06T09:22:50.000Z</time>
      </trkpt>
      <trkpt lat="38.12206167" lon="-4.89831333">
        <ele>506.0</ele>
        <time>2018-10-06T09:22:51.000Z</time>
      </trkpt>
      <trkpt lat="38.12206167" lon="-4.89831333">
        <ele>506.0</ele>
        <time>2018-10-06T09:22:52.000Z</time>
      </trkpt>
      <trkpt lat="38.12206167" lon="-4.89831333">
        <ele>506.0</ele>
        <time>2018-10-06T09:22:53.000Z</time>
      </trkpt>
      <trkpt lat="38.12206167" lon="-4.89831333">
        <ele>506.0</ele>
        <time>2018-10-06T09:22:54.000Z</time>
      </trkpt>
      <trkpt lat="38.12206167" lon="-4.89831333">
        <ele>506.0</ele>
        <time>2018-10-06T09:22:55.000Z</time>
      </trkpt>
      <trkpt lat="38.12206167" lon="-4.89831333">
        <ele>506.0</ele>
        <time>2018-10-06T09:22:56.000Z</time>
      </trkpt>
      <trkpt lat="38.12206167" lon="-4.89831333">
        <ele>506.0</ele>
        <time>2018-10-06T09:22:57.000Z</time>
      </trkpt>
      <trkpt lat="38.12206167" lon="-4.89831333">
        <ele>506.0</ele>
        <time>2018-10-06T09:22:58.000Z</time>
      </trkpt>
      <trkpt lat="38.12206167" lon="-4.89831333">
        <ele>506.0</ele>
        <time>2018-10-06T09:22:59.000Z</time>
      </trkpt>
      <trkpt lat="38.12206167" lon="-4.89831333">
        <ele>506.0</ele>
        <time>2018-10-06T09:23:00.000Z</time>
      </trkpt>
      <trkpt lat="38.12206167" lon="-4.89831333">
        <ele>506.0</ele>
        <time>2018-10-06T09:23:01.000Z</time>
      </trkpt>
      <trkpt lat="38.12206167" lon="-4.89831333">
        <ele>506.0</ele>
        <time>2018-10-06T09:23:02.000Z</time>
      </trkpt>
      <trkpt lat="38.12206167" lon="-4.89831333">
        <ele>506.0</ele>
        <time>2018-10-06T09:23:03.000Z</time>
      </trkpt>
      <trkpt lat="38.12201667" lon="-4.89795667">
        <ele>497.0</ele>
        <time>2018-10-06T09:23:04.000Z</time>
      </trkpt>
      <trkpt lat="38.12202167" lon="-4.897935">
        <ele>498.0</ele>
        <time>2018-10-06T09:23:05.000Z</time>
      </trkpt>
      <trkpt lat="38.12202667" lon="-4.89791333">
        <ele>499.0</ele>
        <time>2018-10-06T09:23:06.000Z</time>
      </trkpt>
      <trkpt lat="38.122035" lon="-4.89789167">
        <ele>500.0</ele>
        <time>2018-10-06T09:23:07.000Z</time>
      </trkpt>
      <trkpt lat="38.12204333" lon="-4.89787">
        <ele>501.0</ele>
        <time>2018-10-06T09:23:08.000Z</time>
      </trkpt>
      <trkpt lat="38.12205167" lon="-4.89784833">
        <ele>503.0</ele>
        <time>2018-10-06T09:23:09.000Z</time>
      </trkpt>
      <trkpt lat="38.12205667" lon="-4.89783">
        <ele>504.0</ele>
        <time>2018-10-06T09:23:10.000Z</time>
      </trkpt>
      <trkpt lat="38.12206167" lon="-4.89781">
        <ele>505.0</ele>
        <time>2018-10-06T09:23:11.000Z</time>
      </trkpt>
      <trkpt lat="38.12206667" lon="-4.89778833">
        <ele>506.0</ele>
        <time>2018-10-06T09:23:12.000Z</time>
      </trkpt>
      <trkpt lat="38.12207833" lon="-4.89777">
        <ele>507.0</ele>
        <time>2018-10-06T09:23:13.000Z</time>
      </trkpt>
      <trkpt lat="38.12208167" lon="-4.89775167">
        <ele>507.0</ele>
        <time>2018-10-06T09:23:14.000Z</time>
      </trkpt>
      <trkpt lat="38.122085" lon="-4.89773333">
        <ele>508.0</ele>
        <time>2018-10-06T09:23:15.000Z</time>
      </trkpt>
      <trkpt lat="38.122085" lon="-4.89773333">
        <ele>508.0</ele>
        <time>2018-10-06T09:23:16.000Z</time>
      </trkpt>
      <trkpt lat="38.122085" lon="-4.89773333">
        <ele>508.0</ele>
        <time>2018-10-06T09:23:17.000Z</time>
      </trkpt>
      <trkpt lat="38.122085" lon="-4.89773333">
        <ele>508.0</ele>
        <time>2018-10-06T09:23:18.000Z</time>
      </trkpt>
      <trkpt lat="38.122085" lon="-4.89773333">
        <ele>508.0</ele>
        <time>2018-10-06T09:23:19.000Z</time>
      </trkpt>
      <trkpt lat="38.122085" lon="-4.89773333">
        <ele>508.0</ele>
        <time>2018-10-06T09:23:20.000Z</time>
      </trkpt>
      <trkpt lat="38.122085" lon="-4.89773333">
        <ele>508.0</ele>
        <time>2018-10-06T09:23:21.000Z</time>
      </trkpt>
      <trkpt lat="38.122085" lon="-4.89773333">
        <ele>508.0</ele>
        <time>2018-10-06T09:23:22.000Z</time>
      </trkpt>
      <trkpt lat="38.122085" lon="-4.89773333">
        <ele>508.0</ele>
        <time>2018-10-06T09:23:23.000Z</time>
      </trkpt>
      <trkpt lat="38.122085" lon="-4.89773333">
        <ele>508.0</ele>
        <time>2018-10-06T09:23:24.000Z</time>
      </trkpt>
      <trkpt lat="38.122085" lon="-4.89773333">
        <ele>508.0</ele>
        <time>2018-10-06T09:23:25.000Z</time>
      </trkpt>
      <trkpt lat="38.122085" lon="-4.89773333">
        <ele>508.0</ele>
        <time>2018-10-06T09:23:26.000Z</time>
      </trkpt>
      <trkpt lat="38.122085" lon="-4.89773333">
        <ele>508.0</ele>
        <time>2018-10-06T09:23:27.000Z</time>
      </trkpt>
      <trkpt lat="38.122085" lon="-4.89773333">
        <ele>508.0</ele>
        <time>2018-10-06T09:23:28.000Z</time>
      </trkpt>
      <trkpt lat="38.122085" lon="-4.89773333">
        <ele>508.0</ele>
        <time>2018-10-06T09:23:29.000Z</time>
      </trkpt>
      <trkpt lat="38.122085" lon="-4.89773333">
        <ele>508.0</ele>
        <time>2018-10-06T09:23:30.000Z</time>
      </trkpt>
      <trkpt lat="38.122085" lon="-4.89773333">
        <ele>508.0</ele>
        <time>2018-10-06T09:23:31.000Z</time>
      </trkpt>
      <trkpt lat="38.122085" lon="-4.89773333">
        <ele>508.0</ele>
        <time>2018-10-06T09:23:32.000Z</time>
      </trkpt>
      <trkpt lat="38.122085" lon="-4.89773333">
        <ele>508.0</ele>
        <time>2018-10-06T09:23:33.000Z</time>
      </trkpt>
      <trkpt lat="38.122085" lon="-4.89773333">
        <ele>508.0</ele>
        <time>2018-10-06T09:23:34.000Z</time>
      </trkpt>
      <trkpt lat="38.122085" lon="-4.89773333">
        <ele>508.0</ele>
        <time>2018-10-06T09:23:35.000Z</time>
      </trkpt>
      <trkpt lat="38.122085" lon="-4.89773333">
        <ele>508.0</ele>
        <time>2018-10-06T09:23:36.000Z</time>
      </trkpt>
      <trkpt lat="38.122085" lon="-4.89773333">
        <ele>508.0</ele>
        <time>2018-10-06T09:23:37.000Z</time>
      </trkpt>
      <trkpt lat="38.122085" lon="-4.89773333">
        <ele>508.0</ele>
        <time>2018-10-06T09:23:38.000Z</time>
      </trkpt>
      <trkpt lat="38.122085" lon="-4.89773333">
        <ele>508.0</ele>
        <time>2018-10-06T09:23:39.000Z</time>
      </trkpt>
      <trkpt lat="38.122085" lon="-4.89773333">
        <ele>508.0</ele>
        <time>2018-10-06T09:23:40.000Z</time>
      </trkpt>
      <trkpt lat="38.122085" lon="-4.89773333">
        <ele>508.0</ele>
        <time>2018-10-06T09:23:41.000Z</time>
      </trkpt>
      <trkpt lat="38.122085" lon="-4.89773333">
        <ele>508.0</ele>
        <time>2018-10-06T09:23:42.000Z</time>
      </trkpt>
      <trkpt lat="38.122085" lon="-4.89773333">
        <ele>508.0</ele>
        <time>2018-10-06T09:23:43.000Z</time>
      </trkpt>
      <trkpt lat="38.122085" lon="-4.89773333">
        <ele>508.0</ele>
        <time>2018-10-06T09:23:44.000Z</time>
      </trkpt>
      <trkpt lat="38.122085" lon="-4.89773333">
        <ele>508.0</ele>
        <time>2018-10-06T09:23:45.000Z</time>
      </trkpt>
      <trkpt lat="38.122085" lon="-4.89773333">
        <ele>508.0</ele>
        <time>2018-10-06T09:23:46.000Z</time>
      </trkpt>
      <trkpt lat="38.122085" lon="-4.89773333">
        <ele>508.0</ele>
        <time>2018-10-06T09:23:47.000Z</time>
      </trkpt>
      <trkpt lat="38.122085" lon="-4.89773333">
        <ele>508.0</ele>
        <time>2018-10-06T09:23:48.000Z</time>
      </trkpt>
      <trkpt lat="38.122085" lon="-4.89773333">
        <ele>508.0</ele>
        <time>2018-10-06T09:23:49.000Z</time>
      </trkpt>
      <trkpt lat="38.122085" lon="-4.89773333">
        <ele>508.0</ele>
        <time>2018-10-06T09:23:50.000Z</time>
      </trkpt>
      <trkpt lat="38.122085" lon="-4.89773333">
        <ele>508.0</ele>
        <time>2018-10-06T09:23:51.000Z</time>
      </trkpt>
      <trkpt lat="38.122085" lon="-4.89773333">
        <ele>508.0</ele>
        <time>2018-10-06T09:23:52.000Z</time>
      </trkpt>
      <trkpt lat="38.122085" lon="-4.89773333">
        <ele>508.0</ele>
        <time>2018-10-06T09:23:53.000Z</time>
      </trkpt>
      <trkpt lat="38.122085" lon="-4.89773333">
        <ele>508.0</ele>
        <time>2018-10-06T09:23:54.000Z</time>
      </trkpt>
      <trkpt lat="38.122085" lon="-4.89773333">
        <ele>508.0</ele>
        <time>2018-10-06T09:23:55.000Z</time>
      </trkpt>
      <trkpt lat="38.122085" lon="-4.89773333">
        <ele>508.0</ele>
        <time>2018-10-06T09:23:56.000Z</time>
      </trkpt>
      <trkpt lat="38.122085" lon="-4.89773333">
        <ele>508.0</ele>
        <time>2018-10-06T09:23:57.000Z</time>
      </trkpt>
      <trkpt lat="38.122085" lon="-4.89773333">
        <ele>508.0</ele>
        <time>2018-10-06T09:23:58.000Z</time>
      </trkpt>
      <trkpt lat="38.122085" lon="-4.89773333">
        <ele>508.0</ele>
        <time>2018-10-06T09:23:59.000Z</time>
      </trkpt>
      <trkpt lat="38.122085" lon="-4.89773333">
        <ele>508.0</ele>
        <time>2018-10-06T09:24:00.000Z</time>
      </trkpt>
      <trkpt lat="38.122085" lon="-4.89773333">
        <ele>508.0</ele>
        <time>2018-10-06T09:24:01.000Z</time>
      </trkpt>
      <trkpt lat="38.122085" lon="-4.89773333">
        <ele>508.0</ele>
        <time>2018-10-06T09:24:02.000Z</time>
      </trkpt>
      <trkpt lat="38.122085" lon="-4.89773333">
        <ele>508.0</ele>
        <time>2018-10-06T09:24:03.000Z</time>
      </trkpt>
      <trkpt lat="38.12188" lon="-4.89720667">
        <ele>510.0</ele>
        <time>2018-10-06T09:24:04.000Z</time>
      </trkpt>
      <trkpt lat="38.12189333" lon="-4.897125">
        <ele>510.0</ele>
        <time>2018-10-06T09:24:05.000Z</time>
      </trkpt>
      <trkpt lat="38.121885" lon="-4.89711667">
        <ele>510.0</ele>
        <time>2018-10-06T09:24:06.000Z</time>
      </trkpt>
      <trkpt lat="38.12187833" lon="-4.89711167">
        <ele>510.0</ele>
        <time>2018-10-06T09:24:07.000Z</time>
      </trkpt>
      <trkpt lat="38.12187167" lon="-4.897105">
        <ele>510.0</ele>
        <time>2018-10-06T09:24:08.000Z</time>
      </trkpt>
      <trkpt lat="38.121865" lon="-4.897095">
        <ele>511.0</ele>
        <time>2018-10-06T09:24:09.000Z</time>
      </trkpt>
      <trkpt lat="38.12185667" lon="-4.89708833">
        <ele>511.0</ele>
        <time>2018-10-06T09:24:10.000Z</time>
      </trkpt>
      <trkpt lat="38.121855" lon="-4.89708167">
        <ele>512.0</ele>
        <time>2018-10-06T09:24:11.000Z</time>
      </trkpt>
      <trkpt lat="38.12185" lon="-4.89707333">
        <ele>512.0</ele>
        <time>2018-10-06T09:24:12.000Z</time>
      </trkpt>
      <trkpt lat="38.12184167" lon="-4.897065">
        <ele>513.0</ele>
        <time>2018-10-06T09:24:13.000Z</time>
      </trkpt>
      <trkpt lat="38.12183333" lon="-4.897055">
        <ele>513.0</ele>
        <time>2018-10-06T09:24:14.000Z</time>
      </trkpt>
      <trkpt lat="38.12182667" lon="-4.89704333">
        <ele>514.0</ele>
        <time>2018-10-06T09:24:15.000Z</time>
      </trkpt>
      <trkpt lat="38.12182" lon="-4.89703333">
        <ele>515.0</ele>
        <time>2018-10-06T09:24:16.000Z</time>
      </trkpt>
      <trkpt lat="38.12182" lon="-4.89703333">
        <ele>515.0</ele>
        <time>2018-10-06T09:24:17.000Z</time>
      </trkpt>
      <trkpt lat="38.12182" lon="-4.89703333">
        <ele>515.0</ele>
        <time>2018-10-06T09:24:18.000Z</time>
      </trkpt>
      <trkpt lat="38.12182" lon="-4.89703333">
        <ele>515.0</ele>
        <time>2018-10-06T09:24:19.000Z</time>
      </trkpt>
      <trkpt lat="38.12182" lon="-4.89703333">
        <ele>515.0</ele>
        <time>2018-10-06T09:24:20.000Z</time>
      </trkpt>
      <trkpt lat="38.12182" lon="-4.89703333">
        <ele>515.0</ele>
        <time>2018-10-06T09:24:21.000Z</time>
      </trkpt>
      <trkpt lat="38.12182" lon="-4.89703333">
        <ele>515.0</ele>
        <time>2018-10-06T09:24:22.000Z</time>
      </trkpt>
      <trkpt lat="38.12182" lon="-4.89703333">
        <ele>515.0</ele>
        <time>2018-10-06T09:24:23.000Z</time>
      </trkpt>
      <trkpt lat="38.12182" lon="-4.89703333">
        <ele>515.0</ele>
        <time>2018-10-06T09:24:24.000Z</time>
      </trkpt>
      <trkpt lat="38.12182" lon="-4.89703333">
        <ele>515.0</ele>
        <time>2018-10-06T09:24:25.000Z</time>
      </trkpt>
      <trkpt lat="38.12182" lon="-4.89703333">
        <ele>515.0</ele>
        <time>2018-10-06T09:24:26.000Z</time>
      </trkpt>
      <trkpt lat="38.12182" lon="-4.89703333">
        <ele>515.0</ele>
        <time>2018-10-06T09:24:27.000Z</time>
      </trkpt>
      <trkpt lat="38.12182" lon="-4.89703333">
        <ele>515.0</ele>
        <time>2018-10-06T09:24:28.000Z</time>
      </trkpt>
      <trkpt lat="38.12182" lon="-4.89703333">
        <ele>515.0</ele>
        <time>2018-10-06T09:24:29.000Z</time>
      </trkpt>
      <trkpt lat="38.12182" lon="-4.89703333">
        <ele>515.0</ele>
        <time>2018-10-06T09:24:30.000Z</time>
      </trkpt>
      <trkpt lat="38.12182" lon="-4.89703333">
        <ele>515.0</ele>
        <time>2018-10-06T09:24:31.000Z</time>
      </trkpt>
      <trkpt lat="38.12182" lon="-4.89703333">
        <ele>515.0</ele>
        <time>2018-10-06T09:24:32.000Z</time>
      </trkpt>
      <trkpt lat="38.12182" lon="-4.89703333">
        <ele>515.0</ele>
        <time>2018-10-06T09:24:33.000Z</time>
      </trkpt>
      <trkpt lat="38.12182" lon="-4.89703333">
        <ele>515.0</ele>
        <time>2018-10-06T09:24:34.000Z</time>
      </trkpt>
      <trkpt lat="38.12182" lon="-4.89703333">
        <ele>515.0</ele>
        <time>2018-10-06T09:24:35.000Z</time>
      </trkpt>
      <trkpt lat="38.12182" lon="-4.89703333">
        <ele>515.0</ele>
        <time>2018-10-06T09:24:36.000Z</time>
      </trkpt>
      <trkpt lat="38.12182" lon="-4.89703333">
        <ele>515.0</ele>
        <time>2018-10-06T09:24:37.000Z</time>
      </trkpt>
      <trkpt lat="38.12182" lon="-4.89703333">
        <ele>515.0</ele>
        <time>2018-10-06T09:24:38.000Z</time>
      </trkpt>
      <trkpt lat="38.12182" lon="-4.89703333">
        <ele>515.0</ele>
        <time>2018-10-06T09:24:39.000Z</time>
      </trkpt>
      <trkpt lat="38.12182" lon="-4.89703333">
        <ele>515.0</ele>
        <time>2018-10-06T09:24:40.000Z</time>
      </trkpt>
      <trkpt lat="38.12182" lon="-4.89703333">
        <ele>515.0</ele>
        <time>2018-10-06T09:24:41.000Z</time>
      </trkpt>
      <trkpt lat="38.12182" lon="-4.89703333">
        <ele>515.0</ele>
        <time>2018-10-06T09:24:42.000Z</time>
      </trkpt>
      <trkpt lat="38.12182" lon="-4.89703333">
        <ele>515.0</ele>
        <time>2018-10-06T09:24:43.000Z</time>
      </trkpt>
      <trkpt lat="38.12182" lon="-4.89703333">
        <ele>515.0</ele>
        <time>2018-10-06T09:24:44.000Z</time>
      </trkpt>
      <trkpt lat="38.12182" lon="-4.89703333">
        <ele>515.0</ele>
        <time>2018-10-06T09:24:45.000Z</time>
      </trkpt>
      <trkpt lat="38.12182" lon="-4.89703333">
        <ele>515.0</ele>
        <time>2018-10-06T09:24:46.000Z</time>
      </trkpt>
      <trkpt lat="38.12182" lon="-4.89703333">
        <ele>515.0</ele>
        <time>2018-10-06T09:24:47.000Z</time>
      </trkpt>
      <trkpt lat="38.12182" lon="-4.89703333">
        <ele>515.0</ele>
        <time>2018-10-06T09:24:48.000Z</time>
      </trkpt>
      <trkpt lat="38.12182" lon="-4.89703333">
        <ele>515.0</ele>
        <time>2018-10-06T09:24:49.000Z</time>
      </trkpt>
      <trkpt lat="38.12182" lon="-4.89703333">
        <ele>515.0</ele>
        <time>2018-10-06T09:24:50.000Z</time>
      </trkpt>
      <trkpt lat="38.12182" lon="-4.89703333">
        <ele>515.0</ele>
        <time>2018-10-06T09:24:51.000Z</time>
      </trkpt>
      <trkpt lat="38.12182" lon="-4.89703333">
        <ele>515.0</ele>
        <time>2018-10-06T09:24:52.000Z</time>
      </trkpt>
      <trkpt lat="38.12182" lon="-4.89703333">
        <ele>515.0</ele>
        <time>2018-10-06T09:24:53.000Z</time>
      </trkpt>
      <trkpt lat="38.12182" lon="-4.89703333">
        <ele>515.0</ele>
        <time>2018-10-06T09:24:54.000Z</time>
      </trkpt>
      <trkpt lat="38.12182" lon="-4.89703333">
        <ele>515.0</ele>
        <time>2018-10-06T09:24:55.000Z</time>
      </trkpt>
      <trkpt lat="38.12182" lon="-4.89703333">
        <ele>515.0</ele>
        <time>2018-10-06T09:24:56.000Z</time>
      </trkpt>
      <trkpt lat="38.12182" lon="-4.89703333">
        <ele>515.0</ele>
        <time>2018-10-06T09:24:57.000Z</time>
      </trkpt>
      <trkpt lat="38.12182" lon="-4.89703333">
        <ele>515.0</ele>
        <time>2018-10-06T09:24:58.000Z</time>
      </trkpt>
      <trkpt lat="38.12182" lon="-4.89703333">
        <ele>515.0</ele>
        <time>2018-10-06T09:24:59.000Z</time>
      </trkpt>
      <trkpt lat="38.12182" lon="-4.89703333">
        <ele>515.0</ele>
        <time>2018-10-06T09:25:00.000Z</time>
      </trkpt>
      <trkpt lat="38.12182" lon="-4.89703333">
        <ele>515.0</ele>
        <time>2018-10-06T09:25:01.000Z</time>
      </trkpt>
      <trkpt lat="38.12182" lon="-4.89703333">
        <ele>515.0</ele>
        <time>2018-10-06T09:25:02.000Z</time>
      </trkpt>
      <trkpt lat="38.12182" lon="-4.89703333">
        <ele>515.0</ele>
        <time>2018-10-06T09:25:03.000Z</time>
      </trkpt>
      <trkpt lat="38.12163333" lon="-4.89658667">
        <ele>516.0</ele>
        <time>2018-10-06T09:25:06.000Z</time>
      </trkpt>
      <trkpt lat="38.12149833" lon="-4.89659833">
        <ele>523.0</ele>
        <time>2018-10-06T09:25:07.000Z</time>
      </trkpt>
      <trkpt lat="38.12148333" lon="-4.89657833">
        <ele>524.0</ele>
        <time>2018-10-06T09:25:08.000Z</time>
      </trkpt>
      <trkpt lat="38.12147167" lon="-4.89656667">
        <ele>524.0</ele>
        <time>2018-10-06T09:25:09.000Z</time>
      </trkpt>
      <trkpt lat="38.12145833" lon="-4.89655833">
        <ele>523.0</ele>
        <time>2018-10-06T09:25:10.000Z</time>
      </trkpt>
      <trkpt lat="38.121445" lon="-4.89654833">
        <ele>523.0</ele>
        <time>2018-10-06T09:25:11.000Z</time>
      </trkpt>
      <trkpt lat="38.12143333" lon="-4.89653833">
        <ele>523.0</ele>
        <time>2018-10-06T09:25:12.000Z</time>
      </trkpt>
      <trkpt lat="38.12142333" lon="-4.89653167">
        <ele>524.0</ele>
        <time>2018-10-06T09:25:13.000Z</time>
      </trkpt>
      <trkpt lat="38.121415" lon="-4.89652833">
        <ele>524.0</ele>
        <time>2018-10-06T09:25:14.000Z</time>
      </trkpt>
      <trkpt lat="38.12140667" lon="-4.89652333">
        <ele>524.0</ele>
        <time>2018-10-06T09:25:15.000Z</time>
      </trkpt>
      <trkpt lat="38.121395" lon="-4.89651333">
        <ele>525.0</ele>
        <time>2018-10-06T09:25:16.000Z</time>
      </trkpt>
      <trkpt lat="38.121395" lon="-4.89651333">
        <ele>525.0</ele>
        <time>2018-10-06T09:25:17.000Z</time>
      </trkpt>
      <trkpt lat="38.121395" lon="-4.89651333">
        <ele>525.0</ele>
        <time>2018-10-06T09:25:18.000Z</time>
      </trkpt>
      <trkpt lat="38.121395" lon="-4.89651333">
        <ele>525.0</ele>
        <time>2018-10-06T09:25:19.000Z</time>
      </trkpt>
      <trkpt lat="38.121395" lon="-4.89651333">
        <ele>525.0</ele>
        <time>2018-10-06T09:25:20.000Z</time>
      </trkpt>
      <trkpt lat="38.121395" lon="-4.89651333">
        <ele>525.0</ele>
        <time>2018-10-06T09:25:21.000Z</time>
      </trkpt>
      <trkpt lat="38.121395" lon="-4.89651333">
        <ele>525.0</ele>
        <time>2018-10-06T09:25:22.000Z</time>
      </trkpt>
      <trkpt lat="38.121395" lon="-4.89651333">
        <ele>525.0</ele>
        <time>2018-10-06T09:25:23.000Z</time>
      </trkpt>
      <trkpt lat="38.121395" lon="-4.89651333">
        <ele>525.0</ele>
        <time>2018-10-06T09:25:24.000Z</time>
      </trkpt>
      <trkpt lat="38.121395" lon="-4.89651333">
        <ele>525.0</ele>
        <time>2018-10-06T09:25:25.000Z</time>
      </trkpt>
      <trkpt lat="38.121395" lon="-4.89651333">
        <ele>525.0</ele>
        <time>2018-10-06T09:25:26.000Z</time>
      </trkpt>
      <trkpt lat="38.121395" lon="-4.89651333">
        <ele>525.0</ele>
        <time>2018-10-06T09:25:27.000Z</time>
      </trkpt>
      <trkpt lat="38.121395" lon="-4.89651333">
        <ele>525.0</ele>
        <time>2018-10-06T09:25:28.000Z</time>
      </trkpt>
      <trkpt lat="38.121395" lon="-4.89651333">
        <ele>525.0</ele>
        <time>2018-10-06T09:25:29.000Z</time>
      </trkpt>
      <trkpt lat="38.121395" lon="-4.89651333">
        <ele>525.0</ele>
        <time>2018-10-06T09:25:30.000Z</time>
      </trkpt>
      <trkpt lat="38.121395" lon="-4.89651333">
        <ele>525.0</ele>
        <time>2018-10-06T09:25:31.000Z</time>
      </trkpt>
      <trkpt lat="38.121395" lon="-4.89651333">
        <ele>525.0</ele>
        <time>2018-10-06T09:25:32.000Z</time>
      </trkpt>
      <trkpt lat="38.121395" lon="-4.89651333">
        <ele>525.0</ele>
        <time>2018-10-06T09:25:33.000Z</time>
      </trkpt>
      <trkpt lat="38.121395" lon="-4.89651333">
        <ele>525.0</ele>
        <time>2018-10-06T09:25:34.000Z</time>
      </trkpt>
      <trkpt lat="38.121395" lon="-4.89651333">
        <ele>525.0</ele>
        <time>2018-10-06T09:25:35.000Z</time>
      </trkpt>
      <trkpt lat="38.121395" lon="-4.89651333">
        <ele>525.0</ele>
        <time>2018-10-06T09:25:36.000Z</time>
      </trkpt>
      <trkpt lat="38.121395" lon="-4.89651333">
        <ele>525.0</ele>
        <time>2018-10-06T09:25:37.000Z</time>
      </trkpt>
      <trkpt lat="38.121395" lon="-4.89651333">
        <ele>525.0</ele>
        <time>2018-10-06T09:25:38.000Z</time>
      </trkpt>
      <trkpt lat="38.121395" lon="-4.89651333">
        <ele>525.0</ele>
        <time>2018-10-06T09:25:39.000Z</time>
      </trkpt>
      <trkpt lat="38.121395" lon="-4.89651333">
        <ele>525.0</ele>
        <time>2018-10-06T09:25:40.000Z</time>
      </trkpt>
      <trkpt lat="38.121395" lon="-4.89651333">
        <ele>525.0</ele>
        <time>2018-10-06T09:25:41.000Z</time>
      </trkpt>
      <trkpt lat="38.121395" lon="-4.89651333">
        <ele>525.0</ele>
        <time>2018-10-06T09:25:42.000Z</time>
      </trkpt>
      <trkpt lat="38.121395" lon="-4.89651333">
        <ele>525.0</ele>
        <time>2018-10-06T09:25:43.000Z</time>
      </trkpt>
      <trkpt lat="38.121395" lon="-4.89651333">
        <ele>525.0</ele>
        <time>2018-10-06T09:25:44.000Z</time>
      </trkpt>
      <trkpt lat="38.121395" lon="-4.89651333">
        <ele>525.0</ele>
        <time>2018-10-06T09:25:45.000Z</time>
      </trkpt>
      <trkpt lat="38.121395" lon="-4.89651333">
        <ele>525.0</ele>
        <time>2018-10-06T09:25:46.000Z</time>
      </trkpt>
      <trkpt lat="38.121395" lon="-4.89651333">
        <ele>525.0</ele>
        <time>2018-10-06T09:25:47.000Z</time>
      </trkpt>
      <trkpt lat="38.121395" lon="-4.89651333">
        <ele>525.0</ele>
        <time>2018-10-06T09:25:48.000Z</time>
      </trkpt>
      <trkpt lat="38.121395" lon="-4.89651333">
        <ele>525.0</ele>
        <time>2018-10-06T09:25:49.000Z</time>
      </trkpt>
      <trkpt lat="38.121395" lon="-4.89651333">
        <ele>525.0</ele>
        <time>2018-10-06T09:25:50.000Z</time>
      </trkpt>
      <trkpt lat="38.121395" lon="-4.89651333">
        <ele>525.0</ele>
        <time>2018-10-06T09:25:51.000Z</time>
      </trkpt>
      <trkpt lat="38.121395" lon="-4.89651333">
        <ele>525.0</ele>
        <time>2018-10-06T09:25:52.000Z</time>
      </trkpt>
      <trkpt lat="38.121395" lon="-4.89651333">
        <ele>525.0</ele>
        <time>2018-10-06T09:25:53.000Z</time>
      </trkpt>
      <trkpt lat="38.121395" lon="-4.89651333">
        <ele>525.0</ele>
        <time>2018-10-06T09:25:54.000Z</time>
      </trkpt>
      <trkpt lat="38.121395" lon="-4.89651333">
        <ele>525.0</ele>
        <time>2018-10-06T09:25:55.000Z</time>
      </trkpt>
      <trkpt lat="38.121395" lon="-4.89651333">
        <ele>525.0</ele>
        <time>2018-10-06T09:25:56.000Z</time>
      </trkpt>
      <trkpt lat="38.121395" lon="-4.89651333">
        <ele>525.0</ele>
        <time>2018-10-06T09:25:57.000Z</time>
      </trkpt>
      <trkpt lat="38.121395" lon="-4.89651333">
        <ele>525.0</ele>
        <time>2018-10-06T09:25:58.000Z</time>
      </trkpt>
      <trkpt lat="38.121395" lon="-4.89651333">
        <ele>525.0</ele>
        <time>2018-10-06T09:25:59.000Z</time>
      </trkpt>
      <trkpt lat="38.121395" lon="-4.89651333">
        <ele>525.0</ele>
        <time>2018-10-06T09:26:00.000Z</time>
      </trkpt>
      <trkpt lat="38.121395" lon="-4.89651333">
        <ele>525.0</ele>
        <time>2018-10-06T09:26:01.000Z</time>
      </trkpt>
      <trkpt lat="38.121395" lon="-4.89651333">
        <ele>525.0</ele>
        <time>2018-10-06T09:26:02.000Z</time>
      </trkpt>
      <trkpt lat="38.121395" lon="-4.89651333">
        <ele>525.0</ele>
        <time>2018-10-06T09:26:03.000Z</time>
      </trkpt>
      <trkpt lat="38.121395" lon="-4.89651333">
        <ele>525.0</ele>
        <time>2018-10-06T09:26:04.000Z</time>
      </trkpt>
      <trkpt lat="38.12116833" lon="-4.89610667">
        <ele>519.0</ele>
        <time>2018-10-06T09:26:05.000Z</time>
      </trkpt>
      <trkpt lat="38.12113" lon="-4.89611">
        <ele>519.0</ele>
        <time>2018-10-06T09:26:06.000Z</time>
      </trkpt>
      <trkpt lat="38.12110833" lon="-4.89610333">
        <ele>519.0</ele>
        <time>2018-10-06T09:26:07.000Z</time>
      </trkpt>
      <trkpt lat="38.121085" lon="-4.89609833">
        <ele>519.0</ele>
        <time>2018-10-06T09:26:08.000Z</time>
      </trkpt>
      <trkpt lat="38.12106167" lon="-4.89608833">
        <ele>519.0</ele>
        <time>2018-10-06T09:26:09.000Z</time>
      </trkpt>
      <trkpt lat="38.121045" lon="-4.89608167">
        <ele>519.0</ele>
        <time>2018-10-06T09:26:10.000Z</time>
      </trkpt>
      <trkpt lat="38.12103" lon="-4.896075">
        <ele>520.0</ele>
        <time>2018-10-06T09:26:11.000Z</time>
      </trkpt>
      <trkpt lat="38.12101667" lon="-4.89607167">
        <ele>520.0</ele>
        <time>2018-10-06T09:26:12.000Z</time>
      </trkpt>
      <trkpt lat="38.12100333" lon="-4.89606667">
        <ele>520.0</ele>
        <time>2018-10-06T09:26:13.000Z</time>
      </trkpt>
      <trkpt lat="38.120995" lon="-4.89605667">
        <ele>520.0</ele>
        <time>2018-10-06T09:26:14.000Z</time>
      </trkpt>
      <trkpt lat="38.120985" lon="-4.89604833">
        <ele>520.0</ele>
        <time>2018-10-06T09:26:15.000Z</time>
      </trkpt>
      <trkpt lat="38.12097667" lon="-4.89604167">
        <ele>520.0</ele>
        <time>2018-10-06T09:26:16.000Z</time>
      </trkpt>
      <trkpt lat="38.12097667" lon="-4.89604167">
        <ele>520.0</ele>
        <time>2018-10-06T09:26:17.000Z</time>
      </trkpt>
      <trkpt lat="38.12097667" lon="-4.89604167">
        <ele>520.0</ele>
        <time>2018-10-06T09:26:18.000Z</time>
      </trkpt>
      <trkpt lat="38.12097667" lon="-4.89604167">
        <ele>520.0</ele>
        <time>2018-10-06T09:26:19.000Z</time>
      </trkpt>
      <trkpt lat="38.12097667" lon="-4.89604167">
        <ele>520.0</ele>
        <time>2018-10-06T09:26:20.000Z</time>
      </trkpt>
      <trkpt lat="38.12097667" lon="-4.89604167">
        <ele>520.0</ele>
        <time>2018-10-06T09:26:21.000Z</time>
      </trkpt>
      <trkpt lat="38.12097667" lon="-4.89604167">
        <ele>520.0</ele>
        <time>2018-10-06T09:26:22.000Z</time>
      </trkpt>
      <trkpt lat="38.12097667" lon="-4.89604167">
        <ele>520.0</ele>
        <time>2018-10-06T09:26:23.000Z</time>
      </trkpt>
      <trkpt lat="38.12097667" lon="-4.89604167">
        <ele>520.0</ele>
        <time>2018-10-06T09:26:24.000Z</time>
      </trkpt>
      <trkpt lat="38.12097667" lon="-4.89604167">
        <ele>520.0</ele>
        <time>2018-10-06T09:26:25.000Z</time>
      </trkpt>
      <trkpt lat="38.12097667" lon="-4.89604167">
        <ele>520.0</ele>
        <time>2018-10-06T09:26:26.000Z</time>
      </trkpt>
      <trkpt lat="38.12097667" lon="-4.89604167">
        <ele>520.0</ele>
        <time>2018-10-06T09:26:27.000Z</time>
      </trkpt>
      <trkpt lat="38.12097667" lon="-4.89604167">
        <ele>520.0</ele>
        <time>2018-10-06T09:26:28.000Z</time>
      </trkpt>
      <trkpt lat="38.12097667" lon="-4.89604167">
        <ele>520.0</ele>
        <time>2018-10-06T09:26:29.000Z</time>
      </trkpt>
      <trkpt lat="38.12097667" lon="-4.89604167">
        <ele>520.0</ele>
        <time>2018-10-06T09:26:30.000Z</time>
      </trkpt>
      <trkpt lat="38.12097667" lon="-4.89604167">
        <ele>520.0</ele>
        <time>2018-10-06T09:26:31.000Z</time>
      </trkpt>
      <trkpt lat="38.12097667" lon="-4.89604167">
        <ele>520.0</ele>
        <time>2018-10-06T09:26:32.000Z</time>
      </trkpt>
      <trkpt lat="38.12097667" lon="-4.89604167">
        <ele>520.0</ele>
        <time>2018-10-06T09:26:33.000Z</time>
      </trkpt>
      <trkpt lat="38.12097667" lon="-4.89604167">
        <ele>520.0</ele>
        <time>2018-10-06T09:26:34.000Z</time>
      </trkpt>
      <trkpt lat="38.12097667" lon="-4.89604167">
        <ele>520.0</ele>
        <time>2018-10-06T09:26:35.000Z</time>
      </trkpt>
      <trkpt lat="38.12097667" lon="-4.89604167">
        <ele>520.0</ele>
        <time>2018-10-06T09:26:36.000Z</time>
      </trkpt>
      <trkpt lat="38.12097667" lon="-4.89604167">
        <ele>520.0</ele>
        <time>2018-10-06T09:26:37.000Z</time>
      </trkpt>
      <trkpt lat="38.12097667" lon="-4.89604167">
        <ele>520.0</ele>
        <time>2018-10-06T09:26:38.000Z</time>
      </trkpt>
      <trkpt lat="38.12097667" lon="-4.89604167">
        <ele>520.0</ele>
        <time>2018-10-06T09:26:39.000Z</time>
      </trkpt>
      <trkpt lat="38.12097667" lon="-4.89604167">
        <ele>520.0</ele>
        <time>2018-10-06T09:26:40.000Z</time>
      </trkpt>
      <trkpt lat="38.12097667" lon="-4.89604167">
        <ele>520.0</ele>
        <time>2018-10-06T09:26:41.000Z</time>
      </trkpt>
      <trkpt lat="38.12097667" lon="-4.89604167">
        <ele>520.0</ele>
        <time>2018-10-06T09:26:42.000Z</time>
      </trkpt>
      <trkpt lat="38.12097667" lon="-4.89604167">
        <ele>520.0</ele>
        <time>2018-10-06T09:26:43.000Z</time>
      </trkpt>
      <trkpt lat="38.12097667" lon="-4.89604167">
        <ele>520.0</ele>
        <time>2018-10-06T09:26:44.000Z</time>
      </trkpt>
      <trkpt lat="38.12097667" lon="-4.89604167">
        <ele>520.0</ele>
        <time>2018-10-06T09:26:45.000Z</time>
      </trkpt>
      <trkpt lat="38.12097667" lon="-4.89604167">
        <ele>520.0</ele>
        <time>2018-10-06T09:26:46.000Z</time>
      </trkpt>
      <trkpt lat="38.12097667" lon="-4.89604167">
        <ele>520.0</ele>
        <time>2018-10-06T09:26:47.000Z</time>
      </trkpt>
      <trkpt lat="38.12097667" lon="-4.89604167">
        <ele>520.0</ele>
        <time>2018-10-06T09:26:48.000Z</time>
      </trkpt>
      <trkpt lat="38.12097667" lon="-4.89604167">
        <ele>520.0</ele>
        <time>2018-10-06T09:26:49.000Z</time>
      </trkpt>
      <trkpt lat="38.12097667" lon="-4.89604167">
        <ele>520.0</ele>
        <time>2018-10-06T09:26:50.000Z</time>
      </trkpt>
      <trkpt lat="38.12097667" lon="-4.89604167">
        <ele>520.0</ele>
        <time>2018-10-06T09:26:51.000Z</time>
      </trkpt>
      <trkpt lat="38.12097667" lon="-4.89604167">
        <ele>520.0</ele>
        <time>2018-10-06T09:26:52.000Z</time>
      </trkpt>
      <trkpt lat="38.12097667" lon="-4.89604167">
        <ele>520.0</ele>
        <time>2018-10-06T09:26:53.000Z</time>
      </trkpt>
      <trkpt lat="38.12097667" lon="-4.89604167">
        <ele>520.0</ele>
        <time>2018-10-06T09:26:54.000Z</time>
      </trkpt>
      <trkpt lat="38.12097667" lon="-4.89604167">
        <ele>520.0</ele>
        <time>2018-10-06T09:26:55.000Z</time>
      </trkpt>
      <trkpt lat="38.12097667" lon="-4.89604167">
        <ele>520.0</ele>
        <time>2018-10-06T09:26:56.000Z</time>
      </trkpt>
      <trkpt lat="38.12097667" lon="-4.89604167">
        <ele>520.0</ele>
        <time>2018-10-06T09:26:57.000Z</time>
      </trkpt>
      <trkpt lat="38.12097667" lon="-4.89604167">
        <ele>520.0</ele>
        <time>2018-10-06T09:26:58.000Z</time>
      </trkpt>
      <trkpt lat="38.12097667" lon="-4.89604167">
        <ele>520.0</ele>
        <time>2018-10-06T09:26:59.000Z</time>
      </trkpt>
      <trkpt lat="38.12097667" lon="-4.89604167">
        <ele>520.0</ele>
        <time>2018-10-06T09:27:00.000Z</time>
      </trkpt>
      <trkpt lat="38.12097667" lon="-4.89604167">
        <ele>520.0</ele>
        <time>2018-10-06T09:27:01.000Z</time>
      </trkpt>
      <trkpt lat="38.12097667" lon="-4.89604167">
        <ele>520.0</ele>
        <time>2018-10-06T09:27:02.000Z</time>
      </trkpt>
      <trkpt lat="38.12097667" lon="-4.89604167">
        <ele>520.0</ele>
        <time>2018-10-06T09:27:03.000Z</time>
      </trkpt>
      <trkpt lat="38.12097667" lon="-4.89604167">
        <ele>520.0</ele>
        <time>2018-10-06T09:27:04.000Z</time>
      </trkpt>
      <trkpt lat="38.12089333" lon="-4.89568667">
        <ele>520.0</ele>
        <time>2018-10-06T09:27:05.000Z</time>
      </trkpt>
      <trkpt lat="38.12088333" lon="-4.89567167">
        <ele>521.0</ele>
        <time>2018-10-06T09:27:06.000Z</time>
      </trkpt>
      <trkpt lat="38.12087333" lon="-4.89565333">
        <ele>521.0</ele>
        <time>2018-10-06T09:27:07.000Z</time>
      </trkpt>
      <trkpt lat="38.12086333" lon="-4.89563167">
        <ele>522.0</ele>
        <time>2018-10-06T09:27:08.000Z</time>
      </trkpt>
      <trkpt lat="38.12085333" lon="-4.89561333">
        <ele>522.0</ele>
        <time>2018-10-06T09:27:09.000Z</time>
      </trkpt>
      <trkpt lat="38.12084333" lon="-4.89559667">
        <ele>523.0</ele>
        <time>2018-10-06T09:27:10.000Z</time>
      </trkpt>
      <trkpt lat="38.12083667" lon="-4.89558167">
        <ele>523.0</ele>
        <time>2018-10-06T09:27:11.000Z</time>
      </trkpt>
      <trkpt lat="38.12082833" lon="-4.895565">
        <ele>524.0</ele>
        <time>2018-10-06T09:27:12.000Z</time>
      </trkpt>
      <trkpt lat="38.12081833" lon="-4.89554833">
        <ele>524.0</ele>
        <time>2018-10-06T09:27:13.000Z</time>
      </trkpt>
      <trkpt lat="38.12081" lon="-4.89553167">
        <ele>525.0</ele>
        <time>2018-10-06T09:27:14.000Z</time>
      </trkpt>
      <trkpt lat="38.12080167" lon="-4.895515">
        <ele>526.0</ele>
        <time>2018-10-06T09:27:15.000Z</time>
      </trkpt>
      <trkpt lat="38.12079333" lon="-4.8955">
        <ele>526.0</ele>
        <time>2018-10-06T09:27:16.000Z</time>
      </trkpt>
      <trkpt lat="38.12079333" lon="-4.8955">
        <ele>526.0</ele>
        <time>2018-10-06T09:27:17.000Z</time>
      </trkpt>
      <trkpt lat="38.12079333" lon="-4.8955">
        <ele>526.0</ele>
        <time>2018-10-06T09:27:18.000Z</time>
      </trkpt>
      <trkpt lat="38.12079333" lon="-4.8955">
        <ele>526.0</ele>
        <time>2018-10-06T09:27:19.000Z</time>
      </trkpt>
      <trkpt lat="38.12079333" lon="-4.8955">
        <ele>526.0</ele>
        <time>2018-10-06T09:27:20.000Z</time>
      </trkpt>
      <trkpt lat="38.12079333" lon="-4.8955">
        <ele>526.0</ele>
        <time>2018-10-06T09:27:21.000Z</time>
      </trkpt>
      <trkpt lat="38.12079333" lon="-4.8955">
        <ele>526.0</ele>
        <time>2018-10-06T09:27:22.000Z</time>
      </trkpt>
      <trkpt lat="38.12079333" lon="-4.8955">
        <ele>526.0</ele>
        <time>2018-10-06T09:27:23.000Z</time>
      </trkpt>
      <trkpt lat="38.12079333" lon="-4.8955">
        <ele>526.0</ele>
        <time>2018-10-06T09:27:24.000Z</time>
      </trkpt>
      <trkpt lat="38.12079333" lon="-4.8955">
        <ele>526.0</ele>
        <time>2018-10-06T09:27:25.000Z</time>
      </trkpt>
      <trkpt lat="38.12079333" lon="-4.8955">
        <ele>526.0</ele>
        <time>2018-10-06T09:27:26.000Z</time>
      </trkpt>
      <trkpt lat="38.12079333" lon="-4.8955">
        <ele>526.0</ele>
        <time>2018-10-06T09:27:27.000Z</time>
      </trkpt>
      <trkpt lat="38.12079333" lon="-4.8955">
        <ele>526.0</ele>
        <time>2018-10-06T09:27:28.000Z</time>
      </trkpt>
      <trkpt lat="38.12079333" lon="-4.8955">
        <ele>526.0</ele>
        <time>2018-10-06T09:27:29.000Z</time>
      </trkpt>
      <trkpt lat="38.12079333" lon="-4.8955">
        <ele>526.0</ele>
        <time>2018-10-06T09:27:30.000Z</time>
      </trkpt>
      <trkpt lat="38.12079333" lon="-4.8955">
        <ele>526.0</ele>
        <time>2018-10-06T09:27:31.000Z</time>
      </trkpt>
      <trkpt lat="38.12079333" lon="-4.8955">
        <ele>526.0</ele>
        <time>2018-10-06T09:27:32.000Z</time>
      </trkpt>
      <trkpt lat="38.12079333" lon="-4.8955">
        <ele>526.0</ele>
        <time>2018-10-06T09:27:33.000Z</time>
      </trkpt>
      <trkpt lat="38.12079333" lon="-4.8955">
        <ele>526.0</ele>
        <time>2018-10-06T09:27:34.000Z</time>
      </trkpt>
      <trkpt lat="38.12079333" lon="-4.8955">
        <ele>526.0</ele>
        <time>2018-10-06T09:27:35.000Z</time>
      </trkpt>
      <trkpt lat="38.12079333" lon="-4.8955">
        <ele>526.0</ele>
        <time>2018-10-06T09:27:36.000Z</time>
      </trkpt>
      <trkpt lat="38.12079333" lon="-4.8955">
        <ele>526.0</ele>
        <time>2018-10-06T09:27:37.000Z</time>
      </trkpt>
      <trkpt lat="38.12079333" lon="-4.8955">
        <ele>526.0</ele>
        <time>2018-10-06T09:27:38.000Z</time>
      </trkpt>
      <trkpt lat="38.12079333" lon="-4.8955">
        <ele>526.0</ele>
        <time>2018-10-06T09:27:39.000Z</time>
      </trkpt>
      <trkpt lat="38.12079333" lon="-4.8955">
        <ele>526.0</ele>
        <time>2018-10-06T09:27:40.000Z</time>
      </trkpt>
      <trkpt lat="38.12079333" lon="-4.8955">
        <ele>526.0</ele>
        <time>2018-10-06T09:27:41.000Z</time>
      </trkpt>
      <trkpt lat="38.12079333" lon="-4.8955">
        <ele>526.0</ele>
        <time>2018-10-06T09:27:42.000Z</time>
      </trkpt>
      <trkpt lat="38.12079333" lon="-4.8955">
        <ele>526.0</ele>
        <time>2018-10-06T09:27:43.000Z</time>
      </trkpt>
      <trkpt lat="38.12079333" lon="-4.8955">
        <ele>526.0</ele>
        <time>2018-10-06T09:27:44.000Z</time>
      </trkpt>
      <trkpt lat="38.12079333" lon="-4.8955">
        <ele>526.0</ele>
        <time>2018-10-06T09:27:45.000Z</time>
      </trkpt>
      <trkpt lat="38.12079333" lon="-4.8955">
        <ele>526.0</ele>
        <time>2018-10-06T09:27:46.000Z</time>
      </trkpt>
      <trkpt lat="38.12079333" lon="-4.8955">
        <ele>526.0</ele>
        <time>2018-10-06T09:27:47.000Z</time>
      </trkpt>
      <trkpt lat="38.12079333" lon="-4.8955">
        <ele>526.0</ele>
        <time>2018-10-06T09:27:48.000Z</time>
      </trkpt>
      <trkpt lat="38.12079333" lon="-4.8955">
        <ele>526.0</ele>
        <time>2018-10-06T09:27:49.000Z</time>
      </trkpt>
      <trkpt lat="38.12079333" lon="-4.8955">
        <ele>526.0</ele>
        <time>2018-10-06T09:27:50.000Z</time>
      </trkpt>
      <trkpt lat="38.12079333" lon="-4.8955">
        <ele>526.0</ele>
        <time>2018-10-06T09:27:51.000Z</time>
      </trkpt>
      <trkpt lat="38.12079333" lon="-4.8955">
        <ele>526.0</ele>
        <time>2018-10-06T09:27:52.000Z</time>
      </trkpt>
      <trkpt lat="38.12079333" lon="-4.8955">
        <ele>526.0</ele>
        <time>2018-10-06T09:27:53.000Z</time>
      </trkpt>
      <trkpt lat="38.12079333" lon="-4.8955">
        <ele>526.0</ele>
        <time>2018-10-06T09:27:54.000Z</time>
      </trkpt>
      <trkpt lat="38.12079333" lon="-4.8955">
        <ele>526.0</ele>
        <time>2018-10-06T09:27:55.000Z</time>
      </trkpt>
      <trkpt lat="38.12079333" lon="-4.8955">
        <ele>526.0</ele>
        <time>2018-10-06T09:27:56.000Z</time>
      </trkpt>
      <trkpt lat="38.12079333" lon="-4.8955">
        <ele>526.0</ele>
        <time>2018-10-06T09:27:57.000Z</time>
      </trkpt>
      <trkpt lat="38.12079333" lon="-4.8955">
        <ele>526.0</ele>
        <time>2018-10-06T09:27:58.000Z</time>
      </trkpt>
      <trkpt lat="38.12079333" lon="-4.8955">
        <ele>526.0</ele>
        <time>2018-10-06T09:27:59.000Z</time>
      </trkpt>
      <trkpt lat="38.12079333" lon="-4.8955">
        <ele>526.0</ele>
        <time>2018-10-06T09:28:00.000Z</time>
      </trkpt>
      <trkpt lat="38.12079333" lon="-4.8955">
        <ele>526.0</ele>
        <time>2018-10-06T09:28:01.000Z</time>
      </trkpt>
      <trkpt lat="38.12079333" lon="-4.8955">
        <ele>526.0</ele>
        <time>2018-10-06T09:28:02.000Z</time>
      </trkpt>
      <trkpt lat="38.12079333" lon="-4.8955">
        <ele>526.0</ele>
        <time>2018-10-06T09:28:03.000Z</time>
      </trkpt>
      <trkpt lat="38.12079333" lon="-4.8955">
        <ele>526.0</ele>
        <time>2018-10-06T09:28:04.000Z</time>
      </trkpt>
      <trkpt lat="38.12067" lon="-4.89528167">
        <ele>506.0</ele>
        <time>2018-10-06T09:28:05.000Z</time>
      </trkpt>
      <trkpt lat="38.12064333" lon="-4.89525833">
        <ele>508.0</ele>
        <time>2018-10-06T09:28:06.000Z</time>
      </trkpt>
      <trkpt lat="38.12061167" lon="-4.89523333">
        <ele>510.0</ele>
        <time>2018-10-06T09:28:07.000Z</time>
      </trkpt>
      <trkpt lat="38.12058333" lon="-4.89521167">
        <ele>512.0</ele>
        <time>2018-10-06T09:28:08.000Z</time>
      </trkpt>
      <trkpt lat="38.12055667" lon="-4.89519167">
        <ele>513.0</ele>
        <time>2018-10-06T09:28:09.000Z</time>
      </trkpt>
      <trkpt lat="38.12053" lon="-4.895175">
        <ele>514.0</ele>
        <time>2018-10-06T09:28:10.000Z</time>
      </trkpt>
      <trkpt lat="38.120505" lon="-4.89516">
        <ele>515.0</ele>
        <time>2018-10-06T09:28:11.000Z</time>
      </trkpt>
      <trkpt lat="38.12048167" lon="-4.895145">
        <ele>516.0</ele>
        <time>2018-10-06T09:28:12.000Z</time>
      </trkpt>
      <trkpt lat="38.12045833" lon="-4.89513">
        <ele>517.0</ele>
        <time>2018-10-06T09:28:13.000Z</time>
      </trkpt>
      <trkpt lat="38.12043833" lon="-4.89511667">
        <ele>518.0</ele>
        <time>2018-10-06T09:28:14.000Z</time>
      </trkpt>
      <trkpt lat="38.12041667" lon="-4.895105">
        <ele>518.0</ele>
        <time>2018-10-06T09:28:15.000Z</time>
      </trkpt>
      <trkpt lat="38.12039667" lon="-4.89509167">
        <ele>519.0</ele>
        <time>2018-10-06T09:28:16.000Z</time>
      </trkpt>
      <trkpt lat="38.12039667" lon="-4.89509167">
        <ele>519.0</ele>
        <time>2018-10-06T09:28:17.000Z</time>
      </trkpt>
      <trkpt lat="38.12039667" lon="-4.89509167">
        <ele>519.0</ele>
        <time>2018-10-06T09:28:18.000Z</time>
      </trkpt>
      <trkpt lat="38.12039667" lon="-4.89509167">
        <ele>519.0</ele>
        <time>2018-10-06T09:28:19.000Z</time>
      </trkpt>
      <trkpt lat="38.12039667" lon="-4.89509167">
        <ele>519.0</ele>
        <time>2018-10-06T09:28:20.000Z</time>
      </trkpt>
      <trkpt lat="38.12039667" lon="-4.89509167">
        <ele>519.0</ele>
        <time>2018-10-06T09:28:21.000Z</time>
      </trkpt>
      <trkpt lat="38.12039667" lon="-4.89509167">
        <ele>519.0</ele>
        <time>2018-10-06T09:28:22.000Z</time>
      </trkpt>
      <trkpt lat="38.12039667" lon="-4.89509167">
        <ele>519.0</ele>
        <time>2018-10-06T09:28:23.000Z</time>
      </trkpt>
      <trkpt lat="38.12039667" lon="-4.89509167">
        <ele>519.0</ele>
        <time>2018-10-06T09:28:24.000Z</time>
      </trkpt>
      <trkpt lat="38.12039667" lon="-4.89509167">
        <ele>519.0</ele>
        <time>2018-10-06T09:28:25.000Z</time>
      </trkpt>
      <trkpt lat="38.12039667" lon="-4.89509167">
        <ele>519.0</ele>
        <time>2018-10-06T09:28:26.000Z</time>
      </trkpt>
      <trkpt lat="38.12039667" lon="-4.89509167">
        <ele>519.0</ele>
        <time>2018-10-06T09:28:27.000Z</time>
      </trkpt>
      <trkpt lat="38.12039667" lon="-4.89509167">
        <ele>519.0</ele>
        <time>2018-10-06T09:28:28.000Z</time>
      </trkpt>
      <trkpt lat="38.12039667" lon="-4.89509167">
        <ele>519.0</ele>
        <time>2018-10-06T09:28:29.000Z</time>
      </trkpt>
      <trkpt lat="38.12039667" lon="-4.89509167">
        <ele>519.0</ele>
        <time>2018-10-06T09:28:30.000Z</time>
      </trkpt>
      <trkpt lat="38.12039667" lon="-4.89509167">
        <ele>519.0</ele>
        <time>2018-10-06T09:28:31.000Z</time>
      </trkpt>
      <trkpt lat="38.12039667" lon="-4.89509167">
        <ele>519.0</ele>
        <time>2018-10-06T09:28:32.000Z</time>
      </trkpt>
      <trkpt lat="38.12039667" lon="-4.89509167">
        <ele>519.0</ele>
        <time>2018-10-06T09:28:33.000Z</time>
      </trkpt>
      <trkpt lat="38.12039667" lon="-4.89509167">
        <ele>519.0</ele>
        <time>2018-10-06T09:28:34.000Z</time>
      </trkpt>
      <trkpt lat="38.12039667" lon="-4.89509167">
        <ele>519.0</ele>
        <time>2018-10-06T09:28:35.000Z</time>
      </trkpt>
      <trkpt lat="38.12039667" lon="-4.89509167">
        <ele>519.0</ele>
        <time>2018-10-06T09:28:36.000Z</time>
      </trkpt>
      <trkpt lat="38.12039667" lon="-4.89509167">
        <ele>519.0</ele>
        <time>2018-10-06T09:28:37.000Z</time>
      </trkpt>
      <trkpt lat="38.12039667" lon="-4.89509167">
        <ele>519.0</ele>
        <time>2018-10-06T09:28:38.000Z</time>
      </trkpt>
      <trkpt lat="38.12039667" lon="-4.89509167">
        <ele>519.0</ele>
        <time>2018-10-06T09:28:39.000Z</time>
      </trkpt>
      <trkpt lat="38.12039667" lon="-4.89509167">
        <ele>519.0</ele>
        <time>2018-10-06T09:28:40.000Z</time>
      </trkpt>
      <trkpt lat="38.12039667" lon="-4.89509167">
        <ele>519.0</ele>
        <time>2018-10-06T09:28:41.000Z</time>
      </trkpt>
      <trkpt lat="38.12039667" lon="-4.89509167">
        <ele>519.0</ele>
        <time>2018-10-06T09:28:42.000Z</time>
      </trkpt>
      <trkpt lat="38.12039667" lon="-4.89509167">
        <ele>519.0</ele>
        <time>2018-10-06T09:28:43.000Z</time>
      </trkpt>
      <trkpt lat="38.12039667" lon="-4.89509167">
        <ele>519.0</ele>
        <time>2018-10-06T09:28:44.000Z</time>
      </trkpt>
      <trkpt lat="38.12039667" lon="-4.89509167">
        <ele>519.0</ele>
        <time>2018-10-06T09:28:45.000Z</time>
      </trkpt>
      <trkpt lat="38.12039667" lon="-4.89509167">
        <ele>519.0</ele>
        <time>2018-10-06T09:28:46.000Z</time>
      </trkpt>
      <trkpt lat="38.12039667" lon="-4.89509167">
        <ele>519.0</ele>
        <time>2018-10-06T09:28:47.000Z</time>
      </trkpt>
      <trkpt lat="38.12039667" lon="-4.89509167">
        <ele>519.0</ele>
        <time>2018-10-06T09:28:48.000Z</time>
      </trkpt>
      <trkpt lat="38.12039667" lon="-4.89509167">
        <ele>519.0</ele>
        <time>2018-10-06T09:28:49.000Z</time>
      </trkpt>
      <trkpt lat="38.12039667" lon="-4.89509167">
        <ele>519.0</ele>
        <time>2018-10-06T09:28:50.000Z</time>
      </trkpt>
      <trkpt lat="38.12039667" lon="-4.89509167">
        <ele>519.0</ele>
        <time>2018-10-06T09:28:51.000Z</time>
      </trkpt>
      <trkpt lat="38.12039667" lon="-4.89509167">
        <ele>519.0</ele>
        <time>2018-10-06T09:28:52.000Z</time>
      </trkpt>
      <trkpt lat="38.12039667" lon="-4.89509167">
        <ele>519.0</ele>
        <time>2018-10-06T09:28:53.000Z</time>
      </trkpt>
      <trkpt lat="38.12039667" lon="-4.89509167">
        <ele>519.0</ele>
        <time>2018-10-06T09:28:54.000Z</time>
      </trkpt>
      <trkpt lat="38.12039667" lon="-4.89509167">
        <ele>519.0</ele>
        <time>2018-10-06T09:28:55.000Z</time>
      </trkpt>
      <trkpt lat="38.12039667" lon="-4.89509167">
        <ele>519.0</ele>
        <time>2018-10-06T09:28:56.000Z</time>
      </trkpt>
      <trkpt lat="38.12039667" lon="-4.89509167">
        <ele>519.0</ele>
        <time>2018-10-06T09:28:57.000Z</time>
      </trkpt>
      <trkpt lat="38.12039667" lon="-4.89509167">
        <ele>519.0</ele>
        <time>2018-10-06T09:28:58.000Z</time>
      </trkpt>
      <trkpt lat="38.12039667" lon="-4.89509167">
        <ele>519.0</ele>
        <time>2018-10-06T09:28:59.000Z</time>
      </trkpt>
      <trkpt lat="38.12039667" lon="-4.89509167">
        <ele>519.0</ele>
        <time>2018-10-06T09:29:00.000Z</time>
      </trkpt>
      <trkpt lat="38.12039667" lon="-4.89509167">
        <ele>519.0</ele>
        <time>2018-10-06T09:29:01.000Z</time>
      </trkpt>
      <trkpt lat="38.12039667" lon="-4.89509167">
        <ele>519.0</ele>
        <time>2018-10-06T09:29:02.000Z</time>
      </trkpt>
      <trkpt lat="38.12039667" lon="-4.89509167">
        <ele>519.0</ele>
        <time>2018-10-06T09:29:03.000Z</time>
      </trkpt>
      <trkpt lat="38.12039667" lon="-4.89509167">
        <ele>519.0</ele>
        <time>2018-10-06T09:29:04.000Z</time>
      </trkpt>
      <trkpt lat="38.11992333" lon="-4.89489333">
        <ele>520.0</ele>
        <time>2018-10-06T09:29:05.000Z</time>
      </trkpt>
      <trkpt lat="38.11987667" lon="-4.89465">
        <ele>526.0</ele>
        <time>2018-10-06T09:29:06.000Z</time>
      </trkpt>
      <trkpt lat="38.11986667" lon="-4.89462833">
        <ele>527.0</ele>
        <time>2018-10-06T09:29:07.000Z</time>
      </trkpt>
      <trkpt lat="38.11986167" lon="-4.89461333">
        <ele>527.0</ele>
        <time>2018-10-06T09:29:08.000Z</time>
      </trkpt>
      <trkpt lat="38.11985" lon="-4.8946">
        <ele>527.0</ele>
        <time>2018-10-06T09:29:09.000Z</time>
      </trkpt>
      <trkpt lat="38.11984" lon="-4.894585">
        <ele>527.0</ele>
        <time>2018-10-06T09:29:10.000Z</time>
      </trkpt>
      <trkpt lat="38.11983167" lon="-4.89457">
        <ele>527.0</ele>
        <time>2018-10-06T09:29:11.000Z</time>
      </trkpt>
      <trkpt lat="38.11982333" lon="-4.89455333">
        <ele>527.0</ele>
        <time>2018-10-06T09:29:12.000Z</time>
      </trkpt>
      <trkpt lat="38.11981833" lon="-4.89453833">
        <ele>527.0</ele>
        <time>2018-10-06T09:29:13.000Z</time>
      </trkpt>
      <trkpt lat="38.11981167" lon="-4.89452333">
        <ele>527.0</ele>
        <time>2018-10-06T09:29:14.000Z</time>
      </trkpt>
      <trkpt lat="38.119805" lon="-4.89451">
        <ele>527.0</ele>
        <time>2018-10-06T09:29:15.000Z</time>
      </trkpt>
      <trkpt lat="38.11979833" lon="-4.894495">
        <ele>527.0</ele>
        <time>2018-10-06T09:29:16.000Z</time>
      </trkpt>
      <trkpt lat="38.11979833" lon="-4.894495">
        <ele>527.0</ele>
        <time>2018-10-06T09:29:17.000Z</time>
      </trkpt>
      <trkpt lat="38.11979833" lon="-4.894495">
        <ele>527.0</ele>
        <time>2018-10-06T09:29:18.000Z</time>
      </trkpt>
      <trkpt lat="38.11979833" lon="-4.894495">
        <ele>527.0</ele>
        <time>2018-10-06T09:29:19.000Z</time>
      </trkpt>
      <trkpt lat="38.11979833" lon="-4.894495">
        <ele>527.0</ele>
        <time>2018-10-06T09:29:20.000Z</time>
      </trkpt>
      <trkpt lat="38.11979833" lon="-4.894495">
        <ele>527.0</ele>
        <time>2018-10-06T09:29:21.000Z</time>
      </trkpt>
      <trkpt lat="38.11979833" lon="-4.894495">
        <ele>527.0</ele>
        <time>2018-10-06T09:29:22.000Z</time>
      </trkpt>
      <trkpt lat="38.11979833" lon="-4.894495">
        <ele>527.0</ele>
        <time>2018-10-06T09:29:23.000Z</time>
      </trkpt>
      <trkpt lat="38.11979833" lon="-4.894495">
        <ele>527.0</ele>
        <time>2018-10-06T09:29:24.000Z</time>
      </trkpt>
      <trkpt lat="38.11979833" lon="-4.894495">
        <ele>527.0</ele>
        <time>2018-10-06T09:29:25.000Z</time>
      </trkpt>
      <trkpt lat="38.11979833" lon="-4.894495">
        <ele>527.0</ele>
        <time>2018-10-06T09:29:26.000Z</time>
      </trkpt>
      <trkpt lat="38.11979833" lon="-4.894495">
        <ele>527.0</ele>
        <time>2018-10-06T09:29:27.000Z</time>
      </trkpt>
      <trkpt lat="38.11979833" lon="-4.894495">
        <ele>527.0</ele>
        <time>2018-10-06T09:29:28.000Z</time>
      </trkpt>
      <trkpt lat="38.11979833" lon="-4.894495">
        <ele>527.0</ele>
        <time>2018-10-06T09:29:29.000Z</time>
      </trkpt>
      <trkpt lat="38.11979833" lon="-4.894495">
        <ele>527.0</ele>
        <time>2018-10-06T09:29:30.000Z</time>
      </trkpt>
      <trkpt lat="38.11979833" lon="-4.894495">
        <ele>527.0</ele>
        <time>2018-10-06T09:29:31.000Z</time>
      </trkpt>
      <trkpt lat="38.11979833" lon="-4.894495">
        <ele>527.0</ele>
        <time>2018-10-06T09:29:32.000Z</time>
      </trkpt>
      <trkpt lat="38.11979833" lon="-4.894495">
        <ele>527.0</ele>
        <time>2018-10-06T09:29:33.000Z</time>
      </trkpt>
      <trkpt lat="38.11979833" lon="-4.894495">
        <ele>527.0</ele>
        <time>2018-10-06T09:29:34.000Z</time>
      </trkpt>
      <trkpt lat="38.11979833" lon="-4.894495">
        <ele>527.0</ele>
        <time>2018-10-06T09:29:35.000Z</time>
      </trkpt>
      <trkpt lat="38.11979833" lon="-4.894495">
        <ele>527.0</ele>
        <time>2018-10-06T09:29:36.000Z</time>
      </trkpt>
      <trkpt lat="38.11979833" lon="-4.894495">
        <ele>527.0</ele>
        <time>2018-10-06T09:29:37.000Z</time>
      </trkpt>
      <trkpt lat="38.11979833" lon="-4.894495">
        <ele>527.0</ele>
        <time>2018-10-06T09:29:38.000Z</time>
      </trkpt>
      <trkpt lat="38.11979833" lon="-4.894495">
        <ele>527.0</ele>
        <time>2018-10-06T09:29:39.000Z</time>
      </trkpt>
      <trkpt lat="38.11979833" lon="-4.894495">
        <ele>527.0</ele>
        <time>2018-10-06T09:29:40.000Z</time>
      </trkpt>
      <trkpt lat="38.11979833" lon="-4.894495">
        <ele>527.0</ele>
        <time>2018-10-06T09:29:41.000Z</time>
      </trkpt>
      <trkpt lat="38.11979833" lon="-4.894495">
        <ele>527.0</ele>
        <time>2018-10-06T09:29:42.000Z</time>
      </trkpt>
      <trkpt lat="38.11979833" lon="-4.894495">
        <ele>527.0</ele>
        <time>2018-10-06T09:29:43.000Z</time>
      </trkpt>
      <trkpt lat="38.11979833" lon="-4.894495">
        <ele>527.0</ele>
        <time>2018-10-06T09:29:44.000Z</time>
      </trkpt>
      <trkpt lat="38.11979833" lon="-4.894495">
        <ele>527.0</ele>
        <time>2018-10-06T09:29:45.000Z</time>
      </trkpt>
      <trkpt lat="38.11979833" lon="-4.894495">
        <ele>527.0</ele>
        <time>2018-10-06T09:29:46.000Z</time>
      </trkpt>
      <trkpt lat="38.11979833" lon="-4.894495">
        <ele>527.0</ele>
        <time>2018-10-06T09:29:47.000Z</time>
      </trkpt>
      <trkpt lat="38.11979833" lon="-4.894495">
        <ele>527.0</ele>
        <time>2018-10-06T09:29:48.000Z</time>
      </trkpt>
      <trkpt lat="38.11979833" lon="-4.894495">
        <ele>527.0</ele>
        <time>2018-10-06T09:29:49.000Z</time>
      </trkpt>
      <trkpt lat="38.11979833" lon="-4.894495">
        <ele>527.0</ele>
        <time>2018-10-06T09:29:50.000Z</time>
      </trkpt>
      <trkpt lat="38.11979833" lon="-4.894495">
        <ele>527.0</ele>
        <time>2018-10-06T09:29:51.000Z</time>
      </trkpt>
      <trkpt lat="38.11979833" lon="-4.894495">
        <ele>527.0</ele>
        <time>2018-10-06T09:29:52.000Z</time>
      </trkpt>
      <trkpt lat="38.11979833" lon="-4.894495">
        <ele>527.0</ele>
        <time>2018-10-06T09:29:53.000Z</time>
      </trkpt>
      <trkpt lat="38.11979833" lon="-4.894495">
        <ele>527.0</ele>
        <time>2018-10-06T09:29:54.000Z</time>
      </trkpt>
      <trkpt lat="38.11979833" lon="-4.894495">
        <ele>527.0</ele>
        <time>2018-10-06T09:29:55.000Z</time>
      </trkpt>
      <trkpt lat="38.11979833" lon="-4.894495">
        <ele>527.0</ele>
        <time>2018-10-06T09:29:56.000Z</time>
      </trkpt>
      <trkpt lat="38.11979833" lon="-4.894495">
        <ele>527.0</ele>
        <time>2018-10-06T09:29:57.000Z</time>
      </trkpt>
      <trkpt lat="38.11979833" lon="-4.894495">
        <ele>527.0</ele>
        <time>2018-10-06T09:29:58.000Z</time>
      </trkpt>
      <trkpt lat="38.11979833" lon="-4.894495">
        <ele>527.0</ele>
        <time>2018-10-06T09:29:59.000Z</time>
      </trkpt>
      <trkpt lat="38.11979833" lon="-4.894495">
        <ele>527.0</ele>
        <time>2018-10-06T09:30:00.000Z</time>
      </trkpt>
      <trkpt lat="38.11979833" lon="-4.894495">
        <ele>527.0</ele>
        <time>2018-10-06T09:30:01.000Z</time>
      </trkpt>
      <trkpt lat="38.11979833" lon="-4.894495">
        <ele>527.0</ele>
        <time>2018-10-06T09:30:02.000Z</time>
      </trkpt>
      <trkpt lat="38.11979833" lon="-4.894495">
        <ele>527.0</ele>
        <time>2018-10-06T09:30:03.000Z</time>
      </trkpt>
      <trkpt lat="38.11979833" lon="-4.894495">
        <ele>527.0</ele>
        <time>2018-10-06T09:30:04.000Z</time>
      </trkpt>
      <trkpt lat="38.11979833" lon="-4.894495">
        <ele>527.0</ele>
        <time>2018-10-06T09:30:05.000Z</time>
      </trkpt>
      <trkpt lat="38.11975" lon="-4.89412">
        <ele>519.0</ele>
        <time>2018-10-06T09:30:06.000Z</time>
      </trkpt>
      <trkpt lat="38.119745" lon="-4.89410833">
        <ele>520.0</ele>
        <time>2018-10-06T09:30:07.000Z</time>
      </trkpt>
      <trkpt lat="38.11974" lon="-4.89409667">
        <ele>520.0</ele>
        <time>2018-10-06T09:30:08.000Z</time>
      </trkpt>
      <trkpt lat="38.11973333" lon="-4.894085">
        <ele>521.0</ele>
        <time>2018-10-06T09:30:09.000Z</time>
      </trkpt>
      <trkpt lat="38.11972833" lon="-4.89407667">
        <ele>522.0</ele>
        <time>2018-10-06T09:30:10.000Z</time>
      </trkpt>
      <trkpt lat="38.11972333" lon="-4.89406833">
        <ele>522.0</ele>
        <time>2018-10-06T09:30:11.000Z</time>
      </trkpt>
      <trkpt lat="38.11971667" lon="-4.89405667">
        <ele>523.0</ele>
        <time>2018-10-06T09:30:12.000Z</time>
      </trkpt>
      <trkpt lat="38.11970833" lon="-4.89405">
        <ele>523.0</ele>
        <time>2018-10-06T09:30:13.000Z</time>
      </trkpt>
      <trkpt lat="38.119705" lon="-4.89404167">
        <ele>523.0</ele>
        <time>2018-10-06T09:30:14.000Z</time>
      </trkpt>
      <trkpt lat="38.1197" lon="-4.89403667">
        <ele>524.0</ele>
        <time>2018-10-06T09:30:15.000Z</time>
      </trkpt>
      <trkpt lat="38.11969667" lon="-4.89403333">
        <ele>524.0</ele>
        <time>2018-10-06T09:30:16.000Z</time>
      </trkpt>
      <trkpt lat="38.11969333" lon="-4.89402667">
        <ele>524.0</ele>
        <time>2018-10-06T09:30:17.000Z</time>
      </trkpt>
      <trkpt lat="38.11969333" lon="-4.89402667">
        <ele>524.0</ele>
        <time>2018-10-06T09:30:18.000Z</time>
      </trkpt>
      <trkpt lat="38.11969333" lon="-4.89402667">
        <ele>524.0</ele>
        <time>2018-10-06T09:30:19.000Z</time>
      </trkpt>
      <trkpt lat="38.11969333" lon="-4.89402667">
        <ele>524.0</ele>
        <time>2018-10-06T09:30:20.000Z</time>
      </trkpt>
      <trkpt lat="38.11969333" lon="-4.89402667">
        <ele>524.0</ele>
        <time>2018-10-06T09:30:21.000Z</time>
      </trkpt>
      <trkpt lat="38.11969333" lon="-4.89402667">
        <ele>524.0</ele>
        <time>2018-10-06T09:30:22.000Z</time>
      </trkpt>
      <trkpt lat="38.11969333" lon="-4.89402667">
        <ele>524.0</ele>
        <time>2018-10-06T09:30:23.000Z</time>
      </trkpt>
      <trkpt lat="38.11969333" lon="-4.89402667">
        <ele>524.0</ele>
        <time>2018-10-06T09:30:24.000Z</time>
      </trkpt>
      <trkpt lat="38.11969333" lon="-4.89402667">
        <ele>524.0</ele>
        <time>2018-10-06T09:30:25.000Z</time>
      </trkpt>
      <trkpt lat="38.11969333" lon="-4.89402667">
        <ele>524.0</ele>
        <time>2018-10-06T09:30:26.000Z</time>
      </trkpt>
      <trkpt lat="38.11969333" lon="-4.89402667">
        <ele>524.0</ele>
        <time>2018-10-06T09:30:27.000Z</time>
      </trkpt>
      <trkpt lat="38.11969333" lon="-4.89402667">
        <ele>524.0</ele>
        <time>2018-10-06T09:30:28.000Z</time>
      </trkpt>
      <trkpt lat="38.11969333" lon="-4.89402667">
        <ele>524.0</ele>
        <time>2018-10-06T09:30:29.000Z</time>
      </trkpt>
      <trkpt lat="38.11969333" lon="-4.89402667">
        <ele>524.0</ele>
        <time>2018-10-06T09:30:30.000Z</time>
      </trkpt>
      <trkpt lat="38.11969333" lon="-4.89402667">
        <ele>524.0</ele>
        <time>2018-10-06T09:30:31.000Z</time>
      </trkpt>
      <trkpt lat="38.11969333" lon="-4.89402667">
        <ele>524.0</ele>
        <time>2018-10-06T09:30:32.000Z</time>
      </trkpt>
      <trkpt lat="38.11969333" lon="-4.89402667">
        <ele>524.0</ele>
        <time>2018-10-06T09:30:33.000Z</time>
      </trkpt>
      <trkpt lat="38.11969333" lon="-4.89402667">
        <ele>524.0</ele>
        <time>2018-10-06T09:30:34.000Z</time>
      </trkpt>
      <trkpt lat="38.11969333" lon="-4.89402667">
        <ele>524.0</ele>
        <time>2018-10-06T09:30:35.000Z</time>
      </trkpt>
      <trkpt lat="38.11969333" lon="-4.89402667">
        <ele>524.0</ele>
        <time>2018-10-06T09:30:36.000Z</time>
      </trkpt>
      <trkpt lat="38.11969333" lon="-4.89402667">
        <ele>524.0</ele>
        <time>2018-10-06T09:30:37.000Z</time>
      </trkpt>
      <trkpt lat="38.11969333" lon="-4.89402667">
        <ele>524.0</ele>
        <time>2018-10-06T09:30:38.000Z</time>
      </trkpt>
      <trkpt lat="38.11969333" lon="-4.89402667">
        <ele>524.0</ele>
        <time>2018-10-06T09:30:39.000Z</time>
      </trkpt>
      <trkpt lat="38.11969333" lon="-4.89402667">
        <ele>524.0</ele>
        <time>2018-10-06T09:30:40.000Z</time>
      </trkpt>
      <trkpt lat="38.11969333" lon="-4.89402667">
        <ele>524.0</ele>
        <time>2018-10-06T09:30:41.000Z</time>
      </trkpt>
      <trkpt lat="38.11969333" lon="-4.89402667">
        <ele>524.0</ele>
        <time>2018-10-06T09:30:42.000Z</time>
      </trkpt>
      <trkpt lat="38.11969333" lon="-4.89402667">
        <ele>524.0</ele>
        <time>2018-10-06T09:30:43.000Z</time>
      </trkpt>
      <trkpt lat="38.11969333" lon="-4.89402667">
        <ele>524.0</ele>
        <time>2018-10-06T09:30:44.000Z</time>
      </trkpt>
      <trkpt lat="38.11969333" lon="-4.89402667">
        <ele>524.0</ele>
        <time>2018-10-06T09:30:45.000Z</time>
      </trkpt>
      <trkpt lat="38.11969333" lon="-4.89402667">
        <ele>524.0</ele>
        <time>2018-10-06T09:30:46.000Z</time>
      </trkpt>
      <trkpt lat="38.11969333" lon="-4.89402667">
        <ele>524.0</ele>
        <time>2018-10-06T09:30:47.000Z</time>
      </trkpt>
      <trkpt lat="38.11969333" lon="-4.89402667">
        <ele>524.0</ele>
        <time>2018-10-06T09:30:48.000Z</time>
      </trkpt>
      <trkpt lat="38.11969333" lon="-4.89402667">
        <ele>524.0</ele>
        <time>2018-10-06T09:30:49.000Z</time>
      </trkpt>
      <trkpt lat="38.11969333" lon="-4.89402667">
        <ele>524.0</ele>
        <time>2018-10-06T09:30:50.000Z</time>
      </trkpt>
      <trkpt lat="38.11969333" lon="-4.89402667">
        <ele>524.0</ele>
        <time>2018-10-06T09:30:51.000Z</time>
      </trkpt>
      <trkpt lat="38.11969333" lon="-4.89402667">
        <ele>524.0</ele>
        <time>2018-10-06T09:30:52.000Z</time>
      </trkpt>
      <trkpt lat="38.11969333" lon="-4.89402667">
        <ele>524.0</ele>
        <time>2018-10-06T09:30:53.000Z</time>
      </trkpt>
      <trkpt lat="38.11969333" lon="-4.89402667">
        <ele>524.0</ele>
        <time>2018-10-06T09:30:54.000Z</time>
      </trkpt>
      <trkpt lat="38.11969333" lon="-4.89402667">
        <ele>524.0</ele>
        <time>2018-10-06T09:30:55.000Z</time>
      </trkpt>
      <trkpt lat="38.11969333" lon="-4.89402667">
        <ele>524.0</ele>
        <time>2018-10-06T09:30:56.000Z</time>
      </trkpt>
      <trkpt lat="38.11969333" lon="-4.89402667">
        <ele>524.0</ele>
        <time>2018-10-06T09:30:57.000Z</time>
      </trkpt>
      <trkpt lat="38.11969333" lon="-4.89402667">
        <ele>524.0</ele>
        <time>2018-10-06T09:30:58.000Z</time>
      </trkpt>
      <trkpt lat="38.11969333" lon="-4.89402667">
        <ele>524.0</ele>
        <time>2018-10-06T09:30:59.000Z</time>
      </trkpt>
      <trkpt lat="38.11969333" lon="-4.89402667">
        <ele>524.0</ele>
        <time>2018-10-06T09:31:00.000Z</time>
      </trkpt>
      <trkpt lat="38.11969333" lon="-4.89402667">
        <ele>524.0</ele>
        <time>2018-10-06T09:31:01.000Z</time>
      </trkpt>
      <trkpt lat="38.11969333" lon="-4.89402667">
        <ele>524.0</ele>
        <time>2018-10-06T09:31:02.000Z</time>
      </trkpt>
      <trkpt lat="38.11969333" lon="-4.89402667">
        <ele>524.0</ele>
        <time>2018-10-06T09:31:03.000Z</time>
      </trkpt>
      <trkpt lat="38.11969333" lon="-4.89402667">
        <ele>524.0</ele>
        <time>2018-10-06T09:31:04.000Z</time>
      </trkpt>
      <trkpt lat="38.11969333" lon="-4.89402667">
        <ele>524.0</ele>
        <time>2018-10-06T09:31:05.000Z</time>
      </trkpt>
      <trkpt lat="38.11968333" lon="-4.89406667">
        <ele>525.0</ele>
        <time>2018-10-06T09:31:06.000Z</time>
      </trkpt>
      <trkpt lat="38.11966833" lon="-4.89403667">
        <ele>524.0</ele>
        <time>2018-10-06T09:31:07.000Z</time>
      </trkpt>
      <trkpt lat="38.11964833" lon="-4.893985">
        <ele>524.0</ele>
        <time>2018-10-06T09:31:08.000Z</time>
      </trkpt>
      <trkpt lat="38.11964333" lon="-4.89398667">
        <ele>524.0</ele>
        <time>2018-10-06T09:31:09.000Z</time>
      </trkpt>
      <trkpt lat="38.11964167" lon="-4.89398833">
        <ele>523.0</ele>
        <time>2018-10-06T09:31:10.000Z</time>
      </trkpt>
      <trkpt lat="38.11963833" lon="-4.89399">
        <ele>523.0</ele>
        <time>2018-10-06T09:31:11.000Z</time>
      </trkpt>
      <trkpt lat="38.119635" lon="-4.89399">
        <ele>522.0</ele>
        <time>2018-10-06T09:31:12.000Z</time>
      </trkpt>
      <trkpt lat="38.11963167" lon="-4.89399">
        <ele>522.0</ele>
        <time>2018-10-06T09:31:13.000Z</time>
      </trkpt>
      <trkpt lat="38.11963" lon="-4.89399">
        <ele>521.0</ele>
        <time>2018-10-06T09:31:14.000Z</time>
      </trkpt>
      <trkpt lat="38.11962833" lon="-4.89398833">
        <ele>521.0</ele>
        <time>2018-10-06T09:31:15.000Z</time>
      </trkpt>
      <trkpt lat="38.11962667" lon="-4.89398833">
        <ele>521.0</ele>
        <time>2018-10-06T09:31:16.000Z</time>
      </trkpt>
      <trkpt lat="38.119625" lon="-4.89398833">
        <ele>520.0</ele>
        <time>2018-10-06T09:31:17.000Z</time>
      </trkpt>
      <trkpt lat="38.119625" lon="-4.89398833">
        <ele>520.0</ele>
        <time>2018-10-06T09:31:18.000Z</time>
      </trkpt>
      <trkpt lat="38.119625" lon="-4.89398833">
        <ele>520.0</ele>
        <time>2018-10-06T09:31:19.000Z</time>
      </trkpt>
      <trkpt lat="38.119625" lon="-4.89398833">
        <ele>520.0</ele>
        <time>2018-10-06T09:31:20.000Z</time>
      </trkpt>
      <trkpt lat="38.119625" lon="-4.89398833">
        <ele>520.0</ele>
        <time>2018-10-06T09:31:21.000Z</time>
      </trkpt>
      <trkpt lat="38.119625" lon="-4.89398833">
        <ele>520.0</ele>
        <time>2018-10-06T09:31:22.000Z</time>
      </trkpt>
      <trkpt lat="38.119625" lon="-4.89398833">
        <ele>520.0</ele>
        <time>2018-10-06T09:31:23.000Z</time>
      </trkpt>
      <trkpt lat="38.119625" lon="-4.89398833">
        <ele>520.0</ele>
        <time>2018-10-06T09:31:24.000Z</time>
      </trkpt>
      <trkpt lat="38.119625" lon="-4.89398833">
        <ele>520.0</ele>
        <time>2018-10-06T09:31:25.000Z</time>
      </trkpt>
      <trkpt lat="38.119625" lon="-4.89398833">
        <ele>520.0</ele>
        <time>2018-10-06T09:31:26.000Z</time>
      </trkpt>
      <trkpt lat="38.119625" lon="-4.89398833">
        <ele>520.0</ele>
        <time>2018-10-06T09:31:27.000Z</time>
      </trkpt>
      <trkpt lat="38.119625" lon="-4.89398833">
        <ele>520.0</ele>
        <time>2018-10-06T09:31:28.000Z</time>
      </trkpt>
      <trkpt lat="38.119625" lon="-4.89398833">
        <ele>520.0</ele>
        <time>2018-10-06T09:31:29.000Z</time>
      </trkpt>
      <trkpt lat="38.119625" lon="-4.89398833">
        <ele>520.0</ele>
        <time>2018-10-06T09:31:30.000Z</time>
      </trkpt>
      <trkpt lat="38.119625" lon="-4.89398833">
        <ele>520.0</ele>
        <time>2018-10-06T09:31:31.000Z</time>
      </trkpt>
      <trkpt lat="38.119625" lon="-4.89398833">
        <ele>520.0</ele>
        <time>2018-10-06T09:31:32.000Z</time>
      </trkpt>
      <trkpt lat="38.119625" lon="-4.89398833">
        <ele>520.0</ele>
        <time>2018-10-06T09:31:33.000Z</time>
      </trkpt>
      <trkpt lat="38.119625" lon="-4.89398833">
        <ele>520.0</ele>
        <time>2018-10-06T09:31:34.000Z</time>
      </trkpt>
      <trkpt lat="38.119625" lon="-4.89398833">
        <ele>520.0</ele>
        <time>2018-10-06T09:31:35.000Z</time>
      </trkpt>
      <trkpt lat="38.119625" lon="-4.89398833">
        <ele>520.0</ele>
        <time>2018-10-06T09:31:36.000Z</time>
      </trkpt>
      <trkpt lat="38.119625" lon="-4.89398833">
        <ele>520.0</ele>
        <time>2018-10-06T09:31:37.000Z</time>
      </trkpt>
      <trkpt lat="38.119625" lon="-4.89398833">
        <ele>520.0</ele>
        <time>2018-10-06T09:31:38.000Z</time>
      </trkpt>
      <trkpt lat="38.119625" lon="-4.89398833">
        <ele>520.0</ele>
        <time>2018-10-06T09:31:39.000Z</time>
      </trkpt>
      <trkpt lat="38.119625" lon="-4.89398833">
        <ele>520.0</ele>
        <time>2018-10-06T09:31:40.000Z</time>
      </trkpt>
      <trkpt lat="38.119625" lon="-4.89398833">
        <ele>520.0</ele>
        <time>2018-10-06T09:31:41.000Z</time>
      </trkpt>
      <trkpt lat="38.119625" lon="-4.89398833">
        <ele>520.0</ele>
        <time>2018-10-06T09:31:42.000Z</time>
      </trkpt>
      <trkpt lat="38.119625" lon="-4.89398833">
        <ele>520.0</ele>
        <time>2018-10-06T09:31:43.000Z</time>
      </trkpt>
      <trkpt lat="38.119625" lon="-4.89398833">
        <ele>520.0</ele>
        <time>2018-10-06T09:31:44.000Z</time>
      </trkpt>
      <trkpt lat="38.119625" lon="-4.89398833">
        <ele>520.0</ele>
        <time>2018-10-06T09:31:45.000Z</time>
      </trkpt>
      <trkpt lat="38.119625" lon="-4.89398833">
        <ele>520.0</ele>
        <time>2018-10-06T09:31:46.000Z</time>
      </trkpt>
      <trkpt lat="38.119625" lon="-4.89398833">
        <ele>520.0</ele>
        <time>2018-10-06T09:31:47.000Z</time>
      </trkpt>
      <trkpt lat="38.119625" lon="-4.89398833">
        <ele>520.0</ele>
        <time>2018-10-06T09:31:48.000Z</time>
      </trkpt>
      <trkpt lat="38.119625" lon="-4.89398833">
        <ele>520.0</ele>
        <time>2018-10-06T09:31:49.000Z</time>
      </trkpt>
      <trkpt lat="38.119625" lon="-4.89398833">
        <ele>520.0</ele>
        <time>2018-10-06T09:31:50.000Z</time>
      </trkpt>
      <trkpt lat="38.119625" lon="-4.89398833">
        <ele>520.0</ele>
        <time>2018-10-06T09:31:51.000Z</time>
      </trkpt>
      <trkpt lat="38.119625" lon="-4.89398833">
        <ele>520.0</ele>
        <time>2018-10-06T09:31:52.000Z</time>
      </trkpt>
      <trkpt lat="38.119625" lon="-4.89398833">
        <ele>520.0</ele>
        <time>2018-10-06T09:31:53.000Z</time>
      </trkpt>
      <trkpt lat="38.119625" lon="-4.89398833">
        <ele>520.0</ele>
        <time>2018-10-06T09:31:54.000Z</time>
      </trkpt>
      <trkpt lat="38.119625" lon="-4.89398833">
        <ele>520.0</ele>
        <time>2018-10-06T09:31:55.000Z</time>
      </trkpt>
      <trkpt lat="38.119625" lon="-4.89398833">
        <ele>520.0</ele>
        <time>2018-10-06T09:31:56.000Z</time>
      </trkpt>
      <trkpt lat="38.119625" lon="-4.89398833">
        <ele>520.0</ele>
        <time>2018-10-06T09:31:57.000Z</time>
      </trkpt>
      <trkpt lat="38.119625" lon="-4.89398833">
        <ele>520.0</ele>
        <time>2018-10-06T09:31:58.000Z</time>
      </trkpt>
      <trkpt lat="38.119625" lon="-4.89398833">
        <ele>520.0</ele>
        <time>2018-10-06T09:31:59.000Z</time>
      </trkpt>
      <trkpt lat="38.119625" lon="-4.89398833">
        <ele>520.0</ele>
        <time>2018-10-06T09:32:00.000Z</time>
      </trkpt>
      <trkpt lat="38.119625" lon="-4.89398833">
        <ele>520.0</ele>
        <time>2018-10-06T09:32:01.000Z</time>
      </trkpt>
      <trkpt lat="38.119625" lon="-4.89398833">
        <ele>520.0</ele>
        <time>2018-10-06T09:32:02.000Z</time>
      </trkpt>
      <trkpt lat="38.119625" lon="-4.89398833">
        <ele>520.0</ele>
        <time>2018-10-06T09:32:03.000Z</time>
      </trkpt>
      <trkpt lat="38.119625" lon="-4.89398833">
        <ele>520.0</ele>
        <time>2018-10-06T09:32:04.000Z</time>
      </trkpt>
      <trkpt lat="38.119625" lon="-4.89398833">
        <ele>520.0</ele>
        <time>2018-10-06T09:32:05.000Z</time>
      </trkpt>
      <trkpt lat="38.11953833" lon="-4.893565">
        <ele>515.0</ele>
        <time>2018-10-06T09:32:06.000Z</time>
      </trkpt>
      <trkpt lat="38.119535" lon="-4.89354833">
        <ele>516.0</ele>
        <time>2018-10-06T09:32:07.000Z</time>
      </trkpt>
      <trkpt lat="38.119535" lon="-4.89353167">
        <ele>516.0</ele>
        <time>2018-10-06T09:32:08.000Z</time>
      </trkpt>
      <trkpt lat="38.11953667" lon="-4.893515">
        <ele>517.0</ele>
        <time>2018-10-06T09:32:09.000Z</time>
      </trkpt>
      <trkpt lat="38.11953667" lon="-4.89349833">
        <ele>518.0</ele>
        <time>2018-10-06T09:32:10.000Z</time>
      </trkpt>
      <trkpt lat="38.11953667" lon="-4.89348333">
        <ele>518.0</ele>
        <time>2018-10-06T09:32:11.000Z</time>
      </trkpt>
      <trkpt lat="38.119535" lon="-4.89346667">
        <ele>519.0</ele>
        <time>2018-10-06T09:32:12.000Z</time>
      </trkpt>
      <trkpt lat="38.11953333" lon="-4.89345">
        <ele>520.0</ele>
        <time>2018-10-06T09:32:13.000Z</time>
      </trkpt>
      <trkpt lat="38.11953" lon="-4.89343167">
        <ele>520.0</ele>
        <time>2018-10-06T09:32:14.000Z</time>
      </trkpt>
      <trkpt lat="38.11952667" lon="-4.893415">
        <ele>521.0</ele>
        <time>2018-10-06T09:32:15.000Z</time>
      </trkpt>
      <trkpt lat="38.11952333" lon="-4.8934">
        <ele>521.0</ele>
        <time>2018-10-06T09:32:16.000Z</time>
      </trkpt>
      <trkpt lat="38.11952167" lon="-4.89338667">
        <ele>522.0</ele>
        <time>2018-10-06T09:32:17.000Z</time>
      </trkpt>
      <trkpt lat="38.11952167" lon="-4.89338667">
        <ele>522.0</ele>
        <time>2018-10-06T09:32:18.000Z</time>
      </trkpt>
      <trkpt lat="38.11952167" lon="-4.89338667">
        <ele>522.0</ele>
        <time>2018-10-06T09:32:19.000Z</time>
      </trkpt>
      <trkpt lat="38.11952167" lon="-4.89338667">
        <ele>522.0</ele>
        <time>2018-10-06T09:32:20.000Z</time>
      </trkpt>
      <trkpt lat="38.11952167" lon="-4.89338667">
        <ele>522.0</ele>
        <time>2018-10-06T09:32:21.000Z</time>
      </trkpt>
      <trkpt lat="38.11952167" lon="-4.89338667">
        <ele>522.0</ele>
        <time>2018-10-06T09:32:22.000Z</time>
      </trkpt>
      <trkpt lat="38.11952167" lon="-4.89338667">
        <ele>522.0</ele>
        <time>2018-10-06T09:32:23.000Z</time>
      </trkpt>
      <trkpt lat="38.11952167" lon="-4.89338667">
        <ele>522.0</ele>
        <time>2018-10-06T09:32:24.000Z</time>
      </trkpt>
      <trkpt lat="38.11952167" lon="-4.89338667">
        <ele>522.0</ele>
        <time>2018-10-06T09:32:25.000Z</time>
      </trkpt>
      <trkpt lat="38.11952167" lon="-4.89338667">
        <ele>522.0</ele>
        <time>2018-10-06T09:32:26.000Z</time>
      </trkpt>
      <trkpt lat="38.11952167" lon="-4.89338667">
        <ele>522.0</ele>
        <time>2018-10-06T09:32:27.000Z</time>
      </trkpt>
      <trkpt lat="38.11952167" lon="-4.89338667">
        <ele>522.0</ele>
        <time>2018-10-06T09:32:28.000Z</time>
      </trkpt>
      <trkpt lat="38.11952167" lon="-4.89338667">
        <ele>522.0</ele>
        <time>2018-10-06T09:32:29.000Z</time>
      </trkpt>
      <trkpt lat="38.11952167" lon="-4.89338667">
        <ele>522.0</ele>
        <time>2018-10-06T09:32:30.000Z</time>
      </trkpt>
      <trkpt lat="38.11952167" lon="-4.89338667">
        <ele>522.0</ele>
        <time>2018-10-06T09:32:31.000Z</time>
      </trkpt>
      <trkpt lat="38.11952167" lon="-4.89338667">
        <ele>522.0</ele>
        <time>2018-10-06T09:32:32.000Z</time>
      </trkpt>
      <trkpt lat="38.11952167" lon="-4.89338667">
        <ele>522.0</ele>
        <time>2018-10-06T09:32:33.000Z</time>
      </trkpt>
      <trkpt lat="38.11952167" lon="-4.89338667">
        <ele>522.0</ele>
        <time>2018-10-06T09:32:34.000Z</time>
      </trkpt>
      <trkpt lat="38.11952167" lon="-4.89338667">
        <ele>522.0</ele>
        <time>2018-10-06T09:32:35.000Z</time>
      </trkpt>
      <trkpt lat="38.11952167" lon="-4.89338667">
        <ele>522.0</ele>
        <time>2018-10-06T09:32:36.000Z</time>
      </trkpt>
      <trkpt lat="38.11952167" lon="-4.89338667">
        <ele>522.0</ele>
        <time>2018-10-06T09:32:37.000Z</time>
      </trkpt>
      <trkpt lat="38.11952167" lon="-4.89338667">
        <ele>522.0</ele>
        <time>2018-10-06T09:32:38.000Z</time>
      </trkpt>
      <trkpt lat="38.11952167" lon="-4.89338667">
        <ele>522.0</ele>
        <time>2018-10-06T09:32:39.000Z</time>
      </trkpt>
      <trkpt lat="38.11952167" lon="-4.89338667">
        <ele>522.0</ele>
        <time>2018-10-06T09:32:40.000Z</time>
      </trkpt>
      <trkpt lat="38.11952167" lon="-4.89338667">
        <ele>522.0</ele>
        <time>2018-10-06T09:32:41.000Z</time>
      </trkpt>
      <trkpt lat="38.11952167" lon="-4.89338667">
        <ele>522.0</ele>
        <time>2018-10-06T09:32:42.000Z</time>
      </trkpt>
      <trkpt lat="38.11952167" lon="-4.89338667">
        <ele>522.0</ele>
        <time>2018-10-06T09:32:43.000Z</time>
      </trkpt>
      <trkpt lat="38.11952167" lon="-4.89338667">
        <ele>522.0</ele>
        <time>2018-10-06T09:32:44.000Z</time>
      </trkpt>
      <trkpt lat="38.11952167" lon="-4.89338667">
        <ele>522.0</ele>
        <time>2018-10-06T09:32:45.000Z</time>
      </trkpt>
      <trkpt lat="38.11952167" lon="-4.89338667">
        <ele>522.0</ele>
        <time>2018-10-06T09:32:46.000Z</time>
      </trkpt>
      <trkpt lat="38.11952167" lon="-4.89338667">
        <ele>522.0</ele>
        <time>2018-10-06T09:32:47.000Z</time>
      </trkpt>
      <trkpt lat="38.11952167" lon="-4.89338667">
        <ele>522.0</ele>
        <time>2018-10-06T09:32:48.000Z</time>
      </trkpt>
      <trkpt lat="38.11952167" lon="-4.89338667">
        <ele>522.0</ele>
        <time>2018-10-06T09:32:49.000Z</time>
      </trkpt>
      <trkpt lat="38.11952167" lon="-4.89338667">
        <ele>522.0</ele>
        <time>2018-10-06T09:32:50.000Z</time>
      </trkpt>
      <trkpt lat="38.11952167" lon="-4.89338667">
        <ele>522.0</ele>
        <time>2018-10-06T09:32:51.000Z</time>
      </trkpt>
      <trkpt lat="38.11952167" lon="-4.89338667">
        <ele>522.0</ele>
        <time>2018-10-06T09:32:52.000Z</time>
      </trkpt>
      <trkpt lat="38.11952167" lon="-4.89338667">
        <ele>522.0</ele>
        <time>2018-10-06T09:32:53.000Z</time>
      </trkpt>
      <trkpt lat="38.11952167" lon="-4.89338667">
        <ele>522.0</ele>
        <time>2018-10-06T09:32:54.000Z</time>
      </trkpt>
      <trkpt lat="38.11952167" lon="-4.89338667">
        <ele>522.0</ele>
        <time>2018-10-06T09:32:55.000Z</time>
      </trkpt>
      <trkpt lat="38.11952167" lon="-4.89338667">
        <ele>522.0</ele>
        <time>2018-10-06T09:32:56.000Z</time>
      </trkpt>
      <trkpt lat="38.11952167" lon="-4.89338667">
        <ele>522.0</ele>
        <time>2018-10-06T09:32:57.000Z</time>
      </trkpt>
      <trkpt lat="38.11952167" lon="-4.89338667">
        <ele>522.0</ele>
        <time>2018-10-06T09:32:58.000Z</time>
      </trkpt>
      <trkpt lat="38.11952167" lon="-4.89338667">
        <ele>522.0</ele>
        <time>2018-10-06T09:32:59.000Z</time>
      </trkpt>
      <trkpt lat="38.11952167" lon="-4.89338667">
        <ele>522.0</ele>
        <time>2018-10-06T09:33:00.000Z</time>
      </trkpt>
      <trkpt lat="38.11952167" lon="-4.89338667">
        <ele>522.0</ele>
        <time>2018-10-06T09:33:01.000Z</time>
      </trkpt>
      <trkpt lat="38.11952167" lon="-4.89338667">
        <ele>522.0</ele>
        <time>2018-10-06T09:33:02.000Z</time>
      </trkpt>
      <trkpt lat="38.11952167" lon="-4.89338667">
        <ele>522.0</ele>
        <time>2018-10-06T09:33:03.000Z</time>
      </trkpt>
      <trkpt lat="38.11952167" lon="-4.89338667">
        <ele>522.0</ele>
        <time>2018-10-06T09:33:04.000Z</time>
      </trkpt>
      <trkpt lat="38.11952167" lon="-4.89338667">
        <ele>522.0</ele>
        <time>2018-10-06T09:33:05.000Z</time>
      </trkpt>
      <trkpt lat="38.11930167" lon="-4.89296">
        <ele>515.0</ele>
        <time>2018-10-06T09:33:06.000Z</time>
      </trkpt>
      <trkpt lat="38.11930167" lon="-4.89294">
        <ele>516.0</ele>
        <time>2018-10-06T09:33:07.000Z</time>
      </trkpt>
      <trkpt lat="38.11929833" lon="-4.89291833">
        <ele>517.0</ele>
        <time>2018-10-06T09:33:08.000Z</time>
      </trkpt>
      <trkpt lat="38.11929833" lon="-4.8929">
        <ele>519.0</ele>
        <time>2018-10-06T09:33:09.000Z</time>
      </trkpt>
      <trkpt lat="38.11929667" lon="-4.89288">
        <ele>520.0</ele>
        <time>2018-10-06T09:33:10.000Z</time>
      </trkpt>
      <trkpt lat="38.119295" lon="-4.89286167">
        <ele>521.0</ele>
        <time>2018-10-06T09:33:11.000Z</time>
      </trkpt>
      <trkpt lat="38.11929333" lon="-4.892845">
        <ele>522.0</ele>
        <time>2018-10-06T09:33:12.000Z</time>
      </trkpt>
      <trkpt lat="38.11929333" lon="-4.89282833">
        <ele>523.0</ele>
        <time>2018-10-06T09:33:13.000Z</time>
      </trkpt>
      <trkpt lat="38.11929333" lon="-4.89281167">
        <ele>524.0</ele>
        <time>2018-10-06T09:33:14.000Z</time>
      </trkpt>
      <trkpt lat="38.11929333" lon="-4.892795">
        <ele>525.0</ele>
        <time>2018-10-06T09:33:15.000Z</time>
      </trkpt>
      <trkpt lat="38.11929" lon="-4.89277667">
        <ele>525.0</ele>
        <time>2018-10-06T09:33:16.000Z</time>
      </trkpt>
      <trkpt lat="38.11928833" lon="-4.89276">
        <ele>526.0</ele>
        <time>2018-10-06T09:33:17.000Z</time>
      </trkpt>
      <trkpt lat="38.11928833" lon="-4.89276">
        <ele>526.0</ele>
        <time>2018-10-06T09:33:18.000Z</time>
      </trkpt>
      <trkpt lat="38.11935" lon="-4.89274833">
        <ele>514.0</ele>
        <time>2018-10-06T09:33:19.000Z</time>
      </trkpt>
      <trkpt lat="38.119345" lon="-4.89274">
        <ele>514.0</ele>
        <time>2018-10-06T09:33:20.000Z</time>
      </trkpt>
      <trkpt lat="38.119335" lon="-4.89272333">
        <ele>515.0</ele>
        <time>2018-10-06T09:33:21.000Z</time>
      </trkpt>
      <trkpt lat="38.11933" lon="-4.89270667">
        <ele>516.0</ele>
        <time>2018-10-06T09:33:22.000Z</time>
      </trkpt>
      <trkpt lat="38.11932333" lon="-4.89269167">
        <ele>517.0</ele>
        <time>2018-10-06T09:33:23.000Z</time>
      </trkpt>
      <trkpt lat="38.119315" lon="-4.89267667">
        <ele>519.0</ele>
        <time>2018-10-06T09:33:24.000Z</time>
      </trkpt>
      <trkpt lat="38.11930833" lon="-4.89266333">
        <ele>520.0</ele>
        <time>2018-10-06T09:33:25.000Z</time>
      </trkpt>
      <trkpt lat="38.11930333" lon="-4.89264833">
        <ele>521.0</ele>
        <time>2018-10-06T09:33:26.000Z</time>
      </trkpt>
      <trkpt lat="38.11929667" lon="-4.892635">
        <ele>522.0</ele>
        <time>2018-10-06T09:33:27.000Z</time>
      </trkpt>
      <trkpt lat="38.11929167" lon="-4.89262333">
        <ele>523.0</ele>
        <time>2018-10-06T09:33:28.000Z</time>
      </trkpt>
      <trkpt lat="38.119285" lon="-4.89261167">
        <ele>524.0</ele>
        <time>2018-10-06T09:33:29.000Z</time>
      </trkpt>
      <trkpt lat="38.11928" lon="-4.8926">
        <ele>524.0</ele>
        <time>2018-10-06T09:33:30.000Z</time>
      </trkpt>
      <trkpt lat="38.11927667" lon="-4.89258833">
        <ele>525.0</ele>
        <time>2018-10-06T09:33:31.000Z</time>
      </trkpt>
      <trkpt lat="38.11927667" lon="-4.89258833">
        <ele>525.0</ele>
        <time>2018-10-06T09:33:32.000Z</time>
      </trkpt>
      <trkpt lat="38.11927667" lon="-4.89258833">
        <ele>525.0</ele>
        <time>2018-10-06T09:33:33.000Z</time>
      </trkpt>
      <trkpt lat="38.11927667" lon="-4.89258833">
        <ele>525.0</ele>
        <time>2018-10-06T09:33:34.000Z</time>
      </trkpt>
      <trkpt lat="38.11927667" lon="-4.89258833">
        <ele>525.0</ele>
        <time>2018-10-06T09:33:35.000Z</time>
      </trkpt>
      <trkpt lat="38.11927667" lon="-4.89258833">
        <ele>525.0</ele>
        <time>2018-10-06T09:33:36.000Z</time>
      </trkpt>
      <trkpt lat="38.11927667" lon="-4.89258833">
        <ele>525.0</ele>
        <time>2018-10-06T09:33:37.000Z</time>
      </trkpt>
      <trkpt lat="38.11927667" lon="-4.89258833">
        <ele>525.0</ele>
        <time>2018-10-06T09:33:38.000Z</time>
      </trkpt>
      <trkpt lat="38.11927667" lon="-4.89258833">
        <ele>525.0</ele>
        <time>2018-10-06T09:33:39.000Z</time>
      </trkpt>
      <trkpt lat="38.11927667" lon="-4.89258833">
        <ele>525.0</ele>
        <time>2018-10-06T09:33:40.000Z</time>
      </trkpt>
      <trkpt lat="38.11927667" lon="-4.89258833">
        <ele>525.0</ele>
        <time>2018-10-06T09:33:41.000Z</time>
      </trkpt>
      <trkpt lat="38.11927667" lon="-4.89258833">
        <ele>525.0</ele>
        <time>2018-10-06T09:33:42.000Z</time>
      </trkpt>
      <trkpt lat="38.11927667" lon="-4.89258833">
        <ele>525.0</ele>
        <time>2018-10-06T09:33:43.000Z</time>
      </trkpt>
      <trkpt lat="38.11927667" lon="-4.89258833">
        <ele>525.0</ele>
        <time>2018-10-06T09:33:44.000Z</time>
      </trkpt>
      <trkpt lat="38.11927667" lon="-4.89258833">
        <ele>525.0</ele>
        <time>2018-10-06T09:33:45.000Z</time>
      </trkpt>
      <trkpt lat="38.11927667" lon="-4.89258833">
        <ele>525.0</ele>
        <time>2018-10-06T09:33:46.000Z</time>
      </trkpt>
      <trkpt lat="38.11927667" lon="-4.89258833">
        <ele>525.0</ele>
        <time>2018-10-06T09:33:47.000Z</time>
      </trkpt>
      <trkpt lat="38.11927667" lon="-4.89258833">
        <ele>525.0</ele>
        <time>2018-10-06T09:33:48.000Z</time>
      </trkpt>
      <trkpt lat="38.11927667" lon="-4.89258833">
        <ele>525.0</ele>
        <time>2018-10-06T09:33:49.000Z</time>
      </trkpt>
      <trkpt lat="38.11927667" lon="-4.89258833">
        <ele>525.0</ele>
        <time>2018-10-06T09:33:50.000Z</time>
      </trkpt>
      <trkpt lat="38.11927667" lon="-4.89258833">
        <ele>525.0</ele>
        <time>2018-10-06T09:33:51.000Z</time>
      </trkpt>
      <trkpt lat="38.11927667" lon="-4.89258833">
        <ele>525.0</ele>
        <time>2018-10-06T09:33:52.000Z</time>
      </trkpt>
      <trkpt lat="38.11927667" lon="-4.89258833">
        <ele>525.0</ele>
        <time>2018-10-06T09:33:53.000Z</time>
      </trkpt>
      <trkpt lat="38.11927667" lon="-4.89258833">
        <ele>525.0</ele>
        <time>2018-10-06T09:33:54.000Z</time>
      </trkpt>
      <trkpt lat="38.11927667" lon="-4.89258833">
        <ele>525.0</ele>
        <time>2018-10-06T09:33:55.000Z</time>
      </trkpt>
      <trkpt lat="38.11927667" lon="-4.89258833">
        <ele>525.0</ele>
        <time>2018-10-06T09:33:56.000Z</time>
      </trkpt>
      <trkpt lat="38.11927667" lon="-4.89258833">
        <ele>525.0</ele>
        <time>2018-10-06T09:33:57.000Z</time>
      </trkpt>
      <trkpt lat="38.11927667" lon="-4.89258833">
        <ele>525.0</ele>
        <time>2018-10-06T09:33:58.000Z</time>
      </trkpt>
      <trkpt lat="38.11927667" lon="-4.89258833">
        <ele>525.0</ele>
        <time>2018-10-06T09:33:59.000Z</time>
      </trkpt>
      <trkpt lat="38.11927667" lon="-4.89258833">
        <ele>525.0</ele>
        <time>2018-10-06T09:34:00.000Z</time>
      </trkpt>
      <trkpt lat="38.11927667" lon="-4.89258833">
        <ele>525.0</ele>
        <time>2018-10-06T09:34:01.000Z</time>
      </trkpt>
      <trkpt lat="38.11927667" lon="-4.89258833">
        <ele>525.0</ele>
        <time>2018-10-06T09:34:02.000Z</time>
      </trkpt>
      <trkpt lat="38.11927667" lon="-4.89258833">
        <ele>525.0</ele>
        <time>2018-10-06T09:34:03.000Z</time>
      </trkpt>
      <trkpt lat="38.11927667" lon="-4.89258833">
        <ele>525.0</ele>
        <time>2018-10-06T09:34:04.000Z</time>
      </trkpt>
      <trkpt lat="38.11927667" lon="-4.89258833">
        <ele>525.0</ele>
        <time>2018-10-06T09:34:05.000Z</time>
      </trkpt>
      <trkpt lat="38.11927667" lon="-4.89258833">
        <ele>525.0</ele>
        <time>2018-10-06T09:34:06.000Z</time>
      </trkpt>
      <trkpt lat="38.11927667" lon="-4.89258833">
        <ele>525.0</ele>
        <time>2018-10-06T09:34:07.000Z</time>
      </trkpt>
      <trkpt lat="38.11927667" lon="-4.89258833">
        <ele>525.0</ele>
        <time>2018-10-06T09:34:08.000Z</time>
      </trkpt>
      <trkpt lat="38.11927667" lon="-4.89258833">
        <ele>525.0</ele>
        <time>2018-10-06T09:34:09.000Z</time>
      </trkpt>
      <trkpt lat="38.11927667" lon="-4.89258833">
        <ele>525.0</ele>
        <time>2018-10-06T09:34:10.000Z</time>
      </trkpt>
      <trkpt lat="38.11927667" lon="-4.89258833">
        <ele>525.0</ele>
        <time>2018-10-06T09:34:11.000Z</time>
      </trkpt>
      <trkpt lat="38.11927667" lon="-4.89258833">
        <ele>525.0</ele>
        <time>2018-10-06T09:34:12.000Z</time>
      </trkpt>
      <trkpt lat="38.11927667" lon="-4.89258833">
        <ele>525.0</ele>
        <time>2018-10-06T09:34:13.000Z</time>
      </trkpt>
      <trkpt lat="38.11927667" lon="-4.89258833">
        <ele>525.0</ele>
        <time>2018-10-06T09:34:14.000Z</time>
      </trkpt>
      <trkpt lat="38.11927667" lon="-4.89258833">
        <ele>525.0</ele>
        <time>2018-10-06T09:34:15.000Z</time>
      </trkpt>
      <trkpt lat="38.11927667" lon="-4.89258833">
        <ele>525.0</ele>
        <time>2018-10-06T09:34:16.000Z</time>
      </trkpt>
      <trkpt lat="38.11927667" lon="-4.89258833">
        <ele>525.0</ele>
        <time>2018-10-06T09:34:17.000Z</time>
      </trkpt>
      <trkpt lat="38.11927667" lon="-4.89258833">
        <ele>525.0</ele>
        <time>2018-10-06T09:34:18.000Z</time>
      </trkpt>
      <trkpt lat="38.11927667" lon="-4.89258833">
        <ele>525.0</ele>
        <time>2018-10-06T09:34:19.000Z</time>
      </trkpt>
      <trkpt lat="38.11910667" lon="-4.89222">
        <ele>528.0</ele>
        <time>2018-10-06T09:34:20.000Z</time>
      </trkpt>
      <trkpt lat="38.11909833" lon="-4.89220333">
        <ele>528.0</ele>
        <time>2018-10-06T09:34:21.000Z</time>
      </trkpt>
      <trkpt lat="38.11908667" lon="-4.89217667">
        <ele>528.0</ele>
        <time>2018-10-06T09:34:22.000Z</time>
      </trkpt>
      <trkpt lat="38.11907667" lon="-4.89215333">
        <ele>529.0</ele>
        <time>2018-10-06T09:34:23.000Z</time>
      </trkpt>
      <trkpt lat="38.11907" lon="-4.89213">
        <ele>529.0</ele>
        <time>2018-10-06T09:34:24.000Z</time>
      </trkpt>
      <trkpt lat="38.11906167" lon="-4.89211">
        <ele>529.0</ele>
        <time>2018-10-06T09:34:25.000Z</time>
      </trkpt>
      <trkpt lat="38.11905333" lon="-4.89209">
        <ele>530.0</ele>
        <time>2018-10-06T09:34:26.000Z</time>
      </trkpt>
      <trkpt lat="38.119045" lon="-4.89206833">
        <ele>530.0</ele>
        <time>2018-10-06T09:34:27.000Z</time>
      </trkpt>
      <trkpt lat="38.11903833" lon="-4.89204833">
        <ele>530.0</ele>
        <time>2018-10-06T09:34:28.000Z</time>
      </trkpt>
      <trkpt lat="38.11903" lon="-4.89203">
        <ele>530.0</ele>
        <time>2018-10-06T09:34:29.000Z</time>
      </trkpt>
      <trkpt lat="38.119025" lon="-4.89201333">
        <ele>531.0</ele>
        <time>2018-10-06T09:34:30.000Z</time>
      </trkpt>
      <trkpt lat="38.11901833" lon="-4.89199667">
        <ele>531.0</ele>
        <time>2018-10-06T09:34:31.000Z</time>
      </trkpt>
      <trkpt lat="38.11901833" lon="-4.89199667">
        <ele>531.0</ele>
        <time>2018-10-06T09:34:32.000Z</time>
      </trkpt>
      <trkpt lat="38.11901833" lon="-4.89199667">
        <ele>531.0</ele>
        <time>2018-10-06T09:34:33.000Z</time>
      </trkpt>
      <trkpt lat="38.11901833" lon="-4.89199667">
        <ele>531.0</ele>
        <time>2018-10-06T09:34:34.000Z</time>
      </trkpt>
      <trkpt lat="38.11901833" lon="-4.89199667">
        <ele>531.0</ele>
        <time>2018-10-06T09:34:35.000Z</time>
      </trkpt>
      <trkpt lat="38.11901833" lon="-4.89199667">
        <ele>531.0</ele>
        <time>2018-10-06T09:34:36.000Z</time>
      </trkpt>
      <trkpt lat="38.11901833" lon="-4.89199667">
        <ele>531.0</ele>
        <time>2018-10-06T09:34:37.000Z</time>
      </trkpt>
      <trkpt lat="38.11901833" lon="-4.89199667">
        <ele>531.0</ele>
        <time>2018-10-06T09:34:38.000Z</time>
      </trkpt>
      <trkpt lat="38.11901833" lon="-4.89199667">
        <ele>531.0</ele>
        <time>2018-10-06T09:34:39.000Z</time>
      </trkpt>
      <trkpt lat="38.11901833" lon="-4.89199667">
        <ele>531.0</ele>
        <time>2018-10-06T09:34:40.000Z</time>
      </trkpt>
      <trkpt lat="38.11901833" lon="-4.89199667">
        <ele>531.0</ele>
        <time>2018-10-06T09:34:41.000Z</time>
      </trkpt>
      <trkpt lat="38.11901833" lon="-4.89199667">
        <ele>531.0</ele>
        <time>2018-10-06T09:34:42.000Z</time>
      </trkpt>
      <trkpt lat="38.11901833" lon="-4.89199667">
        <ele>531.0</ele>
        <time>2018-10-06T09:34:43.000Z</time>
      </trkpt>
      <trkpt lat="38.11901833" lon="-4.89199667">
        <ele>531.0</ele>
        <time>2018-10-06T09:34:44.000Z</time>
      </trkpt>
      <trkpt lat="38.11901833" lon="-4.89199667">
        <ele>531.0</ele>
        <time>2018-10-06T09:34:45.000Z</time>
      </trkpt>
      <trkpt lat="38.11901833" lon="-4.89199667">
        <ele>531.0</ele>
        <time>2018-10-06T09:34:46.000Z</time>
      </trkpt>
      <trkpt lat="38.11901833" lon="-4.89199667">
        <ele>531.0</ele>
        <time>2018-10-06T09:34:47.000Z</time>
      </trkpt>
      <trkpt lat="38.11901833" lon="-4.89199667">
        <ele>531.0</ele>
        <time>2018-10-06T09:34:48.000Z</time>
      </trkpt>
      <trkpt lat="38.11901833" lon="-4.89199667">
        <ele>531.0</ele>
        <time>2018-10-06T09:34:49.000Z</time>
      </trkpt>
      <trkpt lat="38.11901833" lon="-4.89199667">
        <ele>531.0</ele>
        <time>2018-10-06T09:34:50.000Z</time>
      </trkpt>
      <trkpt lat="38.11901833" lon="-4.89199667">
        <ele>531.0</ele>
        <time>2018-10-06T09:34:51.000Z</time>
      </trkpt>
      <trkpt lat="38.11901833" lon="-4.89199667">
        <ele>531.0</ele>
        <time>2018-10-06T09:34:52.000Z</time>
      </trkpt>
      <trkpt lat="38.11901833" lon="-4.89199667">
        <ele>531.0</ele>
        <time>2018-10-06T09:34:53.000Z</time>
      </trkpt>
      <trkpt lat="38.11901833" lon="-4.89199667">
        <ele>531.0</ele>
        <time>2018-10-06T09:34:54.000Z</time>
      </trkpt>
      <trkpt lat="38.11901833" lon="-4.89199667">
        <ele>531.0</ele>
        <time>2018-10-06T09:34:55.000Z</time>
      </trkpt>
      <trkpt lat="38.11901833" lon="-4.89199667">
        <ele>531.0</ele>
        <time>2018-10-06T09:34:56.000Z</time>
      </trkpt>
      <trkpt lat="38.11901833" lon="-4.89199667">
        <ele>531.0</ele>
        <time>2018-10-06T09:34:57.000Z</time>
      </trkpt>
      <trkpt lat="38.11901833" lon="-4.89199667">
        <ele>531.0</ele>
        <time>2018-10-06T09:34:58.000Z</time>
      </trkpt>
      <trkpt lat="38.11901833" lon="-4.89199667">
        <ele>531.0</ele>
        <time>2018-10-06T09:34:59.000Z</time>
      </trkpt>
      <trkpt lat="38.11901833" lon="-4.89199667">
        <ele>531.0</ele>
        <time>2018-10-06T09:35:00.000Z</time>
      </trkpt>
      <trkpt lat="38.11901833" lon="-4.89199667">
        <ele>531.0</ele>
        <time>2018-10-06T09:35:01.000Z</time>
      </trkpt>
      <trkpt lat="38.11901833" lon="-4.89199667">
        <ele>531.0</ele>
        <time>2018-10-06T09:35:02.000Z</time>
      </trkpt>
      <trkpt lat="38.11901833" lon="-4.89199667">
        <ele>531.0</ele>
        <time>2018-10-06T09:35:03.000Z</time>
      </trkpt>
      <trkpt lat="38.11901833" lon="-4.89199667">
        <ele>531.0</ele>
        <time>2018-10-06T09:35:04.000Z</time>
      </trkpt>
      <trkpt lat="38.11901833" lon="-4.89199667">
        <ele>531.0</ele>
        <time>2018-10-06T09:35:05.000Z</time>
      </trkpt>
      <trkpt lat="38.11901833" lon="-4.89199667">
        <ele>531.0</ele>
        <time>2018-10-06T09:35:06.000Z</time>
      </trkpt>
      <trkpt lat="38.11901833" lon="-4.89199667">
        <ele>531.0</ele>
        <time>2018-10-06T09:35:07.000Z</time>
      </trkpt>
      <trkpt lat="38.11901833" lon="-4.89199667">
        <ele>531.0</ele>
        <time>2018-10-06T09:35:08.000Z</time>
      </trkpt>
      <trkpt lat="38.11901833" lon="-4.89199667">
        <ele>531.0</ele>
        <time>2018-10-06T09:35:09.000Z</time>
      </trkpt>
      <trkpt lat="38.11901833" lon="-4.89199667">
        <ele>531.0</ele>
        <time>2018-10-06T09:35:10.000Z</time>
      </trkpt>
      <trkpt lat="38.11901833" lon="-4.89199667">
        <ele>531.0</ele>
        <time>2018-10-06T09:35:11.000Z</time>
      </trkpt>
      <trkpt lat="38.11901833" lon="-4.89199667">
        <ele>531.0</ele>
        <time>2018-10-06T09:35:12.000Z</time>
      </trkpt>
      <trkpt lat="38.11901833" lon="-4.89199667">
        <ele>531.0</ele>
        <time>2018-10-06T09:35:13.000Z</time>
      </trkpt>
      <trkpt lat="38.11901833" lon="-4.89199667">
        <ele>531.0</ele>
        <time>2018-10-06T09:35:14.000Z</time>
      </trkpt>
      <trkpt lat="38.11901833" lon="-4.89199667">
        <ele>531.0</ele>
        <time>2018-10-06T09:35:15.000Z</time>
      </trkpt>
      <trkpt lat="38.11901833" lon="-4.89199667">
        <ele>531.0</ele>
        <time>2018-10-06T09:35:16.000Z</time>
      </trkpt>
      <trkpt lat="38.11901833" lon="-4.89199667">
        <ele>531.0</ele>
        <time>2018-10-06T09:35:17.000Z</time>
      </trkpt>
      <trkpt lat="38.11901833" lon="-4.89199667">
        <ele>531.0</ele>
        <time>2018-10-06T09:35:18.000Z</time>
      </trkpt>
      <trkpt lat="38.11901833" lon="-4.89199667">
        <ele>531.0</ele>
        <time>2018-10-06T09:35:19.000Z</time>
      </trkpt>
      <trkpt lat="38.11890333" lon="-4.89186333">
        <ele>533.0</ele>
        <time>2018-10-06T09:35:20.000Z</time>
      </trkpt>
      <trkpt lat="38.11888667" lon="-4.89185667">
        <ele>533.0</ele>
        <time>2018-10-06T09:35:21.000Z</time>
      </trkpt>
      <trkpt lat="38.11886333" lon="-4.89185167">
        <ele>533.0</ele>
        <time>2018-10-06T09:35:22.000Z</time>
      </trkpt>
      <trkpt lat="38.11884167" lon="-4.89184333">
        <ele>533.0</ele>
        <time>2018-10-06T09:35:23.000Z</time>
      </trkpt>
      <trkpt lat="38.11882" lon="-4.891835">
        <ele>533.0</ele>
        <time>2018-10-06T09:35:24.000Z</time>
      </trkpt>
      <trkpt lat="38.11879833" lon="-4.89182833">
        <ele>533.0</ele>
        <time>2018-10-06T09:35:25.000Z</time>
      </trkpt>
      <trkpt lat="38.11877667" lon="-4.89182333">
        <ele>533.0</ele>
        <time>2018-10-06T09:35:26.000Z</time>
      </trkpt>
      <trkpt lat="38.11875667" lon="-4.891815">
        <ele>534.0</ele>
        <time>2018-10-06T09:35:27.000Z</time>
      </trkpt>
      <trkpt lat="38.11874" lon="-4.89180667">
        <ele>534.0</ele>
        <time>2018-10-06T09:35:28.000Z</time>
      </trkpt>
      <trkpt lat="38.11872333" lon="-4.89179667">
        <ele>534.0</ele>
        <time>2018-10-06T09:35:29.000Z</time>
      </trkpt>
      <trkpt lat="38.11870833" lon="-4.89178667">
        <ele>534.0</ele>
        <time>2018-10-06T09:35:30.000Z</time>
      </trkpt>
      <trkpt lat="38.11869167" lon="-4.89177833">
        <ele>534.0</ele>
        <time>2018-10-06T09:35:31.000Z</time>
      </trkpt>
      <trkpt lat="38.11869167" lon="-4.89177833">
        <ele>534.0</ele>
        <time>2018-10-06T09:35:32.000Z</time>
      </trkpt>
      <trkpt lat="38.11869167" lon="-4.89177833">
        <ele>534.0</ele>
        <time>2018-10-06T09:35:33.000Z</time>
      </trkpt>
      <trkpt lat="38.11869167" lon="-4.89177833">
        <ele>534.0</ele>
        <time>2018-10-06T09:35:34.000Z</time>
      </trkpt>
      <trkpt lat="38.11869167" lon="-4.89177833">
        <ele>534.0</ele>
        <time>2018-10-06T09:35:35.000Z</time>
      </trkpt>
      <trkpt lat="38.11869167" lon="-4.89177833">
        <ele>534.0</ele>
        <time>2018-10-06T09:35:36.000Z</time>
      </trkpt>
      <trkpt lat="38.11869167" lon="-4.89177833">
        <ele>534.0</ele>
        <time>2018-10-06T09:35:37.000Z</time>
      </trkpt>
      <trkpt lat="38.11869167" lon="-4.89177833">
        <ele>534.0</ele>
        <time>2018-10-06T09:35:38.000Z</time>
      </trkpt>
      <trkpt lat="38.11869167" lon="-4.89177833">
        <ele>534.0</ele>
        <time>2018-10-06T09:35:39.000Z</time>
      </trkpt>
      <trkpt lat="38.11869167" lon="-4.89177833">
        <ele>534.0</ele>
        <time>2018-10-06T09:35:40.000Z</time>
      </trkpt>
      <trkpt lat="38.11869167" lon="-4.89177833">
        <ele>534.0</ele>
        <time>2018-10-06T09:35:41.000Z</time>
      </trkpt>
      <trkpt lat="38.11869167" lon="-4.89177833">
        <ele>534.0</ele>
        <time>2018-10-06T09:35:42.000Z</time>
      </trkpt>
      <trkpt lat="38.11869167" lon="-4.89177833">
        <ele>534.0</ele>
        <time>2018-10-06T09:35:43.000Z</time>
      </trkpt>
      <trkpt lat="38.11869167" lon="-4.89177833">
        <ele>534.0</ele>
        <time>2018-10-06T09:35:44.000Z</time>
      </trkpt>
      <trkpt lat="38.11869167" lon="-4.89177833">
        <ele>534.0</ele>
        <time>2018-10-06T09:35:45.000Z</time>
      </trkpt>
      <trkpt lat="38.11869167" lon="-4.89177833">
        <ele>534.0</ele>
        <time>2018-10-06T09:35:46.000Z</time>
      </trkpt>
      <trkpt lat="38.11869167" lon="-4.89177833">
        <ele>534.0</ele>
        <time>2018-10-06T09:35:47.000Z</time>
      </trkpt>
      <trkpt lat="38.11869167" lon="-4.89177833">
        <ele>534.0</ele>
        <time>2018-10-06T09:35:48.000Z</time>
      </trkpt>
      <trkpt lat="38.11869167" lon="-4.89177833">
        <ele>534.0</ele>
        <time>2018-10-06T09:35:49.000Z</time>
      </trkpt>
      <trkpt lat="38.11869167" lon="-4.89177833">
        <ele>534.0</ele>
        <time>2018-10-06T09:35:50.000Z</time>
      </trkpt>
      <trkpt lat="38.11869167" lon="-4.89177833">
        <ele>534.0</ele>
        <time>2018-10-06T09:35:51.000Z</time>
      </trkpt>
      <trkpt lat="38.11869167" lon="-4.89177833">
        <ele>534.0</ele>
        <time>2018-10-06T09:35:52.000Z</time>
      </trkpt>
      <trkpt lat="38.11869167" lon="-4.89177833">
        <ele>534.0</ele>
        <time>2018-10-06T09:35:53.000Z</time>
      </trkpt>
      <trkpt lat="38.11869167" lon="-4.89177833">
        <ele>534.0</ele>
        <time>2018-10-06T09:35:54.000Z</time>
      </trkpt>
      <trkpt lat="38.11869167" lon="-4.89177833">
        <ele>534.0</ele>
        <time>2018-10-06T09:35:55.000Z</time>
      </trkpt>
      <trkpt lat="38.11869167" lon="-4.89177833">
        <ele>534.0</ele>
        <time>2018-10-06T09:35:56.000Z</time>
      </trkpt>
      <trkpt lat="38.11869167" lon="-4.89177833">
        <ele>534.0</ele>
        <time>2018-10-06T09:35:57.000Z</time>
      </trkpt>
      <trkpt lat="38.11869167" lon="-4.89177833">
        <ele>534.0</ele>
        <time>2018-10-06T09:35:58.000Z</time>
      </trkpt>
      <trkpt lat="38.11869167" lon="-4.89177833">
        <ele>534.0</ele>
        <time>2018-10-06T09:35:59.000Z</time>
      </trkpt>
      <trkpt lat="38.11869167" lon="-4.89177833">
        <ele>534.0</ele>
        <time>2018-10-06T09:36:00.000Z</time>
      </trkpt>
      <trkpt lat="38.11869167" lon="-4.89177833">
        <ele>534.0</ele>
        <time>2018-10-06T09:36:01.000Z</time>
      </trkpt>
      <trkpt lat="38.11869167" lon="-4.89177833">
        <ele>534.0</ele>
        <time>2018-10-06T09:36:02.000Z</time>
      </trkpt>
      <trkpt lat="38.11869167" lon="-4.89177833">
        <ele>534.0</ele>
        <time>2018-10-06T09:36:03.000Z</time>
      </trkpt>
      <trkpt lat="38.11869167" lon="-4.89177833">
        <ele>534.0</ele>
        <time>2018-10-06T09:36:04.000Z</time>
      </trkpt>
      <trkpt lat="38.11869167" lon="-4.89177833">
        <ele>534.0</ele>
        <time>2018-10-06T09:36:05.000Z</time>
      </trkpt>
      <trkpt lat="38.11869167" lon="-4.89177833">
        <ele>534.0</ele>
        <time>2018-10-06T09:36:06.000Z</time>
      </trkpt>
      <trkpt lat="38.11869167" lon="-4.89177833">
        <ele>534.0</ele>
        <time>2018-10-06T09:36:07.000Z</time>
      </trkpt>
      <trkpt lat="38.11869167" lon="-4.89177833">
        <ele>534.0</ele>
        <time>2018-10-06T09:36:08.000Z</time>
      </trkpt>
      <trkpt lat="38.11869167" lon="-4.89177833">
        <ele>534.0</ele>
        <time>2018-10-06T09:36:09.000Z</time>
      </trkpt>
      <trkpt lat="38.11869167" lon="-4.89177833">
        <ele>534.0</ele>
        <time>2018-10-06T09:36:10.000Z</time>
      </trkpt>
      <trkpt lat="38.11869167" lon="-4.89177833">
        <ele>534.0</ele>
        <time>2018-10-06T09:36:11.000Z</time>
      </trkpt>
      <trkpt lat="38.11869167" lon="-4.89177833">
        <ele>534.0</ele>
        <time>2018-10-06T09:36:12.000Z</time>
      </trkpt>
      <trkpt lat="38.11869167" lon="-4.89177833">
        <ele>534.0</ele>
        <time>2018-10-06T09:36:13.000Z</time>
      </trkpt>
      <trkpt lat="38.11869167" lon="-4.89177833">
        <ele>534.0</ele>
        <time>2018-10-06T09:36:14.000Z</time>
      </trkpt>
      <trkpt lat="38.11869167" lon="-4.89177833">
        <ele>534.0</ele>
        <time>2018-10-06T09:36:15.000Z</time>
      </trkpt>
      <trkpt lat="38.11869167" lon="-4.89177833">
        <ele>534.0</ele>
        <time>2018-10-06T09:36:16.000Z</time>
      </trkpt>
      <trkpt lat="38.11869167" lon="-4.89177833">
        <ele>534.0</ele>
        <time>2018-10-06T09:36:17.000Z</time>
      </trkpt>
      <trkpt lat="38.11869167" lon="-4.89177833">
        <ele>534.0</ele>
        <time>2018-10-06T09:36:18.000Z</time>
      </trkpt>
      <trkpt lat="38.11869167" lon="-4.89177833">
        <ele>534.0</ele>
        <time>2018-10-06T09:36:19.000Z</time>
      </trkpt>
      <trkpt lat="38.11848167" lon="-4.89157667">
        <ele>530.0</ele>
        <time>2018-10-06T09:36:20.000Z</time>
      </trkpt>
      <trkpt lat="38.118465" lon="-4.89156167">
        <ele>531.0</ele>
        <time>2018-10-06T09:36:21.000Z</time>
      </trkpt>
      <trkpt lat="38.11844333" lon="-4.89154167">
        <ele>532.0</ele>
        <time>2018-10-06T09:36:22.000Z</time>
      </trkpt>
      <trkpt lat="38.11841667" lon="-4.891525">
        <ele>532.0</ele>
        <time>2018-10-06T09:36:23.000Z</time>
      </trkpt>
      <trkpt lat="38.11839333" lon="-4.891505">
        <ele>533.0</ele>
        <time>2018-10-06T09:36:24.000Z</time>
      </trkpt>
      <trkpt lat="38.11837167" lon="-4.89148833">
        <ele>534.0</ele>
        <time>2018-10-06T09:36:25.000Z</time>
      </trkpt>
      <trkpt lat="38.11835333" lon="-4.89147167">
        <ele>534.0</ele>
        <time>2018-10-06T09:36:26.000Z</time>
      </trkpt>
      <trkpt lat="38.118335" lon="-4.89145333">
        <ele>535.0</ele>
        <time>2018-10-06T09:36:27.000Z</time>
      </trkpt>
      <trkpt lat="38.11831833" lon="-4.89143667">
        <ele>535.0</ele>
        <time>2018-10-06T09:36:28.000Z</time>
      </trkpt>
      <trkpt lat="38.11830167" lon="-4.89141833">
        <ele>536.0</ele>
        <time>2018-10-06T09:36:29.000Z</time>
      </trkpt>
      <trkpt lat="38.11828667" lon="-4.8914">
        <ele>536.0</ele>
        <time>2018-10-06T09:36:30.000Z</time>
      </trkpt>
      <trkpt lat="38.11827333" lon="-4.89138167">
        <ele>536.0</ele>
        <time>2018-10-06T09:36:31.000Z</time>
      </trkpt>
      <trkpt lat="38.11827333" lon="-4.89138167">
        <ele>536.0</ele>
        <time>2018-10-06T09:36:32.000Z</time>
      </trkpt>
      <trkpt lat="38.11827333" lon="-4.89138167">
        <ele>536.0</ele>
        <time>2018-10-06T09:36:33.000Z</time>
      </trkpt>
      <trkpt lat="38.11827333" lon="-4.89138167">
        <ele>536.0</ele>
        <time>2018-10-06T09:36:34.000Z</time>
      </trkpt>
      <trkpt lat="38.11827333" lon="-4.89138167">
        <ele>536.0</ele>
        <time>2018-10-06T09:36:35.000Z</time>
      </trkpt>
      <trkpt lat="38.11827333" lon="-4.89138167">
        <ele>536.0</ele>
        <time>2018-10-06T09:36:36.000Z</time>
      </trkpt>
      <trkpt lat="38.11827333" lon="-4.89138167">
        <ele>536.0</ele>
        <time>2018-10-06T09:36:37.000Z</time>
      </trkpt>
      <trkpt lat="38.11827333" lon="-4.89138167">
        <ele>536.0</ele>
        <time>2018-10-06T09:36:38.000Z</time>
      </trkpt>
      <trkpt lat="38.11827333" lon="-4.89138167">
        <ele>536.0</ele>
        <time>2018-10-06T09:36:39.000Z</time>
      </trkpt>
      <trkpt lat="38.11827333" lon="-4.89138167">
        <ele>536.0</ele>
        <time>2018-10-06T09:36:40.000Z</time>
      </trkpt>
      <trkpt lat="38.11827333" lon="-4.89138167">
        <ele>536.0</ele>
        <time>2018-10-06T09:36:41.000Z</time>
      </trkpt>
      <trkpt lat="38.11827333" lon="-4.89138167">
        <ele>536.0</ele>
        <time>2018-10-06T09:36:42.000Z</time>
      </trkpt>
      <trkpt lat="38.11827333" lon="-4.89138167">
        <ele>536.0</ele>
        <time>2018-10-06T09:36:43.000Z</time>
      </trkpt>
      <trkpt lat="38.11827333" lon="-4.89138167">
        <ele>536.0</ele>
        <time>2018-10-06T09:36:44.000Z</time>
      </trkpt>
      <trkpt lat="38.11827333" lon="-4.89138167">
        <ele>536.0</ele>
        <time>2018-10-06T09:36:45.000Z</time>
      </trkpt>
      <trkpt lat="38.11827333" lon="-4.89138167">
        <ele>536.0</ele>
        <time>2018-10-06T09:36:46.000Z</time>
      </trkpt>
      <trkpt lat="38.11827333" lon="-4.89138167">
        <ele>536.0</ele>
        <time>2018-10-06T09:36:47.000Z</time>
      </trkpt>
      <trkpt lat="38.11827333" lon="-4.89138167">
        <ele>536.0</ele>
        <time>2018-10-06T09:36:48.000Z</time>
      </trkpt>
      <trkpt lat="38.11827333" lon="-4.89138167">
        <ele>536.0</ele>
        <time>2018-10-06T09:36:49.000Z</time>
      </trkpt>
      <trkpt lat="38.11827333" lon="-4.89138167">
        <ele>536.0</ele>
        <time>2018-10-06T09:36:50.000Z</time>
      </trkpt>
      <trkpt lat="38.11827333" lon="-4.89138167">
        <ele>536.0</ele>
        <time>2018-10-06T09:36:51.000Z</time>
      </trkpt>
      <trkpt lat="38.11827333" lon="-4.89138167">
        <ele>536.0</ele>
        <time>2018-10-06T09:36:52.000Z</time>
      </trkpt>
      <trkpt lat="38.11827333" lon="-4.89138167">
        <ele>536.0</ele>
        <time>2018-10-06T09:36:53.000Z</time>
      </trkpt>
      <trkpt lat="38.11827333" lon="-4.89138167">
        <ele>536.0</ele>
        <time>2018-10-06T09:36:54.000Z</time>
      </trkpt>
      <trkpt lat="38.11827333" lon="-4.89138167">
        <ele>536.0</ele>
        <time>2018-10-06T09:36:55.000Z</time>
      </trkpt>
      <trkpt lat="38.11827333" lon="-4.89138167">
        <ele>536.0</ele>
        <time>2018-10-06T09:36:56.000Z</time>
      </trkpt>
      <trkpt lat="38.11827333" lon="-4.89138167">
        <ele>536.0</ele>
        <time>2018-10-06T09:36:57.000Z</time>
      </trkpt>
      <trkpt lat="38.11827333" lon="-4.89138167">
        <ele>536.0</ele>
        <time>2018-10-06T09:36:58.000Z</time>
      </trkpt>
      <trkpt lat="38.11827333" lon="-4.89138167">
        <ele>536.0</ele>
        <time>2018-10-06T09:36:59.000Z</time>
      </trkpt>
      <trkpt lat="38.11827333" lon="-4.89138167">
        <ele>536.0</ele>
        <time>2018-10-06T09:37:00.000Z</time>
      </trkpt>
      <trkpt lat="38.11827333" lon="-4.89138167">
        <ele>536.0</ele>
        <time>2018-10-06T09:37:01.000Z</time>
      </trkpt>
      <trkpt lat="38.11827333" lon="-4.89138167">
        <ele>536.0</ele>
        <time>2018-10-06T09:37:02.000Z</time>
      </trkpt>
      <trkpt lat="38.11827333" lon="-4.89138167">
        <ele>536.0</ele>
        <time>2018-10-06T09:37:03.000Z</time>
      </trkpt>
      <trkpt lat="38.11827333" lon="-4.89138167">
        <ele>536.0</ele>
        <time>2018-10-06T09:37:04.000Z</time>
      </trkpt>
      <trkpt lat="38.11827333" lon="-4.89138167">
        <ele>536.0</ele>
        <time>2018-10-06T09:37:05.000Z</time>
      </trkpt>
      <trkpt lat="38.11827333" lon="-4.89138167">
        <ele>536.0</ele>
        <time>2018-10-06T09:37:06.000Z</time>
      </trkpt>
      <trkpt lat="38.11827333" lon="-4.89138167">
        <ele>536.0</ele>
        <time>2018-10-06T09:37:07.000Z</time>
      </trkpt>
      <trkpt lat="38.11827333" lon="-4.89138167">
        <ele>536.0</ele>
        <time>2018-10-06T09:37:08.000Z</time>
      </trkpt>
      <trkpt lat="38.11827333" lon="-4.89138167">
        <ele>536.0</ele>
        <time>2018-10-06T09:37:09.000Z</time>
      </trkpt>
      <trkpt lat="38.11827333" lon="-4.89138167">
        <ele>536.0</ele>
        <time>2018-10-06T09:37:10.000Z</time>
      </trkpt>
      <trkpt lat="38.11827333" lon="-4.89138167">
        <ele>536.0</ele>
        <time>2018-10-06T09:37:11.000Z</time>
      </trkpt>
      <trkpt lat="38.11827333" lon="-4.89138167">
        <ele>536.0</ele>
        <time>2018-10-06T09:37:12.000Z</time>
      </trkpt>
      <trkpt lat="38.11827333" lon="-4.89138167">
        <ele>536.0</ele>
        <time>2018-10-06T09:37:13.000Z</time>
      </trkpt>
      <trkpt lat="38.11827333" lon="-4.89138167">
        <ele>536.0</ele>
        <time>2018-10-06T09:37:14.000Z</time>
      </trkpt>
      <trkpt lat="38.11827333" lon="-4.89138167">
        <ele>536.0</ele>
        <time>2018-10-06T09:37:15.000Z</time>
      </trkpt>
      <trkpt lat="38.11827333" lon="-4.89138167">
        <ele>536.0</ele>
        <time>2018-10-06T09:37:16.000Z</time>
      </trkpt>
      <trkpt lat="38.11827333" lon="-4.89138167">
        <ele>536.0</ele>
        <time>2018-10-06T09:37:17.000Z</time>
      </trkpt>
      <trkpt lat="38.11827333" lon="-4.89138167">
        <ele>536.0</ele>
        <time>2018-10-06T09:37:18.000Z</time>
      </trkpt>
      <trkpt lat="38.11827333" lon="-4.89138167">
        <ele>536.0</ele>
        <time>2018-10-06T09:37:19.000Z</time>
      </trkpt>
      <trkpt lat="38.118055" lon="-4.89101167">
        <ele>530.0</ele>
        <time>2018-10-06T09:37:20.000Z</time>
      </trkpt>
      <trkpt lat="38.118055" lon="-4.891005">
        <ele>531.0</ele>
        <time>2018-10-06T09:37:21.000Z</time>
      </trkpt>
      <trkpt lat="38.11804667" lon="-4.890995">
        <ele>532.0</ele>
        <time>2018-10-06T09:37:22.000Z</time>
      </trkpt>
      <trkpt lat="38.11803667" lon="-4.89098833">
        <ele>532.0</ele>
        <time>2018-10-06T09:37:23.000Z</time>
      </trkpt>
      <trkpt lat="38.11802667" lon="-4.89097667">
        <ele>533.0</ele>
        <time>2018-10-06T09:37:24.000Z</time>
      </trkpt>
      <trkpt lat="38.11801667" lon="-4.89096333">
        <ele>534.0</ele>
        <time>2018-10-06T09:37:25.000Z</time>
      </trkpt>
      <trkpt lat="38.118005" lon="-4.89094833">
        <ele>535.0</ele>
        <time>2018-10-06T09:37:26.000Z</time>
      </trkpt>
      <trkpt lat="38.11799667" lon="-4.890935">
        <ele>535.0</ele>
        <time>2018-10-06T09:37:27.000Z</time>
      </trkpt>
      <trkpt lat="38.11798667" lon="-4.89092167">
        <ele>536.0</ele>
        <time>2018-10-06T09:37:28.000Z</time>
      </trkpt>
      <trkpt lat="38.117975" lon="-4.89091">
        <ele>537.0</ele>
        <time>2018-10-06T09:37:29.000Z</time>
      </trkpt>
      <trkpt lat="38.11796333" lon="-4.89089833">
        <ele>538.0</ele>
        <time>2018-10-06T09:37:30.000Z</time>
      </trkpt>
      <trkpt lat="38.11795167" lon="-4.89088833">
        <ele>538.0</ele>
        <time>2018-10-06T09:37:31.000Z</time>
      </trkpt>
      <trkpt lat="38.11795167" lon="-4.89088833">
        <ele>538.0</ele>
        <time>2018-10-06T09:37:32.000Z</time>
      </trkpt>
      <trkpt lat="38.11795167" lon="-4.89088833">
        <ele>538.0</ele>
        <time>2018-10-06T09:37:33.000Z</time>
      </trkpt>
      <trkpt lat="38.11795167" lon="-4.89088833">
        <ele>538.0</ele>
        <time>2018-10-06T09:37:34.000Z</time>
      </trkpt>
      <trkpt lat="38.11795167" lon="-4.89088833">
        <ele>538.0</ele>
        <time>2018-10-06T09:37:35.000Z</time>
      </trkpt>
      <trkpt lat="38.11795167" lon="-4.89088833">
        <ele>538.0</ele>
        <time>2018-10-06T09:37:36.000Z</time>
      </trkpt>
      <trkpt lat="38.11795167" lon="-4.89088833">
        <ele>538.0</ele>
        <time>2018-10-06T09:37:37.000Z</time>
      </trkpt>
      <trkpt lat="38.11795167" lon="-4.89088833">
        <ele>538.0</ele>
        <time>2018-10-06T09:37:38.000Z</time>
      </trkpt>
      <trkpt lat="38.11795167" lon="-4.89088833">
        <ele>538.0</ele>
        <time>2018-10-06T09:37:39.000Z</time>
      </trkpt>
      <trkpt lat="38.11795167" lon="-4.89088833">
        <ele>538.0</ele>
        <time>2018-10-06T09:37:40.000Z</time>
      </trkpt>
      <trkpt lat="38.11795167" lon="-4.89088833">
        <ele>538.0</ele>
        <time>2018-10-06T09:37:41.000Z</time>
      </trkpt>
      <trkpt lat="38.11795167" lon="-4.89088833">
        <ele>538.0</ele>
        <time>2018-10-06T09:37:42.000Z</time>
      </trkpt>
      <trkpt lat="38.11795167" lon="-4.89088833">
        <ele>538.0</ele>
        <time>2018-10-06T09:37:43.000Z</time>
      </trkpt>
      <trkpt lat="38.11795167" lon="-4.89088833">
        <ele>538.0</ele>
        <time>2018-10-06T09:37:44.000Z</time>
      </trkpt>
      <trkpt lat="38.11795167" lon="-4.89088833">
        <ele>538.0</ele>
        <time>2018-10-06T09:37:45.000Z</time>
      </trkpt>
      <trkpt lat="38.11795167" lon="-4.89088833">
        <ele>538.0</ele>
        <time>2018-10-06T09:37:46.000Z</time>
      </trkpt>
      <trkpt lat="38.11795167" lon="-4.89088833">
        <ele>538.0</ele>
        <time>2018-10-06T09:37:47.000Z</time>
      </trkpt>
      <trkpt lat="38.11795167" lon="-4.89088833">
        <ele>538.0</ele>
        <time>2018-10-06T09:37:48.000Z</time>
      </trkpt>
      <trkpt lat="38.11795167" lon="-4.89088833">
        <ele>538.0</ele>
        <time>2018-10-06T09:37:49.000Z</time>
      </trkpt>
      <trkpt lat="38.11795167" lon="-4.89088833">
        <ele>538.0</ele>
        <time>2018-10-06T09:37:50.000Z</time>
      </trkpt>
      <trkpt lat="38.11795167" lon="-4.89088833">
        <ele>538.0</ele>
        <time>2018-10-06T09:37:51.000Z</time>
      </trkpt>
      <trkpt lat="38.11795167" lon="-4.89088833">
        <ele>538.0</ele>
        <time>2018-10-06T09:37:52.000Z</time>
      </trkpt>
      <trkpt lat="38.11795167" lon="-4.89088833">
        <ele>538.0</ele>
        <time>2018-10-06T09:37:53.000Z</time>
      </trkpt>
      <trkpt lat="38.11795167" lon="-4.89088833">
        <ele>538.0</ele>
        <time>2018-10-06T09:37:54.000Z</time>
      </trkpt>
      <trkpt lat="38.11795167" lon="-4.89088833">
        <ele>538.0</ele>
        <time>2018-10-06T09:37:55.000Z</time>
      </trkpt>
      <trkpt lat="38.11795167" lon="-4.89088833">
        <ele>538.0</ele>
        <time>2018-10-06T09:37:56.000Z</time>
      </trkpt>
      <trkpt lat="38.11795167" lon="-4.89088833">
        <ele>538.0</ele>
        <time>2018-10-06T09:37:57.000Z</time>
      </trkpt>
      <trkpt lat="38.11795167" lon="-4.89088833">
        <ele>538.0</ele>
        <time>2018-10-06T09:37:58.000Z</time>
      </trkpt>
      <trkpt lat="38.11795167" lon="-4.89088833">
        <ele>538.0</ele>
        <time>2018-10-06T09:37:59.000Z</time>
      </trkpt>
      <trkpt lat="38.11795167" lon="-4.89088833">
        <ele>538.0</ele>
        <time>2018-10-06T09:38:00.000Z</time>
      </trkpt>
      <trkpt lat="38.11795167" lon="-4.89088833">
        <ele>538.0</ele>
        <time>2018-10-06T09:38:01.000Z</time>
      </trkpt>
      <trkpt lat="38.11795167" lon="-4.89088833">
        <ele>538.0</ele>
        <time>2018-10-06T09:38:02.000Z</time>
      </trkpt>
      <trkpt lat="38.11795167" lon="-4.89088833">
        <ele>538.0</ele>
        <time>2018-10-06T09:38:03.000Z</time>
      </trkpt>
      <trkpt lat="38.11795167" lon="-4.89088833">
        <ele>538.0</ele>
        <time>2018-10-06T09:38:04.000Z</time>
      </trkpt>
      <trkpt lat="38.11795167" lon="-4.89088833">
        <ele>538.0</ele>
        <time>2018-10-06T09:38:05.000Z</time>
      </trkpt>
      <trkpt lat="38.11795167" lon="-4.89088833">
        <ele>538.0</ele>
        <time>2018-10-06T09:38:06.000Z</time>
      </trkpt>
      <trkpt lat="38.11795167" lon="-4.89088833">
        <ele>538.0</ele>
        <time>2018-10-06T09:38:07.000Z</time>
      </trkpt>
      <trkpt lat="38.11795167" lon="-4.89088833">
        <ele>538.0</ele>
        <time>2018-10-06T09:38:08.000Z</time>
      </trkpt>
      <trkpt lat="38.11795167" lon="-4.89088833">
        <ele>538.0</ele>
        <time>2018-10-06T09:38:09.000Z</time>
      </trkpt>
      <trkpt lat="38.11795167" lon="-4.89088833">
        <ele>538.0</ele>
        <time>2018-10-06T09:38:10.000Z</time>
      </trkpt>
      <trkpt lat="38.11795167" lon="-4.89088833">
        <ele>538.0</ele>
        <time>2018-10-06T09:38:11.000Z</time>
      </trkpt>
      <trkpt lat="38.11795167" lon="-4.89088833">
        <ele>538.0</ele>
        <time>2018-10-06T09:38:12.000Z</time>
      </trkpt>
      <trkpt lat="38.11795167" lon="-4.89088833">
        <ele>538.0</ele>
        <time>2018-10-06T09:38:13.000Z</time>
      </trkpt>
      <trkpt lat="38.11795167" lon="-4.89088833">
        <ele>538.0</ele>
        <time>2018-10-06T09:38:14.000Z</time>
      </trkpt>
      <trkpt lat="38.11795167" lon="-4.89088833">
        <ele>538.0</ele>
        <time>2018-10-06T09:38:15.000Z</time>
      </trkpt>
      <trkpt lat="38.11795167" lon="-4.89088833">
        <ele>538.0</ele>
        <time>2018-10-06T09:38:16.000Z</time>
      </trkpt>
      <trkpt lat="38.11795167" lon="-4.89088833">
        <ele>538.0</ele>
        <time>2018-10-06T09:38:17.000Z</time>
      </trkpt>
      <trkpt lat="38.11795167" lon="-4.89088833">
        <ele>538.0</ele>
        <time>2018-10-06T09:38:18.000Z</time>
      </trkpt>
      <trkpt lat="38.11795167" lon="-4.89088833">
        <ele>538.0</ele>
        <time>2018-10-06T09:38:19.000Z</time>
      </trkpt>
      <trkpt lat="38.11767833" lon="-4.890785">
        <ele>549.0</ele>
        <time>2018-10-06T09:38:20.000Z</time>
      </trkpt>
      <trkpt lat="38.11755667" lon="-4.89061667">
        <ele>547.0</ele>
        <time>2018-10-06T09:38:21.000Z</time>
      </trkpt>
      <trkpt lat="38.11755167" lon="-4.890615">
        <ele>546.0</ele>
        <time>2018-10-06T09:38:22.000Z</time>
      </trkpt>
      <trkpt lat="38.11754667" lon="-4.89061333">
        <ele>546.0</ele>
        <time>2018-10-06T09:38:23.000Z</time>
      </trkpt>
      <trkpt lat="38.11754" lon="-4.890615">
        <ele>546.0</ele>
        <time>2018-10-06T09:38:24.000Z</time>
      </trkpt>
      <trkpt lat="38.11753833" lon="-4.89062">
        <ele>546.0</ele>
        <time>2018-10-06T09:38:25.000Z</time>
      </trkpt>
      <trkpt lat="38.117535" lon="-4.89061833">
        <ele>546.0</ele>
        <time>2018-10-06T09:38:26.000Z</time>
      </trkpt>
      <trkpt lat="38.117535" lon="-4.890615">
        <ele>546.0</ele>
        <time>2018-10-06T09:38:27.000Z</time>
      </trkpt>
      <trkpt lat="38.117535" lon="-4.89061167">
        <ele>546.0</ele>
        <time>2018-10-06T09:38:28.000Z</time>
      </trkpt>
      <trkpt lat="38.11753333" lon="-4.89061">
        <ele>546.0</ele>
        <time>2018-10-06T09:38:29.000Z</time>
      </trkpt>
      <trkpt lat="38.11753333" lon="-4.89061">
        <ele>546.0</ele>
        <time>2018-10-06T09:38:29.000Z</time>
      </trkpt>
      <trkpt lat="38.11755167" lon="-4.89060333">
        <ele>540.0</ele>
        <time>2018-10-06T09:38:30.000Z</time>
      </trkpt>
      <trkpt lat="38.11753833" lon="-4.89056">
        <ele>553.0</ele>
        <time>2018-10-06T09:38:31.000Z</time>
      </trkpt>
      <trkpt lat="38.11753667" lon="-4.89056">
        <ele>554.0</ele>
        <time>2018-10-06T09:38:32.000Z</time>
      </trkpt>
      <trkpt lat="38.11752833" lon="-4.89056333">
        <ele>553.0</ele>
        <time>2018-10-06T09:38:33.000Z</time>
      </trkpt>
      <trkpt lat="38.11752" lon="-4.89056333">
        <ele>553.0</ele>
        <time>2018-10-06T09:38:34.000Z</time>
      </trkpt>
      <trkpt lat="38.11750667" lon="-4.890565">
        <ele>552.0</ele>
        <time>2018-10-06T09:38:35.000Z</time>
      </trkpt>
      <trkpt lat="38.11749667" lon="-4.89056333">
        <ele>552.0</ele>
        <time>2018-10-06T09:38:36.000Z</time>
      </trkpt>
      <trkpt lat="38.11748833" lon="-4.89056333">
        <ele>552.0</ele>
        <time>2018-10-06T09:38:37.000Z</time>
      </trkpt>
      <trkpt lat="38.11747667" lon="-4.89056333">
        <ele>551.0</ele>
        <time>2018-10-06T09:38:38.000Z</time>
      </trkpt>
      <trkpt lat="38.11746667" lon="-4.89056">
        <ele>551.0</ele>
        <time>2018-10-06T09:38:39.000Z</time>
      </trkpt>
      <trkpt lat="38.11745667" lon="-4.89056">
        <ele>551.0</ele>
        <time>2018-10-06T09:38:40.000Z</time>
      </trkpt>
      <trkpt lat="38.11744333" lon="-4.89056333">
        <ele>551.0</ele>
        <time>2018-10-06T09:38:41.000Z</time>
      </trkpt>
      <trkpt lat="38.11743333" lon="-4.89056667">
        <ele>551.0</ele>
        <time>2018-10-06T09:38:42.000Z</time>
      </trkpt>
      <trkpt lat="38.11742333" lon="-4.89056833">
        <ele>551.0</ele>
        <time>2018-10-06T09:38:43.000Z</time>
      </trkpt>
      <trkpt lat="38.11742333" lon="-4.89056833">
        <ele>551.0</ele>
        <time>2018-10-06T09:38:44.000Z</time>
      </trkpt>
      <trkpt lat="38.11742333" lon="-4.89056833">
        <ele>551.0</ele>
        <time>2018-10-06T09:38:45.000Z</time>
      </trkpt>
      <trkpt lat="38.11742333" lon="-4.89056833">
        <ele>551.0</ele>
        <time>2018-10-06T09:38:46.000Z</time>
      </trkpt>
      <trkpt lat="38.11742333" lon="-4.89056833">
        <ele>551.0</ele>
        <time>2018-10-06T09:38:47.000Z</time>
      </trkpt>
      <trkpt lat="38.11742333" lon="-4.89056833">
        <ele>551.0</ele>
        <time>2018-10-06T09:38:48.000Z</time>
      </trkpt>
      <trkpt lat="38.11742333" lon="-4.89056833">
        <ele>551.0</ele>
        <time>2018-10-06T09:38:49.000Z</time>
      </trkpt>
      <trkpt lat="38.11742333" lon="-4.89056833">
        <ele>551.0</ele>
        <time>2018-10-06T09:38:50.000Z</time>
      </trkpt>
      <trkpt lat="38.11742333" lon="-4.89056833">
        <ele>551.0</ele>
        <time>2018-10-06T09:38:51.000Z</time>
      </trkpt>
      <trkpt lat="38.11742333" lon="-4.89056833">
        <ele>551.0</ele>
        <time>2018-10-06T09:38:52.000Z</time>
      </trkpt>
      <trkpt lat="38.11742333" lon="-4.89056833">
        <ele>551.0</ele>
        <time>2018-10-06T09:38:53.000Z</time>
      </trkpt>
      <trkpt lat="38.11742333" lon="-4.89056833">
        <ele>551.0</ele>
        <time>2018-10-06T09:38:54.000Z</time>
      </trkpt>
      <trkpt lat="38.11742333" lon="-4.89056833">
        <ele>551.0</ele>
        <time>2018-10-06T09:38:55.000Z</time>
      </trkpt>
      <trkpt lat="38.11742333" lon="-4.89056833">
        <ele>551.0</ele>
        <time>2018-10-06T09:38:56.000Z</time>
      </trkpt>
      <trkpt lat="38.11742333" lon="-4.89056833">
        <ele>551.0</ele>
        <time>2018-10-06T09:38:57.000Z</time>
      </trkpt>
      <trkpt lat="38.11742333" lon="-4.89056833">
        <ele>551.0</ele>
        <time>2018-10-06T09:38:58.000Z</time>
      </trkpt>
      <trkpt lat="38.11742333" lon="-4.89056833">
        <ele>551.0</ele>
        <time>2018-10-06T09:38:59.000Z</time>
      </trkpt>
      <trkpt lat="38.11742333" lon="-4.89056833">
        <ele>551.0</ele>
        <time>2018-10-06T09:39:00.000Z</time>
      </trkpt>
      <trkpt lat="38.11742333" lon="-4.89056833">
        <ele>551.0</ele>
        <time>2018-10-06T09:39:01.000Z</time>
      </trkpt>
      <trkpt lat="38.11742333" lon="-4.89056833">
        <ele>551.0</ele>
        <time>2018-10-06T09:39:02.000Z</time>
      </trkpt>
      <trkpt lat="38.11742333" lon="-4.89056833">
        <ele>551.0</ele>
        <time>2018-10-06T09:39:03.000Z</time>
      </trkpt>
      <trkpt lat="38.11742333" lon="-4.89056833">
        <ele>551.0</ele>
        <time>2018-10-06T09:39:04.000Z</time>
      </trkpt>
      <trkpt lat="38.11742333" lon="-4.89056833">
        <ele>551.0</ele>
        <time>2018-10-06T09:39:05.000Z</time>
      </trkpt>
      <trkpt lat="38.11742333" lon="-4.89056833">
        <ele>551.0</ele>
        <time>2018-10-06T09:39:06.000Z</time>
      </trkpt>
      <trkpt lat="38.11742333" lon="-4.89056833">
        <ele>551.0</ele>
        <time>2018-10-06T09:39:07.000Z</time>
      </trkpt>
      <trkpt lat="38.11742333" lon="-4.89056833">
        <ele>551.0</ele>
        <time>2018-10-06T09:39:08.000Z</time>
      </trkpt>
      <trkpt lat="38.11742333" lon="-4.89056833">
        <ele>551.0</ele>
        <time>2018-10-06T09:39:09.000Z</time>
      </trkpt>
      <trkpt lat="38.11742333" lon="-4.89056833">
        <ele>551.0</ele>
        <time>2018-10-06T09:39:10.000Z</time>
      </trkpt>
      <trkpt lat="38.11742333" lon="-4.89056833">
        <ele>551.0</ele>
        <time>2018-10-06T09:39:11.000Z</time>
      </trkpt>
      <trkpt lat="38.11742333" lon="-4.89056833">
        <ele>551.0</ele>
        <time>2018-10-06T09:39:12.000Z</time>
      </trkpt>
      <trkpt lat="38.11742333" lon="-4.89056833">
        <ele>551.0</ele>
        <time>2018-10-06T09:39:13.000Z</time>
      </trkpt>
      <trkpt lat="38.11742333" lon="-4.89056833">
        <ele>551.0</ele>
        <time>2018-10-06T09:39:14.000Z</time>
      </trkpt>
      <trkpt lat="38.11742333" lon="-4.89056833">
        <ele>551.0</ele>
        <time>2018-10-06T09:39:15.000Z</time>
      </trkpt>
      <trkpt lat="38.11742333" lon="-4.89056833">
        <ele>551.0</ele>
        <time>2018-10-06T09:39:16.000Z</time>
      </trkpt>
      <trkpt lat="38.11742333" lon="-4.89056833">
        <ele>551.0</ele>
        <time>2018-10-06T09:39:17.000Z</time>
      </trkpt>
      <trkpt lat="38.11742333" lon="-4.89056833">
        <ele>551.0</ele>
        <time>2018-10-06T09:39:18.000Z</time>
      </trkpt>
      <trkpt lat="38.11742333" lon="-4.89056833">
        <ele>551.0</ele>
        <time>2018-10-06T09:39:19.000Z</time>
      </trkpt>
      <trkpt lat="38.11742333" lon="-4.89056833">
        <ele>551.0</ele>
        <time>2018-10-06T09:39:20.000Z</time>
      </trkpt>
      <trkpt lat="38.11742333" lon="-4.89056833">
        <ele>551.0</ele>
        <time>2018-10-06T09:39:21.000Z</time>
      </trkpt>
      <trkpt lat="38.11742333" lon="-4.89056833">
        <ele>551.0</ele>
        <time>2018-10-06T09:39:22.000Z</time>
      </trkpt>
      <trkpt lat="38.11742333" lon="-4.89056833">
        <ele>551.0</ele>
        <time>2018-10-06T09:39:23.000Z</time>
      </trkpt>
      <trkpt lat="38.11742333" lon="-4.89056833">
        <ele>551.0</ele>
        <time>2018-10-06T09:39:24.000Z</time>
      </trkpt>
      <trkpt lat="38.11742333" lon="-4.89056833">
        <ele>551.0</ele>
        <time>2018-10-06T09:39:25.000Z</time>
      </trkpt>
      <trkpt lat="38.11742333" lon="-4.89056833">
        <ele>551.0</ele>
        <time>2018-10-06T09:39:26.000Z</time>
      </trkpt>
      <trkpt lat="38.11742333" lon="-4.89056833">
        <ele>551.0</ele>
        <time>2018-10-06T09:39:27.000Z</time>
      </trkpt>
      <trkpt lat="38.11742333" lon="-4.89056833">
        <ele>551.0</ele>
        <time>2018-10-06T09:39:28.000Z</time>
      </trkpt>
      <trkpt lat="38.11742333" lon="-4.89056833">
        <ele>551.0</ele>
        <time>2018-10-06T09:39:29.000Z</time>
      </trkpt>
      <trkpt lat="38.11742333" lon="-4.89056833">
        <ele>551.0</ele>
        <time>2018-10-06T09:39:30.000Z</time>
      </trkpt>
      <trkpt lat="38.11726833" lon="-4.89032167">
        <ele>548.0</ele>
        <time>2018-10-06T09:39:31.000Z</time>
      </trkpt>
      <trkpt lat="38.11708667" lon="-4.89045167">
        <ele>556.0</ele>
        <time>2018-10-06T09:39:32.000Z</time>
      </trkpt>
      <trkpt lat="38.11707" lon="-4.89045167">
        <ele>556.0</ele>
        <time>2018-10-06T09:39:33.000Z</time>
      </trkpt>
      <trkpt lat="38.11705833" lon="-4.89046">
        <ele>555.0</ele>
        <time>2018-10-06T09:39:34.000Z</time>
      </trkpt>
      <trkpt lat="38.11703833" lon="-4.89046833">
        <ele>555.0</ele>
        <time>2018-10-06T09:39:35.000Z</time>
      </trkpt>
      <trkpt lat="38.11701833" lon="-4.89047667">
        <ele>554.0</ele>
        <time>2018-10-06T09:39:36.000Z</time>
      </trkpt>
      <trkpt lat="38.11700333" lon="-4.89048333">
        <ele>554.0</ele>
        <time>2018-10-06T09:39:37.000Z</time>
      </trkpt>
      <trkpt lat="38.11699" lon="-4.89048667">
        <ele>554.0</ele>
        <time>2018-10-06T09:39:38.000Z</time>
      </trkpt>
      <trkpt lat="38.11698" lon="-4.89049333">
        <ele>553.0</ele>
        <time>2018-10-06T09:39:39.000Z</time>
      </trkpt>
      <trkpt lat="38.11697333" lon="-4.89049833">
        <ele>553.0</ele>
        <time>2018-10-06T09:39:40.000Z</time>
      </trkpt>
      <trkpt lat="38.11696667" lon="-4.89050333">
        <ele>553.0</ele>
        <time>2018-10-06T09:39:41.000Z</time>
      </trkpt>
      <trkpt lat="38.11696" lon="-4.89051">
        <ele>552.0</ele>
        <time>2018-10-06T09:39:42.000Z</time>
      </trkpt>
      <trkpt lat="38.11695667" lon="-4.89051333">
        <ele>552.0</ele>
        <time>2018-10-06T09:39:43.000Z</time>
      </trkpt>
      <trkpt lat="38.11695667" lon="-4.89051333">
        <ele>552.0</ele>
        <time>2018-10-06T09:39:44.000Z</time>
      </trkpt>
      <trkpt lat="38.11695667" lon="-4.89051333">
        <ele>552.0</ele>
        <time>2018-10-06T09:39:45.000Z</time>
      </trkpt>
      <trkpt lat="38.11695667" lon="-4.89051333">
        <ele>552.0</ele>
        <time>2018-10-06T09:39:46.000Z</time>
      </trkpt>
      <trkpt lat="38.11695667" lon="-4.89051333">
        <ele>552.0</ele>
        <time>2018-10-06T09:39:47.000Z</time>
      </trkpt>
      <trkpt lat="38.11695667" lon="-4.89051333">
        <ele>552.0</ele>
        <time>2018-10-06T09:39:48.000Z</time>
      </trkpt>
      <trkpt lat="38.11695667" lon="-4.89051333">
        <ele>552.0</ele>
        <time>2018-10-06T09:39:49.000Z</time>
      </trkpt>
      <trkpt lat="38.11695667" lon="-4.89051333">
        <ele>552.0</ele>
        <time>2018-10-06T09:39:50.000Z</time>
      </trkpt>
      <trkpt lat="38.11695667" lon="-4.89051333">
        <ele>552.0</ele>
        <time>2018-10-06T09:39:51.000Z</time>
      </trkpt>
      <trkpt lat="38.11695667" lon="-4.89051333">
        <ele>552.0</ele>
        <time>2018-10-06T09:39:52.000Z</time>
      </trkpt>
      <trkpt lat="38.11695667" lon="-4.89051333">
        <ele>552.0</ele>
        <time>2018-10-06T09:39:53.000Z</time>
      </trkpt>
      <trkpt lat="38.11695667" lon="-4.89051333">
        <ele>552.0</ele>
        <time>2018-10-06T09:39:54.000Z</time>
      </trkpt>
      <trkpt lat="38.11695667" lon="-4.89051333">
        <ele>552.0</ele>
        <time>2018-10-06T09:39:55.000Z</time>
      </trkpt>
      <trkpt lat="38.11695667" lon="-4.89051333">
        <ele>552.0</ele>
        <time>2018-10-06T09:39:56.000Z</time>
      </trkpt>
      <trkpt lat="38.11695667" lon="-4.89051333">
        <ele>552.0</ele>
        <time>2018-10-06T09:39:57.000Z</time>
      </trkpt>
      <trkpt lat="38.11695667" lon="-4.89051333">
        <ele>552.0</ele>
        <time>2018-10-06T09:39:58.000Z</time>
      </trkpt>
      <trkpt lat="38.11695667" lon="-4.89051333">
        <ele>552.0</ele>
        <time>2018-10-06T09:39:59.000Z</time>
      </trkpt>
      <trkpt lat="38.11695667" lon="-4.89051333">
        <ele>552.0</ele>
        <time>2018-10-06T09:40:00.000Z</time>
      </trkpt>
      <trkpt lat="38.11695667" lon="-4.89051333">
        <ele>552.0</ele>
        <time>2018-10-06T09:40:01.000Z</time>
      </trkpt>
      <trkpt lat="38.11695667" lon="-4.89051333">
        <ele>552.0</ele>
        <time>2018-10-06T09:40:02.000Z</time>
      </trkpt>
      <trkpt lat="38.11695667" lon="-4.89051333">
        <ele>552.0</ele>
        <time>2018-10-06T09:40:03.000Z</time>
      </trkpt>
      <trkpt lat="38.11695667" lon="-4.89051333">
        <ele>552.0</ele>
        <time>2018-10-06T09:40:04.000Z</time>
      </trkpt>
      <trkpt lat="38.11695667" lon="-4.89051333">
        <ele>552.0</ele>
        <time>2018-10-06T09:40:05.000Z</time>
      </trkpt>
      <trkpt lat="38.11695667" lon="-4.89051333">
        <ele>552.0</ele>
        <time>2018-10-06T09:40:06.000Z</time>
      </trkpt>
      <trkpt lat="38.11695667" lon="-4.89051333">
        <ele>552.0</ele>
        <time>2018-10-06T09:40:07.000Z</time>
      </trkpt>
      <trkpt lat="38.11695667" lon="-4.89051333">
        <ele>552.0</ele>
        <time>2018-10-06T09:40:08.000Z</time>
      </trkpt>
      <trkpt lat="38.11695667" lon="-4.89051333">
        <ele>552.0</ele>
        <time>2018-10-06T09:40:09.000Z</time>
      </trkpt>
      <trkpt lat="38.11695667" lon="-4.89051333">
        <ele>552.0</ele>
        <time>2018-10-06T09:40:10.000Z</time>
      </trkpt>
      <trkpt lat="38.11695667" lon="-4.89051333">
        <ele>552.0</ele>
        <time>2018-10-06T09:40:11.000Z</time>
      </trkpt>
      <trkpt lat="38.11695667" lon="-4.89051333">
        <ele>552.0</ele>
        <time>2018-10-06T09:40:12.000Z</time>
      </trkpt>
      <trkpt lat="38.11695667" lon="-4.89051333">
        <ele>552.0</ele>
        <time>2018-10-06T09:40:13.000Z</time>
      </trkpt>
      <trkpt lat="38.11695667" lon="-4.89051333">
        <ele>552.0</ele>
        <time>2018-10-06T09:40:14.000Z</time>
      </trkpt>
      <trkpt lat="38.11695667" lon="-4.89051333">
        <ele>552.0</ele>
        <time>2018-10-06T09:40:15.000Z</time>
      </trkpt>
      <trkpt lat="38.11695667" lon="-4.89051333">
        <ele>552.0</ele>
        <time>2018-10-06T09:40:16.000Z</time>
      </trkpt>
      <trkpt lat="38.11695667" lon="-4.89051333">
        <ele>552.0</ele>
        <time>2018-10-06T09:40:17.000Z</time>
      </trkpt>
      <trkpt lat="38.11695667" lon="-4.89051333">
        <ele>552.0</ele>
        <time>2018-10-06T09:40:18.000Z</time>
      </trkpt>
      <trkpt lat="38.11695667" lon="-4.89051333">
        <ele>552.0</ele>
        <time>2018-10-06T09:40:19.000Z</time>
      </trkpt>
      <trkpt lat="38.11695667" lon="-4.89051333">
        <ele>552.0</ele>
        <time>2018-10-06T09:40:20.000Z</time>
      </trkpt>
      <trkpt lat="38.11695667" lon="-4.89051333">
        <ele>552.0</ele>
        <time>2018-10-06T09:40:21.000Z</time>
      </trkpt>
      <trkpt lat="38.11695667" lon="-4.89051333">
        <ele>552.0</ele>
        <time>2018-10-06T09:40:22.000Z</time>
      </trkpt>
      <trkpt lat="38.11695667" lon="-4.89051333">
        <ele>552.0</ele>
        <time>2018-10-06T09:40:23.000Z</time>
      </trkpt>
      <trkpt lat="38.11695667" lon="-4.89051333">
        <ele>552.0</ele>
        <time>2018-10-06T09:40:24.000Z</time>
      </trkpt>
      <trkpt lat="38.11695667" lon="-4.89051333">
        <ele>552.0</ele>
        <time>2018-10-06T09:40:25.000Z</time>
      </trkpt>
      <trkpt lat="38.11695667" lon="-4.89051333">
        <ele>552.0</ele>
        <time>2018-10-06T09:40:26.000Z</time>
      </trkpt>
      <trkpt lat="38.11695667" lon="-4.89051333">
        <ele>552.0</ele>
        <time>2018-10-06T09:40:27.000Z</time>
      </trkpt>
      <trkpt lat="38.11695667" lon="-4.89051333">
        <ele>552.0</ele>
        <time>2018-10-06T09:40:28.000Z</time>
      </trkpt>
      <trkpt lat="38.11695667" lon="-4.89051333">
        <ele>552.0</ele>
        <time>2018-10-06T09:40:29.000Z</time>
      </trkpt>
      <trkpt lat="38.11695667" lon="-4.89051333">
        <ele>552.0</ele>
        <time>2018-10-06T09:40:30.000Z</time>
      </trkpt>
      <trkpt lat="38.11695667" lon="-4.89051333">
        <ele>552.0</ele>
        <time>2018-10-06T09:40:31.000Z</time>
      </trkpt>
      <trkpt lat="38.116765" lon="-4.89034333">
        <ele>548.0</ele>
        <time>2018-10-06T09:40:32.000Z</time>
      </trkpt>
      <trkpt lat="38.11667" lon="-4.89039">
        <ele>547.0</ele>
        <time>2018-10-06T09:40:33.000Z</time>
      </trkpt>
      <trkpt lat="38.116665" lon="-4.89038167">
        <ele>547.0</ele>
        <time>2018-10-06T09:40:34.000Z</time>
      </trkpt>
      <trkpt lat="38.11665833" lon="-4.89037833">
        <ele>547.0</ele>
        <time>2018-10-06T09:40:35.000Z</time>
      </trkpt>
      <trkpt lat="38.11665" lon="-4.89036833">
        <ele>548.0</ele>
        <time>2018-10-06T09:40:36.000Z</time>
      </trkpt>
      <trkpt lat="38.11664333" lon="-4.89035667">
        <ele>548.0</ele>
        <time>2018-10-06T09:40:37.000Z</time>
      </trkpt>
      <trkpt lat="38.11663667" lon="-4.89034333">
        <ele>549.0</ele>
        <time>2018-10-06T09:40:38.000Z</time>
      </trkpt>
      <trkpt lat="38.11663" lon="-4.89033">
        <ele>550.0</ele>
        <time>2018-10-06T09:40:39.000Z</time>
      </trkpt>
      <trkpt lat="38.11662" lon="-4.89031667">
        <ele>550.0</ele>
        <time>2018-10-06T09:40:40.000Z</time>
      </trkpt>
      <trkpt lat="38.116615" lon="-4.89030833">
        <ele>551.0</ele>
        <time>2018-10-06T09:40:41.000Z</time>
      </trkpt>
      <trkpt lat="38.11661" lon="-4.8903">
        <ele>551.0</ele>
        <time>2018-10-06T09:40:42.000Z</time>
      </trkpt>
      <trkpt lat="38.11660667" lon="-4.89029167">
        <ele>552.0</ele>
        <time>2018-10-06T09:40:43.000Z</time>
      </trkpt>
      <trkpt lat="38.11660667" lon="-4.89029167">
        <ele>552.0</ele>
        <time>2018-10-06T09:40:44.000Z</time>
      </trkpt>
      <trkpt lat="38.11660667" lon="-4.89029167">
        <ele>552.0</ele>
        <time>2018-10-06T09:40:45.000Z</time>
      </trkpt>
      <trkpt lat="38.11660667" lon="-4.89029167">
        <ele>552.0</ele>
        <time>2018-10-06T09:40:46.000Z</time>
      </trkpt>
      <trkpt lat="38.11660667" lon="-4.89029167">
        <ele>552.0</ele>
        <time>2018-10-06T09:40:47.000Z</time>
      </trkpt>
      <trkpt lat="38.11660667" lon="-4.89029167">
        <ele>552.0</ele>
        <time>2018-10-06T09:40:48.000Z</time>
      </trkpt>
      <trkpt lat="38.11660667" lon="-4.89029167">
        <ele>552.0</ele>
        <time>2018-10-06T09:40:49.000Z</time>
      </trkpt>
      <trkpt lat="38.11660667" lon="-4.89029167">
        <ele>552.0</ele>
        <time>2018-10-06T09:40:50.000Z</time>
      </trkpt>
      <trkpt lat="38.11660667" lon="-4.89029167">
        <ele>552.0</ele>
        <time>2018-10-06T09:40:51.000Z</time>
      </trkpt>
      <trkpt lat="38.11660667" lon="-4.89029167">
        <ele>552.0</ele>
        <time>2018-10-06T09:40:52.000Z</time>
      </trkpt>
      <trkpt lat="38.11660667" lon="-4.89029167">
        <ele>552.0</ele>
        <time>2018-10-06T09:40:53.000Z</time>
      </trkpt>
      <trkpt lat="38.11660667" lon="-4.89029167">
        <ele>552.0</ele>
        <time>2018-10-06T09:40:54.000Z</time>
      </trkpt>
      <trkpt lat="38.11660667" lon="-4.89029167">
        <ele>552.0</ele>
        <time>2018-10-06T09:40:55.000Z</time>
      </trkpt>
      <trkpt lat="38.11660667" lon="-4.89029167">
        <ele>552.0</ele>
        <time>2018-10-06T09:40:56.000Z</time>
      </trkpt>
      <trkpt lat="38.11660667" lon="-4.89029167">
        <ele>552.0</ele>
        <time>2018-10-06T09:40:57.000Z</time>
      </trkpt>
      <trkpt lat="38.11660667" lon="-4.89029167">
        <ele>552.0</ele>
        <time>2018-10-06T09:40:58.000Z</time>
      </trkpt>
      <trkpt lat="38.11660667" lon="-4.89029167">
        <ele>552.0</ele>
        <time>2018-10-06T09:40:59.000Z</time>
      </trkpt>
      <trkpt lat="38.11660667" lon="-4.89029167">
        <ele>552.0</ele>
        <time>2018-10-06T09:41:00.000Z</time>
      </trkpt>
      <trkpt lat="38.11660667" lon="-4.89029167">
        <ele>552.0</ele>
        <time>2018-10-06T09:41:01.000Z</time>
      </trkpt>
      <trkpt lat="38.11660667" lon="-4.89029167">
        <ele>552.0</ele>
        <time>2018-10-06T09:41:02.000Z</time>
      </trkpt>
      <trkpt lat="38.11660667" lon="-4.89029167">
        <ele>552.0</ele>
        <time>2018-10-06T09:41:03.000Z</time>
      </trkpt>
      <trkpt lat="38.11660667" lon="-4.89029167">
        <ele>552.0</ele>
        <time>2018-10-06T09:41:04.000Z</time>
      </trkpt>
      <trkpt lat="38.11660667" lon="-4.89029167">
        <ele>552.0</ele>
        <time>2018-10-06T09:41:05.000Z</time>
      </trkpt>
      <trkpt lat="38.11660667" lon="-4.89029167">
        <ele>552.0</ele>
        <time>2018-10-06T09:41:06.000Z</time>
      </trkpt>
      <trkpt lat="38.11660667" lon="-4.89029167">
        <ele>552.0</ele>
        <time>2018-10-06T09:41:07.000Z</time>
      </trkpt>
      <trkpt lat="38.11660667" lon="-4.89029167">
        <ele>552.0</ele>
        <time>2018-10-06T09:41:08.000Z</time>
      </trkpt>
      <trkpt lat="38.11660667" lon="-4.89029167">
        <ele>552.0</ele>
        <time>2018-10-06T09:41:09.000Z</time>
      </trkpt>
      <trkpt lat="38.11660667" lon="-4.89029167">
        <ele>552.0</ele>
        <time>2018-10-06T09:41:10.000Z</time>
      </trkpt>
      <trkpt lat="38.11660667" lon="-4.89029167">
        <ele>552.0</ele>
        <time>2018-10-06T09:41:11.000Z</time>
      </trkpt>
      <trkpt lat="38.11660667" lon="-4.89029167">
        <ele>552.0</ele>
        <time>2018-10-06T09:41:12.000Z</time>
      </trkpt>
      <trkpt lat="38.11660667" lon="-4.89029167">
        <ele>552.0</ele>
        <time>2018-10-06T09:41:13.000Z</time>
      </trkpt>
      <trkpt lat="38.11660667" lon="-4.89029167">
        <ele>552.0</ele>
        <time>2018-10-06T09:41:14.000Z</time>
      </trkpt>
      <trkpt lat="38.11660667" lon="-4.89029167">
        <ele>552.0</ele>
        <time>2018-10-06T09:41:15.000Z</time>
      </trkpt>
      <trkpt lat="38.11660667" lon="-4.89029167">
        <ele>552.0</ele>
        <time>2018-10-06T09:41:16.000Z</time>
      </trkpt>
      <trkpt lat="38.11660667" lon="-4.89029167">
        <ele>552.0</ele>
        <time>2018-10-06T09:41:17.000Z</time>
      </trkpt>
      <trkpt lat="38.11660667" lon="-4.89029167">
        <ele>552.0</ele>
        <time>2018-10-06T09:41:18.000Z</time>
      </trkpt>
      <trkpt lat="38.11660667" lon="-4.89029167">
        <ele>552.0</ele>
        <time>2018-10-06T09:41:19.000Z</time>
      </trkpt>
      <trkpt lat="38.11660667" lon="-4.89029167">
        <ele>552.0</ele>
        <time>2018-10-06T09:41:20.000Z</time>
      </trkpt>
      <trkpt lat="38.11644167" lon="-4.89029167">
        <ele>560.0</ele>
        <time>2018-10-06T09:41:20.000Z</time>
      </trkpt>
      <trkpt lat="38.11639167" lon="-4.890235">
        <ele>576.0</ele>
        <time>2018-10-06T10:17:39.000Z</time>
      </trkpt>
      <trkpt lat="38.11639167" lon="-4.890235">
        <ele>572.0</ele>
        <time>2018-10-06T10:17:42.000Z</time>
      </trkpt>
      <trkpt lat="38.11639167" lon="-4.890235">
        <ele>570.0</ele>
        <time>2018-10-06T10:17:43.000Z</time>
      </trkpt>
      <trkpt lat="38.11647333" lon="-4.89026167">
        <ele>569.0</ele>
        <time>2018-10-06T10:17:44.000Z</time>
      </trkpt>
      <trkpt lat="38.11648167" lon="-4.89025833">
        <ele>568.0</ele>
        <time>2018-10-06T10:17:45.000Z</time>
      </trkpt>
      <trkpt lat="38.11648667" lon="-4.89025667">
        <ele>567.0</ele>
        <time>2018-10-06T10:17:46.000Z</time>
      </trkpt>
      <trkpt lat="38.11648833" lon="-4.89025833">
        <ele>566.0</ele>
        <time>2018-10-06T10:17:47.000Z</time>
      </trkpt>
      <trkpt lat="38.11649" lon="-4.89026">
        <ele>565.0</ele>
        <time>2018-10-06T10:17:48.000Z</time>
      </trkpt>
      <trkpt lat="38.11649167" lon="-4.89026167">
        <ele>564.0</ele>
        <time>2018-10-06T10:17:49.000Z</time>
      </trkpt>
      <trkpt lat="38.11649333" lon="-4.89026167">
        <ele>564.0</ele>
        <time>2018-10-06T10:17:50.000Z</time>
      </trkpt>
      <trkpt lat="38.116495" lon="-4.89026333">
        <ele>563.0</ele>
        <time>2018-10-06T10:17:51.000Z</time>
      </trkpt>
      <trkpt lat="38.11649667" lon="-4.890265">
        <ele>562.0</ele>
        <time>2018-10-06T10:17:52.000Z</time>
      </trkpt>
      <trkpt lat="38.11649667" lon="-4.890265">
        <ele>562.0</ele>
        <time>2018-10-06T10:17:53.000Z</time>
      </trkpt>
      <trkpt lat="38.11649833" lon="-4.890265">
        <ele>561.0</ele>
        <time>2018-10-06T10:17:54.000Z</time>
      </trkpt>
      <trkpt lat="38.1165" lon="-4.89026667">
        <ele>561.0</ele>
        <time>2018-10-06T10:17:55.000Z</time>
      </trkpt>
      <trkpt lat="38.1165" lon="-4.89026667">
        <ele>560.0</ele>
        <time>2018-10-06T10:17:56.000Z</time>
      </trkpt>
      <trkpt lat="38.11650333" lon="-4.89026667">
        <ele>560.0</ele>
        <time>2018-10-06T10:17:57.000Z</time>
      </trkpt>
      <trkpt lat="38.11650833" lon="-4.89026833">
        <ele>559.0</ele>
        <time>2018-10-06T10:17:58.000Z</time>
      </trkpt>
      <trkpt lat="38.116515" lon="-4.89027">
        <ele>559.0</ele>
        <time>2018-10-06T10:17:59.000Z</time>
      </trkpt>
      <trkpt lat="38.11652" lon="-4.89027">
        <ele>559.0</ele>
        <time>2018-10-06T10:18:00.000Z</time>
      </trkpt>
      <trkpt lat="38.11652833" lon="-4.89027333">
        <ele>558.0</ele>
        <time>2018-10-06T10:18:01.000Z</time>
      </trkpt>
      <trkpt lat="38.11653333" lon="-4.89027667">
        <ele>558.0</ele>
        <time>2018-10-06T10:18:02.000Z</time>
      </trkpt>
      <trkpt lat="38.11653833" lon="-4.89028167">
        <ele>558.0</ele>
        <time>2018-10-06T10:18:03.000Z</time>
      </trkpt>
      <trkpt lat="38.11654333" lon="-4.89028833">
        <ele>557.0</ele>
        <time>2018-10-06T10:18:04.000Z</time>
      </trkpt>
      <trkpt lat="38.11654833" lon="-4.89029333">
        <ele>557.0</ele>
        <time>2018-10-06T10:18:05.000Z</time>
      </trkpt>
      <trkpt lat="38.11655667" lon="-4.89029667">
        <ele>557.0</ele>
        <time>2018-10-06T10:18:06.000Z</time>
      </trkpt>
      <trkpt lat="38.11656" lon="-4.8903">
        <ele>557.0</ele>
        <time>2018-10-06T10:18:07.000Z</time>
      </trkpt>
      <trkpt lat="38.11656333" lon="-4.89029833">
        <ele>557.0</ele>
        <time>2018-10-06T10:18:08.000Z</time>
      </trkpt>
      <trkpt lat="38.116565" lon="-4.89029833">
        <ele>556.0</ele>
        <time>2018-10-06T10:18:09.000Z</time>
      </trkpt>
      <trkpt lat="38.116565" lon="-4.89029833">
        <ele>556.0</ele>
        <time>2018-10-06T10:18:10.000Z</time>
      </trkpt>
      <trkpt lat="38.116565" lon="-4.8903">
        <ele>556.0</ele>
        <time>2018-10-06T10:18:11.000Z</time>
      </trkpt>
      <trkpt lat="38.116565" lon="-4.8903">
        <ele>556.0</ele>
        <time>2018-10-06T10:18:12.000Z</time>
      </trkpt>
      <trkpt lat="38.116565" lon="-4.8903">
        <ele>556.0</ele>
        <time>2018-10-06T10:18:13.000Z</time>
      </trkpt>
      <trkpt lat="38.11656667" lon="-4.8903">
        <ele>556.0</ele>
        <time>2018-10-06T10:18:14.000Z</time>
      </trkpt>
      <trkpt lat="38.11656667" lon="-4.89030167">
        <ele>556.0</ele>
        <time>2018-10-06T10:18:15.000Z</time>
      </trkpt>
      <trkpt lat="38.11656667" lon="-4.89030167">
        <ele>556.0</ele>
        <time>2018-10-06T10:18:16.000Z</time>
      </trkpt>
      <trkpt lat="38.11656667" lon="-4.89030167">
        <ele>556.0</ele>
        <time>2018-10-06T10:18:17.000Z</time>
      </trkpt>
      <trkpt lat="38.11656833" lon="-4.8903">
        <ele>556.0</ele>
        <time>2018-10-06T10:18:18.000Z</time>
      </trkpt>
      <trkpt lat="38.11656833" lon="-4.89030167">
        <ele>556.0</ele>
        <time>2018-10-06T10:18:19.000Z</time>
      </trkpt>
      <trkpt lat="38.11657" lon="-4.89030167">
        <ele>556.0</ele>
        <time>2018-10-06T10:18:20.000Z</time>
      </trkpt>
      <trkpt lat="38.11657" lon="-4.89030167">
        <ele>556.0</ele>
        <time>2018-10-06T10:18:21.000Z</time>
      </trkpt>
      <trkpt lat="38.11657" lon="-4.89030167">
        <ele>556.0</ele>
        <time>2018-10-06T10:18:22.000Z</time>
      </trkpt>
      <trkpt lat="38.11657" lon="-4.89030333">
        <ele>556.0</ele>
        <time>2018-10-06T10:18:23.000Z</time>
      </trkpt>
      <trkpt lat="38.11657" lon="-4.89030333">
        <ele>556.0</ele>
        <time>2018-10-06T10:18:24.000Z</time>
      </trkpt>
      <trkpt lat="38.11657" lon="-4.89030333">
        <ele>556.0</ele>
        <time>2018-10-06T10:18:25.000Z</time>
      </trkpt>
      <trkpt lat="38.11657" lon="-4.89030333">
        <ele>556.0</ele>
        <time>2018-10-06T10:18:26.000Z</time>
      </trkpt>
      <trkpt lat="38.11657" lon="-4.890305">
        <ele>556.0</ele>
        <time>2018-10-06T10:18:27.000Z</time>
      </trkpt>
      <trkpt lat="38.11657" lon="-4.890305">
        <ele>556.0</ele>
        <time>2018-10-06T10:18:28.000Z</time>
      </trkpt>
      <trkpt lat="38.11657" lon="-4.890305">
        <ele>555.0</ele>
        <time>2018-10-06T10:18:29.000Z</time>
      </trkpt>
      <trkpt lat="38.11657" lon="-4.890305">
        <ele>555.0</ele>
        <time>2018-10-06T10:18:30.000Z</time>
      </trkpt>
      <trkpt lat="38.11657" lon="-4.890305">
        <ele>555.0</ele>
        <time>2018-10-06T10:18:31.000Z</time>
      </trkpt>
      <trkpt lat="38.11657" lon="-4.890305">
        <ele>555.0</ele>
        <time>2018-10-06T10:18:32.000Z</time>
      </trkpt>
      <trkpt lat="38.11657" lon="-4.89030667">
        <ele>555.0</ele>
        <time>2018-10-06T10:18:33.000Z</time>
      </trkpt>
      <trkpt lat="38.11657167" lon="-4.89031167">
        <ele>555.0</ele>
        <time>2018-10-06T10:18:34.000Z</time>
      </trkpt>
      <trkpt lat="38.11657667" lon="-4.89032167">
        <ele>555.0</ele>
        <time>2018-10-06T10:18:35.000Z</time>
      </trkpt>
      <trkpt lat="38.11658" lon="-4.890325">
        <ele>555.0</ele>
        <time>2018-10-06T10:18:36.000Z</time>
      </trkpt>
      <trkpt lat="38.11658167" lon="-4.89032667">
        <ele>555.0</ele>
        <time>2018-10-06T10:18:37.000Z</time>
      </trkpt>
      <trkpt lat="38.11658" lon="-4.89032667">
        <ele>555.0</ele>
        <time>2018-10-06T10:18:38.000Z</time>
      </trkpt>
      <trkpt lat="38.11658" lon="-4.89032667">
        <ele>555.0</ele>
        <time>2018-10-06T10:18:39.000Z</time>
      </trkpt>
      <trkpt lat="38.11658333" lon="-4.89032833">
        <ele>555.0</ele>
        <time>2018-10-06T10:18:40.000Z</time>
      </trkpt>
      <trkpt lat="38.11658667" lon="-4.89033">
        <ele>555.0</ele>
        <time>2018-10-06T10:18:41.000Z</time>
      </trkpt>
      <trkpt lat="38.11659167" lon="-4.89033333">
        <ele>555.0</ele>
        <time>2018-10-06T10:18:42.000Z</time>
      </trkpt>
      <trkpt lat="38.11659667" lon="-4.89033667">
        <ele>556.0</ele>
        <time>2018-10-06T10:18:43.000Z</time>
      </trkpt>
      <trkpt lat="38.11660333" lon="-4.89034167">
        <ele>556.0</ele>
        <time>2018-10-06T10:18:44.000Z</time>
      </trkpt>
      <trkpt lat="38.11661" lon="-4.89034667">
        <ele>556.0</ele>
        <time>2018-10-06T10:18:45.000Z</time>
      </trkpt>
      <trkpt lat="38.11661833" lon="-4.89035">
        <ele>556.0</ele>
        <time>2018-10-06T10:18:46.000Z</time>
      </trkpt>
      <trkpt lat="38.116625" lon="-4.890355">
        <ele>556.0</ele>
        <time>2018-10-06T10:18:47.000Z</time>
      </trkpt>
      <trkpt lat="38.11663167" lon="-4.89035833">
        <ele>556.0</ele>
        <time>2018-10-06T10:18:48.000Z</time>
      </trkpt>
      <trkpt lat="38.11664" lon="-4.89036333">
        <ele>556.0</ele>
        <time>2018-10-06T10:18:49.000Z</time>
      </trkpt>
      <trkpt lat="38.11664833" lon="-4.89036833">
        <ele>556.0</ele>
        <time>2018-10-06T10:18:50.000Z</time>
      </trkpt>
      <trkpt lat="38.11665333" lon="-4.89037667">
        <ele>556.0</ele>
        <time>2018-10-06T10:18:51.000Z</time>
      </trkpt>
      <trkpt lat="38.11666167" lon="-4.89038167">
        <ele>556.0</ele>
        <time>2018-10-06T10:18:52.000Z</time>
      </trkpt>
      <trkpt lat="38.11666833" lon="-4.890385">
        <ele>556.0</ele>
        <time>2018-10-06T10:18:53.000Z</time>
      </trkpt>
      <trkpt lat="38.116675" lon="-4.89039">
        <ele>556.0</ele>
        <time>2018-10-06T10:18:54.000Z</time>
      </trkpt>
      <trkpt lat="38.11668167" lon="-4.890395">
        <ele>556.0</ele>
        <time>2018-10-06T10:18:55.000Z</time>
      </trkpt>
      <trkpt lat="38.11669" lon="-4.89040167">
        <ele>556.0</ele>
        <time>2018-10-06T10:18:56.000Z</time>
      </trkpt>
      <trkpt lat="38.11669667" lon="-4.89040833">
        <ele>556.0</ele>
        <time>2018-10-06T10:18:57.000Z</time>
      </trkpt>
      <trkpt lat="38.11670333" lon="-4.890415">
        <ele>556.0</ele>
        <time>2018-10-06T10:18:58.000Z</time>
      </trkpt>
      <trkpt lat="38.11671" lon="-4.89042167">
        <ele>556.0</ele>
        <time>2018-10-06T10:18:59.000Z</time>
      </trkpt>
      <trkpt lat="38.11671667" lon="-4.89042833">
        <ele>556.0</ele>
        <time>2018-10-06T10:19:00.000Z</time>
      </trkpt>
      <trkpt lat="38.11672167" lon="-4.890435">
        <ele>556.0</ele>
        <time>2018-10-06T10:19:01.000Z</time>
      </trkpt>
      <trkpt lat="38.11672833" lon="-4.89044167">
        <ele>556.0</ele>
        <time>2018-10-06T10:19:02.000Z</time>
      </trkpt>
      <trkpt lat="38.116735" lon="-4.890445">
        <ele>556.0</ele>
        <time>2018-10-06T10:19:03.000Z</time>
      </trkpt>
      <trkpt lat="38.11674167" lon="-4.89045167">
        <ele>556.0</ele>
        <time>2018-10-06T10:19:04.000Z</time>
      </trkpt>
      <trkpt lat="38.11674667" lon="-4.89045833">
        <ele>555.0</ele>
        <time>2018-10-06T10:19:05.000Z</time>
      </trkpt>
      <trkpt lat="38.11675333" lon="-4.89046333">
        <ele>555.0</ele>
        <time>2018-10-06T10:19:06.000Z</time>
      </trkpt>
      <trkpt lat="38.11676167" lon="-4.89047167">
        <ele>555.0</ele>
        <time>2018-10-06T10:19:07.000Z</time>
      </trkpt>
      <trkpt lat="38.11677" lon="-4.89047667">
        <ele>555.0</ele>
        <time>2018-10-06T10:19:08.000Z</time>
      </trkpt>
      <trkpt lat="38.11677833" lon="-4.89048333">
        <ele>554.0</ele>
        <time>2018-10-06T10:19:09.000Z</time>
      </trkpt>
      <trkpt lat="38.116785" lon="-4.89048833">
        <ele>554.0</ele>
        <time>2018-10-06T10:19:10.000Z</time>
      </trkpt>
      <trkpt lat="38.11679167" lon="-4.89049167">
        <ele>554.0</ele>
        <time>2018-10-06T10:19:11.000Z</time>
      </trkpt>
      <trkpt lat="38.1168" lon="-4.89049667">
        <ele>554.0</ele>
        <time>2018-10-06T10:19:12.000Z</time>
      </trkpt>
      <trkpt lat="38.116805" lon="-4.89050167">
        <ele>554.0</ele>
        <time>2018-10-06T10:19:13.000Z</time>
      </trkpt>
      <trkpt lat="38.11681167" lon="-4.89050667">
        <ele>553.0</ele>
        <time>2018-10-06T10:19:14.000Z</time>
      </trkpt>
      <trkpt lat="38.11681833" lon="-4.89051167">
        <ele>553.0</ele>
        <time>2018-10-06T10:19:15.000Z</time>
      </trkpt>
      <trkpt lat="38.116825" lon="-4.890515">
        <ele>553.0</ele>
        <time>2018-10-06T10:19:16.000Z</time>
      </trkpt>
      <trkpt lat="38.11683167" lon="-4.89052167">
        <ele>553.0</ele>
        <time>2018-10-06T10:19:17.000Z</time>
      </trkpt>
      <trkpt lat="38.11683667" lon="-4.89052833">
        <ele>553.0</ele>
        <time>2018-10-06T10:19:18.000Z</time>
      </trkpt>
      <trkpt lat="38.11684167" lon="-4.890535">
        <ele>553.0</ele>
        <time>2018-10-06T10:19:19.000Z</time>
      </trkpt>
      <trkpt lat="38.11684833" lon="-4.89053833">
        <ele>552.0</ele>
        <time>2018-10-06T10:19:20.000Z</time>
      </trkpt>
      <trkpt lat="38.116855" lon="-4.89054333">
        <ele>552.0</ele>
        <time>2018-10-06T10:19:21.000Z</time>
      </trkpt>
      <trkpt lat="38.11686" lon="-4.89054833">
        <ele>552.0</ele>
        <time>2018-10-06T10:19:22.000Z</time>
      </trkpt>
      <trkpt lat="38.11686667" lon="-4.89055667">
        <ele>552.0</ele>
        <time>2018-10-06T10:19:23.000Z</time>
      </trkpt>
      <trkpt lat="38.11687333" lon="-4.890565">
        <ele>552.0</ele>
        <time>2018-10-06T10:19:24.000Z</time>
      </trkpt>
      <trkpt lat="38.11688" lon="-4.89057">
        <ele>552.0</ele>
        <time>2018-10-06T10:19:25.000Z</time>
      </trkpt>
      <trkpt lat="38.11688833" lon="-4.89057167">
        <ele>551.0</ele>
        <time>2018-10-06T10:19:26.000Z</time>
      </trkpt>
      <trkpt lat="38.11689667" lon="-4.89057333">
        <ele>551.0</ele>
        <time>2018-10-06T10:19:27.000Z</time>
      </trkpt>
      <trkpt lat="38.11690667" lon="-4.89057167">
        <ele>552.0</ele>
        <time>2018-10-06T10:19:28.000Z</time>
      </trkpt>
      <trkpt lat="38.11691667" lon="-4.89057167">
        <ele>551.0</ele>
        <time>2018-10-06T10:19:29.000Z</time>
      </trkpt>
      <trkpt lat="38.116925" lon="-4.89057167">
        <ele>552.0</ele>
        <time>2018-10-06T10:19:30.000Z</time>
      </trkpt>
      <trkpt lat="38.11693167" lon="-4.890575">
        <ele>551.0</ele>
        <time>2018-10-06T10:19:31.000Z</time>
      </trkpt>
      <trkpt lat="38.11693833" lon="-4.89058167">
        <ele>551.0</ele>
        <time>2018-10-06T10:19:32.000Z</time>
      </trkpt>
      <trkpt lat="38.11694167" lon="-4.89059">
        <ele>551.0</ele>
        <time>2018-10-06T10:19:33.000Z</time>
      </trkpt>
      <trkpt lat="38.116945" lon="-4.89060167">
        <ele>551.0</ele>
        <time>2018-10-06T10:19:34.000Z</time>
      </trkpt>
      <trkpt lat="38.11695" lon="-4.89061167">
        <ele>551.0</ele>
        <time>2018-10-06T10:19:35.000Z</time>
      </trkpt>
      <trkpt lat="38.11695667" lon="-4.89062333">
        <ele>551.0</ele>
        <time>2018-10-06T10:19:36.000Z</time>
      </trkpt>
      <trkpt lat="38.11696667" lon="-4.89063167">
        <ele>550.0</ele>
        <time>2018-10-06T10:19:37.000Z</time>
      </trkpt>
      <trkpt lat="38.11697833" lon="-4.89063667">
        <ele>550.0</ele>
        <time>2018-10-06T10:19:38.000Z</time>
      </trkpt>
      <trkpt lat="38.11698833" lon="-4.89064">
        <ele>550.0</ele>
        <time>2018-10-06T10:19:39.000Z</time>
      </trkpt>
      <trkpt lat="38.11699667" lon="-4.89064333">
        <ele>550.0</ele>
        <time>2018-10-06T10:19:40.000Z</time>
      </trkpt>
      <trkpt lat="38.117005" lon="-4.890645">
        <ele>550.0</ele>
        <time>2018-10-06T10:19:41.000Z</time>
      </trkpt>
      <trkpt lat="38.11701333" lon="-4.890645">
        <ele>550.0</ele>
        <time>2018-10-06T10:19:42.000Z</time>
      </trkpt>
      <trkpt lat="38.11702333" lon="-4.89064333">
        <ele>550.0</ele>
        <time>2018-10-06T10:19:43.000Z</time>
      </trkpt>
      <trkpt lat="38.117035" lon="-4.89064167">
        <ele>550.0</ele>
        <time>2018-10-06T10:19:44.000Z</time>
      </trkpt>
      <trkpt lat="38.117045" lon="-4.89063833">
        <ele>550.0</ele>
        <time>2018-10-06T10:19:45.000Z</time>
      </trkpt>
      <trkpt lat="38.11705667" lon="-4.890635">
        <ele>550.0</ele>
        <time>2018-10-06T10:19:46.000Z</time>
      </trkpt>
      <trkpt lat="38.117065" lon="-4.89063167">
        <ele>550.0</ele>
        <time>2018-10-06T10:19:47.000Z</time>
      </trkpt>
      <trkpt lat="38.11707667" lon="-4.89062833">
        <ele>549.0</ele>
        <time>2018-10-06T10:19:48.000Z</time>
      </trkpt>
      <trkpt lat="38.11708667" lon="-4.890625">
        <ele>549.0</ele>
        <time>2018-10-06T10:19:49.000Z</time>
      </trkpt>
      <trkpt lat="38.11709667" lon="-4.89062333">
        <ele>549.0</ele>
        <time>2018-10-06T10:19:50.000Z</time>
      </trkpt>
      <trkpt lat="38.117105" lon="-4.89061833">
        <ele>549.0</ele>
        <time>2018-10-06T10:19:51.000Z</time>
      </trkpt>
      <trkpt lat="38.117115" lon="-4.89061333">
        <ele>549.0</ele>
        <time>2018-10-06T10:19:52.000Z</time>
      </trkpt>
      <trkpt lat="38.117125" lon="-4.89060667">
        <ele>549.0</ele>
        <time>2018-10-06T10:19:53.000Z</time>
      </trkpt>
      <trkpt lat="38.117135" lon="-4.8906">
        <ele>549.0</ele>
        <time>2018-10-06T10:19:54.000Z</time>
      </trkpt>
      <trkpt lat="38.11714333" lon="-4.89059167">
        <ele>549.0</ele>
        <time>2018-10-06T10:19:55.000Z</time>
      </trkpt>
      <trkpt lat="38.11715333" lon="-4.890585">
        <ele>549.0</ele>
        <time>2018-10-06T10:19:56.000Z</time>
      </trkpt>
      <trkpt lat="38.11716333" lon="-4.89058">
        <ele>549.0</ele>
        <time>2018-10-06T10:19:57.000Z</time>
      </trkpt>
      <trkpt lat="38.11717333" lon="-4.890575">
        <ele>549.0</ele>
        <time>2018-10-06T10:19:58.000Z</time>
      </trkpt>
      <trkpt lat="38.11718333" lon="-4.89057333">
        <ele>549.0</ele>
        <time>2018-10-06T10:19:59.000Z</time>
      </trkpt>
      <trkpt lat="38.11719167" lon="-4.89057167">
        <ele>549.0</ele>
        <time>2018-10-06T10:20:00.000Z</time>
      </trkpt>
      <trkpt lat="38.11720167" lon="-4.89057167">
        <ele>549.0</ele>
        <time>2018-10-06T10:20:01.000Z</time>
      </trkpt>
      <trkpt lat="38.11721167" lon="-4.89057333">
        <ele>549.0</ele>
        <time>2018-10-06T10:20:02.000Z</time>
      </trkpt>
      <trkpt lat="38.11722333" lon="-4.89057333">
        <ele>549.0</ele>
        <time>2018-10-06T10:20:03.000Z</time>
      </trkpt>
      <trkpt lat="38.117235" lon="-4.890575">
        <ele>550.0</ele>
        <time>2018-10-06T10:20:04.000Z</time>
      </trkpt>
      <trkpt lat="38.11724667" lon="-4.890575">
        <ele>550.0</ele>
        <time>2018-10-06T10:20:05.000Z</time>
      </trkpt>
      <trkpt lat="38.11725833" lon="-4.890575">
        <ele>549.0</ele>
        <time>2018-10-06T10:20:06.000Z</time>
      </trkpt>
      <trkpt lat="38.11726833" lon="-4.890575">
        <ele>549.0</ele>
        <time>2018-10-06T10:20:07.000Z</time>
      </trkpt>
      <trkpt lat="38.11728" lon="-4.890575">
        <ele>549.0</ele>
        <time>2018-10-06T10:20:08.000Z</time>
      </trkpt>
      <trkpt lat="38.11729" lon="-4.89057667">
        <ele>549.0</ele>
        <time>2018-10-06T10:20:09.000Z</time>
      </trkpt>
      <trkpt lat="38.1173" lon="-4.89057667">
        <ele>549.0</ele>
        <time>2018-10-06T10:20:10.000Z</time>
      </trkpt>
      <trkpt lat="38.11731" lon="-4.890575">
        <ele>549.0</ele>
        <time>2018-10-06T10:20:11.000Z</time>
      </trkpt>
      <trkpt lat="38.11732167" lon="-4.89057667">
        <ele>549.0</ele>
        <time>2018-10-06T10:20:12.000Z</time>
      </trkpt>
      <trkpt lat="38.11733333" lon="-4.89057833">
        <ele>549.0</ele>
        <time>2018-10-06T10:20:13.000Z</time>
      </trkpt>
      <trkpt lat="38.11734667" lon="-4.89057833">
        <ele>549.0</ele>
        <time>2018-10-06T10:20:14.000Z</time>
      </trkpt>
      <trkpt lat="38.11735667" lon="-4.89057833">
        <ele>549.0</ele>
        <time>2018-10-06T10:20:15.000Z</time>
      </trkpt>
      <trkpt lat="38.11736667" lon="-4.89058">
        <ele>549.0</ele>
        <time>2018-10-06T10:20:16.000Z</time>
      </trkpt>
      <trkpt lat="38.11737667" lon="-4.89058">
        <ele>549.0</ele>
        <time>2018-10-06T10:20:17.000Z</time>
      </trkpt>
      <trkpt lat="38.11738833" lon="-4.89058167">
        <ele>549.0</ele>
        <time>2018-10-06T10:20:18.000Z</time>
      </trkpt>
      <trkpt lat="38.11740167" lon="-4.89058167">
        <ele>549.0</ele>
        <time>2018-10-06T10:20:19.000Z</time>
      </trkpt>
      <trkpt lat="38.11741333" lon="-4.89058167">
        <ele>549.0</ele>
        <time>2018-10-06T10:20:20.000Z</time>
      </trkpt>
      <trkpt lat="38.11742333" lon="-4.89058167">
        <ele>549.0</ele>
        <time>2018-10-06T10:20:21.000Z</time>
      </trkpt>
      <trkpt lat="38.117435" lon="-4.89058333">
        <ele>549.0</ele>
        <time>2018-10-06T10:20:22.000Z</time>
      </trkpt>
      <trkpt lat="38.11744833" lon="-4.890585">
        <ele>549.0</ele>
        <time>2018-10-06T10:20:23.000Z</time>
      </trkpt>
      <trkpt lat="38.11746" lon="-4.890585">
        <ele>549.0</ele>
        <time>2018-10-06T10:20:24.000Z</time>
      </trkpt>
      <trkpt lat="38.11747167" lon="-4.89058667">
        <ele>548.0</ele>
        <time>2018-10-06T10:20:25.000Z</time>
      </trkpt>
      <trkpt lat="38.11748167" lon="-4.89059">
        <ele>548.0</ele>
        <time>2018-10-06T10:20:26.000Z</time>
      </trkpt>
      <trkpt lat="38.11749" lon="-4.89059333">
        <ele>548.0</ele>
        <time>2018-10-06T10:20:27.000Z</time>
      </trkpt>
      <trkpt lat="38.11750167" lon="-4.89059667">
        <ele>548.0</ele>
        <time>2018-10-06T10:20:28.000Z</time>
      </trkpt>
      <trkpt lat="38.11751" lon="-4.89059833">
        <ele>548.0</ele>
        <time>2018-10-06T10:20:29.000Z</time>
      </trkpt>
      <trkpt lat="38.11752" lon="-4.89060167">
        <ele>548.0</ele>
        <time>2018-10-06T10:20:30.000Z</time>
      </trkpt>
      <trkpt lat="38.11753167" lon="-4.89060333">
        <ele>548.0</ele>
        <time>2018-10-06T10:20:31.000Z</time>
      </trkpt>
      <trkpt lat="38.11754" lon="-4.890605">
        <ele>548.0</ele>
        <time>2018-10-06T10:20:32.000Z</time>
      </trkpt>
      <trkpt lat="38.11755167" lon="-4.89060833">
        <ele>548.0</ele>
        <time>2018-10-06T10:20:33.000Z</time>
      </trkpt>
      <trkpt lat="38.11756333" lon="-4.89061">
        <ele>548.0</ele>
        <time>2018-10-06T10:20:34.000Z</time>
      </trkpt>
      <trkpt lat="38.117575" lon="-4.89061333">
        <ele>548.0</ele>
        <time>2018-10-06T10:20:35.000Z</time>
      </trkpt>
      <trkpt lat="38.117585" lon="-4.89061667">
        <ele>548.0</ele>
        <time>2018-10-06T10:20:36.000Z</time>
      </trkpt>
      <trkpt lat="38.117595" lon="-4.89062167">
        <ele>548.0</ele>
        <time>2018-10-06T10:20:37.000Z</time>
      </trkpt>
      <trkpt lat="38.117605" lon="-4.89062667">
        <ele>548.0</ele>
        <time>2018-10-06T10:20:38.000Z</time>
      </trkpt>
      <trkpt lat="38.117615" lon="-4.89063333">
        <ele>548.0</ele>
        <time>2018-10-06T10:20:39.000Z</time>
      </trkpt>
      <trkpt lat="38.11762333" lon="-4.89064167">
        <ele>548.0</ele>
        <time>2018-10-06T10:20:40.000Z</time>
      </trkpt>
      <trkpt lat="38.11763167" lon="-4.89064833">
        <ele>548.0</ele>
        <time>2018-10-06T10:20:41.000Z</time>
      </trkpt>
      <trkpt lat="38.11764333" lon="-4.890655">
        <ele>548.0</ele>
        <time>2018-10-06T10:20:42.000Z</time>
      </trkpt>
      <trkpt lat="38.11765333" lon="-4.89066">
        <ele>548.0</ele>
        <time>2018-10-06T10:20:43.000Z</time>
      </trkpt>
      <trkpt lat="38.11766333" lon="-4.89066667">
        <ele>548.0</ele>
        <time>2018-10-06T10:20:44.000Z</time>
      </trkpt>
      <trkpt lat="38.11767167" lon="-4.89067167">
        <ele>548.0</ele>
        <time>2018-10-06T10:20:45.000Z</time>
      </trkpt>
      <trkpt lat="38.11768" lon="-4.89067833">
        <ele>548.0</ele>
        <time>2018-10-06T10:20:46.000Z</time>
      </trkpt>
      <trkpt lat="38.11768833" lon="-4.890685">
        <ele>547.0</ele>
        <time>2018-10-06T10:20:47.000Z</time>
      </trkpt>
      <trkpt lat="38.11769667" lon="-4.89069167">
        <ele>547.0</ele>
        <time>2018-10-06T10:20:48.000Z</time>
      </trkpt>
      <trkpt lat="38.11770333" lon="-4.89069833">
        <ele>547.0</ele>
        <time>2018-10-06T10:20:49.000Z</time>
      </trkpt>
      <trkpt lat="38.11771167" lon="-4.89070667">
        <ele>547.0</ele>
        <time>2018-10-06T10:20:50.000Z</time>
      </trkpt>
      <trkpt lat="38.11772167" lon="-4.89071333">
        <ele>547.0</ele>
        <time>2018-10-06T10:20:51.000Z</time>
      </trkpt>
      <trkpt lat="38.11773333" lon="-4.89072">
        <ele>547.0</ele>
        <time>2018-10-06T10:20:52.000Z</time>
      </trkpt>
      <trkpt lat="38.11774167" lon="-4.890725">
        <ele>547.0</ele>
        <time>2018-10-06T10:20:53.000Z</time>
      </trkpt>
      <trkpt lat="38.11775167" lon="-4.89073333">
        <ele>547.0</ele>
        <time>2018-10-06T10:20:54.000Z</time>
      </trkpt>
      <trkpt lat="38.11776" lon="-4.89074333">
        <ele>547.0</ele>
        <time>2018-10-06T10:20:55.000Z</time>
      </trkpt>
      <trkpt lat="38.11776833" lon="-4.89075167">
        <ele>547.0</ele>
        <time>2018-10-06T10:20:56.000Z</time>
      </trkpt>
      <trkpt lat="38.11777667" lon="-4.89076">
        <ele>547.0</ele>
        <time>2018-10-06T10:20:57.000Z</time>
      </trkpt>
      <trkpt lat="38.11778333" lon="-4.89076667">
        <ele>547.0</ele>
        <time>2018-10-06T10:20:58.000Z</time>
      </trkpt>
      <trkpt lat="38.11779333" lon="-4.890775">
        <ele>547.0</ele>
        <time>2018-10-06T10:20:59.000Z</time>
      </trkpt>
      <trkpt lat="38.11780167" lon="-4.89078333">
        <ele>547.0</ele>
        <time>2018-10-06T10:21:00.000Z</time>
      </trkpt>
      <trkpt lat="38.11781" lon="-4.89078833">
        <ele>547.0</ele>
        <time>2018-10-06T10:21:01.000Z</time>
      </trkpt>
      <trkpt lat="38.11781833" lon="-4.89078833">
        <ele>547.0</ele>
        <time>2018-10-06T10:21:02.000Z</time>
      </trkpt>
      <trkpt lat="38.11782667" lon="-4.89079167">
        <ele>547.0</ele>
        <time>2018-10-06T10:21:03.000Z</time>
      </trkpt>
      <trkpt lat="38.11783667" lon="-4.890795">
        <ele>547.0</ele>
        <time>2018-10-06T10:21:04.000Z</time>
      </trkpt>
      <trkpt lat="38.11784667" lon="-4.8908">
        <ele>547.0</ele>
        <time>2018-10-06T10:21:05.000Z</time>
      </trkpt>
      <trkpt lat="38.11785833" lon="-4.89080333">
        <ele>547.0</ele>
        <time>2018-10-06T10:21:06.000Z</time>
      </trkpt>
      <trkpt lat="38.11786833" lon="-4.89080667">
        <ele>547.0</ele>
        <time>2018-10-06T10:21:07.000Z</time>
      </trkpt>
      <trkpt lat="38.11787833" lon="-4.89081">
        <ele>547.0</ele>
        <time>2018-10-06T10:21:08.000Z</time>
      </trkpt>
      <trkpt lat="38.11789" lon="-4.89081">
        <ele>547.0</ele>
        <time>2018-10-06T10:21:09.000Z</time>
      </trkpt>
      <trkpt lat="38.1179" lon="-4.890815">
        <ele>547.0</ele>
        <time>2018-10-06T10:21:10.000Z</time>
      </trkpt>
      <trkpt lat="38.11790667" lon="-4.89081833">
        <ele>547.0</ele>
        <time>2018-10-06T10:21:11.000Z</time>
      </trkpt>
      <trkpt lat="38.117915" lon="-4.89082167">
        <ele>547.0</ele>
        <time>2018-10-06T10:21:12.000Z</time>
      </trkpt>
      <trkpt lat="38.11792667" lon="-4.89082667">
        <ele>547.0</ele>
        <time>2018-10-06T10:21:13.000Z</time>
      </trkpt>
      <trkpt lat="38.11793167" lon="-4.89083333">
        <ele>547.0</ele>
        <time>2018-10-06T10:21:14.000Z</time>
      </trkpt>
      <trkpt lat="38.11794167" lon="-4.89084">
        <ele>547.0</ele>
        <time>2018-10-06T10:21:15.000Z</time>
      </trkpt>
      <trkpt lat="38.11795167" lon="-4.89084833">
        <ele>546.0</ele>
        <time>2018-10-06T10:21:16.000Z</time>
      </trkpt>
      <trkpt lat="38.11796333" lon="-4.89085833">
        <ele>546.0</ele>
        <time>2018-10-06T10:21:17.000Z</time>
      </trkpt>
      <trkpt lat="38.11797" lon="-4.89086667">
        <ele>546.0</ele>
        <time>2018-10-06T10:21:18.000Z</time>
      </trkpt>
      <trkpt lat="38.11797667" lon="-4.89087333">
        <ele>546.0</ele>
        <time>2018-10-06T10:21:19.000Z</time>
      </trkpt>
      <trkpt lat="38.11798333" lon="-4.89088">
        <ele>546.0</ele>
        <time>2018-10-06T10:21:20.000Z</time>
      </trkpt>
      <trkpt lat="38.11799" lon="-4.89088667">
        <ele>546.0</ele>
        <time>2018-10-06T10:21:21.000Z</time>
      </trkpt>
      <trkpt lat="38.11799333" lon="-4.89088667">
        <ele>546.0</ele>
        <time>2018-10-06T10:21:22.000Z</time>
      </trkpt>
      <trkpt lat="38.11799833" lon="-4.89089167">
        <ele>546.0</ele>
        <time>2018-10-06T10:21:23.000Z</time>
      </trkpt>
      <trkpt lat="38.11800167" lon="-4.89089833">
        <ele>546.0</ele>
        <time>2018-10-06T10:21:24.000Z</time>
      </trkpt>
      <trkpt lat="38.11800667" lon="-4.89090333">
        <ele>545.0</ele>
        <time>2018-10-06T10:21:25.000Z</time>
      </trkpt>
      <trkpt lat="38.11801333" lon="-4.89091">
        <ele>545.0</ele>
        <time>2018-10-06T10:21:26.000Z</time>
      </trkpt>
      <trkpt lat="38.11801833" lon="-4.89091667">
        <ele>545.0</ele>
        <time>2018-10-06T10:21:27.000Z</time>
      </trkpt>
      <trkpt lat="38.118025" lon="-4.89092667">
        <ele>545.0</ele>
        <time>2018-10-06T10:21:28.000Z</time>
      </trkpt>
      <trkpt lat="38.11803" lon="-4.89093833">
        <ele>544.0</ele>
        <time>2018-10-06T10:21:29.000Z</time>
      </trkpt>
      <trkpt lat="38.11803333" lon="-4.89094667">
        <ele>544.0</ele>
        <time>2018-10-06T10:21:30.000Z</time>
      </trkpt>
      <trkpt lat="38.118035" lon="-4.89095333">
        <ele>544.0</ele>
        <time>2018-10-06T10:21:31.000Z</time>
      </trkpt>
      <trkpt lat="38.11803667" lon="-4.89096333">
        <ele>544.0</ele>
        <time>2018-10-06T10:21:32.000Z</time>
      </trkpt>
      <trkpt lat="38.11803833" lon="-4.89097333">
        <ele>544.0</ele>
        <time>2018-10-06T10:21:33.000Z</time>
      </trkpt>
      <trkpt lat="38.11804" lon="-4.89098667">
        <ele>544.0</ele>
        <time>2018-10-06T10:21:34.000Z</time>
      </trkpt>
      <trkpt lat="38.11804333" lon="-4.89099667">
        <ele>544.0</ele>
        <time>2018-10-06T10:21:35.000Z</time>
      </trkpt>
      <trkpt lat="38.11804833" lon="-4.89100667">
        <ele>543.0</ele>
        <time>2018-10-06T10:21:36.000Z</time>
      </trkpt>
      <trkpt lat="38.11805333" lon="-4.891015">
        <ele>543.0</ele>
        <time>2018-10-06T10:21:37.000Z</time>
      </trkpt>
      <trkpt lat="38.11805833" lon="-4.89102167">
        <ele>543.0</ele>
        <time>2018-10-06T10:21:38.000Z</time>
      </trkpt>
      <trkpt lat="38.11806333" lon="-4.89103">
        <ele>543.0</ele>
        <time>2018-10-06T10:21:39.000Z</time>
      </trkpt>
      <trkpt lat="38.11806833" lon="-4.89104167">
        <ele>543.0</ele>
        <time>2018-10-06T10:21:40.000Z</time>
      </trkpt>
      <trkpt lat="38.11807333" lon="-4.89105">
        <ele>543.0</ele>
        <time>2018-10-06T10:21:41.000Z</time>
      </trkpt>
      <trkpt lat="38.11807667" lon="-4.89106">
        <ele>542.0</ele>
        <time>2018-10-06T10:21:42.000Z</time>
      </trkpt>
      <trkpt lat="38.11808167" lon="-4.89107">
        <ele>542.0</ele>
        <time>2018-10-06T10:21:43.000Z</time>
      </trkpt>
      <trkpt lat="38.11808333" lon="-4.89107833">
        <ele>542.0</ele>
        <time>2018-10-06T10:21:44.000Z</time>
      </trkpt>
      <trkpt lat="38.11808667" lon="-4.891085">
        <ele>542.0</ele>
        <time>2018-10-06T10:21:45.000Z</time>
      </trkpt>
      <trkpt lat="38.11809" lon="-4.89109333">
        <ele>542.0</ele>
        <time>2018-10-06T10:21:46.000Z</time>
      </trkpt>
      <trkpt lat="38.11809333" lon="-4.89110167">
        <ele>541.0</ele>
        <time>2018-10-06T10:21:47.000Z</time>
      </trkpt>
      <trkpt lat="38.118095" lon="-4.89111167">
        <ele>541.0</ele>
        <time>2018-10-06T10:21:48.000Z</time>
      </trkpt>
      <trkpt lat="38.11809833" lon="-4.89112167">
        <ele>541.0</ele>
        <time>2018-10-06T10:21:49.000Z</time>
      </trkpt>
      <trkpt lat="38.11810167" lon="-4.89113167">
        <ele>541.0</ele>
        <time>2018-10-06T10:21:50.000Z</time>
      </trkpt>
      <trkpt lat="38.118105" lon="-4.89114333">
        <ele>541.0</ele>
        <time>2018-10-06T10:21:51.000Z</time>
      </trkpt>
      <trkpt lat="38.11810833" lon="-4.891155">
        <ele>540.0</ele>
        <time>2018-10-06T10:21:52.000Z</time>
      </trkpt>
      <trkpt lat="38.11811167" lon="-4.89116333">
        <ele>540.0</ele>
        <time>2018-10-06T10:21:53.000Z</time>
      </trkpt>
      <trkpt lat="38.118115" lon="-4.89117333">
        <ele>540.0</ele>
        <time>2018-10-06T10:21:54.000Z</time>
      </trkpt>
      <trkpt lat="38.11811833" lon="-4.891185">
        <ele>540.0</ele>
        <time>2018-10-06T10:21:55.000Z</time>
      </trkpt>
      <trkpt lat="38.118125" lon="-4.891195">
        <ele>539.0</ele>
        <time>2018-10-06T10:21:56.000Z</time>
      </trkpt>
      <trkpt lat="38.11813" lon="-4.891205">
        <ele>539.0</ele>
        <time>2018-10-06T10:21:57.000Z</time>
      </trkpt>
      <trkpt lat="38.118135" lon="-4.891215">
        <ele>539.0</ele>
        <time>2018-10-06T10:21:58.000Z</time>
      </trkpt>
      <trkpt lat="38.11814167" lon="-4.89122667">
        <ele>539.0</ele>
        <time>2018-10-06T10:21:59.000Z</time>
      </trkpt>
      <trkpt lat="38.11814667" lon="-4.89123833">
        <ele>539.0</ele>
        <time>2018-10-06T10:22:00.000Z</time>
      </trkpt>
      <trkpt lat="38.11815167" lon="-4.89125333">
        <ele>539.0</ele>
        <time>2018-10-06T10:22:01.000Z</time>
      </trkpt>
      <trkpt lat="38.11816" lon="-4.891265">
        <ele>539.0</ele>
        <time>2018-10-06T10:22:02.000Z</time>
      </trkpt>
      <trkpt lat="38.11816667" lon="-4.89127667">
        <ele>539.0</ele>
        <time>2018-10-06T10:22:03.000Z</time>
      </trkpt>
      <trkpt lat="38.11817333" lon="-4.89128833">
        <ele>539.0</ele>
        <time>2018-10-06T10:22:04.000Z</time>
      </trkpt>
      <trkpt lat="38.11818" lon="-4.89129667">
        <ele>539.0</ele>
        <time>2018-10-06T10:22:05.000Z</time>
      </trkpt>
      <trkpt lat="38.11818667" lon="-4.891305">
        <ele>539.0</ele>
        <time>2018-10-06T10:22:06.000Z</time>
      </trkpt>
      <trkpt lat="38.11819333" lon="-4.89131333">
        <ele>539.0</ele>
        <time>2018-10-06T10:22:07.000Z</time>
      </trkpt>
      <trkpt lat="38.11820167" lon="-4.891325">
        <ele>539.0</ele>
        <time>2018-10-06T10:22:08.000Z</time>
      </trkpt>
      <trkpt lat="38.11820833" lon="-4.89133333">
        <ele>539.0</ele>
        <time>2018-10-06T10:22:09.000Z</time>
      </trkpt>
      <trkpt lat="38.11821833" lon="-4.89134167">
        <ele>539.0</ele>
        <time>2018-10-06T10:22:10.000Z</time>
      </trkpt>
      <trkpt lat="38.11822833" lon="-4.89135">
        <ele>539.0</ele>
        <time>2018-10-06T10:22:11.000Z</time>
      </trkpt>
      <trkpt lat="38.11823833" lon="-4.89135667">
        <ele>539.0</ele>
        <time>2018-10-06T10:22:12.000Z</time>
      </trkpt>
      <trkpt lat="38.11824833" lon="-4.89136">
        <ele>539.0</ele>
        <time>2018-10-06T10:22:13.000Z</time>
      </trkpt>
      <trkpt lat="38.11825833" lon="-4.891365">
        <ele>539.0</ele>
        <time>2018-10-06T10:22:14.000Z</time>
      </trkpt>
      <trkpt lat="38.11826667" lon="-4.89137">
        <ele>539.0</ele>
        <time>2018-10-06T10:22:15.000Z</time>
      </trkpt>
      <trkpt lat="38.118275" lon="-4.891375">
        <ele>539.0</ele>
        <time>2018-10-06T10:22:16.000Z</time>
      </trkpt>
      <trkpt lat="38.11828167" lon="-4.89138">
        <ele>539.0</ele>
        <time>2018-10-06T10:22:17.000Z</time>
      </trkpt>
      <trkpt lat="38.11829" lon="-4.89138667">
        <ele>539.0</ele>
        <time>2018-10-06T10:22:18.000Z</time>
      </trkpt>
      <trkpt lat="38.11830167" lon="-4.891395">
        <ele>539.0</ele>
        <time>2018-10-06T10:22:19.000Z</time>
      </trkpt>
      <trkpt lat="38.11831167" lon="-4.891405">
        <ele>539.0</ele>
        <time>2018-10-06T10:22:20.000Z</time>
      </trkpt>
      <trkpt lat="38.11832" lon="-4.89141167">
        <ele>539.0</ele>
        <time>2018-10-06T10:22:21.000Z</time>
      </trkpt>
      <trkpt lat="38.11832667" lon="-4.89142167">
        <ele>539.0</ele>
        <time>2018-10-06T10:22:22.000Z</time>
      </trkpt>
      <trkpt lat="38.11833333" lon="-4.89143">
        <ele>539.0</ele>
        <time>2018-10-06T10:22:23.000Z</time>
      </trkpt>
      <trkpt lat="38.11834167" lon="-4.89144">
        <ele>538.0</ele>
        <time>2018-10-06T10:22:24.000Z</time>
      </trkpt>
      <trkpt lat="38.11834667" lon="-4.89144833">
        <ele>538.0</ele>
        <time>2018-10-06T10:22:25.000Z</time>
      </trkpt>
      <trkpt lat="38.118355" lon="-4.89145833">
        <ele>538.0</ele>
        <time>2018-10-06T10:22:26.000Z</time>
      </trkpt>
      <trkpt lat="38.11836167" lon="-4.89146667">
        <ele>538.0</ele>
        <time>2018-10-06T10:22:27.000Z</time>
      </trkpt>
      <trkpt lat="38.11837" lon="-4.89147667">
        <ele>538.0</ele>
        <time>2018-10-06T10:22:28.000Z</time>
      </trkpt>
      <trkpt lat="38.11837833" lon="-4.891485">
        <ele>538.0</ele>
        <time>2018-10-06T10:22:29.000Z</time>
      </trkpt>
      <trkpt lat="38.118385" lon="-4.891495">
        <ele>537.0</ele>
        <time>2018-10-06T10:22:30.000Z</time>
      </trkpt>
      <trkpt lat="38.11839167" lon="-4.891505">
        <ele>537.0</ele>
        <time>2018-10-06T10:22:31.000Z</time>
      </trkpt>
      <trkpt lat="38.11839833" lon="-4.89151333">
        <ele>537.0</ele>
        <time>2018-10-06T10:22:32.000Z</time>
      </trkpt>
      <trkpt lat="38.118405" lon="-4.89152167">
        <ele>537.0</ele>
        <time>2018-10-06T10:22:33.000Z</time>
      </trkpt>
      <trkpt lat="38.11841" lon="-4.89152667">
        <ele>537.0</ele>
        <time>2018-10-06T10:22:34.000Z</time>
      </trkpt>
      <trkpt lat="38.11841167" lon="-4.891525">
        <ele>537.0</ele>
        <time>2018-10-06T10:22:35.000Z</time>
      </trkpt>
      <trkpt lat="38.11841333" lon="-4.89152833">
        <ele>537.0</ele>
        <time>2018-10-06T10:22:36.000Z</time>
      </trkpt>
      <trkpt lat="38.11841333" lon="-4.89153667">
        <ele>537.0</ele>
        <time>2018-10-06T10:22:37.000Z</time>
      </trkpt>
      <trkpt lat="38.118415" lon="-4.89154833">
        <ele>537.0</ele>
        <time>2018-10-06T10:22:38.000Z</time>
      </trkpt>
      <trkpt lat="38.11841833" lon="-4.89156167">
        <ele>536.0</ele>
        <time>2018-10-06T10:22:39.000Z</time>
      </trkpt>
      <trkpt lat="38.11842167" lon="-4.89157333">
        <ele>536.0</ele>
        <time>2018-10-06T10:22:40.000Z</time>
      </trkpt>
      <trkpt lat="38.11842833" lon="-4.891585">
        <ele>536.0</ele>
        <time>2018-10-06T10:22:41.000Z</time>
      </trkpt>
      <trkpt lat="38.118435" lon="-4.891595">
        <ele>536.0</ele>
        <time>2018-10-06T10:22:42.000Z</time>
      </trkpt>
      <trkpt lat="38.11844" lon="-4.89160667">
        <ele>536.0</ele>
        <time>2018-10-06T10:22:43.000Z</time>
      </trkpt>
      <trkpt lat="38.118445" lon="-4.89161667">
        <ele>536.0</ele>
        <time>2018-10-06T10:22:44.000Z</time>
      </trkpt>
      <trkpt lat="38.11845167" lon="-4.89163">
        <ele>536.0</ele>
        <time>2018-10-06T10:22:45.000Z</time>
      </trkpt>
      <trkpt lat="38.11845667" lon="-4.89163833">
        <ele>536.0</ele>
        <time>2018-10-06T10:22:46.000Z</time>
      </trkpt>
      <trkpt lat="38.11846333" lon="-4.89164833">
        <ele>536.0</ele>
        <time>2018-10-06T10:22:47.000Z</time>
      </trkpt>
      <trkpt lat="38.11847" lon="-4.891655">
        <ele>536.0</ele>
        <time>2018-10-06T10:22:48.000Z</time>
      </trkpt>
      <trkpt lat="38.11847833" lon="-4.89166333">
        <ele>536.0</ele>
        <time>2018-10-06T10:22:49.000Z</time>
      </trkpt>
      <trkpt lat="38.118485" lon="-4.89167167">
        <ele>536.0</ele>
        <time>2018-10-06T10:22:50.000Z</time>
      </trkpt>
      <trkpt lat="38.11849" lon="-4.89167833">
        <ele>535.0</ele>
        <time>2018-10-06T10:22:51.000Z</time>
      </trkpt>
      <trkpt lat="38.11849333" lon="-4.89168333">
        <ele>535.0</ele>
        <time>2018-10-06T10:22:52.000Z</time>
      </trkpt>
      <trkpt lat="38.11849833" lon="-4.89169">
        <ele>535.0</ele>
        <time>2018-10-06T10:22:53.000Z</time>
      </trkpt>
      <trkpt lat="38.11850333" lon="-4.89169667">
        <ele>535.0</ele>
        <time>2018-10-06T10:22:54.000Z</time>
      </trkpt>
      <trkpt lat="38.11851" lon="-4.891705">
        <ele>535.0</ele>
        <time>2018-10-06T10:22:55.000Z</time>
      </trkpt>
      <trkpt lat="38.11851333" lon="-4.89171">
        <ele>535.0</ele>
        <time>2018-10-06T10:22:56.000Z</time>
      </trkpt>
      <trkpt lat="38.11851667" lon="-4.89171667">
        <ele>535.0</ele>
        <time>2018-10-06T10:22:57.000Z</time>
      </trkpt>
      <trkpt lat="38.11852333" lon="-4.891725">
        <ele>535.0</ele>
        <time>2018-10-06T10:22:58.000Z</time>
      </trkpt>
      <trkpt lat="38.11853167" lon="-4.89173">
        <ele>535.0</ele>
        <time>2018-10-06T10:22:59.000Z</time>
      </trkpt>
      <trkpt lat="38.11853833" lon="-4.89173333">
        <ele>535.0</ele>
        <time>2018-10-06T10:23:00.000Z</time>
      </trkpt>
      <trkpt lat="38.11854333" lon="-4.89173667">
        <ele>535.0</ele>
        <time>2018-10-06T10:23:01.000Z</time>
      </trkpt>
      <trkpt lat="38.11855167" lon="-4.89174167">
        <ele>535.0</ele>
        <time>2018-10-06T10:23:02.000Z</time>
      </trkpt>
      <trkpt lat="38.11855667" lon="-4.89174833">
        <ele>535.0</ele>
        <time>2018-10-06T10:23:03.000Z</time>
      </trkpt>
      <trkpt lat="38.11856" lon="-4.89175333">
        <ele>534.0</ele>
        <time>2018-10-06T10:23:04.000Z</time>
      </trkpt>
      <trkpt lat="38.11856833" lon="-4.89176167">
        <ele>534.0</ele>
        <time>2018-10-06T10:23:05.000Z</time>
      </trkpt>
      <trkpt lat="38.11857667" lon="-4.89177">
        <ele>534.0</ele>
        <time>2018-10-06T10:23:06.000Z</time>
      </trkpt>
      <trkpt lat="38.118585" lon="-4.89177667">
        <ele>534.0</ele>
        <time>2018-10-06T10:23:07.000Z</time>
      </trkpt>
      <trkpt lat="38.11859333" lon="-4.89178333">
        <ele>534.0</ele>
        <time>2018-10-06T10:23:08.000Z</time>
      </trkpt>
      <trkpt lat="38.11860167" lon="-4.89179167">
        <ele>534.0</ele>
        <time>2018-10-06T10:23:09.000Z</time>
      </trkpt>
      <trkpt lat="38.11860667" lon="-4.89179667">
        <ele>534.0</ele>
        <time>2018-10-06T10:23:10.000Z</time>
      </trkpt>
      <trkpt lat="38.118615" lon="-4.89180333">
        <ele>534.0</ele>
        <time>2018-10-06T10:23:11.000Z</time>
      </trkpt>
      <trkpt lat="38.11862167" lon="-4.89180833">
        <ele>534.0</ele>
        <time>2018-10-06T10:23:12.000Z</time>
      </trkpt>
      <trkpt lat="38.11862667" lon="-4.891815">
        <ele>534.0</ele>
        <time>2018-10-06T10:23:13.000Z</time>
      </trkpt>
      <trkpt lat="38.118635" lon="-4.89182167">
        <ele>534.0</ele>
        <time>2018-10-06T10:23:14.000Z</time>
      </trkpt>
      <trkpt lat="38.11864167" lon="-4.89183">
        <ele>534.0</ele>
        <time>2018-10-06T10:23:15.000Z</time>
      </trkpt>
      <trkpt lat="38.11864833" lon="-4.89183667">
        <ele>534.0</ele>
        <time>2018-10-06T10:23:16.000Z</time>
      </trkpt>
      <trkpt lat="38.118655" lon="-4.891845">
        <ele>533.0</ele>
        <time>2018-10-06T10:23:17.000Z</time>
      </trkpt>
      <trkpt lat="38.11866333" lon="-4.89185333">
        <ele>533.0</ele>
        <time>2018-10-06T10:23:18.000Z</time>
      </trkpt>
      <trkpt lat="38.11866833" lon="-4.89186">
        <ele>533.0</ele>
        <time>2018-10-06T10:23:19.000Z</time>
      </trkpt>
      <trkpt lat="38.118675" lon="-4.89186667">
        <ele>533.0</ele>
        <time>2018-10-06T10:23:20.000Z</time>
      </trkpt>
      <trkpt lat="38.11868333" lon="-4.89187667">
        <ele>533.0</ele>
        <time>2018-10-06T10:23:21.000Z</time>
      </trkpt>
      <trkpt lat="38.11868667" lon="-4.891885">
        <ele>533.0</ele>
        <time>2018-10-06T10:23:22.000Z</time>
      </trkpt>
      <trkpt lat="38.11869333" lon="-4.89189333">
        <ele>532.0</ele>
        <time>2018-10-06T10:23:23.000Z</time>
      </trkpt>
      <trkpt lat="38.1187" lon="-4.89190167">
        <ele>532.0</ele>
        <time>2018-10-06T10:23:24.000Z</time>
      </trkpt>
      <trkpt lat="38.11870833" lon="-4.89191">
        <ele>532.0</ele>
        <time>2018-10-06T10:23:25.000Z</time>
      </trkpt>
      <trkpt lat="38.11871667" lon="-4.89192">
        <ele>532.0</ele>
        <time>2018-10-06T10:23:26.000Z</time>
      </trkpt>
      <trkpt lat="38.11872667" lon="-4.89192833">
        <ele>532.0</ele>
        <time>2018-10-06T10:23:27.000Z</time>
      </trkpt>
      <trkpt lat="38.118735" lon="-4.89193667">
        <ele>532.0</ele>
        <time>2018-10-06T10:23:28.000Z</time>
      </trkpt>
      <trkpt lat="38.118745" lon="-4.891945">
        <ele>532.0</ele>
        <time>2018-10-06T10:23:29.000Z</time>
      </trkpt>
      <trkpt lat="38.118755" lon="-4.89195333">
        <ele>532.0</ele>
        <time>2018-10-06T10:23:30.000Z</time>
      </trkpt>
      <trkpt lat="38.11876333" lon="-4.89196">
        <ele>531.0</ele>
        <time>2018-10-06T10:23:31.000Z</time>
      </trkpt>
      <trkpt lat="38.11877167" lon="-4.891965">
        <ele>531.0</ele>
        <time>2018-10-06T10:23:32.000Z</time>
      </trkpt>
      <trkpt lat="38.11878167" lon="-4.89196833">
        <ele>531.0</ele>
        <time>2018-10-06T10:23:33.000Z</time>
      </trkpt>
      <trkpt lat="38.11879" lon="-4.89197">
        <ele>531.0</ele>
        <time>2018-10-06T10:23:34.000Z</time>
      </trkpt>
      <trkpt lat="38.11879667" lon="-4.89197167">
        <ele>531.0</ele>
        <time>2018-10-06T10:23:35.000Z</time>
      </trkpt>
      <trkpt lat="38.11880333" lon="-4.89197167">
        <ele>531.0</ele>
        <time>2018-10-06T10:23:36.000Z</time>
      </trkpt>
      <trkpt lat="38.11881333" lon="-4.89196833">
        <ele>531.0</ele>
        <time>2018-10-06T10:23:37.000Z</time>
      </trkpt>
      <trkpt lat="38.11882167" lon="-4.891965">
        <ele>531.0</ele>
        <time>2018-10-06T10:23:38.000Z</time>
      </trkpt>
      <trkpt lat="38.11882833" lon="-4.89196">
        <ele>531.0</ele>
        <time>2018-10-06T10:23:39.000Z</time>
      </trkpt>
      <trkpt lat="38.11882833" lon="-4.89195667">
        <ele>531.0</ele>
        <time>2018-10-06T10:23:40.000Z</time>
      </trkpt>
      <trkpt lat="38.11882833" lon="-4.89195667">
        <ele>531.0</ele>
        <time>2018-10-06T10:23:41.000Z</time>
      </trkpt>
      <trkpt lat="38.11882833" lon="-4.89195833">
        <ele>531.0</ele>
        <time>2018-10-06T10:23:42.000Z</time>
      </trkpt>
      <trkpt lat="38.11882833" lon="-4.89196">
        <ele>531.0</ele>
        <time>2018-10-06T10:23:43.000Z</time>
      </trkpt>
      <trkpt lat="38.11883167" lon="-4.89196">
        <ele>531.0</ele>
        <time>2018-10-06T10:23:44.000Z</time>
      </trkpt>
      <trkpt lat="38.118835" lon="-4.89196333">
        <ele>531.0</ele>
        <time>2018-10-06T10:23:45.000Z</time>
      </trkpt>
      <trkpt lat="38.11883833" lon="-4.89196333">
        <ele>531.0</ele>
        <time>2018-10-06T10:23:46.000Z</time>
      </trkpt>
      <trkpt lat="38.11884167" lon="-4.89196333">
        <ele>532.0</ele>
        <time>2018-10-06T10:23:47.000Z</time>
      </trkpt>
      <trkpt lat="38.11884667" lon="-4.89196167">
        <ele>532.0</ele>
        <time>2018-10-06T10:23:48.000Z</time>
      </trkpt>
      <trkpt lat="38.11885333" lon="-4.89196">
        <ele>532.0</ele>
        <time>2018-10-06T10:23:49.000Z</time>
      </trkpt>
      <trkpt lat="38.11885833" lon="-4.89195833">
        <ele>532.0</ele>
        <time>2018-10-06T10:23:50.000Z</time>
      </trkpt>
      <trkpt lat="38.11886667" lon="-4.89195667">
        <ele>532.0</ele>
        <time>2018-10-06T10:23:51.000Z</time>
      </trkpt>
      <trkpt lat="38.11887667" lon="-4.89195">
        <ele>532.0</ele>
        <time>2018-10-06T10:23:52.000Z</time>
      </trkpt>
      <trkpt lat="38.11888333" lon="-4.89194667">
        <ele>532.0</ele>
        <time>2018-10-06T10:23:53.000Z</time>
      </trkpt>
      <trkpt lat="38.11889" lon="-4.89194167">
        <ele>532.0</ele>
        <time>2018-10-06T10:23:54.000Z</time>
      </trkpt>
      <trkpt lat="38.11889833" lon="-4.891935">
        <ele>533.0</ele>
        <time>2018-10-06T10:23:55.000Z</time>
      </trkpt>
      <trkpt lat="38.11890833" lon="-4.89193">
        <ele>533.0</ele>
        <time>2018-10-06T10:23:56.000Z</time>
      </trkpt>
      <trkpt lat="38.11891833" lon="-4.89192667">
        <ele>533.0</ele>
        <time>2018-10-06T10:23:57.000Z</time>
      </trkpt>
      <trkpt lat="38.11892833" lon="-4.89192333">
        <ele>533.0</ele>
        <time>2018-10-06T10:23:58.000Z</time>
      </trkpt>
      <trkpt lat="38.11893833" lon="-4.89192167">
        <ele>533.0</ele>
        <time>2018-10-06T10:23:59.000Z</time>
      </trkpt>
      <trkpt lat="38.118945" lon="-4.89192167">
        <ele>533.0</ele>
        <time>2018-10-06T10:24:00.000Z</time>
      </trkpt>
      <trkpt lat="38.118955" lon="-4.89192167">
        <ele>533.0</ele>
        <time>2018-10-06T10:24:01.000Z</time>
      </trkpt>
      <trkpt lat="38.11896333" lon="-4.89192167">
        <ele>533.0</ele>
        <time>2018-10-06T10:24:02.000Z</time>
      </trkpt>
      <trkpt lat="38.11897167" lon="-4.891925">
        <ele>533.0</ele>
        <time>2018-10-06T10:24:03.000Z</time>
      </trkpt>
      <trkpt lat="38.11898" lon="-4.89193">
        <ele>533.0</ele>
        <time>2018-10-06T10:24:04.000Z</time>
      </trkpt>
      <trkpt lat="38.11898667" lon="-4.89194">
        <ele>533.0</ele>
        <time>2018-10-06T10:24:05.000Z</time>
      </trkpt>
      <trkpt lat="38.11899167" lon="-4.89195167">
        <ele>533.0</ele>
        <time>2018-10-06T10:24:06.000Z</time>
      </trkpt>
      <trkpt lat="38.11899667" lon="-4.89196333">
        <ele>533.0</ele>
        <time>2018-10-06T10:24:07.000Z</time>
      </trkpt>
      <trkpt lat="38.11900167" lon="-4.89197333">
        <ele>533.0</ele>
        <time>2018-10-06T10:24:08.000Z</time>
      </trkpt>
      <trkpt lat="38.119005" lon="-4.891985">
        <ele>533.0</ele>
        <time>2018-10-06T10:24:09.000Z</time>
      </trkpt>
      <trkpt lat="38.11900833" lon="-4.89199667">
        <ele>533.0</ele>
        <time>2018-10-06T10:24:10.000Z</time>
      </trkpt>
      <trkpt lat="38.11901333" lon="-4.89201">
        <ele>533.0</ele>
        <time>2018-10-06T10:24:11.000Z</time>
      </trkpt>
      <trkpt lat="38.11902" lon="-4.89202333">
        <ele>533.0</ele>
        <time>2018-10-06T10:24:12.000Z</time>
      </trkpt>
      <trkpt lat="38.11902333" lon="-4.89203833">
        <ele>533.0</ele>
        <time>2018-10-06T10:24:13.000Z</time>
      </trkpt>
      <trkpt lat="38.11902833" lon="-4.89205167">
        <ele>533.0</ele>
        <time>2018-10-06T10:24:14.000Z</time>
      </trkpt>
      <trkpt lat="38.11903167" lon="-4.89206333">
        <ele>533.0</ele>
        <time>2018-10-06T10:24:15.000Z</time>
      </trkpt>
      <trkpt lat="38.119035" lon="-4.89207667">
        <ele>533.0</ele>
        <time>2018-10-06T10:24:16.000Z</time>
      </trkpt>
      <trkpt lat="38.11903833" lon="-4.89208833">
        <ele>533.0</ele>
        <time>2018-10-06T10:24:17.000Z</time>
      </trkpt>
      <trkpt lat="38.11904167" lon="-4.8921">
        <ele>533.0</ele>
        <time>2018-10-06T10:24:18.000Z</time>
      </trkpt>
      <trkpt lat="38.11904333" lon="-4.89211333">
        <ele>533.0</ele>
        <time>2018-10-06T10:24:19.000Z</time>
      </trkpt>
      <trkpt lat="38.11904833" lon="-4.89212667">
        <ele>533.0</ele>
        <time>2018-10-06T10:24:20.000Z</time>
      </trkpt>
      <trkpt lat="38.11905167" lon="-4.89214">
        <ele>533.0</ele>
        <time>2018-10-06T10:24:21.000Z</time>
      </trkpt>
      <trkpt lat="38.119055" lon="-4.89215333">
        <ele>533.0</ele>
        <time>2018-10-06T10:24:22.000Z</time>
      </trkpt>
      <trkpt lat="38.11905833" lon="-4.89216833">
        <ele>533.0</ele>
        <time>2018-10-06T10:24:23.000Z</time>
      </trkpt>
      <trkpt lat="38.11906167" lon="-4.89218167">
        <ele>533.0</ele>
        <time>2018-10-06T10:24:24.000Z</time>
      </trkpt>
      <trkpt lat="38.119065" lon="-4.89219333">
        <ele>533.0</ele>
        <time>2018-10-06T10:24:25.000Z</time>
      </trkpt>
      <trkpt lat="38.11906833" lon="-4.892205">
        <ele>533.0</ele>
        <time>2018-10-06T10:24:26.000Z</time>
      </trkpt>
      <trkpt lat="38.11907167" lon="-4.89221667">
        <ele>533.0</ele>
        <time>2018-10-06T10:24:27.000Z</time>
      </trkpt>
      <trkpt lat="38.11907333" lon="-4.89222333">
        <ele>533.0</ele>
        <time>2018-10-06T10:24:28.000Z</time>
      </trkpt>
      <trkpt lat="38.119075" lon="-4.89223167">
        <ele>533.0</ele>
        <time>2018-10-06T10:24:29.000Z</time>
      </trkpt>
      <trkpt lat="38.11907667" lon="-4.89224333">
        <ele>533.0</ele>
        <time>2018-10-06T10:24:30.000Z</time>
      </trkpt>
      <trkpt lat="38.11908333" lon="-4.89225333">
        <ele>533.0</ele>
        <time>2018-10-06T10:24:31.000Z</time>
      </trkpt>
      <trkpt lat="38.11908667" lon="-4.89225667">
        <ele>533.0</ele>
        <time>2018-10-06T10:24:32.000Z</time>
      </trkpt>
      <trkpt lat="38.11908667" lon="-4.89225833">
        <ele>533.0</ele>
        <time>2018-10-06T10:24:33.000Z</time>
      </trkpt>
      <trkpt lat="38.119085" lon="-4.89225833">
        <ele>533.0</ele>
        <time>2018-10-06T10:24:34.000Z</time>
      </trkpt>
      <trkpt lat="38.119085" lon="-4.892255">
        <ele>533.0</ele>
        <time>2018-10-06T10:24:35.000Z</time>
      </trkpt>
      <trkpt lat="38.11908333" lon="-4.892255">
        <ele>533.0</ele>
        <time>2018-10-06T10:24:36.000Z</time>
      </trkpt>
      <trkpt lat="38.11908333" lon="-4.892255">
        <ele>533.0</ele>
        <time>2018-10-06T10:24:37.000Z</time>
      </trkpt>
      <trkpt lat="38.11908333" lon="-4.892255">
        <ele>533.0</ele>
        <time>2018-10-06T10:24:38.000Z</time>
      </trkpt>
      <trkpt lat="38.11908333" lon="-4.892255">
        <ele>533.0</ele>
        <time>2018-10-06T10:24:39.000Z</time>
      </trkpt>
      <trkpt lat="38.11908167" lon="-4.892255">
        <ele>533.0</ele>
        <time>2018-10-06T10:24:40.000Z</time>
      </trkpt>
      <trkpt lat="38.11908167" lon="-4.892255">
        <ele>533.0</ele>
        <time>2018-10-06T10:24:41.000Z</time>
      </trkpt>
      <trkpt lat="38.11908167" lon="-4.89225667">
        <ele>533.0</ele>
        <time>2018-10-06T10:24:42.000Z</time>
      </trkpt>
      <trkpt lat="38.11908167" lon="-4.89225667">
        <ele>533.0</ele>
        <time>2018-10-06T10:24:43.000Z</time>
      </trkpt>
      <trkpt lat="38.11908167" lon="-4.89225667">
        <ele>533.0</ele>
        <time>2018-10-06T10:24:44.000Z</time>
      </trkpt>
      <trkpt lat="38.11908" lon="-4.89225667">
        <ele>533.0</ele>
        <time>2018-10-06T10:24:45.000Z</time>
      </trkpt>
      <trkpt lat="38.11908" lon="-4.89225667">
        <ele>533.0</ele>
        <time>2018-10-06T10:24:46.000Z</time>
      </trkpt>
      <trkpt lat="38.11907833" lon="-4.89226">
        <ele>533.0</ele>
        <time>2018-10-06T10:24:47.000Z</time>
      </trkpt>
      <trkpt lat="38.11907833" lon="-4.89226333">
        <ele>533.0</ele>
        <time>2018-10-06T10:24:48.000Z</time>
      </trkpt>
      <trkpt lat="38.11908" lon="-4.89226833">
        <ele>533.0</ele>
        <time>2018-10-06T10:24:49.000Z</time>
      </trkpt>
      <trkpt lat="38.11908167" lon="-4.89227333">
        <ele>533.0</ele>
        <time>2018-10-06T10:24:50.000Z</time>
      </trkpt>
      <trkpt lat="38.11908833" lon="-4.89228">
        <ele>533.0</ele>
        <time>2018-10-06T10:24:51.000Z</time>
      </trkpt>
      <trkpt lat="38.11909333" lon="-4.89228833">
        <ele>533.0</ele>
        <time>2018-10-06T10:24:52.000Z</time>
      </trkpt>
      <trkpt lat="38.119095" lon="-4.8923">
        <ele>532.0</ele>
        <time>2018-10-06T10:24:53.000Z</time>
      </trkpt>
      <trkpt lat="38.11909833" lon="-4.89231">
        <ele>532.0</ele>
        <time>2018-10-06T10:24:54.000Z</time>
      </trkpt>
      <trkpt lat="38.11910333" lon="-4.89232">
        <ele>532.0</ele>
        <time>2018-10-06T10:24:55.000Z</time>
      </trkpt>
      <trkpt lat="38.11910667" lon="-4.89233167">
        <ele>532.0</ele>
        <time>2018-10-06T10:24:56.000Z</time>
      </trkpt>
      <trkpt lat="38.11911333" lon="-4.89234333">
        <ele>532.0</ele>
        <time>2018-10-06T10:24:57.000Z</time>
      </trkpt>
      <trkpt lat="38.11912" lon="-4.892355">
        <ele>532.0</ele>
        <time>2018-10-06T10:24:58.000Z</time>
      </trkpt>
      <trkpt lat="38.11912833" lon="-4.89236667">
        <ele>532.0</ele>
        <time>2018-10-06T10:24:59.000Z</time>
      </trkpt>
      <trkpt lat="38.11913667" lon="-4.89237667">
        <ele>532.0</ele>
        <time>2018-10-06T10:25:00.000Z</time>
      </trkpt>
      <trkpt lat="38.11914333" lon="-4.89238667">
        <ele>532.0</ele>
        <time>2018-10-06T10:25:01.000Z</time>
      </trkpt>
      <trkpt lat="38.11915" lon="-4.89239833">
        <ele>532.0</ele>
        <time>2018-10-06T10:25:02.000Z</time>
      </trkpt>
      <trkpt lat="38.11915833" lon="-4.89240833">
        <ele>532.0</ele>
        <time>2018-10-06T10:25:03.000Z</time>
      </trkpt>
      <trkpt lat="38.11916667" lon="-4.89242">
        <ele>532.0</ele>
        <time>2018-10-06T10:25:04.000Z</time>
      </trkpt>
      <trkpt lat="38.11917333" lon="-4.89243">
        <ele>532.0</ele>
        <time>2018-10-06T10:25:05.000Z</time>
      </trkpt>
      <trkpt lat="38.11918" lon="-4.89244167">
        <ele>532.0</ele>
        <time>2018-10-06T10:25:06.000Z</time>
      </trkpt>
      <trkpt lat="38.11918833" lon="-4.89245167">
        <ele>532.0</ele>
        <time>2018-10-06T10:25:07.000Z</time>
      </trkpt>
      <trkpt lat="38.11919667" lon="-4.89246333">
        <ele>532.0</ele>
        <time>2018-10-06T10:25:08.000Z</time>
      </trkpt>
      <trkpt lat="38.11920333" lon="-4.89247333">
        <ele>532.0</ele>
        <time>2018-10-06T10:25:09.000Z</time>
      </trkpt>
      <trkpt lat="38.11921167" lon="-4.892485">
        <ele>532.0</ele>
        <time>2018-10-06T10:25:10.000Z</time>
      </trkpt>
      <trkpt lat="38.11922" lon="-4.89249833">
        <ele>532.0</ele>
        <time>2018-10-06T10:25:11.000Z</time>
      </trkpt>
      <trkpt lat="38.11922667" lon="-4.89251167">
        <ele>532.0</ele>
        <time>2018-10-06T10:25:12.000Z</time>
      </trkpt>
      <trkpt lat="38.11923333" lon="-4.892525">
        <ele>532.0</ele>
        <time>2018-10-06T10:25:13.000Z</time>
      </trkpt>
      <trkpt lat="38.11924" lon="-4.89254">
        <ele>532.0</ele>
        <time>2018-10-06T10:25:14.000Z</time>
      </trkpt>
      <trkpt lat="38.119245" lon="-4.89255333">
        <ele>532.0</ele>
        <time>2018-10-06T10:25:15.000Z</time>
      </trkpt>
      <trkpt lat="38.11925167" lon="-4.89256667">
        <ele>532.0</ele>
        <time>2018-10-06T10:25:16.000Z</time>
      </trkpt>
      <trkpt lat="38.11925833" lon="-4.89257833">
        <ele>532.0</ele>
        <time>2018-10-06T10:25:17.000Z</time>
      </trkpt>
      <trkpt lat="38.11926667" lon="-4.89259">
        <ele>532.0</ele>
        <time>2018-10-06T10:25:18.000Z</time>
      </trkpt>
      <trkpt lat="38.11927333" lon="-4.89260333">
        <ele>532.0</ele>
        <time>2018-10-06T10:25:19.000Z</time>
      </trkpt>
      <trkpt lat="38.11928" lon="-4.892615">
        <ele>532.0</ele>
        <time>2018-10-06T10:25:20.000Z</time>
      </trkpt>
      <trkpt lat="38.119285" lon="-4.89262667">
        <ele>532.0</ele>
        <time>2018-10-06T10:25:21.000Z</time>
      </trkpt>
      <trkpt lat="38.11929167" lon="-4.89264">
        <ele>532.0</ele>
        <time>2018-10-06T10:25:22.000Z</time>
      </trkpt>
      <trkpt lat="38.11929667" lon="-4.89265333">
        <ele>532.0</ele>
        <time>2018-10-06T10:25:23.000Z</time>
      </trkpt>
      <trkpt lat="38.11930333" lon="-4.89266833">
        <ele>532.0</ele>
        <time>2018-10-06T10:25:24.000Z</time>
      </trkpt>
      <trkpt lat="38.11931" lon="-4.89268">
        <ele>532.0</ele>
        <time>2018-10-06T10:25:25.000Z</time>
      </trkpt>
      <trkpt lat="38.119315" lon="-4.89269167">
        <ele>532.0</ele>
        <time>2018-10-06T10:25:26.000Z</time>
      </trkpt>
      <trkpt lat="38.11932" lon="-4.89270333">
        <ele>531.0</ele>
        <time>2018-10-06T10:25:27.000Z</time>
      </trkpt>
      <trkpt lat="38.11932333" lon="-4.892715">
        <ele>531.0</ele>
        <time>2018-10-06T10:25:28.000Z</time>
      </trkpt>
      <trkpt lat="38.11932833" lon="-4.892725">
        <ele>531.0</ele>
        <time>2018-10-06T10:25:29.000Z</time>
      </trkpt>
      <trkpt lat="38.119335" lon="-4.892735">
        <ele>531.0</ele>
        <time>2018-10-06T10:25:30.000Z</time>
      </trkpt>
      <trkpt lat="38.11933833" lon="-4.89274667">
        <ele>531.0</ele>
        <time>2018-10-06T10:25:31.000Z</time>
      </trkpt>
      <trkpt lat="38.11934167" lon="-4.89275833">
        <ele>531.0</ele>
        <time>2018-10-06T10:25:32.000Z</time>
      </trkpt>
      <trkpt lat="38.11934667" lon="-4.89277">
        <ele>531.0</ele>
        <time>2018-10-06T10:25:33.000Z</time>
      </trkpt>
      <trkpt lat="38.11935" lon="-4.89278167">
        <ele>531.0</ele>
        <time>2018-10-06T10:25:34.000Z</time>
      </trkpt>
      <trkpt lat="38.119355" lon="-4.89279333">
        <ele>531.0</ele>
        <time>2018-10-06T10:25:35.000Z</time>
      </trkpt>
      <trkpt lat="38.11936" lon="-4.892805">
        <ele>531.0</ele>
        <time>2018-10-06T10:25:36.000Z</time>
      </trkpt>
      <trkpt lat="38.119365" lon="-4.89281667">
        <ele>530.0</ele>
        <time>2018-10-06T10:25:37.000Z</time>
      </trkpt>
      <trkpt lat="38.11936833" lon="-4.89282833">
        <ele>530.0</ele>
        <time>2018-10-06T10:25:38.000Z</time>
      </trkpt>
      <trkpt lat="38.11937167" lon="-4.89284">
        <ele>530.0</ele>
        <time>2018-10-06T10:25:39.000Z</time>
      </trkpt>
      <trkpt lat="38.119375" lon="-4.89285">
        <ele>530.0</ele>
        <time>2018-10-06T10:25:40.000Z</time>
      </trkpt>
      <trkpt lat="38.11937833" lon="-4.89286">
        <ele>530.0</ele>
        <time>2018-10-06T10:25:41.000Z</time>
      </trkpt>
      <trkpt lat="38.11938333" lon="-4.89287">
        <ele>530.0</ele>
        <time>2018-10-06T10:25:42.000Z</time>
      </trkpt>
      <trkpt lat="38.11938667" lon="-4.89288167">
        <ele>530.0</ele>
        <time>2018-10-06T10:25:43.000Z</time>
      </trkpt>
      <trkpt lat="38.11939" lon="-4.89289167">
        <ele>530.0</ele>
        <time>2018-10-06T10:25:44.000Z</time>
      </trkpt>
      <trkpt lat="38.11939333" lon="-4.892905">
        <ele>530.0</ele>
        <time>2018-10-06T10:25:45.000Z</time>
      </trkpt>
      <trkpt lat="38.11939667" lon="-4.89291833">
        <ele>530.0</ele>
        <time>2018-10-06T10:25:46.000Z</time>
      </trkpt>
      <trkpt lat="38.11939833" lon="-4.89293167">
        <ele>529.0</ele>
        <time>2018-10-06T10:25:47.000Z</time>
      </trkpt>
      <trkpt lat="38.1194" lon="-4.89294333">
        <ele>529.0</ele>
        <time>2018-10-06T10:25:48.000Z</time>
      </trkpt>
      <trkpt lat="38.1194" lon="-4.892955">
        <ele>529.0</ele>
        <time>2018-10-06T10:25:49.000Z</time>
      </trkpt>
      <trkpt lat="38.11940167" lon="-4.89296667">
        <ele>529.0</ele>
        <time>2018-10-06T10:25:50.000Z</time>
      </trkpt>
      <trkpt lat="38.11940333" lon="-4.89297667">
        <ele>529.0</ele>
        <time>2018-10-06T10:25:51.000Z</time>
      </trkpt>
      <trkpt lat="38.119405" lon="-4.89299">
        <ele>529.0</ele>
        <time>2018-10-06T10:25:52.000Z</time>
      </trkpt>
      <trkpt lat="38.11940667" lon="-4.893005">
        <ele>529.0</ele>
        <time>2018-10-06T10:25:53.000Z</time>
      </trkpt>
      <trkpt lat="38.11940667" lon="-4.89301667">
        <ele>529.0</ele>
        <time>2018-10-06T10:25:54.000Z</time>
      </trkpt>
      <trkpt lat="38.11940833" lon="-4.89303">
        <ele>529.0</ele>
        <time>2018-10-06T10:25:55.000Z</time>
      </trkpt>
      <trkpt lat="38.11941" lon="-4.89304333">
        <ele>528.0</ele>
        <time>2018-10-06T10:25:56.000Z</time>
      </trkpt>
      <trkpt lat="38.11941167" lon="-4.89305667">
        <ele>528.0</ele>
        <time>2018-10-06T10:25:57.000Z</time>
      </trkpt>
      <trkpt lat="38.11941333" lon="-4.89307167">
        <ele>528.0</ele>
        <time>2018-10-06T10:25:58.000Z</time>
      </trkpt>
      <trkpt lat="38.11941667" lon="-4.89308333">
        <ele>528.0</ele>
        <time>2018-10-06T10:25:59.000Z</time>
      </trkpt>
      <trkpt lat="38.11942" lon="-4.89309667">
        <ele>528.0</ele>
        <time>2018-10-06T10:26:00.000Z</time>
      </trkpt>
      <trkpt lat="38.11942333" lon="-4.89310833">
        <ele>528.0</ele>
        <time>2018-10-06T10:26:01.000Z</time>
      </trkpt>
      <trkpt lat="38.119425" lon="-4.89312167">
        <ele>528.0</ele>
        <time>2018-10-06T10:26:02.000Z</time>
      </trkpt>
      <trkpt lat="38.11942833" lon="-4.89313333">
        <ele>528.0</ele>
        <time>2018-10-06T10:26:03.000Z</time>
      </trkpt>
      <trkpt lat="38.11943" lon="-4.89314333">
        <ele>528.0</ele>
        <time>2018-10-06T10:26:04.000Z</time>
      </trkpt>
      <trkpt lat="38.11943333" lon="-4.89315667">
        <ele>528.0</ele>
        <time>2018-10-06T10:26:05.000Z</time>
      </trkpt>
      <trkpt lat="38.119435" lon="-4.89316833">
        <ele>527.0</ele>
        <time>2018-10-06T10:26:06.000Z</time>
      </trkpt>
      <trkpt lat="38.11944" lon="-4.89318167">
        <ele>527.0</ele>
        <time>2018-10-06T10:26:07.000Z</time>
      </trkpt>
      <trkpt lat="38.11944333" lon="-4.89319333">
        <ele>527.0</ele>
        <time>2018-10-06T10:26:08.000Z</time>
      </trkpt>
      <trkpt lat="38.11944667" lon="-4.89320333">
        <ele>527.0</ele>
        <time>2018-10-06T10:26:09.000Z</time>
      </trkpt>
      <trkpt lat="38.11945" lon="-4.893215">
        <ele>527.0</ele>
        <time>2018-10-06T10:26:10.000Z</time>
      </trkpt>
      <trkpt lat="38.11945333" lon="-4.89322833">
        <ele>527.0</ele>
        <time>2018-10-06T10:26:11.000Z</time>
      </trkpt>
      <trkpt lat="38.11945833" lon="-4.89324">
        <ele>527.0</ele>
        <time>2018-10-06T10:26:12.000Z</time>
      </trkpt>
      <trkpt lat="38.11946333" lon="-4.89325333">
        <ele>526.0</ele>
        <time>2018-10-06T10:26:13.000Z</time>
      </trkpt>
      <trkpt lat="38.11946833" lon="-4.893265">
        <ele>526.0</ele>
        <time>2018-10-06T10:26:14.000Z</time>
      </trkpt>
      <trkpt lat="38.119475" lon="-4.89327667">
        <ele>526.0</ele>
        <time>2018-10-06T10:26:15.000Z</time>
      </trkpt>
      <trkpt lat="38.11947667" lon="-4.893285">
        <ele>526.0</ele>
        <time>2018-10-06T10:26:16.000Z</time>
      </trkpt>
      <trkpt lat="38.11948" lon="-4.89329667">
        <ele>526.0</ele>
        <time>2018-10-06T10:26:17.000Z</time>
      </trkpt>
      <trkpt lat="38.119485" lon="-4.893305">
        <ele>526.0</ele>
        <time>2018-10-06T10:26:18.000Z</time>
      </trkpt>
      <trkpt lat="38.11949" lon="-4.89331667">
        <ele>525.0</ele>
        <time>2018-10-06T10:26:19.000Z</time>
      </trkpt>
      <trkpt lat="38.11949333" lon="-4.89332833">
        <ele>525.0</ele>
        <time>2018-10-06T10:26:20.000Z</time>
      </trkpt>
      <trkpt lat="38.11949667" lon="-4.89334">
        <ele>525.0</ele>
        <time>2018-10-06T10:26:21.000Z</time>
      </trkpt>
      <trkpt lat="38.1195" lon="-4.89335333">
        <ele>525.0</ele>
        <time>2018-10-06T10:26:22.000Z</time>
      </trkpt>
      <trkpt lat="38.11950167" lon="-4.89336667">
        <ele>525.0</ele>
        <time>2018-10-06T10:26:23.000Z</time>
      </trkpt>
      <trkpt lat="38.119505" lon="-4.89338167">
        <ele>525.0</ele>
        <time>2018-10-06T10:26:24.000Z</time>
      </trkpt>
      <trkpt lat="38.11950833" lon="-4.89339667">
        <ele>525.0</ele>
        <time>2018-10-06T10:26:25.000Z</time>
      </trkpt>
      <trkpt lat="38.11951167" lon="-4.89341">
        <ele>525.0</ele>
        <time>2018-10-06T10:26:26.000Z</time>
      </trkpt>
      <trkpt lat="38.119515" lon="-4.89342333">
        <ele>525.0</ele>
        <time>2018-10-06T10:26:27.000Z</time>
      </trkpt>
      <trkpt lat="38.11952" lon="-4.89343667">
        <ele>524.0</ele>
        <time>2018-10-06T10:26:28.000Z</time>
      </trkpt>
      <trkpt lat="38.11952333" lon="-4.89344833">
        <ele>524.0</ele>
        <time>2018-10-06T10:26:29.000Z</time>
      </trkpt>
      <trkpt lat="38.11952833" lon="-4.89346167">
        <ele>524.0</ele>
        <time>2018-10-06T10:26:30.000Z</time>
      </trkpt>
      <trkpt lat="38.11953333" lon="-4.893475">
        <ele>524.0</ele>
        <time>2018-10-06T10:26:31.000Z</time>
      </trkpt>
      <trkpt lat="38.11953667" lon="-4.89349">
        <ele>524.0</ele>
        <time>2018-10-06T10:26:32.000Z</time>
      </trkpt>
      <trkpt lat="38.11954" lon="-4.893505">
        <ele>524.0</ele>
        <time>2018-10-06T10:26:33.000Z</time>
      </trkpt>
      <trkpt lat="38.119545" lon="-4.89352">
        <ele>524.0</ele>
        <time>2018-10-06T10:26:34.000Z</time>
      </trkpt>
      <trkpt lat="38.11954833" lon="-4.893535">
        <ele>524.0</ele>
        <time>2018-10-06T10:26:35.000Z</time>
      </trkpt>
      <trkpt lat="38.11955" lon="-4.89355">
        <ele>524.0</ele>
        <time>2018-10-06T10:26:36.000Z</time>
      </trkpt>
      <trkpt lat="38.11955167" lon="-4.89356167">
        <ele>524.0</ele>
        <time>2018-10-06T10:26:37.000Z</time>
      </trkpt>
      <trkpt lat="38.119555" lon="-4.893575">
        <ele>524.0</ele>
        <time>2018-10-06T10:26:38.000Z</time>
      </trkpt>
      <trkpt lat="38.11955667" lon="-4.89359">
        <ele>524.0</ele>
        <time>2018-10-06T10:26:39.000Z</time>
      </trkpt>
      <trkpt lat="38.11956167" lon="-4.89360833">
        <ele>524.0</ele>
        <time>2018-10-06T10:26:40.000Z</time>
      </trkpt>
      <trkpt lat="38.119565" lon="-4.893625">
        <ele>524.0</ele>
        <time>2018-10-06T10:26:41.000Z</time>
      </trkpt>
      <trkpt lat="38.11956833" lon="-4.89364">
        <ele>524.0</ele>
        <time>2018-10-06T10:26:42.000Z</time>
      </trkpt>
      <trkpt lat="38.11957167" lon="-4.893655">
        <ele>524.0</ele>
        <time>2018-10-06T10:26:43.000Z</time>
      </trkpt>
      <trkpt lat="38.11957333" lon="-4.89367">
        <ele>524.0</ele>
        <time>2018-10-06T10:26:44.000Z</time>
      </trkpt>
      <trkpt lat="38.11957667" lon="-4.893685">
        <ele>524.0</ele>
        <time>2018-10-06T10:26:45.000Z</time>
      </trkpt>
      <trkpt lat="38.11957833" lon="-4.8937">
        <ele>524.0</ele>
        <time>2018-10-06T10:26:46.000Z</time>
      </trkpt>
      <trkpt lat="38.11958" lon="-4.89371333">
        <ele>524.0</ele>
        <time>2018-10-06T10:26:47.000Z</time>
      </trkpt>
      <trkpt lat="38.11958167" lon="-4.89372667">
        <ele>524.0</ele>
        <time>2018-10-06T10:26:48.000Z</time>
      </trkpt>
      <trkpt lat="38.11958333" lon="-4.89374">
        <ele>524.0</ele>
        <time>2018-10-06T10:26:49.000Z</time>
      </trkpt>
      <trkpt lat="38.119585" lon="-4.89375333">
        <ele>524.0</ele>
        <time>2018-10-06T10:26:50.000Z</time>
      </trkpt>
      <trkpt lat="38.11958667" lon="-4.89376833">
        <ele>524.0</ele>
        <time>2018-10-06T10:26:51.000Z</time>
      </trkpt>
      <trkpt lat="38.11958833" lon="-4.89378333">
        <ele>524.0</ele>
        <time>2018-10-06T10:26:52.000Z</time>
      </trkpt>
      <trkpt lat="38.11958833" lon="-4.89379833">
        <ele>524.0</ele>
        <time>2018-10-06T10:26:53.000Z</time>
      </trkpt>
      <trkpt lat="38.11959167" lon="-4.89381333">
        <ele>524.0</ele>
        <time>2018-10-06T10:26:54.000Z</time>
      </trkpt>
      <trkpt lat="38.11959333" lon="-4.89382833">
        <ele>524.0</ele>
        <time>2018-10-06T10:26:55.000Z</time>
      </trkpt>
      <trkpt lat="38.119595" lon="-4.89384333">
        <ele>524.0</ele>
        <time>2018-10-06T10:26:56.000Z</time>
      </trkpt>
      <trkpt lat="38.119595" lon="-4.89385833">
        <ele>524.0</ele>
        <time>2018-10-06T10:26:57.000Z</time>
      </trkpt>
      <trkpt lat="38.119595" lon="-4.89387167">
        <ele>524.0</ele>
        <time>2018-10-06T10:26:58.000Z</time>
      </trkpt>
      <trkpt lat="38.11959667" lon="-4.893885">
        <ele>524.0</ele>
        <time>2018-10-06T10:26:59.000Z</time>
      </trkpt>
      <trkpt lat="38.1196" lon="-4.89390167">
        <ele>524.0</ele>
        <time>2018-10-06T10:27:00.000Z</time>
      </trkpt>
      <trkpt lat="38.11960167" lon="-4.89391667">
        <ele>524.0</ele>
        <time>2018-10-06T10:27:01.000Z</time>
      </trkpt>
      <trkpt lat="38.119605" lon="-4.89393167">
        <ele>524.0</ele>
        <time>2018-10-06T10:27:02.000Z</time>
      </trkpt>
      <trkpt lat="38.11960667" lon="-4.89394833">
        <ele>524.0</ele>
        <time>2018-10-06T10:27:03.000Z</time>
      </trkpt>
      <trkpt lat="38.11961" lon="-4.89396333">
        <ele>523.0</ele>
        <time>2018-10-06T10:27:04.000Z</time>
      </trkpt>
      <trkpt lat="38.119615" lon="-4.89398">
        <ele>523.0</ele>
        <time>2018-10-06T10:27:05.000Z</time>
      </trkpt>
      <trkpt lat="38.11961667" lon="-4.893995">
        <ele>523.0</ele>
        <time>2018-10-06T10:27:06.000Z</time>
      </trkpt>
      <trkpt lat="38.11962" lon="-4.89401">
        <ele>523.0</ele>
        <time>2018-10-06T10:27:07.000Z</time>
      </trkpt>
      <trkpt lat="38.11962167" lon="-4.89402333">
        <ele>523.0</ele>
        <time>2018-10-06T10:27:08.000Z</time>
      </trkpt>
      <trkpt lat="38.119625" lon="-4.89403667">
        <ele>523.0</ele>
        <time>2018-10-06T10:27:09.000Z</time>
      </trkpt>
      <trkpt lat="38.11962833" lon="-4.89404833">
        <ele>523.0</ele>
        <time>2018-10-06T10:27:10.000Z</time>
      </trkpt>
      <trkpt lat="38.11963" lon="-4.89406167">
        <ele>523.0</ele>
        <time>2018-10-06T10:27:11.000Z</time>
      </trkpt>
      <trkpt lat="38.119635" lon="-4.894075">
        <ele>523.0</ele>
        <time>2018-10-06T10:27:12.000Z</time>
      </trkpt>
      <trkpt lat="38.11963833" lon="-4.89408833">
        <ele>524.0</ele>
        <time>2018-10-06T10:27:13.000Z</time>
      </trkpt>
      <trkpt lat="38.11964333" lon="-4.89410333">
        <ele>524.0</ele>
        <time>2018-10-06T10:27:14.000Z</time>
      </trkpt>
      <trkpt lat="38.11964833" lon="-4.89411667">
        <ele>524.0</ele>
        <time>2018-10-06T10:27:15.000Z</time>
      </trkpt>
      <trkpt lat="38.11965167" lon="-4.89412833">
        <ele>524.0</ele>
        <time>2018-10-06T10:27:16.000Z</time>
      </trkpt>
      <trkpt lat="38.11965333" lon="-4.89413833">
        <ele>524.0</ele>
        <time>2018-10-06T10:27:17.000Z</time>
      </trkpt>
      <trkpt lat="38.119655" lon="-4.89415167">
        <ele>524.0</ele>
        <time>2018-10-06T10:27:18.000Z</time>
      </trkpt>
      <trkpt lat="38.11965833" lon="-4.89416333">
        <ele>524.0</ele>
        <time>2018-10-06T10:27:19.000Z</time>
      </trkpt>
      <trkpt lat="38.11966167" lon="-4.89417667">
        <ele>524.0</ele>
        <time>2018-10-06T10:27:20.000Z</time>
      </trkpt>
      <trkpt lat="38.119665" lon="-4.89419167">
        <ele>524.0</ele>
        <time>2018-10-06T10:27:21.000Z</time>
      </trkpt>
      <trkpt lat="38.11966833" lon="-4.894205">
        <ele>524.0</ele>
        <time>2018-10-06T10:27:22.000Z</time>
      </trkpt>
      <trkpt lat="38.11967" lon="-4.89422">
        <ele>524.0</ele>
        <time>2018-10-06T10:27:23.000Z</time>
      </trkpt>
      <trkpt lat="38.11967333" lon="-4.89423333">
        <ele>524.0</ele>
        <time>2018-10-06T10:27:24.000Z</time>
      </trkpt>
      <trkpt lat="38.11967667" lon="-4.894245">
        <ele>524.0</ele>
        <time>2018-10-06T10:27:25.000Z</time>
      </trkpt>
      <trkpt lat="38.11968" lon="-4.89425833">
        <ele>525.0</ele>
        <time>2018-10-06T10:27:26.000Z</time>
      </trkpt>
      <trkpt lat="38.11968333" lon="-4.89427167">
        <ele>525.0</ele>
        <time>2018-10-06T10:27:27.000Z</time>
      </trkpt>
      <trkpt lat="38.11968667" lon="-4.89428333">
        <ele>525.0</ele>
        <time>2018-10-06T10:27:28.000Z</time>
      </trkpt>
      <trkpt lat="38.11969" lon="-4.89429667">
        <ele>525.0</ele>
        <time>2018-10-06T10:27:29.000Z</time>
      </trkpt>
      <trkpt lat="38.11969333" lon="-4.89431167">
        <ele>525.0</ele>
        <time>2018-10-06T10:27:30.000Z</time>
      </trkpt>
      <trkpt lat="38.119695" lon="-4.89432667">
        <ele>525.0</ele>
        <time>2018-10-06T10:27:31.000Z</time>
      </trkpt>
      <trkpt lat="38.11969833" lon="-4.89434">
        <ele>525.0</ele>
        <time>2018-10-06T10:27:32.000Z</time>
      </trkpt>
      <trkpt lat="38.11970167" lon="-4.89435333">
        <ele>525.0</ele>
        <time>2018-10-06T10:27:33.000Z</time>
      </trkpt>
      <trkpt lat="38.119705" lon="-4.89436667">
        <ele>525.0</ele>
        <time>2018-10-06T10:27:34.000Z</time>
      </trkpt>
      <trkpt lat="38.11970833" lon="-4.89438">
        <ele>525.0</ele>
        <time>2018-10-06T10:27:35.000Z</time>
      </trkpt>
      <trkpt lat="38.11970833" lon="-4.89438">
        <ele>525.0</ele>
        <time>2018-10-06T10:27:36.000Z</time>
      </trkpt>
      <trkpt lat="38.11970833" lon="-4.89438">
        <ele>525.0</ele>
        <time>2018-10-06T10:27:37.000Z</time>
      </trkpt>
      <trkpt lat="38.11970833" lon="-4.89438">
        <ele>525.0</ele>
        <time>2018-10-06T10:27:38.000Z</time>
      </trkpt>
      <trkpt lat="38.11970833" lon="-4.89438">
        <ele>525.0</ele>
        <time>2018-10-06T10:27:39.000Z</time>
      </trkpt>
      <trkpt lat="38.11970833" lon="-4.89438">
        <ele>525.0</ele>
        <time>2018-10-06T10:27:40.000Z</time>
      </trkpt>
      <trkpt lat="38.11970833" lon="-4.89438">
        <ele>525.0</ele>
        <time>2018-10-06T10:27:41.000Z</time>
      </trkpt>
      <trkpt lat="38.11970833" lon="-4.89438">
        <ele>525.0</ele>
        <time>2018-10-06T10:27:42.000Z</time>
      </trkpt>
      <trkpt lat="38.11970833" lon="-4.89438">
        <ele>525.0</ele>
        <time>2018-10-06T10:27:43.000Z</time>
      </trkpt>
      <trkpt lat="38.11970833" lon="-4.89438">
        <ele>525.0</ele>
        <time>2018-10-06T10:27:44.000Z</time>
      </trkpt>
      <trkpt lat="38.11970833" lon="-4.89438">
        <ele>525.0</ele>
        <time>2018-10-06T10:27:45.000Z</time>
      </trkpt>
      <trkpt lat="38.11970833" lon="-4.89438">
        <ele>525.0</ele>
        <time>2018-10-06T10:27:46.000Z</time>
      </trkpt>
      <trkpt lat="38.11970833" lon="-4.89438">
        <ele>525.0</ele>
        <time>2018-10-06T10:27:47.000Z</time>
      </trkpt>
      <trkpt lat="38.11970833" lon="-4.89438">
        <ele>525.0</ele>
        <time>2018-10-06T10:27:48.000Z</time>
      </trkpt>
      <trkpt lat="38.11970833" lon="-4.89438">
        <ele>525.0</ele>
        <time>2018-10-06T10:27:49.000Z</time>
      </trkpt>
      <trkpt lat="38.11970833" lon="-4.89438">
        <ele>525.0</ele>
        <time>2018-10-06T10:27:50.000Z</time>
      </trkpt>
      <trkpt lat="38.11970833" lon="-4.89438">
        <ele>525.0</ele>
        <time>2018-10-06T10:27:51.000Z</time>
      </trkpt>
      <trkpt lat="38.11970833" lon="-4.89438">
        <ele>525.0</ele>
        <time>2018-10-06T10:27:52.000Z</time>
      </trkpt>
      <trkpt lat="38.11970833" lon="-4.89438">
        <ele>525.0</ele>
        <time>2018-10-06T10:27:53.000Z</time>
      </trkpt>
      <trkpt lat="38.11970833" lon="-4.89438">
        <ele>525.0</ele>
        <time>2018-10-06T10:27:54.000Z</time>
      </trkpt>
      <trkpt lat="38.11970833" lon="-4.89438">
        <ele>525.0</ele>
        <time>2018-10-06T10:27:55.000Z</time>
      </trkpt>
      <trkpt lat="38.11970833" lon="-4.89438">
        <ele>525.0</ele>
        <time>2018-10-06T10:27:56.000Z</time>
      </trkpt>
      <trkpt lat="38.11970833" lon="-4.89438">
        <ele>525.0</ele>
        <time>2018-10-06T10:27:57.000Z</time>
      </trkpt>
      <trkpt lat="38.11970833" lon="-4.89438">
        <ele>525.0</ele>
        <time>2018-10-06T10:27:58.000Z</time>
      </trkpt>
      <trkpt lat="38.11970833" lon="-4.89438">
        <ele>525.0</ele>
        <time>2018-10-06T10:27:59.000Z</time>
      </trkpt>
      <trkpt lat="38.11970833" lon="-4.89438">
        <ele>525.0</ele>
        <time>2018-10-06T10:28:00.000Z</time>
      </trkpt>
      <trkpt lat="38.11970833" lon="-4.89438">
        <ele>525.0</ele>
        <time>2018-10-06T10:28:01.000Z</time>
      </trkpt>
      <trkpt lat="38.11970833" lon="-4.89438">
        <ele>525.0</ele>
        <time>2018-10-06T10:28:02.000Z</time>
      </trkpt>
      <trkpt lat="38.11970833" lon="-4.89438">
        <ele>525.0</ele>
        <time>2018-10-06T10:28:03.000Z</time>
      </trkpt>
      <trkpt lat="38.11970833" lon="-4.89438">
        <ele>525.0</ele>
        <time>2018-10-06T10:28:04.000Z</time>
      </trkpt>
      <trkpt lat="38.11970833" lon="-4.89438">
        <ele>525.0</ele>
        <time>2018-10-06T10:28:05.000Z</time>
      </trkpt>
      <trkpt lat="38.11970833" lon="-4.89438">
        <ele>525.0</ele>
        <time>2018-10-06T10:28:06.000Z</time>
      </trkpt>
      <trkpt lat="38.11970833" lon="-4.89438">
        <ele>525.0</ele>
        <time>2018-10-06T10:28:07.000Z</time>
      </trkpt>
      <trkpt lat="38.11970833" lon="-4.89438">
        <ele>525.0</ele>
        <time>2018-10-06T10:28:08.000Z</time>
      </trkpt>
      <trkpt lat="38.11970833" lon="-4.89438">
        <ele>525.0</ele>
        <time>2018-10-06T10:28:09.000Z</time>
      </trkpt>
      <trkpt lat="38.11970833" lon="-4.89438">
        <ele>525.0</ele>
        <time>2018-10-06T10:28:10.000Z</time>
      </trkpt>
      <trkpt lat="38.11970833" lon="-4.89438">
        <ele>525.0</ele>
        <time>2018-10-06T10:28:11.000Z</time>
      </trkpt>
      <trkpt lat="38.11970833" lon="-4.89438">
        <ele>525.0</ele>
        <time>2018-10-06T10:28:12.000Z</time>
      </trkpt>
      <trkpt lat="38.11970833" lon="-4.89438">
        <ele>525.0</ele>
        <time>2018-10-06T10:28:13.000Z</time>
      </trkpt>
      <trkpt lat="38.11970833" lon="-4.89438">
        <ele>525.0</ele>
        <time>2018-10-06T10:28:14.000Z</time>
      </trkpt>
      <trkpt lat="38.11970833" lon="-4.89438">
        <ele>525.0</ele>
        <time>2018-10-06T10:28:15.000Z</time>
      </trkpt>
      <trkpt lat="38.11970833" lon="-4.89438">
        <ele>525.0</ele>
        <time>2018-10-06T10:28:16.000Z</time>
      </trkpt>
      <trkpt lat="38.11970833" lon="-4.89438">
        <ele>525.0</ele>
        <time>2018-10-06T10:28:17.000Z</time>
      </trkpt>
      <trkpt lat="38.11970833" lon="-4.89438">
        <ele>525.0</ele>
        <time>2018-10-06T10:28:18.000Z</time>
      </trkpt>
      <trkpt lat="38.11970833" lon="-4.89438">
        <ele>525.0</ele>
        <time>2018-10-06T10:28:19.000Z</time>
      </trkpt>
      <trkpt lat="38.11970833" lon="-4.89438">
        <ele>525.0</ele>
        <time>2018-10-06T10:28:20.000Z</time>
      </trkpt>
      <trkpt lat="38.11970833" lon="-4.89438">
        <ele>525.0</ele>
        <time>2018-10-06T10:28:21.000Z</time>
      </trkpt>
      <trkpt lat="38.11970833" lon="-4.89438">
        <ele>525.0</ele>
        <time>2018-10-06T10:28:22.000Z</time>
      </trkpt>
      <trkpt lat="38.11970833" lon="-4.89438">
        <ele>525.0</ele>
        <time>2018-10-06T10:28:23.000Z</time>
      </trkpt>
      <trkpt lat="38.11970833" lon="-4.89438">
        <ele>525.0</ele>
        <time>2018-10-06T10:28:24.000Z</time>
      </trkpt>
      <trkpt lat="38.11970833" lon="-4.89438">
        <ele>525.0</ele>
        <time>2018-10-06T10:28:25.000Z</time>
      </trkpt>
      <trkpt lat="38.11970833" lon="-4.89438">
        <ele>525.0</ele>
        <time>2018-10-06T10:28:26.000Z</time>
      </trkpt>
      <trkpt lat="38.11970833" lon="-4.89438">
        <ele>525.0</ele>
        <time>2018-10-06T10:28:27.000Z</time>
      </trkpt>
      <trkpt lat="38.11970833" lon="-4.89438">
        <ele>525.0</ele>
        <time>2018-10-06T10:28:28.000Z</time>
      </trkpt>
      <trkpt lat="38.11970833" lon="-4.89438">
        <ele>525.0</ele>
        <time>2018-10-06T10:28:29.000Z</time>
      </trkpt>
      <trkpt lat="38.11970833" lon="-4.89438">
        <ele>525.0</ele>
        <time>2018-10-06T10:28:30.000Z</time>
      </trkpt>
      <trkpt lat="38.11970833" lon="-4.89438">
        <ele>525.0</ele>
        <time>2018-10-06T10:28:31.000Z</time>
      </trkpt>
      <trkpt lat="38.11970833" lon="-4.89438">
        <ele>525.0</ele>
        <time>2018-10-06T10:28:32.000Z</time>
      </trkpt>
      <trkpt lat="38.11970833" lon="-4.89438">
        <ele>525.0</ele>
        <time>2018-10-06T10:28:33.000Z</time>
      </trkpt>
      <trkpt lat="38.11970833" lon="-4.89438">
        <ele>525.0</ele>
        <time>2018-10-06T10:28:34.000Z</time>
      </trkpt>
      <trkpt lat="38.11970833" lon="-4.89438">
        <ele>525.0</ele>
        <time>2018-10-06T10:28:35.000Z</time>
      </trkpt>
      <trkpt lat="38.12009833" lon="-4.89494167">
        <ele>541.0</ele>
        <time>2018-10-06T10:28:36.000Z</time>
      </trkpt>
      <trkpt lat="38.12015167" lon="-4.89496333">
        <ele>533.0</ele>
        <time>2018-10-06T10:28:37.000Z</time>
      </trkpt>
      <trkpt lat="38.12016167" lon="-4.89497">
        <ele>533.0</ele>
        <time>2018-10-06T10:28:38.000Z</time>
      </trkpt>
      <trkpt lat="38.12016667" lon="-4.894975">
        <ele>533.0</ele>
        <time>2018-10-06T10:28:39.000Z</time>
      </trkpt>
      <trkpt lat="38.12017667" lon="-4.89498667">
        <ele>533.0</ele>
        <time>2018-10-06T10:28:40.000Z</time>
      </trkpt>
      <trkpt lat="38.12018667" lon="-4.89499667">
        <ele>533.0</ele>
        <time>2018-10-06T10:28:41.000Z</time>
      </trkpt>
      <trkpt lat="38.12019667" lon="-4.895005">
        <ele>533.0</ele>
        <time>2018-10-06T10:28:42.000Z</time>
      </trkpt>
      <trkpt lat="38.12020833" lon="-4.89501167">
        <ele>532.0</ele>
        <time>2018-10-06T10:28:43.000Z</time>
      </trkpt>
      <trkpt lat="38.12022" lon="-4.89501667">
        <ele>532.0</ele>
        <time>2018-10-06T10:28:44.000Z</time>
      </trkpt>
      <trkpt lat="38.12023333" lon="-4.89502333">
        <ele>532.0</ele>
        <time>2018-10-06T10:28:45.000Z</time>
      </trkpt>
      <trkpt lat="38.12024667" lon="-4.89502833">
        <ele>531.0</ele>
        <time>2018-10-06T10:28:46.000Z</time>
      </trkpt>
      <trkpt lat="38.12026" lon="-4.89503667">
        <ele>531.0</ele>
        <time>2018-10-06T10:28:47.000Z</time>
      </trkpt>
      <trkpt lat="38.12027333" lon="-4.89504167">
        <ele>531.0</ele>
        <time>2018-10-06T10:28:48.000Z</time>
      </trkpt>
      <trkpt lat="38.12027333" lon="-4.89504167">
        <ele>531.0</ele>
        <time>2018-10-06T10:28:49.000Z</time>
      </trkpt>
      <trkpt lat="38.12027333" lon="-4.89504167">
        <ele>531.0</ele>
        <time>2018-10-06T10:28:50.000Z</time>
      </trkpt>
      <trkpt lat="38.12027333" lon="-4.89504167">
        <ele>531.0</ele>
        <time>2018-10-06T10:28:51.000Z</time>
      </trkpt>
      <trkpt lat="38.12027333" lon="-4.89504167">
        <ele>531.0</ele>
        <time>2018-10-06T10:28:52.000Z</time>
      </trkpt>
      <trkpt lat="38.12027333" lon="-4.89504167">
        <ele>531.0</ele>
        <time>2018-10-06T10:28:53.000Z</time>
      </trkpt>
      <trkpt lat="38.12027333" lon="-4.89504167">
        <ele>531.0</ele>
        <time>2018-10-06T10:28:54.000Z</time>
      </trkpt>
      <trkpt lat="38.12027333" lon="-4.89504167">
        <ele>531.0</ele>
        <time>2018-10-06T10:28:55.000Z</time>
      </trkpt>
      <trkpt lat="38.12027333" lon="-4.89504167">
        <ele>531.0</ele>
        <time>2018-10-06T10:28:56.000Z</time>
      </trkpt>
      <trkpt lat="38.12027333" lon="-4.89504167">
        <ele>531.0</ele>
        <time>2018-10-06T10:28:57.000Z</time>
      </trkpt>
      <trkpt lat="38.12027333" lon="-4.89504167">
        <ele>531.0</ele>
        <time>2018-10-06T10:28:58.000Z</time>
      </trkpt>
      <trkpt lat="38.12027333" lon="-4.89504167">
        <ele>531.0</ele>
        <time>2018-10-06T10:28:59.000Z</time>
      </trkpt>
      <trkpt lat="38.12027333" lon="-4.89504167">
        <ele>531.0</ele>
        <time>2018-10-06T10:29:00.000Z</time>
      </trkpt>
      <trkpt lat="38.12027333" lon="-4.89504167">
        <ele>531.0</ele>
        <time>2018-10-06T10:29:01.000Z</time>
      </trkpt>
      <trkpt lat="38.12027333" lon="-4.89504167">
        <ele>531.0</ele>
        <time>2018-10-06T10:29:02.000Z</time>
      </trkpt>
      <trkpt lat="38.12027333" lon="-4.89504167">
        <ele>531.0</ele>
        <time>2018-10-06T10:29:03.000Z</time>
      </trkpt>
      <trkpt lat="38.12027333" lon="-4.89504167">
        <ele>531.0</ele>
        <time>2018-10-06T10:29:04.000Z</time>
      </trkpt>
      <trkpt lat="38.12027333" lon="-4.89504167">
        <ele>531.0</ele>
        <time>2018-10-06T10:29:05.000Z</time>
      </trkpt>
      <trkpt lat="38.12027333" lon="-4.89504167">
        <ele>531.0</ele>
        <time>2018-10-06T10:29:06.000Z</time>
      </trkpt>
      <trkpt lat="38.12027333" lon="-4.89504167">
        <ele>531.0</ele>
        <time>2018-10-06T10:29:07.000Z</time>
      </trkpt>
      <trkpt lat="38.12027333" lon="-4.89504167">
        <ele>531.0</ele>
        <time>2018-10-06T10:29:08.000Z</time>
      </trkpt>
      <trkpt lat="38.12027333" lon="-4.89504167">
        <ele>531.0</ele>
        <time>2018-10-06T10:29:09.000Z</time>
      </trkpt>
      <trkpt lat="38.12027333" lon="-4.89504167">
        <ele>531.0</ele>
        <time>2018-10-06T10:29:10.000Z</time>
      </trkpt>
      <trkpt lat="38.12027333" lon="-4.89504167">
        <ele>531.0</ele>
        <time>2018-10-06T10:29:11.000Z</time>
      </trkpt>
      <trkpt lat="38.12027333" lon="-4.89504167">
        <ele>531.0</ele>
        <time>2018-10-06T10:29:12.000Z</time>
      </trkpt>
      <trkpt lat="38.12027333" lon="-4.89504167">
        <ele>531.0</ele>
        <time>2018-10-06T10:29:13.000Z</time>
      </trkpt>
      <trkpt lat="38.12027333" lon="-4.89504167">
        <ele>531.0</ele>
        <time>2018-10-06T10:29:14.000Z</time>
      </trkpt>
      <trkpt lat="38.12027333" lon="-4.89504167">
        <ele>531.0</ele>
        <time>2018-10-06T10:29:15.000Z</time>
      </trkpt>
      <trkpt lat="38.12027333" lon="-4.89504167">
        <ele>531.0</ele>
        <time>2018-10-06T10:29:16.000Z</time>
      </trkpt>
      <trkpt lat="38.12027333" lon="-4.89504167">
        <ele>531.0</ele>
        <time>2018-10-06T10:29:17.000Z</time>
      </trkpt>
      <trkpt lat="38.12027333" lon="-4.89504167">
        <ele>531.0</ele>
        <time>2018-10-06T10:29:18.000Z</time>
      </trkpt>
      <trkpt lat="38.12027333" lon="-4.89504167">
        <ele>531.0</ele>
        <time>2018-10-06T10:29:19.000Z</time>
      </trkpt>
      <trkpt lat="38.12027333" lon="-4.89504167">
        <ele>531.0</ele>
        <time>2018-10-06T10:29:20.000Z</time>
      </trkpt>
      <trkpt lat="38.12027333" lon="-4.89504167">
        <ele>531.0</ele>
        <time>2018-10-06T10:29:21.000Z</time>
      </trkpt>
      <trkpt lat="38.12027333" lon="-4.89504167">
        <ele>531.0</ele>
        <time>2018-10-06T10:29:22.000Z</time>
      </trkpt>
      <trkpt lat="38.12027333" lon="-4.89504167">
        <ele>531.0</ele>
        <time>2018-10-06T10:29:23.000Z</time>
      </trkpt>
      <trkpt lat="38.12027333" lon="-4.89504167">
        <ele>531.0</ele>
        <time>2018-10-06T10:29:24.000Z</time>
      </trkpt>
      <trkpt lat="38.12027333" lon="-4.89504167">
        <ele>531.0</ele>
        <time>2018-10-06T10:29:25.000Z</time>
      </trkpt>
      <trkpt lat="38.12027333" lon="-4.89504167">
        <ele>531.0</ele>
        <time>2018-10-06T10:29:26.000Z</time>
      </trkpt>
      <trkpt lat="38.12027333" lon="-4.89504167">
        <ele>531.0</ele>
        <time>2018-10-06T10:29:27.000Z</time>
      </trkpt>
      <trkpt lat="38.12027333" lon="-4.89504167">
        <ele>531.0</ele>
        <time>2018-10-06T10:29:28.000Z</time>
      </trkpt>
      <trkpt lat="38.12027333" lon="-4.89504167">
        <ele>531.0</ele>
        <time>2018-10-06T10:29:29.000Z</time>
      </trkpt>
      <trkpt lat="38.12027333" lon="-4.89504167">
        <ele>531.0</ele>
        <time>2018-10-06T10:29:30.000Z</time>
      </trkpt>
      <trkpt lat="38.12027333" lon="-4.89504167">
        <ele>531.0</ele>
        <time>2018-10-06T10:29:31.000Z</time>
      </trkpt>
      <trkpt lat="38.12027333" lon="-4.89504167">
        <ele>531.0</ele>
        <time>2018-10-06T10:29:32.000Z</time>
      </trkpt>
      <trkpt lat="38.12027333" lon="-4.89504167">
        <ele>531.0</ele>
        <time>2018-10-06T10:29:33.000Z</time>
      </trkpt>
      <trkpt lat="38.12027333" lon="-4.89504167">
        <ele>531.0</ele>
        <time>2018-10-06T10:29:34.000Z</time>
      </trkpt>
      <trkpt lat="38.12027333" lon="-4.89504167">
        <ele>531.0</ele>
        <time>2018-10-06T10:29:35.000Z</time>
      </trkpt>
      <trkpt lat="38.12063333" lon="-4.89530167">
        <ele>524.0</ele>
        <time>2018-10-06T10:29:36.000Z</time>
      </trkpt>
      <trkpt lat="38.12064333" lon="-4.89531167">
        <ele>524.0</ele>
        <time>2018-10-06T10:29:37.000Z</time>
      </trkpt>
      <trkpt lat="38.120655" lon="-4.89533333">
        <ele>524.0</ele>
        <time>2018-10-06T10:29:38.000Z</time>
      </trkpt>
      <trkpt lat="38.12066667" lon="-4.89535333">
        <ele>525.0</ele>
        <time>2018-10-06T10:29:39.000Z</time>
      </trkpt>
      <trkpt lat="38.12068" lon="-4.89537333">
        <ele>525.0</ele>
        <time>2018-10-06T10:29:40.000Z</time>
      </trkpt>
      <trkpt lat="38.12069167" lon="-4.89539">
        <ele>525.0</ele>
        <time>2018-10-06T10:29:41.000Z</time>
      </trkpt>
      <trkpt lat="38.12070167" lon="-4.89540833">
        <ele>526.0</ele>
        <time>2018-10-06T10:29:42.000Z</time>
      </trkpt>
      <trkpt lat="38.12071333" lon="-4.89542333">
        <ele>526.0</ele>
        <time>2018-10-06T10:29:43.000Z</time>
      </trkpt>
      <trkpt lat="38.120725" lon="-4.89543833">
        <ele>526.0</ele>
        <time>2018-10-06T10:29:44.000Z</time>
      </trkpt>
      <trkpt lat="38.12073667" lon="-4.89545333">
        <ele>526.0</ele>
        <time>2018-10-06T10:29:45.000Z</time>
      </trkpt>
      <trkpt lat="38.12074667" lon="-4.89546833">
        <ele>526.0</ele>
        <time>2018-10-06T10:29:46.000Z</time>
      </trkpt>
      <trkpt lat="38.12075667" lon="-4.89548333">
        <ele>526.0</ele>
        <time>2018-10-06T10:29:47.000Z</time>
      </trkpt>
      <trkpt lat="38.12076667" lon="-4.89549833">
        <ele>526.0</ele>
        <time>2018-10-06T10:29:48.000Z</time>
      </trkpt>
      <trkpt lat="38.12076667" lon="-4.89549833">
        <ele>526.0</ele>
        <time>2018-10-06T10:29:49.000Z</time>
      </trkpt>
      <trkpt lat="38.12076667" lon="-4.89549833">
        <ele>526.0</ele>
        <time>2018-10-06T10:29:50.000Z</time>
      </trkpt>
      <trkpt lat="38.12076667" lon="-4.89549833">
        <ele>526.0</ele>
        <time>2018-10-06T10:29:51.000Z</time>
      </trkpt>
      <trkpt lat="38.12076667" lon="-4.89549833">
        <ele>526.0</ele>
        <time>2018-10-06T10:29:52.000Z</time>
      </trkpt>
      <trkpt lat="38.12076667" lon="-4.89549833">
        <ele>526.0</ele>
        <time>2018-10-06T10:29:53.000Z</time>
      </trkpt>
      <trkpt lat="38.12076667" lon="-4.89549833">
        <ele>526.0</ele>
        <time>2018-10-06T10:29:54.000Z</time>
      </trkpt>
      <trkpt lat="38.12076667" lon="-4.89549833">
        <ele>526.0</ele>
        <time>2018-10-06T10:29:55.000Z</time>
      </trkpt>
      <trkpt lat="38.12076667" lon="-4.89549833">
        <ele>526.0</ele>
        <time>2018-10-06T10:29:56.000Z</time>
      </trkpt>
      <trkpt lat="38.12076667" lon="-4.89549833">
        <ele>526.0</ele>
        <time>2018-10-06T10:29:57.000Z</time>
      </trkpt>
      <trkpt lat="38.12076667" lon="-4.89549833">
        <ele>526.0</ele>
        <time>2018-10-06T10:29:58.000Z</time>
      </trkpt>
      <trkpt lat="38.12076667" lon="-4.89549833">
        <ele>526.0</ele>
        <time>2018-10-06T10:29:59.000Z</time>
      </trkpt>
      <trkpt lat="38.12076667" lon="-4.89549833">
        <ele>526.0</ele>
        <time>2018-10-06T10:30:00.000Z</time>
      </trkpt>
      <trkpt lat="38.12076667" lon="-4.89549833">
        <ele>526.0</ele>
        <time>2018-10-06T10:30:01.000Z</time>
      </trkpt>
      <trkpt lat="38.12076667" lon="-4.89549833">
        <ele>526.0</ele>
        <time>2018-10-06T10:30:02.000Z</time>
      </trkpt>
      <trkpt lat="38.12076667" lon="-4.89549833">
        <ele>526.0</ele>
        <time>2018-10-06T10:30:03.000Z</time>
      </trkpt>
      <trkpt lat="38.12076667" lon="-4.89549833">
        <ele>526.0</ele>
        <time>2018-10-06T10:30:04.000Z</time>
      </trkpt>
      <trkpt lat="38.12076667" lon="-4.89549833">
        <ele>526.0</ele>
        <time>2018-10-06T10:30:05.000Z</time>
      </trkpt>
      <trkpt lat="38.12076667" lon="-4.89549833">
        <ele>526.0</ele>
        <time>2018-10-06T10:30:06.000Z</time>
      </trkpt>
      <trkpt lat="38.12076667" lon="-4.89549833">
        <ele>526.0</ele>
        <time>2018-10-06T10:30:07.000Z</time>
      </trkpt>
      <trkpt lat="38.12076667" lon="-4.89549833">
        <ele>526.0</ele>
        <time>2018-10-06T10:30:08.000Z</time>
      </trkpt>
      <trkpt lat="38.12076667" lon="-4.89549833">
        <ele>526.0</ele>
        <time>2018-10-06T10:30:09.000Z</time>
      </trkpt>
      <trkpt lat="38.12076667" lon="-4.89549833">
        <ele>526.0</ele>
        <time>2018-10-06T10:30:10.000Z</time>
      </trkpt>
      <trkpt lat="38.12076667" lon="-4.89549833">
        <ele>526.0</ele>
        <time>2018-10-06T10:30:11.000Z</time>
      </trkpt>
      <trkpt lat="38.12076667" lon="-4.89549833">
        <ele>526.0</ele>
        <time>2018-10-06T10:30:12.000Z</time>
      </trkpt>
      <trkpt lat="38.12076667" lon="-4.89549833">
        <ele>526.0</ele>
        <time>2018-10-06T10:30:13.000Z</time>
      </trkpt>
      <trkpt lat="38.12076667" lon="-4.89549833">
        <ele>526.0</ele>
        <time>2018-10-06T10:30:14.000Z</time>
      </trkpt>
      <trkpt lat="38.12076667" lon="-4.89549833">
        <ele>526.0</ele>
        <time>2018-10-06T10:30:15.000Z</time>
      </trkpt>
      <trkpt lat="38.12076667" lon="-4.89549833">
        <ele>526.0</ele>
        <time>2018-10-06T10:30:16.000Z</time>
      </trkpt>
      <trkpt lat="38.12076667" lon="-4.89549833">
        <ele>526.0</ele>
        <time>2018-10-06T10:30:17.000Z</time>
      </trkpt>
      <trkpt lat="38.12076667" lon="-4.89549833">
        <ele>526.0</ele>
        <time>2018-10-06T10:30:18.000Z</time>
      </trkpt>
      <trkpt lat="38.12076667" lon="-4.89549833">
        <ele>526.0</ele>
        <time>2018-10-06T10:30:19.000Z</time>
      </trkpt>
      <trkpt lat="38.12076667" lon="-4.89549833">
        <ele>526.0</ele>
        <time>2018-10-06T10:30:20.000Z</time>
      </trkpt>
      <trkpt lat="38.12076667" lon="-4.89549833">
        <ele>526.0</ele>
        <time>2018-10-06T10:30:21.000Z</time>
      </trkpt>
      <trkpt lat="38.12076667" lon="-4.89549833">
        <ele>526.0</ele>
        <time>2018-10-06T10:30:22.000Z</time>
      </trkpt>
      <trkpt lat="38.12076667" lon="-4.89549833">
        <ele>526.0</ele>
        <time>2018-10-06T10:30:23.000Z</time>
      </trkpt>
      <trkpt lat="38.12076667" lon="-4.89549833">
        <ele>526.0</ele>
        <time>2018-10-06T10:30:24.000Z</time>
      </trkpt>
      <trkpt lat="38.12076667" lon="-4.89549833">
        <ele>526.0</ele>
        <time>2018-10-06T10:30:25.000Z</time>
      </trkpt>
      <trkpt lat="38.12076667" lon="-4.89549833">
        <ele>526.0</ele>
        <time>2018-10-06T10:30:26.000Z</time>
      </trkpt>
      <trkpt lat="38.12076667" lon="-4.89549833">
        <ele>526.0</ele>
        <time>2018-10-06T10:30:27.000Z</time>
      </trkpt>
      <trkpt lat="38.12076667" lon="-4.89549833">
        <ele>526.0</ele>
        <time>2018-10-06T10:30:28.000Z</time>
      </trkpt>
      <trkpt lat="38.12076667" lon="-4.89549833">
        <ele>526.0</ele>
        <time>2018-10-06T10:30:29.000Z</time>
      </trkpt>
      <trkpt lat="38.12076667" lon="-4.89549833">
        <ele>526.0</ele>
        <time>2018-10-06T10:30:30.000Z</time>
      </trkpt>
      <trkpt lat="38.12076667" lon="-4.89549833">
        <ele>526.0</ele>
        <time>2018-10-06T10:30:31.000Z</time>
      </trkpt>
      <trkpt lat="38.12076667" lon="-4.89549833">
        <ele>526.0</ele>
        <time>2018-10-06T10:30:32.000Z</time>
      </trkpt>
      <trkpt lat="38.12076667" lon="-4.89549833">
        <ele>526.0</ele>
        <time>2018-10-06T10:30:33.000Z</time>
      </trkpt>
      <trkpt lat="38.12076667" lon="-4.89549833">
        <ele>526.0</ele>
        <time>2018-10-06T10:30:34.000Z</time>
      </trkpt>
      <trkpt lat="38.12076667" lon="-4.89549833">
        <ele>526.0</ele>
        <time>2018-10-06T10:30:35.000Z</time>
      </trkpt>
      <trkpt lat="38.12083167" lon="-4.89600167">
        <ele>531.0</ele>
        <time>2018-10-06T10:30:36.000Z</time>
      </trkpt>
      <trkpt lat="38.12083" lon="-4.896015">
        <ele>531.0</ele>
        <time>2018-10-06T10:30:37.000Z</time>
      </trkpt>
      <trkpt lat="38.12083" lon="-4.89601833">
        <ele>531.0</ele>
        <time>2018-10-06T10:30:38.000Z</time>
      </trkpt>
      <trkpt lat="38.12083167" lon="-4.89602667">
        <ele>530.0</ele>
        <time>2018-10-06T10:30:39.000Z</time>
      </trkpt>
      <trkpt lat="38.120835" lon="-4.89603833">
        <ele>530.0</ele>
        <time>2018-10-06T10:30:40.000Z</time>
      </trkpt>
      <trkpt lat="38.12083833" lon="-4.89604833">
        <ele>530.0</ele>
        <time>2018-10-06T10:30:41.000Z</time>
      </trkpt>
      <trkpt lat="38.12084" lon="-4.89605667">
        <ele>529.0</ele>
        <time>2018-10-06T10:30:42.000Z</time>
      </trkpt>
      <trkpt lat="38.12084333" lon="-4.896065">
        <ele>529.0</ele>
        <time>2018-10-06T10:30:43.000Z</time>
      </trkpt>
      <trkpt lat="38.12084667" lon="-4.89607333">
        <ele>528.0</ele>
        <time>2018-10-06T10:30:44.000Z</time>
      </trkpt>
      <trkpt lat="38.12084833" lon="-4.89608333">
        <ele>528.0</ele>
        <time>2018-10-06T10:30:45.000Z</time>
      </trkpt>
      <trkpt lat="38.12085" lon="-4.89609333">
        <ele>527.0</ele>
        <time>2018-10-06T10:30:46.000Z</time>
      </trkpt>
      <trkpt lat="38.12085167" lon="-4.89610167">
        <ele>526.0</ele>
        <time>2018-10-06T10:30:47.000Z</time>
      </trkpt>
      <trkpt lat="38.12085333" lon="-4.89611167">
        <ele>526.0</ele>
        <time>2018-10-06T10:30:48.000Z</time>
      </trkpt>
      <trkpt lat="38.12085333" lon="-4.89611167">
        <ele>526.0</ele>
        <time>2018-10-06T10:30:49.000Z</time>
      </trkpt>
      <trkpt lat="38.12085333" lon="-4.89611167">
        <ele>526.0</ele>
        <time>2018-10-06T10:30:50.000Z</time>
      </trkpt>
      <trkpt lat="38.12085333" lon="-4.89611167">
        <ele>526.0</ele>
        <time>2018-10-06T10:30:51.000Z</time>
      </trkpt>
      <trkpt lat="38.12085333" lon="-4.89611167">
        <ele>526.0</ele>
        <time>2018-10-06T10:30:52.000Z</time>
      </trkpt>
      <trkpt lat="38.12085333" lon="-4.89611167">
        <ele>526.0</ele>
        <time>2018-10-06T10:30:53.000Z</time>
      </trkpt>
      <trkpt lat="38.12085333" lon="-4.89611167">
        <ele>526.0</ele>
        <time>2018-10-06T10:30:54.000Z</time>
      </trkpt>
      <trkpt lat="38.12085333" lon="-4.89611167">
        <ele>526.0</ele>
        <time>2018-10-06T10:30:55.000Z</time>
      </trkpt>
      <trkpt lat="38.12085333" lon="-4.89611167">
        <ele>526.0</ele>
        <time>2018-10-06T10:30:56.000Z</time>
      </trkpt>
      <trkpt lat="38.12085333" lon="-4.89611167">
        <ele>526.0</ele>
        <time>2018-10-06T10:30:57.000Z</time>
      </trkpt>
      <trkpt lat="38.12085333" lon="-4.89611167">
        <ele>526.0</ele>
        <time>2018-10-06T10:30:58.000Z</time>
      </trkpt>
      <trkpt lat="38.12085333" lon="-4.89611167">
        <ele>526.0</ele>
        <time>2018-10-06T10:30:59.000Z</time>
      </trkpt>
      <trkpt lat="38.12085333" lon="-4.89611167">
        <ele>526.0</ele>
        <time>2018-10-06T10:31:00.000Z</time>
      </trkpt>
      <trkpt lat="38.12085333" lon="-4.89611167">
        <ele>526.0</ele>
        <time>2018-10-06T10:31:01.000Z</time>
      </trkpt>
      <trkpt lat="38.12085333" lon="-4.89611167">
        <ele>526.0</ele>
        <time>2018-10-06T10:31:02.000Z</time>
      </trkpt>
      <trkpt lat="38.12085333" lon="-4.89611167">
        <ele>526.0</ele>
        <time>2018-10-06T10:31:03.000Z</time>
      </trkpt>
      <trkpt lat="38.12085333" lon="-4.89611167">
        <ele>526.0</ele>
        <time>2018-10-06T10:31:04.000Z</time>
      </trkpt>
      <trkpt lat="38.12085333" lon="-4.89611167">
        <ele>526.0</ele>
        <time>2018-10-06T10:31:05.000Z</time>
      </trkpt>
      <trkpt lat="38.12085333" lon="-4.89611167">
        <ele>526.0</ele>
        <time>2018-10-06T10:31:06.000Z</time>
      </trkpt>
      <trkpt lat="38.12085333" lon="-4.89611167">
        <ele>526.0</ele>
        <time>2018-10-06T10:31:07.000Z</time>
      </trkpt>
      <trkpt lat="38.12085333" lon="-4.89611167">
        <ele>526.0</ele>
        <time>2018-10-06T10:31:08.000Z</time>
      </trkpt>
      <trkpt lat="38.12085333" lon="-4.89611167">
        <ele>526.0</ele>
        <time>2018-10-06T10:31:09.000Z</time>
      </trkpt>
      <trkpt lat="38.12085333" lon="-4.89611167">
        <ele>526.0</ele>
        <time>2018-10-06T10:31:10.000Z</time>
      </trkpt>
      <trkpt lat="38.12085333" lon="-4.89611167">
        <ele>526.0</ele>
        <time>2018-10-06T10:31:11.000Z</time>
      </trkpt>
      <trkpt lat="38.12085333" lon="-4.89611167">
        <ele>526.0</ele>
        <time>2018-10-06T10:31:12.000Z</time>
      </trkpt>
      <trkpt lat="38.12085333" lon="-4.89611167">
        <ele>526.0</ele>
        <time>2018-10-06T10:31:13.000Z</time>
      </trkpt>
      <trkpt lat="38.12085333" lon="-4.89611167">
        <ele>526.0</ele>
        <time>2018-10-06T10:31:14.000Z</time>
      </trkpt>
      <trkpt lat="38.12085333" lon="-4.89611167">
        <ele>526.0</ele>
        <time>2018-10-06T10:31:15.000Z</time>
      </trkpt>
      <trkpt lat="38.12085333" lon="-4.89611167">
        <ele>526.0</ele>
        <time>2018-10-06T10:31:16.000Z</time>
      </trkpt>
      <trkpt lat="38.12085333" lon="-4.89611167">
        <ele>526.0</ele>
        <time>2018-10-06T10:31:17.000Z</time>
      </trkpt>
      <trkpt lat="38.12085333" lon="-4.89611167">
        <ele>526.0</ele>
        <time>2018-10-06T10:31:18.000Z</time>
      </trkpt>
      <trkpt lat="38.12085333" lon="-4.89611167">
        <ele>526.0</ele>
        <time>2018-10-06T10:31:19.000Z</time>
      </trkpt>
      <trkpt lat="38.12085333" lon="-4.89611167">
        <ele>526.0</ele>
        <time>2018-10-06T10:31:20.000Z</time>
      </trkpt>
      <trkpt lat="38.12085333" lon="-4.89611167">
        <ele>526.0</ele>
        <time>2018-10-06T10:31:21.000Z</time>
      </trkpt>
      <trkpt lat="38.12085333" lon="-4.89611167">
        <ele>526.0</ele>
        <time>2018-10-06T10:31:22.000Z</time>
      </trkpt>
      <trkpt lat="38.12085333" lon="-4.89611167">
        <ele>526.0</ele>
        <time>2018-10-06T10:31:23.000Z</time>
      </trkpt>
      <trkpt lat="38.12085333" lon="-4.89611167">
        <ele>526.0</ele>
        <time>2018-10-06T10:31:24.000Z</time>
      </trkpt>
      <trkpt lat="38.12085333" lon="-4.89611167">
        <ele>526.0</ele>
        <time>2018-10-06T10:31:25.000Z</time>
      </trkpt>
      <trkpt lat="38.12085333" lon="-4.89611167">
        <ele>526.0</ele>
        <time>2018-10-06T10:31:26.000Z</time>
      </trkpt>
      <trkpt lat="38.12085333" lon="-4.89611167">
        <ele>526.0</ele>
        <time>2018-10-06T10:31:27.000Z</time>
      </trkpt>
      <trkpt lat="38.12085333" lon="-4.89611167">
        <ele>526.0</ele>
        <time>2018-10-06T10:31:28.000Z</time>
      </trkpt>
      <trkpt lat="38.12085333" lon="-4.89611167">
        <ele>526.0</ele>
        <time>2018-10-06T10:31:29.000Z</time>
      </trkpt>
      <trkpt lat="38.12085333" lon="-4.89611167">
        <ele>526.0</ele>
        <time>2018-10-06T10:31:30.000Z</time>
      </trkpt>
      <trkpt lat="38.12085333" lon="-4.89611167">
        <ele>526.0</ele>
        <time>2018-10-06T10:31:31.000Z</time>
      </trkpt>
      <trkpt lat="38.12085333" lon="-4.89611167">
        <ele>526.0</ele>
        <time>2018-10-06T10:31:32.000Z</time>
      </trkpt>
      <trkpt lat="38.12085333" lon="-4.89611167">
        <ele>526.0</ele>
        <time>2018-10-06T10:31:33.000Z</time>
      </trkpt>
      <trkpt lat="38.12085333" lon="-4.89611167">
        <ele>526.0</ele>
        <time>2018-10-06T10:31:34.000Z</time>
      </trkpt>
      <trkpt lat="38.12085333" lon="-4.89611167">
        <ele>526.0</ele>
        <time>2018-10-06T10:31:35.000Z</time>
      </trkpt>
      <trkpt lat="38.12085333" lon="-4.89611167">
        <ele>526.0</ele>
        <time>2018-10-06T10:31:36.000Z</time>
      </trkpt>
      <trkpt lat="38.12111333" lon="-4.89629667">
        <ele>511.0</ele>
        <time>2018-10-06T10:31:37.000Z</time>
      </trkpt>
      <trkpt lat="38.12113333" lon="-4.89631667">
        <ele>512.0</ele>
        <time>2018-10-06T10:31:38.000Z</time>
      </trkpt>
      <trkpt lat="38.12115667" lon="-4.89634333">
        <ele>512.0</ele>
        <time>2018-10-06T10:31:39.000Z</time>
      </trkpt>
      <trkpt lat="38.12118" lon="-4.89637167">
        <ele>513.0</ele>
        <time>2018-10-06T10:31:40.000Z</time>
      </trkpt>
      <trkpt lat="38.12120167" lon="-4.89639667">
        <ele>513.0</ele>
        <time>2018-10-06T10:31:41.000Z</time>
      </trkpt>
      <trkpt lat="38.12122167" lon="-4.89642">
        <ele>513.0</ele>
        <time>2018-10-06T10:31:42.000Z</time>
      </trkpt>
      <trkpt lat="38.12124167" lon="-4.89644">
        <ele>514.0</ele>
        <time>2018-10-06T10:31:43.000Z</time>
      </trkpt>
      <trkpt lat="38.12126" lon="-4.89645833">
        <ele>514.0</ele>
        <time>2018-10-06T10:31:44.000Z</time>
      </trkpt>
      <trkpt lat="38.12127667" lon="-4.89647833">
        <ele>515.0</ele>
        <time>2018-10-06T10:31:45.000Z</time>
      </trkpt>
      <trkpt lat="38.121295" lon="-4.89649667">
        <ele>515.0</ele>
        <time>2018-10-06T10:31:46.000Z</time>
      </trkpt>
      <trkpt lat="38.12131333" lon="-4.896515">
        <ele>515.0</ele>
        <time>2018-10-06T10:31:47.000Z</time>
      </trkpt>
      <trkpt lat="38.12133" lon="-4.89653333">
        <ele>515.0</ele>
        <time>2018-10-06T10:31:48.000Z</time>
      </trkpt>
      <trkpt lat="38.12133" lon="-4.89653333">
        <ele>515.0</ele>
        <time>2018-10-06T10:31:49.000Z</time>
      </trkpt>
      <trkpt lat="38.12133" lon="-4.89653333">
        <ele>515.0</ele>
        <time>2018-10-06T10:31:50.000Z</time>
      </trkpt>
      <trkpt lat="38.12133" lon="-4.89653333">
        <ele>515.0</ele>
        <time>2018-10-06T10:31:51.000Z</time>
      </trkpt>
      <trkpt lat="38.12133" lon="-4.89653333">
        <ele>515.0</ele>
        <time>2018-10-06T10:31:52.000Z</time>
      </trkpt>
      <trkpt lat="38.12133" lon="-4.89653333">
        <ele>515.0</ele>
        <time>2018-10-06T10:31:53.000Z</time>
      </trkpt>
      <trkpt lat="38.12133" lon="-4.89653333">
        <ele>515.0</ele>
        <time>2018-10-06T10:31:54.000Z</time>
      </trkpt>
      <trkpt lat="38.12133" lon="-4.89653333">
        <ele>515.0</ele>
        <time>2018-10-06T10:31:55.000Z</time>
      </trkpt>
      <trkpt lat="38.12133" lon="-4.89653333">
        <ele>515.0</ele>
        <time>2018-10-06T10:31:56.000Z</time>
      </trkpt>
      <trkpt lat="38.12133" lon="-4.89653333">
        <ele>515.0</ele>
        <time>2018-10-06T10:31:57.000Z</time>
      </trkpt>
      <trkpt lat="38.12133" lon="-4.89653333">
        <ele>515.0</ele>
        <time>2018-10-06T10:31:58.000Z</time>
      </trkpt>
      <trkpt lat="38.12133" lon="-4.89653333">
        <ele>515.0</ele>
        <time>2018-10-06T10:31:59.000Z</time>
      </trkpt>
      <trkpt lat="38.12133" lon="-4.89653333">
        <ele>515.0</ele>
        <time>2018-10-06T10:32:00.000Z</time>
      </trkpt>
      <trkpt lat="38.12133" lon="-4.89653333">
        <ele>515.0</ele>
        <time>2018-10-06T10:32:01.000Z</time>
      </trkpt>
      <trkpt lat="38.12133" lon="-4.89653333">
        <ele>515.0</ele>
        <time>2018-10-06T10:32:02.000Z</time>
      </trkpt>
      <trkpt lat="38.12133" lon="-4.89653333">
        <ele>515.0</ele>
        <time>2018-10-06T10:32:03.000Z</time>
      </trkpt>
      <trkpt lat="38.12133" lon="-4.89653333">
        <ele>515.0</ele>
        <time>2018-10-06T10:32:04.000Z</time>
      </trkpt>
      <trkpt lat="38.12133" lon="-4.89653333">
        <ele>515.0</ele>
        <time>2018-10-06T10:32:05.000Z</time>
      </trkpt>
      <trkpt lat="38.12133" lon="-4.89653333">
        <ele>515.0</ele>
        <time>2018-10-06T10:32:06.000Z</time>
      </trkpt>
      <trkpt lat="38.12133" lon="-4.89653333">
        <ele>515.0</ele>
        <time>2018-10-06T10:32:07.000Z</time>
      </trkpt>
      <trkpt lat="38.12133" lon="-4.89653333">
        <ele>515.0</ele>
        <time>2018-10-06T10:32:08.000Z</time>
      </trkpt>
      <trkpt lat="38.12133" lon="-4.89653333">
        <ele>515.0</ele>
        <time>2018-10-06T10:32:09.000Z</time>
      </trkpt>
      <trkpt lat="38.12133" lon="-4.89653333">
        <ele>515.0</ele>
        <time>2018-10-06T10:32:10.000Z</time>
      </trkpt>
      <trkpt lat="38.12133" lon="-4.89653333">
        <ele>515.0</ele>
        <time>2018-10-06T10:32:11.000Z</time>
      </trkpt>
      <trkpt lat="38.12133" lon="-4.89653333">
        <ele>515.0</ele>
        <time>2018-10-06T10:32:12.000Z</time>
      </trkpt>
      <trkpt lat="38.12133" lon="-4.89653333">
        <ele>515.0</ele>
        <time>2018-10-06T10:32:13.000Z</time>
      </trkpt>
      <trkpt lat="38.12133" lon="-4.89653333">
        <ele>515.0</ele>
        <time>2018-10-06T10:32:14.000Z</time>
      </trkpt>
      <trkpt lat="38.12133" lon="-4.89653333">
        <ele>515.0</ele>
        <time>2018-10-06T10:32:15.000Z</time>
      </trkpt>
      <trkpt lat="38.12133" lon="-4.89653333">
        <ele>515.0</ele>
        <time>2018-10-06T10:32:16.000Z</time>
      </trkpt>
      <trkpt lat="38.12133" lon="-4.89653333">
        <ele>515.0</ele>
        <time>2018-10-06T10:32:17.000Z</time>
      </trkpt>
      <trkpt lat="38.12133" lon="-4.89653333">
        <ele>515.0</ele>
        <time>2018-10-06T10:32:18.000Z</time>
      </trkpt>
      <trkpt lat="38.12133" lon="-4.89653333">
        <ele>515.0</ele>
        <time>2018-10-06T10:32:19.000Z</time>
      </trkpt>
      <trkpt lat="38.12133" lon="-4.89653333">
        <ele>515.0</ele>
        <time>2018-10-06T10:32:20.000Z</time>
      </trkpt>
      <trkpt lat="38.12133" lon="-4.89653333">
        <ele>515.0</ele>
        <time>2018-10-06T10:32:21.000Z</time>
      </trkpt>
      <trkpt lat="38.12133" lon="-4.89653333">
        <ele>515.0</ele>
        <time>2018-10-06T10:32:22.000Z</time>
      </trkpt>
      <trkpt lat="38.12133" lon="-4.89653333">
        <ele>515.0</ele>
        <time>2018-10-06T10:32:23.000Z</time>
      </trkpt>
      <trkpt lat="38.12133" lon="-4.89653333">
        <ele>515.0</ele>
        <time>2018-10-06T10:32:24.000Z</time>
      </trkpt>
      <trkpt lat="38.12133" lon="-4.89653333">
        <ele>515.0</ele>
        <time>2018-10-06T10:32:25.000Z</time>
      </trkpt>
      <trkpt lat="38.12133" lon="-4.89653333">
        <ele>515.0</ele>
        <time>2018-10-06T10:32:26.000Z</time>
      </trkpt>
      <trkpt lat="38.12133" lon="-4.89653333">
        <ele>515.0</ele>
        <time>2018-10-06T10:32:27.000Z</time>
      </trkpt>
      <trkpt lat="38.12133" lon="-4.89653333">
        <ele>515.0</ele>
        <time>2018-10-06T10:32:28.000Z</time>
      </trkpt>
      <trkpt lat="38.12133" lon="-4.89653333">
        <ele>515.0</ele>
        <time>2018-10-06T10:32:29.000Z</time>
      </trkpt>
      <trkpt lat="38.12133" lon="-4.89653333">
        <ele>515.0</ele>
        <time>2018-10-06T10:32:30.000Z</time>
      </trkpt>
      <trkpt lat="38.12133" lon="-4.89653333">
        <ele>515.0</ele>
        <time>2018-10-06T10:32:31.000Z</time>
      </trkpt>
      <trkpt lat="38.12133" lon="-4.89653333">
        <ele>515.0</ele>
        <time>2018-10-06T10:32:32.000Z</time>
      </trkpt>
      <trkpt lat="38.12133" lon="-4.89653333">
        <ele>515.0</ele>
        <time>2018-10-06T10:32:33.000Z</time>
      </trkpt>
      <trkpt lat="38.12133" lon="-4.89653333">
        <ele>515.0</ele>
        <time>2018-10-06T10:32:34.000Z</time>
      </trkpt>
      <trkpt lat="38.12133" lon="-4.89653333">
        <ele>515.0</ele>
        <time>2018-10-06T10:32:35.000Z</time>
      </trkpt>
      <trkpt lat="38.12133" lon="-4.89653333">
        <ele>515.0</ele>
        <time>2018-10-06T10:32:36.000Z</time>
      </trkpt>
      <trkpt lat="38.12162167" lon="-4.896595">
        <ele>497.0</ele>
        <time>2018-10-06T10:32:37.000Z</time>
      </trkpt>
      <trkpt lat="38.12175667" lon="-4.89653167">
        <ele>507.0</ele>
        <time>2018-10-06T10:32:38.000Z</time>
      </trkpt>
      <trkpt lat="38.12176333" lon="-4.896515">
        <ele>508.0</ele>
        <time>2018-10-06T10:32:39.000Z</time>
      </trkpt>
      <trkpt lat="38.12177" lon="-4.89648833">
        <ele>509.0</ele>
        <time>2018-10-06T10:32:40.000Z</time>
      </trkpt>
      <trkpt lat="38.12178167" lon="-4.89646833">
        <ele>511.0</ele>
        <time>2018-10-06T10:32:41.000Z</time>
      </trkpt>
      <trkpt lat="38.12179333" lon="-4.89645333">
        <ele>512.0</ele>
        <time>2018-10-06T10:32:42.000Z</time>
      </trkpt>
      <trkpt lat="38.1218" lon="-4.89643833">
        <ele>512.0</ele>
        <time>2018-10-06T10:32:43.000Z</time>
      </trkpt>
      <trkpt lat="38.12180333" lon="-4.89642667">
        <ele>513.0</ele>
        <time>2018-10-06T10:32:44.000Z</time>
      </trkpt>
      <trkpt lat="38.121805" lon="-4.89640833">
        <ele>513.0</ele>
        <time>2018-10-06T10:32:45.000Z</time>
      </trkpt>
      <trkpt lat="38.12180667" lon="-4.896395">
        <ele>514.0</ele>
        <time>2018-10-06T10:32:46.000Z</time>
      </trkpt>
      <trkpt lat="38.12180833" lon="-4.89638167">
        <ele>514.0</ele>
        <time>2018-10-06T10:32:47.000Z</time>
      </trkpt>
      <trkpt lat="38.12181" lon="-4.89636667">
        <ele>514.0</ele>
        <time>2018-10-06T10:32:48.000Z</time>
      </trkpt>
      <trkpt lat="38.12181" lon="-4.89636667">
        <ele>514.0</ele>
        <time>2018-10-06T10:32:49.000Z</time>
      </trkpt>
      <trkpt lat="38.12181" lon="-4.89636667">
        <ele>514.0</ele>
        <time>2018-10-06T10:32:50.000Z</time>
      </trkpt>
      <trkpt lat="38.12181" lon="-4.89636667">
        <ele>514.0</ele>
        <time>2018-10-06T10:32:51.000Z</time>
      </trkpt>
      <trkpt lat="38.12181" lon="-4.89636667">
        <ele>514.0</ele>
        <time>2018-10-06T10:32:52.000Z</time>
      </trkpt>
      <trkpt lat="38.12181" lon="-4.89636667">
        <ele>514.0</ele>
        <time>2018-10-06T10:32:53.000Z</time>
      </trkpt>
      <trkpt lat="38.12181" lon="-4.89636667">
        <ele>514.0</ele>
        <time>2018-10-06T10:32:54.000Z</time>
      </trkpt>
      <trkpt lat="38.12181" lon="-4.89636667">
        <ele>514.0</ele>
        <time>2018-10-06T10:32:55.000Z</time>
      </trkpt>
      <trkpt lat="38.12181" lon="-4.89636667">
        <ele>514.0</ele>
        <time>2018-10-06T10:32:56.000Z</time>
      </trkpt>
      <trkpt lat="38.12181" lon="-4.89636667">
        <ele>514.0</ele>
        <time>2018-10-06T10:32:57.000Z</time>
      </trkpt>
      <trkpt lat="38.12181" lon="-4.89636667">
        <ele>514.0</ele>
        <time>2018-10-06T10:32:58.000Z</time>
      </trkpt>
      <trkpt lat="38.12181" lon="-4.89636667">
        <ele>514.0</ele>
        <time>2018-10-06T10:32:59.000Z</time>
      </trkpt>
      <trkpt lat="38.12181" lon="-4.89636667">
        <ele>514.0</ele>
        <time>2018-10-06T10:33:00.000Z</time>
      </trkpt>
      <trkpt lat="38.12181" lon="-4.89636667">
        <ele>514.0</ele>
        <time>2018-10-06T10:33:01.000Z</time>
      </trkpt>
      <trkpt lat="38.12181" lon="-4.89636667">
        <ele>514.0</ele>
        <time>2018-10-06T10:33:02.000Z</time>
      </trkpt>
      <trkpt lat="38.12181" lon="-4.89636667">
        <ele>514.0</ele>
        <time>2018-10-06T10:33:03.000Z</time>
      </trkpt>
      <trkpt lat="38.12181" lon="-4.89636667">
        <ele>514.0</ele>
        <time>2018-10-06T10:33:04.000Z</time>
      </trkpt>
      <trkpt lat="38.12181" lon="-4.89636667">
        <ele>514.0</ele>
        <time>2018-10-06T10:33:05.000Z</time>
      </trkpt>
      <trkpt lat="38.12181" lon="-4.89636667">
        <ele>514.0</ele>
        <time>2018-10-06T10:33:06.000Z</time>
      </trkpt>
      <trkpt lat="38.12181" lon="-4.89636667">
        <ele>514.0</ele>
        <time>2018-10-06T10:33:07.000Z</time>
      </trkpt>
      <trkpt lat="38.12181" lon="-4.89636667">
        <ele>514.0</ele>
        <time>2018-10-06T10:33:08.000Z</time>
      </trkpt>
      <trkpt lat="38.12181" lon="-4.89636667">
        <ele>514.0</ele>
        <time>2018-10-06T10:33:09.000Z</time>
      </trkpt>
      <trkpt lat="38.12181" lon="-4.89636667">
        <ele>514.0</ele>
        <time>2018-10-06T10:33:10.000Z</time>
      </trkpt>
      <trkpt lat="38.12181" lon="-4.89636667">
        <ele>514.0</ele>
        <time>2018-10-06T10:33:11.000Z</time>
      </trkpt>
      <trkpt lat="38.12181" lon="-4.89636667">
        <ele>514.0</ele>
        <time>2018-10-06T10:33:12.000Z</time>
      </trkpt>
      <trkpt lat="38.12181" lon="-4.89636667">
        <ele>514.0</ele>
        <time>2018-10-06T10:33:13.000Z</time>
      </trkpt>
      <trkpt lat="38.12181" lon="-4.89636667">
        <ele>514.0</ele>
        <time>2018-10-06T10:33:14.000Z</time>
      </trkpt>
      <trkpt lat="38.12181" lon="-4.89636667">
        <ele>514.0</ele>
        <time>2018-10-06T10:33:15.000Z</time>
      </trkpt>
      <trkpt lat="38.12181" lon="-4.89636667">
        <ele>514.0</ele>
        <time>2018-10-06T10:33:16.000Z</time>
      </trkpt>
      <trkpt lat="38.12181" lon="-4.89636667">
        <ele>514.0</ele>
        <time>2018-10-06T10:33:17.000Z</time>
      </trkpt>
      <trkpt lat="38.12181" lon="-4.89636667">
        <ele>514.0</ele>
        <time>2018-10-06T10:33:18.000Z</time>
      </trkpt>
      <trkpt lat="38.12181" lon="-4.89636667">
        <ele>514.0</ele>
        <time>2018-10-06T10:33:19.000Z</time>
      </trkpt>
      <trkpt lat="38.12181" lon="-4.89636667">
        <ele>514.0</ele>
        <time>2018-10-06T10:33:20.000Z</time>
      </trkpt>
      <trkpt lat="38.12181" lon="-4.89636667">
        <ele>514.0</ele>
        <time>2018-10-06T10:33:21.000Z</time>
      </trkpt>
      <trkpt lat="38.12181" lon="-4.89636667">
        <ele>514.0</ele>
        <time>2018-10-06T10:33:22.000Z</time>
      </trkpt>
      <trkpt lat="38.12181" lon="-4.89636667">
        <ele>514.0</ele>
        <time>2018-10-06T10:33:23.000Z</time>
      </trkpt>
      <trkpt lat="38.12181" lon="-4.89636667">
        <ele>514.0</ele>
        <time>2018-10-06T10:33:24.000Z</time>
      </trkpt>
      <trkpt lat="38.12181" lon="-4.89636667">
        <ele>514.0</ele>
        <time>2018-10-06T10:33:25.000Z</time>
      </trkpt>
      <trkpt lat="38.12181" lon="-4.89636667">
        <ele>514.0</ele>
        <time>2018-10-06T10:33:26.000Z</time>
      </trkpt>
      <trkpt lat="38.12181" lon="-4.89636667">
        <ele>514.0</ele>
        <time>2018-10-06T10:33:27.000Z</time>
      </trkpt>
      <trkpt lat="38.12181" lon="-4.89636667">
        <ele>514.0</ele>
        <time>2018-10-06T10:33:28.000Z</time>
      </trkpt>
      <trkpt lat="38.12181" lon="-4.89636667">
        <ele>514.0</ele>
        <time>2018-10-06T10:33:29.000Z</time>
      </trkpt>
      <trkpt lat="38.12181" lon="-4.89636667">
        <ele>514.0</ele>
        <time>2018-10-06T10:33:30.000Z</time>
      </trkpt>
      <trkpt lat="38.12181" lon="-4.89636667">
        <ele>514.0</ele>
        <time>2018-10-06T10:33:31.000Z</time>
      </trkpt>
      <trkpt lat="38.12181" lon="-4.89636667">
        <ele>514.0</ele>
        <time>2018-10-06T10:33:32.000Z</time>
      </trkpt>
      <trkpt lat="38.12181" lon="-4.89636667">
        <ele>514.0</ele>
        <time>2018-10-06T10:33:33.000Z</time>
      </trkpt>
      <trkpt lat="38.12181" lon="-4.89636667">
        <ele>514.0</ele>
        <time>2018-10-06T10:33:34.000Z</time>
      </trkpt>
      <trkpt lat="38.12181" lon="-4.89636667">
        <ele>514.0</ele>
        <time>2018-10-06T10:33:35.000Z</time>
      </trkpt>
      <trkpt lat="38.12181" lon="-4.89636667">
        <ele>514.0</ele>
        <time>2018-10-06T10:33:36.000Z</time>
      </trkpt>
      <trkpt lat="38.12167" lon="-4.895915">
        <ele>502.0</ele>
        <time>2018-10-06T10:33:37.000Z</time>
      </trkpt>
      <trkpt lat="38.12166833" lon="-4.895905">
        <ele>502.0</ele>
        <time>2018-10-06T10:33:38.000Z</time>
      </trkpt>
      <trkpt lat="38.121665" lon="-4.89589833">
        <ele>502.0</ele>
        <time>2018-10-06T10:33:39.000Z</time>
      </trkpt>
      <trkpt lat="38.12166" lon="-4.89588667">
        <ele>502.0</ele>
        <time>2018-10-06T10:33:40.000Z</time>
      </trkpt>
      <trkpt lat="38.121655" lon="-4.89587167">
        <ele>502.0</ele>
        <time>2018-10-06T10:33:41.000Z</time>
      </trkpt>
      <trkpt lat="38.12165167" lon="-4.89585667">
        <ele>502.0</ele>
        <time>2018-10-06T10:33:42.000Z</time>
      </trkpt>
      <trkpt lat="38.12165" lon="-4.89584">
        <ele>503.0</ele>
        <time>2018-10-06T10:33:43.000Z</time>
      </trkpt>
      <trkpt lat="38.121645" lon="-4.89582667">
        <ele>503.0</ele>
        <time>2018-10-06T10:33:44.000Z</time>
      </trkpt>
      <trkpt lat="38.12164167" lon="-4.89580833">
        <ele>503.0</ele>
        <time>2018-10-06T10:33:45.000Z</time>
      </trkpt>
      <trkpt lat="38.12164" lon="-4.89579167">
        <ele>504.0</ele>
        <time>2018-10-06T10:33:46.000Z</time>
      </trkpt>
      <trkpt lat="38.12163833" lon="-4.895775">
        <ele>504.0</ele>
        <time>2018-10-06T10:33:47.000Z</time>
      </trkpt>
      <trkpt lat="38.121635" lon="-4.89576">
        <ele>504.0</ele>
        <time>2018-10-06T10:33:48.000Z</time>
      </trkpt>
      <trkpt lat="38.121635" lon="-4.89576">
        <ele>504.0</ele>
        <time>2018-10-06T10:33:49.000Z</time>
      </trkpt>
      <trkpt lat="38.121635" lon="-4.89576">
        <ele>504.0</ele>
        <time>2018-10-06T10:33:50.000Z</time>
      </trkpt>
      <trkpt lat="38.121635" lon="-4.89576">
        <ele>504.0</ele>
        <time>2018-10-06T10:33:51.000Z</time>
      </trkpt>
      <trkpt lat="38.121635" lon="-4.89576">
        <ele>504.0</ele>
        <time>2018-10-06T10:33:52.000Z</time>
      </trkpt>
      <trkpt lat="38.121635" lon="-4.89576">
        <ele>504.0</ele>
        <time>2018-10-06T10:33:53.000Z</time>
      </trkpt>
      <trkpt lat="38.121635" lon="-4.89576">
        <ele>504.0</ele>
        <time>2018-10-06T10:33:54.000Z</time>
      </trkpt>
      <trkpt lat="38.121635" lon="-4.89576">
        <ele>504.0</ele>
        <time>2018-10-06T10:33:55.000Z</time>
      </trkpt>
      <trkpt lat="38.121635" lon="-4.89576">
        <ele>504.0</ele>
        <time>2018-10-06T10:33:56.000Z</time>
      </trkpt>
      <trkpt lat="38.121635" lon="-4.89576">
        <ele>504.0</ele>
        <time>2018-10-06T10:33:57.000Z</time>
      </trkpt>
      <trkpt lat="38.121635" lon="-4.89576">
        <ele>504.0</ele>
        <time>2018-10-06T10:33:58.000Z</time>
      </trkpt>
      <trkpt lat="38.121635" lon="-4.89576">
        <ele>504.0</ele>
        <time>2018-10-06T10:33:59.000Z</time>
      </trkpt>
      <trkpt lat="38.121635" lon="-4.89576">
        <ele>504.0</ele>
        <time>2018-10-06T10:34:00.000Z</time>
      </trkpt>
      <trkpt lat="38.121635" lon="-4.89576">
        <ele>504.0</ele>
        <time>2018-10-06T10:34:01.000Z</time>
      </trkpt>
      <trkpt lat="38.121635" lon="-4.89576">
        <ele>504.0</ele>
        <time>2018-10-06T10:34:02.000Z</time>
      </trkpt>
      <trkpt lat="38.121635" lon="-4.89576">
        <ele>504.0</ele>
        <time>2018-10-06T10:34:03.000Z</time>
      </trkpt>
      <trkpt lat="38.121635" lon="-4.89576">
        <ele>504.0</ele>
        <time>2018-10-06T10:34:04.000Z</time>
      </trkpt>
      <trkpt lat="38.121635" lon="-4.89576">
        <ele>504.0</ele>
        <time>2018-10-06T10:34:05.000Z</time>
      </trkpt>
      <trkpt lat="38.121635" lon="-4.89576">
        <ele>504.0</ele>
        <time>2018-10-06T10:34:06.000Z</time>
      </trkpt>
      <trkpt lat="38.121635" lon="-4.89576">
        <ele>504.0</ele>
        <time>2018-10-06T10:34:07.000Z</time>
      </trkpt>
      <trkpt lat="38.121635" lon="-4.89576">
        <ele>504.0</ele>
        <time>2018-10-06T10:34:08.000Z</time>
      </trkpt>
      <trkpt lat="38.121635" lon="-4.89576">
        <ele>504.0</ele>
        <time>2018-10-06T10:34:09.000Z</time>
      </trkpt>
      <trkpt lat="38.121635" lon="-4.89576">
        <ele>504.0</ele>
        <time>2018-10-06T10:34:10.000Z</time>
      </trkpt>
      <trkpt lat="38.121635" lon="-4.89576">
        <ele>504.0</ele>
        <time>2018-10-06T10:34:11.000Z</time>
      </trkpt>
      <trkpt lat="38.121635" lon="-4.89576">
        <ele>504.0</ele>
        <time>2018-10-06T10:34:12.000Z</time>
      </trkpt>
      <trkpt lat="38.121635" lon="-4.89576">
        <ele>504.0</ele>
        <time>2018-10-06T10:34:13.000Z</time>
      </trkpt>
      <trkpt lat="38.121635" lon="-4.89576">
        <ele>504.0</ele>
        <time>2018-10-06T10:34:14.000Z</time>
      </trkpt>
      <trkpt lat="38.121635" lon="-4.89576">
        <ele>504.0</ele>
        <time>2018-10-06T10:34:15.000Z</time>
      </trkpt>
      <trkpt lat="38.121635" lon="-4.89576">
        <ele>504.0</ele>
        <time>2018-10-06T10:34:16.000Z</time>
      </trkpt>
      <trkpt lat="38.121635" lon="-4.89576">
        <ele>504.0</ele>
        <time>2018-10-06T10:34:17.000Z</time>
      </trkpt>
      <trkpt lat="38.121635" lon="-4.89576">
        <ele>504.0</ele>
        <time>2018-10-06T10:34:18.000Z</time>
      </trkpt>
      <trkpt lat="38.121635" lon="-4.89576">
        <ele>504.0</ele>
        <time>2018-10-06T10:34:19.000Z</time>
      </trkpt>
      <trkpt lat="38.121635" lon="-4.89576">
        <ele>504.0</ele>
        <time>2018-10-06T10:34:20.000Z</time>
      </trkpt>
      <trkpt lat="38.121635" lon="-4.89576">
        <ele>504.0</ele>
        <time>2018-10-06T10:34:21.000Z</time>
      </trkpt>
      <trkpt lat="38.121635" lon="-4.89576">
        <ele>504.0</ele>
        <time>2018-10-06T10:34:22.000Z</time>
      </trkpt>
      <trkpt lat="38.121635" lon="-4.89576">
        <ele>504.0</ele>
        <time>2018-10-06T10:34:23.000Z</time>
      </trkpt>
      <trkpt lat="38.121635" lon="-4.89576">
        <ele>504.0</ele>
        <time>2018-10-06T10:34:24.000Z</time>
      </trkpt>
      <trkpt lat="38.121635" lon="-4.89576">
        <ele>504.0</ele>
        <time>2018-10-06T10:34:25.000Z</time>
      </trkpt>
      <trkpt lat="38.121635" lon="-4.89576">
        <ele>504.0</ele>
        <time>2018-10-06T10:34:26.000Z</time>
      </trkpt>
      <trkpt lat="38.121635" lon="-4.89576">
        <ele>504.0</ele>
        <time>2018-10-06T10:34:27.000Z</time>
      </trkpt>
      <trkpt lat="38.121635" lon="-4.89576">
        <ele>504.0</ele>
        <time>2018-10-06T10:34:28.000Z</time>
      </trkpt>
      <trkpt lat="38.121635" lon="-4.89576">
        <ele>504.0</ele>
        <time>2018-10-06T10:34:29.000Z</time>
      </trkpt>
      <trkpt lat="38.121635" lon="-4.89576">
        <ele>504.0</ele>
        <time>2018-10-06T10:34:30.000Z</time>
      </trkpt>
      <trkpt lat="38.121635" lon="-4.89576">
        <ele>504.0</ele>
        <time>2018-10-06T10:34:31.000Z</time>
      </trkpt>
      <trkpt lat="38.121635" lon="-4.89576">
        <ele>504.0</ele>
        <time>2018-10-06T10:34:32.000Z</time>
      </trkpt>
      <trkpt lat="38.121635" lon="-4.89576">
        <ele>504.0</ele>
        <time>2018-10-06T10:34:33.000Z</time>
      </trkpt>
      <trkpt lat="38.121635" lon="-4.89576">
        <ele>504.0</ele>
        <time>2018-10-06T10:34:34.000Z</time>
      </trkpt>
      <trkpt lat="38.121635" lon="-4.89576">
        <ele>504.0</ele>
        <time>2018-10-06T10:34:35.000Z</time>
      </trkpt>
      <trkpt lat="38.121635" lon="-4.89576">
        <ele>504.0</ele>
        <time>2018-10-06T10:34:36.000Z</time>
      </trkpt>
      <trkpt lat="38.12162167" lon="-4.89571167">
        <ele>491.0</ele>
        <time>2018-10-06T10:34:37.000Z</time>
      </trkpt>
      <trkpt lat="38.12161833" lon="-4.89570833">
        <ele>492.0</ele>
        <time>2018-10-06T10:34:38.000Z</time>
      </trkpt>
      <trkpt lat="38.121615" lon="-4.89570167">
        <ele>492.0</ele>
        <time>2018-10-06T10:34:39.000Z</time>
      </trkpt>
      <trkpt lat="38.12161167" lon="-4.895695">
        <ele>493.0</ele>
        <time>2018-10-06T10:34:40.000Z</time>
      </trkpt>
      <trkpt lat="38.12160833" lon="-4.89568167">
        <ele>494.0</ele>
        <time>2018-10-06T10:34:41.000Z</time>
      </trkpt>
      <trkpt lat="38.12161" lon="-4.89567167">
        <ele>495.0</ele>
        <time>2018-10-06T10:34:42.000Z</time>
      </trkpt>
      <trkpt lat="38.12161" lon="-4.89566167">
        <ele>497.0</ele>
        <time>2018-10-06T10:34:43.000Z</time>
      </trkpt>
      <trkpt lat="38.12161" lon="-4.89565167">
        <ele>498.0</ele>
        <time>2018-10-06T10:34:44.000Z</time>
      </trkpt>
      <trkpt lat="38.12161" lon="-4.895645">
        <ele>499.0</ele>
        <time>2018-10-06T10:34:45.000Z</time>
      </trkpt>
      <trkpt lat="38.12160833" lon="-4.89563667">
        <ele>499.0</ele>
        <time>2018-10-06T10:34:46.000Z</time>
      </trkpt>
      <trkpt lat="38.12160833" lon="-4.89563167">
        <ele>500.0</ele>
        <time>2018-10-06T10:34:47.000Z</time>
      </trkpt>
      <trkpt lat="38.12160833" lon="-4.895625">
        <ele>501.0</ele>
        <time>2018-10-06T10:34:48.000Z</time>
      </trkpt>
      <trkpt lat="38.12160833" lon="-4.89562">
        <ele>502.0</ele>
        <time>2018-10-06T10:34:49.000Z</time>
      </trkpt>
      <trkpt lat="38.12160833" lon="-4.89562">
        <ele>502.0</ele>
        <time>2018-10-06T10:34:50.000Z</time>
      </trkpt>
      <trkpt lat="38.12160833" lon="-4.89562">
        <ele>502.0</ele>
        <time>2018-10-06T10:34:51.000Z</time>
      </trkpt>
      <trkpt lat="38.12160833" lon="-4.89562">
        <ele>502.0</ele>
        <time>2018-10-06T10:34:52.000Z</time>
      </trkpt>
      <trkpt lat="38.12160833" lon="-4.89562">
        <ele>502.0</ele>
        <time>2018-10-06T10:34:53.000Z</time>
      </trkpt>
      <trkpt lat="38.12160833" lon="-4.89562">
        <ele>502.0</ele>
        <time>2018-10-06T10:34:54.000Z</time>
      </trkpt>
      <trkpt lat="38.12160833" lon="-4.89562">
        <ele>502.0</ele>
        <time>2018-10-06T10:34:55.000Z</time>
      </trkpt>
      <trkpt lat="38.12160833" lon="-4.89562">
        <ele>502.0</ele>
        <time>2018-10-06T10:34:56.000Z</time>
      </trkpt>
      <trkpt lat="38.12160833" lon="-4.89562">
        <ele>502.0</ele>
        <time>2018-10-06T10:34:57.000Z</time>
      </trkpt>
      <trkpt lat="38.12160833" lon="-4.89562">
        <ele>502.0</ele>
        <time>2018-10-06T10:34:58.000Z</time>
      </trkpt>
      <trkpt lat="38.12160833" lon="-4.89562">
        <ele>502.0</ele>
        <time>2018-10-06T10:34:59.000Z</time>
      </trkpt>
      <trkpt lat="38.12160833" lon="-4.89562">
        <ele>502.0</ele>
        <time>2018-10-06T10:35:00.000Z</time>
      </trkpt>
      <trkpt lat="38.12160833" lon="-4.89562">
        <ele>502.0</ele>
        <time>2018-10-06T10:35:01.000Z</time>
      </trkpt>
      <trkpt lat="38.12160833" lon="-4.89562">
        <ele>502.0</ele>
        <time>2018-10-06T10:35:02.000Z</time>
      </trkpt>
      <trkpt lat="38.12160833" lon="-4.89562">
        <ele>502.0</ele>
        <time>2018-10-06T10:35:03.000Z</time>
      </trkpt>
      <trkpt lat="38.12160833" lon="-4.89562">
        <ele>502.0</ele>
        <time>2018-10-06T10:35:04.000Z</time>
      </trkpt>
      <trkpt lat="38.12160833" lon="-4.89562">
        <ele>502.0</ele>
        <time>2018-10-06T10:35:05.000Z</time>
      </trkpt>
      <trkpt lat="38.12160833" lon="-4.89562">
        <ele>502.0</ele>
        <time>2018-10-06T10:35:06.000Z</time>
      </trkpt>
      <trkpt lat="38.12160833" lon="-4.89562">
        <ele>502.0</ele>
        <time>2018-10-06T10:35:07.000Z</time>
      </trkpt>
      <trkpt lat="38.12160833" lon="-4.89562">
        <ele>502.0</ele>
        <time>2018-10-06T10:35:08.000Z</time>
      </trkpt>
      <trkpt lat="38.12160833" lon="-4.89562">
        <ele>502.0</ele>
        <time>2018-10-06T10:35:09.000Z</time>
      </trkpt>
      <trkpt lat="38.12160833" lon="-4.89562">
        <ele>502.0</ele>
        <time>2018-10-06T10:35:10.000Z</time>
      </trkpt>
      <trkpt lat="38.12160833" lon="-4.89562">
        <ele>502.0</ele>
        <time>2018-10-06T10:35:11.000Z</time>
      </trkpt>
      <trkpt lat="38.12160833" lon="-4.89562">
        <ele>502.0</ele>
        <time>2018-10-06T10:35:12.000Z</time>
      </trkpt>
      <trkpt lat="38.12160833" lon="-4.89562">
        <ele>502.0</ele>
        <time>2018-10-06T10:35:13.000Z</time>
      </trkpt>
      <trkpt lat="38.12160833" lon="-4.89562">
        <ele>502.0</ele>
        <time>2018-10-06T10:35:14.000Z</time>
      </trkpt>
      <trkpt lat="38.12160833" lon="-4.89562">
        <ele>502.0</ele>
        <time>2018-10-06T10:35:15.000Z</time>
      </trkpt>
      <trkpt lat="38.12160833" lon="-4.89562">
        <ele>502.0</ele>
        <time>2018-10-06T10:35:16.000Z</time>
      </trkpt>
      <trkpt lat="38.12160833" lon="-4.89562">
        <ele>502.0</ele>
        <time>2018-10-06T10:35:17.000Z</time>
      </trkpt>
      <trkpt lat="38.12160833" lon="-4.89562">
        <ele>502.0</ele>
        <time>2018-10-06T10:35:18.000Z</time>
      </trkpt>
      <trkpt lat="38.12160833" lon="-4.89562">
        <ele>502.0</ele>
        <time>2018-10-06T10:35:19.000Z</time>
      </trkpt>
      <trkpt lat="38.12160833" lon="-4.89562">
        <ele>502.0</ele>
        <time>2018-10-06T10:35:20.000Z</time>
      </trkpt>
      <trkpt lat="38.12160833" lon="-4.89562">
        <ele>502.0</ele>
        <time>2018-10-06T10:35:21.000Z</time>
      </trkpt>
      <trkpt lat="38.12160833" lon="-4.89562">
        <ele>502.0</ele>
        <time>2018-10-06T10:35:22.000Z</time>
      </trkpt>
      <trkpt lat="38.12160833" lon="-4.89562">
        <ele>502.0</ele>
        <time>2018-10-06T10:35:23.000Z</time>
      </trkpt>
      <trkpt lat="38.12160833" lon="-4.89562">
        <ele>502.0</ele>
        <time>2018-10-06T10:35:24.000Z</time>
      </trkpt>
      <trkpt lat="38.12160833" lon="-4.89562">
        <ele>502.0</ele>
        <time>2018-10-06T10:35:25.000Z</time>
      </trkpt>
      <trkpt lat="38.12160833" lon="-4.89562">
        <ele>502.0</ele>
        <time>2018-10-06T10:35:26.000Z</time>
      </trkpt>
      <trkpt lat="38.12160833" lon="-4.89562">
        <ele>502.0</ele>
        <time>2018-10-06T10:35:27.000Z</time>
      </trkpt>
      <trkpt lat="38.12160833" lon="-4.89562">
        <ele>502.0</ele>
        <time>2018-10-06T10:35:28.000Z</time>
      </trkpt>
      <trkpt lat="38.12160833" lon="-4.89562">
        <ele>502.0</ele>
        <time>2018-10-06T10:35:29.000Z</time>
      </trkpt>
      <trkpt lat="38.12160833" lon="-4.89562">
        <ele>502.0</ele>
        <time>2018-10-06T10:35:30.000Z</time>
      </trkpt>
      <trkpt lat="38.12160833" lon="-4.89562">
        <ele>502.0</ele>
        <time>2018-10-06T10:35:31.000Z</time>
      </trkpt>
      <trkpt lat="38.12160833" lon="-4.89562">
        <ele>502.0</ele>
        <time>2018-10-06T10:35:32.000Z</time>
      </trkpt>
      <trkpt lat="38.12160833" lon="-4.89562">
        <ele>502.0</ele>
        <time>2018-10-06T10:35:33.000Z</time>
      </trkpt>
      <trkpt lat="38.12160833" lon="-4.89562">
        <ele>502.0</ele>
        <time>2018-10-06T10:35:34.000Z</time>
      </trkpt>
      <trkpt lat="38.12160833" lon="-4.89562">
        <ele>502.0</ele>
        <time>2018-10-06T10:35:35.000Z</time>
      </trkpt>
      <trkpt lat="38.12160833" lon="-4.89562">
        <ele>502.0</ele>
        <time>2018-10-06T10:35:36.000Z</time>
      </trkpt>
      <trkpt lat="38.121625" lon="-4.895545">
        <ele>505.0</ele>
        <time>2018-10-06T10:35:37.000Z</time>
      </trkpt>
      <trkpt lat="38.12162" lon="-4.895545">
        <ele>506.0</ele>
        <time>2018-10-06T10:35:38.000Z</time>
      </trkpt>
      <trkpt lat="38.12161667" lon="-4.89555">
        <ele>506.0</ele>
        <time>2018-10-06T10:35:39.000Z</time>
      </trkpt>
      <trkpt lat="38.12161167" lon="-4.89555333">
        <ele>506.0</ele>
        <time>2018-10-06T10:35:40.000Z</time>
      </trkpt>
      <trkpt lat="38.12160833" lon="-4.895555">
        <ele>506.0</ele>
        <time>2018-10-06T10:35:41.000Z</time>
      </trkpt>
      <trkpt lat="38.1216" lon="-4.895555">
        <ele>507.0</ele>
        <time>2018-10-06T10:35:42.000Z</time>
      </trkpt>
      <trkpt lat="38.121595" lon="-4.89555667">
        <ele>507.0</ele>
        <time>2018-10-06T10:35:43.000Z</time>
      </trkpt>
      <trkpt lat="38.12159667" lon="-4.89556">
        <ele>507.0</ele>
        <time>2018-10-06T10:35:44.000Z</time>
      </trkpt>
      <trkpt lat="38.12159667" lon="-4.89556">
        <ele>507.0</ele>
        <time>2018-10-06T10:35:45.000Z</time>
      </trkpt>
      <trkpt lat="38.121595" lon="-4.89556167">
        <ele>507.0</ele>
        <time>2018-10-06T10:35:46.000Z</time>
      </trkpt>
      <trkpt lat="38.12159333" lon="-4.89556333">
        <ele>507.0</ele>
        <time>2018-10-06T10:35:47.000Z</time>
      </trkpt>
      <trkpt lat="38.12159333" lon="-4.895565">
        <ele>507.0</ele>
        <time>2018-10-06T10:35:48.000Z</time>
      </trkpt>
      <trkpt lat="38.12159167" lon="-4.89556833">
        <ele>507.0</ele>
        <time>2018-10-06T10:35:49.000Z</time>
      </trkpt>
      <trkpt lat="38.12159167" lon="-4.89556833">
        <ele>507.0</ele>
        <time>2018-10-06T10:35:50.000Z</time>
      </trkpt>
      <trkpt lat="38.12159167" lon="-4.89556833">
        <ele>507.0</ele>
        <time>2018-10-06T10:35:51.000Z</time>
      </trkpt>
      <trkpt lat="38.12159167" lon="-4.89556833">
        <ele>507.0</ele>
        <time>2018-10-06T10:35:52.000Z</time>
      </trkpt>
      <trkpt lat="38.12159167" lon="-4.89556833">
        <ele>507.0</ele>
        <time>2018-10-06T10:35:53.000Z</time>
      </trkpt>
      <trkpt lat="38.12159167" lon="-4.89556833">
        <ele>507.0</ele>
        <time>2018-10-06T10:35:54.000Z</time>
      </trkpt>
      <trkpt lat="38.12159167" lon="-4.89556833">
        <ele>507.0</ele>
        <time>2018-10-06T10:35:55.000Z</time>
      </trkpt>
      <trkpt lat="38.12159167" lon="-4.89556833">
        <ele>507.0</ele>
        <time>2018-10-06T10:35:56.000Z</time>
      </trkpt>
      <trkpt lat="38.12159167" lon="-4.89556833">
        <ele>507.0</ele>
        <time>2018-10-06T10:35:57.000Z</time>
      </trkpt>
      <trkpt lat="38.12159167" lon="-4.89556833">
        <ele>507.0</ele>
        <time>2018-10-06T10:35:58.000Z</time>
      </trkpt>
      <trkpt lat="38.12159167" lon="-4.89556833">
        <ele>507.0</ele>
        <time>2018-10-06T10:35:59.000Z</time>
      </trkpt>
      <trkpt lat="38.12159167" lon="-4.89556833">
        <ele>507.0</ele>
        <time>2018-10-06T10:36:00.000Z</time>
      </trkpt>
      <trkpt lat="38.12159167" lon="-4.89556833">
        <ele>507.0</ele>
        <time>2018-10-06T10:36:01.000Z</time>
      </trkpt>
      <trkpt lat="38.12159167" lon="-4.89556833">
        <ele>507.0</ele>
        <time>2018-10-06T10:36:02.000Z</time>
      </trkpt>
      <trkpt lat="38.12159167" lon="-4.89556833">
        <ele>507.0</ele>
        <time>2018-10-06T10:36:03.000Z</time>
      </trkpt>
      <trkpt lat="38.12159167" lon="-4.89556833">
        <ele>507.0</ele>
        <time>2018-10-06T10:36:04.000Z</time>
      </trkpt>
      <trkpt lat="38.12159167" lon="-4.89556833">
        <ele>507.0</ele>
        <time>2018-10-06T10:36:05.000Z</time>
      </trkpt>
      <trkpt lat="38.12159167" lon="-4.89556833">
        <ele>507.0</ele>
        <time>2018-10-06T10:36:06.000Z</time>
      </trkpt>
      <trkpt lat="38.12159167" lon="-4.89556833">
        <ele>507.0</ele>
        <time>2018-10-06T10:36:07.000Z</time>
      </trkpt>
      <trkpt lat="38.12159167" lon="-4.89556833">
        <ele>507.0</ele>
        <time>2018-10-06T10:36:08.000Z</time>
      </trkpt>
      <trkpt lat="38.12159167" lon="-4.89556833">
        <ele>507.0</ele>
        <time>2018-10-06T10:36:09.000Z</time>
      </trkpt>
      <trkpt lat="38.12159167" lon="-4.89556833">
        <ele>507.0</ele>
        <time>2018-10-06T10:36:10.000Z</time>
      </trkpt>
      <trkpt lat="38.12159167" lon="-4.89556833">
        <ele>507.0</ele>
        <time>2018-10-06T10:36:11.000Z</time>
      </trkpt>
      <trkpt lat="38.12159167" lon="-4.89556833">
        <ele>507.0</ele>
        <time>2018-10-06T10:36:12.000Z</time>
      </trkpt>
      <trkpt lat="38.12159167" lon="-4.89556833">
        <ele>507.0</ele>
        <time>2018-10-06T10:36:13.000Z</time>
      </trkpt>
      <trkpt lat="38.12159167" lon="-4.89556833">
        <ele>507.0</ele>
        <time>2018-10-06T10:36:14.000Z</time>
      </trkpt>
      <trkpt lat="38.12159167" lon="-4.89556833">
        <ele>507.0</ele>
        <time>2018-10-06T10:36:15.000Z</time>
      </trkpt>
      <trkpt lat="38.12159167" lon="-4.89556833">
        <ele>507.0</ele>
        <time>2018-10-06T10:36:16.000Z</time>
      </trkpt>
      <trkpt lat="38.12159167" lon="-4.89556833">
        <ele>507.0</ele>
        <time>2018-10-06T10:36:17.000Z</time>
      </trkpt>
      <trkpt lat="38.12159167" lon="-4.89556833">
        <ele>507.0</ele>
        <time>2018-10-06T10:36:18.000Z</time>
      </trkpt>
      <trkpt lat="38.12159167" lon="-4.89556833">
        <ele>507.0</ele>
        <time>2018-10-06T10:36:19.000Z</time>
      </trkpt>
      <trkpt lat="38.12159167" lon="-4.89556833">
        <ele>507.0</ele>
        <time>2018-10-06T10:36:20.000Z</time>
      </trkpt>
      <trkpt lat="38.12159167" lon="-4.89556833">
        <ele>507.0</ele>
        <time>2018-10-06T10:36:21.000Z</time>
      </trkpt>
      <trkpt lat="38.12159167" lon="-4.89556833">
        <ele>507.0</ele>
        <time>2018-10-06T10:36:22.000Z</time>
      </trkpt>
      <trkpt lat="38.12159167" lon="-4.89556833">
        <ele>507.0</ele>
        <time>2018-10-06T10:36:23.000Z</time>
      </trkpt>
      <trkpt lat="38.12159167" lon="-4.89556833">
        <ele>507.0</ele>
        <time>2018-10-06T10:36:24.000Z</time>
      </trkpt>
      <trkpt lat="38.12159167" lon="-4.89556833">
        <ele>507.0</ele>
        <time>2018-10-06T10:36:25.000Z</time>
      </trkpt>
      <trkpt lat="38.12159167" lon="-4.89556833">
        <ele>507.0</ele>
        <time>2018-10-06T10:36:26.000Z</time>
      </trkpt>
      <trkpt lat="38.12159167" lon="-4.89556833">
        <ele>507.0</ele>
        <time>2018-10-06T10:36:27.000Z</time>
      </trkpt>
      <trkpt lat="38.12159167" lon="-4.89556833">
        <ele>507.0</ele>
        <time>2018-10-06T10:36:28.000Z</time>
      </trkpt>
      <trkpt lat="38.12159167" lon="-4.89556833">
        <ele>507.0</ele>
        <time>2018-10-06T10:36:29.000Z</time>
      </trkpt>
      <trkpt lat="38.12159167" lon="-4.89556833">
        <ele>507.0</ele>
        <time>2018-10-06T10:36:30.000Z</time>
      </trkpt>
      <trkpt lat="38.12159167" lon="-4.89556833">
        <ele>507.0</ele>
        <time>2018-10-06T10:36:31.000Z</time>
      </trkpt>
      <trkpt lat="38.12159167" lon="-4.89556833">
        <ele>507.0</ele>
        <time>2018-10-06T10:36:32.000Z</time>
      </trkpt>
      <trkpt lat="38.12159167" lon="-4.89556833">
        <ele>507.0</ele>
        <time>2018-10-06T10:36:33.000Z</time>
      </trkpt>
      <trkpt lat="38.12159167" lon="-4.89556833">
        <ele>507.0</ele>
        <time>2018-10-06T10:36:34.000Z</time>
      </trkpt>
      <trkpt lat="38.12159167" lon="-4.89556833">
        <ele>507.0</ele>
        <time>2018-10-06T10:36:35.000Z</time>
      </trkpt>
      <trkpt lat="38.12159167" lon="-4.89556833">
        <ele>507.0</ele>
        <time>2018-10-06T10:36:36.000Z</time>
      </trkpt>
      <trkpt lat="38.12159167" lon="-4.89556833">
        <ele>507.0</ele>
        <time>2018-10-06T10:36:37.000Z</time>
      </trkpt>
      <trkpt lat="38.12156" lon="-4.89560667">
        <ele>506.0</ele>
        <time>2018-10-06T10:36:38.000Z</time>
      </trkpt>
      <trkpt lat="38.12156333" lon="-4.89560167">
        <ele>507.0</ele>
        <time>2018-10-06T10:36:39.000Z</time>
      </trkpt>
      <trkpt lat="38.121565" lon="-4.89559667">
        <ele>508.0</ele>
        <time>2018-10-06T10:36:40.000Z</time>
      </trkpt>
      <trkpt lat="38.12156833" lon="-4.89559167">
        <ele>508.0</ele>
        <time>2018-10-06T10:36:41.000Z</time>
      </trkpt>
      <trkpt lat="38.12156833" lon="-4.89559">
        <ele>508.0</ele>
        <time>2018-10-06T10:36:42.000Z</time>
      </trkpt>
      <trkpt lat="38.12157" lon="-4.89558833">
        <ele>508.0</ele>
        <time>2018-10-06T10:36:43.000Z</time>
      </trkpt>
      <trkpt lat="38.12157333" lon="-4.89558333">
        <ele>508.0</ele>
        <time>2018-10-06T10:36:44.000Z</time>
      </trkpt>
      <trkpt lat="38.121575" lon="-4.89558667">
        <ele>508.0</ele>
        <time>2018-10-06T10:36:45.000Z</time>
      </trkpt>
      <trkpt lat="38.12157667" lon="-4.895585">
        <ele>508.0</ele>
        <time>2018-10-06T10:36:46.000Z</time>
      </trkpt>
      <trkpt lat="38.12157833" lon="-4.89558333">
        <ele>508.0</ele>
        <time>2018-10-06T10:36:47.000Z</time>
      </trkpt>
      <trkpt lat="38.12157833" lon="-4.89558167">
        <ele>508.0</ele>
        <time>2018-10-06T10:36:48.000Z</time>
      </trkpt>
      <trkpt lat="38.12158" lon="-4.89558">
        <ele>508.0</ele>
        <time>2018-10-06T10:36:49.000Z</time>
      </trkpt>
      <trkpt lat="38.12158" lon="-4.89558">
        <ele>508.0</ele>
        <time>2018-10-06T10:36:50.000Z</time>
      </trkpt>
      <trkpt lat="38.12158" lon="-4.89558">
        <ele>508.0</ele>
        <time>2018-10-06T10:36:51.000Z</time>
      </trkpt>
      <trkpt lat="38.12158" lon="-4.89558">
        <ele>508.0</ele>
        <time>2018-10-06T10:36:52.000Z</time>
      </trkpt>
      <trkpt lat="38.12158" lon="-4.89558">
        <ele>508.0</ele>
        <time>2018-10-06T10:36:53.000Z</time>
      </trkpt>
      <trkpt lat="38.12158" lon="-4.89558">
        <ele>508.0</ele>
        <time>2018-10-06T10:36:54.000Z</time>
      </trkpt>
      <trkpt lat="38.12158" lon="-4.89558">
        <ele>508.0</ele>
        <time>2018-10-06T10:36:55.000Z</time>
      </trkpt>
      <trkpt lat="38.12158" lon="-4.89558">
        <ele>508.0</ele>
        <time>2018-10-06T10:36:56.000Z</time>
      </trkpt>
      <trkpt lat="38.12158" lon="-4.89558">
        <ele>508.0</ele>
        <time>2018-10-06T10:36:57.000Z</time>
      </trkpt>
      <trkpt lat="38.12158" lon="-4.89558">
        <ele>508.0</ele>
        <time>2018-10-06T10:36:58.000Z</time>
      </trkpt>
      <trkpt lat="38.12158" lon="-4.89558">
        <ele>508.0</ele>
        <time>2018-10-06T10:36:59.000Z</time>
      </trkpt>
      <trkpt lat="38.12158" lon="-4.89558">
        <ele>508.0</ele>
        <time>2018-10-06T10:37:00.000Z</time>
      </trkpt>
      <trkpt lat="38.12158" lon="-4.89558">
        <ele>508.0</ele>
        <time>2018-10-06T10:37:01.000Z</time>
      </trkpt>
      <trkpt lat="38.12158" lon="-4.89558">
        <ele>508.0</ele>
        <time>2018-10-06T10:37:02.000Z</time>
      </trkpt>
      <trkpt lat="38.12158" lon="-4.89558">
        <ele>508.0</ele>
        <time>2018-10-06T10:37:03.000Z</time>
      </trkpt>
      <trkpt lat="38.12158" lon="-4.89558">
        <ele>508.0</ele>
        <time>2018-10-06T10:37:04.000Z</time>
      </trkpt>
      <trkpt lat="38.12158" lon="-4.89558">
        <ele>508.0</ele>
        <time>2018-10-06T10:37:05.000Z</time>
      </trkpt>
      <trkpt lat="38.12158" lon="-4.89558">
        <ele>508.0</ele>
        <time>2018-10-06T10:37:06.000Z</time>
      </trkpt>
      <trkpt lat="38.12158" lon="-4.89558">
        <ele>508.0</ele>
        <time>2018-10-06T10:37:07.000Z</time>
      </trkpt>
      <trkpt lat="38.12158" lon="-4.89558">
        <ele>508.0</ele>
        <time>2018-10-06T10:37:08.000Z</time>
      </trkpt>
      <trkpt lat="38.12158" lon="-4.89558">
        <ele>508.0</ele>
        <time>2018-10-06T10:37:09.000Z</time>
      </trkpt>
      <trkpt lat="38.12158" lon="-4.89558">
        <ele>508.0</ele>
        <time>2018-10-06T10:37:10.000Z</time>
      </trkpt>
      <trkpt lat="38.12158" lon="-4.89558">
        <ele>508.0</ele>
        <time>2018-10-06T10:37:11.000Z</time>
      </trkpt>
      <trkpt lat="38.12158" lon="-4.89558">
        <ele>508.0</ele>
        <time>2018-10-06T10:37:12.000Z</time>
      </trkpt>
      <trkpt lat="38.12158" lon="-4.89558">
        <ele>508.0</ele>
        <time>2018-10-06T10:37:13.000Z</time>
      </trkpt>
      <trkpt lat="38.12158" lon="-4.89558">
        <ele>508.0</ele>
        <time>2018-10-06T10:37:14.000Z</time>
      </trkpt>
      <trkpt lat="38.12158" lon="-4.89558">
        <ele>508.0</ele>
        <time>2018-10-06T10:37:15.000Z</time>
      </trkpt>
      <trkpt lat="38.12158" lon="-4.89558">
        <ele>508.0</ele>
        <time>2018-10-06T10:37:16.000Z</time>
      </trkpt>
      <trkpt lat="38.12158" lon="-4.89558">
        <ele>508.0</ele>
        <time>2018-10-06T10:37:17.000Z</time>
      </trkpt>
      <trkpt lat="38.12158" lon="-4.89558">
        <ele>508.0</ele>
        <time>2018-10-06T10:37:18.000Z</time>
      </trkpt>
      <trkpt lat="38.12158" lon="-4.89558">
        <ele>508.0</ele>
        <time>2018-10-06T10:37:19.000Z</time>
      </trkpt>
      <trkpt lat="38.12158" lon="-4.89558">
        <ele>508.0</ele>
        <time>2018-10-06T10:37:20.000Z</time>
      </trkpt>
      <trkpt lat="38.12158" lon="-4.89558">
        <ele>508.0</ele>
        <time>2018-10-06T10:37:21.000Z</time>
      </trkpt>
      <trkpt lat="38.12158" lon="-4.89558">
        <ele>508.0</ele>
        <time>2018-10-06T10:37:22.000Z</time>
      </trkpt>
      <trkpt lat="38.12158" lon="-4.89558">
        <ele>508.0</ele>
        <time>2018-10-06T10:37:23.000Z</time>
      </trkpt>
      <trkpt lat="38.12158" lon="-4.89558">
        <ele>508.0</ele>
        <time>2018-10-06T10:37:24.000Z</time>
      </trkpt>
      <trkpt lat="38.12158" lon="-4.89558">
        <ele>508.0</ele>
        <time>2018-10-06T10:37:25.000Z</time>
      </trkpt>
      <trkpt lat="38.12158" lon="-4.89558">
        <ele>508.0</ele>
        <time>2018-10-06T10:37:26.000Z</time>
      </trkpt>
      <trkpt lat="38.12158" lon="-4.89558">
        <ele>508.0</ele>
        <time>2018-10-06T10:37:27.000Z</time>
      </trkpt>
      <trkpt lat="38.12158" lon="-4.89558">
        <ele>508.0</ele>
        <time>2018-10-06T10:37:28.000Z</time>
      </trkpt>
      <trkpt lat="38.12158" lon="-4.89558">
        <ele>508.0</ele>
        <time>2018-10-06T10:37:29.000Z</time>
      </trkpt>
      <trkpt lat="38.12158" lon="-4.89558">
        <ele>508.0</ele>
        <time>2018-10-06T10:37:30.000Z</time>
      </trkpt>
      <trkpt lat="38.12158" lon="-4.89558">
        <ele>508.0</ele>
        <time>2018-10-06T10:37:31.000Z</time>
      </trkpt>
      <trkpt lat="38.12158" lon="-4.89558">
        <ele>508.0</ele>
        <time>2018-10-06T10:37:32.000Z</time>
      </trkpt>
      <trkpt lat="38.12158" lon="-4.89558">
        <ele>508.0</ele>
        <time>2018-10-06T10:37:33.000Z</time>
      </trkpt>
      <trkpt lat="38.12158" lon="-4.89558">
        <ele>508.0</ele>
        <time>2018-10-06T10:37:34.000Z</time>
      </trkpt>
      <trkpt lat="38.12158" lon="-4.89558">
        <ele>508.0</ele>
        <time>2018-10-06T10:37:35.000Z</time>
      </trkpt>
      <trkpt lat="38.12158" lon="-4.89558">
        <ele>508.0</ele>
        <time>2018-10-06T10:37:36.000Z</time>
      </trkpt>
      <trkpt lat="38.12158" lon="-4.89558">
        <ele>508.0</ele>
        <time>2018-10-06T10:37:37.000Z</time>
      </trkpt>
      <trkpt lat="38.12160333" lon="-4.895535">
        <ele>498.0</ele>
        <time>2018-10-06T10:37:38.000Z</time>
      </trkpt>
      <trkpt lat="38.12160833" lon="-4.89552833">
        <ele>498.0</ele>
        <time>2018-10-06T10:37:39.000Z</time>
      </trkpt>
      <trkpt lat="38.12160833" lon="-4.89552167">
        <ele>499.0</ele>
        <time>2018-10-06T10:37:40.000Z</time>
      </trkpt>
      <trkpt lat="38.12160667" lon="-4.89551667">
        <ele>500.0</ele>
        <time>2018-10-06T10:37:41.000Z</time>
      </trkpt>
      <trkpt lat="38.12160667" lon="-4.89551333">
        <ele>500.0</ele>
        <time>2018-10-06T10:37:42.000Z</time>
      </trkpt>
      <trkpt lat="38.12160833" lon="-4.89551167">
        <ele>500.0</ele>
        <time>2018-10-06T10:37:43.000Z</time>
      </trkpt>
      <trkpt lat="38.12161" lon="-4.89550667">
        <ele>500.0</ele>
        <time>2018-10-06T10:37:44.000Z</time>
      </trkpt>
      <trkpt lat="38.12161333" lon="-4.8955">
        <ele>501.0</ele>
        <time>2018-10-06T10:37:45.000Z</time>
      </trkpt>
      <trkpt lat="38.12161833" lon="-4.89549667">
        <ele>501.0</ele>
        <time>2018-10-06T10:37:46.000Z</time>
      </trkpt>
      <trkpt lat="38.12162167" lon="-4.89548833">
        <ele>502.0</ele>
        <time>2018-10-06T10:37:47.000Z</time>
      </trkpt>
      <trkpt lat="38.12162333" lon="-4.89548167">
        <ele>502.0</ele>
        <time>2018-10-06T10:37:48.000Z</time>
      </trkpt>
      <trkpt lat="38.12162333" lon="-4.89547833">
        <ele>502.0</ele>
        <time>2018-10-06T10:37:49.000Z</time>
      </trkpt>
      <trkpt lat="38.12162333" lon="-4.89547833">
        <ele>502.0</ele>
        <time>2018-10-06T10:37:50.000Z</time>
      </trkpt>
      <trkpt lat="38.12162333" lon="-4.89547833">
        <ele>502.0</ele>
        <time>2018-10-06T10:37:51.000Z</time>
      </trkpt>
      <trkpt lat="38.12162333" lon="-4.89547833">
        <ele>502.0</ele>
        <time>2018-10-06T10:37:52.000Z</time>
      </trkpt>
      <trkpt lat="38.12162333" lon="-4.89547833">
        <ele>502.0</ele>
        <time>2018-10-06T10:37:53.000Z</time>
      </trkpt>
      <trkpt lat="38.12162333" lon="-4.89547833">
        <ele>502.0</ele>
        <time>2018-10-06T10:37:54.000Z</time>
      </trkpt>
      <trkpt lat="38.12162333" lon="-4.89547833">
        <ele>502.0</ele>
        <time>2018-10-06T10:37:55.000Z</time>
      </trkpt>
      <trkpt lat="38.12162333" lon="-4.89547833">
        <ele>502.0</ele>
        <time>2018-10-06T10:37:56.000Z</time>
      </trkpt>
      <trkpt lat="38.12162333" lon="-4.89547833">
        <ele>502.0</ele>
        <time>2018-10-06T10:37:57.000Z</time>
      </trkpt>
      <trkpt lat="38.12162333" lon="-4.89547833">
        <ele>502.0</ele>
        <time>2018-10-06T10:37:58.000Z</time>
      </trkpt>
      <trkpt lat="38.12162333" lon="-4.89547833">
        <ele>502.0</ele>
        <time>2018-10-06T10:37:59.000Z</time>
      </trkpt>
      <trkpt lat="38.12162333" lon="-4.89547833">
        <ele>502.0</ele>
        <time>2018-10-06T10:38:00.000Z</time>
      </trkpt>
      <trkpt lat="38.12162333" lon="-4.89547833">
        <ele>502.0</ele>
        <time>2018-10-06T10:38:01.000Z</time>
      </trkpt>
      <trkpt lat="38.12162333" lon="-4.89547833">
        <ele>502.0</ele>
        <time>2018-10-06T10:38:02.000Z</time>
      </trkpt>
      <trkpt lat="38.12162333" lon="-4.89547833">
        <ele>502.0</ele>
        <time>2018-10-06T10:38:03.000Z</time>
      </trkpt>
      <trkpt lat="38.12162333" lon="-4.89547833">
        <ele>502.0</ele>
        <time>2018-10-06T10:38:04.000Z</time>
      </trkpt>
      <trkpt lat="38.12162333" lon="-4.89547833">
        <ele>502.0</ele>
        <time>2018-10-06T10:38:05.000Z</time>
      </trkpt>
      <trkpt lat="38.12162333" lon="-4.89547833">
        <ele>502.0</ele>
        <time>2018-10-06T10:38:06.000Z</time>
      </trkpt>
      <trkpt lat="38.12162333" lon="-4.89547833">
        <ele>502.0</ele>
        <time>2018-10-06T10:38:07.000Z</time>
      </trkpt>
      <trkpt lat="38.12162333" lon="-4.89547833">
        <ele>502.0</ele>
        <time>2018-10-06T10:38:08.000Z</time>
      </trkpt>
      <trkpt lat="38.12162333" lon="-4.89547833">
        <ele>502.0</ele>
        <time>2018-10-06T10:38:09.000Z</time>
      </trkpt>
      <trkpt lat="38.12162333" lon="-4.89547833">
        <ele>502.0</ele>
        <time>2018-10-06T10:38:10.000Z</time>
      </trkpt>
      <trkpt lat="38.12162333" lon="-4.89547833">
        <ele>502.0</ele>
        <time>2018-10-06T10:38:11.000Z</time>
      </trkpt>
      <trkpt lat="38.12162333" lon="-4.89547833">
        <ele>502.0</ele>
        <time>2018-10-06T10:38:12.000Z</time>
      </trkpt>
      <trkpt lat="38.12162333" lon="-4.89547833">
        <ele>502.0</ele>
        <time>2018-10-06T10:38:13.000Z</time>
      </trkpt>
      <trkpt lat="38.12162333" lon="-4.89547833">
        <ele>502.0</ele>
        <time>2018-10-06T10:38:14.000Z</time>
      </trkpt>
      <trkpt lat="38.12162333" lon="-4.89547833">
        <ele>502.0</ele>
        <time>2018-10-06T10:38:15.000Z</time>
      </trkpt>
      <trkpt lat="38.12162333" lon="-4.89547833">
        <ele>502.0</ele>
        <time>2018-10-06T10:38:16.000Z</time>
      </trkpt>
      <trkpt lat="38.12162333" lon="-4.89547833">
        <ele>502.0</ele>
        <time>2018-10-06T10:38:17.000Z</time>
      </trkpt>
      <trkpt lat="38.12162333" lon="-4.89547833">
        <ele>502.0</ele>
        <time>2018-10-06T10:38:18.000Z</time>
      </trkpt>
      <trkpt lat="38.12162333" lon="-4.89547833">
        <ele>502.0</ele>
        <time>2018-10-06T10:38:19.000Z</time>
      </trkpt>
      <trkpt lat="38.12162333" lon="-4.89547833">
        <ele>502.0</ele>
        <time>2018-10-06T10:38:20.000Z</time>
      </trkpt>
      <trkpt lat="38.12162333" lon="-4.89547833">
        <ele>502.0</ele>
        <time>2018-10-06T10:38:21.000Z</time>
      </trkpt>
      <trkpt lat="38.12162333" lon="-4.89547833">
        <ele>502.0</ele>
        <time>2018-10-06T10:38:22.000Z</time>
      </trkpt>
      <trkpt lat="38.12162333" lon="-4.89547833">
        <ele>502.0</ele>
        <time>2018-10-06T10:38:23.000Z</time>
      </trkpt>
      <trkpt lat="38.12162333" lon="-4.89547833">
        <ele>502.0</ele>
        <time>2018-10-06T10:38:24.000Z</time>
      </trkpt>
      <trkpt lat="38.12162333" lon="-4.89547833">
        <ele>502.0</ele>
        <time>2018-10-06T10:38:25.000Z</time>
      </trkpt>
      <trkpt lat="38.12162333" lon="-4.89547833">
        <ele>502.0</ele>
        <time>2018-10-06T10:38:26.000Z</time>
      </trkpt>
      <trkpt lat="38.12162333" lon="-4.89547833">
        <ele>502.0</ele>
        <time>2018-10-06T10:38:27.000Z</time>
      </trkpt>
      <trkpt lat="38.12162333" lon="-4.89547833">
        <ele>502.0</ele>
        <time>2018-10-06T10:38:28.000Z</time>
      </trkpt>
      <trkpt lat="38.12162333" lon="-4.89547833">
        <ele>502.0</ele>
        <time>2018-10-06T10:38:29.000Z</time>
      </trkpt>
      <trkpt lat="38.12162333" lon="-4.89547833">
        <ele>502.0</ele>
        <time>2018-10-06T10:38:30.000Z</time>
      </trkpt>
      <trkpt lat="38.12162333" lon="-4.89547833">
        <ele>502.0</ele>
        <time>2018-10-06T10:38:31.000Z</time>
      </trkpt>
      <trkpt lat="38.12162333" lon="-4.89547833">
        <ele>502.0</ele>
        <time>2018-10-06T10:38:32.000Z</time>
      </trkpt>
      <trkpt lat="38.12162333" lon="-4.89547833">
        <ele>502.0</ele>
        <time>2018-10-06T10:38:33.000Z</time>
      </trkpt>
      <trkpt lat="38.12162333" lon="-4.89547833">
        <ele>502.0</ele>
        <time>2018-10-06T10:38:34.000Z</time>
      </trkpt>
      <trkpt lat="38.12162333" lon="-4.89547833">
        <ele>502.0</ele>
        <time>2018-10-06T10:38:35.000Z</time>
      </trkpt>
      <trkpt lat="38.12162333" lon="-4.89547833">
        <ele>502.0</ele>
        <time>2018-10-06T10:38:36.000Z</time>
      </trkpt>
      <trkpt lat="38.12162333" lon="-4.89547833">
        <ele>502.0</ele>
        <time>2018-10-06T10:38:37.000Z</time>
      </trkpt>
      <trkpt lat="38.121835" lon="-4.89540667">
        <ele>497.0</ele>
        <time>2018-10-06T10:38:38.000Z</time>
      </trkpt>
      <trkpt lat="38.12185" lon="-4.89539833">
        <ele>497.0</ele>
        <time>2018-10-06T10:38:39.000Z</time>
      </trkpt>
      <trkpt lat="38.12186167" lon="-4.89539167">
        <ele>498.0</ele>
        <time>2018-10-06T10:38:40.000Z</time>
      </trkpt>
      <trkpt lat="38.121875" lon="-4.89538667">
        <ele>499.0</ele>
        <time>2018-10-06T10:38:41.000Z</time>
      </trkpt>
      <trkpt lat="38.12188833" lon="-4.89538">
        <ele>500.0</ele>
        <time>2018-10-06T10:38:42.000Z</time>
      </trkpt>
      <trkpt lat="38.12190167" lon="-4.89537667">
        <ele>501.0</ele>
        <time>2018-10-06T10:38:43.000Z</time>
      </trkpt>
      <trkpt lat="38.12191667" lon="-4.89537167">
        <ele>502.0</ele>
        <time>2018-10-06T10:38:44.000Z</time>
      </trkpt>
      <trkpt lat="38.12193167" lon="-4.89536667">
        <ele>503.0</ele>
        <time>2018-10-06T10:38:45.000Z</time>
      </trkpt>
      <trkpt lat="38.12194667" lon="-4.89536333">
        <ele>503.0</ele>
        <time>2018-10-06T10:38:46.000Z</time>
      </trkpt>
      <trkpt lat="38.12196" lon="-4.89535833">
        <ele>504.0</ele>
        <time>2018-10-06T10:38:47.000Z</time>
      </trkpt>
      <trkpt lat="38.121975" lon="-4.89535333">
        <ele>505.0</ele>
        <time>2018-10-06T10:38:48.000Z</time>
      </trkpt>
      <trkpt lat="38.121985" lon="-4.89535">
        <ele>505.0</ele>
        <time>2018-10-06T10:38:49.000Z</time>
      </trkpt>
      <trkpt lat="38.121985" lon="-4.89535">
        <ele>505.0</ele>
        <time>2018-10-06T10:38:50.000Z</time>
      </trkpt>
      <trkpt lat="38.121985" lon="-4.89535">
        <ele>505.0</ele>
        <time>2018-10-06T10:38:51.000Z</time>
      </trkpt>
      <trkpt lat="38.121985" lon="-4.89535">
        <ele>505.0</ele>
        <time>2018-10-06T10:38:52.000Z</time>
      </trkpt>
      <trkpt lat="38.121985" lon="-4.89535">
        <ele>505.0</ele>
        <time>2018-10-06T10:38:53.000Z</time>
      </trkpt>
      <trkpt lat="38.121985" lon="-4.89535">
        <ele>505.0</ele>
        <time>2018-10-06T10:38:54.000Z</time>
      </trkpt>
      <trkpt lat="38.121985" lon="-4.89535">
        <ele>505.0</ele>
        <time>2018-10-06T10:38:55.000Z</time>
      </trkpt>
      <trkpt lat="38.121985" lon="-4.89535">
        <ele>505.0</ele>
        <time>2018-10-06T10:38:56.000Z</time>
      </trkpt>
      <trkpt lat="38.121985" lon="-4.89535">
        <ele>505.0</ele>
        <time>2018-10-06T10:38:57.000Z</time>
      </trkpt>
      <trkpt lat="38.121985" lon="-4.89535">
        <ele>505.0</ele>
        <time>2018-10-06T10:38:58.000Z</time>
      </trkpt>
      <trkpt lat="38.121985" lon="-4.89535">
        <ele>505.0</ele>
        <time>2018-10-06T10:38:59.000Z</time>
      </trkpt>
      <trkpt lat="38.121985" lon="-4.89535">
        <ele>505.0</ele>
        <time>2018-10-06T10:39:00.000Z</time>
      </trkpt>
      <trkpt lat="38.121985" lon="-4.89535">
        <ele>505.0</ele>
        <time>2018-10-06T10:39:01.000Z</time>
      </trkpt>
      <trkpt lat="38.121985" lon="-4.89535">
        <ele>505.0</ele>
        <time>2018-10-06T10:39:02.000Z</time>
      </trkpt>
      <trkpt lat="38.121985" lon="-4.89535">
        <ele>505.0</ele>
        <time>2018-10-06T10:39:03.000Z</time>
      </trkpt>
      <trkpt lat="38.121985" lon="-4.89535">
        <ele>505.0</ele>
        <time>2018-10-06T10:39:04.000Z</time>
      </trkpt>
      <trkpt lat="38.121985" lon="-4.89535">
        <ele>505.0</ele>
        <time>2018-10-06T10:39:05.000Z</time>
      </trkpt>
      <trkpt lat="38.121985" lon="-4.89535">
        <ele>505.0</ele>
        <time>2018-10-06T10:39:06.000Z</time>
      </trkpt>
      <trkpt lat="38.121985" lon="-4.89535">
        <ele>505.0</ele>
        <time>2018-10-06T10:39:07.000Z</time>
      </trkpt>
      <trkpt lat="38.121985" lon="-4.89535">
        <ele>505.0</ele>
        <time>2018-10-06T10:39:08.000Z</time>
      </trkpt>
      <trkpt lat="38.121985" lon="-4.89535">
        <ele>505.0</ele>
        <time>2018-10-06T10:39:09.000Z</time>
      </trkpt>
      <trkpt lat="38.121985" lon="-4.89535">
        <ele>505.0</ele>
        <time>2018-10-06T10:39:10.000Z</time>
      </trkpt>
      <trkpt lat="38.121985" lon="-4.89535">
        <ele>505.0</ele>
        <time>2018-10-06T10:39:11.000Z</time>
      </trkpt>
      <trkpt lat="38.121985" lon="-4.89535">
        <ele>505.0</ele>
        <time>2018-10-06T10:39:12.000Z</time>
      </trkpt>
      <trkpt lat="38.121985" lon="-4.89535">
        <ele>505.0</ele>
        <time>2018-10-06T10:39:13.000Z</time>
      </trkpt>
      <trkpt lat="38.121985" lon="-4.89535">
        <ele>505.0</ele>
        <time>2018-10-06T10:39:14.000Z</time>
      </trkpt>
      <trkpt lat="38.121985" lon="-4.89535">
        <ele>505.0</ele>
        <time>2018-10-06T10:39:15.000Z</time>
      </trkpt>
      <trkpt lat="38.121985" lon="-4.89535">
        <ele>505.0</ele>
        <time>2018-10-06T10:39:16.000Z</time>
      </trkpt>
      <trkpt lat="38.121985" lon="-4.89535">
        <ele>505.0</ele>
        <time>2018-10-06T10:39:17.000Z</time>
      </trkpt>
      <trkpt lat="38.121985" lon="-4.89535">
        <ele>505.0</ele>
        <time>2018-10-06T10:39:18.000Z</time>
      </trkpt>
      <trkpt lat="38.121985" lon="-4.89535">
        <ele>505.0</ele>
        <time>2018-10-06T10:39:19.000Z</time>
      </trkpt>
      <trkpt lat="38.121985" lon="-4.89535">
        <ele>505.0</ele>
        <time>2018-10-06T10:39:20.000Z</time>
      </trkpt>
      <trkpt lat="38.121985" lon="-4.89535">
        <ele>505.0</ele>
        <time>2018-10-06T10:39:21.000Z</time>
      </trkpt>
      <trkpt lat="38.121985" lon="-4.89535">
        <ele>505.0</ele>
        <time>2018-10-06T10:39:22.000Z</time>
      </trkpt>
      <trkpt lat="38.121985" lon="-4.89535">
        <ele>505.0</ele>
        <time>2018-10-06T10:39:23.000Z</time>
      </trkpt>
      <trkpt lat="38.121985" lon="-4.89535">
        <ele>505.0</ele>
        <time>2018-10-06T10:39:24.000Z</time>
      </trkpt>
      <trkpt lat="38.121985" lon="-4.89535">
        <ele>505.0</ele>
        <time>2018-10-06T10:39:25.000Z</time>
      </trkpt>
      <trkpt lat="38.121985" lon="-4.89535">
        <ele>505.0</ele>
        <time>2018-10-06T10:39:26.000Z</time>
      </trkpt>
      <trkpt lat="38.121985" lon="-4.89535">
        <ele>505.0</ele>
        <time>2018-10-06T10:39:27.000Z</time>
      </trkpt>
      <trkpt lat="38.121985" lon="-4.89535">
        <ele>505.0</ele>
        <time>2018-10-06T10:39:28.000Z</time>
      </trkpt>
      <trkpt lat="38.121985" lon="-4.89535">
        <ele>505.0</ele>
        <time>2018-10-06T10:39:29.000Z</time>
      </trkpt>
      <trkpt lat="38.121985" lon="-4.89535">
        <ele>505.0</ele>
        <time>2018-10-06T10:39:30.000Z</time>
      </trkpt>
      <trkpt lat="38.121985" lon="-4.89535">
        <ele>505.0</ele>
        <time>2018-10-06T10:39:31.000Z</time>
      </trkpt>
      <trkpt lat="38.121985" lon="-4.89535">
        <ele>505.0</ele>
        <time>2018-10-06T10:39:32.000Z</time>
      </trkpt>
      <trkpt lat="38.121985" lon="-4.89535">
        <ele>505.0</ele>
        <time>2018-10-06T10:39:33.000Z</time>
      </trkpt>
      <trkpt lat="38.121985" lon="-4.89535">
        <ele>505.0</ele>
        <time>2018-10-06T10:39:34.000Z</time>
      </trkpt>
      <trkpt lat="38.121985" lon="-4.89535">
        <ele>505.0</ele>
        <time>2018-10-06T10:39:35.000Z</time>
      </trkpt>
      <trkpt lat="38.121985" lon="-4.89535">
        <ele>505.0</ele>
        <time>2018-10-06T10:39:36.000Z</time>
      </trkpt>
      <trkpt lat="38.12226" lon="-4.895415">
        <ele>505.0</ele>
        <time>2018-10-06T10:39:37.000Z</time>
      </trkpt>
      <trkpt lat="38.12228667" lon="-4.89542167">
        <ele>504.0</ele>
        <time>2018-10-06T10:39:38.000Z</time>
      </trkpt>
      <trkpt lat="38.12231167" lon="-4.89542667">
        <ele>504.0</ele>
        <time>2018-10-06T10:39:39.000Z</time>
      </trkpt>
      <trkpt lat="38.122335" lon="-4.89543333">
        <ele>504.0</ele>
        <time>2018-10-06T10:39:40.000Z</time>
      </trkpt>
      <trkpt lat="38.12235833" lon="-4.89543667">
        <ele>504.0</ele>
        <time>2018-10-06T10:39:41.000Z</time>
      </trkpt>
      <trkpt lat="38.12237833" lon="-4.89544">
        <ele>504.0</ele>
        <time>2018-10-06T10:39:42.000Z</time>
      </trkpt>
      <trkpt lat="38.122395" lon="-4.895445">
        <ele>505.0</ele>
        <time>2018-10-06T10:39:43.000Z</time>
      </trkpt>
      <trkpt lat="38.12241167" lon="-4.89545">
        <ele>505.0</ele>
        <time>2018-10-06T10:39:44.000Z</time>
      </trkpt>
      <trkpt lat="38.12242833" lon="-4.89545">
        <ele>505.0</ele>
        <time>2018-10-06T10:39:45.000Z</time>
      </trkpt>
      <trkpt lat="38.12244333" lon="-4.89545333">
        <ele>505.0</ele>
        <time>2018-10-06T10:39:46.000Z</time>
      </trkpt>
      <trkpt lat="38.12245833" lon="-4.89545667">
        <ele>505.0</ele>
        <time>2018-10-06T10:39:47.000Z</time>
      </trkpt>
      <trkpt lat="38.12247167" lon="-4.89545667">
        <ele>505.0</ele>
        <time>2018-10-06T10:39:48.000Z</time>
      </trkpt>
      <trkpt lat="38.12247167" lon="-4.89545667">
        <ele>505.0</ele>
        <time>2018-10-06T10:39:49.000Z</time>
      </trkpt>
      <trkpt lat="38.12247167" lon="-4.89545667">
        <ele>505.0</ele>
        <time>2018-10-06T10:39:50.000Z</time>
      </trkpt>
      <trkpt lat="38.12247167" lon="-4.89545667">
        <ele>505.0</ele>
        <time>2018-10-06T10:39:51.000Z</time>
      </trkpt>
      <trkpt lat="38.12247167" lon="-4.89545667">
        <ele>505.0</ele>
        <time>2018-10-06T10:39:52.000Z</time>
      </trkpt>
      <trkpt lat="38.12247167" lon="-4.89545667">
        <ele>505.0</ele>
        <time>2018-10-06T10:39:53.000Z</time>
      </trkpt>
      <trkpt lat="38.12247167" lon="-4.89545667">
        <ele>505.0</ele>
        <time>2018-10-06T10:39:54.000Z</time>
      </trkpt>
      <trkpt lat="38.12247167" lon="-4.89545667">
        <ele>505.0</ele>
        <time>2018-10-06T10:39:55.000Z</time>
      </trkpt>
      <trkpt lat="38.12247167" lon="-4.89545667">
        <ele>505.0</ele>
        <time>2018-10-06T10:39:56.000Z</time>
      </trkpt>
      <trkpt lat="38.12247167" lon="-4.89545667">
        <ele>505.0</ele>
        <time>2018-10-06T10:39:57.000Z</time>
      </trkpt>
      <trkpt lat="38.12247167" lon="-4.89545667">
        <ele>505.0</ele>
        <time>2018-10-06T10:39:58.000Z</time>
      </trkpt>
      <trkpt lat="38.12247167" lon="-4.89545667">
        <ele>505.0</ele>
        <time>2018-10-06T10:39:59.000Z</time>
      </trkpt>
      <trkpt lat="38.12247167" lon="-4.89545667">
        <ele>505.0</ele>
        <time>2018-10-06T10:40:00.000Z</time>
      </trkpt>
      <trkpt lat="38.12247167" lon="-4.89545667">
        <ele>505.0</ele>
        <time>2018-10-06T10:40:01.000Z</time>
      </trkpt>
      <trkpt lat="38.12247167" lon="-4.89545667">
        <ele>505.0</ele>
        <time>2018-10-06T10:40:02.000Z</time>
      </trkpt>
      <trkpt lat="38.12247167" lon="-4.89545667">
        <ele>505.0</ele>
        <time>2018-10-06T10:40:03.000Z</time>
      </trkpt>
      <trkpt lat="38.12247167" lon="-4.89545667">
        <ele>505.0</ele>
        <time>2018-10-06T10:40:04.000Z</time>
      </trkpt>
      <trkpt lat="38.12247167" lon="-4.89545667">
        <ele>505.0</ele>
        <time>2018-10-06T10:40:05.000Z</time>
      </trkpt>
      <trkpt lat="38.12247167" lon="-4.89545667">
        <ele>505.0</ele>
        <time>2018-10-06T10:40:06.000Z</time>
      </trkpt>
      <trkpt lat="38.12247167" lon="-4.89545667">
        <ele>505.0</ele>
        <time>2018-10-06T10:40:07.000Z</time>
      </trkpt>
      <trkpt lat="38.12247167" lon="-4.89545667">
        <ele>505.0</ele>
        <time>2018-10-06T10:40:08.000Z</time>
      </trkpt>
      <trkpt lat="38.12247167" lon="-4.89545667">
        <ele>505.0</ele>
        <time>2018-10-06T10:40:09.000Z</time>
      </trkpt>
      <trkpt lat="38.12247167" lon="-4.89545667">
        <ele>505.0</ele>
        <time>2018-10-06T10:40:10.000Z</time>
      </trkpt>
      <trkpt lat="38.12247167" lon="-4.89545667">
        <ele>505.0</ele>
        <time>2018-10-06T10:40:11.000Z</time>
      </trkpt>
      <trkpt lat="38.12247167" lon="-4.89545667">
        <ele>505.0</ele>
        <time>2018-10-06T10:40:12.000Z</time>
      </trkpt>
      <trkpt lat="38.12247167" lon="-4.89545667">
        <ele>505.0</ele>
        <time>2018-10-06T10:40:13.000Z</time>
      </trkpt>
      <trkpt lat="38.12247167" lon="-4.89545667">
        <ele>505.0</ele>
        <time>2018-10-06T10:40:14.000Z</time>
      </trkpt>
      <trkpt lat="38.12247167" lon="-4.89545667">
        <ele>505.0</ele>
        <time>2018-10-06T10:40:15.000Z</time>
      </trkpt>
      <trkpt lat="38.12247167" lon="-4.89545667">
        <ele>505.0</ele>
        <time>2018-10-06T10:40:16.000Z</time>
      </trkpt>
      <trkpt lat="38.12247167" lon="-4.89545667">
        <ele>505.0</ele>
        <time>2018-10-06T10:40:17.000Z</time>
      </trkpt>
      <trkpt lat="38.12247167" lon="-4.89545667">
        <ele>505.0</ele>
        <time>2018-10-06T10:40:18.000Z</time>
      </trkpt>
      <trkpt lat="38.12247167" lon="-4.89545667">
        <ele>505.0</ele>
        <time>2018-10-06T10:40:19.000Z</time>
      </trkpt>
      <trkpt lat="38.12247167" lon="-4.89545667">
        <ele>505.0</ele>
        <time>2018-10-06T10:40:20.000Z</time>
      </trkpt>
      <trkpt lat="38.12247167" lon="-4.89545667">
        <ele>505.0</ele>
        <time>2018-10-06T10:40:21.000Z</time>
      </trkpt>
      <trkpt lat="38.12247167" lon="-4.89545667">
        <ele>505.0</ele>
        <time>2018-10-06T10:40:22.000Z</time>
      </trkpt>
      <trkpt lat="38.12247167" lon="-4.89545667">
        <ele>505.0</ele>
        <time>2018-10-06T10:40:23.000Z</time>
      </trkpt>
      <trkpt lat="38.12247167" lon="-4.89545667">
        <ele>505.0</ele>
        <time>2018-10-06T10:40:24.000Z</time>
      </trkpt>
      <trkpt lat="38.12247167" lon="-4.89545667">
        <ele>505.0</ele>
        <time>2018-10-06T10:40:25.000Z</time>
      </trkpt>
      <trkpt lat="38.12247167" lon="-4.89545667">
        <ele>505.0</ele>
        <time>2018-10-06T10:40:26.000Z</time>
      </trkpt>
      <trkpt lat="38.12247167" lon="-4.89545667">
        <ele>505.0</ele>
        <time>2018-10-06T10:40:27.000Z</time>
      </trkpt>
      <trkpt lat="38.12247167" lon="-4.89545667">
        <ele>505.0</ele>
        <time>2018-10-06T10:40:28.000Z</time>
      </trkpt>
      <trkpt lat="38.12247167" lon="-4.89545667">
        <ele>505.0</ele>
        <time>2018-10-06T10:40:29.000Z</time>
      </trkpt>
      <trkpt lat="38.12247167" lon="-4.89545667">
        <ele>505.0</ele>
        <time>2018-10-06T10:40:30.000Z</time>
      </trkpt>
      <trkpt lat="38.12247167" lon="-4.89545667">
        <ele>505.0</ele>
        <time>2018-10-06T10:40:31.000Z</time>
      </trkpt>
      <trkpt lat="38.12247167" lon="-4.89545667">
        <ele>505.0</ele>
        <time>2018-10-06T10:40:32.000Z</time>
      </trkpt>
      <trkpt lat="38.12247167" lon="-4.89545667">
        <ele>505.0</ele>
        <time>2018-10-06T10:40:33.000Z</time>
      </trkpt>
      <trkpt lat="38.12247167" lon="-4.89545667">
        <ele>505.0</ele>
        <time>2018-10-06T10:40:34.000Z</time>
      </trkpt>
      <trkpt lat="38.12247167" lon="-4.89545667">
        <ele>505.0</ele>
        <time>2018-10-06T10:40:35.000Z</time>
      </trkpt>
      <trkpt lat="38.12247167" lon="-4.89545667">
        <ele>505.0</ele>
        <time>2018-10-06T10:40:36.000Z</time>
      </trkpt>
      <trkpt lat="38.1226" lon="-4.895545">
        <ele>499.0</ele>
        <time>2018-10-06T10:40:37.000Z</time>
      </trkpt>
      <trkpt lat="38.12261833" lon="-4.89554667">
        <ele>499.0</ele>
        <time>2018-10-06T10:40:38.000Z</time>
      </trkpt>
      <trkpt lat="38.122635" lon="-4.89554833">
        <ele>500.0</ele>
        <time>2018-10-06T10:40:39.000Z</time>
      </trkpt>
      <trkpt lat="38.12265333" lon="-4.89554833">
        <ele>500.0</ele>
        <time>2018-10-06T10:40:40.000Z</time>
      </trkpt>
      <trkpt lat="38.12267" lon="-4.89554333">
        <ele>500.0</ele>
        <time>2018-10-06T10:40:41.000Z</time>
      </trkpt>
      <trkpt lat="38.12268" lon="-4.89553833">
        <ele>501.0</ele>
        <time>2018-10-06T10:40:42.000Z</time>
      </trkpt>
      <trkpt lat="38.12268833" lon="-4.89553833">
        <ele>501.0</ele>
        <time>2018-10-06T10:40:43.000Z</time>
      </trkpt>
      <trkpt lat="38.12269667" lon="-4.89553833">
        <ele>501.0</ele>
        <time>2018-10-06T10:40:44.000Z</time>
      </trkpt>
      <trkpt lat="38.12270333" lon="-4.89553833">
        <ele>502.0</ele>
        <time>2018-10-06T10:40:45.000Z</time>
      </trkpt>
      <trkpt lat="38.12271" lon="-4.89553833">
        <ele>502.0</ele>
        <time>2018-10-06T10:40:46.000Z</time>
      </trkpt>
      <trkpt lat="38.12271667" lon="-4.89553667">
        <ele>502.0</ele>
        <time>2018-10-06T10:40:47.000Z</time>
      </trkpt>
      <trkpt lat="38.12272167" lon="-4.89553667">
        <ele>502.0</ele>
        <time>2018-10-06T10:40:48.000Z</time>
      </trkpt>
      <trkpt lat="38.12272167" lon="-4.89553667">
        <ele>502.0</ele>
        <time>2018-10-06T10:40:49.000Z</time>
      </trkpt>
      <trkpt lat="38.12272167" lon="-4.89553667">
        <ele>502.0</ele>
        <time>2018-10-06T10:40:50.000Z</time>
      </trkpt>
      <trkpt lat="38.12272167" lon="-4.89553667">
        <ele>502.0</ele>
        <time>2018-10-06T10:40:51.000Z</time>
      </trkpt>
      <trkpt lat="38.12272167" lon="-4.89553667">
        <ele>502.0</ele>
        <time>2018-10-06T10:40:52.000Z</time>
      </trkpt>
      <trkpt lat="38.12272167" lon="-4.89553667">
        <ele>502.0</ele>
        <time>2018-10-06T10:40:53.000Z</time>
      </trkpt>
      <trkpt lat="38.12272167" lon="-4.89553667">
        <ele>502.0</ele>
        <time>2018-10-06T10:40:54.000Z</time>
      </trkpt>
      <trkpt lat="38.12272167" lon="-4.89553667">
        <ele>502.0</ele>
        <time>2018-10-06T10:40:55.000Z</time>
      </trkpt>
      <trkpt lat="38.12272167" lon="-4.89553667">
        <ele>502.0</ele>
        <time>2018-10-06T10:40:56.000Z</time>
      </trkpt>
      <trkpt lat="38.12272167" lon="-4.89553667">
        <ele>502.0</ele>
        <time>2018-10-06T10:40:57.000Z</time>
      </trkpt>
      <trkpt lat="38.12272167" lon="-4.89553667">
        <ele>502.0</ele>
        <time>2018-10-06T10:40:58.000Z</time>
      </trkpt>
      <trkpt lat="38.12272167" lon="-4.89553667">
        <ele>502.0</ele>
        <time>2018-10-06T10:40:59.000Z</time>
      </trkpt>
      <trkpt lat="38.12272167" lon="-4.89553667">
        <ele>502.0</ele>
        <time>2018-10-06T10:41:00.000Z</time>
      </trkpt>
      <trkpt lat="38.12272167" lon="-4.89553667">
        <ele>502.0</ele>
        <time>2018-10-06T10:41:01.000Z</time>
      </trkpt>
      <trkpt lat="38.12272167" lon="-4.89553667">
        <ele>502.0</ele>
        <time>2018-10-06T10:41:02.000Z</time>
      </trkpt>
      <trkpt lat="38.12272167" lon="-4.89553667">
        <ele>502.0</ele>
        <time>2018-10-06T10:41:03.000Z</time>
      </trkpt>
      <trkpt lat="38.12272167" lon="-4.89553667">
        <ele>502.0</ele>
        <time>2018-10-06T10:41:04.000Z</time>
      </trkpt>
      <trkpt lat="38.12272167" lon="-4.89553667">
        <ele>502.0</ele>
        <time>2018-10-06T10:41:05.000Z</time>
      </trkpt>
      <trkpt lat="38.12272167" lon="-4.89553667">
        <ele>502.0</ele>
        <time>2018-10-06T10:41:06.000Z</time>
      </trkpt>
      <trkpt lat="38.12272167" lon="-4.89553667">
        <ele>502.0</ele>
        <time>2018-10-06T10:41:07.000Z</time>
      </trkpt>
      <trkpt lat="38.12272167" lon="-4.89553667">
        <ele>502.0</ele>
        <time>2018-10-06T10:41:08.000Z</time>
      </trkpt>
      <trkpt lat="38.12272167" lon="-4.89553667">
        <ele>502.0</ele>
        <time>2018-10-06T10:41:09.000Z</time>
      </trkpt>
      <trkpt lat="38.12272167" lon="-4.89553667">
        <ele>502.0</ele>
        <time>2018-10-06T10:41:10.000Z</time>
      </trkpt>
      <trkpt lat="38.12272167" lon="-4.89553667">
        <ele>502.0</ele>
        <time>2018-10-06T10:41:11.000Z</time>
      </trkpt>
      <trkpt lat="38.12272167" lon="-4.89553667">
        <ele>502.0</ele>
        <time>2018-10-06T10:41:12.000Z</time>
      </trkpt>
      <trkpt lat="38.12272167" lon="-4.89553667">
        <ele>502.0</ele>
        <time>2018-10-06T10:41:13.000Z</time>
      </trkpt>
      <trkpt lat="38.12272167" lon="-4.89553667">
        <ele>502.0</ele>
        <time>2018-10-06T10:41:14.000Z</time>
      </trkpt>
      <trkpt lat="38.12272167" lon="-4.89553667">
        <ele>502.0</ele>
        <time>2018-10-06T10:41:15.000Z</time>
      </trkpt>
      <trkpt lat="38.12272167" lon="-4.89553667">
        <ele>502.0</ele>
        <time>2018-10-06T10:41:16.000Z</time>
      </trkpt>
      <trkpt lat="38.12272167" lon="-4.89553667">
        <ele>502.0</ele>
        <time>2018-10-06T10:41:17.000Z</time>
      </trkpt>
      <trkpt lat="38.12272167" lon="-4.89553667">
        <ele>502.0</ele>
        <time>2018-10-06T10:41:18.000Z</time>
      </trkpt>
      <trkpt lat="38.12272167" lon="-4.89553667">
        <ele>502.0</ele>
        <time>2018-10-06T10:41:19.000Z</time>
      </trkpt>
      <trkpt lat="38.12272167" lon="-4.89553667">
        <ele>502.0</ele>
        <time>2018-10-06T10:41:20.000Z</time>
      </trkpt>
      <trkpt lat="38.12272167" lon="-4.89553667">
        <ele>502.0</ele>
        <time>2018-10-06T10:41:21.000Z</time>
      </trkpt>
      <trkpt lat="38.12272167" lon="-4.89553667">
        <ele>502.0</ele>
        <time>2018-10-06T10:41:22.000Z</time>
      </trkpt>
      <trkpt lat="38.12272167" lon="-4.89553667">
        <ele>502.0</ele>
        <time>2018-10-06T10:41:23.000Z</time>
      </trkpt>
      <trkpt lat="38.12272167" lon="-4.89553667">
        <ele>502.0</ele>
        <time>2018-10-06T10:41:24.000Z</time>
      </trkpt>
      <trkpt lat="38.12272167" lon="-4.89553667">
        <ele>502.0</ele>
        <time>2018-10-06T10:41:25.000Z</time>
      </trkpt>
      <trkpt lat="38.12272167" lon="-4.89553667">
        <ele>502.0</ele>
        <time>2018-10-06T10:41:26.000Z</time>
      </trkpt>
      <trkpt lat="38.12272167" lon="-4.89553667">
        <ele>502.0</ele>
        <time>2018-10-06T10:41:27.000Z</time>
      </trkpt>
      <trkpt lat="38.12272167" lon="-4.89553667">
        <ele>502.0</ele>
        <time>2018-10-06T10:41:28.000Z</time>
      </trkpt>
      <trkpt lat="38.12272167" lon="-4.89553667">
        <ele>502.0</ele>
        <time>2018-10-06T10:41:29.000Z</time>
      </trkpt>
      <trkpt lat="38.12272167" lon="-4.89553667">
        <ele>502.0</ele>
        <time>2018-10-06T10:41:30.000Z</time>
      </trkpt>
      <trkpt lat="38.12272167" lon="-4.89553667">
        <ele>502.0</ele>
        <time>2018-10-06T10:41:31.000Z</time>
      </trkpt>
      <trkpt lat="38.12272167" lon="-4.89553667">
        <ele>502.0</ele>
        <time>2018-10-06T10:41:32.000Z</time>
      </trkpt>
      <trkpt lat="38.12272167" lon="-4.89553667">
        <ele>502.0</ele>
        <time>2018-10-06T10:41:33.000Z</time>
      </trkpt>
      <trkpt lat="38.12272167" lon="-4.89553667">
        <ele>502.0</ele>
        <time>2018-10-06T10:41:34.000Z</time>
      </trkpt>
      <trkpt lat="38.12272167" lon="-4.89553667">
        <ele>502.0</ele>
        <time>2018-10-06T10:41:35.000Z</time>
      </trkpt>
      <trkpt lat="38.12272167" lon="-4.89553667">
        <ele>502.0</ele>
        <time>2018-10-06T10:41:36.000Z</time>
      </trkpt>
      <trkpt lat="38.122745" lon="-4.89554833">
        <ele>497.0</ele>
        <time>2018-10-06T10:41:37.000Z</time>
      </trkpt>
      <trkpt lat="38.122745" lon="-4.89554833">
        <ele>497.0</ele>
        <time>2018-10-06T10:41:38.000Z</time>
      </trkpt>
      <trkpt lat="38.12274667" lon="-4.89554167">
        <ele>498.0</ele>
        <time>2018-10-06T10:41:39.000Z</time>
      </trkpt>
      <trkpt lat="38.12275" lon="-4.89553667">
        <ele>498.0</ele>
        <time>2018-10-06T10:41:40.000Z</time>
      </trkpt>
      <trkpt lat="38.122755" lon="-4.89553333">
        <ele>499.0</ele>
        <time>2018-10-06T10:41:41.000Z</time>
      </trkpt>
      <trkpt lat="38.12276" lon="-4.89553667">
        <ele>499.0</ele>
        <time>2018-10-06T10:41:42.000Z</time>
      </trkpt>
      <trkpt lat="38.12276667" lon="-4.89553167">
        <ele>500.0</ele>
        <time>2018-10-06T10:41:43.000Z</time>
      </trkpt>
      <trkpt lat="38.12277" lon="-4.89552833">
        <ele>500.0</ele>
        <time>2018-10-06T10:41:44.000Z</time>
      </trkpt>
      <trkpt lat="38.12277167" lon="-4.89552667">
        <ele>501.0</ele>
        <time>2018-10-06T10:41:45.000Z</time>
      </trkpt>
      <trkpt lat="38.12277333" lon="-4.895525">
        <ele>501.0</ele>
        <time>2018-10-06T10:41:46.000Z</time>
      </trkpt>
      <trkpt lat="38.12277667" lon="-4.89552667">
        <ele>501.0</ele>
        <time>2018-10-06T10:41:47.000Z</time>
      </trkpt>
      <trkpt lat="38.12277833" lon="-4.89553">
        <ele>502.0</ele>
        <time>2018-10-06T10:41:48.000Z</time>
      </trkpt>
      <trkpt lat="38.12277833" lon="-4.89553">
        <ele>502.0</ele>
        <time>2018-10-06T10:41:49.000Z</time>
      </trkpt>
      <trkpt lat="38.12277833" lon="-4.89553">
        <ele>502.0</ele>
        <time>2018-10-06T10:41:50.000Z</time>
      </trkpt>
      <trkpt lat="38.12277833" lon="-4.89553">
        <ele>502.0</ele>
        <time>2018-10-06T10:41:51.000Z</time>
      </trkpt>
      <trkpt lat="38.12277833" lon="-4.89553">
        <ele>502.0</ele>
        <time>2018-10-06T10:41:52.000Z</time>
      </trkpt>
      <trkpt lat="38.12277833" lon="-4.89553">
        <ele>502.0</ele>
        <time>2018-10-06T10:41:53.000Z</time>
      </trkpt>
      <trkpt lat="38.12277833" lon="-4.89553">
        <ele>502.0</ele>
        <time>2018-10-06T10:41:54.000Z</time>
      </trkpt>
      <trkpt lat="38.12277833" lon="-4.89553">
        <ele>502.0</ele>
        <time>2018-10-06T10:41:55.000Z</time>
      </trkpt>
      <trkpt lat="38.12277833" lon="-4.89553">
        <ele>502.0</ele>
        <time>2018-10-06T10:41:56.000Z</time>
      </trkpt>
      <trkpt lat="38.12277833" lon="-4.89553">
        <ele>502.0</ele>
        <time>2018-10-06T10:41:57.000Z</time>
      </trkpt>
      <trkpt lat="38.12277833" lon="-4.89553">
        <ele>502.0</ele>
        <time>2018-10-06T10:41:58.000Z</time>
      </trkpt>
      <trkpt lat="38.12277833" lon="-4.89553">
        <ele>502.0</ele>
        <time>2018-10-06T10:41:59.000Z</time>
      </trkpt>
      <trkpt lat="38.12277833" lon="-4.89553">
        <ele>502.0</ele>
        <time>2018-10-06T10:42:00.000Z</time>
      </trkpt>
      <trkpt lat="38.12277833" lon="-4.89553">
        <ele>502.0</ele>
        <time>2018-10-06T10:42:01.000Z</time>
      </trkpt>
      <trkpt lat="38.12277833" lon="-4.89553">
        <ele>502.0</ele>
        <time>2018-10-06T10:42:02.000Z</time>
      </trkpt>
      <trkpt lat="38.12277833" lon="-4.89553">
        <ele>502.0</ele>
        <time>2018-10-06T10:42:03.000Z</time>
      </trkpt>
      <trkpt lat="38.12277833" lon="-4.89553">
        <ele>502.0</ele>
        <time>2018-10-06T10:42:04.000Z</time>
      </trkpt>
      <trkpt lat="38.12277833" lon="-4.89553">
        <ele>502.0</ele>
        <time>2018-10-06T10:42:05.000Z</time>
      </trkpt>
      <trkpt lat="38.12277833" lon="-4.89553">
        <ele>502.0</ele>
        <time>2018-10-06T10:42:06.000Z</time>
      </trkpt>
      <trkpt lat="38.12277833" lon="-4.89553">
        <ele>502.0</ele>
        <time>2018-10-06T10:42:07.000Z</time>
      </trkpt>
      <trkpt lat="38.12277833" lon="-4.89553">
        <ele>502.0</ele>
        <time>2018-10-06T10:42:08.000Z</time>
      </trkpt>
      <trkpt lat="38.12277833" lon="-4.89553">
        <ele>502.0</ele>
        <time>2018-10-06T10:42:09.000Z</time>
      </trkpt>
      <trkpt lat="38.12277833" lon="-4.89553">
        <ele>502.0</ele>
        <time>2018-10-06T10:42:10.000Z</time>
      </trkpt>
      <trkpt lat="38.12277833" lon="-4.89553">
        <ele>502.0</ele>
        <time>2018-10-06T10:42:11.000Z</time>
      </trkpt>
      <trkpt lat="38.12277833" lon="-4.89553">
        <ele>502.0</ele>
        <time>2018-10-06T10:42:12.000Z</time>
      </trkpt>
      <trkpt lat="38.12277833" lon="-4.89553">
        <ele>502.0</ele>
        <time>2018-10-06T10:42:13.000Z</time>
      </trkpt>
      <trkpt lat="38.12277833" lon="-4.89553">
        <ele>502.0</ele>
        <time>2018-10-06T10:42:14.000Z</time>
      </trkpt>
      <trkpt lat="38.12277833" lon="-4.89553">
        <ele>502.0</ele>
        <time>2018-10-06T10:42:15.000Z</time>
      </trkpt>
      <trkpt lat="38.12277833" lon="-4.89553">
        <ele>502.0</ele>
        <time>2018-10-06T10:42:16.000Z</time>
      </trkpt>
      <trkpt lat="38.12277833" lon="-4.89553">
        <ele>502.0</ele>
        <time>2018-10-06T10:42:17.000Z</time>
      </trkpt>
      <trkpt lat="38.12277833" lon="-4.89553">
        <ele>502.0</ele>
        <time>2018-10-06T10:42:18.000Z</time>
      </trkpt>
      <trkpt lat="38.12277833" lon="-4.89553">
        <ele>502.0</ele>
        <time>2018-10-06T10:42:19.000Z</time>
      </trkpt>
      <trkpt lat="38.12277833" lon="-4.89553">
        <ele>502.0</ele>
        <time>2018-10-06T10:42:20.000Z</time>
      </trkpt>
      <trkpt lat="38.12277833" lon="-4.89553">
        <ele>502.0</ele>
        <time>2018-10-06T10:42:21.000Z</time>
      </trkpt>
      <trkpt lat="38.12277833" lon="-4.89553">
        <ele>502.0</ele>
        <time>2018-10-06T10:42:22.000Z</time>
      </trkpt>
      <trkpt lat="38.12277833" lon="-4.89553">
        <ele>502.0</ele>
        <time>2018-10-06T10:42:23.000Z</time>
      </trkpt>
      <trkpt lat="38.12277833" lon="-4.89553">
        <ele>502.0</ele>
        <time>2018-10-06T10:42:24.000Z</time>
      </trkpt>
      <trkpt lat="38.12277833" lon="-4.89553">
        <ele>502.0</ele>
        <time>2018-10-06T10:42:25.000Z</time>
      </trkpt>
      <trkpt lat="38.12277833" lon="-4.89553">
        <ele>502.0</ele>
        <time>2018-10-06T10:42:26.000Z</time>
      </trkpt>
      <trkpt lat="38.12277833" lon="-4.89553">
        <ele>502.0</ele>
        <time>2018-10-06T10:42:27.000Z</time>
      </trkpt>
      <trkpt lat="38.12277833" lon="-4.89553">
        <ele>502.0</ele>
        <time>2018-10-06T10:42:28.000Z</time>
      </trkpt>
      <trkpt lat="38.12277833" lon="-4.89553">
        <ele>502.0</ele>
        <time>2018-10-06T10:42:29.000Z</time>
      </trkpt>
      <trkpt lat="38.12277833" lon="-4.89553">
        <ele>502.0</ele>
        <time>2018-10-06T10:42:30.000Z</time>
      </trkpt>
      <trkpt lat="38.12277833" lon="-4.89553">
        <ele>502.0</ele>
        <time>2018-10-06T10:42:31.000Z</time>
      </trkpt>
      <trkpt lat="38.12277833" lon="-4.89553">
        <ele>502.0</ele>
        <time>2018-10-06T10:42:32.000Z</time>
      </trkpt>
      <trkpt lat="38.12277833" lon="-4.89553">
        <ele>502.0</ele>
        <time>2018-10-06T10:42:33.000Z</time>
      </trkpt>
      <trkpt lat="38.12277833" lon="-4.89553">
        <ele>502.0</ele>
        <time>2018-10-06T10:42:34.000Z</time>
      </trkpt>
      <trkpt lat="38.12277833" lon="-4.89553">
        <ele>502.0</ele>
        <time>2018-10-06T10:42:35.000Z</time>
      </trkpt>
      <trkpt lat="38.12277833" lon="-4.89553">
        <ele>502.0</ele>
        <time>2018-10-06T10:42:36.000Z</time>
      </trkpt>
      <trkpt lat="38.12281167" lon="-4.895645">
        <ele>495.0</ele>
        <time>2018-10-06T10:42:37.000Z</time>
      </trkpt>
      <trkpt lat="38.12308167" lon="-4.89565333">
        <ele>499.0</ele>
        <time>2018-10-06T10:42:38.000Z</time>
      </trkpt>
      <trkpt lat="38.12308667" lon="-4.89565167">
        <ele>499.0</ele>
        <time>2018-10-06T10:42:39.000Z</time>
      </trkpt>
      <trkpt lat="38.12308833" lon="-4.89565167">
        <ele>499.0</ele>
        <time>2018-10-06T10:42:40.000Z</time>
      </trkpt>
      <trkpt lat="38.12309167" lon="-4.89565333">
        <ele>499.0</ele>
        <time>2018-10-06T10:42:41.000Z</time>
      </trkpt>
      <trkpt lat="38.12309333" lon="-4.89565167">
        <ele>499.0</ele>
        <time>2018-10-06T10:42:42.000Z</time>
      </trkpt>
      <trkpt lat="38.12309833" lon="-4.89565167">
        <ele>500.0</ele>
        <time>2018-10-06T10:42:43.000Z</time>
      </trkpt>
      <trkpt lat="38.12310667" lon="-4.89565167">
        <ele>500.0</ele>
        <time>2018-10-06T10:42:44.000Z</time>
      </trkpt>
      <trkpt lat="38.123115" lon="-4.89565">
        <ele>501.0</ele>
        <time>2018-10-06T10:42:45.000Z</time>
      </trkpt>
      <trkpt lat="38.12311667" lon="-4.89564833">
        <ele>501.0</ele>
        <time>2018-10-06T10:42:46.000Z</time>
      </trkpt>
      <trkpt lat="38.12311833" lon="-4.895645">
        <ele>501.0</ele>
        <time>2018-10-06T10:42:47.000Z</time>
      </trkpt>
      <trkpt lat="38.123125" lon="-4.89564833">
        <ele>502.0</ele>
        <time>2018-10-06T10:42:48.000Z</time>
      </trkpt>
      <trkpt lat="38.12313667" lon="-4.89565167">
        <ele>502.0</ele>
        <time>2018-10-06T10:42:49.000Z</time>
      </trkpt>
      <trkpt lat="38.12313667" lon="-4.89565167">
        <ele>502.0</ele>
        <time>2018-10-06T10:42:50.000Z</time>
      </trkpt>
      <trkpt lat="38.12313667" lon="-4.89565167">
        <ele>502.0</ele>
        <time>2018-10-06T10:42:51.000Z</time>
      </trkpt>
      <trkpt lat="38.12313667" lon="-4.89565167">
        <ele>502.0</ele>
        <time>2018-10-06T10:42:52.000Z</time>
      </trkpt>
      <trkpt lat="38.12313667" lon="-4.89565167">
        <ele>502.0</ele>
        <time>2018-10-06T10:42:53.000Z</time>
      </trkpt>
      <trkpt lat="38.12313667" lon="-4.89565167">
        <ele>502.0</ele>
        <time>2018-10-06T10:42:54.000Z</time>
      </trkpt>
      <trkpt lat="38.12313667" lon="-4.89565167">
        <ele>502.0</ele>
        <time>2018-10-06T10:42:55.000Z</time>
      </trkpt>
      <trkpt lat="38.12313667" lon="-4.89565167">
        <ele>502.0</ele>
        <time>2018-10-06T10:42:56.000Z</time>
      </trkpt>
      <trkpt lat="38.12313667" lon="-4.89565167">
        <ele>502.0</ele>
        <time>2018-10-06T10:42:57.000Z</time>
      </trkpt>
      <trkpt lat="38.12313667" lon="-4.89565167">
        <ele>502.0</ele>
        <time>2018-10-06T10:42:58.000Z</time>
      </trkpt>
      <trkpt lat="38.12313667" lon="-4.89565167">
        <ele>502.0</ele>
        <time>2018-10-06T10:42:59.000Z</time>
      </trkpt>
      <trkpt lat="38.12313667" lon="-4.89565167">
        <ele>502.0</ele>
        <time>2018-10-06T10:43:00.000Z</time>
      </trkpt>
      <trkpt lat="38.12313667" lon="-4.89565167">
        <ele>502.0</ele>
        <time>2018-10-06T10:43:01.000Z</time>
      </trkpt>
      <trkpt lat="38.12313667" lon="-4.89565167">
        <ele>502.0</ele>
        <time>2018-10-06T10:43:02.000Z</time>
      </trkpt>
      <trkpt lat="38.12313667" lon="-4.89565167">
        <ele>502.0</ele>
        <time>2018-10-06T10:43:03.000Z</time>
      </trkpt>
      <trkpt lat="38.12313667" lon="-4.89565167">
        <ele>502.0</ele>
        <time>2018-10-06T10:43:04.000Z</time>
      </trkpt>
      <trkpt lat="38.12313667" lon="-4.89565167">
        <ele>502.0</ele>
        <time>2018-10-06T10:43:05.000Z</time>
      </trkpt>
      <trkpt lat="38.12313667" lon="-4.89565167">
        <ele>502.0</ele>
        <time>2018-10-06T10:43:06.000Z</time>
      </trkpt>
      <trkpt lat="38.12313667" lon="-4.89565167">
        <ele>502.0</ele>
        <time>2018-10-06T10:43:07.000Z</time>
      </trkpt>
      <trkpt lat="38.12313667" lon="-4.89565167">
        <ele>502.0</ele>
        <time>2018-10-06T10:43:08.000Z</time>
      </trkpt>
      <trkpt lat="38.12313667" lon="-4.89565167">
        <ele>502.0</ele>
        <time>2018-10-06T10:43:09.000Z</time>
      </trkpt>
      <trkpt lat="38.12313667" lon="-4.89565167">
        <ele>502.0</ele>
        <time>2018-10-06T10:43:10.000Z</time>
      </trkpt>
      <trkpt lat="38.12313667" lon="-4.89565167">
        <ele>502.0</ele>
        <time>2018-10-06T10:43:11.000Z</time>
      </trkpt>
      <trkpt lat="38.12313667" lon="-4.89565167">
        <ele>502.0</ele>
        <time>2018-10-06T10:43:12.000Z</time>
      </trkpt>
      <trkpt lat="38.12313667" lon="-4.89565167">
        <ele>502.0</ele>
        <time>2018-10-06T10:43:13.000Z</time>
      </trkpt>
      <trkpt lat="38.12313667" lon="-4.89565167">
        <ele>502.0</ele>
        <time>2018-10-06T10:43:14.000Z</time>
      </trkpt>
      <trkpt lat="38.12313667" lon="-4.89565167">
        <ele>502.0</ele>
        <time>2018-10-06T10:43:15.000Z</time>
      </trkpt>
      <trkpt lat="38.12313667" lon="-4.89565167">
        <ele>502.0</ele>
        <time>2018-10-06T10:43:16.000Z</time>
      </trkpt>
      <trkpt lat="38.12313667" lon="-4.89565167">
        <ele>502.0</ele>
        <time>2018-10-06T10:43:17.000Z</time>
      </trkpt>
      <trkpt lat="38.12313667" lon="-4.89565167">
        <ele>502.0</ele>
        <time>2018-10-06T10:43:18.000Z</time>
      </trkpt>
      <trkpt lat="38.12313667" lon="-4.89565167">
        <ele>502.0</ele>
        <time>2018-10-06T10:43:19.000Z</time>
      </trkpt>
      <trkpt lat="38.12313667" lon="-4.89565167">
        <ele>502.0</ele>
        <time>2018-10-06T10:43:20.000Z</time>
      </trkpt>
      <trkpt lat="38.12313667" lon="-4.89565167">
        <ele>502.0</ele>
        <time>2018-10-06T10:43:21.000Z</time>
      </trkpt>
      <trkpt lat="38.12313667" lon="-4.89565167">
        <ele>502.0</ele>
        <time>2018-10-06T10:43:22.000Z</time>
      </trkpt>
      <trkpt lat="38.12313667" lon="-4.89565167">
        <ele>502.0</ele>
        <time>2018-10-06T10:43:23.000Z</time>
      </trkpt>
      <trkpt lat="38.12313667" lon="-4.89565167">
        <ele>502.0</ele>
        <time>2018-10-06T10:43:24.000Z</time>
      </trkpt>
      <trkpt lat="38.12313667" lon="-4.89565167">
        <ele>502.0</ele>
        <time>2018-10-06T10:43:25.000Z</time>
      </trkpt>
      <trkpt lat="38.12313667" lon="-4.89565167">
        <ele>502.0</ele>
        <time>2018-10-06T10:43:26.000Z</time>
      </trkpt>
      <trkpt lat="38.12313667" lon="-4.89565167">
        <ele>502.0</ele>
        <time>2018-10-06T10:43:27.000Z</time>
      </trkpt>
      <trkpt lat="38.12313667" lon="-4.89565167">
        <ele>502.0</ele>
        <time>2018-10-06T10:43:28.000Z</time>
      </trkpt>
      <trkpt lat="38.12313667" lon="-4.89565167">
        <ele>502.0</ele>
        <time>2018-10-06T10:43:29.000Z</time>
      </trkpt>
      <trkpt lat="38.12313667" lon="-4.89565167">
        <ele>502.0</ele>
        <time>2018-10-06T10:43:30.000Z</time>
      </trkpt>
      <trkpt lat="38.12313667" lon="-4.89565167">
        <ele>502.0</ele>
        <time>2018-10-06T10:43:31.000Z</time>
      </trkpt>
      <trkpt lat="38.12313667" lon="-4.89565167">
        <ele>502.0</ele>
        <time>2018-10-06T10:43:32.000Z</time>
      </trkpt>
      <trkpt lat="38.12313667" lon="-4.89565167">
        <ele>502.0</ele>
        <time>2018-10-06T10:43:33.000Z</time>
      </trkpt>
      <trkpt lat="38.12313667" lon="-4.89565167">
        <ele>502.0</ele>
        <time>2018-10-06T10:43:34.000Z</time>
      </trkpt>
      <trkpt lat="38.12313667" lon="-4.89565167">
        <ele>502.0</ele>
        <time>2018-10-06T10:43:35.000Z</time>
      </trkpt>
      <trkpt lat="38.12313667" lon="-4.89565167">
        <ele>502.0</ele>
        <time>2018-10-06T10:43:36.000Z</time>
      </trkpt>
      <trkpt lat="38.12352167" lon="-4.89569833">
        <ele>498.0</ele>
        <time>2018-10-06T10:43:37.000Z</time>
      </trkpt>
      <trkpt lat="38.12360833" lon="-4.895805">
        <ele>507.0</ele>
        <time>2018-10-06T10:43:38.000Z</time>
      </trkpt>
      <trkpt lat="38.12361833" lon="-4.89580333">
        <ele>507.0</ele>
        <time>2018-10-06T10:43:39.000Z</time>
      </trkpt>
      <trkpt lat="38.12362667" lon="-4.895805">
        <ele>506.0</ele>
        <time>2018-10-06T10:43:40.000Z</time>
      </trkpt>
      <trkpt lat="38.12364333" lon="-4.89580667">
        <ele>506.0</ele>
        <time>2018-10-06T10:43:41.000Z</time>
      </trkpt>
      <trkpt lat="38.12365667" lon="-4.89580833">
        <ele>505.0</ele>
        <time>2018-10-06T10:43:42.000Z</time>
      </trkpt>
      <trkpt lat="38.12367167" lon="-4.89581">
        <ele>505.0</ele>
        <time>2018-10-06T10:43:43.000Z</time>
      </trkpt>
      <trkpt lat="38.12368333" lon="-4.89581167">
        <ele>505.0</ele>
        <time>2018-10-06T10:43:44.000Z</time>
      </trkpt>
      <trkpt lat="38.12369667" lon="-4.89581333">
        <ele>505.0</ele>
        <time>2018-10-06T10:43:45.000Z</time>
      </trkpt>
      <trkpt lat="38.12371" lon="-4.895815">
        <ele>504.0</ele>
        <time>2018-10-06T10:43:46.000Z</time>
      </trkpt>
      <trkpt lat="38.12372333" lon="-4.895815">
        <ele>504.0</ele>
        <time>2018-10-06T10:43:47.000Z</time>
      </trkpt>
      <trkpt lat="38.123735" lon="-4.89581667">
        <ele>504.0</ele>
        <time>2018-10-06T10:43:48.000Z</time>
      </trkpt>
      <trkpt lat="38.12374667" lon="-4.89581667">
        <ele>504.0</ele>
        <time>2018-10-06T10:43:49.000Z</time>
      </trkpt>
      <trkpt lat="38.12374667" lon="-4.89581667">
        <ele>504.0</ele>
        <time>2018-10-06T10:43:50.000Z</time>
      </trkpt>
      <trkpt lat="38.12374667" lon="-4.89581667">
        <ele>504.0</ele>
        <time>2018-10-06T10:43:51.000Z</time>
      </trkpt>
      <trkpt lat="38.12374667" lon="-4.89581667">
        <ele>504.0</ele>
        <time>2018-10-06T10:43:52.000Z</time>
      </trkpt>
      <trkpt lat="38.12374667" lon="-4.89581667">
        <ele>504.0</ele>
        <time>2018-10-06T10:43:53.000Z</time>
      </trkpt>
      <trkpt lat="38.12374667" lon="-4.89581667">
        <ele>504.0</ele>
        <time>2018-10-06T10:43:54.000Z</time>
      </trkpt>
      <trkpt lat="38.12374667" lon="-4.89581667">
        <ele>504.0</ele>
        <time>2018-10-06T10:43:55.000Z</time>
      </trkpt>
      <trkpt lat="38.12374667" lon="-4.89581667">
        <ele>504.0</ele>
        <time>2018-10-06T10:43:56.000Z</time>
      </trkpt>
      <trkpt lat="38.12374667" lon="-4.89581667">
        <ele>504.0</ele>
        <time>2018-10-06T10:43:57.000Z</time>
      </trkpt>
      <trkpt lat="38.12374667" lon="-4.89581667">
        <ele>504.0</ele>
        <time>2018-10-06T10:43:58.000Z</time>
      </trkpt>
      <trkpt lat="38.12374667" lon="-4.89581667">
        <ele>504.0</ele>
        <time>2018-10-06T10:43:59.000Z</time>
      </trkpt>
      <trkpt lat="38.12374667" lon="-4.89581667">
        <ele>504.0</ele>
        <time>2018-10-06T10:44:00.000Z</time>
      </trkpt>
      <trkpt lat="38.12374667" lon="-4.89581667">
        <ele>504.0</ele>
        <time>2018-10-06T10:44:01.000Z</time>
      </trkpt>
      <trkpt lat="38.12374667" lon="-4.89581667">
        <ele>504.0</ele>
        <time>2018-10-06T10:44:02.000Z</time>
      </trkpt>
      <trkpt lat="38.12374667" lon="-4.89581667">
        <ele>504.0</ele>
        <time>2018-10-06T10:44:03.000Z</time>
      </trkpt>
      <trkpt lat="38.12374667" lon="-4.89581667">
        <ele>504.0</ele>
        <time>2018-10-06T10:44:04.000Z</time>
      </trkpt>
      <trkpt lat="38.12374667" lon="-4.89581667">
        <ele>504.0</ele>
        <time>2018-10-06T10:44:05.000Z</time>
      </trkpt>
      <trkpt lat="38.12374667" lon="-4.89581667">
        <ele>504.0</ele>
        <time>2018-10-06T10:44:06.000Z</time>
      </trkpt>
      <trkpt lat="38.12374667" lon="-4.89581667">
        <ele>504.0</ele>
        <time>2018-10-06T10:44:07.000Z</time>
      </trkpt>
      <trkpt lat="38.12374667" lon="-4.89581667">
        <ele>504.0</ele>
        <time>2018-10-06T10:44:08.000Z</time>
      </trkpt>
      <trkpt lat="38.12374667" lon="-4.89581667">
        <ele>504.0</ele>
        <time>2018-10-06T10:44:09.000Z</time>
      </trkpt>
      <trkpt lat="38.12374667" lon="-4.89581667">
        <ele>504.0</ele>
        <time>2018-10-06T10:44:10.000Z</time>
      </trkpt>
      <trkpt lat="38.12374667" lon="-4.89581667">
        <ele>504.0</ele>
        <time>2018-10-06T10:44:11.000Z</time>
      </trkpt>
      <trkpt lat="38.12374667" lon="-4.89581667">
        <ele>504.0</ele>
        <time>2018-10-06T10:44:12.000Z</time>
      </trkpt>
      <trkpt lat="38.12374667" lon="-4.89581667">
        <ele>504.0</ele>
        <time>2018-10-06T10:44:13.000Z</time>
      </trkpt>
      <trkpt lat="38.12374667" lon="-4.89581667">
        <ele>504.0</ele>
        <time>2018-10-06T10:44:14.000Z</time>
      </trkpt>
      <trkpt lat="38.12374667" lon="-4.89581667">
        <ele>504.0</ele>
        <time>2018-10-06T10:44:15.000Z</time>
      </trkpt>
      <trkpt lat="38.12374667" lon="-4.89581667">
        <ele>504.0</ele>
        <time>2018-10-06T10:44:16.000Z</time>
      </trkpt>
      <trkpt lat="38.12374667" lon="-4.89581667">
        <ele>504.0</ele>
        <time>2018-10-06T10:44:17.000Z</time>
      </trkpt>
      <trkpt lat="38.12374667" lon="-4.89581667">
        <ele>504.0</ele>
        <time>2018-10-06T10:44:18.000Z</time>
      </trkpt>
      <trkpt lat="38.12374667" lon="-4.89581667">
        <ele>504.0</ele>
        <time>2018-10-06T10:44:19.000Z</time>
      </trkpt>
      <trkpt lat="38.12374667" lon="-4.89581667">
        <ele>504.0</ele>
        <time>2018-10-06T10:44:20.000Z</time>
      </trkpt>
      <trkpt lat="38.12374667" lon="-4.89581667">
        <ele>504.0</ele>
        <time>2018-10-06T10:44:21.000Z</time>
      </trkpt>
      <trkpt lat="38.12374667" lon="-4.89581667">
        <ele>504.0</ele>
        <time>2018-10-06T10:44:22.000Z</time>
      </trkpt>
      <trkpt lat="38.12374667" lon="-4.89581667">
        <ele>504.0</ele>
        <time>2018-10-06T10:44:23.000Z</time>
      </trkpt>
      <trkpt lat="38.12374667" lon="-4.89581667">
        <ele>504.0</ele>
        <time>2018-10-06T10:44:24.000Z</time>
      </trkpt>
      <trkpt lat="38.12374667" lon="-4.89581667">
        <ele>504.0</ele>
        <time>2018-10-06T10:44:25.000Z</time>
      </trkpt>
      <trkpt lat="38.12374667" lon="-4.89581667">
        <ele>504.0</ele>
        <time>2018-10-06T10:44:26.000Z</time>
      </trkpt>
      <trkpt lat="38.12374667" lon="-4.89581667">
        <ele>504.0</ele>
        <time>2018-10-06T10:44:27.000Z</time>
      </trkpt>
      <trkpt lat="38.12374667" lon="-4.89581667">
        <ele>504.0</ele>
        <time>2018-10-06T10:44:28.000Z</time>
      </trkpt>
      <trkpt lat="38.12374667" lon="-4.89581667">
        <ele>504.0</ele>
        <time>2018-10-06T10:44:29.000Z</time>
      </trkpt>
      <trkpt lat="38.12374667" lon="-4.89581667">
        <ele>504.0</ele>
        <time>2018-10-06T10:44:30.000Z</time>
      </trkpt>
      <trkpt lat="38.12374667" lon="-4.89581667">
        <ele>504.0</ele>
        <time>2018-10-06T10:44:31.000Z</time>
      </trkpt>
      <trkpt lat="38.12374667" lon="-4.89581667">
        <ele>504.0</ele>
        <time>2018-10-06T10:44:32.000Z</time>
      </trkpt>
      <trkpt lat="38.12374667" lon="-4.89581667">
        <ele>504.0</ele>
        <time>2018-10-06T10:44:33.000Z</time>
      </trkpt>
      <trkpt lat="38.12374667" lon="-4.89581667">
        <ele>504.0</ele>
        <time>2018-10-06T10:44:34.000Z</time>
      </trkpt>
      <trkpt lat="38.12374667" lon="-4.89581667">
        <ele>504.0</ele>
        <time>2018-10-06T10:44:35.000Z</time>
      </trkpt>
      <trkpt lat="38.12374667" lon="-4.89581667">
        <ele>504.0</ele>
        <time>2018-10-06T10:44:36.000Z</time>
      </trkpt>
      <trkpt lat="38.12400333" lon="-4.89580667">
        <ele>496.0</ele>
        <time>2018-10-06T10:44:37.000Z</time>
      </trkpt>
      <trkpt lat="38.12402667" lon="-4.89581">
        <ele>496.0</ele>
        <time>2018-10-06T10:44:38.000Z</time>
      </trkpt>
      <trkpt lat="38.12405833" lon="-4.89582833">
        <ele>496.0</ele>
        <time>2018-10-06T10:44:39.000Z</time>
      </trkpt>
      <trkpt lat="38.12408667" lon="-4.89584">
        <ele>496.0</ele>
        <time>2018-10-06T10:44:40.000Z</time>
      </trkpt>
      <trkpt lat="38.12411333" lon="-4.89585">
        <ele>496.0</ele>
        <time>2018-10-06T10:44:41.000Z</time>
      </trkpt>
      <trkpt lat="38.12413667" lon="-4.89586">
        <ele>496.0</ele>
        <time>2018-10-06T10:44:42.000Z</time>
      </trkpt>
      <trkpt lat="38.12416" lon="-4.89587">
        <ele>496.0</ele>
        <time>2018-10-06T10:44:43.000Z</time>
      </trkpt>
      <trkpt lat="38.12418333" lon="-4.89588">
        <ele>496.0</ele>
        <time>2018-10-06T10:44:44.000Z</time>
      </trkpt>
      <trkpt lat="38.12420667" lon="-4.89588833">
        <ele>497.0</ele>
        <time>2018-10-06T10:44:45.000Z</time>
      </trkpt>
      <trkpt lat="38.12422833" lon="-4.895895">
        <ele>497.0</ele>
        <time>2018-10-06T10:44:46.000Z</time>
      </trkpt>
      <trkpt lat="38.12425" lon="-4.895905">
        <ele>497.0</ele>
        <time>2018-10-06T10:44:47.000Z</time>
      </trkpt>
      <trkpt lat="38.12426833" lon="-4.895915">
        <ele>497.0</ele>
        <time>2018-10-06T10:44:48.000Z</time>
      </trkpt>
      <trkpt lat="38.124285" lon="-4.89592333">
        <ele>497.0</ele>
        <time>2018-10-06T10:44:49.000Z</time>
      </trkpt>
      <trkpt lat="38.124285" lon="-4.89592333">
        <ele>497.0</ele>
        <time>2018-10-06T10:44:50.000Z</time>
      </trkpt>
      <trkpt lat="38.124285" lon="-4.89592333">
        <ele>497.0</ele>
        <time>2018-10-06T10:44:51.000Z</time>
      </trkpt>
      <trkpt lat="38.124285" lon="-4.89592333">
        <ele>497.0</ele>
        <time>2018-10-06T10:44:52.000Z</time>
      </trkpt>
      <trkpt lat="38.124285" lon="-4.89592333">
        <ele>497.0</ele>
        <time>2018-10-06T10:44:53.000Z</time>
      </trkpt>
      <trkpt lat="38.124285" lon="-4.89592333">
        <ele>497.0</ele>
        <time>2018-10-06T10:44:54.000Z</time>
      </trkpt>
      <trkpt lat="38.124285" lon="-4.89592333">
        <ele>497.0</ele>
        <time>2018-10-06T10:44:55.000Z</time>
      </trkpt>
      <trkpt lat="38.124285" lon="-4.89592333">
        <ele>497.0</ele>
        <time>2018-10-06T10:44:56.000Z</time>
      </trkpt>
      <trkpt lat="38.124285" lon="-4.89592333">
        <ele>497.0</ele>
        <time>2018-10-06T10:44:57.000Z</time>
      </trkpt>
      <trkpt lat="38.124285" lon="-4.89592333">
        <ele>497.0</ele>
        <time>2018-10-06T10:44:58.000Z</time>
      </trkpt>
      <trkpt lat="38.124285" lon="-4.89592333">
        <ele>497.0</ele>
        <time>2018-10-06T10:44:59.000Z</time>
      </trkpt>
      <trkpt lat="38.124285" lon="-4.89592333">
        <ele>497.0</ele>
        <time>2018-10-06T10:45:00.000Z</time>
      </trkpt>
      <trkpt lat="38.124285" lon="-4.89592333">
        <ele>497.0</ele>
        <time>2018-10-06T10:45:01.000Z</time>
      </trkpt>
      <trkpt lat="38.124285" lon="-4.89592333">
        <ele>497.0</ele>
        <time>2018-10-06T10:45:02.000Z</time>
      </trkpt>
      <trkpt lat="38.124285" lon="-4.89592333">
        <ele>497.0</ele>
        <time>2018-10-06T10:45:03.000Z</time>
      </trkpt>
      <trkpt lat="38.124285" lon="-4.89592333">
        <ele>497.0</ele>
        <time>2018-10-06T10:45:04.000Z</time>
      </trkpt>
      <trkpt lat="38.124285" lon="-4.89592333">
        <ele>497.0</ele>
        <time>2018-10-06T10:45:05.000Z</time>
      </trkpt>
      <trkpt lat="38.124285" lon="-4.89592333">
        <ele>497.0</ele>
        <time>2018-10-06T10:45:06.000Z</time>
      </trkpt>
      <trkpt lat="38.124285" lon="-4.89592333">
        <ele>497.0</ele>
        <time>2018-10-06T10:45:07.000Z</time>
      </trkpt>
      <trkpt lat="38.124285" lon="-4.89592333">
        <ele>497.0</ele>
        <time>2018-10-06T10:45:08.000Z</time>
      </trkpt>
      <trkpt lat="38.124285" lon="-4.89592333">
        <ele>497.0</ele>
        <time>2018-10-06T10:45:09.000Z</time>
      </trkpt>
      <trkpt lat="38.124285" lon="-4.89592333">
        <ele>497.0</ele>
        <time>2018-10-06T10:45:10.000Z</time>
      </trkpt>
      <trkpt lat="38.124285" lon="-4.89592333">
        <ele>497.0</ele>
        <time>2018-10-06T10:45:11.000Z</time>
      </trkpt>
      <trkpt lat="38.124285" lon="-4.89592333">
        <ele>497.0</ele>
        <time>2018-10-06T10:45:12.000Z</time>
      </trkpt>
      <trkpt lat="38.124285" lon="-4.89592333">
        <ele>497.0</ele>
        <time>2018-10-06T10:45:13.000Z</time>
      </trkpt>
      <trkpt lat="38.124285" lon="-4.89592333">
        <ele>497.0</ele>
        <time>2018-10-06T10:45:14.000Z</time>
      </trkpt>
      <trkpt lat="38.124285" lon="-4.89592333">
        <ele>497.0</ele>
        <time>2018-10-06T10:45:15.000Z</time>
      </trkpt>
      <trkpt lat="38.124285" lon="-4.89592333">
        <ele>497.0</ele>
        <time>2018-10-06T10:45:16.000Z</time>
      </trkpt>
      <trkpt lat="38.124285" lon="-4.89592333">
        <ele>497.0</ele>
        <time>2018-10-06T10:45:17.000Z</time>
      </trkpt>
      <trkpt lat="38.124285" lon="-4.89592333">
        <ele>497.0</ele>
        <time>2018-10-06T10:45:18.000Z</time>
      </trkpt>
      <trkpt lat="38.124285" lon="-4.89592333">
        <ele>497.0</ele>
        <time>2018-10-06T10:45:19.000Z</time>
      </trkpt>
      <trkpt lat="38.124285" lon="-4.89592333">
        <ele>497.0</ele>
        <time>2018-10-06T10:45:20.000Z</time>
      </trkpt>
      <trkpt lat="38.124285" lon="-4.89592333">
        <ele>497.0</ele>
        <time>2018-10-06T10:45:21.000Z</time>
      </trkpt>
      <trkpt lat="38.124285" lon="-4.89592333">
        <ele>497.0</ele>
        <time>2018-10-06T10:45:22.000Z</time>
      </trkpt>
      <trkpt lat="38.124285" lon="-4.89592333">
        <ele>497.0</ele>
        <time>2018-10-06T10:45:23.000Z</time>
      </trkpt>
      <trkpt lat="38.124285" lon="-4.89592333">
        <ele>497.0</ele>
        <time>2018-10-06T10:45:24.000Z</time>
      </trkpt>
      <trkpt lat="38.124285" lon="-4.89592333">
        <ele>497.0</ele>
        <time>2018-10-06T10:45:25.000Z</time>
      </trkpt>
      <trkpt lat="38.124285" lon="-4.89592333">
        <ele>497.0</ele>
        <time>2018-10-06T10:45:26.000Z</time>
      </trkpt>
      <trkpt lat="38.124285" lon="-4.89592333">
        <ele>497.0</ele>
        <time>2018-10-06T10:45:27.000Z</time>
      </trkpt>
      <trkpt lat="38.124285" lon="-4.89592333">
        <ele>497.0</ele>
        <time>2018-10-06T10:45:28.000Z</time>
      </trkpt>
      <trkpt lat="38.124285" lon="-4.89592333">
        <ele>497.0</ele>
        <time>2018-10-06T10:45:29.000Z</time>
      </trkpt>
      <trkpt lat="38.124285" lon="-4.89592333">
        <ele>497.0</ele>
        <time>2018-10-06T10:45:30.000Z</time>
      </trkpt>
      <trkpt lat="38.124285" lon="-4.89592333">
        <ele>497.0</ele>
        <time>2018-10-06T10:45:31.000Z</time>
      </trkpt>
      <trkpt lat="38.124285" lon="-4.89592333">
        <ele>497.0</ele>
        <time>2018-10-06T10:45:32.000Z</time>
      </trkpt>
      <trkpt lat="38.124285" lon="-4.89592333">
        <ele>497.0</ele>
        <time>2018-10-06T10:45:33.000Z</time>
      </trkpt>
      <trkpt lat="38.124285" lon="-4.89592333">
        <ele>497.0</ele>
        <time>2018-10-06T10:45:34.000Z</time>
      </trkpt>
      <trkpt lat="38.124285" lon="-4.89592333">
        <ele>497.0</ele>
        <time>2018-10-06T10:45:35.000Z</time>
      </trkpt>
      <trkpt lat="38.124285" lon="-4.89592333">
        <ele>497.0</ele>
        <time>2018-10-06T10:45:36.000Z</time>
      </trkpt>
      <trkpt lat="38.124285" lon="-4.89592333">
        <ele>497.0</ele>
        <time>2018-10-06T10:45:37.000Z</time>
      </trkpt>
      <trkpt lat="38.12432167" lon="-4.89610333">
        <ele>490.0</ele>
        <time>2018-10-06T10:45:38.000Z</time>
      </trkpt>
      <trkpt lat="38.12475833" lon="-4.896105">
        <ele>494.0</ele>
        <time>2018-10-06T10:45:39.000Z</time>
      </trkpt>
      <trkpt lat="38.124775" lon="-4.89611">
        <ele>494.0</ele>
        <time>2018-10-06T10:45:40.000Z</time>
      </trkpt>
      <trkpt lat="38.12479833" lon="-4.89612167">
        <ele>495.0</ele>
        <time>2018-10-06T10:45:41.000Z</time>
      </trkpt>
      <trkpt lat="38.12481333" lon="-4.89612833">
        <ele>495.0</ele>
        <time>2018-10-06T10:45:42.000Z</time>
      </trkpt>
      <trkpt lat="38.124825" lon="-4.89613333">
        <ele>495.0</ele>
        <time>2018-10-06T10:45:43.000Z</time>
      </trkpt>
      <trkpt lat="38.12484" lon="-4.89614">
        <ele>496.0</ele>
        <time>2018-10-06T10:45:44.000Z</time>
      </trkpt>
      <trkpt lat="38.124855" lon="-4.89614667">
        <ele>496.0</ele>
        <time>2018-10-06T10:45:45.000Z</time>
      </trkpt>
      <trkpt lat="38.12486833" lon="-4.89615333">
        <ele>496.0</ele>
        <time>2018-10-06T10:45:46.000Z</time>
      </trkpt>
      <trkpt lat="38.12488167" lon="-4.89616">
        <ele>496.0</ele>
        <time>2018-10-06T10:45:47.000Z</time>
      </trkpt>
      <trkpt lat="38.12489333" lon="-4.89616667">
        <ele>496.0</ele>
        <time>2018-10-06T10:45:48.000Z</time>
      </trkpt>
      <trkpt lat="38.124905" lon="-4.89617167">
        <ele>495.0</ele>
        <time>2018-10-06T10:45:49.000Z</time>
      </trkpt>
      <trkpt lat="38.124905" lon="-4.89617167">
        <ele>495.0</ele>
        <time>2018-10-06T10:45:50.000Z</time>
      </trkpt>
      <trkpt lat="38.124905" lon="-4.89617167">
        <ele>495.0</ele>
        <time>2018-10-06T10:45:51.000Z</time>
      </trkpt>
      <trkpt lat="38.124905" lon="-4.89617167">
        <ele>495.0</ele>
        <time>2018-10-06T10:45:52.000Z</time>
      </trkpt>
      <trkpt lat="38.124905" lon="-4.89617167">
        <ele>495.0</ele>
        <time>2018-10-06T10:45:53.000Z</time>
      </trkpt>
      <trkpt lat="38.124905" lon="-4.89617167">
        <ele>495.0</ele>
        <time>2018-10-06T10:45:54.000Z</time>
      </trkpt>
      <trkpt lat="38.124905" lon="-4.89617167">
        <ele>495.0</ele>
        <time>2018-10-06T10:45:55.000Z</time>
      </trkpt>
      <trkpt lat="38.124905" lon="-4.89617167">
        <ele>495.0</ele>
        <time>2018-10-06T10:45:56.000Z</time>
      </trkpt>
      <trkpt lat="38.124905" lon="-4.89617167">
        <ele>495.0</ele>
        <time>2018-10-06T10:45:57.000Z</time>
      </trkpt>
      <trkpt lat="38.124905" lon="-4.89617167">
        <ele>495.0</ele>
        <time>2018-10-06T10:45:58.000Z</time>
      </trkpt>
      <trkpt lat="38.124905" lon="-4.89617167">
        <ele>495.0</ele>
        <time>2018-10-06T10:45:59.000Z</time>
      </trkpt>
      <trkpt lat="38.124905" lon="-4.89617167">
        <ele>495.0</ele>
        <time>2018-10-06T10:46:00.000Z</time>
      </trkpt>
      <trkpt lat="38.124905" lon="-4.89617167">
        <ele>495.0</ele>
        <time>2018-10-06T10:46:01.000Z</time>
      </trkpt>
      <trkpt lat="38.124905" lon="-4.89617167">
        <ele>495.0</ele>
        <time>2018-10-06T10:46:02.000Z</time>
      </trkpt>
      <trkpt lat="38.124905" lon="-4.89617167">
        <ele>495.0</ele>
        <time>2018-10-06T10:46:03.000Z</time>
      </trkpt>
      <trkpt lat="38.124905" lon="-4.89617167">
        <ele>495.0</ele>
        <time>2018-10-06T10:46:04.000Z</time>
      </trkpt>
      <trkpt lat="38.124905" lon="-4.89617167">
        <ele>495.0</ele>
        <time>2018-10-06T10:46:05.000Z</time>
      </trkpt>
      <trkpt lat="38.124905" lon="-4.89617167">
        <ele>495.0</ele>
        <time>2018-10-06T10:46:06.000Z</time>
      </trkpt>
      <trkpt lat="38.124905" lon="-4.89617167">
        <ele>495.0</ele>
        <time>2018-10-06T10:46:07.000Z</time>
      </trkpt>
      <trkpt lat="38.124905" lon="-4.89617167">
        <ele>495.0</ele>
        <time>2018-10-06T10:46:08.000Z</time>
      </trkpt>
      <trkpt lat="38.124905" lon="-4.89617167">
        <ele>495.0</ele>
        <time>2018-10-06T10:46:09.000Z</time>
      </trkpt>
      <trkpt lat="38.124905" lon="-4.89617167">
        <ele>495.0</ele>
        <time>2018-10-06T10:46:10.000Z</time>
      </trkpt>
      <trkpt lat="38.124905" lon="-4.89617167">
        <ele>495.0</ele>
        <time>2018-10-06T10:46:11.000Z</time>
      </trkpt>
      <trkpt lat="38.124905" lon="-4.89617167">
        <ele>495.0</ele>
        <time>2018-10-06T10:46:12.000Z</time>
      </trkpt>
      <trkpt lat="38.124905" lon="-4.89617167">
        <ele>495.0</ele>
        <time>2018-10-06T10:46:13.000Z</time>
      </trkpt>
      <trkpt lat="38.124905" lon="-4.89617167">
        <ele>495.0</ele>
        <time>2018-10-06T10:46:14.000Z</time>
      </trkpt>
      <trkpt lat="38.124905" lon="-4.89617167">
        <ele>495.0</ele>
        <time>2018-10-06T10:46:15.000Z</time>
      </trkpt>
      <trkpt lat="38.124905" lon="-4.89617167">
        <ele>495.0</ele>
        <time>2018-10-06T10:46:16.000Z</time>
      </trkpt>
      <trkpt lat="38.124905" lon="-4.89617167">
        <ele>495.0</ele>
        <time>2018-10-06T10:46:17.000Z</time>
      </trkpt>
      <trkpt lat="38.124905" lon="-4.89617167">
        <ele>495.0</ele>
        <time>2018-10-06T10:46:18.000Z</time>
      </trkpt>
      <trkpt lat="38.124905" lon="-4.89617167">
        <ele>495.0</ele>
        <time>2018-10-06T10:46:19.000Z</time>
      </trkpt>
      <trkpt lat="38.124905" lon="-4.89617167">
        <ele>495.0</ele>
        <time>2018-10-06T10:46:20.000Z</time>
      </trkpt>
      <trkpt lat="38.124905" lon="-4.89617167">
        <ele>495.0</ele>
        <time>2018-10-06T10:46:21.000Z</time>
      </trkpt>
      <trkpt lat="38.124905" lon="-4.89617167">
        <ele>495.0</ele>
        <time>2018-10-06T10:46:22.000Z</time>
      </trkpt>
      <trkpt lat="38.124905" lon="-4.89617167">
        <ele>495.0</ele>
        <time>2018-10-06T10:46:23.000Z</time>
      </trkpt>
      <trkpt lat="38.124905" lon="-4.89617167">
        <ele>495.0</ele>
        <time>2018-10-06T10:46:24.000Z</time>
      </trkpt>
      <trkpt lat="38.124905" lon="-4.89617167">
        <ele>495.0</ele>
        <time>2018-10-06T10:46:25.000Z</time>
      </trkpt>
      <trkpt lat="38.124905" lon="-4.89617167">
        <ele>495.0</ele>
        <time>2018-10-06T10:46:26.000Z</time>
      </trkpt>
      <trkpt lat="38.124905" lon="-4.89617167">
        <ele>495.0</ele>
        <time>2018-10-06T10:46:27.000Z</time>
      </trkpt>
      <trkpt lat="38.124905" lon="-4.89617167">
        <ele>495.0</ele>
        <time>2018-10-06T10:46:28.000Z</time>
      </trkpt>
      <trkpt lat="38.124905" lon="-4.89617167">
        <ele>495.0</ele>
        <time>2018-10-06T10:46:29.000Z</time>
      </trkpt>
      <trkpt lat="38.124905" lon="-4.89617167">
        <ele>495.0</ele>
        <time>2018-10-06T10:46:30.000Z</time>
      </trkpt>
      <trkpt lat="38.124905" lon="-4.89617167">
        <ele>495.0</ele>
        <time>2018-10-06T10:46:31.000Z</time>
      </trkpt>
      <trkpt lat="38.124905" lon="-4.89617167">
        <ele>495.0</ele>
        <time>2018-10-06T10:46:32.000Z</time>
      </trkpt>
      <trkpt lat="38.124905" lon="-4.89617167">
        <ele>495.0</ele>
        <time>2018-10-06T10:46:33.000Z</time>
      </trkpt>
      <trkpt lat="38.124905" lon="-4.89617167">
        <ele>495.0</ele>
        <time>2018-10-06T10:46:34.000Z</time>
      </trkpt>
      <trkpt lat="38.124905" lon="-4.89617167">
        <ele>495.0</ele>
        <time>2018-10-06T10:46:35.000Z</time>
      </trkpt>
      <trkpt lat="38.124905" lon="-4.89617167">
        <ele>495.0</ele>
        <time>2018-10-06T10:46:36.000Z</time>
      </trkpt>
      <trkpt lat="38.124905" lon="-4.89617167">
        <ele>495.0</ele>
        <time>2018-10-06T10:46:37.000Z</time>
      </trkpt>
      <trkpt lat="38.12523333" lon="-4.89634333">
        <ele>473.0</ele>
        <time>2018-10-06T10:46:38.000Z</time>
      </trkpt>
      <trkpt lat="38.12530833" lon="-4.89655833">
        <ele>496.0</ele>
        <time>2018-10-06T10:46:39.000Z</time>
      </trkpt>
      <trkpt lat="38.12532333" lon="-4.89659167">
        <ele>501.0</ele>
        <time>2018-10-06T10:46:40.000Z</time>
      </trkpt>
      <trkpt lat="38.12534833" lon="-4.89661">
        <ele>501.0</ele>
        <time>2018-10-06T10:46:41.000Z</time>
      </trkpt>
      <trkpt lat="38.12537" lon="-4.89662333">
        <ele>500.0</ele>
        <time>2018-10-06T10:46:42.000Z</time>
      </trkpt>
      <trkpt lat="38.12538333" lon="-4.89663333">
        <ele>500.0</ele>
        <time>2018-10-06T10:46:43.000Z</time>
      </trkpt>
      <trkpt lat="38.125395" lon="-4.89664333">
        <ele>500.0</ele>
        <time>2018-10-06T10:46:44.000Z</time>
      </trkpt>
      <trkpt lat="38.125405" lon="-4.89665167">
        <ele>500.0</ele>
        <time>2018-10-06T10:46:45.000Z</time>
      </trkpt>
      <trkpt lat="38.125415" lon="-4.89666">
        <ele>500.0</ele>
        <time>2018-10-06T10:46:46.000Z</time>
      </trkpt>
      <trkpt lat="38.12542333" lon="-4.89666833">
        <ele>499.0</ele>
        <time>2018-10-06T10:46:47.000Z</time>
      </trkpt>
      <trkpt lat="38.12543333" lon="-4.896675">
        <ele>499.0</ele>
        <time>2018-10-06T10:46:48.000Z</time>
      </trkpt>
      <trkpt lat="38.12544167" lon="-4.89668167">
        <ele>499.0</ele>
        <time>2018-10-06T10:46:49.000Z</time>
      </trkpt>
      <trkpt lat="38.12544167" lon="-4.89668167">
        <ele>499.0</ele>
        <time>2018-10-06T10:46:50.000Z</time>
      </trkpt>
      <trkpt lat="38.12544167" lon="-4.89668167">
        <ele>499.0</ele>
        <time>2018-10-06T10:46:51.000Z</time>
      </trkpt>
      <trkpt lat="38.12544167" lon="-4.89668167">
        <ele>499.0</ele>
        <time>2018-10-06T10:46:52.000Z</time>
      </trkpt>
      <trkpt lat="38.12544167" lon="-4.89668167">
        <ele>499.0</ele>
        <time>2018-10-06T10:46:53.000Z</time>
      </trkpt>
      <trkpt lat="38.12544167" lon="-4.89668167">
        <ele>499.0</ele>
        <time>2018-10-06T10:46:54.000Z</time>
      </trkpt>
      <trkpt lat="38.12544167" lon="-4.89668167">
        <ele>499.0</ele>
        <time>2018-10-06T10:46:55.000Z</time>
      </trkpt>
      <trkpt lat="38.12544167" lon="-4.89668167">
        <ele>499.0</ele>
        <time>2018-10-06T10:46:56.000Z</time>
      </trkpt>
      <trkpt lat="38.12544167" lon="-4.89668167">
        <ele>499.0</ele>
        <time>2018-10-06T10:46:57.000Z</time>
      </trkpt>
      <trkpt lat="38.12544167" lon="-4.89668167">
        <ele>499.0</ele>
        <time>2018-10-06T10:46:58.000Z</time>
      </trkpt>
      <trkpt lat="38.12544167" lon="-4.89668167">
        <ele>499.0</ele>
        <time>2018-10-06T10:46:59.000Z</time>
      </trkpt>
      <trkpt lat="38.12544167" lon="-4.89668167">
        <ele>499.0</ele>
        <time>2018-10-06T10:47:00.000Z</time>
      </trkpt>
      <trkpt lat="38.12544167" lon="-4.89668167">
        <ele>499.0</ele>
        <time>2018-10-06T10:47:01.000Z</time>
      </trkpt>
      <trkpt lat="38.12544167" lon="-4.89668167">
        <ele>499.0</ele>
        <time>2018-10-06T10:47:02.000Z</time>
      </trkpt>
      <trkpt lat="38.12544167" lon="-4.89668167">
        <ele>499.0</ele>
        <time>2018-10-06T10:47:03.000Z</time>
      </trkpt>
      <trkpt lat="38.12544167" lon="-4.89668167">
        <ele>499.0</ele>
        <time>2018-10-06T10:47:04.000Z</time>
      </trkpt>
      <trkpt lat="38.12544167" lon="-4.89668167">
        <ele>499.0</ele>
        <time>2018-10-06T10:47:05.000Z</time>
      </trkpt>
      <trkpt lat="38.12544167" lon="-4.89668167">
        <ele>499.0</ele>
        <time>2018-10-06T10:47:06.000Z</time>
      </trkpt>
      <trkpt lat="38.12544167" lon="-4.89668167">
        <ele>499.0</ele>
        <time>2018-10-06T10:47:07.000Z</time>
      </trkpt>
      <trkpt lat="38.12544167" lon="-4.89668167">
        <ele>499.0</ele>
        <time>2018-10-06T10:47:08.000Z</time>
      </trkpt>
      <trkpt lat="38.12544167" lon="-4.89668167">
        <ele>499.0</ele>
        <time>2018-10-06T10:47:09.000Z</time>
      </trkpt>
      <trkpt lat="38.12544167" lon="-4.89668167">
        <ele>499.0</ele>
        <time>2018-10-06T10:47:10.000Z</time>
      </trkpt>
      <trkpt lat="38.12544167" lon="-4.89668167">
        <ele>499.0</ele>
        <time>2018-10-06T10:47:11.000Z</time>
      </trkpt>
      <trkpt lat="38.12544167" lon="-4.89668167">
        <ele>499.0</ele>
        <time>2018-10-06T10:47:12.000Z</time>
      </trkpt>
      <trkpt lat="38.12544167" lon="-4.89668167">
        <ele>499.0</ele>
        <time>2018-10-06T10:47:13.000Z</time>
      </trkpt>
      <trkpt lat="38.12544167" lon="-4.89668167">
        <ele>499.0</ele>
        <time>2018-10-06T10:47:14.000Z</time>
      </trkpt>
      <trkpt lat="38.12544167" lon="-4.89668167">
        <ele>499.0</ele>
        <time>2018-10-06T10:47:15.000Z</time>
      </trkpt>
      <trkpt lat="38.12544167" lon="-4.89668167">
        <ele>499.0</ele>
        <time>2018-10-06T10:47:16.000Z</time>
      </trkpt>
      <trkpt lat="38.12544167" lon="-4.89668167">
        <ele>499.0</ele>
        <time>2018-10-06T10:47:17.000Z</time>
      </trkpt>
      <trkpt lat="38.12544167" lon="-4.89668167">
        <ele>499.0</ele>
        <time>2018-10-06T10:47:18.000Z</time>
      </trkpt>
      <trkpt lat="38.12544167" lon="-4.89668167">
        <ele>499.0</ele>
        <time>2018-10-06T10:47:19.000Z</time>
      </trkpt>
      <trkpt lat="38.12544167" lon="-4.89668167">
        <ele>499.0</ele>
        <time>2018-10-06T10:47:20.000Z</time>
      </trkpt>
      <trkpt lat="38.12544167" lon="-4.89668167">
        <ele>499.0</ele>
        <time>2018-10-06T10:47:21.000Z</time>
      </trkpt>
      <trkpt lat="38.12544167" lon="-4.89668167">
        <ele>499.0</ele>
        <time>2018-10-06T10:47:22.000Z</time>
      </trkpt>
      <trkpt lat="38.12544167" lon="-4.89668167">
        <ele>499.0</ele>
        <time>2018-10-06T10:47:23.000Z</time>
      </trkpt>
      <trkpt lat="38.12544167" lon="-4.89668167">
        <ele>499.0</ele>
        <time>2018-10-06T10:47:24.000Z</time>
      </trkpt>
      <trkpt lat="38.12544167" lon="-4.89668167">
        <ele>499.0</ele>
        <time>2018-10-06T10:47:25.000Z</time>
      </trkpt>
      <trkpt lat="38.12544167" lon="-4.89668167">
        <ele>499.0</ele>
        <time>2018-10-06T10:47:26.000Z</time>
      </trkpt>
      <trkpt lat="38.12544167" lon="-4.89668167">
        <ele>499.0</ele>
        <time>2018-10-06T10:47:27.000Z</time>
      </trkpt>
      <trkpt lat="38.12544167" lon="-4.89668167">
        <ele>499.0</ele>
        <time>2018-10-06T10:47:28.000Z</time>
      </trkpt>
      <trkpt lat="38.12544167" lon="-4.89668167">
        <ele>499.0</ele>
        <time>2018-10-06T10:47:29.000Z</time>
      </trkpt>
      <trkpt lat="38.12544167" lon="-4.89668167">
        <ele>499.0</ele>
        <time>2018-10-06T10:47:30.000Z</time>
      </trkpt>
      <trkpt lat="38.12544167" lon="-4.89668167">
        <ele>499.0</ele>
        <time>2018-10-06T10:47:31.000Z</time>
      </trkpt>
      <trkpt lat="38.12544167" lon="-4.89668167">
        <ele>499.0</ele>
        <time>2018-10-06T10:47:32.000Z</time>
      </trkpt>
      <trkpt lat="38.12544167" lon="-4.89668167">
        <ele>499.0</ele>
        <time>2018-10-06T10:47:33.000Z</time>
      </trkpt>
      <trkpt lat="38.12544167" lon="-4.89668167">
        <ele>499.0</ele>
        <time>2018-10-06T10:47:34.000Z</time>
      </trkpt>
      <trkpt lat="38.12544167" lon="-4.89668167">
        <ele>499.0</ele>
        <time>2018-10-06T10:47:35.000Z</time>
      </trkpt>
      <trkpt lat="38.12544167" lon="-4.89668167">
        <ele>499.0</ele>
        <time>2018-10-06T10:47:36.000Z</time>
      </trkpt>
      <trkpt lat="38.12544167" lon="-4.89668167">
        <ele>499.0</ele>
        <time>2018-10-06T10:47:37.000Z</time>
      </trkpt>
      <trkpt lat="38.12562" lon="-4.89680167">
        <ele>495.0</ele>
        <time>2018-10-06T10:47:38.000Z</time>
      </trkpt>
      <trkpt lat="38.12564333" lon="-4.896815">
        <ele>495.0</ele>
        <time>2018-10-06T10:47:39.000Z</time>
      </trkpt>
      <trkpt lat="38.12566833" lon="-4.89683667">
        <ele>494.0</ele>
        <time>2018-10-06T10:47:40.000Z</time>
      </trkpt>
      <trkpt lat="38.12569167" lon="-4.89686">
        <ele>494.0</ele>
        <time>2018-10-06T10:47:41.000Z</time>
      </trkpt>
      <trkpt lat="38.125715" lon="-4.89688333">
        <ele>494.0</ele>
        <time>2018-10-06T10:47:42.000Z</time>
      </trkpt>
      <trkpt lat="38.12573667" lon="-4.896905">
        <ele>494.0</ele>
        <time>2018-10-06T10:47:43.000Z</time>
      </trkpt>
      <trkpt lat="38.12575667" lon="-4.896925">
        <ele>494.0</ele>
        <time>2018-10-06T10:47:44.000Z</time>
      </trkpt>
      <trkpt lat="38.125775" lon="-4.896945">
        <ele>494.0</ele>
        <time>2018-10-06T10:47:45.000Z</time>
      </trkpt>
      <trkpt lat="38.12579167" lon="-4.89696333">
        <ele>494.0</ele>
        <time>2018-10-06T10:47:46.000Z</time>
      </trkpt>
      <trkpt lat="38.12581" lon="-4.89698167">
        <ele>494.0</ele>
        <time>2018-10-06T10:47:47.000Z</time>
      </trkpt>
      <trkpt lat="38.12582667" lon="-4.89700167">
        <ele>494.0</ele>
        <time>2018-10-06T10:47:48.000Z</time>
      </trkpt>
      <trkpt lat="38.12584167" lon="-4.89701833">
        <ele>494.0</ele>
        <time>2018-10-06T10:47:49.000Z</time>
      </trkpt>
      <trkpt lat="38.12584167" lon="-4.89701833">
        <ele>494.0</ele>
        <time>2018-10-06T10:47:50.000Z</time>
      </trkpt>
      <trkpt lat="38.12584167" lon="-4.89701833">
        <ele>494.0</ele>
        <time>2018-10-06T10:47:51.000Z</time>
      </trkpt>
      <trkpt lat="38.12584167" lon="-4.89701833">
        <ele>494.0</ele>
        <time>2018-10-06T10:47:52.000Z</time>
      </trkpt>
      <trkpt lat="38.12584167" lon="-4.89701833">
        <ele>494.0</ele>
        <time>2018-10-06T10:47:53.000Z</time>
      </trkpt>
      <trkpt lat="38.12584167" lon="-4.89701833">
        <ele>494.0</ele>
        <time>2018-10-06T10:47:54.000Z</time>
      </trkpt>
      <trkpt lat="38.12584167" lon="-4.89701833">
        <ele>494.0</ele>
        <time>2018-10-06T10:47:55.000Z</time>
      </trkpt>
      <trkpt lat="38.12584167" lon="-4.89701833">
        <ele>494.0</ele>
        <time>2018-10-06T10:47:56.000Z</time>
      </trkpt>
      <trkpt lat="38.12584167" lon="-4.89701833">
        <ele>494.0</ele>
        <time>2018-10-06T10:47:57.000Z</time>
      </trkpt>
      <trkpt lat="38.12584167" lon="-4.89701833">
        <ele>494.0</ele>
        <time>2018-10-06T10:47:58.000Z</time>
      </trkpt>
      <trkpt lat="38.12584167" lon="-4.89701833">
        <ele>494.0</ele>
        <time>2018-10-06T10:47:59.000Z</time>
      </trkpt>
      <trkpt lat="38.12584167" lon="-4.89701833">
        <ele>494.0</ele>
        <time>2018-10-06T10:48:00.000Z</time>
      </trkpt>
      <trkpt lat="38.12584167" lon="-4.89701833">
        <ele>494.0</ele>
        <time>2018-10-06T10:48:01.000Z</time>
      </trkpt>
      <trkpt lat="38.12584167" lon="-4.89701833">
        <ele>494.0</ele>
        <time>2018-10-06T10:48:02.000Z</time>
      </trkpt>
      <trkpt lat="38.12584167" lon="-4.89701833">
        <ele>494.0</ele>
        <time>2018-10-06T10:48:03.000Z</time>
      </trkpt>
      <trkpt lat="38.12584167" lon="-4.89701833">
        <ele>494.0</ele>
        <time>2018-10-06T10:48:04.000Z</time>
      </trkpt>
      <trkpt lat="38.12584167" lon="-4.89701833">
        <ele>494.0</ele>
        <time>2018-10-06T10:48:05.000Z</time>
      </trkpt>
      <trkpt lat="38.12584167" lon="-4.89701833">
        <ele>494.0</ele>
        <time>2018-10-06T10:48:06.000Z</time>
      </trkpt>
      <trkpt lat="38.12584167" lon="-4.89701833">
        <ele>494.0</ele>
        <time>2018-10-06T10:48:07.000Z</time>
      </trkpt>
      <trkpt lat="38.12584167" lon="-4.89701833">
        <ele>494.0</ele>
        <time>2018-10-06T10:48:08.000Z</time>
      </trkpt>
      <trkpt lat="38.12584167" lon="-4.89701833">
        <ele>494.0</ele>
        <time>2018-10-06T10:48:09.000Z</time>
      </trkpt>
      <trkpt lat="38.12584167" lon="-4.89701833">
        <ele>494.0</ele>
        <time>2018-10-06T10:48:10.000Z</time>
      </trkpt>
      <trkpt lat="38.12584167" lon="-4.89701833">
        <ele>494.0</ele>
        <time>2018-10-06T10:48:11.000Z</time>
      </trkpt>
      <trkpt lat="38.12584167" lon="-4.89701833">
        <ele>494.0</ele>
        <time>2018-10-06T10:48:12.000Z</time>
      </trkpt>
      <trkpt lat="38.12584167" lon="-4.89701833">
        <ele>494.0</ele>
        <time>2018-10-06T10:48:13.000Z</time>
      </trkpt>
      <trkpt lat="38.12584167" lon="-4.89701833">
        <ele>494.0</ele>
        <time>2018-10-06T10:48:14.000Z</time>
      </trkpt>
      <trkpt lat="38.12584167" lon="-4.89701833">
        <ele>494.0</ele>
        <time>2018-10-06T10:48:15.000Z</time>
      </trkpt>
      <trkpt lat="38.12584167" lon="-4.89701833">
        <ele>494.0</ele>
        <time>2018-10-06T10:48:16.000Z</time>
      </trkpt>
      <trkpt lat="38.12584167" lon="-4.89701833">
        <ele>494.0</ele>
        <time>2018-10-06T10:48:17.000Z</time>
      </trkpt>
      <trkpt lat="38.12584167" lon="-4.89701833">
        <ele>494.0</ele>
        <time>2018-10-06T10:48:18.000Z</time>
      </trkpt>
      <trkpt lat="38.12584167" lon="-4.89701833">
        <ele>494.0</ele>
        <time>2018-10-06T10:48:19.000Z</time>
      </trkpt>
      <trkpt lat="38.12584167" lon="-4.89701833">
        <ele>494.0</ele>
        <time>2018-10-06T10:48:20.000Z</time>
      </trkpt>
      <trkpt lat="38.12584167" lon="-4.89701833">
        <ele>494.0</ele>
        <time>2018-10-06T10:48:21.000Z</time>
      </trkpt>
      <trkpt lat="38.12584167" lon="-4.89701833">
        <ele>494.0</ele>
        <time>2018-10-06T10:48:22.000Z</time>
      </trkpt>
      <trkpt lat="38.12584167" lon="-4.89701833">
        <ele>494.0</ele>
        <time>2018-10-06T10:48:23.000Z</time>
      </trkpt>
      <trkpt lat="38.12584167" lon="-4.89701833">
        <ele>494.0</ele>
        <time>2018-10-06T10:48:24.000Z</time>
      </trkpt>
      <trkpt lat="38.12584167" lon="-4.89701833">
        <ele>494.0</ele>
        <time>2018-10-06T10:48:25.000Z</time>
      </trkpt>
      <trkpt lat="38.12584167" lon="-4.89701833">
        <ele>494.0</ele>
        <time>2018-10-06T10:48:26.000Z</time>
      </trkpt>
      <trkpt lat="38.12584167" lon="-4.89701833">
        <ele>494.0</ele>
        <time>2018-10-06T10:48:27.000Z</time>
      </trkpt>
      <trkpt lat="38.12584167" lon="-4.89701833">
        <ele>494.0</ele>
        <time>2018-10-06T10:48:28.000Z</time>
      </trkpt>
      <trkpt lat="38.12584167" lon="-4.89701833">
        <ele>494.0</ele>
        <time>2018-10-06T10:48:29.000Z</time>
      </trkpt>
      <trkpt lat="38.12584167" lon="-4.89701833">
        <ele>494.0</ele>
        <time>2018-10-06T10:48:30.000Z</time>
      </trkpt>
      <trkpt lat="38.12584167" lon="-4.89701833">
        <ele>494.0</ele>
        <time>2018-10-06T10:48:31.000Z</time>
      </trkpt>
      <trkpt lat="38.12584167" lon="-4.89701833">
        <ele>494.0</ele>
        <time>2018-10-06T10:48:32.000Z</time>
      </trkpt>
      <trkpt lat="38.12584167" lon="-4.89701833">
        <ele>494.0</ele>
        <time>2018-10-06T10:48:33.000Z</time>
      </trkpt>
      <trkpt lat="38.12584167" lon="-4.89701833">
        <ele>494.0</ele>
        <time>2018-10-06T10:48:34.000Z</time>
      </trkpt>
      <trkpt lat="38.12584167" lon="-4.89701833">
        <ele>494.0</ele>
        <time>2018-10-06T10:48:35.000Z</time>
      </trkpt>
      <trkpt lat="38.12584167" lon="-4.89701833">
        <ele>494.0</ele>
        <time>2018-10-06T10:48:36.000Z</time>
      </trkpt>
      <trkpt lat="38.12584167" lon="-4.89701833">
        <ele>494.0</ele>
        <time>2018-10-06T10:48:37.000Z</time>
      </trkpt>
      <trkpt lat="38.12632167" lon="-4.89750667">
        <ele>499.0</ele>
        <time>2018-10-06T10:48:38.000Z</time>
      </trkpt>
      <trkpt lat="38.12634" lon="-4.89751833">
        <ele>499.0</ele>
        <time>2018-10-06T10:48:39.000Z</time>
      </trkpt>
      <trkpt lat="38.12634833" lon="-4.897525">
        <ele>498.0</ele>
        <time>2018-10-06T10:48:40.000Z</time>
      </trkpt>
      <trkpt lat="38.12636" lon="-4.89753667">
        <ele>498.0</ele>
        <time>2018-10-06T10:48:41.000Z</time>
      </trkpt>
      <trkpt lat="38.12637167" lon="-4.89754833">
        <ele>498.0</ele>
        <time>2018-10-06T10:48:42.000Z</time>
      </trkpt>
      <trkpt lat="38.12638333" lon="-4.89756">
        <ele>497.0</ele>
        <time>2018-10-06T10:48:43.000Z</time>
      </trkpt>
      <trkpt lat="38.126395" lon="-4.89757">
        <ele>497.0</ele>
        <time>2018-10-06T10:48:44.000Z</time>
      </trkpt>
      <trkpt lat="38.126405" lon="-4.89758167">
        <ele>497.0</ele>
        <time>2018-10-06T10:48:45.000Z</time>
      </trkpt>
      <trkpt lat="38.126415" lon="-4.89759167">
        <ele>497.0</ele>
        <time>2018-10-06T10:48:46.000Z</time>
      </trkpt>
      <trkpt lat="38.12642333" lon="-4.89760167">
        <ele>496.0</ele>
        <time>2018-10-06T10:48:47.000Z</time>
      </trkpt>
      <trkpt lat="38.12643" lon="-4.89761167">
        <ele>496.0</ele>
        <time>2018-10-06T10:48:48.000Z</time>
      </trkpt>
      <trkpt lat="38.126435" lon="-4.89762">
        <ele>496.0</ele>
        <time>2018-10-06T10:48:49.000Z</time>
      </trkpt>
      <trkpt lat="38.12643667" lon="-4.897625">
        <ele>496.0</ele>
        <time>2018-10-06T10:48:50.000Z</time>
      </trkpt>
      <trkpt lat="38.12643667" lon="-4.897625">
        <ele>496.0</ele>
        <time>2018-10-06T10:48:51.000Z</time>
      </trkpt>
      <trkpt lat="38.12643667" lon="-4.897625">
        <ele>496.0</ele>
        <time>2018-10-06T10:48:52.000Z</time>
      </trkpt>
      <trkpt lat="38.12643667" lon="-4.897625">
        <ele>496.0</ele>
        <time>2018-10-06T10:48:53.000Z</time>
      </trkpt>
      <trkpt lat="38.12643667" lon="-4.897625">
        <ele>496.0</ele>
        <time>2018-10-06T10:48:54.000Z</time>
      </trkpt>
      <trkpt lat="38.12643667" lon="-4.897625">
        <ele>496.0</ele>
        <time>2018-10-06T10:48:55.000Z</time>
      </trkpt>
      <trkpt lat="38.12643667" lon="-4.897625">
        <ele>496.0</ele>
        <time>2018-10-06T10:48:56.000Z</time>
      </trkpt>
      <trkpt lat="38.12643833" lon="-4.89764333">
        <ele>499.0</ele>
        <time>2018-10-06T10:48:57.000Z</time>
      </trkpt>
      <trkpt lat="38.12643667" lon="-4.89764">
        <ele>499.0</ele>
        <time>2018-10-06T10:48:58.000Z</time>
      </trkpt>
      <trkpt lat="38.12643667" lon="-4.89763833">
        <ele>499.0</ele>
        <time>2018-10-06T10:48:59.000Z</time>
      </trkpt>
      <trkpt lat="38.12643833" lon="-4.89763667">
        <ele>499.0</ele>
        <time>2018-10-06T10:49:00.000Z</time>
      </trkpt>
      <trkpt lat="38.12643833" lon="-4.89763667">
        <ele>499.0</ele>
        <time>2018-10-06T10:49:01.000Z</time>
      </trkpt>
      <trkpt lat="38.12644" lon="-4.89763667">
        <ele>498.0</ele>
        <time>2018-10-06T10:49:02.000Z</time>
      </trkpt>
      <trkpt lat="38.12643833" lon="-4.897635">
        <ele>498.0</ele>
        <time>2018-10-06T10:49:03.000Z</time>
      </trkpt>
      <trkpt lat="38.12644" lon="-4.897635">
        <ele>498.0</ele>
        <time>2018-10-06T10:49:04.000Z</time>
      </trkpt>
      <trkpt lat="38.12644167" lon="-4.897635">
        <ele>498.0</ele>
        <time>2018-10-06T10:49:05.000Z</time>
      </trkpt>
      <trkpt lat="38.12644333" lon="-4.897635">
        <ele>498.0</ele>
        <time>2018-10-06T10:49:06.000Z</time>
      </trkpt>
      <trkpt lat="38.12644333" lon="-4.897635">
        <ele>498.0</ele>
        <time>2018-10-06T10:49:07.000Z</time>
      </trkpt>
      <trkpt lat="38.126445" lon="-4.897635">
        <ele>498.0</ele>
        <time>2018-10-06T10:49:08.000Z</time>
      </trkpt>
      <trkpt lat="38.126445" lon="-4.897635">
        <ele>498.0</ele>
        <time>2018-10-06T10:49:09.000Z</time>
      </trkpt>
      <trkpt lat="38.126445" lon="-4.897635">
        <ele>498.0</ele>
        <time>2018-10-06T10:49:10.000Z</time>
      </trkpt>
      <trkpt lat="38.126445" lon="-4.897635">
        <ele>498.0</ele>
        <time>2018-10-06T10:49:11.000Z</time>
      </trkpt>
      <trkpt lat="38.126445" lon="-4.897635">
        <ele>498.0</ele>
        <time>2018-10-06T10:49:12.000Z</time>
      </trkpt>
      <trkpt lat="38.126445" lon="-4.897635">
        <ele>498.0</ele>
        <time>2018-10-06T10:49:13.000Z</time>
      </trkpt>
      <trkpt lat="38.126445" lon="-4.897635">
        <ele>498.0</ele>
        <time>2018-10-06T10:49:14.000Z</time>
      </trkpt>
      <trkpt lat="38.126445" lon="-4.897635">
        <ele>498.0</ele>
        <time>2018-10-06T10:49:15.000Z</time>
      </trkpt>
      <trkpt lat="38.126445" lon="-4.897635">
        <ele>498.0</ele>
        <time>2018-10-06T10:49:16.000Z</time>
      </trkpt>
      <trkpt lat="38.126445" lon="-4.897635">
        <ele>498.0</ele>
        <time>2018-10-06T10:49:17.000Z</time>
      </trkpt>
      <trkpt lat="38.126445" lon="-4.897635">
        <ele>498.0</ele>
        <time>2018-10-06T10:49:18.000Z</time>
      </trkpt>
      <trkpt lat="38.126445" lon="-4.897635">
        <ele>498.0</ele>
        <time>2018-10-06T10:49:19.000Z</time>
      </trkpt>
      <trkpt lat="38.126445" lon="-4.897635">
        <ele>498.0</ele>
        <time>2018-10-06T10:49:20.000Z</time>
      </trkpt>
      <trkpt lat="38.126445" lon="-4.897635">
        <ele>498.0</ele>
        <time>2018-10-06T10:49:21.000Z</time>
      </trkpt>
      <trkpt lat="38.126445" lon="-4.897635">
        <ele>498.0</ele>
        <time>2018-10-06T10:49:22.000Z</time>
      </trkpt>
      <trkpt lat="38.126445" lon="-4.897635">
        <ele>498.0</ele>
        <time>2018-10-06T10:49:23.000Z</time>
      </trkpt>
      <trkpt lat="38.126445" lon="-4.897635">
        <ele>498.0</ele>
        <time>2018-10-06T10:49:24.000Z</time>
      </trkpt>
      <trkpt lat="38.126445" lon="-4.897635">
        <ele>498.0</ele>
        <time>2018-10-06T10:49:25.000Z</time>
      </trkpt>
      <trkpt lat="38.126445" lon="-4.897635">
        <ele>498.0</ele>
        <time>2018-10-06T10:49:26.000Z</time>
      </trkpt>
      <trkpt lat="38.126445" lon="-4.897635">
        <ele>498.0</ele>
        <time>2018-10-06T10:49:27.000Z</time>
      </trkpt>
      <trkpt lat="38.126445" lon="-4.897635">
        <ele>498.0</ele>
        <time>2018-10-06T10:49:28.000Z</time>
      </trkpt>
      <trkpt lat="38.126445" lon="-4.897635">
        <ele>498.0</ele>
        <time>2018-10-06T10:49:29.000Z</time>
      </trkpt>
      <trkpt lat="38.126445" lon="-4.897635">
        <ele>498.0</ele>
        <time>2018-10-06T10:49:30.000Z</time>
      </trkpt>
      <trkpt lat="38.126445" lon="-4.897635">
        <ele>498.0</ele>
        <time>2018-10-06T10:49:31.000Z</time>
      </trkpt>
      <trkpt lat="38.126445" lon="-4.897635">
        <ele>498.0</ele>
        <time>2018-10-06T10:49:32.000Z</time>
      </trkpt>
      <trkpt lat="38.126445" lon="-4.897635">
        <ele>498.0</ele>
        <time>2018-10-06T10:49:33.000Z</time>
      </trkpt>
      <trkpt lat="38.126445" lon="-4.897635">
        <ele>498.0</ele>
        <time>2018-10-06T10:49:34.000Z</time>
      </trkpt>
      <trkpt lat="38.126445" lon="-4.897635">
        <ele>498.0</ele>
        <time>2018-10-06T10:49:35.000Z</time>
      </trkpt>
      <trkpt lat="38.126445" lon="-4.897635">
        <ele>498.0</ele>
        <time>2018-10-06T10:49:36.000Z</time>
      </trkpt>
      <trkpt lat="38.126445" lon="-4.897635">
        <ele>498.0</ele>
        <time>2018-10-06T10:49:37.000Z</time>
      </trkpt>
      <trkpt lat="38.126445" lon="-4.897635">
        <ele>498.0</ele>
        <time>2018-10-06T10:49:38.000Z</time>
      </trkpt>
      <trkpt lat="38.126445" lon="-4.897635">
        <ele>498.0</ele>
        <time>2018-10-06T10:49:39.000Z</time>
      </trkpt>
      <trkpt lat="38.126445" lon="-4.897635">
        <ele>498.0</ele>
        <time>2018-10-06T10:49:40.000Z</time>
      </trkpt>
      <trkpt lat="38.126445" lon="-4.897635">
        <ele>498.0</ele>
        <time>2018-10-06T10:49:41.000Z</time>
      </trkpt>
      <trkpt lat="38.126445" lon="-4.897635">
        <ele>498.0</ele>
        <time>2018-10-06T10:49:42.000Z</time>
      </trkpt>
      <trkpt lat="38.126445" lon="-4.897635">
        <ele>498.0</ele>
        <time>2018-10-06T10:49:43.000Z</time>
      </trkpt>
      <trkpt lat="38.126445" lon="-4.897635">
        <ele>498.0</ele>
        <time>2018-10-06T10:49:44.000Z</time>
      </trkpt>
      <trkpt lat="38.126445" lon="-4.897635">
        <ele>498.0</ele>
        <time>2018-10-06T10:49:45.000Z</time>
      </trkpt>
      <trkpt lat="38.126445" lon="-4.897635">
        <ele>498.0</ele>
        <time>2018-10-06T10:49:46.000Z</time>
      </trkpt>
      <trkpt lat="38.126445" lon="-4.897635">
        <ele>498.0</ele>
        <time>2018-10-06T10:49:47.000Z</time>
      </trkpt>
      <trkpt lat="38.126445" lon="-4.897635">
        <ele>498.0</ele>
        <time>2018-10-06T10:49:48.000Z</time>
      </trkpt>
      <trkpt lat="38.126445" lon="-4.897635">
        <ele>498.0</ele>
        <time>2018-10-06T10:49:49.000Z</time>
      </trkpt>
      <trkpt lat="38.126445" lon="-4.897635">
        <ele>498.0</ele>
        <time>2018-10-06T10:49:50.000Z</time>
      </trkpt>
      <trkpt lat="38.126445" lon="-4.897635">
        <ele>498.0</ele>
        <time>2018-10-06T10:49:51.000Z</time>
      </trkpt>
      <trkpt lat="38.126445" lon="-4.897635">
        <ele>498.0</ele>
        <time>2018-10-06T10:49:52.000Z</time>
      </trkpt>
      <trkpt lat="38.126445" lon="-4.897635">
        <ele>498.0</ele>
        <time>2018-10-06T10:49:53.000Z</time>
      </trkpt>
      <trkpt lat="38.126445" lon="-4.897635">
        <ele>498.0</ele>
        <time>2018-10-06T10:49:54.000Z</time>
      </trkpt>
      <trkpt lat="38.126445" lon="-4.897635">
        <ele>498.0</ele>
        <time>2018-10-06T10:49:55.000Z</time>
      </trkpt>
      <trkpt lat="38.126445" lon="-4.897635">
        <ele>498.0</ele>
        <time>2018-10-06T10:49:56.000Z</time>
      </trkpt>
      <trkpt lat="38.12651167" lon="-4.897625">
        <ele>501.0</ele>
        <time>2018-10-06T10:49:57.000Z</time>
      </trkpt>
      <trkpt lat="38.12650833" lon="-4.89762833">
        <ele>500.0</ele>
        <time>2018-10-06T10:49:58.000Z</time>
      </trkpt>
      <trkpt lat="38.12650167" lon="-4.89763333">
        <ele>500.0</ele>
        <time>2018-10-06T10:49:59.000Z</time>
      </trkpt>
      <trkpt lat="38.1265" lon="-4.89763667">
        <ele>500.0</ele>
        <time>2018-10-06T10:50:00.000Z</time>
      </trkpt>
      <trkpt lat="38.12649833" lon="-4.89763667">
        <ele>500.0</ele>
        <time>2018-10-06T10:50:01.000Z</time>
      </trkpt>
      <trkpt lat="38.126495" lon="-4.89763667">
        <ele>500.0</ele>
        <time>2018-10-06T10:50:02.000Z</time>
      </trkpt>
      <trkpt lat="38.12649333" lon="-4.89763667">
        <ele>500.0</ele>
        <time>2018-10-06T10:50:03.000Z</time>
      </trkpt>
      <trkpt lat="38.12649167" lon="-4.89763667">
        <ele>499.0</ele>
        <time>2018-10-06T10:50:04.000Z</time>
      </trkpt>
      <trkpt lat="38.12649" lon="-4.89763833">
        <ele>499.0</ele>
        <time>2018-10-06T10:50:05.000Z</time>
      </trkpt>
      <trkpt lat="38.12648667" lon="-4.89763833">
        <ele>499.0</ele>
        <time>2018-10-06T10:50:06.000Z</time>
      </trkpt>
      <trkpt lat="38.126485" lon="-4.89763833">
        <ele>499.0</ele>
        <time>2018-10-06T10:50:07.000Z</time>
      </trkpt>
      <trkpt lat="38.12648333" lon="-4.89764">
        <ele>498.0</ele>
        <time>2018-10-06T10:50:08.000Z</time>
      </trkpt>
      <trkpt lat="38.12648333" lon="-4.89764">
        <ele>498.0</ele>
        <time>2018-10-06T10:50:09.000Z</time>
      </trkpt>
      <trkpt lat="38.12648333" lon="-4.89764">
        <ele>498.0</ele>
        <time>2018-10-06T10:50:10.000Z</time>
      </trkpt>
      <trkpt lat="38.12648333" lon="-4.89764">
        <ele>498.0</ele>
        <time>2018-10-06T10:50:11.000Z</time>
      </trkpt>
      <trkpt lat="38.12648333" lon="-4.89764">
        <ele>498.0</ele>
        <time>2018-10-06T10:50:12.000Z</time>
      </trkpt>
      <trkpt lat="38.12648333" lon="-4.89764">
        <ele>498.0</ele>
        <time>2018-10-06T10:50:13.000Z</time>
      </trkpt>
      <trkpt lat="38.12648333" lon="-4.89764">
        <ele>498.0</ele>
        <time>2018-10-06T10:50:14.000Z</time>
      </trkpt>
      <trkpt lat="38.12648333" lon="-4.89764">
        <ele>498.0</ele>
        <time>2018-10-06T10:50:15.000Z</time>
      </trkpt>
      <trkpt lat="38.12648333" lon="-4.89764">
        <ele>498.0</ele>
        <time>2018-10-06T10:50:16.000Z</time>
      </trkpt>
      <trkpt lat="38.12648333" lon="-4.89764">
        <ele>498.0</ele>
        <time>2018-10-06T10:50:17.000Z</time>
      </trkpt>
      <trkpt lat="38.12648333" lon="-4.89764">
        <ele>498.0</ele>
        <time>2018-10-06T10:50:18.000Z</time>
      </trkpt>
      <trkpt lat="38.12648333" lon="-4.89764">
        <ele>498.0</ele>
        <time>2018-10-06T10:50:19.000Z</time>
      </trkpt>
      <trkpt lat="38.12648333" lon="-4.89764">
        <ele>498.0</ele>
        <time>2018-10-06T10:50:20.000Z</time>
      </trkpt>
      <trkpt lat="38.12648333" lon="-4.89764">
        <ele>498.0</ele>
        <time>2018-10-06T10:50:21.000Z</time>
      </trkpt>
      <trkpt lat="38.12648333" lon="-4.89764">
        <ele>498.0</ele>
        <time>2018-10-06T10:50:22.000Z</time>
      </trkpt>
      <trkpt lat="38.12648333" lon="-4.89764">
        <ele>498.0</ele>
        <time>2018-10-06T10:50:23.000Z</time>
      </trkpt>
      <trkpt lat="38.12648333" lon="-4.89764">
        <ele>498.0</ele>
        <time>2018-10-06T10:50:24.000Z</time>
      </trkpt>
      <trkpt lat="38.12648333" lon="-4.89764">
        <ele>498.0</ele>
        <time>2018-10-06T10:50:25.000Z</time>
      </trkpt>
      <trkpt lat="38.12648333" lon="-4.89764">
        <ele>498.0</ele>
        <time>2018-10-06T10:50:26.000Z</time>
      </trkpt>
      <trkpt lat="38.12648333" lon="-4.89764">
        <ele>498.0</ele>
        <time>2018-10-06T10:50:27.000Z</time>
      </trkpt>
      <trkpt lat="38.12648333" lon="-4.89764">
        <ele>498.0</ele>
        <time>2018-10-06T10:50:28.000Z</time>
      </trkpt>
      <trkpt lat="38.12648333" lon="-4.89764">
        <ele>498.0</ele>
        <time>2018-10-06T10:50:29.000Z</time>
      </trkpt>
      <trkpt lat="38.12648333" lon="-4.89764">
        <ele>498.0</ele>
        <time>2018-10-06T10:50:30.000Z</time>
      </trkpt>
      <trkpt lat="38.12648333" lon="-4.89764">
        <ele>498.0</ele>
        <time>2018-10-06T10:50:31.000Z</time>
      </trkpt>
      <trkpt lat="38.12648333" lon="-4.89764">
        <ele>498.0</ele>
        <time>2018-10-06T10:50:32.000Z</time>
      </trkpt>
      <trkpt lat="38.12648333" lon="-4.89764">
        <ele>498.0</ele>
        <time>2018-10-06T10:50:33.000Z</time>
      </trkpt>
      <trkpt lat="38.12648333" lon="-4.89764">
        <ele>498.0</ele>
        <time>2018-10-06T10:50:34.000Z</time>
      </trkpt>
      <trkpt lat="38.12648333" lon="-4.89764">
        <ele>498.0</ele>
        <time>2018-10-06T10:50:35.000Z</time>
      </trkpt>
      <trkpt lat="38.12648333" lon="-4.89764">
        <ele>498.0</ele>
        <time>2018-10-06T10:50:36.000Z</time>
      </trkpt>
      <trkpt lat="38.12648333" lon="-4.89764">
        <ele>498.0</ele>
        <time>2018-10-06T10:50:37.000Z</time>
      </trkpt>
      <trkpt lat="38.12648333" lon="-4.89764">
        <ele>498.0</ele>
        <time>2018-10-06T10:50:38.000Z</time>
      </trkpt>
      <trkpt lat="38.12648333" lon="-4.89764">
        <ele>498.0</ele>
        <time>2018-10-06T10:50:39.000Z</time>
      </trkpt>
      <trkpt lat="38.12648333" lon="-4.89764">
        <ele>498.0</ele>
        <time>2018-10-06T10:50:40.000Z</time>
      </trkpt>
      <trkpt lat="38.12648333" lon="-4.89764">
        <ele>498.0</ele>
        <time>2018-10-06T10:50:41.000Z</time>
      </trkpt>
      <trkpt lat="38.12648333" lon="-4.89764">
        <ele>498.0</ele>
        <time>2018-10-06T10:50:42.000Z</time>
      </trkpt>
      <trkpt lat="38.12648333" lon="-4.89764">
        <ele>498.0</ele>
        <time>2018-10-06T10:50:43.000Z</time>
      </trkpt>
      <trkpt lat="38.12648333" lon="-4.89764">
        <ele>498.0</ele>
        <time>2018-10-06T10:50:44.000Z</time>
      </trkpt>
      <trkpt lat="38.12648333" lon="-4.89764">
        <ele>498.0</ele>
        <time>2018-10-06T10:50:45.000Z</time>
      </trkpt>
      <trkpt lat="38.12648333" lon="-4.89764">
        <ele>498.0</ele>
        <time>2018-10-06T10:50:46.000Z</time>
      </trkpt>
      <trkpt lat="38.12648333" lon="-4.89764">
        <ele>498.0</ele>
        <time>2018-10-06T10:50:47.000Z</time>
      </trkpt>
      <trkpt lat="38.12648333" lon="-4.89764">
        <ele>498.0</ele>
        <time>2018-10-06T10:50:48.000Z</time>
      </trkpt>
      <trkpt lat="38.12648333" lon="-4.89764">
        <ele>498.0</ele>
        <time>2018-10-06T10:50:49.000Z</time>
      </trkpt>
      <trkpt lat="38.12648333" lon="-4.89764">
        <ele>498.0</ele>
        <time>2018-10-06T10:50:50.000Z</time>
      </trkpt>
      <trkpt lat="38.12648333" lon="-4.89764">
        <ele>498.0</ele>
        <time>2018-10-06T10:50:51.000Z</time>
      </trkpt>
      <trkpt lat="38.12648333" lon="-4.89764">
        <ele>498.0</ele>
        <time>2018-10-06T10:50:52.000Z</time>
      </trkpt>
      <trkpt lat="38.12648333" lon="-4.89764">
        <ele>498.0</ele>
        <time>2018-10-06T10:50:53.000Z</time>
      </trkpt>
      <trkpt lat="38.12648333" lon="-4.89764">
        <ele>498.0</ele>
        <time>2018-10-06T10:50:54.000Z</time>
      </trkpt>
      <trkpt lat="38.12648333" lon="-4.89764">
        <ele>498.0</ele>
        <time>2018-10-06T10:50:55.000Z</time>
      </trkpt>
      <trkpt lat="38.12648333" lon="-4.89764">
        <ele>498.0</ele>
        <time>2018-10-06T10:50:56.000Z</time>
      </trkpt>
      <trkpt lat="38.12653833" lon="-4.89762167">
        <ele>483.0</ele>
        <time>2018-10-06T10:50:57.000Z</time>
      </trkpt>
      <trkpt lat="38.12655167" lon="-4.89763167">
        <ele>483.0</ele>
        <time>2018-10-06T10:50:58.000Z</time>
      </trkpt>
      <trkpt lat="38.126565" lon="-4.897645">
        <ele>484.0</ele>
        <time>2018-10-06T10:50:59.000Z</time>
      </trkpt>
      <trkpt lat="38.12657667" lon="-4.89765667">
        <ele>485.0</ele>
        <time>2018-10-06T10:51:00.000Z</time>
      </trkpt>
      <trkpt lat="38.12658833" lon="-4.89767">
        <ele>485.0</ele>
        <time>2018-10-06T10:51:01.000Z</time>
      </trkpt>
      <trkpt lat="38.1266" lon="-4.89768167">
        <ele>486.0</ele>
        <time>2018-10-06T10:51:02.000Z</time>
      </trkpt>
      <trkpt lat="38.12661167" lon="-4.897695">
        <ele>487.0</ele>
        <time>2018-10-06T10:51:03.000Z</time>
      </trkpt>
      <trkpt lat="38.12662333" lon="-4.89770833">
        <ele>487.0</ele>
        <time>2018-10-06T10:51:04.000Z</time>
      </trkpt>
      <trkpt lat="38.12663333" lon="-4.89772167">
        <ele>488.0</ele>
        <time>2018-10-06T10:51:05.000Z</time>
      </trkpt>
      <trkpt lat="38.12664333" lon="-4.89773333">
        <ele>488.0</ele>
        <time>2018-10-06T10:51:06.000Z</time>
      </trkpt>
      <trkpt lat="38.12665333" lon="-4.89774333">
        <ele>489.0</ele>
        <time>2018-10-06T10:51:07.000Z</time>
      </trkpt>
      <trkpt lat="38.12666333" lon="-4.89775333">
        <ele>489.0</ele>
        <time>2018-10-06T10:51:08.000Z</time>
      </trkpt>
      <trkpt lat="38.12666333" lon="-4.89775333">
        <ele>489.0</ele>
        <time>2018-10-06T10:51:09.000Z</time>
      </trkpt>
      <trkpt lat="38.12666333" lon="-4.89775333">
        <ele>489.0</ele>
        <time>2018-10-06T10:51:10.000Z</time>
      </trkpt>
      <trkpt lat="38.12666333" lon="-4.89775333">
        <ele>489.0</ele>
        <time>2018-10-06T10:51:11.000Z</time>
      </trkpt>
      <trkpt lat="38.12666333" lon="-4.89775333">
        <ele>489.0</ele>
        <time>2018-10-06T10:51:12.000Z</time>
      </trkpt>
      <trkpt lat="38.12666333" lon="-4.89775333">
        <ele>489.0</ele>
        <time>2018-10-06T10:51:13.000Z</time>
      </trkpt>
      <trkpt lat="38.12666333" lon="-4.89775333">
        <ele>489.0</ele>
        <time>2018-10-06T10:51:14.000Z</time>
      </trkpt>
      <trkpt lat="38.12666333" lon="-4.89775333">
        <ele>489.0</ele>
        <time>2018-10-06T10:51:15.000Z</time>
      </trkpt>
      <trkpt lat="38.12666333" lon="-4.89775333">
        <ele>489.0</ele>
        <time>2018-10-06T10:51:16.000Z</time>
      </trkpt>
      <trkpt lat="38.12666333" lon="-4.89775333">
        <ele>489.0</ele>
        <time>2018-10-06T10:51:17.000Z</time>
      </trkpt>
      <trkpt lat="38.12666333" lon="-4.89775333">
        <ele>489.0</ele>
        <time>2018-10-06T10:51:18.000Z</time>
      </trkpt>
      <trkpt lat="38.12666333" lon="-4.89775333">
        <ele>489.0</ele>
        <time>2018-10-06T10:51:19.000Z</time>
      </trkpt>
      <trkpt lat="38.12666333" lon="-4.89775333">
        <ele>489.0</ele>
        <time>2018-10-06T10:51:20.000Z</time>
      </trkpt>
      <trkpt lat="38.12666333" lon="-4.89775333">
        <ele>489.0</ele>
        <time>2018-10-06T10:51:21.000Z</time>
      </trkpt>
      <trkpt lat="38.12666333" lon="-4.89775333">
        <ele>489.0</ele>
        <time>2018-10-06T10:51:22.000Z</time>
      </trkpt>
      <trkpt lat="38.12666333" lon="-4.89775333">
        <ele>489.0</ele>
        <time>2018-10-06T10:51:23.000Z</time>
      </trkpt>
      <trkpt lat="38.12666333" lon="-4.89775333">
        <ele>489.0</ele>
        <time>2018-10-06T10:51:24.000Z</time>
      </trkpt>
      <trkpt lat="38.12666333" lon="-4.89775333">
        <ele>489.0</ele>
        <time>2018-10-06T10:51:25.000Z</time>
      </trkpt>
      <trkpt lat="38.12666333" lon="-4.89775333">
        <ele>489.0</ele>
        <time>2018-10-06T10:51:26.000Z</time>
      </trkpt>
      <trkpt lat="38.12666333" lon="-4.89775333">
        <ele>489.0</ele>
        <time>2018-10-06T10:51:27.000Z</time>
      </trkpt>
      <trkpt lat="38.12666333" lon="-4.89775333">
        <ele>489.0</ele>
        <time>2018-10-06T10:51:28.000Z</time>
      </trkpt>
      <trkpt lat="38.12666333" lon="-4.89775333">
        <ele>489.0</ele>
        <time>2018-10-06T10:51:29.000Z</time>
      </trkpt>
      <trkpt lat="38.12666333" lon="-4.89775333">
        <ele>489.0</ele>
        <time>2018-10-06T10:51:30.000Z</time>
      </trkpt>
      <trkpt lat="38.12666333" lon="-4.89775333">
        <ele>489.0</ele>
        <time>2018-10-06T10:51:31.000Z</time>
      </trkpt>
      <trkpt lat="38.12666333" lon="-4.89775333">
        <ele>489.0</ele>
        <time>2018-10-06T10:51:32.000Z</time>
      </trkpt>
      <trkpt lat="38.12666333" lon="-4.89775333">
        <ele>489.0</ele>
        <time>2018-10-06T10:51:33.000Z</time>
      </trkpt>
      <trkpt lat="38.12666333" lon="-4.89775333">
        <ele>489.0</ele>
        <time>2018-10-06T10:51:34.000Z</time>
      </trkpt>
      <trkpt lat="38.12666333" lon="-4.89775333">
        <ele>489.0</ele>
        <time>2018-10-06T10:51:35.000Z</time>
      </trkpt>
      <trkpt lat="38.12666333" lon="-4.89775333">
        <ele>489.0</ele>
        <time>2018-10-06T10:51:36.000Z</time>
      </trkpt>
      <trkpt lat="38.12666333" lon="-4.89775333">
        <ele>489.0</ele>
        <time>2018-10-06T10:51:37.000Z</time>
      </trkpt>
      <trkpt lat="38.12666333" lon="-4.89775333">
        <ele>489.0</ele>
        <time>2018-10-06T10:51:38.000Z</time>
      </trkpt>
      <trkpt lat="38.12666333" lon="-4.89775333">
        <ele>489.0</ele>
        <time>2018-10-06T10:51:39.000Z</time>
      </trkpt>
      <trkpt lat="38.12666333" lon="-4.89775333">
        <ele>489.0</ele>
        <time>2018-10-06T10:51:40.000Z</time>
      </trkpt>
      <trkpt lat="38.12666333" lon="-4.89775333">
        <ele>489.0</ele>
        <time>2018-10-06T10:51:41.000Z</time>
      </trkpt>
      <trkpt lat="38.12666333" lon="-4.89775333">
        <ele>489.0</ele>
        <time>2018-10-06T10:51:42.000Z</time>
      </trkpt>
      <trkpt lat="38.12666333" lon="-4.89775333">
        <ele>489.0</ele>
        <time>2018-10-06T10:51:43.000Z</time>
      </trkpt>
      <trkpt lat="38.12666333" lon="-4.89775333">
        <ele>489.0</ele>
        <time>2018-10-06T10:51:44.000Z</time>
      </trkpt>
      <trkpt lat="38.12666333" lon="-4.89775333">
        <ele>489.0</ele>
        <time>2018-10-06T10:51:45.000Z</time>
      </trkpt>
      <trkpt lat="38.12666333" lon="-4.89775333">
        <ele>489.0</ele>
        <time>2018-10-06T10:51:46.000Z</time>
      </trkpt>
      <trkpt lat="38.12666333" lon="-4.89775333">
        <ele>489.0</ele>
        <time>2018-10-06T10:51:47.000Z</time>
      </trkpt>
      <trkpt lat="38.12666333" lon="-4.89775333">
        <ele>489.0</ele>
        <time>2018-10-06T10:51:48.000Z</time>
      </trkpt>
      <trkpt lat="38.12666333" lon="-4.89775333">
        <ele>489.0</ele>
        <time>2018-10-06T10:51:49.000Z</time>
      </trkpt>
      <trkpt lat="38.12666333" lon="-4.89775333">
        <ele>489.0</ele>
        <time>2018-10-06T10:51:50.000Z</time>
      </trkpt>
      <trkpt lat="38.12666333" lon="-4.89775333">
        <ele>489.0</ele>
        <time>2018-10-06T10:51:51.000Z</time>
      </trkpt>
      <trkpt lat="38.12666333" lon="-4.89775333">
        <ele>489.0</ele>
        <time>2018-10-06T10:51:52.000Z</time>
      </trkpt>
      <trkpt lat="38.12695" lon="-4.89798167">
        <ele>499.0</ele>
        <time>2018-10-06T10:51:53.000Z</time>
      </trkpt>
      <trkpt lat="38.12695833" lon="-4.897995">
        <ele>498.0</ele>
        <time>2018-10-06T10:51:54.000Z</time>
      </trkpt>
      <trkpt lat="38.12697" lon="-4.89801">
        <ele>498.0</ele>
        <time>2018-10-06T10:51:55.000Z</time>
      </trkpt>
      <trkpt lat="38.12698167" lon="-4.898025">
        <ele>498.0</ele>
        <time>2018-10-06T10:51:56.000Z</time>
      </trkpt>
      <trkpt lat="38.126995" lon="-4.89803833">
        <ele>498.0</ele>
        <time>2018-10-06T10:51:57.000Z</time>
      </trkpt>
      <trkpt lat="38.12700833" lon="-4.89805333">
        <ele>498.0</ele>
        <time>2018-10-06T10:51:58.000Z</time>
      </trkpt>
      <trkpt lat="38.12702" lon="-4.898065">
        <ele>498.0</ele>
        <time>2018-10-06T10:51:59.000Z</time>
      </trkpt>
      <trkpt lat="38.12703167" lon="-4.89807667">
        <ele>498.0</ele>
        <time>2018-10-06T10:52:00.000Z</time>
      </trkpt>
      <trkpt lat="38.12704167" lon="-4.89808667">
        <ele>498.0</ele>
        <time>2018-10-06T10:52:01.000Z</time>
      </trkpt>
      <trkpt lat="38.127055" lon="-4.89809667">
        <ele>498.0</ele>
        <time>2018-10-06T10:52:02.000Z</time>
      </trkpt>
      <trkpt lat="38.12706667" lon="-4.89810667">
        <ele>498.0</ele>
        <time>2018-10-06T10:52:03.000Z</time>
      </trkpt>
      <trkpt lat="38.12707833" lon="-4.89811667">
        <ele>498.0</ele>
        <time>2018-10-06T10:52:04.000Z</time>
      </trkpt>
      <trkpt lat="38.12707833" lon="-4.89811667">
        <ele>498.0</ele>
        <time>2018-10-06T10:52:05.000Z</time>
      </trkpt>
      <trkpt lat="38.12707833" lon="-4.89811667">
        <ele>498.0</ele>
        <time>2018-10-06T10:52:06.000Z</time>
      </trkpt>
      <trkpt lat="38.12707833" lon="-4.89811667">
        <ele>498.0</ele>
        <time>2018-10-06T10:52:07.000Z</time>
      </trkpt>
      <trkpt lat="38.12707833" lon="-4.89811667">
        <ele>498.0</ele>
        <time>2018-10-06T10:52:08.000Z</time>
      </trkpt>
      <trkpt lat="38.12707833" lon="-4.89811667">
        <ele>498.0</ele>
        <time>2018-10-06T10:52:09.000Z</time>
      </trkpt>
      <trkpt lat="38.12707833" lon="-4.89811667">
        <ele>498.0</ele>
        <time>2018-10-06T10:52:10.000Z</time>
      </trkpt>
      <trkpt lat="38.12707833" lon="-4.89811667">
        <ele>498.0</ele>
        <time>2018-10-06T10:52:11.000Z</time>
      </trkpt>
      <trkpt lat="38.12707833" lon="-4.89811667">
        <ele>498.0</ele>
        <time>2018-10-06T10:52:12.000Z</time>
      </trkpt>
      <trkpt lat="38.12707833" lon="-4.89811667">
        <ele>498.0</ele>
        <time>2018-10-06T10:52:13.000Z</time>
      </trkpt>
      <trkpt lat="38.12707833" lon="-4.89811667">
        <ele>498.0</ele>
        <time>2018-10-06T10:52:14.000Z</time>
      </trkpt>
      <trkpt lat="38.12707833" lon="-4.89811667">
        <ele>498.0</ele>
        <time>2018-10-06T10:52:15.000Z</time>
      </trkpt>
      <trkpt lat="38.12707833" lon="-4.89811667">
        <ele>498.0</ele>
        <time>2018-10-06T10:52:16.000Z</time>
      </trkpt>
      <trkpt lat="38.12707833" lon="-4.89811667">
        <ele>498.0</ele>
        <time>2018-10-06T10:52:17.000Z</time>
      </trkpt>
      <trkpt lat="38.12707833" lon="-4.89811667">
        <ele>498.0</ele>
        <time>2018-10-06T10:52:18.000Z</time>
      </trkpt>
      <trkpt lat="38.12707833" lon="-4.89811667">
        <ele>498.0</ele>
        <time>2018-10-06T10:52:19.000Z</time>
      </trkpt>
      <trkpt lat="38.12707833" lon="-4.89811667">
        <ele>498.0</ele>
        <time>2018-10-06T10:52:20.000Z</time>
      </trkpt>
      <trkpt lat="38.12707833" lon="-4.89811667">
        <ele>498.0</ele>
        <time>2018-10-06T10:52:21.000Z</time>
      </trkpt>
      <trkpt lat="38.12707833" lon="-4.89811667">
        <ele>498.0</ele>
        <time>2018-10-06T10:52:22.000Z</time>
      </trkpt>
      <trkpt lat="38.12707833" lon="-4.89811667">
        <ele>498.0</ele>
        <time>2018-10-06T10:52:23.000Z</time>
      </trkpt>
      <trkpt lat="38.12707833" lon="-4.89811667">
        <ele>498.0</ele>
        <time>2018-10-06T10:52:24.000Z</time>
      </trkpt>
      <trkpt lat="38.12707833" lon="-4.89811667">
        <ele>498.0</ele>
        <time>2018-10-06T10:52:25.000Z</time>
      </trkpt>
      <trkpt lat="38.12707833" lon="-4.89811667">
        <ele>498.0</ele>
        <time>2018-10-06T10:52:26.000Z</time>
      </trkpt>
      <trkpt lat="38.12707833" lon="-4.89811667">
        <ele>498.0</ele>
        <time>2018-10-06T10:52:27.000Z</time>
      </trkpt>
      <trkpt lat="38.12707833" lon="-4.89811667">
        <ele>498.0</ele>
        <time>2018-10-06T10:52:28.000Z</time>
      </trkpt>
      <trkpt lat="38.12707833" lon="-4.89811667">
        <ele>498.0</ele>
        <time>2018-10-06T10:52:29.000Z</time>
      </trkpt>
      <trkpt lat="38.12707833" lon="-4.89811667">
        <ele>498.0</ele>
        <time>2018-10-06T10:52:30.000Z</time>
      </trkpt>
      <trkpt lat="38.12707833" lon="-4.89811667">
        <ele>498.0</ele>
        <time>2018-10-06T10:52:31.000Z</time>
      </trkpt>
      <trkpt lat="38.12707833" lon="-4.89811667">
        <ele>498.0</ele>
        <time>2018-10-06T10:52:32.000Z</time>
      </trkpt>
      <trkpt lat="38.12707833" lon="-4.89811667">
        <ele>498.0</ele>
        <time>2018-10-06T10:52:33.000Z</time>
      </trkpt>
      <trkpt lat="38.12707833" lon="-4.89811667">
        <ele>498.0</ele>
        <time>2018-10-06T10:52:34.000Z</time>
      </trkpt>
      <trkpt lat="38.12707833" lon="-4.89811667">
        <ele>498.0</ele>
        <time>2018-10-06T10:52:35.000Z</time>
      </trkpt>
      <trkpt lat="38.12707833" lon="-4.89811667">
        <ele>498.0</ele>
        <time>2018-10-06T10:52:36.000Z</time>
      </trkpt>
      <trkpt lat="38.12707833" lon="-4.89811667">
        <ele>498.0</ele>
        <time>2018-10-06T10:52:37.000Z</time>
      </trkpt>
      <trkpt lat="38.12707833" lon="-4.89811667">
        <ele>498.0</ele>
        <time>2018-10-06T10:52:38.000Z</time>
      </trkpt>
      <trkpt lat="38.12707833" lon="-4.89811667">
        <ele>498.0</ele>
        <time>2018-10-06T10:52:39.000Z</time>
      </trkpt>
      <trkpt lat="38.12707833" lon="-4.89811667">
        <ele>498.0</ele>
        <time>2018-10-06T10:52:40.000Z</time>
      </trkpt>
      <trkpt lat="38.12707833" lon="-4.89811667">
        <ele>498.0</ele>
        <time>2018-10-06T10:52:41.000Z</time>
      </trkpt>
      <trkpt lat="38.12707833" lon="-4.89811667">
        <ele>498.0</ele>
        <time>2018-10-06T10:52:42.000Z</time>
      </trkpt>
      <trkpt lat="38.12707833" lon="-4.89811667">
        <ele>498.0</ele>
        <time>2018-10-06T10:52:43.000Z</time>
      </trkpt>
      <trkpt lat="38.12707833" lon="-4.89811667">
        <ele>498.0</ele>
        <time>2018-10-06T10:52:44.000Z</time>
      </trkpt>
      <trkpt lat="38.12707833" lon="-4.89811667">
        <ele>498.0</ele>
        <time>2018-10-06T10:52:45.000Z</time>
      </trkpt>
      <trkpt lat="38.12707833" lon="-4.89811667">
        <ele>498.0</ele>
        <time>2018-10-06T10:52:46.000Z</time>
      </trkpt>
      <trkpt lat="38.12707833" lon="-4.89811667">
        <ele>498.0</ele>
        <time>2018-10-06T10:52:47.000Z</time>
      </trkpt>
      <trkpt lat="38.12707833" lon="-4.89811667">
        <ele>498.0</ele>
        <time>2018-10-06T10:52:48.000Z</time>
      </trkpt>
      <trkpt lat="38.12707833" lon="-4.89811667">
        <ele>498.0</ele>
        <time>2018-10-06T10:52:49.000Z</time>
      </trkpt>
      <trkpt lat="38.12707833" lon="-4.89811667">
        <ele>498.0</ele>
        <time>2018-10-06T10:52:50.000Z</time>
      </trkpt>
      <trkpt lat="38.12707833" lon="-4.89811667">
        <ele>498.0</ele>
        <time>2018-10-06T10:52:51.000Z</time>
      </trkpt>
      <trkpt lat="38.12707833" lon="-4.89811667">
        <ele>498.0</ele>
        <time>2018-10-06T10:52:52.000Z</time>
      </trkpt>
      <trkpt lat="38.127295" lon="-4.89837">
        <ele>488.0</ele>
        <time>2018-10-06T10:52:53.000Z</time>
      </trkpt>
      <trkpt lat="38.12731667" lon="-4.89838667">
        <ele>489.0</ele>
        <time>2018-10-06T10:52:54.000Z</time>
      </trkpt>
      <trkpt lat="38.12733833" lon="-4.8984">
        <ele>490.0</ele>
        <time>2018-10-06T10:52:55.000Z</time>
      </trkpt>
      <trkpt lat="38.12736" lon="-4.89841167">
        <ele>491.0</ele>
        <time>2018-10-06T10:52:56.000Z</time>
      </trkpt>
      <trkpt lat="38.12738" lon="-4.89842167">
        <ele>492.0</ele>
        <time>2018-10-06T10:52:57.000Z</time>
      </trkpt>
      <trkpt lat="38.1274" lon="-4.89843333">
        <ele>492.0</ele>
        <time>2018-10-06T10:52:58.000Z</time>
      </trkpt>
      <trkpt lat="38.12742" lon="-4.89844333">
        <ele>493.0</ele>
        <time>2018-10-06T10:52:59.000Z</time>
      </trkpt>
      <trkpt lat="38.12744" lon="-4.89845333">
        <ele>494.0</ele>
        <time>2018-10-06T10:53:00.000Z</time>
      </trkpt>
      <trkpt lat="38.12745833" lon="-4.89846">
        <ele>494.0</ele>
        <time>2018-10-06T10:53:01.000Z</time>
      </trkpt>
      <trkpt lat="38.127475" lon="-4.89846667">
        <ele>495.0</ele>
        <time>2018-10-06T10:53:02.000Z</time>
      </trkpt>
      <trkpt lat="38.12749" lon="-4.89847333">
        <ele>495.0</ele>
        <time>2018-10-06T10:53:03.000Z</time>
      </trkpt>
      <trkpt lat="38.12750667" lon="-4.89848">
        <ele>496.0</ele>
        <time>2018-10-06T10:53:04.000Z</time>
      </trkpt>
      <trkpt lat="38.12750667" lon="-4.89848">
        <ele>496.0</ele>
        <time>2018-10-06T10:53:05.000Z</time>
      </trkpt>
      <trkpt lat="38.12750667" lon="-4.89848">
        <ele>496.0</ele>
        <time>2018-10-06T10:53:06.000Z</time>
      </trkpt>
      <trkpt lat="38.12750667" lon="-4.89848">
        <ele>496.0</ele>
        <time>2018-10-06T10:53:07.000Z</time>
      </trkpt>
      <trkpt lat="38.12750667" lon="-4.89848">
        <ele>496.0</ele>
        <time>2018-10-06T10:53:08.000Z</time>
      </trkpt>
      <trkpt lat="38.12750667" lon="-4.89848">
        <ele>496.0</ele>
        <time>2018-10-06T10:53:09.000Z</time>
      </trkpt>
      <trkpt lat="38.12750667" lon="-4.89848">
        <ele>496.0</ele>
        <time>2018-10-06T10:53:10.000Z</time>
      </trkpt>
      <trkpt lat="38.12750667" lon="-4.89848">
        <ele>496.0</ele>
        <time>2018-10-06T10:53:11.000Z</time>
      </trkpt>
      <trkpt lat="38.12750667" lon="-4.89848">
        <ele>496.0</ele>
        <time>2018-10-06T10:53:12.000Z</time>
      </trkpt>
      <trkpt lat="38.12750667" lon="-4.89848">
        <ele>496.0</ele>
        <time>2018-10-06T10:53:13.000Z</time>
      </trkpt>
      <trkpt lat="38.12750667" lon="-4.89848">
        <ele>496.0</ele>
        <time>2018-10-06T10:53:14.000Z</time>
      </trkpt>
      <trkpt lat="38.12750667" lon="-4.89848">
        <ele>496.0</ele>
        <time>2018-10-06T10:53:15.000Z</time>
      </trkpt>
      <trkpt lat="38.12750667" lon="-4.89848">
        <ele>496.0</ele>
        <time>2018-10-06T10:53:16.000Z</time>
      </trkpt>
      <trkpt lat="38.12750667" lon="-4.89848">
        <ele>496.0</ele>
        <time>2018-10-06T10:53:17.000Z</time>
      </trkpt>
      <trkpt lat="38.12750667" lon="-4.89848">
        <ele>496.0</ele>
        <time>2018-10-06T10:53:18.000Z</time>
      </trkpt>
      <trkpt lat="38.12750667" lon="-4.89848">
        <ele>496.0</ele>
        <time>2018-10-06T10:53:19.000Z</time>
      </trkpt>
      <trkpt lat="38.12750667" lon="-4.89848">
        <ele>496.0</ele>
        <time>2018-10-06T10:53:20.000Z</time>
      </trkpt>
      <trkpt lat="38.12750667" lon="-4.89848">
        <ele>496.0</ele>
        <time>2018-10-06T10:53:21.000Z</time>
      </trkpt>
      <trkpt lat="38.12750667" lon="-4.89848">
        <ele>496.0</ele>
        <time>2018-10-06T10:53:22.000Z</time>
      </trkpt>
      <trkpt lat="38.12750667" lon="-4.89848">
        <ele>496.0</ele>
        <time>2018-10-06T10:53:23.000Z</time>
      </trkpt>
      <trkpt lat="38.12750667" lon="-4.89848">
        <ele>496.0</ele>
        <time>2018-10-06T10:53:24.000Z</time>
      </trkpt>
      <trkpt lat="38.12750667" lon="-4.89848">
        <ele>496.0</ele>
        <time>2018-10-06T10:53:25.000Z</time>
      </trkpt>
      <trkpt lat="38.12750667" lon="-4.89848">
        <ele>496.0</ele>
        <time>2018-10-06T10:53:26.000Z</time>
      </trkpt>
      <trkpt lat="38.12750667" lon="-4.89848">
        <ele>496.0</ele>
        <time>2018-10-06T10:53:27.000Z</time>
      </trkpt>
      <trkpt lat="38.12750667" lon="-4.89848">
        <ele>496.0</ele>
        <time>2018-10-06T10:53:28.000Z</time>
      </trkpt>
      <trkpt lat="38.12750667" lon="-4.89848">
        <ele>496.0</ele>
        <time>2018-10-06T10:53:29.000Z</time>
      </trkpt>
      <trkpt lat="38.12750667" lon="-4.89848">
        <ele>496.0</ele>
        <time>2018-10-06T10:53:30.000Z</time>
      </trkpt>
      <trkpt lat="38.12750667" lon="-4.89848">
        <ele>496.0</ele>
        <time>2018-10-06T10:53:31.000Z</time>
      </trkpt>
      <trkpt lat="38.12750667" lon="-4.89848">
        <ele>496.0</ele>
        <time>2018-10-06T10:53:32.000Z</time>
      </trkpt>
      <trkpt lat="38.12750667" lon="-4.89848">
        <ele>496.0</ele>
        <time>2018-10-06T10:53:33.000Z</time>
      </trkpt>
      <trkpt lat="38.12750667" lon="-4.89848">
        <ele>496.0</ele>
        <time>2018-10-06T10:53:34.000Z</time>
      </trkpt>
      <trkpt lat="38.12750667" lon="-4.89848">
        <ele>496.0</ele>
        <time>2018-10-06T10:53:35.000Z</time>
      </trkpt>
      <trkpt lat="38.12750667" lon="-4.89848">
        <ele>496.0</ele>
        <time>2018-10-06T10:53:36.000Z</time>
      </trkpt>
      <trkpt lat="38.12750667" lon="-4.89848">
        <ele>496.0</ele>
        <time>2018-10-06T10:53:37.000Z</time>
      </trkpt>
      <trkpt lat="38.12750667" lon="-4.89848">
        <ele>496.0</ele>
        <time>2018-10-06T10:53:38.000Z</time>
      </trkpt>
      <trkpt lat="38.12750667" lon="-4.89848">
        <ele>496.0</ele>
        <time>2018-10-06T10:53:39.000Z</time>
      </trkpt>
      <trkpt lat="38.12750667" lon="-4.89848">
        <ele>496.0</ele>
        <time>2018-10-06T10:53:40.000Z</time>
      </trkpt>
      <trkpt lat="38.12750667" lon="-4.89848">
        <ele>496.0</ele>
        <time>2018-10-06T10:53:41.000Z</time>
      </trkpt>
      <trkpt lat="38.12750667" lon="-4.89848">
        <ele>496.0</ele>
        <time>2018-10-06T10:53:42.000Z</time>
      </trkpt>
      <trkpt lat="38.12750667" lon="-4.89848">
        <ele>496.0</ele>
        <time>2018-10-06T10:53:43.000Z</time>
      </trkpt>
      <trkpt lat="38.12750667" lon="-4.89848">
        <ele>496.0</ele>
        <time>2018-10-06T10:53:44.000Z</time>
      </trkpt>
      <trkpt lat="38.12750667" lon="-4.89848">
        <ele>496.0</ele>
        <time>2018-10-06T10:53:45.000Z</time>
      </trkpt>
      <trkpt lat="38.12750667" lon="-4.89848">
        <ele>496.0</ele>
        <time>2018-10-06T10:53:46.000Z</time>
      </trkpt>
      <trkpt lat="38.12750667" lon="-4.89848">
        <ele>496.0</ele>
        <time>2018-10-06T10:53:47.000Z</time>
      </trkpt>
      <trkpt lat="38.12750667" lon="-4.89848">
        <ele>496.0</ele>
        <time>2018-10-06T10:53:48.000Z</time>
      </trkpt>
      <trkpt lat="38.12750667" lon="-4.89848">
        <ele>496.0</ele>
        <time>2018-10-06T10:53:49.000Z</time>
      </trkpt>
      <trkpt lat="38.12750667" lon="-4.89848">
        <ele>496.0</ele>
        <time>2018-10-06T10:53:50.000Z</time>
      </trkpt>
      <trkpt lat="38.12750667" lon="-4.89848">
        <ele>496.0</ele>
        <time>2018-10-06T10:53:51.000Z</time>
      </trkpt>
      <trkpt lat="38.12750667" lon="-4.89848">
        <ele>496.0</ele>
        <time>2018-10-06T10:53:52.000Z</time>
      </trkpt>
      <trkpt lat="38.12783167" lon="-4.898805">
        <ele>497.0</ele>
        <time>2018-10-06T10:53:53.000Z</time>
      </trkpt>
      <trkpt lat="38.127945" lon="-4.89877167">
        <ele>498.0</ele>
        <time>2018-10-06T10:53:54.000Z</time>
      </trkpt>
      <trkpt lat="38.12795" lon="-4.898775">
        <ele>498.0</ele>
        <time>2018-10-06T10:53:55.000Z</time>
      </trkpt>
      <trkpt lat="38.12796167" lon="-4.89878167">
        <ele>498.0</ele>
        <time>2018-10-06T10:53:56.000Z</time>
      </trkpt>
      <trkpt lat="38.127975" lon="-4.89878667">
        <ele>498.0</ele>
        <time>2018-10-06T10:53:57.000Z</time>
      </trkpt>
      <trkpt lat="38.12799" lon="-4.89879333">
        <ele>498.0</ele>
        <time>2018-10-06T10:53:58.000Z</time>
      </trkpt>
      <trkpt lat="38.12800167" lon="-4.8988">
        <ele>499.0</ele>
        <time>2018-10-06T10:53:59.000Z</time>
      </trkpt>
      <trkpt lat="38.12801667" lon="-4.89880833">
        <ele>499.0</ele>
        <time>2018-10-06T10:54:00.000Z</time>
      </trkpt>
      <trkpt lat="38.12803167" lon="-4.898815">
        <ele>500.0</ele>
        <time>2018-10-06T10:54:01.000Z</time>
      </trkpt>
      <trkpt lat="38.128045" lon="-4.89882167">
        <ele>500.0</ele>
        <time>2018-10-06T10:54:02.000Z</time>
      </trkpt>
      <trkpt lat="38.12805833" lon="-4.89883167">
        <ele>501.0</ele>
        <time>2018-10-06T10:54:03.000Z</time>
      </trkpt>
      <trkpt lat="38.12807333" lon="-4.89884">
        <ele>501.0</ele>
        <time>2018-10-06T10:54:04.000Z</time>
      </trkpt>
      <trkpt lat="38.12808667" lon="-4.89884667">
        <ele>501.0</ele>
        <time>2018-10-06T10:54:05.000Z</time>
      </trkpt>
      <trkpt lat="38.12808667" lon="-4.89884667">
        <ele>501.0</ele>
        <time>2018-10-06T10:54:06.000Z</time>
      </trkpt>
      <trkpt lat="38.12808667" lon="-4.89884667">
        <ele>501.0</ele>
        <time>2018-10-06T10:54:07.000Z</time>
      </trkpt>
      <trkpt lat="38.12808667" lon="-4.89884667">
        <ele>501.0</ele>
        <time>2018-10-06T10:54:08.000Z</time>
      </trkpt>
      <trkpt lat="38.12808667" lon="-4.89884667">
        <ele>501.0</ele>
        <time>2018-10-06T10:54:09.000Z</time>
      </trkpt>
      <trkpt lat="38.12808667" lon="-4.89884667">
        <ele>501.0</ele>
        <time>2018-10-06T10:54:10.000Z</time>
      </trkpt>
      <trkpt lat="38.12808667" lon="-4.89884667">
        <ele>501.0</ele>
        <time>2018-10-06T10:54:11.000Z</time>
      </trkpt>
      <trkpt lat="38.12808667" lon="-4.89884667">
        <ele>501.0</ele>
        <time>2018-10-06T10:54:12.000Z</time>
      </trkpt>
      <trkpt lat="38.12808667" lon="-4.89884667">
        <ele>501.0</ele>
        <time>2018-10-06T10:54:13.000Z</time>
      </trkpt>
      <trkpt lat="38.12808667" lon="-4.89884667">
        <ele>501.0</ele>
        <time>2018-10-06T10:54:14.000Z</time>
      </trkpt>
      <trkpt lat="38.12808667" lon="-4.89884667">
        <ele>501.0</ele>
        <time>2018-10-06T10:54:15.000Z</time>
      </trkpt>
      <trkpt lat="38.12808667" lon="-4.89884667">
        <ele>501.0</ele>
        <time>2018-10-06T10:54:16.000Z</time>
      </trkpt>
      <trkpt lat="38.12808667" lon="-4.89884667">
        <ele>501.0</ele>
        <time>2018-10-06T10:54:17.000Z</time>
      </trkpt>
      <trkpt lat="38.12808667" lon="-4.89884667">
        <ele>501.0</ele>
        <time>2018-10-06T10:54:18.000Z</time>
      </trkpt>
      <trkpt lat="38.12808667" lon="-4.89884667">
        <ele>501.0</ele>
        <time>2018-10-06T10:54:19.000Z</time>
      </trkpt>
      <trkpt lat="38.12808667" lon="-4.89884667">
        <ele>501.0</ele>
        <time>2018-10-06T10:54:20.000Z</time>
      </trkpt>
      <trkpt lat="38.12808667" lon="-4.89884667">
        <ele>501.0</ele>
        <time>2018-10-06T10:54:21.000Z</time>
      </trkpt>
      <trkpt lat="38.12808667" lon="-4.89884667">
        <ele>501.0</ele>
        <time>2018-10-06T10:54:22.000Z</time>
      </trkpt>
      <trkpt lat="38.12808667" lon="-4.89884667">
        <ele>501.0</ele>
        <time>2018-10-06T10:54:23.000Z</time>
      </trkpt>
      <trkpt lat="38.12808667" lon="-4.89884667">
        <ele>501.0</ele>
        <time>2018-10-06T10:54:24.000Z</time>
      </trkpt>
      <trkpt lat="38.12808667" lon="-4.89884667">
        <ele>501.0</ele>
        <time>2018-10-06T10:54:25.000Z</time>
      </trkpt>
      <trkpt lat="38.12808667" lon="-4.89884667">
        <ele>501.0</ele>
        <time>2018-10-06T10:54:26.000Z</time>
      </trkpt>
      <trkpt lat="38.12808667" lon="-4.89884667">
        <ele>501.0</ele>
        <time>2018-10-06T10:54:27.000Z</time>
      </trkpt>
      <trkpt lat="38.12808667" lon="-4.89884667">
        <ele>501.0</ele>
        <time>2018-10-06T10:54:28.000Z</time>
      </trkpt>
      <trkpt lat="38.12808667" lon="-4.89884667">
        <ele>501.0</ele>
        <time>2018-10-06T10:54:29.000Z</time>
      </trkpt>
      <trkpt lat="38.12808667" lon="-4.89884667">
        <ele>501.0</ele>
        <time>2018-10-06T10:54:30.000Z</time>
      </trkpt>
      <trkpt lat="38.12808667" lon="-4.89884667">
        <ele>501.0</ele>
        <time>2018-10-06T10:54:31.000Z</time>
      </trkpt>
      <trkpt lat="38.12808667" lon="-4.89884667">
        <ele>501.0</ele>
        <time>2018-10-06T10:54:32.000Z</time>
      </trkpt>
      <trkpt lat="38.12808667" lon="-4.89884667">
        <ele>501.0</ele>
        <time>2018-10-06T10:54:33.000Z</time>
      </trkpt>
      <trkpt lat="38.12808667" lon="-4.89884667">
        <ele>501.0</ele>
        <time>2018-10-06T10:54:34.000Z</time>
      </trkpt>
      <trkpt lat="38.12808667" lon="-4.89884667">
        <ele>501.0</ele>
        <time>2018-10-06T10:54:35.000Z</time>
      </trkpt>
      <trkpt lat="38.12808667" lon="-4.89884667">
        <ele>501.0</ele>
        <time>2018-10-06T10:54:36.000Z</time>
      </trkpt>
      <trkpt lat="38.12808667" lon="-4.89884667">
        <ele>501.0</ele>
        <time>2018-10-06T10:54:37.000Z</time>
      </trkpt>
      <trkpt lat="38.12808667" lon="-4.89884667">
        <ele>501.0</ele>
        <time>2018-10-06T10:54:38.000Z</time>
      </trkpt>
      <trkpt lat="38.12808667" lon="-4.89884667">
        <ele>501.0</ele>
        <time>2018-10-06T10:54:39.000Z</time>
      </trkpt>
      <trkpt lat="38.12808667" lon="-4.89884667">
        <ele>501.0</ele>
        <time>2018-10-06T10:54:40.000Z</time>
      </trkpt>
      <trkpt lat="38.12808667" lon="-4.89884667">
        <ele>501.0</ele>
        <time>2018-10-06T10:54:41.000Z</time>
      </trkpt>
      <trkpt lat="38.12808667" lon="-4.89884667">
        <ele>501.0</ele>
        <time>2018-10-06T10:54:42.000Z</time>
      </trkpt>
      <trkpt lat="38.12808667" lon="-4.89884667">
        <ele>501.0</ele>
        <time>2018-10-06T10:54:43.000Z</time>
      </trkpt>
      <trkpt lat="38.12808667" lon="-4.89884667">
        <ele>501.0</ele>
        <time>2018-10-06T10:54:44.000Z</time>
      </trkpt>
      <trkpt lat="38.12808667" lon="-4.89884667">
        <ele>501.0</ele>
        <time>2018-10-06T10:54:45.000Z</time>
      </trkpt>
      <trkpt lat="38.12808667" lon="-4.89884667">
        <ele>501.0</ele>
        <time>2018-10-06T10:54:46.000Z</time>
      </trkpt>
      <trkpt lat="38.12808667" lon="-4.89884667">
        <ele>501.0</ele>
        <time>2018-10-06T10:54:47.000Z</time>
      </trkpt>
      <trkpt lat="38.12808667" lon="-4.89884667">
        <ele>501.0</ele>
        <time>2018-10-06T10:54:48.000Z</time>
      </trkpt>
      <trkpt lat="38.12808667" lon="-4.89884667">
        <ele>501.0</ele>
        <time>2018-10-06T10:54:49.000Z</time>
      </trkpt>
      <trkpt lat="38.12808667" lon="-4.89884667">
        <ele>501.0</ele>
        <time>2018-10-06T10:54:50.000Z</time>
      </trkpt>
      <trkpt lat="38.12808667" lon="-4.89884667">
        <ele>501.0</ele>
        <time>2018-10-06T10:54:51.000Z</time>
      </trkpt>
      <trkpt lat="38.12808667" lon="-4.89884667">
        <ele>501.0</ele>
        <time>2018-10-06T10:54:52.000Z</time>
      </trkpt>
      <trkpt lat="38.12848667" lon="-4.89908167">
        <ele>515.0</ele>
        <time>2018-10-06T10:54:53.000Z</time>
      </trkpt>
      <trkpt lat="38.12849667" lon="-4.89909167">
        <ele>514.0</ele>
        <time>2018-10-06T10:54:54.000Z</time>
      </trkpt>
      <trkpt lat="38.12850667" lon="-4.89910167">
        <ele>513.0</ele>
        <time>2018-10-06T10:54:55.000Z</time>
      </trkpt>
      <trkpt lat="38.12851833" lon="-4.89911333">
        <ele>513.0</ele>
        <time>2018-10-06T10:54:56.000Z</time>
      </trkpt>
      <trkpt lat="38.12852833" lon="-4.89912333">
        <ele>512.0</ele>
        <time>2018-10-06T10:54:57.000Z</time>
      </trkpt>
      <trkpt lat="38.12854" lon="-4.899135">
        <ele>511.0</ele>
        <time>2018-10-06T10:54:58.000Z</time>
      </trkpt>
      <trkpt lat="38.12855333" lon="-4.899145">
        <ele>510.0</ele>
        <time>2018-10-06T10:54:59.000Z</time>
      </trkpt>
      <trkpt lat="38.12856167" lon="-4.89915833">
        <ele>510.0</ele>
        <time>2018-10-06T10:55:00.000Z</time>
      </trkpt>
      <trkpt lat="38.12857333" lon="-4.89916833">
        <ele>509.0</ele>
        <time>2018-10-06T10:55:01.000Z</time>
      </trkpt>
      <trkpt lat="38.128585" lon="-4.89918167">
        <ele>508.0</ele>
        <time>2018-10-06T10:55:02.000Z</time>
      </trkpt>
      <trkpt lat="38.12859667" lon="-4.89919333">
        <ele>507.0</ele>
        <time>2018-10-06T10:55:03.000Z</time>
      </trkpt>
      <trkpt lat="38.12860667" lon="-4.89920333">
        <ele>507.0</ele>
        <time>2018-10-06T10:55:04.000Z</time>
      </trkpt>
      <trkpt lat="38.128615" lon="-4.89921333">
        <ele>506.0</ele>
        <time>2018-10-06T10:55:05.000Z</time>
      </trkpt>
      <trkpt lat="38.128615" lon="-4.89921333">
        <ele>506.0</ele>
        <time>2018-10-06T10:55:06.000Z</time>
      </trkpt>
      <trkpt lat="38.128615" lon="-4.89921333">
        <ele>506.0</ele>
        <time>2018-10-06T10:55:07.000Z</time>
      </trkpt>
      <trkpt lat="38.128615" lon="-4.89921333">
        <ele>506.0</ele>
        <time>2018-10-06T10:55:08.000Z</time>
      </trkpt>
      <trkpt lat="38.128615" lon="-4.89921333">
        <ele>506.0</ele>
        <time>2018-10-06T10:55:09.000Z</time>
      </trkpt>
      <trkpt lat="38.128615" lon="-4.89921333">
        <ele>506.0</ele>
        <time>2018-10-06T10:55:10.000Z</time>
      </trkpt>
      <trkpt lat="38.128615" lon="-4.89921333">
        <ele>506.0</ele>
        <time>2018-10-06T10:55:11.000Z</time>
      </trkpt>
      <trkpt lat="38.128615" lon="-4.89921333">
        <ele>506.0</ele>
        <time>2018-10-06T10:55:12.000Z</time>
      </trkpt>
      <trkpt lat="38.128615" lon="-4.89921333">
        <ele>506.0</ele>
        <time>2018-10-06T10:55:13.000Z</time>
      </trkpt>
      <trkpt lat="38.128615" lon="-4.89921333">
        <ele>506.0</ele>
        <time>2018-10-06T10:55:14.000Z</time>
      </trkpt>
      <trkpt lat="38.128615" lon="-4.89921333">
        <ele>506.0</ele>
        <time>2018-10-06T10:55:15.000Z</time>
      </trkpt>
      <trkpt lat="38.128615" lon="-4.89921333">
        <ele>506.0</ele>
        <time>2018-10-06T10:55:16.000Z</time>
      </trkpt>
      <trkpt lat="38.128615" lon="-4.89921333">
        <ele>506.0</ele>
        <time>2018-10-06T10:55:17.000Z</time>
      </trkpt>
      <trkpt lat="38.128615" lon="-4.89921333">
        <ele>506.0</ele>
        <time>2018-10-06T10:55:18.000Z</time>
      </trkpt>
      <trkpt lat="38.128615" lon="-4.89921333">
        <ele>506.0</ele>
        <time>2018-10-06T10:55:19.000Z</time>
      </trkpt>
      <trkpt lat="38.128615" lon="-4.89921333">
        <ele>506.0</ele>
        <time>2018-10-06T10:55:20.000Z</time>
      </trkpt>
      <trkpt lat="38.128615" lon="-4.89921333">
        <ele>506.0</ele>
        <time>2018-10-06T10:55:21.000Z</time>
      </trkpt>
      <trkpt lat="38.128615" lon="-4.89921333">
        <ele>506.0</ele>
        <time>2018-10-06T10:55:22.000Z</time>
      </trkpt>
      <trkpt lat="38.128615" lon="-4.89921333">
        <ele>506.0</ele>
        <time>2018-10-06T10:55:23.000Z</time>
      </trkpt>
      <trkpt lat="38.128615" lon="-4.89921333">
        <ele>506.0</ele>
        <time>2018-10-06T10:55:24.000Z</time>
      </trkpt>
      <trkpt lat="38.128615" lon="-4.89921333">
        <ele>506.0</ele>
        <time>2018-10-06T10:55:25.000Z</time>
      </trkpt>
      <trkpt lat="38.128615" lon="-4.89921333">
        <ele>506.0</ele>
        <time>2018-10-06T10:55:26.000Z</time>
      </trkpt>
      <trkpt lat="38.128615" lon="-4.89921333">
        <ele>506.0</ele>
        <time>2018-10-06T10:55:27.000Z</time>
      </trkpt>
      <trkpt lat="38.128615" lon="-4.89921333">
        <ele>506.0</ele>
        <time>2018-10-06T10:55:28.000Z</time>
      </trkpt>
      <trkpt lat="38.128615" lon="-4.89921333">
        <ele>506.0</ele>
        <time>2018-10-06T10:55:29.000Z</time>
      </trkpt>
      <trkpt lat="38.128615" lon="-4.89921333">
        <ele>506.0</ele>
        <time>2018-10-06T10:55:30.000Z</time>
      </trkpt>
      <trkpt lat="38.128615" lon="-4.89921333">
        <ele>506.0</ele>
        <time>2018-10-06T10:55:31.000Z</time>
      </trkpt>
      <trkpt lat="38.128615" lon="-4.89921333">
        <ele>506.0</ele>
        <time>2018-10-06T10:55:32.000Z</time>
      </trkpt>
      <trkpt lat="38.128615" lon="-4.89921333">
        <ele>506.0</ele>
        <time>2018-10-06T10:55:33.000Z</time>
      </trkpt>
      <trkpt lat="38.128615" lon="-4.89921333">
        <ele>506.0</ele>
        <time>2018-10-06T10:55:34.000Z</time>
      </trkpt>
      <trkpt lat="38.128615" lon="-4.89921333">
        <ele>506.0</ele>
        <time>2018-10-06T10:55:35.000Z</time>
      </trkpt>
      <trkpt lat="38.128615" lon="-4.89921333">
        <ele>506.0</ele>
        <time>2018-10-06T10:55:36.000Z</time>
      </trkpt>
      <trkpt lat="38.128615" lon="-4.89921333">
        <ele>506.0</ele>
        <time>2018-10-06T10:55:37.000Z</time>
      </trkpt>
      <trkpt lat="38.128615" lon="-4.89921333">
        <ele>506.0</ele>
        <time>2018-10-06T10:55:38.000Z</time>
      </trkpt>
      <trkpt lat="38.128615" lon="-4.89921333">
        <ele>506.0</ele>
        <time>2018-10-06T10:55:39.000Z</time>
      </trkpt>
      <trkpt lat="38.128615" lon="-4.89921333">
        <ele>506.0</ele>
        <time>2018-10-06T10:55:40.000Z</time>
      </trkpt>
      <trkpt lat="38.128615" lon="-4.89921333">
        <ele>506.0</ele>
        <time>2018-10-06T10:55:41.000Z</time>
      </trkpt>
      <trkpt lat="38.128615" lon="-4.89921333">
        <ele>506.0</ele>
        <time>2018-10-06T10:55:42.000Z</time>
      </trkpt>
      <trkpt lat="38.128615" lon="-4.89921333">
        <ele>506.0</ele>
        <time>2018-10-06T10:55:43.000Z</time>
      </trkpt>
      <trkpt lat="38.128615" lon="-4.89921333">
        <ele>506.0</ele>
        <time>2018-10-06T10:55:44.000Z</time>
      </trkpt>
      <trkpt lat="38.128615" lon="-4.89921333">
        <ele>506.0</ele>
        <time>2018-10-06T10:55:45.000Z</time>
      </trkpt>
      <trkpt lat="38.128615" lon="-4.89921333">
        <ele>506.0</ele>
        <time>2018-10-06T10:55:46.000Z</time>
      </trkpt>
      <trkpt lat="38.128615" lon="-4.89921333">
        <ele>506.0</ele>
        <time>2018-10-06T10:55:47.000Z</time>
      </trkpt>
      <trkpt lat="38.128615" lon="-4.89921333">
        <ele>506.0</ele>
        <time>2018-10-06T10:55:48.000Z</time>
      </trkpt>
      <trkpt lat="38.128615" lon="-4.89921333">
        <ele>506.0</ele>
        <time>2018-10-06T10:55:49.000Z</time>
      </trkpt>
      <trkpt lat="38.128615" lon="-4.89921333">
        <ele>506.0</ele>
        <time>2018-10-06T10:55:50.000Z</time>
      </trkpt>
      <trkpt lat="38.128615" lon="-4.89921333">
        <ele>506.0</ele>
        <time>2018-10-06T10:55:51.000Z</time>
      </trkpt>
      <trkpt lat="38.128615" lon="-4.89921333">
        <ele>506.0</ele>
        <time>2018-10-06T10:55:52.000Z</time>
      </trkpt>
      <trkpt lat="38.129005" lon="-4.89933667">
        <ele>488.0</ele>
        <time>2018-10-06T10:55:53.000Z</time>
      </trkpt>
      <trkpt lat="38.12902" lon="-4.89935833">
        <ele>488.0</ele>
        <time>2018-10-06T10:55:54.000Z</time>
      </trkpt>
      <trkpt lat="38.12903167" lon="-4.89937833">
        <ele>490.0</ele>
        <time>2018-10-06T10:55:55.000Z</time>
      </trkpt>
      <trkpt lat="38.12904833" lon="-4.89939667">
        <ele>491.0</ele>
        <time>2018-10-06T10:55:56.000Z</time>
      </trkpt>
      <trkpt lat="38.12906167" lon="-4.89941167">
        <ele>492.0</ele>
        <time>2018-10-06T10:55:57.000Z</time>
      </trkpt>
      <trkpt lat="38.12907667" lon="-4.89942667">
        <ele>493.0</ele>
        <time>2018-10-06T10:55:58.000Z</time>
      </trkpt>
      <trkpt lat="38.12909167" lon="-4.89943833">
        <ele>494.0</ele>
        <time>2018-10-06T10:55:59.000Z</time>
      </trkpt>
      <trkpt lat="38.129105" lon="-4.89945167">
        <ele>495.0</ele>
        <time>2018-10-06T10:56:00.000Z</time>
      </trkpt>
      <trkpt lat="38.12912" lon="-4.89946167">
        <ele>496.0</ele>
        <time>2018-10-06T10:56:01.000Z</time>
      </trkpt>
      <trkpt lat="38.12913667" lon="-4.89947333">
        <ele>496.0</ele>
        <time>2018-10-06T10:56:02.000Z</time>
      </trkpt>
      <trkpt lat="38.12915" lon="-4.89948333">
        <ele>497.0</ele>
        <time>2018-10-06T10:56:03.000Z</time>
      </trkpt>
      <trkpt lat="38.12916333" lon="-4.89949167">
        <ele>497.0</ele>
        <time>2018-10-06T10:56:04.000Z</time>
      </trkpt>
      <trkpt lat="38.12917667" lon="-4.89950167">
        <ele>498.0</ele>
        <time>2018-10-06T10:56:05.000Z</time>
      </trkpt>
      <trkpt lat="38.12917667" lon="-4.89950167">
        <ele>498.0</ele>
        <time>2018-10-06T10:56:06.000Z</time>
      </trkpt>
      <trkpt lat="38.12917667" lon="-4.89950167">
        <ele>498.0</ele>
        <time>2018-10-06T10:56:07.000Z</time>
      </trkpt>
      <trkpt lat="38.12917667" lon="-4.89950167">
        <ele>498.0</ele>
        <time>2018-10-06T10:56:08.000Z</time>
      </trkpt>
      <trkpt lat="38.12917667" lon="-4.89950167">
        <ele>498.0</ele>
        <time>2018-10-06T10:56:09.000Z</time>
      </trkpt>
      <trkpt lat="38.12917667" lon="-4.89950167">
        <ele>498.0</ele>
        <time>2018-10-06T10:56:10.000Z</time>
      </trkpt>
      <trkpt lat="38.12917667" lon="-4.89950167">
        <ele>498.0</ele>
        <time>2018-10-06T10:56:11.000Z</time>
      </trkpt>
      <trkpt lat="38.12917667" lon="-4.89950167">
        <ele>498.0</ele>
        <time>2018-10-06T10:56:12.000Z</time>
      </trkpt>
      <trkpt lat="38.12917667" lon="-4.89950167">
        <ele>498.0</ele>
        <time>2018-10-06T10:56:13.000Z</time>
      </trkpt>
      <trkpt lat="38.12917667" lon="-4.89950167">
        <ele>498.0</ele>
        <time>2018-10-06T10:56:14.000Z</time>
      </trkpt>
      <trkpt lat="38.12917667" lon="-4.89950167">
        <ele>498.0</ele>
        <time>2018-10-06T10:56:15.000Z</time>
      </trkpt>
      <trkpt lat="38.12917667" lon="-4.89950167">
        <ele>498.0</ele>
        <time>2018-10-06T10:56:16.000Z</time>
      </trkpt>
      <trkpt lat="38.12917667" lon="-4.89950167">
        <ele>498.0</ele>
        <time>2018-10-06T10:56:17.000Z</time>
      </trkpt>
      <trkpt lat="38.12917667" lon="-4.89950167">
        <ele>498.0</ele>
        <time>2018-10-06T10:56:18.000Z</time>
      </trkpt>
      <trkpt lat="38.12917667" lon="-4.89950167">
        <ele>498.0</ele>
        <time>2018-10-06T10:56:19.000Z</time>
      </trkpt>
      <trkpt lat="38.12917667" lon="-4.89950167">
        <ele>498.0</ele>
        <time>2018-10-06T10:56:20.000Z</time>
      </trkpt>
      <trkpt lat="38.12917667" lon="-4.89950167">
        <ele>498.0</ele>
        <time>2018-10-06T10:56:21.000Z</time>
      </trkpt>
      <trkpt lat="38.12917667" lon="-4.89950167">
        <ele>498.0</ele>
        <time>2018-10-06T10:56:22.000Z</time>
      </trkpt>
      <trkpt lat="38.12917667" lon="-4.89950167">
        <ele>498.0</ele>
        <time>2018-10-06T10:56:23.000Z</time>
      </trkpt>
      <trkpt lat="38.12917667" lon="-4.89950167">
        <ele>498.0</ele>
        <time>2018-10-06T10:56:24.000Z</time>
      </trkpt>
      <trkpt lat="38.12917667" lon="-4.89950167">
        <ele>498.0</ele>
        <time>2018-10-06T10:56:25.000Z</time>
      </trkpt>
      <trkpt lat="38.12917667" lon="-4.89950167">
        <ele>498.0</ele>
        <time>2018-10-06T10:56:26.000Z</time>
      </trkpt>
      <trkpt lat="38.12917667" lon="-4.89950167">
        <ele>498.0</ele>
        <time>2018-10-06T10:56:27.000Z</time>
      </trkpt>
      <trkpt lat="38.12917667" lon="-4.89950167">
        <ele>498.0</ele>
        <time>2018-10-06T10:56:28.000Z</time>
      </trkpt>
      <trkpt lat="38.12917667" lon="-4.89950167">
        <ele>498.0</ele>
        <time>2018-10-06T10:56:29.000Z</time>
      </trkpt>
      <trkpt lat="38.12917667" lon="-4.89950167">
        <ele>498.0</ele>
        <time>2018-10-06T10:56:30.000Z</time>
      </trkpt>
      <trkpt lat="38.12917667" lon="-4.89950167">
        <ele>498.0</ele>
        <time>2018-10-06T10:56:31.000Z</time>
      </trkpt>
      <trkpt lat="38.12917667" lon="-4.89950167">
        <ele>498.0</ele>
        <time>2018-10-06T10:56:32.000Z</time>
      </trkpt>
      <trkpt lat="38.12917667" lon="-4.89950167">
        <ele>498.0</ele>
        <time>2018-10-06T10:56:33.000Z</time>
      </trkpt>
      <trkpt lat="38.12917667" lon="-4.89950167">
        <ele>498.0</ele>
        <time>2018-10-06T10:56:34.000Z</time>
      </trkpt>
      <trkpt lat="38.12917667" lon="-4.89950167">
        <ele>498.0</ele>
        <time>2018-10-06T10:56:35.000Z</time>
      </trkpt>
      <trkpt lat="38.12917667" lon="-4.89950167">
        <ele>498.0</ele>
        <time>2018-10-06T10:56:36.000Z</time>
      </trkpt>
      <trkpt lat="38.12917667" lon="-4.89950167">
        <ele>498.0</ele>
        <time>2018-10-06T10:56:37.000Z</time>
      </trkpt>
      <trkpt lat="38.12917667" lon="-4.89950167">
        <ele>498.0</ele>
        <time>2018-10-06T10:56:38.000Z</time>
      </trkpt>
      <trkpt lat="38.12917667" lon="-4.89950167">
        <ele>498.0</ele>
        <time>2018-10-06T10:56:39.000Z</time>
      </trkpt>
      <trkpt lat="38.12917667" lon="-4.89950167">
        <ele>498.0</ele>
        <time>2018-10-06T10:56:40.000Z</time>
      </trkpt>
      <trkpt lat="38.12917667" lon="-4.89950167">
        <ele>498.0</ele>
        <time>2018-10-06T10:56:41.000Z</time>
      </trkpt>
      <trkpt lat="38.12917667" lon="-4.89950167">
        <ele>498.0</ele>
        <time>2018-10-06T10:56:42.000Z</time>
      </trkpt>
      <trkpt lat="38.12917667" lon="-4.89950167">
        <ele>498.0</ele>
        <time>2018-10-06T10:56:43.000Z</time>
      </trkpt>
      <trkpt lat="38.12917667" lon="-4.89950167">
        <ele>498.0</ele>
        <time>2018-10-06T10:56:44.000Z</time>
      </trkpt>
      <trkpt lat="38.12917667" lon="-4.89950167">
        <ele>498.0</ele>
        <time>2018-10-06T10:56:45.000Z</time>
      </trkpt>
      <trkpt lat="38.12917667" lon="-4.89950167">
        <ele>498.0</ele>
        <time>2018-10-06T10:56:46.000Z</time>
      </trkpt>
      <trkpt lat="38.12917667" lon="-4.89950167">
        <ele>498.0</ele>
        <time>2018-10-06T10:56:47.000Z</time>
      </trkpt>
      <trkpt lat="38.12917667" lon="-4.89950167">
        <ele>498.0</ele>
        <time>2018-10-06T10:56:48.000Z</time>
      </trkpt>
      <trkpt lat="38.12917667" lon="-4.89950167">
        <ele>498.0</ele>
        <time>2018-10-06T10:56:49.000Z</time>
      </trkpt>
      <trkpt lat="38.12917667" lon="-4.89950167">
        <ele>498.0</ele>
        <time>2018-10-06T10:56:50.000Z</time>
      </trkpt>
      <trkpt lat="38.12917667" lon="-4.89950167">
        <ele>498.0</ele>
        <time>2018-10-06T10:56:51.000Z</time>
      </trkpt>
      <trkpt lat="38.12917667" lon="-4.89950167">
        <ele>498.0</ele>
        <time>2018-10-06T10:56:52.000Z</time>
      </trkpt>
      <trkpt lat="38.129315" lon="-4.89953833">
        <ele>493.0</ele>
        <time>2018-10-06T10:56:53.000Z</time>
      </trkpt>
      <trkpt lat="38.12933333" lon="-4.89953833">
        <ele>493.0</ele>
        <time>2018-10-06T10:56:54.000Z</time>
      </trkpt>
      <trkpt lat="38.12936167" lon="-4.89953667">
        <ele>493.0</ele>
        <time>2018-10-06T10:56:55.000Z</time>
      </trkpt>
      <trkpt lat="38.12938833" lon="-4.89954">
        <ele>494.0</ele>
        <time>2018-10-06T10:56:56.000Z</time>
      </trkpt>
      <trkpt lat="38.129415" lon="-4.89954">
        <ele>495.0</ele>
        <time>2018-10-06T10:56:57.000Z</time>
      </trkpt>
      <trkpt lat="38.12944" lon="-4.89954167">
        <ele>496.0</ele>
        <time>2018-10-06T10:56:58.000Z</time>
      </trkpt>
      <trkpt lat="38.129465" lon="-4.89954333">
        <ele>496.0</ele>
        <time>2018-10-06T10:56:59.000Z</time>
      </trkpt>
      <trkpt lat="38.12949" lon="-4.89954667">
        <ele>497.0</ele>
        <time>2018-10-06T10:57:00.000Z</time>
      </trkpt>
      <trkpt lat="38.12951333" lon="-4.89955">
        <ele>497.0</ele>
        <time>2018-10-06T10:57:01.000Z</time>
      </trkpt>
      <trkpt lat="38.129535" lon="-4.89955167">
        <ele>498.0</ele>
        <time>2018-10-06T10:57:02.000Z</time>
      </trkpt>
      <trkpt lat="38.12955667" lon="-4.89955333">
        <ele>498.0</ele>
        <time>2018-10-06T10:57:03.000Z</time>
      </trkpt>
      <trkpt lat="38.12957833" lon="-4.89955667">
        <ele>498.0</ele>
        <time>2018-10-06T10:57:04.000Z</time>
      </trkpt>
      <trkpt lat="38.12959833" lon="-4.89956167">
        <ele>498.0</ele>
        <time>2018-10-06T10:57:05.000Z</time>
      </trkpt>
      <trkpt lat="38.12959833" lon="-4.89956167">
        <ele>498.0</ele>
        <time>2018-10-06T10:57:06.000Z</time>
      </trkpt>
      <trkpt lat="38.12959833" lon="-4.89956167">
        <ele>498.0</ele>
        <time>2018-10-06T10:57:07.000Z</time>
      </trkpt>
      <trkpt lat="38.12959833" lon="-4.89956167">
        <ele>498.0</ele>
        <time>2018-10-06T10:57:08.000Z</time>
      </trkpt>
      <trkpt lat="38.12959833" lon="-4.89956167">
        <ele>498.0</ele>
        <time>2018-10-06T10:57:09.000Z</time>
      </trkpt>
      <trkpt lat="38.12959833" lon="-4.89956167">
        <ele>498.0</ele>
        <time>2018-10-06T10:57:10.000Z</time>
      </trkpt>
      <trkpt lat="38.12959833" lon="-4.89956167">
        <ele>498.0</ele>
        <time>2018-10-06T10:57:11.000Z</time>
      </trkpt>
      <trkpt lat="38.12959833" lon="-4.89956167">
        <ele>498.0</ele>
        <time>2018-10-06T10:57:12.000Z</time>
      </trkpt>
      <trkpt lat="38.12959833" lon="-4.89956167">
        <ele>498.0</ele>
        <time>2018-10-06T10:57:13.000Z</time>
      </trkpt>
      <trkpt lat="38.12959833" lon="-4.89956167">
        <ele>498.0</ele>
        <time>2018-10-06T10:57:14.000Z</time>
      </trkpt>
      <trkpt lat="38.12959833" lon="-4.89956167">
        <ele>498.0</ele>
        <time>2018-10-06T10:57:15.000Z</time>
      </trkpt>
      <trkpt lat="38.12959833" lon="-4.89956167">
        <ele>498.0</ele>
        <time>2018-10-06T10:57:16.000Z</time>
      </trkpt>
      <trkpt lat="38.12959833" lon="-4.89956167">
        <ele>498.0</ele>
        <time>2018-10-06T10:57:17.000Z</time>
      </trkpt>
      <trkpt lat="38.12959833" lon="-4.89956167">
        <ele>498.0</ele>
        <time>2018-10-06T10:57:18.000Z</time>
      </trkpt>
      <trkpt lat="38.12959833" lon="-4.89956167">
        <ele>498.0</ele>
        <time>2018-10-06T10:57:19.000Z</time>
      </trkpt>
      <trkpt lat="38.12959833" lon="-4.89956167">
        <ele>498.0</ele>
        <time>2018-10-06T10:57:20.000Z</time>
      </trkpt>
      <trkpt lat="38.12959833" lon="-4.89956167">
        <ele>498.0</ele>
        <time>2018-10-06T10:57:21.000Z</time>
      </trkpt>
      <trkpt lat="38.12959833" lon="-4.89956167">
        <ele>498.0</ele>
        <time>2018-10-06T10:57:22.000Z</time>
      </trkpt>
      <trkpt lat="38.12959833" lon="-4.89956167">
        <ele>498.0</ele>
        <time>2018-10-06T10:57:23.000Z</time>
      </trkpt>
      <trkpt lat="38.12959833" lon="-4.89956167">
        <ele>498.0</ele>
        <time>2018-10-06T10:57:24.000Z</time>
      </trkpt>
      <trkpt lat="38.12959833" lon="-4.89956167">
        <ele>498.0</ele>
        <time>2018-10-06T10:57:25.000Z</time>
      </trkpt>
      <trkpt lat="38.12959833" lon="-4.89956167">
        <ele>498.0</ele>
        <time>2018-10-06T10:57:26.000Z</time>
      </trkpt>
      <trkpt lat="38.12959833" lon="-4.89956167">
        <ele>498.0</ele>
        <time>2018-10-06T10:57:27.000Z</time>
      </trkpt>
      <trkpt lat="38.12959833" lon="-4.89956167">
        <ele>498.0</ele>
        <time>2018-10-06T10:57:28.000Z</time>
      </trkpt>
      <trkpt lat="38.12959833" lon="-4.89956167">
        <ele>498.0</ele>
        <time>2018-10-06T10:57:29.000Z</time>
      </trkpt>
      <trkpt lat="38.12959833" lon="-4.89956167">
        <ele>498.0</ele>
        <time>2018-10-06T10:57:30.000Z</time>
      </trkpt>
      <trkpt lat="38.12959833" lon="-4.89956167">
        <ele>498.0</ele>
        <time>2018-10-06T10:57:31.000Z</time>
      </trkpt>
      <trkpt lat="38.12959833" lon="-4.89956167">
        <ele>498.0</ele>
        <time>2018-10-06T10:57:32.000Z</time>
      </trkpt>
      <trkpt lat="38.12959833" lon="-4.89956167">
        <ele>498.0</ele>
        <time>2018-10-06T10:57:33.000Z</time>
      </trkpt>
      <trkpt lat="38.12959833" lon="-4.89956167">
        <ele>498.0</ele>
        <time>2018-10-06T10:57:34.000Z</time>
      </trkpt>
      <trkpt lat="38.12959833" lon="-4.89956167">
        <ele>498.0</ele>
        <time>2018-10-06T10:57:35.000Z</time>
      </trkpt>
      <trkpt lat="38.12959833" lon="-4.89956167">
        <ele>498.0</ele>
        <time>2018-10-06T10:57:36.000Z</time>
      </trkpt>
      <trkpt lat="38.12959833" lon="-4.89956167">
        <ele>498.0</ele>
        <time>2018-10-06T10:57:37.000Z</time>
      </trkpt>
      <trkpt lat="38.12959833" lon="-4.89956167">
        <ele>498.0</ele>
        <time>2018-10-06T10:57:38.000Z</time>
      </trkpt>
      <trkpt lat="38.12959833" lon="-4.89956167">
        <ele>498.0</ele>
        <time>2018-10-06T10:57:39.000Z</time>
      </trkpt>
      <trkpt lat="38.12959833" lon="-4.89956167">
        <ele>498.0</ele>
        <time>2018-10-06T10:57:40.000Z</time>
      </trkpt>
      <trkpt lat="38.12959833" lon="-4.89956167">
        <ele>498.0</ele>
        <time>2018-10-06T10:57:41.000Z</time>
      </trkpt>
      <trkpt lat="38.12959833" lon="-4.89956167">
        <ele>498.0</ele>
        <time>2018-10-06T10:57:42.000Z</time>
      </trkpt>
      <trkpt lat="38.12959833" lon="-4.89956167">
        <ele>498.0</ele>
        <time>2018-10-06T10:57:43.000Z</time>
      </trkpt>
      <trkpt lat="38.12959833" lon="-4.89956167">
        <ele>498.0</ele>
        <time>2018-10-06T10:57:44.000Z</time>
      </trkpt>
      <trkpt lat="38.12959833" lon="-4.89956167">
        <ele>498.0</ele>
        <time>2018-10-06T10:57:45.000Z</time>
      </trkpt>
      <trkpt lat="38.12959833" lon="-4.89956167">
        <ele>498.0</ele>
        <time>2018-10-06T10:57:46.000Z</time>
      </trkpt>
      <trkpt lat="38.12959833" lon="-4.89956167">
        <ele>498.0</ele>
        <time>2018-10-06T10:57:47.000Z</time>
      </trkpt>
      <trkpt lat="38.12959833" lon="-4.89956167">
        <ele>498.0</ele>
        <time>2018-10-06T10:57:48.000Z</time>
      </trkpt>
      <trkpt lat="38.12959833" lon="-4.89956167">
        <ele>498.0</ele>
        <time>2018-10-06T10:57:49.000Z</time>
      </trkpt>
      <trkpt lat="38.12959833" lon="-4.89956167">
        <ele>498.0</ele>
        <time>2018-10-06T10:57:50.000Z</time>
      </trkpt>
      <trkpt lat="38.12959833" lon="-4.89956167">
        <ele>498.0</ele>
        <time>2018-10-06T10:57:51.000Z</time>
      </trkpt>
      <trkpt lat="38.12959833" lon="-4.89956167">
        <ele>498.0</ele>
        <time>2018-10-06T10:57:52.000Z</time>
      </trkpt>
      <trkpt lat="38.12959833" lon="-4.89956167">
        <ele>498.0</ele>
        <time>2018-10-06T10:57:53.000Z</time>
      </trkpt>
      <trkpt lat="38.13003" lon="-4.89987833">
        <ele>508.0</ele>
        <time>2018-10-06T10:57:54.000Z</time>
      </trkpt>
      <trkpt lat="38.13004167" lon="-4.89987833">
        <ele>508.0</ele>
        <time>2018-10-06T10:57:55.000Z</time>
      </trkpt>
      <trkpt lat="38.13005" lon="-4.89987833">
        <ele>507.0</ele>
        <time>2018-10-06T10:57:56.000Z</time>
      </trkpt>
      <trkpt lat="38.13006667" lon="-4.89987833">
        <ele>507.0</ele>
        <time>2018-10-06T10:57:57.000Z</time>
      </trkpt>
      <trkpt lat="38.13008333" lon="-4.89988167">
        <ele>507.0</ele>
        <time>2018-10-06T10:57:58.000Z</time>
      </trkpt>
      <trkpt lat="38.13009833" lon="-4.89988833">
        <ele>507.0</ele>
        <time>2018-10-06T10:57:59.000Z</time>
      </trkpt>
      <trkpt lat="38.13011333" lon="-4.89989167">
        <ele>507.0</ele>
        <time>2018-10-06T10:58:00.000Z</time>
      </trkpt>
      <trkpt lat="38.13012833" lon="-4.89989333">
        <ele>507.0</ele>
        <time>2018-10-06T10:58:01.000Z</time>
      </trkpt>
      <trkpt lat="38.13014167" lon="-4.89989667">
        <ele>507.0</ele>
        <time>2018-10-06T10:58:02.000Z</time>
      </trkpt>
      <trkpt lat="38.13015667" lon="-4.89989833">
        <ele>506.0</ele>
        <time>2018-10-06T10:58:03.000Z</time>
      </trkpt>
      <trkpt lat="38.13017" lon="-4.89990167">
        <ele>506.0</ele>
        <time>2018-10-06T10:58:04.000Z</time>
      </trkpt>
      <trkpt lat="38.13018333" lon="-4.899905">
        <ele>506.0</ele>
        <time>2018-10-06T10:58:05.000Z</time>
      </trkpt>
      <trkpt lat="38.13018333" lon="-4.899905">
        <ele>506.0</ele>
        <time>2018-10-06T10:58:06.000Z</time>
      </trkpt>
      <trkpt lat="38.13018333" lon="-4.899905">
        <ele>506.0</ele>
        <time>2018-10-06T10:58:07.000Z</time>
      </trkpt>
      <trkpt lat="38.13018333" lon="-4.899905">
        <ele>506.0</ele>
        <time>2018-10-06T10:58:08.000Z</time>
      </trkpt>
      <trkpt lat="38.13018333" lon="-4.899905">
        <ele>506.0</ele>
        <time>2018-10-06T10:58:09.000Z</time>
      </trkpt>
      <trkpt lat="38.13018333" lon="-4.899905">
        <ele>506.0</ele>
        <time>2018-10-06T10:58:10.000Z</time>
      </trkpt>
      <trkpt lat="38.13018333" lon="-4.899905">
        <ele>506.0</ele>
        <time>2018-10-06T10:58:11.000Z</time>
      </trkpt>
      <trkpt lat="38.13018333" lon="-4.899905">
        <ele>506.0</ele>
        <time>2018-10-06T10:58:12.000Z</time>
      </trkpt>
      <trkpt lat="38.13018333" lon="-4.899905">
        <ele>506.0</ele>
        <time>2018-10-06T10:58:13.000Z</time>
      </trkpt>
      <trkpt lat="38.13018333" lon="-4.899905">
        <ele>506.0</ele>
        <time>2018-10-06T10:58:14.000Z</time>
      </trkpt>
      <trkpt lat="38.13018333" lon="-4.899905">
        <ele>506.0</ele>
        <time>2018-10-06T10:58:15.000Z</time>
      </trkpt>
      <trkpt lat="38.13018333" lon="-4.899905">
        <ele>506.0</ele>
        <time>2018-10-06T10:58:16.000Z</time>
      </trkpt>
      <trkpt lat="38.13018333" lon="-4.899905">
        <ele>506.0</ele>
        <time>2018-10-06T10:58:17.000Z</time>
      </trkpt>
      <trkpt lat="38.13018333" lon="-4.899905">
        <ele>506.0</ele>
        <time>2018-10-06T10:58:18.000Z</time>
      </trkpt>
      <trkpt lat="38.13018333" lon="-4.899905">
        <ele>506.0</ele>
        <time>2018-10-06T10:58:19.000Z</time>
      </trkpt>
      <trkpt lat="38.13018333" lon="-4.899905">
        <ele>506.0</ele>
        <time>2018-10-06T10:58:20.000Z</time>
      </trkpt>
      <trkpt lat="38.13018333" lon="-4.899905">
        <ele>506.0</ele>
        <time>2018-10-06T10:58:21.000Z</time>
      </trkpt>
      <trkpt lat="38.13018333" lon="-4.899905">
        <ele>506.0</ele>
        <time>2018-10-06T10:58:22.000Z</time>
      </trkpt>
      <trkpt lat="38.13018333" lon="-4.899905">
        <ele>506.0</ele>
        <time>2018-10-06T10:58:23.000Z</time>
      </trkpt>
      <trkpt lat="38.13018333" lon="-4.899905">
        <ele>506.0</ele>
        <time>2018-10-06T10:58:24.000Z</time>
      </trkpt>
      <trkpt lat="38.13018333" lon="-4.899905">
        <ele>506.0</ele>
        <time>2018-10-06T10:58:25.000Z</time>
      </trkpt>
      <trkpt lat="38.13018333" lon="-4.899905">
        <ele>506.0</ele>
        <time>2018-10-06T10:58:26.000Z</time>
      </trkpt>
      <trkpt lat="38.13018333" lon="-4.899905">
        <ele>506.0</ele>
        <time>2018-10-06T10:58:27.000Z</time>
      </trkpt>
      <trkpt lat="38.13018333" lon="-4.899905">
        <ele>506.0</ele>
        <time>2018-10-06T10:58:28.000Z</time>
      </trkpt>
      <trkpt lat="38.13018333" lon="-4.899905">
        <ele>506.0</ele>
        <time>2018-10-06T10:58:29.000Z</time>
      </trkpt>
      <trkpt lat="38.13018333" lon="-4.899905">
        <ele>506.0</ele>
        <time>2018-10-06T10:58:30.000Z</time>
      </trkpt>
      <trkpt lat="38.13018333" lon="-4.899905">
        <ele>506.0</ele>
        <time>2018-10-06T10:58:31.000Z</time>
      </trkpt>
      <trkpt lat="38.13018333" lon="-4.899905">
        <ele>506.0</ele>
        <time>2018-10-06T10:58:32.000Z</time>
      </trkpt>
      <trkpt lat="38.13018333" lon="-4.899905">
        <ele>506.0</ele>
        <time>2018-10-06T10:58:33.000Z</time>
      </trkpt>
      <trkpt lat="38.13018333" lon="-4.899905">
        <ele>506.0</ele>
        <time>2018-10-06T10:58:34.000Z</time>
      </trkpt>
      <trkpt lat="38.13018333" lon="-4.899905">
        <ele>506.0</ele>
        <time>2018-10-06T10:58:35.000Z</time>
      </trkpt>
      <trkpt lat="38.13018333" lon="-4.899905">
        <ele>506.0</ele>
        <time>2018-10-06T10:58:36.000Z</time>
      </trkpt>
      <trkpt lat="38.13018333" lon="-4.899905">
        <ele>506.0</ele>
        <time>2018-10-06T10:58:37.000Z</time>
      </trkpt>
      <trkpt lat="38.13018333" lon="-4.899905">
        <ele>506.0</ele>
        <time>2018-10-06T10:58:38.000Z</time>
      </trkpt>
      <trkpt lat="38.13018333" lon="-4.899905">
        <ele>506.0</ele>
        <time>2018-10-06T10:58:39.000Z</time>
      </trkpt>
      <trkpt lat="38.13018333" lon="-4.899905">
        <ele>506.0</ele>
        <time>2018-10-06T10:58:40.000Z</time>
      </trkpt>
      <trkpt lat="38.13018333" lon="-4.899905">
        <ele>506.0</ele>
        <time>2018-10-06T10:58:41.000Z</time>
      </trkpt>
      <trkpt lat="38.13018333" lon="-4.899905">
        <ele>506.0</ele>
        <time>2018-10-06T10:58:42.000Z</time>
      </trkpt>
      <trkpt lat="38.13018333" lon="-4.899905">
        <ele>506.0</ele>
        <time>2018-10-06T10:58:43.000Z</time>
      </trkpt>
      <trkpt lat="38.13018333" lon="-4.899905">
        <ele>506.0</ele>
        <time>2018-10-06T10:58:44.000Z</time>
      </trkpt>
      <trkpt lat="38.13018333" lon="-4.899905">
        <ele>506.0</ele>
        <time>2018-10-06T10:58:45.000Z</time>
      </trkpt>
      <trkpt lat="38.13018333" lon="-4.899905">
        <ele>506.0</ele>
        <time>2018-10-06T10:58:46.000Z</time>
      </trkpt>
      <trkpt lat="38.13018333" lon="-4.899905">
        <ele>506.0</ele>
        <time>2018-10-06T10:58:47.000Z</time>
      </trkpt>
      <trkpt lat="38.13018333" lon="-4.899905">
        <ele>506.0</ele>
        <time>2018-10-06T10:58:48.000Z</time>
      </trkpt>
      <trkpt lat="38.13018333" lon="-4.899905">
        <ele>506.0</ele>
        <time>2018-10-06T10:58:49.000Z</time>
      </trkpt>
      <trkpt lat="38.13018333" lon="-4.899905">
        <ele>506.0</ele>
        <time>2018-10-06T10:58:50.000Z</time>
      </trkpt>
      <trkpt lat="38.13018333" lon="-4.899905">
        <ele>506.0</ele>
        <time>2018-10-06T10:58:51.000Z</time>
      </trkpt>
      <trkpt lat="38.13018333" lon="-4.899905">
        <ele>506.0</ele>
        <time>2018-10-06T10:58:52.000Z</time>
      </trkpt>
      <trkpt lat="38.13018333" lon="-4.899905">
        <ele>506.0</ele>
        <time>2018-10-06T10:58:53.000Z</time>
      </trkpt>
      <trkpt lat="38.13007" lon="-4.90000833">
        <ele>512.0</ele>
        <time>2018-10-06T10:58:54.000Z</time>
      </trkpt>
      <trkpt lat="38.13005667" lon="-4.90002167">
        <ele>511.0</ele>
        <time>2018-10-06T10:58:55.000Z</time>
      </trkpt>
      <trkpt lat="38.13004333" lon="-4.900035">
        <ele>511.0</ele>
        <time>2018-10-06T10:58:56.000Z</time>
      </trkpt>
      <trkpt lat="38.13003333" lon="-4.90005167">
        <ele>510.0</ele>
        <time>2018-10-06T10:58:57.000Z</time>
      </trkpt>
      <trkpt lat="38.13002167" lon="-4.900065">
        <ele>510.0</ele>
        <time>2018-10-06T10:58:58.000Z</time>
      </trkpt>
      <trkpt lat="38.13001167" lon="-4.90007833">
        <ele>510.0</ele>
        <time>2018-10-06T10:58:59.000Z</time>
      </trkpt>
      <trkpt lat="38.13000167" lon="-4.90009">
        <ele>509.0</ele>
        <time>2018-10-06T10:59:00.000Z</time>
      </trkpt>
      <trkpt lat="38.12999333" lon="-4.90010167">
        <ele>509.0</ele>
        <time>2018-10-06T10:59:01.000Z</time>
      </trkpt>
      <trkpt lat="38.129985" lon="-4.90011">
        <ele>509.0</ele>
        <time>2018-10-06T10:59:02.000Z</time>
      </trkpt>
      <trkpt lat="38.12997333" lon="-4.90011833">
        <ele>509.0</ele>
        <time>2018-10-06T10:59:03.000Z</time>
      </trkpt>
      <trkpt lat="38.12996333" lon="-4.90012333">
        <ele>509.0</ele>
        <time>2018-10-06T10:59:04.000Z</time>
      </trkpt>
      <trkpt lat="38.12995167" lon="-4.90013167">
        <ele>508.0</ele>
        <time>2018-10-06T10:59:05.000Z</time>
      </trkpt>
      <trkpt lat="38.12995167" lon="-4.90013167">
        <ele>508.0</ele>
        <time>2018-10-06T10:59:06.000Z</time>
      </trkpt>
      <trkpt lat="38.12995167" lon="-4.90013167">
        <ele>508.0</ele>
        <time>2018-10-06T10:59:07.000Z</time>
      </trkpt>
      <trkpt lat="38.12995167" lon="-4.90013167">
        <ele>508.0</ele>
        <time>2018-10-06T10:59:08.000Z</time>
      </trkpt>
      <trkpt lat="38.12995167" lon="-4.90013167">
        <ele>508.0</ele>
        <time>2018-10-06T10:59:09.000Z</time>
      </trkpt>
      <trkpt lat="38.12995167" lon="-4.90013167">
        <ele>508.0</ele>
        <time>2018-10-06T10:59:10.000Z</time>
      </trkpt>
      <trkpt lat="38.12995167" lon="-4.90013167">
        <ele>508.0</ele>
        <time>2018-10-06T10:59:11.000Z</time>
      </trkpt>
      <trkpt lat="38.12995167" lon="-4.90013167">
        <ele>508.0</ele>
        <time>2018-10-06T10:59:12.000Z</time>
      </trkpt>
      <trkpt lat="38.12995167" lon="-4.90013167">
        <ele>508.0</ele>
        <time>2018-10-06T10:59:13.000Z</time>
      </trkpt>
      <trkpt lat="38.12995167" lon="-4.90013167">
        <ele>508.0</ele>
        <time>2018-10-06T10:59:14.000Z</time>
      </trkpt>
      <trkpt lat="38.12995167" lon="-4.90013167">
        <ele>508.0</ele>
        <time>2018-10-06T10:59:15.000Z</time>
      </trkpt>
      <trkpt lat="38.12995167" lon="-4.90013167">
        <ele>508.0</ele>
        <time>2018-10-06T10:59:16.000Z</time>
      </trkpt>
      <trkpt lat="38.12995167" lon="-4.90013167">
        <ele>508.0</ele>
        <time>2018-10-06T10:59:17.000Z</time>
      </trkpt>
      <trkpt lat="38.12995167" lon="-4.90013167">
        <ele>508.0</ele>
        <time>2018-10-06T10:59:18.000Z</time>
      </trkpt>
      <trkpt lat="38.12995167" lon="-4.90013167">
        <ele>508.0</ele>
        <time>2018-10-06T10:59:19.000Z</time>
      </trkpt>
      <trkpt lat="38.12986333" lon="-4.90020167">
        <ele>515.0</ele>
        <time>2018-10-06T10:59:20.000Z</time>
      </trkpt>
    </trkseg>
  </trk>
</gpx>
